<?xml version='1.0' encoding='UTF-8'?><gpx version="1.1" creator="JPX - https://github.com/jenetics/jpx" xmlns="http://www.topografix.com/GPX/1/1"><trk><trkseg><trkpt lat="43.2123983" lon="2.3250667"><ele>111.0</ele><time>2026-03-30T06:07:12.687Z</time></trkpt><trkpt lat="43.2124167" lon="2.32496"><ele>111.0</ele><time>2026-03-30T06:07:40.685Z</time></trkpt><trkpt lat="43.212425" lon="2.3248633"><ele>111.0</ele><time>2026-03-30T06:07:42.686Z</time></trkpt><trkpt lat="43.2124317" lon="2.3247567"><ele>111.0</ele><time>2026-03-30T06:07:44.688Z</time></trkpt><trkpt lat="43.2123633" lon="2.3246333"><ele>111.0</ele><time>2026-03-30T06:07:46.685Z</time></trkpt><trkpt lat="43.2122483" lon="2.3245667"><ele>111.16666666666667</ele><time>2026-03-30T06:07:48.69Z</time></trkpt><trkpt lat="43.2121833" lon="2.3245367"><ele>111.33333333333334</ele><time>2026-03-30T06:07:49.688Z</time></trkpt><trkpt lat="43.2121167" lon="2.3245183"><ele>111.5</ele><time>2026-03-30T06:07:50.688Z</time></trkpt><trkpt lat="43.2120583" lon="2.324485"><ele>111.66666666666667</ele><time>2026-03-30T06:07:51.687Z</time></trkpt><trkpt lat="43.211965" lon="2.3244383"><ele>111.83333333333334</ele><time>2026-03-30T06:07:53.687Z</time></trkpt><trkpt lat="43.21188" lon="2.32438"><ele>112.0</ele><time>2026-03-30T06:07:55.687Z</time></trkpt><trkpt lat="43.2117817" lon="2.324345"><ele>112.00000000000001</ele><time>2026-03-30T06:07:57.686Z</time></trkpt><trkpt lat="43.2116867" lon="2.3243383"><ele>112.0</ele><time>2026-03-30T06:07:59.689Z</time></trkpt><trkpt lat="43.211615" lon="2.3242967"><ele>112.0</ele><time>2026-03-30T06:08:01.689Z</time></trkpt><trkpt lat="43.2115633" lon="2.3242467"><ele>112.0</ele><time>2026-03-30T06:08:03.686Z</time></trkpt><trkpt lat="43.2115117" lon="2.3241783"><ele>112.00000000000001</ele><time>2026-03-30T06:08:06.686Z</time></trkpt><trkpt lat="43.2114683" lon="2.324075"><ele>112.0</ele><time>2026-03-30T06:08:08.692Z</time></trkpt><trkpt lat="43.211405" lon="2.3239517"><ele>112.33333333333334</ele><time>2026-03-30T06:08:10.686Z</time></trkpt><trkpt lat="43.21135" lon="2.323795"><ele>112.66666666666667</ele><time>2026-03-30T06:08:12.687Z</time></trkpt><trkpt lat="43.211345" lon="2.3237017"><ele>113.0</ele><time>2026-03-30T06:08:13.689Z</time></trkpt><trkpt lat="43.2113417" lon="2.323605"><ele>113.33333333333334</ele><time>2026-03-30T06:08:14.689Z</time></trkpt><trkpt lat="43.2113383" lon="2.3234967"><ele>113.66666666666667</ele><time>2026-03-30T06:08:15.689Z</time></trkpt><trkpt lat="43.2113367" lon="2.323385"><ele>114.0</ele><time>2026-03-30T06:08:16.686Z</time></trkpt><trkpt lat="43.211335" lon="2.323275"><ele>114.0</ele><time>2026-03-30T06:08:17.686Z</time></trkpt><trkpt lat="43.2113367" lon="2.3231583"><ele>114.0</ele><time>2026-03-30T06:08:18.687Z</time></trkpt><trkpt lat="43.211345" lon="2.3230367"><ele>114.0</ele><time>2026-03-30T06:08:19.686Z</time></trkpt><trkpt lat="43.2113483" lon="2.322905"><ele>114.0</ele><time>2026-03-30T06:08:20.686Z</time></trkpt><trkpt lat="43.21135" lon="2.3227767"><ele>114.0</ele><time>2026-03-30T06:08:21.687Z</time></trkpt><trkpt lat="43.2113533" lon="2.3226483"><ele>114.2</ele><time>2026-03-30T06:08:22.688Z</time></trkpt><trkpt lat="43.2113583" lon="2.32251"><ele>114.4</ele><time>2026-03-30T06:08:23.691Z</time></trkpt><trkpt lat="43.21136" lon="2.3223683"><ele>114.6</ele><time>2026-03-30T06:08:24.688Z</time></trkpt><trkpt lat="43.21136" lon="2.3222333"><ele>114.8</ele><time>2026-03-30T06:08:25.688Z</time></trkpt><trkpt lat="43.2113617" lon="2.3220883"><ele>115.0</ele><time>2026-03-30T06:08:26.689Z</time></trkpt><trkpt lat="43.2113667" lon="2.3219383"><ele>115.2</ele><time>2026-03-30T06:08:27.688Z</time></trkpt><trkpt lat="43.2113717" lon="2.3217867"><ele>115.4</ele><time>2026-03-30T06:08:28.686Z</time></trkpt><trkpt lat="43.2113767" lon="2.3216333"><ele>115.6</ele><time>2026-03-30T06:08:29.687Z</time></trkpt><trkpt lat="43.2113883" lon="2.3214817"><ele>115.8</ele><time>2026-03-30T06:08:30.686Z</time></trkpt><trkpt lat="43.2114033" lon="2.321335"><ele>116.0</ele><time>2026-03-30T06:08:31.688Z</time></trkpt><trkpt lat="43.211415" lon="2.321195"><ele>116.19999999999999</ele><time>2026-03-30T06:08:32.688Z</time></trkpt><trkpt lat="43.2114267" lon="2.321065"><ele>116.39999999999999</ele><time>2026-03-30T06:08:33.687Z</time></trkpt><trkpt lat="43.2114383" lon="2.3209367"><ele>116.6</ele><time>2026-03-30T06:08:34.686Z</time></trkpt><trkpt lat="43.2114533" lon="2.320815"><ele>116.8</ele><time>2026-03-30T06:08:35.69Z</time></trkpt><trkpt lat="43.2114633" lon="2.3206917"><ele>117.0</ele><time>2026-03-30T06:08:36.688Z</time></trkpt><trkpt lat="43.2114733" lon="2.3205767"><ele>117.0</ele><time>2026-03-30T06:08:37.689Z</time></trkpt><trkpt lat="43.2114867" lon="2.32049"><ele>117.0</ele><time>2026-03-30T06:08:38.687Z</time></trkpt><trkpt lat="43.2115033" lon="2.3203317"><ele>117.0</ele><time>2026-03-30T06:08:40.687Z</time></trkpt><trkpt lat="43.21153" lon="2.3201783"><ele>117.0</ele><time>2026-03-30T06:08:42.691Z</time></trkpt><trkpt lat="43.2115517" lon="2.3200933"><ele>117.0</ele><time>2026-03-30T06:08:43.688Z</time></trkpt><trkpt lat="43.211585" lon="2.320005"><ele>117.0</ele><time>2026-03-30T06:08:44.688Z</time></trkpt><trkpt lat="43.2116267" lon="2.319925"><ele>117.0</ele><time>2026-03-30T06:08:45.689Z</time></trkpt><trkpt lat="43.2116683" lon="2.31985"><ele>117.0</ele><time>2026-03-30T06:08:46.687Z</time></trkpt><trkpt lat="43.2116983" lon="2.319755"><ele>117.0</ele><time>2026-03-30T06:08:47.686Z</time></trkpt><trkpt lat="43.2117233" lon="2.31965"><ele>117.0</ele><time>2026-03-30T06:08:48.689Z</time></trkpt><trkpt lat="43.2117367" lon="2.3195417"><ele>117.0</ele><time>2026-03-30T06:08:49.69Z</time></trkpt><trkpt lat="43.2117317" lon="2.31944"><ele>117.0</ele><time>2026-03-30T06:08:50.688Z</time></trkpt><trkpt lat="43.2116933" lon="2.319355"><ele>117.0</ele><time>2026-03-30T06:08:51.687Z</time></trkpt><trkpt lat="43.2116617" lon="2.319275"><ele>117.0</ele><time>2026-03-30T06:08:52.688Z</time></trkpt><trkpt lat="43.2116033" lon="2.3192317"><ele>117.0</ele><time>2026-03-30T06:08:53.688Z</time></trkpt><trkpt lat="43.2115283" lon="2.3192167"><ele>117.0</ele><time>2026-03-30T06:08:54.689Z</time></trkpt><trkpt lat="43.2114483" lon="2.3193033"><ele>117.0</ele><time>2026-03-30T06:08:55.69Z</time></trkpt><trkpt lat="43.2113583" lon="2.3194233"><ele>117.0</ele><time>2026-03-30T06:08:56.687Z</time></trkpt><trkpt lat="43.211275" lon="2.31951"><ele>117.0</ele><time>2026-03-30T06:08:57.687Z</time></trkpt><trkpt lat="43.211185" lon="2.31957"><ele>116.99999999999999</ele><time>2026-03-30T06:08:58.687Z</time></trkpt><trkpt lat="43.2111" lon="2.3196033"><ele>116.99999999999999</ele><time>2026-03-30T06:08:59.69Z</time></trkpt><trkpt lat="43.211005" lon="2.3196317"><ele>117.0</ele><time>2026-03-30T06:09:00.688Z</time></trkpt><trkpt lat="43.210895" lon="2.319655"><ele>117.0</ele><time>2026-03-30T06:09:01.687Z</time></trkpt><trkpt lat="43.2108067" lon="2.3196567"><ele>117.0</ele><time>2026-03-30T06:09:02.69Z</time></trkpt><trkpt lat="43.2107183" lon="2.3196633"><ele>116.99999999999999</ele><time>2026-03-30T06:09:03.689Z</time></trkpt><trkpt lat="43.21063" lon="2.319665"><ele>116.99999999999999</ele><time>2026-03-30T06:09:04.687Z</time></trkpt><trkpt lat="43.21054" lon="2.3196667"><ele>117.0</ele><time>2026-03-30T06:09:05.687Z</time></trkpt><trkpt lat="43.21045" lon="2.3196683"><ele>117.0</ele><time>2026-03-30T06:09:06.689Z</time></trkpt><trkpt lat="43.210355" lon="2.31967"><ele>117.19999999999999</ele><time>2026-03-30T06:09:07.687Z</time></trkpt><trkpt lat="43.21026" lon="2.3196633"><ele>117.39999999999999</ele><time>2026-03-30T06:09:08.688Z</time></trkpt><trkpt lat="43.2101617" lon="2.3196583"><ele>117.60000000000001</ele><time>2026-03-30T06:09:09.687Z</time></trkpt><trkpt lat="43.2100667" lon="2.319655"><ele>117.80000000000001</ele><time>2026-03-30T06:09:10.688Z</time></trkpt><trkpt lat="43.20998" lon="2.31966"><ele>118.0</ele><time>2026-03-30T06:09:11.686Z</time></trkpt><trkpt lat="43.2098917" lon="2.31965"><ele>117.66666666666667</ele><time>2026-03-30T06:09:12.687Z</time></trkpt><trkpt lat="43.2097983" lon="2.31964"><ele>117.33333333333334</ele><time>2026-03-30T06:09:13.688Z</time></trkpt><trkpt lat="43.20971" lon="2.3196383"><ele>117.0</ele><time>2026-03-30T06:09:14.687Z</time></trkpt><trkpt lat="43.2096267" lon="2.31964"><ele>116.66666666666666</ele><time>2026-03-30T06:09:15.686Z</time></trkpt><trkpt lat="43.2095433" lon="2.3196417"><ele>116.33333333333333</ele><time>2026-03-30T06:09:16.688Z</time></trkpt><trkpt lat="43.209445" lon="2.3196467"><ele>116.0</ele><time>2026-03-30T06:09:17.687Z</time></trkpt><trkpt lat="43.20936" lon="2.3196367"><ele>116.0</ele><time>2026-03-30T06:09:18.687Z</time></trkpt><trkpt lat="43.2092733" lon="2.3196267"><ele>116.0</ele><time>2026-03-30T06:09:19.687Z</time></trkpt><trkpt lat="43.2091917" lon="2.3196133"><ele>116.0</ele><time>2026-03-30T06:09:20.688Z</time></trkpt><trkpt lat="43.2091017" lon="2.319605"><ele>116.0</ele><time>2026-03-30T06:09:21.686Z</time></trkpt><trkpt lat="43.2090033" lon="2.3196133"><ele>116.0</ele><time>2026-03-30T06:09:22.686Z</time></trkpt><trkpt lat="43.2089067" lon="2.3196133"><ele>116.19999999999999</ele><time>2026-03-30T06:09:23.685Z</time></trkpt><trkpt lat="43.2088067" lon="2.3196133"><ele>116.39999999999999</ele><time>2026-03-30T06:09:24.685Z</time></trkpt><trkpt lat="43.2087083" lon="2.3196183"><ele>116.6</ele><time>2026-03-30T06:09:25.687Z</time></trkpt><trkpt lat="43.20861" lon="2.3196433"><ele>116.8</ele><time>2026-03-30T06:09:26.687Z</time></trkpt><trkpt lat="43.20852" lon="2.3196867"><ele>117.0</ele><time>2026-03-30T06:09:27.687Z</time></trkpt><trkpt lat="43.2084317" lon="2.3197333"><ele>117.0</ele><time>2026-03-30T06:09:28.687Z</time></trkpt><trkpt lat="43.208345" lon="2.319745"><ele>116.99999999999999</ele><time>2026-03-30T06:09:29.689Z</time></trkpt><trkpt lat="43.208255" lon="2.3197267"><ele>116.99999999999999</ele><time>2026-03-30T06:09:30.686Z</time></trkpt><trkpt lat="43.208175" lon="2.3196567"><ele>117.0</ele><time>2026-03-30T06:09:31.687Z</time></trkpt><trkpt lat="43.2081017" lon="2.31956"><ele>117.0</ele><time>2026-03-30T06:09:32.687Z</time></trkpt><trkpt lat="43.20805" lon="2.3194283"><ele>117.0</ele><time>2026-03-30T06:09:33.687Z</time></trkpt><trkpt lat="43.2080067" lon="2.3192883"><ele>117.0</ele><time>2026-03-30T06:09:34.69Z</time></trkpt><trkpt lat="43.207965" lon="2.3191467"><ele>117.0</ele><time>2026-03-30T06:09:35.692Z</time></trkpt><trkpt lat="43.2079217" lon="2.3190017"><ele>117.0</ele><time>2026-03-30T06:09:36.686Z</time></trkpt><trkpt lat="43.2078733" lon="2.3188567"><ele>116.66666666666667</ele><time>2026-03-30T06:09:37.687Z</time></trkpt><trkpt lat="43.2078283" lon="2.3187217"><ele>116.33333333333334</ele><time>2026-03-30T06:09:38.687Z</time></trkpt><trkpt lat="43.207795" lon="2.31861"><ele>116.0</ele><time>2026-03-30T06:09:39.686Z</time></trkpt><trkpt lat="43.2077583" lon="2.318515"><ele>115.66666666666667</ele><time>2026-03-30T06:09:40.687Z</time></trkpt><trkpt lat="43.2077233" lon="2.3184417"><ele>115.33333333333334</ele><time>2026-03-30T06:09:41.686Z</time></trkpt><trkpt lat="43.2076717" lon="2.3183283"><ele>115.0</ele><time>2026-03-30T06:09:43.685Z</time></trkpt><trkpt lat="43.207645" lon="2.3181917"><ele>114.99999999999999</ele><time>2026-03-30T06:09:45.686Z</time></trkpt><trkpt lat="43.2076117" lon="2.3181133"><ele>115.0</ele><time>2026-03-30T06:09:46.688Z</time></trkpt><trkpt lat="43.20756" lon="2.3180567"><ele>114.99999999999999</ele><time>2026-03-30T06:09:47.687Z</time></trkpt><trkpt lat="43.2075033" lon="2.318015"><ele>114.99999999999999</ele><time>2026-03-30T06:09:48.69Z</time></trkpt><trkpt lat="43.207435" lon="2.3180267"><ele>115.0</ele><time>2026-03-30T06:09:49.691Z</time></trkpt><trkpt lat="43.2073667" lon="2.3180267"><ele>114.99999999999999</ele><time>2026-03-30T06:09:50.685Z</time></trkpt><trkpt lat="43.207295" lon="2.318005"><ele>114.99999999999999</ele><time>2026-03-30T06:09:51.685Z</time></trkpt><trkpt lat="43.2072083" lon="2.317975"><ele>115.0</ele><time>2026-03-30T06:09:52.686Z</time></trkpt><trkpt lat="43.20711" lon="2.317945"><ele>115.0</ele><time>2026-03-30T06:09:53.691Z</time></trkpt><trkpt lat="43.207" lon="2.3179317"><ele>115.0</ele><time>2026-03-30T06:09:54.688Z</time></trkpt><trkpt lat="43.2068867" lon="2.3179267"><ele>115.0</ele><time>2026-03-30T06:09:55.688Z</time></trkpt><trkpt lat="43.206775" lon="2.3179167"><ele>115.0</ele><time>2026-03-30T06:09:56.686Z</time></trkpt><trkpt lat="43.20666" lon="2.3179067"><ele>115.0</ele><time>2026-03-30T06:09:57.689Z</time></trkpt><trkpt lat="43.2065417" lon="2.3178933"><ele>115.0</ele><time>2026-03-30T06:09:58.69Z</time></trkpt><trkpt lat="43.20642" lon="2.31788"><ele>115.0</ele><time>2026-03-30T06:09:59.687Z</time></trkpt><trkpt lat="43.2062967" lon="2.317865"><ele>115.0</ele><time>2026-03-30T06:10:00.687Z</time></trkpt><trkpt lat="43.2061717" lon="2.3178517"><ele>115.25</ele><time>2026-03-30T06:10:01.687Z</time></trkpt><trkpt lat="43.2060467" lon="2.3178383"><ele>115.5</ele><time>2026-03-30T06:10:02.687Z</time></trkpt><trkpt lat="43.20592" lon="2.3178283"><ele>115.75</ele><time>2026-03-30T06:10:03.687Z</time></trkpt><trkpt lat="43.2057917" lon="2.3178183"><ele>116.0</ele><time>2026-03-30T06:10:04.687Z</time></trkpt><trkpt lat="43.2056583" lon="2.317805"><ele>116.25</ele><time>2026-03-30T06:10:05.691Z</time></trkpt><trkpt lat="43.2055217" lon="2.3177933"><ele>116.5</ele><time>2026-03-30T06:10:06.685Z</time></trkpt><trkpt lat="43.205385" lon="2.3177867"><ele>116.75</ele><time>2026-03-30T06:10:07.686Z</time></trkpt><trkpt lat="43.2052533" lon="2.31778"><ele>117.0</ele><time>2026-03-30T06:10:08.686Z</time></trkpt><trkpt lat="43.20512" lon="2.3177717"><ele>117.0</ele><time>2026-03-30T06:10:09.688Z</time></trkpt><trkpt lat="43.204985" lon="2.31776"><ele>117.0</ele><time>2026-03-30T06:10:10.685Z</time></trkpt><trkpt lat="43.2048533" lon="2.3177433"><ele>117.0</ele><time>2026-03-30T06:10:11.686Z</time></trkpt><trkpt lat="43.2047283" lon="2.3177333"><ele>117.0</ele><time>2026-03-30T06:10:12.689Z</time></trkpt><trkpt lat="43.2046117" lon="2.3177267"><ele>116.8</ele><time>2026-03-30T06:10:13.688Z</time></trkpt><trkpt lat="43.2044983" lon="2.3177217"><ele>116.6</ele><time>2026-03-30T06:10:14.686Z</time></trkpt><trkpt lat="43.2043917" lon="2.317705"><ele>116.39999999999999</ele><time>2026-03-30T06:10:15.686Z</time></trkpt><trkpt lat="43.20429" lon="2.3176917"><ele>116.19999999999999</ele><time>2026-03-30T06:10:16.685Z</time></trkpt><trkpt lat="43.20419" lon="2.31772"><ele>116.0</ele><time>2026-03-30T06:10:17.69Z</time></trkpt><trkpt lat="43.2040967" lon="2.31778"><ele>116.0</ele><time>2026-03-30T06:10:18.687Z</time></trkpt><trkpt lat="43.204035" lon="2.3179"><ele>116.0</ele><time>2026-03-30T06:10:19.687Z</time></trkpt><trkpt lat="43.2040267" lon="2.31806"><ele>116.0</ele><time>2026-03-30T06:10:20.687Z</time></trkpt><trkpt lat="43.2040483" lon="2.3182333"><ele>116.0</ele><time>2026-03-30T06:10:21.687Z</time></trkpt><trkpt lat="43.20408" lon="2.3183967"><ele>116.25</ele><time>2026-03-30T06:10:22.689Z</time></trkpt><trkpt lat="43.2041167" lon="2.3185683"><ele>116.5</ele><time>2026-03-30T06:10:23.687Z</time></trkpt><trkpt lat="43.20415" lon="2.318735"><ele>116.75</ele><time>2026-03-30T06:10:24.687Z</time></trkpt><trkpt lat="43.2041783" lon="2.3189017"><ele>117.0</ele><time>2026-03-30T06:10:25.686Z</time></trkpt><trkpt lat="43.204205" lon="2.31907"><ele>117.0</ele><time>2026-03-30T06:10:26.687Z</time></trkpt><trkpt lat="43.2042383" lon="2.31923"><ele>116.99999999999999</ele><time>2026-03-30T06:10:27.686Z</time></trkpt><trkpt lat="43.2042683" lon="2.319375"><ele>116.99999999999999</ele><time>2026-03-30T06:10:28.688Z</time></trkpt><trkpt lat="43.204295" lon="2.319515"><ele>117.0</ele><time>2026-03-30T06:10:29.687Z</time></trkpt><trkpt lat="43.2043033" lon="2.3196583"><ele>117.0</ele><time>2026-03-30T06:10:30.686Z</time></trkpt><trkpt lat="43.2042867" lon="2.3198017"><ele>117.0</ele><time>2026-03-30T06:10:31.685Z</time></trkpt><trkpt lat="43.2042417" lon="2.3199417"><ele>116.99999999999999</ele><time>2026-03-30T06:10:32.686Z</time></trkpt><trkpt lat="43.20419" lon="2.320075"><ele>116.99999999999999</ele><time>2026-03-30T06:10:33.688Z</time></trkpt><trkpt lat="43.20414" lon="2.3202017"><ele>117.0</ele><time>2026-03-30T06:10:34.688Z</time></trkpt><trkpt lat="43.2041033" lon="2.32032"><ele>117.0</ele><time>2026-03-30T06:10:35.686Z</time></trkpt><trkpt lat="43.2040717" lon="2.3204383"><ele>117.0</ele><time>2026-03-30T06:10:36.686Z</time></trkpt><trkpt lat="43.204055" lon="2.32056"><ele>116.99999999999999</ele><time>2026-03-30T06:10:37.687Z</time></trkpt><trkpt lat="43.204045" lon="2.3206817"><ele>116.99999999999999</ele><time>2026-03-30T06:10:38.687Z</time></trkpt><trkpt lat="43.2040383" lon="2.3208067"><ele>117.0</ele><time>2026-03-30T06:10:39.686Z</time></trkpt><trkpt lat="43.204035" lon="2.3209367"><ele>117.0</ele><time>2026-03-30T06:10:40.686Z</time></trkpt><trkpt lat="43.20404" lon="2.32107"><ele>117.0</ele><time>2026-03-30T06:10:41.688Z</time></trkpt><trkpt lat="43.2040483" lon="2.3212083"><ele>116.99999999999999</ele><time>2026-03-30T06:10:42.687Z</time></trkpt><trkpt lat="43.20405" lon="2.3213533"><ele>116.99999999999999</ele><time>2026-03-30T06:10:43.686Z</time></trkpt><trkpt lat="43.20405" lon="2.3215017"><ele>117.0</ele><time>2026-03-30T06:10:44.686Z</time></trkpt><trkpt lat="43.2040417" lon="2.3216467"><ele>117.0</ele><time>2026-03-30T06:10:45.687Z</time></trkpt><trkpt lat="43.204035" lon="2.321795"><ele>117.39999999999999</ele><time>2026-03-30T06:10:46.689Z</time></trkpt><trkpt lat="43.20402" lon="2.3219317"><ele>117.79999999999998</ele><time>2026-03-30T06:10:47.686Z</time></trkpt><trkpt lat="43.204005" lon="2.32207"><ele>118.2</ele><time>2026-03-30T06:10:48.686Z</time></trkpt><trkpt lat="43.2039883" lon="2.3221933"><ele>118.6</ele><time>2026-03-30T06:10:49.687Z</time></trkpt><trkpt lat="43.2039733" lon="2.3223117"><ele>119.0</ele><time>2026-03-30T06:10:50.686Z</time></trkpt><trkpt lat="43.2039633" lon="2.3224267"><ele>120.2</ele><time>2026-03-30T06:10:51.685Z</time></trkpt><trkpt lat="43.20396" lon="2.3225533"><ele>121.4</ele><time>2026-03-30T06:10:52.687Z</time></trkpt><trkpt lat="43.2039433" lon="2.3226833"><ele>122.6</ele><time>2026-03-30T06:10:53.689Z</time></trkpt><trkpt lat="43.2039233" lon="2.3228083"><ele>123.8</ele><time>2026-03-30T06:10:54.685Z</time></trkpt><trkpt lat="43.2039017" lon="2.3229533"><ele>125.0</ele><time>2026-03-30T06:10:55.69Z</time></trkpt><trkpt lat="43.2038733" lon="2.3231033"><ele>125.25</ele><time>2026-03-30T06:10:56.686Z</time></trkpt><trkpt lat="43.2038467" lon="2.3232583"><ele>125.5</ele><time>2026-03-30T06:10:57.685Z</time></trkpt><trkpt lat="43.20382" lon="2.323415"><ele>125.75</ele><time>2026-03-30T06:10:58.685Z</time></trkpt><trkpt lat="43.2038033" lon="2.3235767"><ele>126.0</ele><time>2026-03-30T06:10:59.687Z</time></trkpt><trkpt lat="43.2038017" lon="2.3237183"><ele>126.0</ele><time>2026-03-30T06:11:00.685Z</time></trkpt><trkpt lat="43.2037783" lon="2.3238683"><ele>126.0</ele><time>2026-03-30T06:11:01.686Z</time></trkpt><trkpt lat="43.20376" lon="2.3240367"><ele>126.0</ele><time>2026-03-30T06:11:02.685Z</time></trkpt><trkpt lat="43.20374" lon="2.3242067"><ele>126.0</ele><time>2026-03-30T06:11:03.685Z</time></trkpt><trkpt lat="43.2037083" lon="2.3243683"><ele>126.0</ele><time>2026-03-30T06:11:04.687Z</time></trkpt><trkpt lat="43.20366" lon="2.32453"><ele>126.0</ele><time>2026-03-30T06:11:05.685Z</time></trkpt><trkpt lat="43.203625" lon="2.3247017"><ele>126.0</ele><time>2026-03-30T06:11:06.686Z</time></trkpt><trkpt lat="43.2036133" lon="2.3248783"><ele>126.0</ele><time>2026-03-30T06:11:07.686Z</time></trkpt><trkpt lat="43.2036167" lon="2.32505"><ele>125.5</ele><time>2026-03-30T06:11:08.689Z</time></trkpt><trkpt lat="43.2035983" lon="2.325215"><ele>125.0</ele><time>2026-03-30T06:11:09.687Z</time></trkpt><trkpt lat="43.2035817" lon="2.3253733"><ele>124.5</ele><time>2026-03-30T06:11:10.685Z</time></trkpt><trkpt lat="43.20357" lon="2.3255183"><ele>124.0</ele><time>2026-03-30T06:11:11.685Z</time></trkpt><trkpt lat="43.2035583" lon="2.325665"><ele>123.2</ele><time>2026-03-30T06:11:12.686Z</time></trkpt><trkpt lat="43.2035433" lon="2.325805"><ele>122.4</ele><time>2026-03-30T06:11:13.686Z</time></trkpt><trkpt lat="43.2035217" lon="2.3259433"><ele>121.6</ele><time>2026-03-30T06:11:14.685Z</time></trkpt><trkpt lat="43.2034917" lon="2.3260767"><ele>120.8</ele><time>2026-03-30T06:11:15.686Z</time></trkpt><trkpt lat="43.20347" lon="2.326215"><ele>120.0</ele><time>2026-03-30T06:11:16.685Z</time></trkpt><trkpt lat="43.2034517" lon="2.32636"><ele>119.0</ele><time>2026-03-30T06:11:17.689Z</time></trkpt><trkpt lat="43.2034367" lon="2.326505"><ele>118.0</ele><time>2026-03-30T06:11:18.688Z</time></trkpt><trkpt lat="43.2034233" lon="2.3266567"><ele>117.0</ele><time>2026-03-30T06:11:19.687Z</time></trkpt><trkpt lat="43.2034067" lon="2.3268167"><ele>116.0</ele><time>2026-03-30T06:11:20.69Z</time></trkpt><trkpt lat="43.20339" lon="2.3269883"><ele>116.0</ele><time>2026-03-30T06:11:21.689Z</time></trkpt><trkpt lat="43.2033633" lon="2.3271633"><ele>116.0</ele><time>2026-03-30T06:11:22.685Z</time></trkpt><trkpt lat="43.2033317" lon="2.32734"><ele>116.0</ele><time>2026-03-30T06:11:23.687Z</time></trkpt><trkpt lat="43.203285" lon="2.3275117"><ele>116.0</ele><time>2026-03-30T06:11:24.688Z</time></trkpt><trkpt lat="43.2032383" lon="2.3276783"><ele>116.0</ele><time>2026-03-30T06:11:25.687Z</time></trkpt><trkpt lat="43.2031933" lon="2.3278467"><ele>116.0</ele><time>2026-03-30T06:11:26.688Z</time></trkpt><trkpt lat="43.2031517" lon="2.328015"><ele>116.0</ele><time>2026-03-30T06:11:27.686Z</time></trkpt><trkpt lat="43.2031067" lon="2.3281783"><ele>116.0</ele><time>2026-03-30T06:11:28.687Z</time></trkpt><trkpt lat="43.2030683" lon="2.3283367"><ele>116.19999999999999</ele><time>2026-03-30T06:11:29.688Z</time></trkpt><trkpt lat="43.2030233" lon="2.32848"><ele>116.39999999999999</ele><time>2026-03-30T06:11:30.688Z</time></trkpt><trkpt lat="43.2029733" lon="2.3286083"><ele>116.6</ele><time>2026-03-30T06:11:31.687Z</time></trkpt><trkpt lat="43.2029133" lon="2.3287167"><ele>116.8</ele><time>2026-03-30T06:11:32.687Z</time></trkpt><trkpt lat="43.2028517" lon="2.3288017"><ele>117.0</ele><time>2026-03-30T06:11:33.687Z</time></trkpt><trkpt lat="43.2027933" lon="2.3288817"><ele>116.83333333333333</ele><time>2026-03-30T06:11:34.685Z</time></trkpt><trkpt lat="43.2027467" lon="2.3289667"><ele>116.66666666666666</ele><time>2026-03-30T06:11:35.685Z</time></trkpt><trkpt lat="43.2027233" lon="2.3290617"><ele>116.5</ele><time>2026-03-30T06:11:36.685Z</time></trkpt><trkpt lat="43.2027467" lon="2.3291583"><ele>116.33333333333333</ele><time>2026-03-30T06:11:37.687Z</time></trkpt><trkpt lat="43.2027817" lon="2.3292467"><ele>116.16666666666666</ele><time>2026-03-30T06:11:38.685Z</time></trkpt><trkpt lat="43.20286" lon="2.3292833"><ele>116.0</ele><time>2026-03-30T06:11:39.686Z</time></trkpt><trkpt lat="43.20297" lon="2.3293117"><ele>116.0</ele><time>2026-03-30T06:11:40.685Z</time></trkpt><trkpt lat="43.2030683" lon="2.3293717"><ele>116.0</ele><time>2026-03-30T06:11:41.686Z</time></trkpt><trkpt lat="43.2031667" lon="2.3294567"><ele>116.0</ele><time>2026-03-30T06:11:42.687Z</time></trkpt><trkpt lat="43.20326" lon="2.329535"><ele>116.0</ele><time>2026-03-30T06:11:43.686Z</time></trkpt><trkpt lat="43.2033533" lon="2.3296083"><ele>116.0</ele><time>2026-03-30T06:11:44.687Z</time></trkpt><trkpt lat="43.203445" lon="2.329675"><ele>115.6</ele><time>2026-03-30T06:11:45.687Z</time></trkpt><trkpt lat="43.2035367" lon="2.3297333"><ele>115.19999999999999</ele><time>2026-03-30T06:11:46.689Z</time></trkpt><trkpt lat="43.2036217" lon="2.3297867"><ele>114.80000000000001</ele><time>2026-03-30T06:11:47.686Z</time></trkpt><trkpt lat="43.2037133" lon="2.32984"><ele>114.4</ele><time>2026-03-30T06:11:48.687Z</time></trkpt><trkpt lat="43.2038067" lon="2.3298967"><ele>114.0</ele><time>2026-03-30T06:11:49.686Z</time></trkpt><trkpt lat="43.2039017" lon="2.329955"><ele>114.0</ele><time>2026-03-30T06:11:50.686Z</time></trkpt><trkpt lat="43.2039983" lon="2.3300133"><ele>114.0</ele><time>2026-03-30T06:11:51.685Z</time></trkpt><trkpt lat="43.2040933" lon="2.3300733"><ele>114.0</ele><time>2026-03-30T06:11:52.687Z</time></trkpt><trkpt lat="43.204185" lon="2.33013"><ele>114.0</ele><time>2026-03-30T06:11:53.688Z</time></trkpt><trkpt lat="43.2042783" lon="2.3301833"><ele>114.0</ele><time>2026-03-30T06:11:54.687Z</time></trkpt><trkpt lat="43.2043717" lon="2.33024"><ele>114.0</ele><time>2026-03-30T06:11:55.686Z</time></trkpt><trkpt lat="43.2044667" lon="2.3302983"><ele>114.0</ele><time>2026-03-30T06:11:56.688Z</time></trkpt><trkpt lat="43.2045567" lon="2.330355"><ele>114.0</ele><time>2026-03-30T06:11:57.687Z</time></trkpt><trkpt lat="43.2046417" lon="2.3304033"><ele>114.0</ele><time>2026-03-30T06:11:58.687Z</time></trkpt><trkpt lat="43.204725" lon="2.3304483"><ele>114.0</ele><time>2026-03-30T06:11:59.688Z</time></trkpt><trkpt lat="43.2047933" lon="2.33049"><ele>114.0</ele><time>2026-03-30T06:12:00.686Z</time></trkpt><trkpt lat="43.2048633" lon="2.33053"><ele>114.0</ele><time>2026-03-30T06:12:01.685Z</time></trkpt><trkpt lat="43.2049333" lon="2.3305767"><ele>114.0</ele><time>2026-03-30T06:12:02.687Z</time></trkpt><trkpt lat="43.2050017" lon="2.3306283"><ele>114.0</ele><time>2026-03-30T06:12:03.686Z</time></trkpt><trkpt lat="43.205055" lon="2.3307033"><ele>114.0</ele><time>2026-03-30T06:12:04.686Z</time></trkpt><trkpt lat="43.2050833" lon="2.330805"><ele>114.0</ele><time>2026-03-30T06:12:05.686Z</time></trkpt><trkpt lat="43.2050833" lon="2.3309367"><ele>114.0</ele><time>2026-03-30T06:12:06.688Z</time></trkpt><trkpt lat="43.2050583" lon="2.331085"><ele>114.0</ele><time>2026-03-30T06:12:07.686Z</time></trkpt><trkpt lat="43.2050317" lon="2.3312217"><ele>114.0</ele><time>2026-03-30T06:12:08.686Z</time></trkpt><trkpt lat="43.2050017" lon="2.331355"><ele>114.0</ele><time>2026-03-30T06:12:09.685Z</time></trkpt><trkpt lat="43.2049683" lon="2.3314883"><ele>114.0</ele><time>2026-03-30T06:12:10.685Z</time></trkpt><trkpt lat="43.2049317" lon="2.3316317"><ele>114.0</ele><time>2026-03-30T06:12:11.685Z</time></trkpt><trkpt lat="43.2048983" lon="2.3317733"><ele>114.0</ele><time>2026-03-30T06:12:12.687Z</time></trkpt><trkpt lat="43.204865" lon="2.3319233"><ele>114.0</ele><time>2026-03-30T06:12:13.685Z</time></trkpt><trkpt lat="43.2048333" lon="2.3320633"><ele>114.0</ele><time>2026-03-30T06:12:14.686Z</time></trkpt><trkpt lat="43.2048017" lon="2.3321883"><ele>114.0</ele><time>2026-03-30T06:12:15.687Z</time></trkpt><trkpt lat="43.2047633" lon="2.332305"><ele>113.83333333333333</ele><time>2026-03-30T06:12:16.685Z</time></trkpt><trkpt lat="43.2046983" lon="2.3324217"><ele>113.66666666666666</ele><time>2026-03-30T06:12:18.686Z</time></trkpt><trkpt lat="43.2046533" lon="2.332485"><ele>113.5</ele><time>2026-03-30T06:12:21.686Z</time></trkpt><trkpt lat="43.20457" lon="2.3325433"><ele>113.33333333333333</ele><time>2026-03-30T06:12:23.685Z</time></trkpt><trkpt lat="43.2045117" lon="2.3325933"><ele>113.16666666666666</ele><time>2026-03-30T06:12:24.686Z</time></trkpt><trkpt lat="43.2044533" lon="2.33266"><ele>113.0</ele><time>2026-03-30T06:12:25.685Z</time></trkpt><trkpt lat="43.20441" lon="2.33275"><ele>112.99999999999999</ele><time>2026-03-30T06:12:26.687Z</time></trkpt><trkpt lat="43.2043817" lon="2.332855"><ele>113.0</ele><time>2026-03-30T06:12:27.686Z</time></trkpt><trkpt lat="43.2043733" lon="2.33298"><ele>113.0</ele><time>2026-03-30T06:12:28.686Z</time></trkpt><trkpt lat="43.2043617" lon="2.3330917"><ele>113.0</ele><time>2026-03-30T06:12:29.686Z</time></trkpt><trkpt lat="43.2043317" lon="2.33319"><ele>112.99999999999999</ele><time>2026-03-30T06:12:30.688Z</time></trkpt><trkpt lat="43.204295" lon="2.333285"><ele>113.0</ele><time>2026-03-30T06:12:31.685Z</time></trkpt><trkpt lat="43.20425" lon="2.3333717"><ele>112.16666666666666</ele><time>2026-03-30T06:12:32.688Z</time></trkpt><trkpt lat="43.2042017" lon="2.3334567"><ele>111.33333333333333</ele><time>2026-03-30T06:12:33.686Z</time></trkpt><trkpt lat="43.2041417" lon="2.3335367"><ele>110.5</ele><time>2026-03-30T06:12:34.685Z</time></trkpt><trkpt lat="43.20408" lon="2.333615"><ele>109.66666666666666</ele><time>2026-03-30T06:12:35.686Z</time></trkpt><trkpt lat="43.2040133" lon="2.3336883"><ele>108.83333333333333</ele><time>2026-03-30T06:12:36.686Z</time></trkpt><trkpt lat="43.2039433" lon="2.333765"><ele>108.0</ele><time>2026-03-30T06:12:37.687Z</time></trkpt><trkpt lat="43.2038667" lon="2.33385"><ele>108.2</ele><time>2026-03-30T06:12:38.687Z</time></trkpt><trkpt lat="43.2037867" lon="2.33394"><ele>108.4</ele><time>2026-03-30T06:12:39.686Z</time></trkpt><trkpt lat="43.203705" lon="2.3340283"><ele>108.60000000000001</ele><time>2026-03-30T06:12:40.685Z</time></trkpt><trkpt lat="43.2036283" lon="2.334115"><ele>108.80000000000001</ele><time>2026-03-30T06:12:41.686Z</time></trkpt><trkpt lat="43.2035517" lon="2.334205"><ele>109.0</ele><time>2026-03-30T06:12:42.687Z</time></trkpt><trkpt lat="43.2034717" lon="2.3343"><ele>109.0</ele><time>2026-03-30T06:12:43.686Z</time></trkpt><trkpt lat="43.2033867" lon="2.3343983"><ele>109.0</ele><time>2026-03-30T06:12:44.687Z</time></trkpt><trkpt lat="43.203295" lon="2.3345"><ele>109.0</ele><time>2026-03-30T06:12:45.691Z</time></trkpt><trkpt lat="43.2031983" lon="2.3346083"><ele>109.0</ele><time>2026-03-30T06:12:46.688Z</time></trkpt><trkpt lat="43.2031017" lon="2.3347217"><ele>109.0</ele><time>2026-03-30T06:12:47.686Z</time></trkpt><trkpt lat="43.2030033" lon="2.334835"><ele>109.0</ele><time>2026-03-30T06:12:48.687Z</time></trkpt><trkpt lat="43.2029033" lon="2.33495"><ele>109.0</ele><time>2026-03-30T06:12:49.685Z</time></trkpt><trkpt lat="43.2027983" lon="2.3350683"><ele>109.0</ele><time>2026-03-30T06:12:50.687Z</time></trkpt><trkpt lat="43.2026917" lon="2.3351883"><ele>109.0</ele><time>2026-03-30T06:12:51.686Z</time></trkpt><trkpt lat="43.2025833" lon="2.33531"><ele>109.0</ele><time>2026-03-30T06:12:52.685Z</time></trkpt><trkpt lat="43.2024767" lon="2.33543"><ele>109.0</ele><time>2026-03-30T06:12:53.687Z</time></trkpt><trkpt lat="43.2023683" lon="2.335555"><ele>109.0</ele><time>2026-03-30T06:12:54.688Z</time></trkpt><trkpt lat="43.20226" lon="2.335675"><ele>109.25</ele><time>2026-03-30T06:12:55.691Z</time></trkpt><trkpt lat="43.2021533" lon="2.335795"><ele>109.5</ele><time>2026-03-30T06:12:56.686Z</time></trkpt><trkpt lat="43.2020417" lon="2.3359167"><ele>109.75</ele><time>2026-03-30T06:12:57.688Z</time></trkpt><trkpt lat="43.2019317" lon="2.3360333"><ele>110.0</ele><time>2026-03-30T06:12:58.686Z</time></trkpt><trkpt lat="43.2018167" lon="2.3361467"><ele>110.0</ele><time>2026-03-30T06:12:59.688Z</time></trkpt><trkpt lat="43.2016983" lon="2.3362567"><ele>110.0</ele><time>2026-03-30T06:13:00.685Z</time></trkpt><trkpt lat="43.2015783" lon="2.3363633"><ele>110.0</ele><time>2026-03-30T06:13:01.687Z</time></trkpt><trkpt lat="43.2014583" lon="2.3364717"><ele>110.0</ele><time>2026-03-30T06:13:02.686Z</time></trkpt><trkpt lat="43.201335" lon="2.33657"><ele>109.75</ele><time>2026-03-30T06:13:03.687Z</time></trkpt><trkpt lat="43.2012067" lon="2.3366617"><ele>109.5</ele><time>2026-03-30T06:13:04.685Z</time></trkpt><trkpt lat="43.2010767" lon="2.33675"><ele>109.25</ele><time>2026-03-30T06:13:05.687Z</time></trkpt><trkpt lat="43.200945" lon="2.3368283"><ele>109.0</ele><time>2026-03-30T06:13:06.686Z</time></trkpt><trkpt lat="43.20081" lon="2.3369"><ele>109.0</ele><time>2026-03-30T06:13:07.687Z</time></trkpt><trkpt lat="43.2006733" lon="2.3369667"><ele>109.0</ele><time>2026-03-30T06:13:08.687Z</time></trkpt><trkpt lat="43.2005567" lon="2.3370183"><ele>109.0</ele><time>2026-03-30T06:13:09.688Z</time></trkpt><trkpt lat="43.20045" lon="2.3370517"><ele>109.0</ele><time>2026-03-30T06:13:10.685Z</time></trkpt><trkpt lat="43.2003567" lon="2.337075"><ele>109.16666666666667</ele><time>2026-03-30T06:13:11.686Z</time></trkpt><trkpt lat="43.2002717" lon="2.3371083"><ele>109.33333333333334</ele><time>2026-03-30T06:13:12.686Z</time></trkpt><trkpt lat="43.20019" lon="2.3371383"><ele>109.5</ele><time>2026-03-30T06:13:13.686Z</time></trkpt><trkpt lat="43.2001067" lon="2.3371533"><ele>109.66666666666666</ele><time>2026-03-30T06:13:14.686Z</time></trkpt><trkpt lat="43.200025" lon="2.3371517"><ele>109.83333333333333</ele><time>2026-03-30T06:13:15.685Z</time></trkpt><trkpt lat="43.19995" lon="2.33714"><ele>110.0</ele><time>2026-03-30T06:13:16.686Z</time></trkpt><trkpt lat="43.19988" lon="2.337155"><ele>110.0</ele><time>2026-03-30T06:13:17.688Z</time></trkpt><trkpt lat="43.19981" lon="2.3371767"><ele>110.0</ele><time>2026-03-30T06:13:18.688Z</time></trkpt><trkpt lat="43.1997267" lon="2.3372133"><ele>110.0</ele><time>2026-03-30T06:13:19.693Z</time></trkpt><trkpt lat="43.19964" lon="2.33725"><ele>110.0</ele><time>2026-03-30T06:13:20.687Z</time></trkpt><trkpt lat="43.1995383" lon="2.3372717"><ele>110.0</ele><time>2026-03-30T06:13:21.685Z</time></trkpt><trkpt lat="43.1994233" lon="2.3372833"><ele>112.75</ele><time>2026-03-30T06:13:22.684Z</time></trkpt><trkpt lat="43.1992967" lon="2.3373017"><ele>115.5</ele><time>2026-03-30T06:13:23.687Z</time></trkpt><trkpt lat="43.19916" lon="2.3373183"><ele>118.25</ele><time>2026-03-30T06:13:24.685Z</time></trkpt><trkpt lat="43.1990133" lon="2.3373317"><ele>121.0</ele><time>2026-03-30T06:13:25.685Z</time></trkpt><trkpt lat="43.1988617" lon="2.3373333"><ele>122.0</ele><time>2026-03-30T06:13:26.688Z</time></trkpt><trkpt lat="43.198705" lon="2.3373283"><ele>123.0</ele><time>2026-03-30T06:13:27.685Z</time></trkpt><trkpt lat="43.1985417" lon="2.3373217"><ele>124.0</ele><time>2026-03-30T06:13:28.686Z</time></trkpt><trkpt lat="43.1983767" lon="2.3373217"><ele>124.0</ele><time>2026-03-30T06:13:29.687Z</time></trkpt><trkpt lat="43.19822" lon="2.3373183"><ele>124.0</ele><time>2026-03-30T06:13:30.686Z</time></trkpt><trkpt lat="43.1980633" lon="2.3373033"><ele>124.0</ele><time>2026-03-30T06:13:31.686Z</time></trkpt><trkpt lat="43.1979" lon="2.33728"><ele>124.33333333333334</ele><time>2026-03-30T06:13:32.687Z</time></trkpt><trkpt lat="43.1977333" lon="2.33726"><ele>124.66666666666666</ele><time>2026-03-30T06:13:33.686Z</time></trkpt><trkpt lat="43.1975667" lon="2.3372217"><ele>125.0</ele><time>2026-03-30T06:13:34.686Z</time></trkpt><trkpt lat="43.1974133" lon="2.33716"><ele>123.66666666666666</ele><time>2026-03-30T06:13:35.687Z</time></trkpt><trkpt lat="43.1972583" lon="2.3370883"><ele>122.33333333333334</ele><time>2026-03-30T06:13:36.687Z</time></trkpt><trkpt lat="43.197105" lon="2.3370083"><ele>121.0</ele><time>2026-03-30T06:13:37.685Z</time></trkpt><trkpt lat="43.19695" lon="2.3369267"><ele>121.0</ele><time>2026-03-30T06:13:38.687Z</time></trkpt><trkpt lat="43.1967967" lon="2.3368433"><ele>121.0</ele><time>2026-03-30T06:13:39.685Z</time></trkpt><trkpt lat="43.196645" lon="2.33676"><ele>121.0</ele><time>2026-03-30T06:13:40.687Z</time></trkpt><trkpt lat="43.1964917" lon="2.3366833"><ele>123.33333333333334</ele><time>2026-03-30T06:13:41.687Z</time></trkpt><trkpt lat="43.196335" lon="2.3366183"><ele>125.66666666666666</ele><time>2026-03-30T06:13:42.685Z</time></trkpt><trkpt lat="43.1961733" lon="2.3365633"><ele>128.0</ele><time>2026-03-30T06:13:43.687Z</time></trkpt><trkpt lat="43.19601" lon="2.3365217"><ele>128.0</ele><time>2026-03-30T06:13:44.69Z</time></trkpt><trkpt lat="43.1958433" lon="2.3364933"><ele>128.0</ele><time>2026-03-30T06:13:45.688Z</time></trkpt><trkpt lat="43.1956717" lon="2.3364667"><ele>128.0</ele><time>2026-03-30T06:13:46.686Z</time></trkpt><trkpt lat="43.1954967" lon="2.336445"><ele>128.66666666666666</ele><time>2026-03-30T06:13:47.687Z</time></trkpt><trkpt lat="43.1953183" lon="2.336425"><ele>129.33333333333334</ele><time>2026-03-30T06:13:48.688Z</time></trkpt><trkpt lat="43.1951383" lon="2.3364033"><ele>130.0</ele><time>2026-03-30T06:13:49.685Z</time></trkpt><trkpt lat="43.19496" lon="2.3363767"><ele>126.66666666666667</ele><time>2026-03-30T06:13:50.685Z</time></trkpt><trkpt lat="43.1947867" lon="2.3363467"><ele>123.33333333333334</ele><time>2026-03-30T06:13:51.684Z</time></trkpt><trkpt lat="43.1946083" lon="2.3363117"><ele>120.0</ele><time>2026-03-30T06:13:52.685Z</time></trkpt><trkpt lat="43.1944233" lon="2.3362733"><ele>120.0</ele><time>2026-03-30T06:13:53.686Z</time></trkpt><trkpt lat="43.19424" lon="2.3362567"><ele>120.0</ele><time>2026-03-30T06:13:54.685Z</time></trkpt><trkpt lat="43.1940633" lon="2.3362433"><ele>120.0</ele><time>2026-03-30T06:13:55.685Z</time></trkpt><trkpt lat="43.1938933" lon="2.33623"><ele>119.33333333333334</ele><time>2026-03-30T06:13:56.686Z</time></trkpt><trkpt lat="43.1937283" lon="2.3362217"><ele>118.66666666666667</ele><time>2026-03-30T06:13:57.687Z</time></trkpt><trkpt lat="43.19356" lon="2.3361983"><ele>118.0</ele><time>2026-03-30T06:13:58.684Z</time></trkpt><trkpt lat="43.1933967" lon="2.336165"><ele>118.0</ele><time>2026-03-30T06:13:59.686Z</time></trkpt><trkpt lat="43.1932367" lon="2.3361067"><ele>118.0</ele><time>2026-03-30T06:14:00.686Z</time></trkpt><trkpt lat="43.1930867" lon="2.33604"><ele>118.0</ele><time>2026-03-30T06:14:01.686Z</time></trkpt><trkpt lat="43.1929383" lon="2.33595"><ele>119.0</ele><time>2026-03-30T06:14:02.686Z</time></trkpt><trkpt lat="43.1927933" lon="2.3358533"><ele>120.0</ele><time>2026-03-30T06:14:03.694Z</time></trkpt><trkpt lat="43.192655" lon="2.3357417"><ele>121.0</ele><time>2026-03-30T06:14:04.686Z</time></trkpt><trkpt lat="43.1925367" lon="2.335605"><ele>120.0</ele><time>2026-03-30T06:14:05.688Z</time></trkpt><trkpt lat="43.19242" lon="2.3354567"><ele>119.0</ele><time>2026-03-30T06:14:06.684Z</time></trkpt><trkpt lat="43.1923083" lon="2.3353033"><ele>118.0</ele><time>2026-03-30T06:14:07.685Z</time></trkpt><trkpt lat="43.1921967" lon="2.3351417"><ele>118.0</ele><time>2026-03-30T06:14:08.686Z</time></trkpt><trkpt lat="43.19209" lon="2.3349683"><ele>118.0</ele><time>2026-03-30T06:14:09.686Z</time></trkpt><trkpt lat="43.191995" lon="2.334775"><ele>118.0</ele><time>2026-03-30T06:14:10.685Z</time></trkpt><trkpt lat="43.191905" lon="2.3345767"><ele>117.66666666666667</ele><time>2026-03-30T06:14:11.685Z</time></trkpt><trkpt lat="43.1918283" lon="2.3343717"><ele>117.33333333333334</ele><time>2026-03-30T06:14:12.687Z</time></trkpt><trkpt lat="43.1917633" lon="2.3341567"><ele>117.0</ele><time>2026-03-30T06:14:13.691Z</time></trkpt><trkpt lat="43.1917267" lon="2.333935"><ele>118.66666666666666</ele><time>2026-03-30T06:14:14.686Z</time></trkpt><trkpt lat="43.1917117" lon="2.3337033"><ele>120.33333333333333</ele><time>2026-03-30T06:14:15.688Z</time></trkpt><trkpt lat="43.19171" lon="2.333475"><ele>122.0</ele><time>2026-03-30T06:14:16.685Z</time></trkpt><trkpt lat="43.191715" lon="2.3332517"><ele>121.0</ele><time>2026-03-30T06:14:17.686Z</time></trkpt><trkpt lat="43.1917117" lon="2.3330283"><ele>120.0</ele><time>2026-03-30T06:14:18.686Z</time></trkpt><trkpt lat="43.191695" lon="2.3328083"><ele>119.0</ele><time>2026-03-30T06:14:19.686Z</time></trkpt><trkpt lat="43.19166" lon="2.3325917"><ele>119.0</ele><time>2026-03-30T06:14:20.687Z</time></trkpt><trkpt lat="43.1915967" lon="2.3323883"><ele>119.0</ele><time>2026-03-30T06:14:21.688Z</time></trkpt><trkpt lat="43.1915083" lon="2.3322017"><ele>119.0</ele><time>2026-03-30T06:14:22.686Z</time></trkpt><trkpt lat="43.1914017" lon="2.33204"><ele>117.33333333333333</ele><time>2026-03-30T06:14:23.687Z</time></trkpt><trkpt lat="43.191265" lon="2.3319083"><ele>115.66666666666666</ele><time>2026-03-30T06:14:24.685Z</time></trkpt><trkpt lat="43.19111" lon="2.331815"><ele>114.0</ele><time>2026-03-30T06:14:25.687Z</time></trkpt><trkpt lat="43.1909417" lon="2.3317617"><ele>114.0</ele><time>2026-03-30T06:14:26.687Z</time></trkpt><trkpt lat="43.1907717" lon="2.3317467"><ele>114.0</ele><time>2026-03-30T06:14:27.686Z</time></trkpt><trkpt lat="43.190595" lon="2.33178"><ele>114.0</ele><time>2026-03-30T06:14:28.686Z</time></trkpt><trkpt lat="43.1904283" lon="2.3318417"><ele>114.33333333333334</ele><time>2026-03-30T06:14:29.686Z</time></trkpt><trkpt lat="43.1902683" lon="2.3319267"><ele>114.66666666666667</ele><time>2026-03-30T06:14:30.686Z</time></trkpt><trkpt lat="43.1901133" lon="2.3320283"><ele>115.0</ele><time>2026-03-30T06:14:31.69Z</time></trkpt><trkpt lat="43.1899583" lon="2.3321283"><ele>116.0</ele><time>2026-03-30T06:14:32.685Z</time></trkpt><trkpt lat="43.1898" lon="2.3322167"><ele>117.0</ele><time>2026-03-30T06:14:33.686Z</time></trkpt><trkpt lat="43.189635" lon="2.3322917"><ele>118.0</ele><time>2026-03-30T06:14:34.685Z</time></trkpt><trkpt lat="43.1894667" lon="2.3323333"><ele>120.0</ele><time>2026-03-30T06:14:35.688Z</time></trkpt><trkpt lat="43.1892967" lon="2.3323367"><ele>122.0</ele><time>2026-03-30T06:14:36.688Z</time></trkpt><trkpt lat="43.189125" lon="2.332315"><ele>124.0</ele><time>2026-03-30T06:14:37.685Z</time></trkpt><trkpt lat="43.1889617" lon="2.332255"><ele>122.33333333333334</ele><time>2026-03-30T06:14:38.687Z</time></trkpt><trkpt lat="43.1887983" lon="2.33217"><ele>120.66666666666666</ele><time>2026-03-30T06:14:39.69Z</time></trkpt><trkpt lat="43.188635" lon="2.3320567"><ele>119.0</ele><time>2026-03-30T06:14:40.685Z</time></trkpt><trkpt lat="43.1884817" lon="2.3319333"><ele>119.0</ele><time>2026-03-30T06:14:41.692Z</time></trkpt><trkpt lat="43.18832" lon="2.3318217"><ele>119.0</ele><time>2026-03-30T06:14:42.687Z</time></trkpt><trkpt lat="43.18816" lon="2.3317117"><ele>119.0</ele><time>2026-03-30T06:14:43.686Z</time></trkpt><trkpt lat="43.1879967" lon="2.3316083"><ele>117.66666666666666</ele><time>2026-03-30T06:14:44.688Z</time></trkpt><trkpt lat="43.1878467" lon="2.3314883"><ele>116.33333333333334</ele><time>2026-03-30T06:14:45.686Z</time></trkpt><trkpt lat="43.1876967" lon="2.331375"><ele>115.0</ele><time>2026-03-30T06:14:46.687Z</time></trkpt><trkpt lat="43.1875467" lon="2.3312583"><ele>115.0</ele><time>2026-03-30T06:14:47.685Z</time></trkpt><trkpt lat="43.1874017" lon="2.33113"><ele>115.0</ele><time>2026-03-30T06:14:48.684Z</time></trkpt><trkpt lat="43.1872533" lon="2.331"><ele>115.0</ele><time>2026-03-30T06:14:49.685Z</time></trkpt><trkpt lat="43.1871133" lon="2.33086"><ele>115.0</ele><time>2026-03-30T06:14:50.687Z</time></trkpt><trkpt lat="43.1869717" lon="2.330715"><ele>115.0</ele><time>2026-03-30T06:14:51.685Z</time></trkpt><trkpt lat="43.1868317" lon="2.3305717"><ele>115.0</ele><time>2026-03-30T06:14:52.686Z</time></trkpt><trkpt lat="43.1866967" lon="2.3304233"><ele>115.0</ele><time>2026-03-30T06:14:53.686Z</time></trkpt><trkpt lat="43.1865617" lon="2.330275"><ele>115.0</ele><time>2026-03-30T06:14:54.688Z</time></trkpt><trkpt lat="43.1864267" lon="2.3301267"><ele>115.0</ele><time>2026-03-30T06:14:55.688Z</time></trkpt><trkpt lat="43.18629" lon="2.329985"><ele>114.33333333333334</ele><time>2026-03-30T06:14:56.687Z</time></trkpt><trkpt lat="43.1861467" lon="2.3298517"><ele>113.66666666666666</ele><time>2026-03-30T06:14:57.689Z</time></trkpt><trkpt lat="43.1860067" lon="2.3297217"><ele>113.0</ele><time>2026-03-30T06:14:58.686Z</time></trkpt><trkpt lat="43.185865" lon="2.3295933"><ele>113.0</ele><time>2026-03-30T06:14:59.692Z</time></trkpt><trkpt lat="43.1857167" lon="2.3294683"><ele>113.0</ele><time>2026-03-30T06:15:00.687Z</time></trkpt><trkpt lat="43.18557" lon="2.3293517"><ele>113.0</ele><time>2026-03-30T06:15:01.688Z</time></trkpt><trkpt lat="43.1854183" lon="2.3292367"><ele>113.33333333333333</ele><time>2026-03-30T06:15:02.687Z</time></trkpt><trkpt lat="43.1852717" lon="2.3291217"><ele>113.66666666666666</ele><time>2026-03-30T06:15:03.687Z</time></trkpt><trkpt lat="43.1851267" lon="2.329005"><ele>114.0</ele><time>2026-03-30T06:15:04.686Z</time></trkpt><trkpt lat="43.1849833" lon="2.3288917"><ele>114.33333333333334</ele><time>2026-03-30T06:15:05.688Z</time></trkpt><trkpt lat="43.1848367" lon="2.3287833"><ele>114.66666666666667</ele><time>2026-03-30T06:15:06.688Z</time></trkpt><trkpt lat="43.1846883" lon="2.32868"><ele>115.0</ele><time>2026-03-30T06:15:07.691Z</time></trkpt><trkpt lat="43.1845367" lon="2.3285833"><ele>115.0</ele><time>2026-03-30T06:15:08.688Z</time></trkpt><trkpt lat="43.184385" lon="2.32849"><ele>115.0</ele><time>2026-03-30T06:15:09.686Z</time></trkpt><trkpt lat="43.1842333" lon="2.3284033"><ele>115.0</ele><time>2026-03-30T06:15:10.691Z</time></trkpt><trkpt lat="43.18408" lon="2.3283217"><ele>115.33333333333334</ele><time>2026-03-30T06:15:11.687Z</time></trkpt><trkpt lat="43.183925" lon="2.3282433"><ele>115.66666666666666</ele><time>2026-03-30T06:15:12.689Z</time></trkpt><trkpt lat="43.1837717" lon="2.3281633"><ele>116.0</ele><time>2026-03-30T06:15:13.689Z</time></trkpt><trkpt lat="43.1836217" lon="2.3280817"><ele>116.33333333333333</ele><time>2026-03-30T06:15:14.688Z</time></trkpt><trkpt lat="43.1834717" lon="2.328"><ele>116.66666666666666</ele><time>2026-03-30T06:15:15.687Z</time></trkpt><trkpt lat="43.1833183" lon="2.327915"><ele>117.0</ele><time>2026-03-30T06:15:16.686Z</time></trkpt><trkpt lat="43.1831667" lon="2.3278317"><ele>117.0</ele><time>2026-03-30T06:15:17.686Z</time></trkpt><trkpt lat="43.1830167" lon="2.3277517"><ele>117.0</ele><time>2026-03-30T06:15:18.689Z</time></trkpt><trkpt lat="43.182865" lon="2.3276683"><ele>117.0</ele><time>2026-03-30T06:15:19.686Z</time></trkpt><trkpt lat="43.1827183" lon="2.3275867"><ele>117.0</ele><time>2026-03-30T06:15:20.687Z</time></trkpt><trkpt lat="43.1825683" lon="2.3275083"><ele>117.0</ele><time>2026-03-30T06:15:21.687Z</time></trkpt><trkpt lat="43.1824217" lon="2.3274267"><ele>117.0</ele><time>2026-03-30T06:15:22.687Z</time></trkpt><trkpt lat="43.1822733" lon="2.3273433"><ele>117.66666666666666</ele><time>2026-03-30T06:15:23.686Z</time></trkpt><trkpt lat="43.182125" lon="2.32726"><ele>118.33333333333333</ele><time>2026-03-30T06:15:24.686Z</time></trkpt><trkpt lat="43.1819733" lon="2.3271817"><ele>119.0</ele><time>2026-03-30T06:15:25.687Z</time></trkpt><trkpt lat="43.181825" lon="2.327105"><ele>119.0</ele><time>2026-03-30T06:15:26.687Z</time></trkpt><trkpt lat="43.1816767" lon="2.3270283"><ele>119.0</ele><time>2026-03-30T06:15:27.686Z</time></trkpt><trkpt lat="43.1815283" lon="2.3269533"><ele>119.0</ele><time>2026-03-30T06:15:28.688Z</time></trkpt><trkpt lat="43.181385" lon="2.326875"><ele>119.0</ele><time>2026-03-30T06:15:29.687Z</time></trkpt><trkpt lat="43.1812483" lon="2.3268017"><ele>119.0</ele><time>2026-03-30T06:15:30.687Z</time></trkpt><trkpt lat="43.1811233" lon="2.32673"><ele>119.0</ele><time>2026-03-30T06:15:31.688Z</time></trkpt><trkpt lat="43.1810067" lon="2.3266667"><ele>119.0</ele><time>2026-03-30T06:15:32.691Z</time></trkpt><trkpt lat="43.1808967" lon="2.3266067"><ele>118.99999999999999</ele><time>2026-03-30T06:15:33.687Z</time></trkpt><trkpt lat="43.180805" lon="2.326555"><ele>119.0</ele><time>2026-03-30T06:15:34.686Z</time></trkpt><trkpt lat="43.180725" lon="2.3265117"><ele>119.0</ele><time>2026-03-30T06:15:35.692Z</time></trkpt><trkpt lat="43.18066" lon="2.326475"><ele>119.0</ele><time>2026-03-30T06:15:36.687Z</time></trkpt><trkpt lat="43.1805667" lon="2.3264217"><ele>118.99999999999999</ele><time>2026-03-30T06:15:38.686Z</time></trkpt><trkpt lat="43.1804867" lon="2.3263783"><ele>119.0</ele><time>2026-03-30T06:15:41.686Z</time></trkpt><trkpt lat="43.1804067" lon="2.3264117"><ele>120.2</ele><time>2026-03-30T06:15:44.688Z</time></trkpt><trkpt lat="43.1803767" lon="2.3264883"><ele>121.4</ele><time>2026-03-30T06:15:45.686Z</time></trkpt><trkpt lat="43.1803283" lon="2.32666"><ele>122.6</ele><time>2026-03-30T06:15:47.687Z</time></trkpt><trkpt lat="43.1803183" lon="2.3267717"><ele>123.8</ele><time>2026-03-30T06:15:48.688Z</time></trkpt><trkpt lat="43.1803233" lon="2.3268833"><ele>125.0</ele><time>2026-03-30T06:15:49.685Z</time></trkpt><trkpt lat="43.1803517" lon="2.3270067"><ele>125.0</ele><time>2026-03-30T06:15:50.689Z</time></trkpt><trkpt lat="43.1803983" lon="2.3271317"><ele>125.0</ele><time>2026-03-30T06:15:51.686Z</time></trkpt><trkpt lat="43.1804683" lon="2.3272533"><ele>125.0</ele><time>2026-03-30T06:15:52.685Z</time></trkpt><trkpt lat="43.1805333" lon="2.3273717"><ele>125.0</ele><time>2026-03-30T06:15:53.686Z</time></trkpt><trkpt lat="43.1805983" lon="2.3274883"><ele>125.0</ele><time>2026-03-30T06:15:54.688Z</time></trkpt><trkpt lat="43.180665" lon="2.3276117"><ele>124.25</ele><time>2026-03-30T06:15:55.687Z</time></trkpt><trkpt lat="43.1807317" lon="2.3277433"><ele>123.5</ele><time>2026-03-30T06:15:56.687Z</time></trkpt><trkpt lat="43.1807917" lon="2.3278917"><ele>122.75</ele><time>2026-03-30T06:15:57.688Z</time></trkpt><trkpt lat="43.180845" lon="2.3280483"><ele>122.0</ele><time>2026-03-30T06:15:58.686Z</time></trkpt><trkpt lat="43.1809" lon="2.3282067"><ele>122.0</ele><time>2026-03-30T06:15:59.691Z</time></trkpt><trkpt lat="43.180965" lon="2.3283583"><ele>122.0</ele><time>2026-03-30T06:16:00.689Z</time></trkpt><trkpt lat="43.1810167" lon="2.32851"><ele>122.0</ele><time>2026-03-30T06:16:01.686Z</time></trkpt><trkpt lat="43.1810667" lon="2.32866"><ele>122.0</ele><time>2026-03-30T06:16:02.688Z</time></trkpt><trkpt lat="43.181115" lon="2.328815"><ele>121.5</ele><time>2026-03-30T06:16:03.689Z</time></trkpt><trkpt lat="43.1811683" lon="2.3289667"><ele>121.0</ele><time>2026-03-30T06:16:04.686Z</time></trkpt><trkpt lat="43.1812233" lon="2.32912"><ele>120.5</ele><time>2026-03-30T06:16:05.686Z</time></trkpt><trkpt lat="43.1812717" lon="2.3292667"><ele>120.0</ele><time>2026-03-30T06:16:06.686Z</time></trkpt><trkpt lat="43.1813133" lon="2.3294083"><ele>120.0</ele><time>2026-03-30T06:16:07.686Z</time></trkpt><trkpt lat="43.1813617" lon="2.329545"><ele>120.0</ele><time>2026-03-30T06:16:08.686Z</time></trkpt><trkpt lat="43.1813983" lon="2.329665"><ele>120.0</ele><time>2026-03-30T06:16:09.686Z</time></trkpt><trkpt lat="43.1814367" lon="2.3297733"><ele>120.0</ele><time>2026-03-30T06:16:10.687Z</time></trkpt><trkpt lat="43.181475" lon="2.3298667"><ele>120.0</ele><time>2026-03-30T06:16:11.685Z</time></trkpt><trkpt lat="43.1815067" lon="2.3299567"><ele>120.0</ele><time>2026-03-30T06:16:12.685Z</time></trkpt><trkpt lat="43.1815217" lon="2.3301017"><ele>119.6</ele><time>2026-03-30T06:16:14.69Z</time></trkpt><trkpt lat="43.1814583" lon="2.3301633"><ele>119.2</ele><time>2026-03-30T06:16:16.685Z</time></trkpt><trkpt lat="43.181385" lon="2.3301233"><ele>118.80000000000001</ele><time>2026-03-30T06:16:17.686Z</time></trkpt><trkpt lat="43.1812883" lon="2.3300767"><ele>118.4</ele><time>2026-03-30T06:16:18.686Z</time></trkpt><trkpt lat="43.18117" lon="2.33004"><ele>118.0</ele><time>2026-03-30T06:16:19.687Z</time></trkpt><trkpt lat="43.1810383" lon="2.3299967"><ele>118.0</ele><time>2026-03-30T06:16:20.688Z</time></trkpt><trkpt lat="43.1809" lon="2.3299567"><ele>118.0</ele><time>2026-03-30T06:16:21.685Z</time></trkpt><trkpt lat="43.180755" lon="2.32992"><ele>118.0</ele><time>2026-03-30T06:16:22.686Z</time></trkpt><trkpt lat="43.180605" lon="2.3298833"><ele>118.0</ele><time>2026-03-30T06:16:23.69Z</time></trkpt><trkpt lat="43.1804417" lon="2.3298433"><ele>118.66666666666667</ele><time>2026-03-30T06:16:24.686Z</time></trkpt><trkpt lat="43.1802817" lon="2.3298"><ele>119.33333333333334</ele><time>2026-03-30T06:16:25.688Z</time></trkpt><trkpt lat="43.18013" lon="2.3297517"><ele>120.0</ele><time>2026-03-30T06:16:26.687Z</time></trkpt><trkpt lat="43.1799883" lon="2.3296817"><ele>121.0</ele><time>2026-03-30T06:16:27.687Z</time></trkpt><trkpt lat="43.179855" lon="2.329605"><ele>122.0</ele><time>2026-03-30T06:16:28.686Z</time></trkpt><trkpt lat="43.179735" lon="2.3295317"><ele>123.0</ele><time>2026-03-30T06:16:29.687Z</time></trkpt><trkpt lat="43.1796133" lon="2.3294533"><ele>124.0</ele><time>2026-03-30T06:16:30.687Z</time></trkpt><trkpt lat="43.1794983" lon="2.3293717"><ele>125.0</ele><time>2026-03-30T06:16:31.686Z</time></trkpt><trkpt lat="43.1793967" lon="2.3292967"><ele>126.0</ele><time>2026-03-30T06:16:32.686Z</time></trkpt><trkpt lat="43.1793" lon="2.3292367"><ele>127.0</ele><time>2026-03-30T06:16:33.688Z</time></trkpt><trkpt lat="43.1792033" lon="2.329185"><ele>128.0</ele><time>2026-03-30T06:16:34.685Z</time></trkpt><trkpt lat="43.1791" lon="2.3291417"><ele>129.0</ele><time>2026-03-30T06:16:35.686Z</time></trkpt><trkpt lat="43.179" lon="2.329095"><ele>130.5</ele><time>2026-03-30T06:16:36.686Z</time></trkpt><trkpt lat="43.17889" lon="2.3290417"><ele>132.0</ele><time>2026-03-30T06:16:37.686Z</time></trkpt><trkpt lat="43.17878" lon="2.3289833"><ele>133.5</ele><time>2026-03-30T06:16:38.688Z</time></trkpt><trkpt lat="43.17867" lon="2.3289283"><ele>135.0</ele><time>2026-03-30T06:16:39.689Z</time></trkpt><trkpt lat="43.1785533" lon="2.32888"><ele>135.0</ele><time>2026-03-30T06:16:40.686Z</time></trkpt><trkpt lat="43.17845" lon="2.328855"><ele>135.0</ele><time>2026-03-30T06:16:41.686Z</time></trkpt><trkpt lat="43.178355" lon="2.32884"><ele>135.0</ele><time>2026-03-30T06:16:42.686Z</time></trkpt><trkpt lat="43.1782583" lon="2.32882"><ele>135.0</ele><time>2026-03-30T06:16:43.685Z</time></trkpt><trkpt lat="43.1781567" lon="2.3287933"><ele>135.0</ele><time>2026-03-30T06:16:44.687Z</time></trkpt><trkpt lat="43.1780567" lon="2.3287517"><ele>135.6</ele><time>2026-03-30T06:16:45.686Z</time></trkpt><trkpt lat="43.177955" lon="2.3286967"><ele>136.2</ele><time>2026-03-30T06:16:46.685Z</time></trkpt><trkpt lat="43.1778567" lon="2.3286533"><ele>136.8</ele><time>2026-03-30T06:16:47.687Z</time></trkpt><trkpt lat="43.1777683" lon="2.3286233"><ele>137.4</ele><time>2026-03-30T06:16:48.689Z</time></trkpt><trkpt lat="43.177695" lon="2.3285917"><ele>138.0</ele><time>2026-03-30T06:16:49.687Z</time></trkpt><trkpt lat="43.1776" lon="2.32856"><ele>138.0</ele><time>2026-03-30T06:16:51.685Z</time></trkpt><trkpt lat="43.1775083" lon="2.3285067"><ele>138.0</ele><time>2026-03-30T06:17:25.687Z</time></trkpt><trkpt lat="43.1774083" lon="2.328455"><ele>138.0</ele><time>2026-03-30T06:17:27.687Z</time></trkpt><trkpt lat="43.1773067" lon="2.3284333"><ele>138.0</ele><time>2026-03-30T06:17:29.685Z</time></trkpt><trkpt lat="43.17723" lon="2.3285233"><ele>138.0</ele><time>2026-03-30T06:17:31.687Z</time></trkpt><trkpt lat="43.177205" lon="2.3286217"><ele>137.8</ele><time>2026-03-30T06:17:32.686Z</time></trkpt><trkpt lat="43.1771867" lon="2.3287367"><ele>137.60000000000002</ele><time>2026-03-30T06:17:33.686Z</time></trkpt><trkpt lat="43.1771683" lon="2.3288733"><ele>137.39999999999998</ele><time>2026-03-30T06:17:34.688Z</time></trkpt><trkpt lat="43.1771417" lon="2.329025"><ele>137.2</ele><time>2026-03-30T06:17:35.685Z</time></trkpt><trkpt lat="43.17711" lon="2.329195"><ele>137.0</ele><time>2026-03-30T06:17:36.687Z</time></trkpt><trkpt lat="43.177075" lon="2.3293733"><ele>137.5</ele><time>2026-03-30T06:17:37.688Z</time></trkpt><trkpt lat="43.1770383" lon="2.32956"><ele>138.0</ele><time>2026-03-30T06:17:38.686Z</time></trkpt><trkpt lat="43.177" lon="2.3297533"><ele>138.5</ele><time>2026-03-30T06:17:39.686Z</time></trkpt><trkpt lat="43.1769633" lon="2.3299583"><ele>139.0</ele><time>2026-03-30T06:17:40.685Z</time></trkpt><trkpt lat="43.17693" lon="2.3301617"><ele>139.33333333333334</ele><time>2026-03-30T06:17:41.691Z</time></trkpt><trkpt lat="43.176895" lon="2.33037"><ele>139.66666666666666</ele><time>2026-03-30T06:17:42.686Z</time></trkpt><trkpt lat="43.176855" lon="2.33059"><ele>140.0</ele><time>2026-03-30T06:17:43.687Z</time></trkpt><trkpt lat="43.176815" lon="2.3308233"><ele>140.66666666666666</ele><time>2026-03-30T06:17:44.685Z</time></trkpt><trkpt lat="43.176775" lon="2.3310483"><ele>141.33333333333334</ele><time>2026-03-30T06:17:45.686Z</time></trkpt><trkpt lat="43.1767367" lon="2.3312683"><ele>142.0</ele><time>2026-03-30T06:17:46.685Z</time></trkpt><trkpt lat="43.1767" lon="2.3314833"><ele>142.66666666666669</ele><time>2026-03-30T06:17:47.687Z</time></trkpt><trkpt lat="43.1766617" lon="2.3317"><ele>143.33333333333334</ele><time>2026-03-30T06:17:48.686Z</time></trkpt><trkpt lat="43.176625" lon="2.331915"><ele>144.0</ele><time>2026-03-30T06:17:49.686Z</time></trkpt><trkpt lat="43.1765967" lon="2.3321133"><ele>144.75</ele><time>2026-03-30T06:17:50.686Z</time></trkpt><trkpt lat="43.1765717" lon="2.3323033"><ele>145.5</ele><time>2026-03-30T06:17:51.685Z</time></trkpt><trkpt lat="43.176555" lon="2.33248"><ele>146.25</ele><time>2026-03-30T06:17:52.686Z</time></trkpt><trkpt lat="43.1765367" lon="2.332645"><ele>147.0</ele><time>2026-03-30T06:17:53.685Z</time></trkpt><trkpt lat="43.17651" lon="2.332795"><ele>147.0</ele><time>2026-03-30T06:17:54.686Z</time></trkpt><trkpt lat="43.1764733" lon="2.3329433"><ele>147.0</ele><time>2026-03-30T06:17:55.686Z</time></trkpt><trkpt lat="43.1764267" lon="2.3330967"><ele>147.0</ele><time>2026-03-30T06:17:56.686Z</time></trkpt><trkpt lat="43.17638" lon="2.3332583"><ele>147.0</ele><time>2026-03-30T06:17:57.69Z</time></trkpt><trkpt lat="43.1763333" lon="2.3334217"><ele>147.75</ele><time>2026-03-30T06:17:58.685Z</time></trkpt><trkpt lat="43.176285" lon="2.333585"><ele>148.5</ele><time>2026-03-30T06:17:59.686Z</time></trkpt><trkpt lat="43.1762333" lon="2.3337517"><ele>149.25</ele><time>2026-03-30T06:18:00.69Z</time></trkpt><trkpt lat="43.1761817" lon="2.3339133"><ele>150.0</ele><time>2026-03-30T06:18:01.687Z</time></trkpt><trkpt lat="43.1761333" lon="2.33406"><ele>150.2</ele><time>2026-03-30T06:18:02.685Z</time></trkpt><trkpt lat="43.1760867" lon="2.3341983"><ele>150.4</ele><time>2026-03-30T06:18:03.687Z</time></trkpt><trkpt lat="43.17604" lon="2.3343367"><ele>150.6</ele><time>2026-03-30T06:18:04.687Z</time></trkpt><trkpt lat="43.1759933" lon="2.3344717"><ele>150.8</ele><time>2026-03-30T06:18:05.687Z</time></trkpt><trkpt lat="43.175945" lon="2.3346067"><ele>151.0</ele><time>2026-03-30T06:18:06.686Z</time></trkpt><trkpt lat="43.1759" lon="2.3347183"><ele>151.0</ele><time>2026-03-30T06:18:07.687Z</time></trkpt><trkpt lat="43.17586" lon="2.33482"><ele>151.0</ele><time>2026-03-30T06:18:08.686Z</time></trkpt><trkpt lat="43.17582" lon="2.3349283"><ele>151.0</ele><time>2026-03-30T06:18:09.687Z</time></trkpt><trkpt lat="43.1757783" lon="2.33504"><ele>151.0</ele><time>2026-03-30T06:18:10.686Z</time></trkpt><trkpt lat="43.1757383" lon="2.33515"><ele>151.0</ele><time>2026-03-30T06:18:11.686Z</time></trkpt><trkpt lat="43.1757" lon="2.33525"><ele>151.0</ele><time>2026-03-30T06:18:12.685Z</time></trkpt><trkpt lat="43.1756683" lon="2.3353267"><ele>151.33333333333334</ele><time>2026-03-30T06:18:13.687Z</time></trkpt><trkpt lat="43.1756317" lon="2.3354583"><ele>151.66666666666669</ele><time>2026-03-30T06:18:15.688Z</time></trkpt><trkpt lat="43.17566" lon="2.3356033"><ele>152.0</ele><time>2026-03-30T06:18:17.685Z</time></trkpt><trkpt lat="43.1756817" lon="2.3356933"><ele>152.33333333333334</ele><time>2026-03-30T06:18:18.687Z</time></trkpt><trkpt lat="43.17568" lon="2.335785"><ele>152.66666666666666</ele><time>2026-03-30T06:18:19.685Z</time></trkpt><trkpt lat="43.1756567" lon="2.3359067"><ele>153.0</ele><time>2026-03-30T06:18:21.685Z</time></trkpt><trkpt lat="43.1755717" lon="2.33593"><ele>153.4</ele><time>2026-03-30T06:18:23.688Z</time></trkpt><trkpt lat="43.175505" lon="2.3358833"><ele>153.8</ele><time>2026-03-30T06:18:24.685Z</time></trkpt><trkpt lat="43.1754283" lon="2.33581"><ele>154.2</ele><time>2026-03-30T06:18:25.685Z</time></trkpt><trkpt lat="43.1753367" lon="2.3357317"><ele>154.6</ele><time>2026-03-30T06:18:26.687Z</time></trkpt><trkpt lat="43.1752417" lon="2.33565"><ele>155.0</ele><time>2026-03-30T06:18:27.685Z</time></trkpt><trkpt lat="43.175145" lon="2.3355667"><ele>154.5</ele><time>2026-03-30T06:18:28.686Z</time></trkpt><trkpt lat="43.17505" lon="2.3354817"><ele>154.0</ele><time>2026-03-30T06:18:29.689Z</time></trkpt><trkpt lat="43.1749483" lon="2.3353967"><ele>153.5</ele><time>2026-03-30T06:18:30.687Z</time></trkpt><trkpt lat="43.1748433" lon="2.335305"><ele>153.0</ele><time>2026-03-30T06:18:31.688Z</time></trkpt><trkpt lat="43.174735" lon="2.3352067"><ele>152.0</ele><time>2026-03-30T06:18:32.687Z</time></trkpt><trkpt lat="43.17463" lon="2.335105"><ele>151.0</ele><time>2026-03-30T06:18:33.687Z</time></trkpt><trkpt lat="43.1745283" lon="2.335005"><ele>150.0</ele><time>2026-03-30T06:18:34.685Z</time></trkpt><trkpt lat="43.1744267" lon="2.33491"><ele>149.0</ele><time>2026-03-30T06:18:35.687Z</time></trkpt><trkpt lat="43.174325" lon="2.33482"><ele>149.0</ele><time>2026-03-30T06:18:36.686Z</time></trkpt><trkpt lat="43.1742233" lon="2.3347333"><ele>149.0</ele><time>2026-03-30T06:18:37.687Z</time></trkpt><trkpt lat="43.1741183" lon="2.33465"><ele>149.0</ele><time>2026-03-30T06:18:38.686Z</time></trkpt><trkpt lat="43.1740083" lon="2.3345817"><ele>149.0</ele><time>2026-03-30T06:18:39.686Z</time></trkpt><trkpt lat="43.1739017" lon="2.3345233"><ele>149.0</ele><time>2026-03-30T06:18:40.686Z</time></trkpt><trkpt lat="43.173805" lon="2.3344783"><ele>149.0</ele><time>2026-03-30T06:18:41.685Z</time></trkpt><trkpt lat="43.1737117" lon="2.3344483"><ele>149.0</ele><time>2026-03-30T06:18:42.687Z</time></trkpt><trkpt lat="43.17361" lon="2.334425"><ele>149.0</ele><time>2026-03-30T06:18:43.687Z</time></trkpt><trkpt lat="43.1735017" lon="2.3343917"><ele>149.0</ele><time>2026-03-30T06:18:44.686Z</time></trkpt><trkpt lat="43.1733917" lon="2.3343433"><ele>149.0</ele><time>2026-03-30T06:18:45.687Z</time></trkpt><trkpt lat="43.1732767" lon="2.33428"><ele>149.0</ele><time>2026-03-30T06:18:46.686Z</time></trkpt><trkpt lat="43.1731683" lon="2.3342083"><ele>149.0</ele><time>2026-03-30T06:18:47.686Z</time></trkpt><trkpt lat="43.1730683" lon="2.3341433"><ele>149.0</ele><time>2026-03-30T06:18:48.686Z</time></trkpt><trkpt lat="43.17297" lon="2.3340717"><ele>149.5</ele><time>2026-03-30T06:18:49.685Z</time></trkpt><trkpt lat="43.1728683" lon="2.333995"><ele>150.0</ele><time>2026-03-30T06:18:50.685Z</time></trkpt><trkpt lat="43.1727667" lon="2.3339183"><ele>150.5</ele><time>2026-03-30T06:18:51.686Z</time></trkpt><trkpt lat="43.17267" lon="2.333825"><ele>151.0</ele><time>2026-03-30T06:18:52.686Z</time></trkpt><trkpt lat="43.172575" lon="2.3337183"><ele>151.0</ele><time>2026-03-30T06:18:53.686Z</time></trkpt><trkpt lat="43.172485" lon="2.3336067"><ele>151.0</ele><time>2026-03-30T06:18:54.687Z</time></trkpt><trkpt lat="43.172395" lon="2.3334883"><ele>151.0</ele><time>2026-03-30T06:18:55.685Z</time></trkpt><trkpt lat="43.1723017" lon="2.3333717"><ele>151.0</ele><time>2026-03-30T06:18:56.687Z</time></trkpt><trkpt lat="43.1722167" lon="2.3332617"><ele>152.4</ele><time>2026-03-30T06:18:57.687Z</time></trkpt><trkpt lat="43.1721367" lon="2.33316"><ele>153.8</ele><time>2026-03-30T06:18:58.686Z</time></trkpt><trkpt lat="43.1720717" lon="2.3330733"><ele>155.20000000000002</ele><time>2026-03-30T06:18:59.686Z</time></trkpt><trkpt lat="43.1720133" lon="2.3329967"><ele>156.6</ele><time>2026-03-30T06:19:00.688Z</time></trkpt><trkpt lat="43.171935" lon="2.3328967"><ele>158.0</ele><time>2026-03-30T06:19:02.685Z</time></trkpt><trkpt lat="43.171865" lon="2.33291"><ele>158.0</ele><time>2026-03-30T06:19:04.685Z</time></trkpt><trkpt lat="43.1718183" lon="2.3330783"><ele>158.0</ele><time>2026-03-30T06:19:06.692Z</time></trkpt><trkpt lat="43.1718017" lon="2.3331817"><ele>158.0</ele><time>2026-03-30T06:19:07.687Z</time></trkpt><trkpt lat="43.17178" lon="2.3333"><ele>158.0</ele><time>2026-03-30T06:19:08.688Z</time></trkpt><trkpt lat="43.171755" lon="2.3334333"><ele>158.0</ele><time>2026-03-30T06:19:09.687Z</time></trkpt><trkpt lat="43.17173" lon="2.3335783"><ele>158.0</ele><time>2026-03-30T06:19:10.685Z</time></trkpt><trkpt lat="43.1717033" lon="2.3337333"><ele>158.0</ele><time>2026-03-30T06:19:11.685Z</time></trkpt><trkpt lat="43.1716767" lon="2.3338933"><ele>158.0</ele><time>2026-03-30T06:19:12.687Z</time></trkpt><trkpt lat="43.17165" lon="2.3340633"><ele>158.0</ele><time>2026-03-30T06:19:13.688Z</time></trkpt><trkpt lat="43.171625" lon="2.3342433"><ele>157.25</ele><time>2026-03-30T06:19:14.688Z</time></trkpt><trkpt lat="43.1716" lon="2.3344317"><ele>156.5</ele><time>2026-03-30T06:19:15.691Z</time></trkpt><trkpt lat="43.171575" lon="2.3346167"><ele>155.75</ele><time>2026-03-30T06:19:16.685Z</time></trkpt><trkpt lat="43.1715517" lon="2.3347883"><ele>155.0</ele><time>2026-03-30T06:19:17.686Z</time></trkpt><trkpt lat="43.1715283" lon="2.3349483"><ele>154.2</ele><time>2026-03-30T06:19:18.685Z</time></trkpt><trkpt lat="43.1715067" lon="2.335105"><ele>153.4</ele><time>2026-03-30T06:19:19.685Z</time></trkpt><trkpt lat="43.171485" lon="2.3352583"><ele>152.6</ele><time>2026-03-30T06:19:20.689Z</time></trkpt><trkpt lat="43.1714633" lon="2.3354067"><ele>151.8</ele><time>2026-03-30T06:19:21.685Z</time></trkpt><trkpt lat="43.171445" lon="2.3355533"><ele>151.0</ele><time>2026-03-30T06:19:22.686Z</time></trkpt><trkpt lat="43.1714183" lon="2.335695"><ele>150.8</ele><time>2026-03-30T06:19:23.686Z</time></trkpt><trkpt lat="43.1713917" lon="2.3358367"><ele>150.6</ele><time>2026-03-30T06:19:24.684Z</time></trkpt><trkpt lat="43.1713633" lon="2.33598"><ele>150.4</ele><time>2026-03-30T06:19:25.687Z</time></trkpt><trkpt lat="43.1713317" lon="2.3361233"><ele>150.2</ele><time>2026-03-30T06:19:26.686Z</time></trkpt><trkpt lat="43.1713033" lon="2.33627"><ele>150.0</ele><time>2026-03-30T06:19:27.686Z</time></trkpt><trkpt lat="43.1712767" lon="2.3364233"><ele>150.0</ele><time>2026-03-30T06:19:28.686Z</time></trkpt><trkpt lat="43.1712567" lon="2.3365817"><ele>150.0</ele><time>2026-03-30T06:19:29.686Z</time></trkpt><trkpt lat="43.1712533" lon="2.3367433"><ele>150.0</ele><time>2026-03-30T06:19:30.689Z</time></trkpt><trkpt lat="43.17126" lon="2.336905"><ele>150.0</ele><time>2026-03-30T06:19:31.689Z</time></trkpt><trkpt lat="43.17127" lon="2.3370767"><ele>150.25</ele><time>2026-03-30T06:19:32.685Z</time></trkpt><trkpt lat="43.17128" lon="2.33725"><ele>150.5</ele><time>2026-03-30T06:19:33.69Z</time></trkpt><trkpt lat="43.1712833" lon="2.337425"><ele>150.75</ele><time>2026-03-30T06:19:34.685Z</time></trkpt><trkpt lat="43.1712783" lon="2.3376017"><ele>151.0</ele><time>2026-03-30T06:19:35.686Z</time></trkpt><trkpt lat="43.1712667" lon="2.33778"><ele>151.0</ele><time>2026-03-30T06:19:36.689Z</time></trkpt><trkpt lat="43.1712517" lon="2.3379583"><ele>151.0</ele><time>2026-03-30T06:19:37.689Z</time></trkpt><trkpt lat="43.17124" lon="2.3381267"><ele>151.0</ele><time>2026-03-30T06:19:38.686Z</time></trkpt><trkpt lat="43.1712283" lon="2.3382817"><ele>151.0</ele><time>2026-03-30T06:19:39.69Z</time></trkpt><trkpt lat="43.1712183" lon="2.33843"><ele>151.33333333333334</ele><time>2026-03-30T06:19:40.684Z</time></trkpt><trkpt lat="43.1712083" lon="2.338575"><ele>151.66666666666669</ele><time>2026-03-30T06:19:41.69Z</time></trkpt><trkpt lat="43.1712033" lon="2.3387017"><ele>152.0</ele><time>2026-03-30T06:19:42.686Z</time></trkpt><trkpt lat="43.1712017" lon="2.33882"><ele>152.33333333333334</ele><time>2026-03-30T06:19:43.686Z</time></trkpt><trkpt lat="43.171195" lon="2.33893"><ele>152.66666666666666</ele><time>2026-03-30T06:19:44.686Z</time></trkpt><trkpt lat="43.1711883" lon="2.3390267"><ele>153.0</ele><time>2026-03-30T06:19:45.689Z</time></trkpt><trkpt lat="43.1711767" lon="2.3391867"><ele>153.6</ele><time>2026-03-30T06:19:47.686Z</time></trkpt><trkpt lat="43.1710817" lon="2.3392883"><ele>154.20000000000002</ele><time>2026-03-30T06:19:49.687Z</time></trkpt><trkpt lat="43.171" lon="2.3393"><ele>154.8</ele><time>2026-03-30T06:19:50.685Z</time></trkpt><trkpt lat="43.17091" lon="2.3393167"><ele>155.4</ele><time>2026-03-30T06:19:51.686Z</time></trkpt><trkpt lat="43.1708217" lon="2.339345"><ele>156.0</ele><time>2026-03-30T06:19:52.686Z</time></trkpt><trkpt lat="43.1707283" lon="2.3393783"><ele>155.0</ele><time>2026-03-30T06:19:53.687Z</time></trkpt><trkpt lat="43.1706317" lon="2.3394067"><ele>154.0</ele><time>2026-03-30T06:19:54.685Z</time></trkpt><trkpt lat="43.1705317" lon="2.3394333"><ele>153.0</ele><time>2026-03-30T06:19:55.684Z</time></trkpt><trkpt lat="43.1704333" lon="2.3394667"><ele>152.0</ele><time>2026-03-30T06:19:56.684Z</time></trkpt><trkpt lat="43.1703467" lon="2.3395017"><ele>151.0</ele><time>2026-03-30T06:19:57.685Z</time></trkpt><trkpt lat="43.1702567" lon="2.3395267"><ele>151.0</ele><time>2026-03-30T06:19:58.686Z</time></trkpt><trkpt lat="43.1701667" lon="2.3395367"><ele>151.0</ele><time>2026-03-30T06:19:59.687Z</time></trkpt><trkpt lat="43.170075" lon="2.33955"><ele>151.0</ele><time>2026-03-30T06:20:00.686Z</time></trkpt><trkpt lat="43.16998" lon="2.33958"><ele>151.0</ele><time>2026-03-30T06:20:01.685Z</time></trkpt><trkpt lat="43.1698883" lon="2.3396083"><ele>151.0</ele><time>2026-03-30T06:20:02.685Z</time></trkpt><trkpt lat="43.1697983" lon="2.3396517"><ele>150.8</ele><time>2026-03-30T06:20:03.685Z</time></trkpt><trkpt lat="43.1697167" lon="2.33973"><ele>150.6</ele><time>2026-03-30T06:20:04.685Z</time></trkpt><trkpt lat="43.1696433" lon="2.3398383"><ele>150.4</ele><time>2026-03-30T06:20:05.685Z</time></trkpt><trkpt lat="43.169575" lon="2.3399567"><ele>150.2</ele><time>2026-03-30T06:20:06.687Z</time></trkpt><trkpt lat="43.16951" lon="2.3400717"><ele>150.0</ele><time>2026-03-30T06:20:07.685Z</time></trkpt><trkpt lat="43.1694533" lon="2.34019"><ele>150.0</ele><time>2026-03-30T06:20:08.686Z</time></trkpt><trkpt lat="43.1694067" lon="2.3403183"><ele>150.0</ele><time>2026-03-30T06:20:09.685Z</time></trkpt><trkpt lat="43.1693667" lon="2.3404583"><ele>150.0</ele><time>2026-03-30T06:20:10.686Z</time></trkpt><trkpt lat="43.1693317" lon="2.340605"><ele>150.0</ele><time>2026-03-30T06:20:11.685Z</time></trkpt><trkpt lat="43.1693017" lon="2.340755"><ele>150.0</ele><time>2026-03-30T06:20:12.684Z</time></trkpt><trkpt lat="43.169275" lon="2.3409133"><ele>151.0</ele><time>2026-03-30T06:20:13.685Z</time></trkpt><trkpt lat="43.16925" lon="2.3410783"><ele>152.0</ele><time>2026-03-30T06:20:14.685Z</time></trkpt><trkpt lat="43.1692317" lon="2.34124"><ele>153.0</ele><time>2026-03-30T06:20:15.685Z</time></trkpt><trkpt lat="43.1692083" lon="2.3414017"><ele>154.0</ele><time>2026-03-30T06:20:16.686Z</time></trkpt><trkpt lat="43.1691833" lon="2.3415633"><ele>155.25</ele><time>2026-03-30T06:20:17.686Z</time></trkpt><trkpt lat="43.1691533" lon="2.3417233"><ele>156.5</ele><time>2026-03-30T06:20:18.686Z</time></trkpt><trkpt lat="43.16912" lon="2.3418733"><ele>157.75</ele><time>2026-03-30T06:20:19.685Z</time></trkpt><trkpt lat="43.1690933" lon="2.342025"><ele>159.0</ele><time>2026-03-30T06:20:20.685Z</time></trkpt><trkpt lat="43.1690767" lon="2.3421783"><ele>159.75</ele><time>2026-03-30T06:20:21.687Z</time></trkpt><trkpt lat="43.16906" lon="2.3423383"><ele>160.5</ele><time>2026-03-30T06:20:22.685Z</time></trkpt><trkpt lat="43.1690433" lon="2.3424967"><ele>161.25</ele><time>2026-03-30T06:20:23.685Z</time></trkpt><trkpt lat="43.1690217" lon="2.3426533"><ele>162.0</ele><time>2026-03-30T06:20:24.684Z</time></trkpt><trkpt lat="43.1689917" lon="2.3428167"><ele>160.0</ele><time>2026-03-30T06:20:25.684Z</time></trkpt><trkpt lat="43.1689583" lon="2.3429833"><ele>158.0</ele><time>2026-03-30T06:20:26.685Z</time></trkpt><trkpt lat="43.1689183" lon="2.34315"><ele>156.0</ele><time>2026-03-30T06:20:27.685Z</time></trkpt><trkpt lat="43.1688633" lon="2.3433133"><ele>154.0</ele><time>2026-03-30T06:20:28.685Z</time></trkpt><trkpt lat="43.1688067" lon="2.3434767"><ele>154.0</ele><time>2026-03-30T06:20:29.685Z</time></trkpt><trkpt lat="43.168755" lon="2.34363"><ele>154.0</ele><time>2026-03-30T06:20:30.685Z</time></trkpt><trkpt lat="43.1687033" lon="2.34379"><ele>154.0</ele><time>2026-03-30T06:20:31.685Z</time></trkpt><trkpt lat="43.1686583" lon="2.3439367"><ele>154.0</ele><time>2026-03-30T06:20:32.687Z</time></trkpt><trkpt lat="43.1686183" lon="2.3440717"><ele>154.8</ele><time>2026-03-30T06:20:33.685Z</time></trkpt><trkpt lat="43.16858" lon="2.3441967"><ele>155.60000000000002</ele><time>2026-03-30T06:20:34.686Z</time></trkpt><trkpt lat="43.1685383" lon="2.3443133"><ele>156.4</ele><time>2026-03-30T06:20:35.684Z</time></trkpt><trkpt lat="43.168485" lon="2.3444317"><ele>157.20000000000002</ele><time>2026-03-30T06:20:36.686Z</time></trkpt><trkpt lat="43.16843" lon="2.3445383"><ele>158.0</ele><time>2026-03-30T06:20:37.685Z</time></trkpt><trkpt lat="43.1683783" lon="2.3446483"><ele>158.0</ele><time>2026-03-30T06:20:38.685Z</time></trkpt><trkpt lat="43.1683317" lon="2.3447633"><ele>158.0</ele><time>2026-03-30T06:20:39.686Z</time></trkpt><trkpt lat="43.1682883" lon="2.344885"><ele>158.0</ele><time>2026-03-30T06:20:40.684Z</time></trkpt><trkpt lat="43.168245" lon="2.3449917"><ele>158.0</ele><time>2026-03-30T06:20:41.69Z</time></trkpt><trkpt lat="43.1681967" lon="2.345105"><ele>158.0</ele><time>2026-03-30T06:20:42.685Z</time></trkpt><trkpt lat="43.16815" lon="2.3452217"><ele>158.0</ele><time>2026-03-30T06:20:43.684Z</time></trkpt><trkpt lat="43.1681083" lon="2.3453467"><ele>158.0</ele><time>2026-03-30T06:20:44.686Z</time></trkpt><trkpt lat="43.168075" lon="2.3454783"><ele>158.0</ele><time>2026-03-30T06:20:45.687Z</time></trkpt><trkpt lat="43.1680483" lon="2.345625"><ele>158.0</ele><time>2026-03-30T06:20:46.686Z</time></trkpt><trkpt lat="43.1680283" lon="2.3457767"><ele>158.0</ele><time>2026-03-30T06:20:47.69Z</time></trkpt><trkpt lat="43.1680017" lon="2.3459367"><ele>158.25</ele><time>2026-03-30T06:20:48.684Z</time></trkpt><trkpt lat="43.1679717" lon="2.346095"><ele>158.5</ele><time>2026-03-30T06:20:49.685Z</time></trkpt><trkpt lat="43.167935" lon="2.3462633"><ele>158.75</ele><time>2026-03-30T06:20:50.686Z</time></trkpt><trkpt lat="43.1679067" lon="2.346425"><ele>159.0</ele><time>2026-03-30T06:20:51.686Z</time></trkpt><trkpt lat="43.16787" lon="2.346575"><ele>159.25</ele><time>2026-03-30T06:20:52.685Z</time></trkpt><trkpt lat="43.167835" lon="2.34673"><ele>159.5</ele><time>2026-03-30T06:20:53.685Z</time></trkpt><trkpt lat="43.1678017" lon="2.346885"><ele>159.75</ele><time>2026-03-30T06:20:54.689Z</time></trkpt><trkpt lat="43.1677583" lon="2.34705"><ele>160.0</ele><time>2026-03-30T06:20:55.685Z</time></trkpt><trkpt lat="43.167715" lon="2.3472117"><ele>160.75</ele><time>2026-03-30T06:20:56.685Z</time></trkpt><trkpt lat="43.1676733" lon="2.3473867"><ele>161.5</ele><time>2026-03-30T06:20:57.685Z</time></trkpt><trkpt lat="43.1676433" lon="2.3475533"><ele>162.25</ele><time>2026-03-30T06:20:58.685Z</time></trkpt><trkpt lat="43.1676267" lon="2.3477017"><ele>163.0</ele><time>2026-03-30T06:20:59.685Z</time></trkpt><trkpt lat="43.1676217" lon="2.3478333"><ele>163.0</ele><time>2026-03-30T06:21:00.685Z</time></trkpt><trkpt lat="43.1676183" lon="2.3479683"><ele>163.0</ele><time>2026-03-30T06:21:01.689Z</time></trkpt><trkpt lat="43.16761" lon="2.3481017"><ele>163.0</ele><time>2026-03-30T06:21:02.686Z</time></trkpt><trkpt lat="43.167595" lon="2.3482217"><ele>163.0</ele><time>2026-03-30T06:21:03.684Z</time></trkpt><trkpt lat="43.167565" lon="2.3483267"><ele>163.0</ele><time>2026-03-30T06:21:04.686Z</time></trkpt><trkpt lat="43.167525" lon="2.3484183"><ele>163.0</ele><time>2026-03-30T06:21:05.684Z</time></trkpt><trkpt lat="43.16749" lon="2.3485017"><ele>163.2</ele><time>2026-03-30T06:21:06.688Z</time></trkpt><trkpt lat="43.167425" lon="2.348635"><ele>163.4</ele><time>2026-03-30T06:21:08.685Z</time></trkpt><trkpt lat="43.1673233" lon="2.3486883"><ele>163.6</ele><time>2026-03-30T06:21:10.685Z</time></trkpt><trkpt lat="43.1672517" lon="2.3486817"><ele>163.79999999999998</ele><time>2026-03-30T06:21:11.686Z</time></trkpt><trkpt lat="43.1671733" lon="2.3486667"><ele>164.0</ele><time>2026-03-30T06:21:12.685Z</time></trkpt><trkpt lat="43.16708" lon="2.348645"><ele>164.0</ele><time>2026-03-30T06:21:13.685Z</time></trkpt><trkpt lat="43.16698" lon="2.3486167"><ele>164.0</ele><time>2026-03-30T06:21:14.685Z</time></trkpt><trkpt lat="43.1668733" lon="2.34859"><ele>164.0</ele><time>2026-03-30T06:21:15.687Z</time></trkpt><trkpt lat="43.1667567" lon="2.3485717"><ele>164.0</ele><time>2026-03-30T06:21:16.686Z</time></trkpt><trkpt lat="43.1666383" lon="2.3485667"><ele>164.0</ele><time>2026-03-30T06:21:17.687Z</time></trkpt><trkpt lat="43.16652" lon="2.3485467"><ele>166.25</ele><time>2026-03-30T06:21:18.692Z</time></trkpt><trkpt lat="43.1664017" lon="2.34851"><ele>168.5</ele><time>2026-03-30T06:21:19.688Z</time></trkpt><trkpt lat="43.166285" lon="2.34845"><ele>170.75</ele><time>2026-03-30T06:21:20.686Z</time></trkpt><trkpt lat="43.16618" lon="2.3483683"><ele>173.0</ele><time>2026-03-30T06:21:21.687Z</time></trkpt><trkpt lat="43.1660717" lon="2.34828"><ele>173.0</ele><time>2026-03-30T06:21:22.687Z</time></trkpt><trkpt lat="43.1659733" lon="2.3481783"><ele>173.0</ele><time>2026-03-30T06:21:23.687Z</time></trkpt><trkpt lat="43.16588" lon="2.3480767"><ele>173.0</ele><time>2026-03-30T06:21:24.687Z</time></trkpt><trkpt lat="43.1657817" lon="2.3479933"><ele>173.0</ele><time>2026-03-30T06:21:25.688Z</time></trkpt><trkpt lat="43.165695" lon="2.3479317"><ele>175.60000000000002</ele><time>2026-03-30T06:21:26.687Z</time></trkpt><trkpt lat="43.165615" lon="2.3478933"><ele>178.20000000000002</ele><time>2026-03-30T06:21:27.689Z</time></trkpt><trkpt lat="43.1655267" lon="2.3479"><ele>180.8</ele><time>2026-03-30T06:21:28.689Z</time></trkpt><trkpt lat="43.1654383" lon="2.347925"><ele>183.4</ele><time>2026-03-30T06:21:29.688Z</time></trkpt><trkpt lat="43.165335" lon="2.3479717"><ele>186.0</ele><time>2026-03-30T06:21:30.687Z</time></trkpt><trkpt lat="43.1652267" lon="2.3480233"><ele>186.25</ele><time>2026-03-30T06:21:31.69Z</time></trkpt><trkpt lat="43.1651117" lon="2.348075"><ele>186.5</ele><time>2026-03-30T06:21:32.689Z</time></trkpt><trkpt lat="43.164995" lon="2.3481383"><ele>186.75</ele><time>2026-03-30T06:21:33.688Z</time></trkpt><trkpt lat="43.1648817" lon="2.3482033"><ele>187.0</ele><time>2026-03-30T06:21:34.687Z</time></trkpt><trkpt lat="43.1647667" lon="2.3482667"><ele>187.0</ele><time>2026-03-30T06:21:35.686Z</time></trkpt><trkpt lat="43.164645" lon="2.348335"><ele>187.0</ele><time>2026-03-30T06:21:36.685Z</time></trkpt><trkpt lat="43.1645283" lon="2.3484"><ele>187.0</ele><time>2026-03-30T06:21:37.687Z</time></trkpt><trkpt lat="43.1644217" lon="2.3484583"><ele>187.0</ele><time>2026-03-30T06:21:38.686Z</time></trkpt><trkpt lat="43.1643333" lon="2.3485033"><ele>187.0</ele><time>2026-03-30T06:21:39.689Z</time></trkpt><trkpt lat="43.1642433" lon="2.3485367"><ele>187.0</ele><time>2026-03-30T06:21:40.687Z</time></trkpt><trkpt lat="43.16416" lon="2.3485317"><ele>187.0</ele><time>2026-03-30T06:21:41.686Z</time></trkpt><trkpt lat="43.164075" lon="2.348525"><ele>187.0</ele><time>2026-03-30T06:21:42.687Z</time></trkpt><trkpt lat="43.163995" lon="2.3485017"><ele>187.0</ele><time>2026-03-30T06:21:43.688Z</time></trkpt><trkpt lat="43.1639117" lon="2.348455"><ele>187.0</ele><time>2026-03-30T06:21:44.685Z</time></trkpt><trkpt lat="43.163825" lon="2.3483883"><ele>187.0</ele><time>2026-03-30T06:21:45.685Z</time></trkpt><trkpt lat="43.1637417" lon="2.348315"><ele>187.0</ele><time>2026-03-30T06:21:46.686Z</time></trkpt><trkpt lat="43.1636617" lon="2.3482433"><ele>187.0</ele><time>2026-03-30T06:21:47.687Z</time></trkpt><trkpt lat="43.1635867" lon="2.3481717"><ele>187.0</ele><time>2026-03-30T06:21:48.687Z</time></trkpt><trkpt lat="43.1635183" lon="2.3481017"><ele>187.0</ele><time>2026-03-30T06:21:49.685Z</time></trkpt><trkpt lat="43.1634467" lon="2.3480317"><ele>187.0</ele><time>2026-03-30T06:21:50.687Z</time></trkpt><trkpt lat="43.1633683" lon="2.3479683"><ele>187.0</ele><time>2026-03-30T06:21:51.691Z</time></trkpt><trkpt lat="43.1632767" lon="2.3479217"><ele>187.0</ele><time>2026-03-30T06:21:52.685Z</time></trkpt><trkpt lat="43.163175" lon="2.3478833"><ele>187.0</ele><time>2026-03-30T06:21:53.686Z</time></trkpt><trkpt lat="43.16308" lon="2.3478633"><ele>187.0</ele><time>2026-03-30T06:21:54.686Z</time></trkpt><trkpt lat="43.16299" lon="2.347855"><ele>186.16666666666669</ele><time>2026-03-30T06:21:55.686Z</time></trkpt><trkpt lat="43.1629117" lon="2.34785"><ele>185.33333333333334</ele><time>2026-03-30T06:21:56.686Z</time></trkpt><trkpt lat="43.1628367" lon="2.3478417"><ele>184.5</ele><time>2026-03-30T06:21:57.686Z</time></trkpt><trkpt lat="43.16276" lon="2.3478067"><ele>183.66666666666666</ele><time>2026-03-30T06:21:58.685Z</time></trkpt><trkpt lat="43.1626867" lon="2.3477483"><ele>182.83333333333331</ele><time>2026-03-30T06:21:59.686Z</time></trkpt><trkpt lat="43.1626083" lon="2.347665"><ele>182.0</ele><time>2026-03-30T06:22:00.685Z</time></trkpt><trkpt lat="43.162535" lon="2.3475667"><ele>182.0</ele><time>2026-03-30T06:22:01.686Z</time></trkpt><trkpt lat="43.16247" lon="2.347465"><ele>182.0</ele><time>2026-03-30T06:22:02.686Z</time></trkpt><trkpt lat="43.1624117" lon="2.3473517"><ele>182.0</ele><time>2026-03-30T06:22:03.686Z</time></trkpt><trkpt lat="43.16237" lon="2.3472233"><ele>182.0</ele><time>2026-03-30T06:22:04.686Z</time></trkpt><trkpt lat="43.1623233" lon="2.34708"><ele>182.0</ele><time>2026-03-30T06:22:05.685Z</time></trkpt><trkpt lat="43.1622733" lon="2.3469383"><ele>179.6</ele><time>2026-03-30T06:22:06.685Z</time></trkpt><trkpt lat="43.1622233" lon="2.3468033"><ele>177.2</ele><time>2026-03-30T06:22:07.686Z</time></trkpt><trkpt lat="43.1621717" lon="2.346675"><ele>174.8</ele><time>2026-03-30T06:22:08.686Z</time></trkpt><trkpt lat="43.1621183" lon="2.34655"><ele>172.4</ele><time>2026-03-30T06:22:09.685Z</time></trkpt><trkpt lat="43.1620617" lon="2.3464367"><ele>170.0</ele><time>2026-03-30T06:22:10.685Z</time></trkpt><trkpt lat="43.1620033" lon="2.3463467"><ele>169.33333333333331</ele><time>2026-03-30T06:22:11.689Z</time></trkpt><trkpt lat="43.1619467" lon="2.34627"><ele>168.66666666666666</ele><time>2026-03-30T06:22:12.688Z</time></trkpt><trkpt lat="43.161895" lon="2.3461967"><ele>168.0</ele><time>2026-03-30T06:22:13.686Z</time></trkpt><trkpt lat="43.161875" lon="2.3461083"><ele>167.33333333333334</ele><time>2026-03-30T06:22:14.685Z</time></trkpt><trkpt lat="43.16187" lon="2.3460017"><ele>166.66666666666669</ele><time>2026-03-30T06:22:15.685Z</time></trkpt><trkpt lat="43.161865" lon="2.3458783"><ele>166.0</ele><time>2026-03-30T06:22:16.687Z</time></trkpt><trkpt lat="43.16186" lon="2.34574"><ele>166.0</ele><time>2026-03-30T06:22:17.686Z</time></trkpt><trkpt lat="43.1618567" lon="2.3455917"><ele>166.0</ele><time>2026-03-30T06:22:18.686Z</time></trkpt><trkpt lat="43.16185" lon="2.3454317"><ele>166.0</ele><time>2026-03-30T06:22:19.689Z</time></trkpt><trkpt lat="43.1618433" lon="2.3452633"><ele>166.0</ele><time>2026-03-30T06:22:20.687Z</time></trkpt><trkpt lat="43.16184" lon="2.3450867"><ele>165.5</ele><time>2026-03-30T06:22:21.686Z</time></trkpt><trkpt lat="43.1618383" lon="2.34491"><ele>165.0</ele><time>2026-03-30T06:22:22.687Z</time></trkpt><trkpt lat="43.16184" lon="2.344735"><ele>164.5</ele><time>2026-03-30T06:22:23.688Z</time></trkpt><trkpt lat="43.1618433" lon="2.3445617"><ele>164.0</ele><time>2026-03-30T06:22:24.686Z</time></trkpt><trkpt lat="43.16185" lon="2.3443917"><ele>163.25</ele><time>2026-03-30T06:22:25.687Z</time></trkpt><trkpt lat="43.16186" lon="2.3442283"><ele>162.5</ele><time>2026-03-30T06:22:26.688Z</time></trkpt><trkpt lat="43.16187" lon="2.3440633"><ele>161.75</ele><time>2026-03-30T06:22:27.687Z</time></trkpt><trkpt lat="43.161885" lon="2.3439033"><ele>161.0</ele><time>2026-03-30T06:22:28.685Z</time></trkpt><trkpt lat="43.161905" lon="2.3437467"><ele>160.8</ele><time>2026-03-30T06:22:29.766Z</time></trkpt><trkpt lat="43.161925" lon="2.3436017"><ele>160.60000000000002</ele><time>2026-03-30T06:22:30.686Z</time></trkpt><trkpt lat="43.161935" lon="2.343465"><ele>160.4</ele><time>2026-03-30T06:22:31.686Z</time></trkpt><trkpt lat="43.1619267" lon="2.3433333"><ele>160.2</ele><time>2026-03-30T06:22:32.688Z</time></trkpt><trkpt lat="43.1619117" lon="2.343215"><ele>160.0</ele><time>2026-03-30T06:22:33.687Z</time></trkpt><trkpt lat="43.1618967" lon="2.3430983"><ele>160.2</ele><time>2026-03-30T06:22:34.686Z</time></trkpt><trkpt lat="43.1618817" lon="2.342985"><ele>160.4</ele><time>2026-03-30T06:22:35.688Z</time></trkpt><trkpt lat="43.1618683" lon="2.3428917"><ele>160.60000000000002</ele><time>2026-03-30T06:22:36.687Z</time></trkpt><trkpt lat="43.1618667" lon="2.3427867"><ele>160.8</ele><time>2026-03-30T06:22:38.688Z</time></trkpt><trkpt lat="43.161795" lon="2.34271"><ele>161.0</ele><time>2026-03-30T06:22:40.686Z</time></trkpt><trkpt lat="43.1616717" lon="2.3428"><ele>161.0</ele><time>2026-03-30T06:22:42.686Z</time></trkpt><trkpt lat="43.1616133" lon="2.3428767"><ele>161.0</ele><time>2026-03-30T06:22:43.686Z</time></trkpt><trkpt lat="43.1615317" lon="2.3429983"><ele>161.0</ele><time>2026-03-30T06:22:44.686Z</time></trkpt><trkpt lat="43.161425" lon="2.34313"><ele>161.0</ele><time>2026-03-30T06:22:45.685Z</time></trkpt><trkpt lat="43.1613283" lon="2.343265"><ele>160.8</ele><time>2026-03-30T06:22:46.688Z</time></trkpt><trkpt lat="43.161245" lon="2.3433933"><ele>160.60000000000002</ele><time>2026-03-30T06:22:47.685Z</time></trkpt><trkpt lat="43.16117" lon="2.3435017"><ele>160.4</ele><time>2026-03-30T06:22:48.688Z</time></trkpt><trkpt lat="43.1611033" lon="2.3435967"><ele>160.2</ele><time>2026-03-30T06:22:49.688Z</time></trkpt><trkpt lat="43.161035" lon="2.3436767"><ele>160.0</ele><time>2026-03-30T06:22:50.69Z</time></trkpt><trkpt lat="43.1609733" lon="2.3437417"><ele>160.0</ele><time>2026-03-30T06:22:51.687Z</time></trkpt><trkpt lat="43.1609117" lon="2.3438017"><ele>160.0</ele><time>2026-03-30T06:22:52.685Z</time></trkpt><trkpt lat="43.1607817" lon="2.343825"><ele>160.0</ele><time>2026-03-30T06:22:54.685Z</time></trkpt><trkpt lat="43.1606967" lon="2.3438033"><ele>160.0</ele><time>2026-03-30T06:22:55.685Z</time></trkpt><trkpt lat="43.1606083" lon="2.343795"><ele>160.0</ele><time>2026-03-30T06:22:56.686Z</time></trkpt><trkpt lat="43.1605217" lon="2.343805"><ele>161.0</ele><time>2026-03-30T06:22:57.684Z</time></trkpt><trkpt lat="43.1604433" lon="2.3438217"><ele>162.0</ele><time>2026-03-30T06:22:58.686Z</time></trkpt><trkpt lat="43.1603733" lon="2.3438117"><ele>163.0</ele><time>2026-03-30T06:22:59.685Z</time></trkpt><trkpt lat="43.1603083" lon="2.3437667"><ele>164.0</ele><time>2026-03-30T06:23:00.687Z</time></trkpt><trkpt lat="43.160245" lon="2.3437167"><ele>165.0</ele><time>2026-03-30T06:23:01.685Z</time></trkpt><trkpt lat="43.1602" lon="2.3435917"><ele>166.0</ele><time>2026-03-30T06:23:02.688Z</time></trkpt><trkpt lat="43.1601567" lon="2.3434667"><ele>166.0</ele><time>2026-03-30T06:23:03.686Z</time></trkpt><trkpt lat="43.16009" lon="2.3433383"><ele>166.0</ele><time>2026-03-30T06:23:04.686Z</time></trkpt><trkpt lat="43.1600217" lon="2.343225"><ele>166.0</ele><time>2026-03-30T06:23:05.685Z</time></trkpt><trkpt lat="43.1599417" lon="2.3431117"><ele>166.0</ele><time>2026-03-30T06:23:06.686Z</time></trkpt><trkpt lat="43.1598683" lon="2.3429983"><ele>166.0</ele><time>2026-03-30T06:23:07.686Z</time></trkpt><trkpt lat="43.1597833" lon="2.3428917"><ele>168.20000000000002</ele><time>2026-03-30T06:23:08.687Z</time></trkpt><trkpt lat="43.1597283" lon="2.34278"><ele>170.4</ele><time>2026-03-30T06:23:09.685Z</time></trkpt><trkpt lat="43.159685" lon="2.3426767"><ele>172.6</ele><time>2026-03-30T06:23:10.686Z</time></trkpt><trkpt lat="43.1596533" lon="2.3425617"><ele>174.8</ele><time>2026-03-30T06:23:11.685Z</time></trkpt><trkpt lat="43.1596117" lon="2.342445"><ele>177.0</ele><time>2026-03-30T06:23:12.686Z</time></trkpt><trkpt lat="43.1595633" lon="2.3423533"><ele>177.0</ele><time>2026-03-30T06:23:13.685Z</time></trkpt><trkpt lat="43.1594883" lon="2.34228"><ele>177.0</ele><time>2026-03-30T06:23:14.686Z</time></trkpt><trkpt lat="43.1594083" lon="2.3422217"><ele>177.0</ele><time>2026-03-30T06:23:15.687Z</time></trkpt><trkpt lat="43.1593233" lon="2.3421483"><ele>177.0</ele><time>2026-03-30T06:23:16.686Z</time></trkpt><trkpt lat="43.159245" lon="2.3420683"><ele>177.0</ele><time>2026-03-30T06:23:17.687Z</time></trkpt><trkpt lat="43.1591667" lon="2.34198"><ele>177.0</ele><time>2026-03-30T06:23:18.688Z</time></trkpt><trkpt lat="43.15909" lon="2.3419033"><ele>177.0</ele><time>2026-03-30T06:23:19.693Z</time></trkpt><trkpt lat="43.1590033" lon="2.341845"><ele>177.0</ele><time>2026-03-30T06:23:20.687Z</time></trkpt><trkpt lat="43.158915" lon="2.3417967"><ele>177.0</ele><time>2026-03-30T06:23:21.687Z</time></trkpt><trkpt lat="43.1588217" lon="2.34174"><ele>177.0</ele><time>2026-03-30T06:23:22.685Z</time></trkpt><trkpt lat="43.1587367" lon="2.3416533"><ele>178.6</ele><time>2026-03-30T06:23:23.688Z</time></trkpt><trkpt lat="43.15866" lon="2.3415583"><ele>180.2</ele><time>2026-03-30T06:23:24.687Z</time></trkpt><trkpt lat="43.1585867" lon="2.3414633"><ele>181.8</ele><time>2026-03-30T06:23:25.687Z</time></trkpt><trkpt lat="43.1585183" lon="2.3413667"><ele>183.4</ele><time>2026-03-30T06:23:26.688Z</time></trkpt><trkpt lat="43.1584517" lon="2.3412717"><ele>185.0</ele><time>2026-03-30T06:23:27.687Z</time></trkpt><trkpt lat="43.1583883" lon="2.3411783"><ele>185.0</ele><time>2026-03-30T06:23:28.685Z</time></trkpt><trkpt lat="43.158325" lon="2.3410833"><ele>185.0</ele><time>2026-03-30T06:23:29.687Z</time></trkpt><trkpt lat="43.15826" lon="2.3409867"><ele>185.0</ele><time>2026-03-30T06:23:30.686Z</time></trkpt><trkpt lat="43.1581817" lon="2.3408967"><ele>185.0</ele><time>2026-03-30T06:23:31.685Z</time></trkpt><trkpt lat="43.15809" lon="2.3408167"><ele>185.0</ele><time>2026-03-30T06:23:32.686Z</time></trkpt><trkpt lat="43.1579983" lon="2.3407483"><ele>186.6</ele><time>2026-03-30T06:23:33.688Z</time></trkpt><trkpt lat="43.1579033" lon="2.3406817"><ele>188.2</ele><time>2026-03-30T06:23:34.688Z</time></trkpt><trkpt lat="43.1578083" lon="2.340615"><ele>189.8</ele><time>2026-03-30T06:23:35.686Z</time></trkpt><trkpt lat="43.15772" lon="2.3405483"><ele>191.4</ele><time>2026-03-30T06:23:36.687Z</time></trkpt><trkpt lat="43.1576417" lon="2.3404917"><ele>193.0</ele><time>2026-03-30T06:23:37.686Z</time></trkpt><trkpt lat="43.157565" lon="2.34044"><ele>193.0</ele><time>2026-03-30T06:23:38.689Z</time></trkpt><trkpt lat="43.157475" lon="2.3404017"><ele>193.0</ele><time>2026-03-30T06:23:39.689Z</time></trkpt><trkpt lat="43.1573767" lon="2.3403667"><ele>193.0</ele><time>2026-03-30T06:23:40.687Z</time></trkpt><trkpt lat="43.1572767" lon="2.340335"><ele>193.0</ele><time>2026-03-30T06:23:41.686Z</time></trkpt><trkpt lat="43.1571717" lon="2.3402983"><ele>193.0</ele><time>2026-03-30T06:23:42.686Z</time></trkpt><trkpt lat="43.1570667" lon="2.3402483"><ele>194.8</ele><time>2026-03-30T06:23:43.686Z</time></trkpt><trkpt lat="43.1569683" lon="2.3401917"><ele>196.60000000000002</ele><time>2026-03-30T06:23:44.687Z</time></trkpt><trkpt lat="43.1568733" lon="2.3401233"><ele>198.39999999999998</ele><time>2026-03-30T06:23:45.687Z</time></trkpt><trkpt lat="43.1567817" lon="2.340045"><ele>200.2</ele><time>2026-03-30T06:23:46.687Z</time></trkpt><trkpt lat="43.1566917" lon="2.33996"><ele>202.0</ele><time>2026-03-30T06:23:47.685Z</time></trkpt><trkpt lat="43.1565983" lon="2.3398733"><ele>203.25</ele><time>2026-03-30T06:23:48.688Z</time></trkpt><trkpt lat="43.156505" lon="2.3397783"><ele>204.5</ele><time>2026-03-30T06:23:49.685Z</time></trkpt><trkpt lat="43.1564217" lon="2.3396717"><ele>205.75</ele><time>2026-03-30T06:23:50.687Z</time></trkpt><trkpt lat="43.1563433" lon="2.3395567"><ele>207.0</ele><time>2026-03-30T06:23:51.687Z</time></trkpt><trkpt lat="43.1562733" lon="2.339445"><ele>207.0</ele><time>2026-03-30T06:23:52.686Z</time></trkpt><trkpt lat="43.15621" lon="2.3393383"><ele>207.0</ele><time>2026-03-30T06:23:53.685Z</time></trkpt><trkpt lat="43.1561517" lon="2.339225"><ele>207.0</ele><time>2026-03-30T06:23:54.686Z</time></trkpt><trkpt lat="43.1560983" lon="2.3391117"><ele>207.0</ele><time>2026-03-30T06:23:55.687Z</time></trkpt><trkpt lat="43.156045" lon="2.3389933"><ele>207.0</ele><time>2026-03-30T06:23:56.686Z</time></trkpt><trkpt lat="43.155995" lon="2.3388683"><ele>206.6</ele><time>2026-03-30T06:23:57.686Z</time></trkpt><trkpt lat="43.1559483" lon="2.3387433"><ele>206.2</ele><time>2026-03-30T06:23:58.685Z</time></trkpt><trkpt lat="43.1558983" lon="2.3386183"><ele>205.8</ele><time>2026-03-30T06:23:59.688Z</time></trkpt><trkpt lat="43.1558383" lon="2.3384933"><ele>205.4</ele><time>2026-03-30T06:24:00.686Z</time></trkpt><trkpt lat="43.1557667" lon="2.338365"><ele>205.0</ele><time>2026-03-30T06:24:01.687Z</time></trkpt><trkpt lat="43.1556883" lon="2.3382383"><ele>204.6</ele><time>2026-03-30T06:24:02.685Z</time></trkpt><trkpt lat="43.15561" lon="2.3381183"><ele>204.2</ele><time>2026-03-30T06:24:03.685Z</time></trkpt><trkpt lat="43.1555367" lon="2.338005"><ele>203.8</ele><time>2026-03-30T06:24:04.685Z</time></trkpt><trkpt lat="43.155465" lon="2.33789"><ele>203.4</ele><time>2026-03-30T06:24:05.685Z</time></trkpt><trkpt lat="43.1553983" lon="2.3377833"><ele>203.0</ele><time>2026-03-30T06:24:06.687Z</time></trkpt><trkpt lat="43.1553367" lon="2.33767"><ele>201.8</ele><time>2026-03-30T06:24:07.685Z</time></trkpt><trkpt lat="43.1552767" lon="2.3375433"><ele>200.60000000000002</ele><time>2026-03-30T06:24:08.687Z</time></trkpt><trkpt lat="43.1552217" lon="2.337425"><ele>199.39999999999998</ele><time>2026-03-30T06:24:09.686Z</time></trkpt><trkpt lat="43.1551717" lon="2.33731"><ele>198.2</ele><time>2026-03-30T06:24:10.685Z</time></trkpt><trkpt lat="43.1551217" lon="2.3372033"><ele>197.0</ele><time>2026-03-30T06:24:11.685Z</time></trkpt><trkpt lat="43.15508" lon="2.337105"><ele>196.33333333333334</ele><time>2026-03-30T06:24:12.687Z</time></trkpt><trkpt lat="43.1550483" lon="2.3370267"><ele>195.66666666666669</ele><time>2026-03-30T06:24:13.691Z</time></trkpt><trkpt lat="43.1550217" lon="2.3369183"><ele>195.0</ele><time>2026-03-30T06:24:15.686Z</time></trkpt><trkpt lat="43.155085" lon="2.3368167"><ele>194.33333333333331</ele><time>2026-03-30T06:24:18.687Z</time></trkpt><trkpt lat="43.1551483" lon="2.3367767"><ele>193.66666666666666</ele><time>2026-03-30T06:24:19.686Z</time></trkpt><trkpt lat="43.15522" lon="2.3367033"><ele>193.0</ele><time>2026-03-30T06:24:20.689Z</time></trkpt><trkpt lat="43.155295" lon="2.3366033"><ele>193.0</ele><time>2026-03-30T06:24:21.687Z</time></trkpt><trkpt lat="43.155375" lon="2.3365"><ele>193.0</ele><time>2026-03-30T06:24:22.686Z</time></trkpt><trkpt lat="43.1554533" lon="2.3364"><ele>193.0</ele><time>2026-03-30T06:24:23.686Z</time></trkpt><trkpt lat="43.1555217" lon="2.3362933"><ele>193.0</ele><time>2026-03-30T06:24:24.686Z</time></trkpt><trkpt lat="43.1555767" lon="2.3361633"><ele>193.0</ele><time>2026-03-30T06:24:25.691Z</time></trkpt><trkpt lat="43.15562" lon="2.3360183"><ele>192.75</ele><time>2026-03-30T06:24:26.686Z</time></trkpt><trkpt lat="43.15566" lon="2.3358633"><ele>192.5</ele><time>2026-03-30T06:24:27.685Z</time></trkpt><trkpt lat="43.1556933" lon="2.3356967"><ele>192.25</ele><time>2026-03-30T06:24:28.686Z</time></trkpt><trkpt lat="43.1557233" lon="2.3355283"><ele>192.0</ele><time>2026-03-30T06:24:29.686Z</time></trkpt><trkpt lat="43.15575" lon="2.3353633"><ele>189.75</ele><time>2026-03-30T06:24:30.686Z</time></trkpt><trkpt lat="43.1557767" lon="2.335205"><ele>187.5</ele><time>2026-03-30T06:24:31.687Z</time></trkpt><trkpt lat="43.1558" lon="2.33505"><ele>185.25</ele><time>2026-03-30T06:24:32.688Z</time></trkpt><trkpt lat="43.1558167" lon="2.334895"><ele>183.0</ele><time>2026-03-30T06:24:33.685Z</time></trkpt><trkpt lat="43.1558267" lon="2.3347317"><ele>182.0</ele><time>2026-03-30T06:24:34.685Z</time></trkpt><trkpt lat="43.1558333" lon="2.3345583"><ele>181.0</ele><time>2026-03-30T06:24:35.687Z</time></trkpt><trkpt lat="43.15584" lon="2.3343833"><ele>180.0</ele><time>2026-03-30T06:24:36.686Z</time></trkpt><trkpt lat="43.1558483" lon="2.334215"><ele>179.0</ele><time>2026-03-30T06:24:37.686Z</time></trkpt><trkpt lat="43.1558617" lon="2.3340533"><ele>179.0</ele><time>2026-03-30T06:24:38.686Z</time></trkpt><trkpt lat="43.1558867" lon="2.3338933"><ele>179.0</ele><time>2026-03-30T06:24:39.686Z</time></trkpt><trkpt lat="43.155925" lon="2.333735"><ele>179.0</ele><time>2026-03-30T06:24:40.688Z</time></trkpt><trkpt lat="43.1559683" lon="2.3335717"><ele>179.0</ele><time>2026-03-30T06:24:41.688Z</time></trkpt><trkpt lat="43.1560083" lon="2.333405"><ele>178.0</ele><time>2026-03-30T06:24:42.687Z</time></trkpt><trkpt lat="43.1560433" lon="2.3332333"><ele>177.0</ele><time>2026-03-30T06:24:43.685Z</time></trkpt><trkpt lat="43.156075" lon="2.3330517"><ele>176.0</ele><time>2026-03-30T06:24:44.687Z</time></trkpt><trkpt lat="43.1561117" lon="2.332875"><ele>175.0</ele><time>2026-03-30T06:24:45.687Z</time></trkpt><trkpt lat="43.15615" lon="2.3326967"><ele>174.25</ele><time>2026-03-30T06:24:46.685Z</time></trkpt><trkpt lat="43.1561917" lon="2.3325283"><ele>173.5</ele><time>2026-03-30T06:24:47.685Z</time></trkpt><trkpt lat="43.1562317" lon="2.3323667"><ele>172.75</ele><time>2026-03-30T06:24:48.686Z</time></trkpt><trkpt lat="43.156265" lon="2.332215"><ele>172.0</ele><time>2026-03-30T06:24:49.687Z</time></trkpt><trkpt lat="43.15629" lon="2.3320817"><ele>171.16666666666669</ele><time>2026-03-30T06:24:50.689Z</time></trkpt><trkpt lat="43.1563083" lon="2.331955"><ele>170.33333333333334</ele><time>2026-03-30T06:24:51.685Z</time></trkpt><trkpt lat="43.15632" lon="2.3318267"><ele>169.5</ele><time>2026-03-30T06:24:52.685Z</time></trkpt><trkpt lat="43.156325" lon="2.3317033"><ele>168.66666666666666</ele><time>2026-03-30T06:24:53.686Z</time></trkpt><trkpt lat="43.1563317" lon="2.3315917"><ele>167.83333333333331</ele><time>2026-03-30T06:24:54.686Z</time></trkpt><trkpt lat="43.15634" lon="2.331495"><ele>167.0</ele><time>2026-03-30T06:24:55.687Z</time></trkpt><trkpt lat="43.156335" lon="2.3313517"><ele>166.5</ele><time>2026-03-30T06:24:57.686Z</time></trkpt><trkpt lat="43.15626" lon="2.3312183"><ele>166.0</ele><time>2026-03-30T06:24:59.686Z</time></trkpt><trkpt lat="43.15621" lon="2.33115"><ele>165.5</ele><time>2026-03-30T06:25:00.688Z</time></trkpt><trkpt lat="43.1561683" lon="2.3310783"><ele>165.0</ele><time>2026-03-30T06:25:01.687Z</time></trkpt><trkpt lat="43.1561417" lon="2.33098"><ele>164.5</ele><time>2026-03-30T06:25:02.687Z</time></trkpt><trkpt lat="43.1561367" lon="2.3308533"><ele>164.0</ele><time>2026-03-30T06:25:03.686Z</time></trkpt><trkpt lat="43.156135" lon="2.3307033"><ele>163.25</ele><time>2026-03-30T06:25:04.684Z</time></trkpt><trkpt lat="43.156135" lon="2.3305567"><ele>162.5</ele><time>2026-03-30T06:25:05.686Z</time></trkpt><trkpt lat="43.1561317" lon="2.3303867"><ele>161.75</ele><time>2026-03-30T06:25:06.685Z</time></trkpt><trkpt lat="43.156115" lon="2.3301817"><ele>161.0</ele><time>2026-03-30T06:25:07.685Z</time></trkpt><trkpt lat="43.1561017" lon="2.33"><ele>161.0</ele><time>2026-03-30T06:25:08.687Z</time></trkpt><trkpt lat="43.1560983" lon="2.3298083"><ele>161.0</ele><time>2026-03-30T06:25:09.688Z</time></trkpt><trkpt lat="43.1560917" lon="2.3296133"><ele>161.0</ele><time>2026-03-30T06:25:10.685Z</time></trkpt><trkpt lat="43.1560867" lon="2.3294233"><ele>161.0</ele><time>2026-03-30T06:25:11.686Z</time></trkpt><trkpt lat="43.1560667" lon="2.3292217"><ele>160.25</ele><time>2026-03-30T06:25:12.685Z</time></trkpt><trkpt lat="43.1560533" lon="2.3290217"><ele>159.5</ele><time>2026-03-30T06:25:13.686Z</time></trkpt><trkpt lat="43.15605" lon="2.3288167"><ele>158.75</ele><time>2026-03-30T06:25:14.687Z</time></trkpt><trkpt lat="43.15605" lon="2.328615"><ele>158.0</ele><time>2026-03-30T06:25:15.688Z</time></trkpt><trkpt lat="43.1560533" lon="2.3284217"><ele>157.25</ele><time>2026-03-30T06:25:16.686Z</time></trkpt><trkpt lat="43.1560617" lon="2.32823"><ele>156.5</ele><time>2026-03-30T06:25:17.689Z</time></trkpt><trkpt lat="43.1560767" lon="2.3280367"><ele>155.75</ele><time>2026-03-30T06:25:18.688Z</time></trkpt><trkpt lat="43.1560983" lon="2.327835"><ele>155.0</ele><time>2026-03-30T06:25:19.685Z</time></trkpt><trkpt lat="43.156125" lon="2.327655"><ele>154.0</ele><time>2026-03-30T06:25:20.688Z</time></trkpt><trkpt lat="43.1561583" lon="2.327485"><ele>153.0</ele><time>2026-03-30T06:25:21.686Z</time></trkpt><trkpt lat="43.1561883" lon="2.3273167"><ele>152.0</ele><time>2026-03-30T06:25:22.692Z</time></trkpt><trkpt lat="43.1562167" lon="2.327155"><ele>151.0</ele><time>2026-03-30T06:25:23.686Z</time></trkpt><trkpt lat="43.1562333" lon="2.3269967"><ele>150.75</ele><time>2026-03-30T06:25:24.685Z</time></trkpt><trkpt lat="43.1562317" lon="2.3268367"><ele>150.5</ele><time>2026-03-30T06:25:25.693Z</time></trkpt><trkpt lat="43.156215" lon="2.32667"><ele>150.25</ele><time>2026-03-30T06:25:26.686Z</time></trkpt><trkpt lat="43.1561867" lon="2.3264867"><ele>150.0</ele><time>2026-03-30T06:25:27.686Z</time></trkpt><trkpt lat="43.1561667" lon="2.326295"><ele>149.75</ele><time>2026-03-30T06:25:28.685Z</time></trkpt><trkpt lat="43.1561483" lon="2.3261067"><ele>149.5</ele><time>2026-03-30T06:25:29.687Z</time></trkpt><trkpt lat="43.156125" lon="2.3259183"><ele>149.25</ele><time>2026-03-30T06:25:30.686Z</time></trkpt><trkpt lat="43.1560967" lon="2.325725"><ele>149.0</ele><time>2026-03-30T06:25:31.686Z</time></trkpt><trkpt lat="43.15606" lon="2.3255317"><ele>147.66666666666666</ele><time>2026-03-30T06:25:32.687Z</time></trkpt><trkpt lat="43.1560067" lon="2.3253417"><ele>146.33333333333334</ele><time>2026-03-30T06:25:33.686Z</time></trkpt><trkpt lat="43.155945" lon="2.325155"><ele>145.0</ele><time>2026-03-30T06:25:34.685Z</time></trkpt><trkpt lat="43.1558733" lon="2.3249717"><ele>145.0</ele><time>2026-03-30T06:25:35.686Z</time></trkpt><trkpt lat="43.155795" lon="2.3247883"><ele>145.0</ele><time>2026-03-30T06:25:36.687Z</time></trkpt><trkpt lat="43.1557217" lon="2.32461"><ele>145.0</ele><time>2026-03-30T06:25:37.685Z</time></trkpt><trkpt lat="43.1556483" lon="2.324435"><ele>145.0</ele><time>2026-03-30T06:25:38.686Z</time></trkpt><trkpt lat="43.155575" lon="2.324265"><ele>145.0</ele><time>2026-03-30T06:25:39.69Z</time></trkpt><trkpt lat="43.1555033" lon="2.324105"><ele>145.0</ele><time>2026-03-30T06:25:40.685Z</time></trkpt><trkpt lat="43.1554333" lon="2.3239583"><ele>145.0</ele><time>2026-03-30T06:25:41.686Z</time></trkpt><trkpt lat="43.155365" lon="2.3238317"><ele>145.0</ele><time>2026-03-30T06:25:42.685Z</time></trkpt><trkpt lat="43.1552983" lon="2.3237133"><ele>145.0</ele><time>2026-03-30T06:25:43.686Z</time></trkpt><trkpt lat="43.1552383" lon="2.3235917"><ele>145.0</ele><time>2026-03-30T06:25:44.686Z</time></trkpt><trkpt lat="43.155195" lon="2.32346"><ele>145.0</ele><time>2026-03-30T06:25:45.688Z</time></trkpt><trkpt lat="43.1551617" lon="2.3233117"><ele>145.0</ele><time>2026-03-30T06:25:46.688Z</time></trkpt><trkpt lat="43.15514" lon="2.3231467"><ele>144.75</ele><time>2026-03-30T06:25:47.686Z</time></trkpt><trkpt lat="43.1551317" lon="2.3229817"><ele>144.5</ele><time>2026-03-30T06:25:48.686Z</time></trkpt><trkpt lat="43.1551333" lon="2.322825"><ele>144.25</ele><time>2026-03-30T06:25:49.685Z</time></trkpt><trkpt lat="43.15514" lon="2.32267"><ele>144.0</ele><time>2026-03-30T06:25:50.685Z</time></trkpt><trkpt lat="43.155135" lon="2.3225117"><ele>144.0</ele><time>2026-03-30T06:25:51.685Z</time></trkpt><trkpt lat="43.1551217" lon="2.3223617"><ele>144.0</ele><time>2026-03-30T06:25:52.685Z</time></trkpt><trkpt lat="43.1551117" lon="2.3222117"><ele>144.0</ele><time>2026-03-30T06:25:53.685Z</time></trkpt><trkpt lat="43.1550983" lon="2.3220667"><ele>144.0</ele><time>2026-03-30T06:25:54.689Z</time></trkpt><trkpt lat="43.15508" lon="2.3219333"><ele>144.0</ele><time>2026-03-30T06:25:55.685Z</time></trkpt><trkpt lat="43.1550583" lon="2.3218033"><ele>143.5</ele><time>2026-03-30T06:25:56.686Z</time></trkpt><trkpt lat="43.15504" lon="2.3216733"><ele>143.0</ele><time>2026-03-30T06:25:57.687Z</time></trkpt><trkpt lat="43.1550183" lon="2.3215467"><ele>142.5</ele><time>2026-03-30T06:25:58.685Z</time></trkpt><trkpt lat="43.154995" lon="2.3214333"><ele>142.0</ele><time>2026-03-30T06:25:59.685Z</time></trkpt><trkpt lat="43.1549667" lon="2.32132"><ele>141.5</ele><time>2026-03-30T06:26:00.685Z</time></trkpt><trkpt lat="43.1549433" lon="2.3212167"><ele>141.0</ele><time>2026-03-30T06:26:01.685Z</time></trkpt><trkpt lat="43.1549183" lon="2.32112"><ele>140.66666666666666</ele><time>2026-03-30T06:26:02.686Z</time></trkpt><trkpt lat="43.1548967" lon="2.321025"><ele>140.33333333333334</ele><time>2026-03-30T06:26:03.685Z</time></trkpt><trkpt lat="43.154885" lon="2.3209217"><ele>140.0</ele><time>2026-03-30T06:26:04.687Z</time></trkpt><trkpt lat="43.154885" lon="2.320815"><ele>139.66666666666669</ele><time>2026-03-30T06:26:05.689Z</time></trkpt><trkpt lat="43.154895" lon="2.3207033"><ele>139.33333333333334</ele><time>2026-03-30T06:26:06.689Z</time></trkpt><trkpt lat="43.1549083" lon="2.3205883"><ele>139.0</ele><time>2026-03-30T06:26:07.685Z</time></trkpt><trkpt lat="43.1549283" lon="2.3204733"><ele>138.6</ele><time>2026-03-30T06:26:08.685Z</time></trkpt><trkpt lat="43.1549517" lon="2.3203567"><ele>138.2</ele><time>2026-03-30T06:26:09.685Z</time></trkpt><trkpt lat="43.154975" lon="2.32023"><ele>137.79999999999998</ele><time>2026-03-30T06:26:10.687Z</time></trkpt><trkpt lat="43.1549967" lon="2.3201017"><ele>137.4</ele><time>2026-03-30T06:26:11.684Z</time></trkpt><trkpt lat="43.1550183" lon="2.31997"><ele>137.0</ele><time>2026-03-30T06:26:12.685Z</time></trkpt><trkpt lat="43.1550333" lon="2.3198383"><ele>136.66666666666666</ele><time>2026-03-30T06:26:13.684Z</time></trkpt><trkpt lat="43.1550483" lon="2.3197133"><ele>136.33333333333331</ele><time>2026-03-30T06:26:14.686Z</time></trkpt><trkpt lat="43.15506" lon="2.3195933"><ele>136.0</ele><time>2026-03-30T06:26:15.685Z</time></trkpt><trkpt lat="43.1550633" lon="2.31947"><ele>135.66666666666666</ele><time>2026-03-30T06:26:16.684Z</time></trkpt><trkpt lat="43.1550633" lon="2.3193467"><ele>135.33333333333334</ele><time>2026-03-30T06:26:17.685Z</time></trkpt><trkpt lat="43.1550583" lon="2.3192267"><ele>135.0</ele><time>2026-03-30T06:26:18.687Z</time></trkpt><trkpt lat="43.1550517" lon="2.3191233"><ele>135.0</ele><time>2026-03-30T06:26:19.685Z</time></trkpt><trkpt lat="43.1550383" lon="2.319025"><ele>135.0</ele><time>2026-03-30T06:26:20.687Z</time></trkpt><trkpt lat="43.1550183" lon="2.31893"><ele>135.0</ele><time>2026-03-30T06:26:21.685Z</time></trkpt><trkpt lat="43.1549817" lon="2.31878"><ele>135.0</ele><time>2026-03-30T06:26:23.686Z</time></trkpt><trkpt lat="43.15495" lon="2.318685"><ele>135.0</ele><time>2026-03-30T06:26:25.686Z</time></trkpt><trkpt lat="43.1548817" lon="2.3186067"><ele>135.0</ele><time>2026-03-30T06:26:30.685Z</time></trkpt><trkpt lat="43.1547617" lon="2.31861"><ele>133.8</ele><time>2026-03-30T06:26:32.686Z</time></trkpt><trkpt lat="43.1546867" lon="2.3186383"><ele>132.6</ele><time>2026-03-30T06:26:33.688Z</time></trkpt><trkpt lat="43.1546" lon="2.3186817"><ele>131.4</ele><time>2026-03-30T06:26:34.688Z</time></trkpt><trkpt lat="43.15451" lon="2.318735"><ele>130.2</ele><time>2026-03-30T06:26:35.687Z</time></trkpt><trkpt lat="43.1544217" lon="2.3188"><ele>129.0</ele><time>2026-03-30T06:26:36.688Z</time></trkpt><trkpt lat="43.1543283" lon="2.3188817"><ele>129.25</ele><time>2026-03-30T06:26:37.689Z</time></trkpt><trkpt lat="43.1542317" lon="2.3189783"><ele>129.5</ele><time>2026-03-30T06:26:38.686Z</time></trkpt><trkpt lat="43.1541383" lon="2.319075"><ele>129.75</ele><time>2026-03-30T06:26:39.686Z</time></trkpt><trkpt lat="43.1540417" lon="2.31917"><ele>130.0</ele><time>2026-03-30T06:26:40.687Z</time></trkpt><trkpt lat="43.153935" lon="2.3192717"><ele>130.0</ele><time>2026-03-30T06:26:41.687Z</time></trkpt><trkpt lat="43.153825" lon="2.3193767"><ele>130.0</ele><time>2026-03-30T06:26:42.687Z</time></trkpt><trkpt lat="43.1537133" lon="2.3194733"><ele>130.0</ele><time>2026-03-30T06:26:43.685Z</time></trkpt><trkpt lat="43.1535983" lon="2.319565"><ele>130.0</ele><time>2026-03-30T06:26:44.686Z</time></trkpt><trkpt lat="43.1534817" lon="2.3196517"><ele>130.0</ele><time>2026-03-30T06:26:45.693Z</time></trkpt><trkpt lat="43.1533583" lon="2.3197367"><ele>130.0</ele><time>2026-03-30T06:26:46.686Z</time></trkpt><trkpt lat="43.1532333" lon="2.3198183"><ele>130.0</ele><time>2026-03-30T06:26:47.685Z</time></trkpt><trkpt lat="43.1531017" lon="2.3198967"><ele>130.0</ele><time>2026-03-30T06:26:48.687Z</time></trkpt><trkpt lat="43.15297" lon="2.3199667"><ele>130.0</ele><time>2026-03-30T06:26:49.687Z</time></trkpt><trkpt lat="43.1528333" lon="2.3200317"><ele>130.0</ele><time>2026-03-30T06:26:50.686Z</time></trkpt><trkpt lat="43.1526967" lon="2.3200883"><ele>130.0</ele><time>2026-03-30T06:26:51.684Z</time></trkpt><trkpt lat="43.1525583" lon="2.320145"><ele>130.0</ele><time>2026-03-30T06:26:52.686Z</time></trkpt><trkpt lat="43.1524217" lon="2.3201983"><ele>130.0</ele><time>2026-03-30T06:26:53.687Z</time></trkpt><trkpt lat="43.1522817" lon="2.320245"><ele>130.0</ele><time>2026-03-30T06:26:54.688Z</time></trkpt><trkpt lat="43.1521417" lon="2.320285"><ele>130.0</ele><time>2026-03-30T06:26:55.685Z</time></trkpt><trkpt lat="43.1520017" lon="2.3203167"><ele>130.0</ele><time>2026-03-30T06:26:56.687Z</time></trkpt><trkpt lat="43.15186" lon="2.3203367"><ele>130.0</ele><time>2026-03-30T06:26:57.686Z</time></trkpt><trkpt lat="43.15172" lon="2.32035"><ele>130.0</ele><time>2026-03-30T06:26:58.686Z</time></trkpt><trkpt lat="43.15158" lon="2.32036"><ele>130.0</ele><time>2026-03-30T06:26:59.687Z</time></trkpt><trkpt lat="43.15144" lon="2.3203667"><ele>130.0</ele><time>2026-03-30T06:27:00.687Z</time></trkpt><trkpt lat="43.1513" lon="2.32037"><ele>130.5</ele><time>2026-03-30T06:27:01.685Z</time></trkpt><trkpt lat="43.1511617" lon="2.3203683"><ele>131.0</ele><time>2026-03-30T06:27:02.687Z</time></trkpt><trkpt lat="43.1510267" lon="2.3203583"><ele>131.5</ele><time>2026-03-30T06:27:03.684Z</time></trkpt><trkpt lat="43.1509017" lon="2.320345"><ele>132.0</ele><time>2026-03-30T06:27:04.685Z</time></trkpt><trkpt lat="43.1507867" lon="2.3203317"><ele>131.79999999999998</ele><time>2026-03-30T06:27:05.685Z</time></trkpt><trkpt lat="43.1506783" lon="2.3203133"><ele>131.6</ele><time>2026-03-30T06:27:06.686Z</time></trkpt><trkpt lat="43.1505767" lon="2.320295"><ele>131.39999999999998</ele><time>2026-03-30T06:27:07.686Z</time></trkpt><trkpt lat="43.150485" lon="2.320265"><ele>131.2</ele><time>2026-03-30T06:27:08.685Z</time></trkpt><trkpt lat="43.1503983" lon="2.32024"><ele>131.0</ele><time>2026-03-30T06:27:09.685Z</time></trkpt><trkpt lat="43.1503067" lon="2.320225"><ele>131.0</ele><time>2026-03-30T06:27:10.685Z</time></trkpt><trkpt lat="43.1502133" lon="2.320205"><ele>131.0</ele><time>2026-03-30T06:27:11.684Z</time></trkpt><trkpt lat="43.1501183" lon="2.3201783"><ele>131.0</ele><time>2026-03-30T06:27:12.684Z</time></trkpt><trkpt lat="43.1500233" lon="2.320145"><ele>131.0</ele><time>2026-03-30T06:27:13.686Z</time></trkpt><trkpt lat="43.1499233" lon="2.3201183"><ele>131.0</ele><time>2026-03-30T06:27:14.686Z</time></trkpt><trkpt lat="43.1498217" lon="2.32011"><ele>131.0</ele><time>2026-03-30T06:27:15.686Z</time></trkpt><trkpt lat="43.1497183" lon="2.3201167"><ele>131.0</ele><time>2026-03-30T06:27:16.684Z</time></trkpt><trkpt lat="43.149615" lon="2.3201367"><ele>131.0</ele><time>2026-03-30T06:27:17.686Z</time></trkpt><trkpt lat="43.14951" lon="2.3201683"><ele>131.0</ele><time>2026-03-30T06:27:18.685Z</time></trkpt><trkpt lat="43.1494033" lon="2.3202117"><ele>131.0</ele><time>2026-03-30T06:27:19.685Z</time></trkpt><trkpt lat="43.1492967" lon="2.3202683"><ele>131.0</ele><time>2026-03-30T06:27:20.685Z</time></trkpt><trkpt lat="43.1491933" lon="2.3203483"><ele>131.0</ele><time>2026-03-30T06:27:21.685Z</time></trkpt><trkpt lat="43.1491033" lon="2.3204533"><ele>131.0</ele><time>2026-03-30T06:27:22.685Z</time></trkpt><trkpt lat="43.149025" lon="2.3205817"><ele>131.0</ele><time>2026-03-30T06:27:23.685Z</time></trkpt><trkpt lat="43.1489617" lon="2.3207217"><ele>131.0</ele><time>2026-03-30T06:27:24.686Z</time></trkpt><trkpt lat="43.1489133" lon="2.32087"><ele>131.0</ele><time>2026-03-30T06:27:25.688Z</time></trkpt><trkpt lat="43.1488683" lon="2.3210167"><ele>131.0</ele><time>2026-03-30T06:27:26.686Z</time></trkpt><trkpt lat="43.1488233" lon="2.3211583"><ele>131.0</ele><time>2026-03-30T06:27:27.685Z</time></trkpt><trkpt lat="43.14878" lon="2.3212833"><ele>131.0</ele><time>2026-03-30T06:27:28.684Z</time></trkpt><trkpt lat="43.1487367" lon="2.3213867"><ele>131.66666666666666</ele><time>2026-03-30T06:27:29.686Z</time></trkpt><trkpt lat="43.1487017" lon="2.321465"><ele>132.33333333333331</ele><time>2026-03-30T06:27:30.684Z</time></trkpt><trkpt lat="43.1486533" lon="2.3215383"><ele>133.0</ele><time>2026-03-30T06:27:39.686Z</time></trkpt><trkpt lat="43.14859" lon="2.3216667"><ele>133.66666666666666</ele><time>2026-03-30T06:27:41.685Z</time></trkpt><trkpt lat="43.148535" lon="2.3217583"><ele>134.33333333333334</ele><time>2026-03-30T06:27:42.684Z</time></trkpt><trkpt lat="43.14848" lon="2.3218533"><ele>135.0</ele><time>2026-03-30T06:27:43.685Z</time></trkpt><trkpt lat="43.1484167" lon="2.321945"><ele>135.0</ele><time>2026-03-30T06:27:44.686Z</time></trkpt><trkpt lat="43.148355" lon="2.3220217"><ele>135.0</ele><time>2026-03-30T06:27:45.685Z</time></trkpt><trkpt lat="43.1482783" lon="2.3220883"><ele>135.0</ele><time>2026-03-30T06:27:46.685Z</time></trkpt><trkpt lat="43.1481983" lon="2.3221467"><ele>135.0</ele><time>2026-03-30T06:27:47.685Z</time></trkpt><trkpt lat="43.1481133" lon="2.3221967"><ele>135.0</ele><time>2026-03-30T06:27:48.687Z</time></trkpt><trkpt lat="43.1480267" lon="2.32224"><ele>135.0</ele><time>2026-03-30T06:27:49.686Z</time></trkpt><trkpt lat="43.1479417" lon="2.3222817"><ele>135.6</ele><time>2026-03-30T06:27:50.687Z</time></trkpt><trkpt lat="43.147855" lon="2.3223167"><ele>136.2</ele><time>2026-03-30T06:27:51.686Z</time></trkpt><trkpt lat="43.147765" lon="2.3223483"><ele>136.8</ele><time>2026-03-30T06:27:52.686Z</time></trkpt><trkpt lat="43.14767" lon="2.3223867"><ele>137.4</ele><time>2026-03-30T06:27:53.692Z</time></trkpt><trkpt lat="43.1475733" lon="2.322425"><ele>138.0</ele><time>2026-03-30T06:27:54.686Z</time></trkpt><trkpt lat="43.1474783" lon="2.3224533"><ele>138.0</ele><time>2026-03-30T06:27:55.685Z</time></trkpt><trkpt lat="43.147385" lon="2.322475"><ele>138.0</ele><time>2026-03-30T06:27:56.689Z</time></trkpt><trkpt lat="43.1473" lon="2.322465"><ele>138.0</ele><time>2026-03-30T06:27:57.686Z</time></trkpt><trkpt lat="43.1472167" lon="2.32244"><ele>138.0</ele><time>2026-03-30T06:27:58.686Z</time></trkpt><trkpt lat="43.1471317" lon="2.322415"><ele>138.0</ele><time>2026-03-30T06:27:59.686Z</time></trkpt><trkpt lat="43.1470433" lon="2.3224017"><ele>138.0</ele><time>2026-03-30T06:28:00.684Z</time></trkpt><trkpt lat="43.146955" lon="2.3223983"><ele>137.4</ele><time>2026-03-30T06:28:01.687Z</time></trkpt><trkpt lat="43.146865" lon="2.3224017"><ele>136.8</ele><time>2026-03-30T06:28:02.688Z</time></trkpt><trkpt lat="43.14678" lon="2.3224517"><ele>136.2</ele><time>2026-03-30T06:28:03.688Z</time></trkpt><trkpt lat="43.1467" lon="2.3225167"><ele>135.6</ele><time>2026-03-30T06:28:04.684Z</time></trkpt><trkpt lat="43.1466183" lon="2.322595"><ele>135.0</ele><time>2026-03-30T06:28:05.686Z</time></trkpt><trkpt lat="43.146535" lon="2.3226683"><ele>135.2</ele><time>2026-03-30T06:28:06.686Z</time></trkpt><trkpt lat="43.146455" lon="2.3227483"><ele>135.4</ele><time>2026-03-30T06:28:07.685Z</time></trkpt><trkpt lat="43.1463783" lon="2.3228367"><ele>135.6</ele><time>2026-03-30T06:28:08.687Z</time></trkpt><trkpt lat="43.1463033" lon="2.32292"><ele>135.8</ele><time>2026-03-30T06:28:09.688Z</time></trkpt><trkpt lat="43.1462283" lon="2.323005"><ele>136.0</ele><time>2026-03-30T06:28:10.685Z</time></trkpt><trkpt lat="43.1461517" lon="2.3230867"><ele>136.0</ele><time>2026-03-30T06:28:11.684Z</time></trkpt><trkpt lat="43.1460767" lon="2.323165"><ele>136.0</ele><time>2026-03-30T06:28:12.687Z</time></trkpt><trkpt lat="43.145995" lon="2.323245"><ele>136.0</ele><time>2026-03-30T06:28:13.686Z</time></trkpt><trkpt lat="43.145915" lon="2.3233283"><ele>136.0</ele><time>2026-03-30T06:28:14.685Z</time></trkpt><trkpt lat="43.145835" lon="2.323405"><ele>136.0</ele><time>2026-03-30T06:28:15.686Z</time></trkpt><trkpt lat="43.1457617" lon="2.32348"><ele>135.33333333333334</ele><time>2026-03-30T06:28:16.685Z</time></trkpt><trkpt lat="43.1456967" lon="2.3235483"><ele>134.66666666666669</ele><time>2026-03-30T06:28:17.685Z</time></trkpt><trkpt lat="43.1456333" lon="2.3236067"><ele>134.0</ele><time>2026-03-30T06:28:18.686Z</time></trkpt><trkpt lat="43.1455767" lon="2.3236583"><ele>133.33333333333334</ele><time>2026-03-30T06:28:19.688Z</time></trkpt><trkpt lat="43.1454783" lon="2.32372"><ele>132.66666666666666</ele><time>2026-03-30T06:28:21.686Z</time></trkpt><trkpt lat="43.1453833" lon="2.3236933"><ele>132.0</ele><time>2026-03-30T06:28:23.686Z</time></trkpt><trkpt lat="43.145345" lon="2.3236183"><ele>132.0</ele><time>2026-03-30T06:28:24.686Z</time></trkpt><trkpt lat="43.145315" lon="2.3235083"><ele>132.0</ele><time>2026-03-30T06:28:25.685Z</time></trkpt><trkpt lat="43.145265" lon="2.323415"><ele>132.0</ele><time>2026-03-30T06:28:26.688Z</time></trkpt><trkpt lat="43.1452117" lon="2.3233217"><ele>132.0</ele><time>2026-03-30T06:28:27.686Z</time></trkpt><trkpt lat="43.145155" lon="2.32323"><ele>132.0</ele><time>2026-03-30T06:28:28.686Z</time></trkpt><trkpt lat="43.1450983" lon="2.3231367"><ele>132.0</ele><time>2026-03-30T06:28:29.686Z</time></trkpt><trkpt lat="43.145045" lon="2.32305"><ele>131.83333333333334</ele><time>2026-03-30T06:28:30.686Z</time></trkpt><trkpt lat="43.1449933" lon="2.3229567"><ele>131.66666666666666</ele><time>2026-03-30T06:28:31.686Z</time></trkpt><trkpt lat="43.1449433" lon="2.3228767"><ele>131.5</ele><time>2026-03-30T06:28:32.686Z</time></trkpt><trkpt lat="43.1448967" lon="2.3228167"><ele>131.33333333333331</ele><time>2026-03-30T06:28:33.686Z</time></trkpt><trkpt lat="43.1448333" lon="2.32278"><ele>131.16666666666666</ele><time>2026-03-30T06:28:34.687Z</time></trkpt><trkpt lat="43.14475" lon="2.3227633"><ele>131.0</ele><time>2026-03-30T06:28:35.686Z</time></trkpt><trkpt lat="43.144655" lon="2.322765"><ele>131.0</ele><time>2026-03-30T06:28:36.686Z</time></trkpt><trkpt lat="43.1445483" lon="2.3227717"><ele>131.0</ele><time>2026-03-30T06:28:37.687Z</time></trkpt><trkpt lat="43.144435" lon="2.322775"><ele>131.0</ele><time>2026-03-30T06:28:38.688Z</time></trkpt><trkpt lat="43.14432" lon="2.322765"><ele>131.0</ele><time>2026-03-30T06:28:39.686Z</time></trkpt><trkpt lat="43.1442033" lon="2.3227533"><ele>131.0</ele><time>2026-03-30T06:28:40.686Z</time></trkpt><trkpt lat="43.1440833" lon="2.3227417"><ele>131.0</ele><time>2026-03-30T06:28:41.687Z</time></trkpt><trkpt lat="43.1439583" lon="2.3227317"><ele>131.0</ele><time>2026-03-30T06:28:42.685Z</time></trkpt><trkpt lat="43.1438267" lon="2.3227233"><ele>131.0</ele><time>2026-03-30T06:28:43.688Z</time></trkpt><trkpt lat="43.1436917" lon="2.3227117"><ele>131.5</ele><time>2026-03-30T06:28:44.689Z</time></trkpt><trkpt lat="43.1435533" lon="2.3227017"><ele>132.0</ele><time>2026-03-30T06:28:45.686Z</time></trkpt><trkpt lat="43.1434167" lon="2.3226917"><ele>132.5</ele><time>2026-03-30T06:28:46.686Z</time></trkpt><trkpt lat="43.1432883" lon="2.3226833"><ele>133.0</ele><time>2026-03-30T06:28:47.69Z</time></trkpt><trkpt lat="43.14317" lon="2.3226767"><ele>133.4</ele><time>2026-03-30T06:28:48.685Z</time></trkpt><trkpt lat="43.1430567" lon="2.3226683"><ele>133.8</ele><time>2026-03-30T06:28:49.688Z</time></trkpt><trkpt lat="43.142955" lon="2.3226617"><ele>134.2</ele><time>2026-03-30T06:28:50.686Z</time></trkpt><trkpt lat="43.1428617" lon="2.322655"><ele>134.6</ele><time>2026-03-30T06:28:51.685Z</time></trkpt><trkpt lat="43.14278" lon="2.3226467"><ele>135.0</ele><time>2026-03-30T06:28:52.686Z</time></trkpt><trkpt lat="43.14271" lon="2.322625"><ele>135.0</ele><time>2026-03-30T06:28:53.687Z</time></trkpt><trkpt lat="43.1426467" lon="2.3224967"><ele>135.0</ele><time>2026-03-30T06:28:55.686Z</time></trkpt><trkpt lat="43.1426583" lon="2.3223967"><ele>135.0</ele><time>2026-03-30T06:28:56.686Z</time></trkpt><trkpt lat="43.1426633" lon="2.3223083"><ele>135.0</ele><time>2026-03-30T06:28:57.686Z</time></trkpt><trkpt lat="43.1426583" lon="2.3222067"><ele>135.0</ele><time>2026-03-30T06:28:58.685Z</time></trkpt><trkpt lat="43.1426317" lon="2.3221217"><ele>135.0</ele><time>2026-03-30T06:28:59.687Z</time></trkpt><trkpt lat="43.1425983" lon="2.3220467"><ele>135.66666666666666</ele><time>2026-03-30T06:29:00.688Z</time></trkpt><trkpt lat="43.1425567" lon="2.3219783"><ele>136.33333333333334</ele><time>2026-03-30T06:29:01.686Z</time></trkpt><trkpt lat="43.1425033" lon="2.32193"><ele>137.0</ele><time>2026-03-30T06:29:02.687Z</time></trkpt><trkpt lat="43.1423767" lon="2.321935"><ele>137.66666666666669</ele><time>2026-03-30T06:29:04.686Z</time></trkpt><trkpt lat="43.142305" lon="2.3219683"><ele>138.33333333333334</ele><time>2026-03-30T06:29:05.686Z</time></trkpt><trkpt lat="43.142235" lon="2.322015"><ele>139.0</ele><time>2026-03-30T06:29:06.686Z</time></trkpt><trkpt lat="43.1421717" lon="2.322065"><ele>138.4</ele><time>2026-03-30T06:29:07.688Z</time></trkpt><trkpt lat="43.1421083" lon="2.322115"><ele>137.8</ele><time>2026-03-30T06:29:08.688Z</time></trkpt><trkpt lat="43.1420117" lon="2.3221733"><ele>137.2</ele><time>2026-03-30T06:29:10.686Z</time></trkpt><trkpt lat="43.1419383" lon="2.3222617"><ele>136.6</ele><time>2026-03-30T06:29:31.69Z</time></trkpt><trkpt lat="43.141815" lon="2.3223333"><ele>136.0</ele><time>2026-03-30T06:29:33.686Z</time></trkpt><trkpt lat="43.141735" lon="2.32238"><ele>136.0</ele><time>2026-03-30T06:29:34.685Z</time></trkpt><trkpt lat="43.14165" lon="2.3224317"><ele>136.0</ele><time>2026-03-30T06:29:35.686Z</time></trkpt><trkpt lat="43.141555" lon="2.3224833"><ele>136.0</ele><time>2026-03-30T06:29:36.685Z</time></trkpt><trkpt lat="43.1414533" lon="2.32253"><ele>136.0</ele><time>2026-03-30T06:29:37.686Z</time></trkpt><trkpt lat="43.141345" lon="2.322575"><ele>136.0</ele><time>2026-03-30T06:29:38.689Z</time></trkpt><trkpt lat="43.1412333" lon="2.322615"><ele>136.0</ele><time>2026-03-30T06:29:39.686Z</time></trkpt><trkpt lat="43.1411217" lon="2.32265"><ele>136.0</ele><time>2026-03-30T06:29:40.687Z</time></trkpt><trkpt lat="43.1410083" lon="2.3226767"><ele>136.0</ele><time>2026-03-30T06:29:41.686Z</time></trkpt><trkpt lat="43.1408917" lon="2.32269"><ele>136.0</ele><time>2026-03-30T06:29:42.685Z</time></trkpt><trkpt lat="43.1407717" lon="2.32269"><ele>135.75</ele><time>2026-03-30T06:29:43.686Z</time></trkpt><trkpt lat="43.140645" lon="2.3226833"><ele>135.5</ele><time>2026-03-30T06:29:44.688Z</time></trkpt><trkpt lat="43.140515" lon="2.3226733"><ele>135.25</ele><time>2026-03-30T06:29:45.686Z</time></trkpt><trkpt lat="43.1403833" lon="2.32266"><ele>135.0</ele><time>2026-03-30T06:29:46.685Z</time></trkpt><trkpt lat="43.14025" lon="2.3226433"><ele>135.0</ele><time>2026-03-30T06:29:47.685Z</time></trkpt><trkpt lat="43.1401167" lon="2.3226233"><ele>135.0</ele><time>2026-03-30T06:29:48.687Z</time></trkpt><trkpt lat="43.1399817" lon="2.322595"><ele>135.0</ele><time>2026-03-30T06:29:49.687Z</time></trkpt><trkpt lat="43.1398483" lon="2.3225567"><ele>135.0</ele><time>2026-03-30T06:29:50.685Z</time></trkpt><trkpt lat="43.1397167" lon="2.3225083"><ele>134.75</ele><time>2026-03-30T06:29:51.687Z</time></trkpt><trkpt lat="43.1395833" lon="2.3224517"><ele>134.5</ele><time>2026-03-30T06:29:52.691Z</time></trkpt><trkpt lat="43.13945" lon="2.3223867"><ele>134.25</ele><time>2026-03-30T06:29:53.687Z</time></trkpt><trkpt lat="43.1393167" lon="2.3223183"><ele>134.0</ele><time>2026-03-30T06:29:54.686Z</time></trkpt><trkpt lat="43.1391833" lon="2.322245"><ele>134.75</ele><time>2026-03-30T06:29:55.692Z</time></trkpt><trkpt lat="43.13905" lon="2.3221683"><ele>135.5</ele><time>2026-03-30T06:29:56.686Z</time></trkpt><trkpt lat="43.1389167" lon="2.322095"><ele>136.25</ele><time>2026-03-30T06:29:57.685Z</time></trkpt><trkpt lat="43.1387817" lon="2.322025"><ele>137.0</ele><time>2026-03-30T06:29:58.685Z</time></trkpt><trkpt lat="43.138645" lon="2.3219533"><ele>137.0</ele><time>2026-03-30T06:29:59.686Z</time></trkpt><trkpt lat="43.13851" lon="2.3218817"><ele>137.0</ele><time>2026-03-30T06:30:00.687Z</time></trkpt><trkpt lat="43.1383717" lon="2.3218117"><ele>137.0</ele><time>2026-03-30T06:30:01.686Z</time></trkpt><trkpt lat="43.13823" lon="2.3217383"><ele>137.0</ele><time>2026-03-30T06:30:02.687Z</time></trkpt><trkpt lat="43.13809" lon="2.321665"><ele>137.0</ele><time>2026-03-30T06:30:03.686Z</time></trkpt><trkpt lat="43.1379483" lon="2.3215933"><ele>137.0</ele><time>2026-03-30T06:30:04.685Z</time></trkpt><trkpt lat="43.1378067" lon="2.3215217"><ele>137.0</ele><time>2026-03-30T06:30:05.688Z</time></trkpt><trkpt lat="43.1376667" lon="2.3214467"><ele>138.33333333333331</ele><time>2026-03-30T06:30:06.686Z</time></trkpt><trkpt lat="43.1375267" lon="2.3213683"><ele>139.66666666666666</ele><time>2026-03-30T06:30:07.686Z</time></trkpt><trkpt lat="43.1373867" lon="2.3212867"><ele>141.0</ele><time>2026-03-30T06:30:08.687Z</time></trkpt><trkpt lat="43.1372467" lon="2.32121"><ele>141.0</ele><time>2026-03-30T06:30:09.688Z</time></trkpt><trkpt lat="43.1371083" lon="2.3211317"><ele>141.0</ele><time>2026-03-30T06:30:10.687Z</time></trkpt><trkpt lat="43.1369683" lon="2.3210583"><ele>141.0</ele><time>2026-03-30T06:30:11.691Z</time></trkpt><trkpt lat="43.1368317" lon="2.32098"><ele>141.0</ele><time>2026-03-30T06:30:12.687Z</time></trkpt><trkpt lat="43.1366917" lon="2.3209033"><ele>139.0</ele><time>2026-03-30T06:30:13.687Z</time></trkpt><trkpt lat="43.1365517" lon="2.3208283"><ele>137.0</ele><time>2026-03-30T06:30:14.687Z</time></trkpt><trkpt lat="43.1364117" lon="2.32075"><ele>135.0</ele><time>2026-03-30T06:30:15.685Z</time></trkpt><trkpt lat="43.1362683" lon="2.3206783"><ele>135.0</ele><time>2026-03-30T06:30:16.687Z</time></trkpt><trkpt lat="43.136125" lon="2.3206117"><ele>135.0</ele><time>2026-03-30T06:30:17.687Z</time></trkpt><trkpt lat="43.1359833" lon="2.320545"><ele>135.0</ele><time>2026-03-30T06:30:18.685Z</time></trkpt><trkpt lat="43.135845" lon="2.3204717"><ele>135.0</ele><time>2026-03-30T06:30:19.686Z</time></trkpt><trkpt lat="43.1357083" lon="2.3203967"><ele>136.25</ele><time>2026-03-30T06:30:20.686Z</time></trkpt><trkpt lat="43.1355733" lon="2.320315"><ele>137.5</ele><time>2026-03-30T06:30:21.685Z</time></trkpt><trkpt lat="43.1354367" lon="2.3202417"><ele>138.75</ele><time>2026-03-30T06:30:22.686Z</time></trkpt><trkpt lat="43.1353017" lon="2.3201717"><ele>140.0</ele><time>2026-03-30T06:30:23.685Z</time></trkpt><trkpt lat="43.135165" lon="2.3201217"><ele>140.0</ele><time>2026-03-30T06:30:24.689Z</time></trkpt><trkpt lat="43.135025" lon="2.320075"><ele>140.0</ele><time>2026-03-30T06:30:25.686Z</time></trkpt><trkpt lat="43.1348817" lon="2.3200433"><ele>140.0</ele><time>2026-03-30T06:30:26.687Z</time></trkpt><trkpt lat="43.1347333" lon="2.32004"><ele>140.0</ele><time>2026-03-30T06:30:27.687Z</time></trkpt><trkpt lat="43.1345783" lon="2.3200483"><ele>144.0</ele><time>2026-03-30T06:30:28.686Z</time></trkpt><trkpt lat="43.13442" lon="2.3200733"><ele>148.0</ele><time>2026-03-30T06:30:29.686Z</time></trkpt><trkpt lat="43.13427" lon="2.3201017"><ele>152.0</ele><time>2026-03-30T06:30:30.686Z</time></trkpt><trkpt lat="43.134125" lon="2.32014"><ele>153.0</ele><time>2026-03-30T06:30:31.687Z</time></trkpt><trkpt lat="43.1339883" lon="2.3201783"><ele>154.0</ele><time>2026-03-30T06:30:32.688Z</time></trkpt><trkpt lat="43.1338617" lon="2.3202117"><ele>155.0</ele><time>2026-03-30T06:30:33.687Z</time></trkpt><trkpt lat="43.1337417" lon="2.3202467"><ele>156.0</ele><time>2026-03-30T06:30:34.686Z</time></trkpt><trkpt lat="43.1336183" lon="2.320285"><ele>156.0</ele><time>2026-03-30T06:30:35.686Z</time></trkpt><trkpt lat="43.1334917" lon="2.3203233"><ele>156.0</ele><time>2026-03-30T06:30:36.689Z</time></trkpt><trkpt lat="43.1333667" lon="2.3203583"><ele>156.0</ele><time>2026-03-30T06:30:37.688Z</time></trkpt><trkpt lat="43.1332317" lon="2.3204017"><ele>156.0</ele><time>2026-03-30T06:30:38.687Z</time></trkpt><trkpt lat="43.1330933" lon="2.320435"><ele>153.33333333333334</ele><time>2026-03-30T06:30:39.689Z</time></trkpt><trkpt lat="43.1329433" lon="2.3204733"><ele>150.66666666666669</ele><time>2026-03-30T06:30:40.686Z</time></trkpt><trkpt lat="43.1327933" lon="2.3204983"><ele>148.0</ele><time>2026-03-30T06:30:41.686Z</time></trkpt><trkpt lat="43.132645" lon="2.32052"><ele>148.0</ele><time>2026-03-30T06:30:42.687Z</time></trkpt><trkpt lat="43.1324967" lon="2.3205433"><ele>148.0</ele><time>2026-03-30T06:30:43.688Z</time></trkpt><trkpt lat="43.1323533" lon="2.3205617"><ele>148.0</ele><time>2026-03-30T06:30:44.687Z</time></trkpt><trkpt lat="43.13221" lon="2.3205783"><ele>148.0</ele><time>2026-03-30T06:30:45.686Z</time></trkpt><trkpt lat="43.1320617" lon="2.32061"><ele>145.33333333333334</ele><time>2026-03-30T06:30:46.687Z</time></trkpt><trkpt lat="43.13191" lon="2.3206483"><ele>142.66666666666666</ele><time>2026-03-30T06:30:47.687Z</time></trkpt><trkpt lat="43.1317517" lon="2.3206917"><ele>140.0</ele><time>2026-03-30T06:30:48.687Z</time></trkpt><trkpt lat="43.1315917" lon="2.3207283"><ele>140.33333333333331</ele><time>2026-03-30T06:30:49.686Z</time></trkpt><trkpt lat="43.131435" lon="2.3207667"><ele>140.66666666666666</ele><time>2026-03-30T06:30:50.687Z</time></trkpt><trkpt lat="43.1312833" lon="2.3208067"><ele>141.0</ele><time>2026-03-30T06:30:51.687Z</time></trkpt><trkpt lat="43.13113" lon="2.3208467"><ele>141.0</ele><time>2026-03-30T06:30:52.686Z</time></trkpt><trkpt lat="43.13098" lon="2.320885"><ele>141.0</ele><time>2026-03-30T06:30:53.686Z</time></trkpt><trkpt lat="43.1308283" lon="2.3209217"><ele>141.0</ele><time>2026-03-30T06:30:54.685Z</time></trkpt><trkpt lat="43.1306817" lon="2.3209567"><ele>141.5</ele><time>2026-03-30T06:30:55.688Z</time></trkpt><trkpt lat="43.1305417" lon="2.3209883"><ele>142.0</ele><time>2026-03-30T06:30:56.687Z</time></trkpt><trkpt lat="43.1304017" lon="2.321025"><ele>142.5</ele><time>2026-03-30T06:30:57.686Z</time></trkpt><trkpt lat="43.1302633" lon="2.3210667"><ele>143.0</ele><time>2026-03-30T06:30:58.686Z</time></trkpt><trkpt lat="43.13013" lon="2.32111"><ele>143.0</ele><time>2026-03-30T06:30:59.687Z</time></trkpt><trkpt lat="43.129995" lon="2.3211633"><ele>143.0</ele><time>2026-03-30T06:31:00.688Z</time></trkpt><trkpt lat="43.1298567" lon="2.3212167"><ele>143.0</ele><time>2026-03-30T06:31:01.689Z</time></trkpt><trkpt lat="43.129715" lon="2.3212717"><ele>143.0</ele><time>2026-03-30T06:31:02.689Z</time></trkpt><trkpt lat="43.1295733" lon="2.3213233"><ele>142.5</ele><time>2026-03-30T06:31:03.686Z</time></trkpt><trkpt lat="43.1294317" lon="2.321375"><ele>142.0</ele><time>2026-03-30T06:31:04.685Z</time></trkpt><trkpt lat="43.12929" lon="2.3214283"><ele>141.5</ele><time>2026-03-30T06:31:05.689Z</time></trkpt><trkpt lat="43.12915" lon="2.3214783"><ele>141.0</ele><time>2026-03-30T06:31:06.686Z</time></trkpt><trkpt lat="43.1290133" lon="2.321525"><ele>141.0</ele><time>2026-03-30T06:31:07.686Z</time></trkpt><trkpt lat="43.12888" lon="2.32156"><ele>141.0</ele><time>2026-03-30T06:31:08.687Z</time></trkpt><trkpt lat="43.128755" lon="2.32158"><ele>141.0</ele><time>2026-03-30T06:31:09.686Z</time></trkpt><trkpt lat="43.1286317" lon="2.32159"><ele>141.0</ele><time>2026-03-30T06:31:10.685Z</time></trkpt><trkpt lat="43.128505" lon="2.3215833"><ele>141.0</ele><time>2026-03-30T06:31:11.688Z</time></trkpt><trkpt lat="43.12838" lon="2.3215633"><ele>141.0</ele><time>2026-03-30T06:31:12.685Z</time></trkpt><trkpt lat="43.1282633" lon="2.3215367"><ele>141.0</ele><time>2026-03-30T06:31:13.684Z</time></trkpt><trkpt lat="43.1281483" lon="2.3215017"><ele>141.0</ele><time>2026-03-30T06:31:14.686Z</time></trkpt><trkpt lat="43.1280367" lon="2.3214583"><ele>141.0</ele><time>2026-03-30T06:31:15.687Z</time></trkpt><trkpt lat="43.1279267" lon="2.3214033"><ele>141.0</ele><time>2026-03-30T06:31:16.686Z</time></trkpt><trkpt lat="43.1278167" lon="2.3213517"><ele>141.0</ele><time>2026-03-30T06:31:17.684Z</time></trkpt><trkpt lat="43.1277033" lon="2.321305"><ele>141.0</ele><time>2026-03-30T06:31:18.685Z</time></trkpt><trkpt lat="43.12759" lon="2.3212567"><ele>141.75</ele><time>2026-03-30T06:31:19.685Z</time></trkpt><trkpt lat="43.1274733" lon="2.3212033"><ele>142.5</ele><time>2026-03-30T06:31:20.686Z</time></trkpt><trkpt lat="43.1273483" lon="2.32115"><ele>143.25</ele><time>2026-03-30T06:31:21.685Z</time></trkpt><trkpt lat="43.12722" lon="2.3210917"><ele>144.0</ele><time>2026-03-30T06:31:22.685Z</time></trkpt><trkpt lat="43.1270983" lon="2.321035"><ele>144.0</ele><time>2026-03-30T06:31:23.687Z</time></trkpt><trkpt lat="43.12698" lon="2.3209817"><ele>144.0</ele><time>2026-03-30T06:31:24.685Z</time></trkpt><trkpt lat="43.1268633" lon="2.3209283"><ele>144.0</ele><time>2026-03-30T06:31:25.686Z</time></trkpt><trkpt lat="43.1267467" lon="2.3208817"><ele>144.0</ele><time>2026-03-30T06:31:26.686Z</time></trkpt><trkpt lat="43.126635" lon="2.320835"><ele>143.8</ele><time>2026-03-30T06:31:27.686Z</time></trkpt><trkpt lat="43.1265217" lon="2.32078"><ele>143.60000000000002</ele><time>2026-03-30T06:31:28.688Z</time></trkpt><trkpt lat="43.1264117" lon="2.3207217"><ele>143.4</ele><time>2026-03-30T06:31:29.69Z</time></trkpt><trkpt lat="43.1263167" lon="2.3206767"><ele>143.20000000000002</ele><time>2026-03-30T06:31:30.687Z</time></trkpt><trkpt lat="43.1262317" lon="2.3206467"><ele>143.0</ele><time>2026-03-30T06:31:31.687Z</time></trkpt><trkpt lat="43.126155" lon="2.320625"><ele>143.0</ele><time>2026-03-30T06:31:32.687Z</time></trkpt><trkpt lat="43.126085" lon="2.3206"><ele>143.0</ele><time>2026-03-30T06:31:33.686Z</time></trkpt><trkpt lat="43.1260117" lon="2.3205833"><ele>143.0</ele><time>2026-03-30T06:31:34.687Z</time></trkpt><trkpt lat="43.1259383" lon="2.3205633"><ele>143.0</ele><time>2026-03-30T06:31:35.686Z</time></trkpt><trkpt lat="43.1258767" lon="2.3205367"><ele>143.0</ele><time>2026-03-30T06:31:36.687Z</time></trkpt><trkpt lat="43.125795" lon="2.3204733"><ele>143.0</ele><time>2026-03-30T06:31:38.686Z</time></trkpt><trkpt lat="43.1257167" lon="2.3204683"><ele>142.83333333333331</ele><time>2026-03-30T06:31:41.686Z</time></trkpt><trkpt lat="43.1257" lon="2.3205867"><ele>142.66666666666666</ele><time>2026-03-30T06:31:46.685Z</time></trkpt><trkpt lat="43.1256083" lon="2.3206133"><ele>142.5</ele><time>2026-03-30T06:31:49.687Z</time></trkpt><trkpt lat="43.1255117" lon="2.3205883"><ele>142.33333333333334</ele><time>2026-03-30T06:31:51.685Z</time></trkpt><trkpt lat="43.1254483" lon="2.3205683"><ele>142.16666666666669</ele><time>2026-03-30T06:31:52.686Z</time></trkpt><trkpt lat="43.1253683" lon="2.3205517"><ele>142.0</ele><time>2026-03-30T06:31:53.686Z</time></trkpt><trkpt lat="43.1252817" lon="2.3205417"><ele>142.0</ele><time>2026-03-30T06:31:54.686Z</time></trkpt><trkpt lat="43.1252" lon="2.320545"><ele>142.0</ele><time>2026-03-30T06:31:55.685Z</time></trkpt><trkpt lat="43.1251167" lon="2.32056"><ele>142.0</ele><time>2026-03-30T06:31:56.688Z</time></trkpt><trkpt lat="43.1250283" lon="2.3205733"><ele>142.0</ele><time>2026-03-30T06:31:57.686Z</time></trkpt><trkpt lat="43.1249317" lon="2.32058"><ele>142.0</ele><time>2026-03-30T06:31:58.687Z</time></trkpt><trkpt lat="43.12483" lon="2.320585"><ele>141.83333333333334</ele><time>2026-03-30T06:31:59.686Z</time></trkpt><trkpt lat="43.1247317" lon="2.32059"><ele>141.66666666666669</ele><time>2026-03-30T06:32:00.686Z</time></trkpt><trkpt lat="43.12464" lon="2.3205967"><ele>141.5</ele><time>2026-03-30T06:32:01.686Z</time></trkpt><trkpt lat="43.12456" lon="2.320615"><ele>141.33333333333334</ele><time>2026-03-30T06:32:02.687Z</time></trkpt><trkpt lat="43.1244833" lon="2.320635"><ele>141.16666666666666</ele><time>2026-03-30T06:32:03.687Z</time></trkpt><trkpt lat="43.1244" lon="2.3206417"><ele>141.0</ele><time>2026-03-30T06:32:04.686Z</time></trkpt><trkpt lat="43.1243033" lon="2.3206467"><ele>141.0</ele><time>2026-03-30T06:32:05.688Z</time></trkpt><trkpt lat="43.1242033" lon="2.32064"><ele>141.0</ele><time>2026-03-30T06:32:06.685Z</time></trkpt><trkpt lat="43.1241033" lon="2.320615"><ele>141.0</ele><time>2026-03-30T06:32:07.687Z</time></trkpt><trkpt lat="43.124" lon="2.3205783"><ele>141.0</ele><time>2026-03-30T06:32:08.686Z</time></trkpt><trkpt lat="43.1239133" lon="2.32053"><ele>141.0</ele><time>2026-03-30T06:32:09.688Z</time></trkpt><trkpt lat="43.1238367" lon="2.3204717"><ele>141.4</ele><time>2026-03-30T06:32:10.686Z</time></trkpt><trkpt lat="43.1237867" lon="2.3204083"><ele>141.8</ele><time>2026-03-30T06:32:11.686Z</time></trkpt><trkpt lat="43.123715" lon="2.3203583"><ele>142.20000000000002</ele><time>2026-03-30T06:32:13.686Z</time></trkpt><trkpt lat="43.1236067" lon="2.3203317"><ele>142.6</ele><time>2026-03-30T06:32:15.685Z</time></trkpt><trkpt lat="43.12353" lon="2.32026"><ele>143.0</ele><time>2026-03-30T06:32:16.684Z</time></trkpt><trkpt lat="43.123435" lon="2.3201533"><ele>143.0</ele><time>2026-03-30T06:32:17.686Z</time></trkpt><trkpt lat="43.1233333" lon="2.3200467"><ele>143.0</ele><time>2026-03-30T06:32:18.686Z</time></trkpt><trkpt lat="43.1232383" lon="2.3199267"><ele>143.0</ele><time>2026-03-30T06:32:19.69Z</time></trkpt><trkpt lat="43.12315" lon="2.319785"><ele>143.0</ele><time>2026-03-30T06:32:20.685Z</time></trkpt><trkpt lat="43.123075" lon="2.31964"><ele>143.25</ele><time>2026-03-30T06:32:21.684Z</time></trkpt><trkpt lat="43.1230167" lon="2.319485"><ele>143.5</ele><time>2026-03-30T06:32:22.688Z</time></trkpt><trkpt lat="43.1229633" lon="2.319315"><ele>143.75</ele><time>2026-03-30T06:32:23.686Z</time></trkpt><trkpt lat="43.1229167" lon="2.3191333"><ele>144.0</ele><time>2026-03-30T06:32:24.688Z</time></trkpt><trkpt lat="43.122885" lon="2.3189283"><ele>143.66666666666666</ele><time>2026-03-30T06:32:25.685Z</time></trkpt><trkpt lat="43.1228583" lon="2.318705"><ele>143.33333333333331</ele><time>2026-03-30T06:32:26.686Z</time></trkpt><trkpt lat="43.1228233" lon="2.3184817"><ele>143.0</ele><time>2026-03-30T06:32:27.684Z</time></trkpt><trkpt lat="43.1227783" lon="2.3182633"><ele>142.33333333333331</ele><time>2026-03-30T06:32:28.685Z</time></trkpt><trkpt lat="43.1227367" lon="2.3180417"><ele>141.66666666666666</ele><time>2026-03-30T06:32:29.685Z</time></trkpt><trkpt lat="43.1226917" lon="2.3178117"><ele>141.0</ele><time>2026-03-30T06:32:30.685Z</time></trkpt><trkpt lat="43.12265" lon="2.317575"><ele>141.0</ele><time>2026-03-30T06:32:31.686Z</time></trkpt><trkpt lat="43.1226083" lon="2.31733"><ele>141.0</ele><time>2026-03-30T06:32:32.688Z</time></trkpt><trkpt lat="43.1225733" lon="2.3170867"><ele>141.0</ele><time>2026-03-30T06:32:33.685Z</time></trkpt><trkpt lat="43.1225367" lon="2.3168483"><ele>141.33333333333334</ele><time>2026-03-30T06:32:34.688Z</time></trkpt><trkpt lat="43.1224967" lon="2.316615"><ele>141.66666666666669</ele><time>2026-03-30T06:32:35.687Z</time></trkpt><trkpt lat="43.1224583" lon="2.3163783"><ele>142.0</ele><time>2026-03-30T06:32:36.689Z</time></trkpt><trkpt lat="43.1224233" lon="2.3161467"><ele>142.33333333333334</ele><time>2026-03-30T06:32:37.687Z</time></trkpt><trkpt lat="43.1223867" lon="2.3159083"><ele>142.66666666666666</ele><time>2026-03-30T06:32:38.688Z</time></trkpt><trkpt lat="43.1223483" lon="2.31567"><ele>143.0</ele><time>2026-03-30T06:32:39.688Z</time></trkpt><trkpt lat="43.12231" lon="2.31543"><ele>143.33333333333331</ele><time>2026-03-30T06:32:40.686Z</time></trkpt><trkpt lat="43.12227" lon="2.3151883"><ele>143.66666666666666</ele><time>2026-03-30T06:32:41.685Z</time></trkpt><trkpt lat="43.1222283" lon="2.3149467"><ele>144.0</ele><time>2026-03-30T06:32:42.684Z</time></trkpt><trkpt lat="43.1221867" lon="2.3147033"><ele>144.0</ele><time>2026-03-30T06:32:43.686Z</time></trkpt><trkpt lat="43.1221417" lon="2.3144633"><ele>144.0</ele><time>2026-03-30T06:32:44.686Z</time></trkpt><trkpt lat="43.1220983" lon="2.314235"><ele>144.0</ele><time>2026-03-30T06:32:45.686Z</time></trkpt><trkpt lat="43.1220567" lon="2.31403"><ele>144.0</ele><time>2026-03-30T06:32:46.686Z</time></trkpt><trkpt lat="43.122015" lon="2.3138433"><ele>144.0</ele><time>2026-03-30T06:32:47.686Z</time></trkpt><trkpt lat="43.1219783" lon="2.3136633"><ele>144.0</ele><time>2026-03-30T06:32:48.685Z</time></trkpt><trkpt lat="43.121955" lon="2.3134817"><ele>144.0</ele><time>2026-03-30T06:32:49.684Z</time></trkpt><trkpt lat="43.1219483" lon="2.313295"><ele>144.0</ele><time>2026-03-30T06:32:50.686Z</time></trkpt><trkpt lat="43.1219583" lon="2.3131033"><ele>144.0</ele><time>2026-03-30T06:32:51.686Z</time></trkpt><trkpt lat="43.1219683" lon="2.31292"><ele>144.0</ele><time>2026-03-30T06:32:52.686Z</time></trkpt><trkpt lat="43.1219683" lon="2.31276"><ele>144.0</ele><time>2026-03-30T06:32:53.684Z</time></trkpt><trkpt lat="43.1219583" lon="2.3126217"><ele>144.16666666666666</ele><time>2026-03-30T06:32:54.69Z</time></trkpt><trkpt lat="43.1219433" lon="2.31251"><ele>144.33333333333334</ele><time>2026-03-30T06:32:55.684Z</time></trkpt><trkpt lat="43.1219267" lon="2.3124183"><ele>144.5</ele><time>2026-03-30T06:32:56.686Z</time></trkpt><trkpt lat="43.1219017" lon="2.31228"><ele>144.66666666666669</ele><time>2026-03-30T06:32:58.685Z</time></trkpt><trkpt lat="43.1218883" lon="2.3121317"><ele>144.83333333333334</ele><time>2026-03-30T06:33:00.689Z</time></trkpt><trkpt lat="43.1218833" lon="2.3120417"><ele>145.0</ele><time>2026-03-30T06:33:01.685Z</time></trkpt><trkpt lat="43.1218683" lon="2.3119417"><ele>145.42857142857144</ele><time>2026-03-30T06:33:02.686Z</time></trkpt><trkpt lat="43.1218533" lon="2.311835"><ele>145.85714285714286</ele><time>2026-03-30T06:33:03.687Z</time></trkpt><trkpt lat="43.1218433" lon="2.3117267"><ele>146.28571428571428</ele><time>2026-03-30T06:33:04.685Z</time></trkpt><trkpt lat="43.1218383" lon="2.3116183"><ele>146.71428571428572</ele><time>2026-03-30T06:33:05.686Z</time></trkpt><trkpt lat="43.1218317" lon="2.311515"><ele>147.14285714285714</ele><time>2026-03-30T06:33:06.684Z</time></trkpt><trkpt lat="43.1218183" lon="2.311425"><ele>147.57142857142858</ele><time>2026-03-30T06:33:07.686Z</time></trkpt><trkpt lat="43.1218" lon="2.311335"><ele>148.0</ele><time>2026-03-30T06:33:08.686Z</time></trkpt><trkpt lat="43.1217517" lon="2.3111717"><ele>148.20000000000002</ele><time>2026-03-30T06:33:10.687Z</time></trkpt><trkpt lat="43.121725" lon="2.3110583"><ele>148.4</ele><time>2026-03-30T06:33:11.685Z</time></trkpt><trkpt lat="43.1216783" lon="2.3109317"><ele>148.60000000000002</ele><time>2026-03-30T06:33:12.686Z</time></trkpt><trkpt lat="43.1216233" lon="2.310805"><ele>148.8</ele><time>2026-03-30T06:33:13.686Z</time></trkpt><trkpt lat="43.1215433" lon="2.3106717"><ele>149.0</ele><time>2026-03-30T06:33:14.685Z</time></trkpt><trkpt lat="43.1214617" lon="2.31056"><ele>150.83333333333331</ele><time>2026-03-30T06:33:15.688Z</time></trkpt><trkpt lat="43.1213833" lon="2.3104617"><ele>152.66666666666666</ele><time>2026-03-30T06:33:16.685Z</time></trkpt><trkpt lat="43.1213117" lon="2.3103817"><ele>154.5</ele><time>2026-03-30T06:33:17.687Z</time></trkpt><trkpt lat="43.1212383" lon="2.3103267"><ele>156.33333333333334</ele><time>2026-03-30T06:33:18.685Z</time></trkpt><trkpt lat="43.1211567" lon="2.3103017"><ele>158.16666666666669</ele><time>2026-03-30T06:33:19.684Z</time></trkpt><trkpt lat="43.121075" lon="2.31031"><ele>160.0</ele><time>2026-03-30T06:33:20.685Z</time></trkpt><trkpt lat="43.1209883" lon="2.3103817"><ele>160.0</ele><time>2026-03-30T06:33:21.685Z</time></trkpt><trkpt lat="43.12089" lon="2.3104983"><ele>160.0</ele><time>2026-03-30T06:33:22.688Z</time></trkpt><trkpt lat="43.1207817" lon="2.3106133"><ele>160.0</ele><time>2026-03-30T06:33:23.685Z</time></trkpt><trkpt lat="43.1206567" lon="2.310725"><ele>160.0</ele><time>2026-03-30T06:33:24.688Z</time></trkpt><trkpt lat="43.1205283" lon="2.3108267"><ele>157.0</ele><time>2026-03-30T06:33:25.685Z</time></trkpt><trkpt lat="43.1203967" lon="2.31092"><ele>154.0</ele><time>2026-03-30T06:33:26.688Z</time></trkpt><trkpt lat="43.1202683" lon="2.3110017"><ele>151.0</ele><time>2026-03-30T06:33:27.686Z</time></trkpt><trkpt lat="43.1201467" lon="2.311085"><ele>148.0</ele><time>2026-03-30T06:33:28.687Z</time></trkpt><trkpt lat="43.1200283" lon="2.311165"><ele>148.0</ele><time>2026-03-30T06:33:29.686Z</time></trkpt><trkpt lat="43.1199083" lon="2.3112383"><ele>148.0</ele><time>2026-03-30T06:33:30.686Z</time></trkpt><trkpt lat="43.1197883" lon="2.3113017"><ele>148.0</ele><time>2026-03-30T06:33:31.685Z</time></trkpt><trkpt lat="43.119665" lon="2.3113533"><ele>148.0</ele><time>2026-03-30T06:33:32.687Z</time></trkpt><trkpt lat="43.119545" lon="2.311385"><ele>149.5</ele><time>2026-03-30T06:33:33.685Z</time></trkpt><trkpt lat="43.1194267" lon="2.311405"><ele>151.0</ele><time>2026-03-30T06:33:34.686Z</time></trkpt><trkpt lat="43.1193083" lon="2.3113967"><ele>152.5</ele><time>2026-03-30T06:33:35.686Z</time></trkpt><trkpt lat="43.11919" lon="2.3113883"><ele>154.0</ele><time>2026-03-30T06:33:36.686Z</time></trkpt><trkpt lat="43.11908" lon="2.3114"><ele>155.0</ele><time>2026-03-30T06:33:37.688Z</time></trkpt><trkpt lat="43.1189667" lon="2.3114483"><ele>156.0</ele><time>2026-03-30T06:33:38.686Z</time></trkpt><trkpt lat="43.1188533" lon="2.3115233"><ele>157.0</ele><time>2026-03-30T06:33:39.689Z</time></trkpt><trkpt lat="43.118745" lon="2.3116183"><ele>158.0</ele><time>2026-03-30T06:33:40.687Z</time></trkpt><trkpt lat="43.118645" lon="2.311735"><ele>158.0</ele><time>2026-03-30T06:33:41.686Z</time></trkpt><trkpt lat="43.1185533" lon="2.3118583"><ele>158.0</ele><time>2026-03-30T06:33:42.688Z</time></trkpt><trkpt lat="43.1184767" lon="2.3119817"><ele>158.0</ele><time>2026-03-30T06:33:43.685Z</time></trkpt><trkpt lat="43.1184167" lon="2.3121"><ele>158.0</ele><time>2026-03-30T06:33:44.685Z</time></trkpt><trkpt lat="43.1183717" lon="2.31224"><ele>159.25</ele><time>2026-03-30T06:33:45.685Z</time></trkpt><trkpt lat="43.11833" lon="2.3124017"><ele>160.5</ele><time>2026-03-30T06:33:46.685Z</time></trkpt><trkpt lat="43.1182833" lon="2.312565"><ele>161.75</ele><time>2026-03-30T06:33:47.684Z</time></trkpt><trkpt lat="43.1182283" lon="2.312725"><ele>163.0</ele><time>2026-03-30T06:33:48.687Z</time></trkpt><trkpt lat="43.1181767" lon="2.3128767"><ele>163.0</ele><time>2026-03-30T06:33:49.687Z</time></trkpt><trkpt lat="43.118125" lon="2.3130083"><ele>163.0</ele><time>2026-03-30T06:33:50.685Z</time></trkpt><trkpt lat="43.1180717" lon="2.3131267"><ele>163.0</ele><time>2026-03-30T06:33:51.688Z</time></trkpt><trkpt lat="43.1180117" lon="2.3132333"><ele>163.0</ele><time>2026-03-30T06:33:52.686Z</time></trkpt><trkpt lat="43.1179333" lon="2.3133317"><ele>163.0</ele><time>2026-03-30T06:33:53.684Z</time></trkpt><trkpt lat="43.11784" lon="2.31343"><ele>159.75</ele><time>2026-03-30T06:33:54.684Z</time></trkpt><trkpt lat="43.1177383" lon="2.313535"><ele>156.5</ele><time>2026-03-30T06:33:55.684Z</time></trkpt><trkpt lat="43.1176317" lon="2.3136517"><ele>153.25</ele><time>2026-03-30T06:33:56.687Z</time></trkpt><trkpt lat="43.1175233" lon="2.3137683"><ele>150.0</ele><time>2026-03-30T06:33:57.686Z</time></trkpt><trkpt lat="43.1174083" lon="2.3138817"><ele>151.5</ele><time>2026-03-30T06:33:58.685Z</time></trkpt><trkpt lat="43.11729" lon="2.3139983"><ele>153.0</ele><time>2026-03-30T06:33:59.686Z</time></trkpt><trkpt lat="43.1171683" lon="2.314115"><ele>154.5</ele><time>2026-03-30T06:34:00.684Z</time></trkpt><trkpt lat="43.117055" lon="2.314225"><ele>156.0</ele><time>2026-03-30T06:34:01.684Z</time></trkpt><trkpt lat="43.1169483" lon="2.3143367"><ele>156.0</ele><time>2026-03-30T06:34:02.685Z</time></trkpt><trkpt lat="43.11685" lon="2.3144517"><ele>156.0</ele><time>2026-03-30T06:34:03.684Z</time></trkpt><trkpt lat="43.116765" lon="2.3145667"><ele>156.0</ele><time>2026-03-30T06:34:04.685Z</time></trkpt><trkpt lat="43.116695" lon="2.3146783"><ele>156.0</ele><time>2026-03-30T06:34:05.684Z</time></trkpt><trkpt lat="43.1166417" lon="2.3148"><ele>155.4</ele><time>2026-03-30T06:34:06.685Z</time></trkpt><trkpt lat="43.1165883" lon="2.3149183"><ele>154.8</ele><time>2026-03-30T06:34:07.689Z</time></trkpt><trkpt lat="43.1165217" lon="2.3150283"><ele>154.20000000000002</ele><time>2026-03-30T06:34:08.687Z</time></trkpt><trkpt lat="43.11644" lon="2.31513"><ele>153.6</ele><time>2026-03-30T06:34:09.685Z</time></trkpt><trkpt lat="43.11636" lon="2.3152183"><ele>153.0</ele><time>2026-03-30T06:34:10.685Z</time></trkpt><trkpt lat="43.1162817" lon="2.31529"><ele>153.0</ele><time>2026-03-30T06:34:11.685Z</time></trkpt><trkpt lat="43.1162033" lon="2.3153417"><ele>153.0</ele><time>2026-03-30T06:34:12.687Z</time></trkpt><trkpt lat="43.1161267" lon="2.3153817"><ele>153.0</ele><time>2026-03-30T06:34:13.687Z</time></trkpt><trkpt lat="43.116055" lon="2.3154017"><ele>153.0</ele><time>2026-03-30T06:34:14.686Z</time></trkpt><trkpt lat="43.1159833" lon="2.3154017"><ele>153.0</ele><time>2026-03-30T06:34:15.688Z</time></trkpt><trkpt lat="43.115905" lon="2.315375"><ele>153.0</ele><time>2026-03-30T06:34:16.684Z</time></trkpt><trkpt lat="43.11582" lon="2.3153083"><ele>152.25</ele><time>2026-03-30T06:34:17.688Z</time></trkpt><trkpt lat="43.1157333" lon="2.3151917"><ele>151.5</ele><time>2026-03-30T06:34:18.687Z</time></trkpt><trkpt lat="43.1156483" lon="2.315075"><ele>150.75</ele><time>2026-03-30T06:34:19.688Z</time></trkpt><trkpt lat="43.1155617" lon="2.3149667"><ele>150.0</ele><time>2026-03-30T06:34:20.685Z</time></trkpt><trkpt lat="43.1154733" lon="2.3148717"><ele>150.0</ele><time>2026-03-30T06:34:21.687Z</time></trkpt><trkpt lat="43.115375" lon="2.3147983"><ele>150.0</ele><time>2026-03-30T06:34:22.687Z</time></trkpt><trkpt lat="43.115265" lon="2.31475"><ele>150.0</ele><time>2026-03-30T06:34:23.688Z</time></trkpt><trkpt lat="43.1151517" lon="2.3147233"><ele>150.0</ele><time>2026-03-30T06:34:24.689Z</time></trkpt><trkpt lat="43.1150367" lon="2.31472"><ele>150.0</ele><time>2026-03-30T06:34:25.689Z</time></trkpt><trkpt lat="43.11492" lon="2.3147333"><ele>150.0</ele><time>2026-03-30T06:34:26.687Z</time></trkpt><trkpt lat="43.1148" lon="2.31475"><ele>150.0</ele><time>2026-03-30T06:34:27.684Z</time></trkpt><trkpt lat="43.1146717" lon="2.314775"><ele>150.0</ele><time>2026-03-30T06:34:28.686Z</time></trkpt><trkpt lat="43.114535" lon="2.314805"><ele>150.0</ele><time>2026-03-30T06:34:29.685Z</time></trkpt><trkpt lat="43.114385" lon="2.314845"><ele>150.0</ele><time>2026-03-30T06:34:30.688Z</time></trkpt><trkpt lat="43.1142333" lon="2.3148967"><ele>150.0</ele><time>2026-03-30T06:34:31.692Z</time></trkpt><trkpt lat="43.1140883" lon="2.3149483"><ele>150.0</ele><time>2026-03-30T06:34:32.688Z</time></trkpt><trkpt lat="43.113945" lon="2.3150017"><ele>150.0</ele><time>2026-03-30T06:34:33.686Z</time></trkpt><trkpt lat="43.113805" lon="2.3150583"><ele>150.0</ele><time>2026-03-30T06:34:34.685Z</time></trkpt><trkpt lat="43.11367" lon="2.3151117"><ele>150.0</ele><time>2026-03-30T06:34:35.685Z</time></trkpt><trkpt lat="43.1135417" lon="2.3151633"><ele>150.0</ele><time>2026-03-30T06:34:36.689Z</time></trkpt><trkpt lat="43.11342" lon="2.3152117"><ele>150.0</ele><time>2026-03-30T06:34:37.685Z</time></trkpt><trkpt lat="43.1133083" lon="2.3152717"><ele>150.0</ele><time>2026-03-30T06:34:38.686Z</time></trkpt><trkpt lat="43.1132" lon="2.3153467"><ele>150.0</ele><time>2026-03-30T06:34:39.687Z</time></trkpt><trkpt lat="43.11309" lon="2.3154233"><ele>150.25</ele><time>2026-03-30T06:34:40.685Z</time></trkpt><trkpt lat="43.1129667" lon="2.3154767"><ele>150.5</ele><time>2026-03-30T06:34:41.684Z</time></trkpt><trkpt lat="43.112835" lon="2.3155067"><ele>150.75</ele><time>2026-03-30T06:34:42.685Z</time></trkpt><trkpt lat="43.1127" lon="2.3155167"><ele>151.0</ele><time>2026-03-30T06:34:43.688Z</time></trkpt><trkpt lat="43.11257" lon="2.3155"><ele>151.0</ele><time>2026-03-30T06:34:44.685Z</time></trkpt><trkpt lat="43.112445" lon="2.31545"><ele>151.0</ele><time>2026-03-30T06:34:45.686Z</time></trkpt><trkpt lat="43.1123233" lon="2.3153767"><ele>151.0</ele><time>2026-03-30T06:34:46.686Z</time></trkpt><trkpt lat="43.1122067" lon="2.3153033"><ele>151.0</ele><time>2026-03-30T06:34:47.686Z</time></trkpt><trkpt lat="43.1120867" lon="2.3152467"><ele>151.0</ele><time>2026-03-30T06:34:48.687Z</time></trkpt><trkpt lat="43.11196" lon="2.3152167"><ele>151.0</ele><time>2026-03-30T06:34:49.686Z</time></trkpt><trkpt lat="43.1118233" lon="2.3152183"><ele>151.0</ele><time>2026-03-30T06:34:50.688Z</time></trkpt><trkpt lat="43.1116767" lon="2.3152433"><ele>151.0</ele><time>2026-03-30T06:34:51.687Z</time></trkpt><trkpt lat="43.1115317" lon="2.3152783"><ele>151.0</ele><time>2026-03-30T06:34:52.686Z</time></trkpt><trkpt lat="43.111385" lon="2.3153"><ele>151.0</ele><time>2026-03-30T06:34:53.687Z</time></trkpt><trkpt lat="43.111235" lon="2.3153067"><ele>151.0</ele><time>2026-03-30T06:34:54.686Z</time></trkpt><trkpt lat="43.1110783" lon="2.31529"><ele>151.0</ele><time>2026-03-30T06:34:55.685Z</time></trkpt><trkpt lat="43.110915" lon="2.3152633"><ele>151.0</ele><time>2026-03-30T06:34:56.689Z</time></trkpt><trkpt lat="43.1107583" lon="2.3152383"><ele>151.0</ele><time>2026-03-30T06:34:57.686Z</time></trkpt><trkpt lat="43.1106" lon="2.3152183"><ele>152.0</ele><time>2026-03-30T06:34:58.685Z</time></trkpt><trkpt lat="43.1104417" lon="2.3152117"><ele>153.0</ele><time>2026-03-30T06:34:59.686Z</time></trkpt><trkpt lat="43.1102883" lon="2.3152233"><ele>154.0</ele><time>2026-03-30T06:35:00.686Z</time></trkpt><trkpt lat="43.11013" lon="2.3152567"><ele>154.0</ele><time>2026-03-30T06:35:01.684Z</time></trkpt><trkpt lat="43.109975" lon="2.3153033"><ele>154.0</ele><time>2026-03-30T06:35:02.688Z</time></trkpt><trkpt lat="43.10982" lon="2.3153583"><ele>154.0</ele><time>2026-03-30T06:35:03.684Z</time></trkpt><trkpt lat="43.1096717" lon="2.3154283"><ele>153.66666666666669</ele><time>2026-03-30T06:35:04.685Z</time></trkpt><trkpt lat="43.1095283" lon="2.315515"><ele>153.33333333333334</ele><time>2026-03-30T06:35:05.685Z</time></trkpt><trkpt lat="43.1093917" lon="2.31561"><ele>153.0</ele><time>2026-03-30T06:35:06.685Z</time></trkpt><trkpt lat="43.1092533" lon="2.3156967"><ele>153.0</ele><time>2026-03-30T06:35:07.685Z</time></trkpt><trkpt lat="43.1091083" lon="2.3157733"><ele>153.0</ele><time>2026-03-30T06:35:08.685Z</time></trkpt><trkpt lat="43.1089717" lon="2.3158517"><ele>153.0</ele><time>2026-03-30T06:35:09.686Z</time></trkpt><trkpt lat="43.108845" lon="2.3159267"><ele>153.0</ele><time>2026-03-30T06:35:10.685Z</time></trkpt><trkpt lat="43.1087133" lon="2.3159867"><ele>153.5</ele><time>2026-03-30T06:35:11.686Z</time></trkpt><trkpt lat="43.1085717" lon="2.3160267"><ele>154.0</ele><time>2026-03-30T06:35:12.686Z</time></trkpt><trkpt lat="43.10843" lon="2.3160517"><ele>154.5</ele><time>2026-03-30T06:35:13.685Z</time></trkpt><trkpt lat="43.1082933" lon="2.31608"><ele>155.0</ele><time>2026-03-30T06:35:14.686Z</time></trkpt><trkpt lat="43.1081633" lon="2.316115"><ele>155.25</ele><time>2026-03-30T06:35:15.684Z</time></trkpt><trkpt lat="43.108045" lon="2.3161467"><ele>155.5</ele><time>2026-03-30T06:35:16.687Z</time></trkpt><trkpt lat="43.1079267" lon="2.3161617"><ele>155.75</ele><time>2026-03-30T06:35:17.685Z</time></trkpt><trkpt lat="43.1078033" lon="2.3161617"><ele>156.0</ele><time>2026-03-30T06:35:18.686Z</time></trkpt><trkpt lat="43.1076817" lon="2.3161317"><ele>156.0</ele><time>2026-03-30T06:35:19.687Z</time></trkpt><trkpt lat="43.107545" lon="2.31609"><ele>156.0</ele><time>2026-03-30T06:35:20.687Z</time></trkpt><trkpt lat="43.10741" lon="2.3160483"><ele>156.0</ele><time>2026-03-30T06:35:21.686Z</time></trkpt><trkpt lat="43.1072867" lon="2.3160133"><ele>156.0</ele><time>2026-03-30T06:35:22.685Z</time></trkpt><trkpt lat="43.1071783" lon="2.3159817"><ele>155.8</ele><time>2026-03-30T06:35:23.688Z</time></trkpt><trkpt lat="43.107085" lon="2.3159533"><ele>155.6</ele><time>2026-03-30T06:35:24.685Z</time></trkpt><trkpt lat="43.107" lon="2.3159183"><ele>155.4</ele><time>2026-03-30T06:35:25.686Z</time></trkpt><trkpt lat="43.1069183" lon="2.3158717"><ele>155.2</ele><time>2026-03-30T06:35:26.687Z</time></trkpt><trkpt lat="43.10684" lon="2.3158117"><ele>155.0</ele><time>2026-03-30T06:35:27.685Z</time></trkpt><trkpt lat="43.10675" lon="2.31577"><ele>155.0</ele><time>2026-03-30T06:35:28.685Z</time></trkpt><trkpt lat="43.10665" lon="2.3157667"><ele>155.0</ele><time>2026-03-30T06:35:29.686Z</time></trkpt><trkpt lat="43.1065433" lon="2.3157717"><ele>155.0</ele><time>2026-03-30T06:35:30.686Z</time></trkpt><trkpt lat="43.1064333" lon="2.3157683"><ele>155.0</ele><time>2026-03-30T06:35:31.685Z</time></trkpt><trkpt lat="43.1063183" lon="2.3157667"><ele>155.0</ele><time>2026-03-30T06:35:32.685Z</time></trkpt><trkpt lat="43.1062" lon="2.31576"><ele>155.0</ele><time>2026-03-30T06:35:33.686Z</time></trkpt><trkpt lat="43.10609" lon="2.3157417"><ele>155.0</ele><time>2026-03-30T06:35:34.686Z</time></trkpt><trkpt lat="43.1059867" lon="2.3157083"><ele>155.0</ele><time>2026-03-30T06:35:35.686Z</time></trkpt><trkpt lat="43.1058833" lon="2.315655"><ele>155.0</ele><time>2026-03-30T06:35:36.686Z</time></trkpt><trkpt lat="43.10578" lon="2.3155817"><ele>155.0</ele><time>2026-03-30T06:35:37.686Z</time></trkpt><trkpt lat="43.1056717" lon="2.3155017"><ele>155.0</ele><time>2026-03-30T06:35:38.689Z</time></trkpt><trkpt lat="43.10556" lon="2.3154283"><ele>155.0</ele><time>2026-03-30T06:35:39.687Z</time></trkpt><trkpt lat="43.105445" lon="2.3153617"><ele>155.0</ele><time>2026-03-30T06:35:40.686Z</time></trkpt><trkpt lat="43.105335" lon="2.3152983"><ele>155.0</ele><time>2026-03-30T06:35:41.688Z</time></trkpt><trkpt lat="43.10523" lon="2.3152283"><ele>155.0</ele><time>2026-03-30T06:35:42.686Z</time></trkpt><trkpt lat="43.105125" lon="2.3151483"><ele>155.0</ele><time>2026-03-30T06:35:43.689Z</time></trkpt><trkpt lat="43.1050233" lon="2.3150583"><ele>155.0</ele><time>2026-03-30T06:35:44.686Z</time></trkpt><trkpt lat="43.1049317" lon="2.31496"><ele>155.0</ele><time>2026-03-30T06:35:45.688Z</time></trkpt><trkpt lat="43.1048583" lon="2.3148583"><ele>155.0</ele><time>2026-03-30T06:35:46.689Z</time></trkpt><trkpt lat="43.1048017" lon="2.3147517"><ele>155.0</ele><time>2026-03-30T06:35:47.688Z</time></trkpt><trkpt lat="43.1047617" lon="2.3146283"><ele>155.0</ele><time>2026-03-30T06:35:48.688Z</time></trkpt><trkpt lat="43.10474" lon="2.3144817"><ele>155.0</ele><time>2026-03-30T06:35:49.687Z</time></trkpt><trkpt lat="43.1047283" lon="2.314315"><ele>155.0</ele><time>2026-03-30T06:35:50.69Z</time></trkpt><trkpt lat="43.10472" lon="2.314145"><ele>155.0</ele><time>2026-03-30T06:35:51.692Z</time></trkpt><trkpt lat="43.1047" lon="2.3139817"><ele>155.0</ele><time>2026-03-30T06:35:52.686Z</time></trkpt><trkpt lat="43.1046633" lon="2.3138267"><ele>155.0</ele><time>2026-03-30T06:35:53.689Z</time></trkpt><trkpt lat="43.1046117" lon="2.3136917"><ele>155.0</ele><time>2026-03-30T06:35:54.687Z</time></trkpt><trkpt lat="43.104545" lon="2.3135733"><ele>155.0</ele><time>2026-03-30T06:35:55.687Z</time></trkpt><trkpt lat="43.1044683" lon="2.3134633"><ele>155.0</ele><time>2026-03-30T06:35:56.688Z</time></trkpt><trkpt lat="43.1043817" lon="2.3133583"><ele>155.0</ele><time>2026-03-30T06:35:57.686Z</time></trkpt><trkpt lat="43.104265" lon="2.3132717"><ele>155.0</ele><time>2026-03-30T06:35:58.686Z</time></trkpt><trkpt lat="43.1041283" lon="2.3132117"><ele>155.0</ele><time>2026-03-30T06:35:59.688Z</time></trkpt><trkpt lat="43.1039817" lon="2.31317"><ele>155.0</ele><time>2026-03-30T06:36:00.688Z</time></trkpt><trkpt lat="43.1038317" lon="2.313145"><ele>155.0</ele><time>2026-03-30T06:36:01.687Z</time></trkpt><trkpt lat="43.1036717" lon="2.313135"><ele>155.0</ele><time>2026-03-30T06:36:02.689Z</time></trkpt><trkpt lat="43.1035117" lon="2.3131233"><ele>155.0</ele><time>2026-03-30T06:36:03.686Z</time></trkpt><trkpt lat="43.103355" lon="2.3131217"><ele>155.0</ele><time>2026-03-30T06:36:04.685Z</time></trkpt><trkpt lat="43.1031933" lon="2.3131367"><ele>155.75</ele><time>2026-03-30T06:36:05.686Z</time></trkpt><trkpt lat="43.1030467" lon="2.31315"><ele>156.5</ele><time>2026-03-30T06:36:06.686Z</time></trkpt><trkpt lat="43.102905" lon="2.3131633"><ele>157.25</ele><time>2026-03-30T06:36:07.687Z</time></trkpt><trkpt lat="43.1027683" lon="2.313165"><ele>158.0</ele><time>2026-03-30T06:36:08.688Z</time></trkpt><trkpt lat="43.102635" lon="2.3131567"><ele>158.0</ele><time>2026-03-30T06:36:09.685Z</time></trkpt><trkpt lat="43.102505" lon="2.3131383"><ele>158.0</ele><time>2026-03-30T06:36:10.688Z</time></trkpt><trkpt lat="43.1023833" lon="2.3131"><ele>158.0</ele><time>2026-03-30T06:36:11.686Z</time></trkpt><trkpt lat="43.1022767" lon="2.31304"><ele>158.0</ele><time>2026-03-30T06:36:12.687Z</time></trkpt><trkpt lat="43.1021783" lon="2.3129733"><ele>157.8</ele><time>2026-03-30T06:36:13.686Z</time></trkpt><trkpt lat="43.10209" lon="2.3129083"><ele>157.60000000000002</ele><time>2026-03-30T06:36:14.686Z</time></trkpt><trkpt lat="43.102005" lon="2.31283"><ele>157.39999999999998</ele><time>2026-03-30T06:36:15.687Z</time></trkpt><trkpt lat="43.1019283" lon="2.3127233"><ele>157.2</ele><time>2026-03-30T06:36:16.686Z</time></trkpt><trkpt lat="43.1018617" lon="2.312595"><ele>157.0</ele><time>2026-03-30T06:36:17.687Z</time></trkpt><trkpt lat="43.1017983" lon="2.31246"><ele>157.0</ele><time>2026-03-30T06:36:18.687Z</time></trkpt><trkpt lat="43.1017333" lon="2.31233"><ele>157.0</ele><time>2026-03-30T06:36:19.689Z</time></trkpt><trkpt lat="43.1016633" lon="2.3122117"><ele>157.0</ele><time>2026-03-30T06:36:20.689Z</time></trkpt><trkpt lat="43.1015917" lon="2.3121033"><ele>157.0</ele><time>2026-03-30T06:36:21.686Z</time></trkpt><trkpt lat="43.1015233" lon="2.3119933"><ele>157.0</ele><time>2026-03-30T06:36:22.687Z</time></trkpt><trkpt lat="43.1014617" lon="2.3118767"><ele>157.16666666666669</ele><time>2026-03-30T06:36:23.686Z</time></trkpt><trkpt lat="43.10141" lon="2.3117633"><ele>157.33333333333334</ele><time>2026-03-30T06:36:24.686Z</time></trkpt><trkpt lat="43.1013667" lon="2.3116567"><ele>157.5</ele><time>2026-03-30T06:36:25.686Z</time></trkpt><trkpt lat="43.1013317" lon="2.311555"><ele>157.66666666666666</ele><time>2026-03-30T06:36:26.687Z</time></trkpt><trkpt lat="43.1013083" lon="2.3114567"><ele>157.83333333333331</ele><time>2026-03-30T06:36:27.686Z</time></trkpt><trkpt lat="43.1013033" lon="2.3113533"><ele>158.0</ele><time>2026-03-30T06:36:28.689Z</time></trkpt><trkpt lat="43.1012983" lon="2.3112567"><ele>158.0</ele><time>2026-03-30T06:36:29.684Z</time></trkpt><trkpt lat="43.1012767" lon="2.3111017"><ele>158.0</ele><time>2026-03-30T06:36:31.685Z</time></trkpt><trkpt lat="43.101185" lon="2.3110283"><ele>158.0</ele><time>2026-03-30T06:36:33.687Z</time></trkpt><trkpt lat="43.1011183" lon="2.311045"><ele>158.0</ele><time>2026-03-30T06:36:34.686Z</time></trkpt><trkpt lat="43.10104" lon="2.3110583"><ele>158.0</ele><time>2026-03-30T06:36:35.685Z</time></trkpt><trkpt lat="43.1009567" lon="2.3110467"><ele>158.0</ele><time>2026-03-30T06:36:36.685Z</time></trkpt><trkpt lat="43.10087" lon="2.3109967"><ele>158.0</ele><time>2026-03-30T06:36:37.685Z</time></trkpt><trkpt lat="43.1007783" lon="2.310935"><ele>158.0</ele><time>2026-03-30T06:36:38.685Z</time></trkpt><trkpt lat="43.1006917" lon="2.3108633"><ele>158.0</ele><time>2026-03-30T06:36:39.687Z</time></trkpt><trkpt lat="43.1006083" lon="2.3108033"><ele>158.0</ele><time>2026-03-30T06:36:40.685Z</time></trkpt><trkpt lat="43.1005367" lon="2.3107417"><ele>158.66666666666666</ele><time>2026-03-30T06:36:41.686Z</time></trkpt><trkpt lat="43.1004683" lon="2.3106717"><ele>159.33333333333331</ele><time>2026-03-30T06:36:42.685Z</time></trkpt><trkpt lat="43.100415" lon="2.3106067"><ele>160.0</ele><time>2026-03-30T06:36:43.685Z</time></trkpt><trkpt lat="43.1003133" lon="2.3105333"><ele>160.66666666666666</ele><time>2026-03-30T06:36:45.685Z</time></trkpt><trkpt lat="43.1002467" lon="2.3104933"><ele>161.33333333333334</ele><time>2026-03-30T06:36:46.685Z</time></trkpt><trkpt lat="43.1001583" lon="2.3104467"><ele>162.0</ele><time>2026-03-30T06:36:47.685Z</time></trkpt><trkpt lat="43.100055" lon="2.3104083"><ele>162.0</ele><time>2026-03-30T06:36:48.687Z</time></trkpt><trkpt lat="43.09994" lon="2.3103833"><ele>162.0</ele><time>2026-03-30T06:36:49.688Z</time></trkpt><trkpt lat="43.0998167" lon="2.3103667"><ele>162.0</ele><time>2026-03-30T06:36:50.686Z</time></trkpt><trkpt lat="43.0996933" lon="2.310355"><ele>162.0</ele><time>2026-03-30T06:36:51.689Z</time></trkpt><trkpt lat="43.09956" lon="2.3103533"><ele>162.75</ele><time>2026-03-30T06:36:52.685Z</time></trkpt><trkpt lat="43.0994267" lon="2.3103483"><ele>163.5</ele><time>2026-03-30T06:36:53.686Z</time></trkpt><trkpt lat="43.0992967" lon="2.3103483"><ele>164.25</ele><time>2026-03-30T06:36:54.686Z</time></trkpt><trkpt lat="43.0991633" lon="2.3103483"><ele>165.0</ele><time>2026-03-30T06:36:55.686Z</time></trkpt><trkpt lat="43.0990267" lon="2.3103417"><ele>166.0</ele><time>2026-03-30T06:36:56.687Z</time></trkpt><trkpt lat="43.0988867" lon="2.3103217"><ele>167.0</ele><time>2026-03-30T06:36:57.687Z</time></trkpt><trkpt lat="43.0987433" lon="2.3102917"><ele>168.0</ele><time>2026-03-30T06:36:58.685Z</time></trkpt><trkpt lat="43.0986" lon="2.3102517"><ele>169.0</ele><time>2026-03-30T06:36:59.687Z</time></trkpt><trkpt lat="43.098455" lon="2.3102067"><ele>169.0</ele><time>2026-03-30T06:37:00.687Z</time></trkpt><trkpt lat="43.0983133" lon="2.3101533"><ele>169.0</ele><time>2026-03-30T06:37:01.687Z</time></trkpt><trkpt lat="43.0981717" lon="2.3100967"><ele>169.0</ele><time>2026-03-30T06:37:02.688Z</time></trkpt><trkpt lat="43.09803" lon="2.3100383"><ele>169.0</ele><time>2026-03-30T06:37:03.686Z</time></trkpt><trkpt lat="43.09789" lon="2.3099733"><ele>168.25</ele><time>2026-03-30T06:37:04.686Z</time></trkpt><trkpt lat="43.0977517" lon="2.3099"><ele>167.5</ele><time>2026-03-30T06:37:05.687Z</time></trkpt><trkpt lat="43.0976167" lon="2.3098217"><ele>166.75</ele><time>2026-03-30T06:37:06.687Z</time></trkpt><trkpt lat="43.0974817" lon="2.3097467"><ele>166.0</ele><time>2026-03-30T06:37:07.687Z</time></trkpt><trkpt lat="43.0973483" lon="2.309675"><ele>166.0</ele><time>2026-03-30T06:37:08.689Z</time></trkpt><trkpt lat="43.0972133" lon="2.3096217"><ele>166.0</ele><time>2026-03-30T06:37:09.688Z</time></trkpt><trkpt lat="43.09708" lon="2.3095833"><ele>166.0</ele><time>2026-03-30T06:37:10.686Z</time></trkpt><trkpt lat="43.096945" lon="2.309555"><ele>166.0</ele><time>2026-03-30T06:37:11.686Z</time></trkpt><trkpt lat="43.0968133" lon="2.3095467"><ele>166.0</ele><time>2026-03-30T06:37:12.688Z</time></trkpt><trkpt lat="43.0966883" lon="2.3095483"><ele>166.0</ele><time>2026-03-30T06:37:13.685Z</time></trkpt><trkpt lat="43.0965717" lon="2.3095517"><ele>166.0</ele><time>2026-03-30T06:37:14.689Z</time></trkpt><trkpt lat="43.0964583" lon="2.3095567"><ele>166.0</ele><time>2026-03-30T06:37:15.687Z</time></trkpt><trkpt lat="43.096345" lon="2.3095567"><ele>166.0</ele><time>2026-03-30T06:37:16.686Z</time></trkpt><trkpt lat="43.0962267" lon="2.30956"><ele>166.0</ele><time>2026-03-30T06:37:17.687Z</time></trkpt><trkpt lat="43.0961083" lon="2.309555"><ele>166.0</ele><time>2026-03-30T06:37:18.688Z</time></trkpt><trkpt lat="43.0959933" lon="2.3095367"><ele>166.0</ele><time>2026-03-30T06:37:19.686Z</time></trkpt><trkpt lat="43.0958833" lon="2.3095133"><ele>166.0</ele><time>2026-03-30T06:37:20.688Z</time></trkpt><trkpt lat="43.09578" lon="2.3094933"><ele>166.0</ele><time>2026-03-30T06:37:21.686Z</time></trkpt><trkpt lat="43.09568" lon="2.3094683"><ele>166.0</ele><time>2026-03-30T06:37:22.688Z</time></trkpt><trkpt lat="43.0955833" lon="2.3094467"><ele>166.0</ele><time>2026-03-30T06:37:23.685Z</time></trkpt><trkpt lat="43.09548" lon="2.3094217"><ele>166.0</ele><time>2026-03-30T06:37:24.687Z</time></trkpt><trkpt lat="43.0953767" lon="2.3093917"><ele>166.4</ele><time>2026-03-30T06:37:25.684Z</time></trkpt><trkpt lat="43.0952717" lon="2.3093683"><ele>166.8</ele><time>2026-03-30T06:37:26.685Z</time></trkpt><trkpt lat="43.09517" lon="2.309345"><ele>167.20000000000002</ele><time>2026-03-30T06:37:27.686Z</time></trkpt><trkpt lat="43.095065" lon="2.30932"><ele>167.60000000000002</ele><time>2026-03-30T06:37:28.685Z</time></trkpt><trkpt lat="43.0949633" lon="2.309295"><ele>168.0</ele><time>2026-03-30T06:37:29.688Z</time></trkpt><trkpt lat="43.0948683" lon="2.3092733"><ele>168.0</ele><time>2026-03-30T06:37:30.688Z</time></trkpt><trkpt lat="43.094775" lon="2.3092533"><ele>168.0</ele><time>2026-03-30T06:37:31.684Z</time></trkpt><trkpt lat="43.0946883" lon="2.3092317"><ele>168.0</ele><time>2026-03-30T06:37:32.685Z</time></trkpt><trkpt lat="43.0946067" lon="2.3092133"><ele>168.0</ele><time>2026-03-30T06:37:33.688Z</time></trkpt><trkpt lat="43.0945267" lon="2.3091933"><ele>168.0</ele><time>2026-03-30T06:37:34.685Z</time></trkpt><trkpt lat="43.0944483" lon="2.3091683"><ele>168.0</ele><time>2026-03-30T06:37:35.687Z</time></trkpt><trkpt lat="43.0943667" lon="2.3091383"><ele>168.0</ele><time>2026-03-30T06:37:36.685Z</time></trkpt><trkpt lat="43.094285" lon="2.3091067"><ele>168.0</ele><time>2026-03-30T06:37:37.685Z</time></trkpt><trkpt lat="43.0942033" lon="2.3090767"><ele>168.0</ele><time>2026-03-30T06:37:38.687Z</time></trkpt><trkpt lat="43.09412" lon="2.3090483"><ele>168.0</ele><time>2026-03-30T06:37:39.686Z</time></trkpt><trkpt lat="43.0940333" lon="2.3090167"><ele>168.0</ele><time>2026-03-30T06:37:40.686Z</time></trkpt><trkpt lat="43.0939467" lon="2.30898"><ele>168.0</ele><time>2026-03-30T06:37:41.688Z</time></trkpt><trkpt lat="43.0938533" lon="2.3089467"><ele>168.8</ele><time>2026-03-30T06:37:42.686Z</time></trkpt><trkpt lat="43.09376" lon="2.3089217"><ele>169.60000000000002</ele><time>2026-03-30T06:37:43.685Z</time></trkpt><trkpt lat="43.0936733" lon="2.308895"><ele>170.39999999999998</ele><time>2026-03-30T06:37:44.685Z</time></trkpt><trkpt lat="43.0936017" lon="2.308875"><ele>171.2</ele><time>2026-03-30T06:37:45.688Z</time></trkpt><trkpt lat="43.0934883" lon="2.3088417"><ele>172.0</ele><time>2026-03-30T06:37:47.687Z</time></trkpt><trkpt lat="43.0934033" lon="2.3088"><ele>172.66666666666669</ele><time>2026-03-30T06:37:49.687Z</time></trkpt><trkpt lat="43.0933767" lon="2.3087033"><ele>173.33333333333334</ele><time>2026-03-30T06:37:51.685Z</time></trkpt><trkpt lat="43.0933833" lon="2.308545"><ele>174.0</ele><time>2026-03-30T06:37:53.686Z</time></trkpt><trkpt lat="43.0933967" lon="2.308445"><ele>174.66666666666666</ele><time>2026-03-30T06:37:54.685Z</time></trkpt><trkpt lat="43.0934183" lon="2.3083417"><ele>175.33333333333331</ele><time>2026-03-30T06:37:55.684Z</time></trkpt><trkpt lat="43.0934383" lon="2.308245"><ele>176.0</ele><time>2026-03-30T06:37:56.686Z</time></trkpt><trkpt lat="43.0934417" lon="2.308135"><ele>176.20000000000002</ele><time>2026-03-30T06:37:57.684Z</time></trkpt><trkpt lat="43.0934367" lon="2.3080083"><ele>176.4</ele><time>2026-03-30T06:37:58.688Z</time></trkpt><trkpt lat="43.09343" lon="2.30788"><ele>176.6</ele><time>2026-03-30T06:37:59.687Z</time></trkpt><trkpt lat="43.0934183" lon="2.3077533"><ele>176.8</ele><time>2026-03-30T06:38:00.686Z</time></trkpt><trkpt lat="43.0934" lon="2.3076167"><ele>177.0</ele><time>2026-03-30T06:38:01.685Z</time></trkpt><trkpt lat="43.093375" lon="2.3074817"><ele>177.0</ele><time>2026-03-30T06:38:02.686Z</time></trkpt><trkpt lat="43.0933483" lon="2.3073467"><ele>177.0</ele><time>2026-03-30T06:38:03.687Z</time></trkpt><trkpt lat="43.0933" lon="2.30723"><ele>177.0</ele><time>2026-03-30T06:38:04.686Z</time></trkpt><trkpt lat="43.093235" lon="2.3071333"><ele>177.0</ele><time>2026-03-30T06:38:05.686Z</time></trkpt><trkpt lat="43.0931767" lon="2.307055"><ele>177.0</ele><time>2026-03-30T06:38:06.686Z</time></trkpt><trkpt lat="43.09311" lon="2.3069967"><ele>179.0</ele><time>2026-03-30T06:38:07.688Z</time></trkpt><trkpt lat="43.09304" lon="2.3069417"><ele>181.0</ele><time>2026-03-30T06:38:08.689Z</time></trkpt><trkpt lat="43.0929733" lon="2.3068867"><ele>183.0</ele><time>2026-03-30T06:38:09.687Z</time></trkpt><trkpt lat="43.092915" lon="2.3068333"><ele>185.0</ele><time>2026-03-30T06:38:10.685Z</time></trkpt><trkpt lat="43.0928183" lon="2.3067417"><ele>187.0</ele><time>2026-03-30T06:38:12.77Z</time></trkpt><trkpt lat="43.0927267" lon="2.30674"><ele>189.0</ele><time>2026-03-30T06:38:14.686Z</time></trkpt><trkpt lat="43.0926367" lon="2.3067883"><ele>189.0</ele><time>2026-03-30T06:38:16.686Z</time></trkpt><trkpt lat="43.09255" lon="2.3067983"><ele>189.0</ele><time>2026-03-30T06:38:18.685Z</time></trkpt><trkpt lat="43.09248" lon="2.3067017"><ele>189.0</ele><time>2026-03-30T06:38:20.687Z</time></trkpt><trkpt lat="43.092445" lon="2.3065367"><ele>189.0</ele><time>2026-03-30T06:38:22.686Z</time></trkpt><trkpt lat="43.0924233" lon="2.3064183"><ele>189.0</ele><time>2026-03-30T06:38:23.684Z</time></trkpt><trkpt lat="43.0923767" lon="2.3062967"><ele>190.0</ele><time>2026-03-30T06:38:24.687Z</time></trkpt><trkpt lat="43.092305" lon="2.30619"><ele>191.0</ele><time>2026-03-30T06:38:25.686Z</time></trkpt><trkpt lat="43.09222" lon="2.3060983"><ele>192.0</ele><time>2026-03-30T06:38:26.686Z</time></trkpt><trkpt lat="43.0921283" lon="2.306005"><ele>193.0</ele><time>2026-03-30T06:38:27.685Z</time></trkpt><trkpt lat="43.092035" lon="2.305905"><ele>194.0</ele><time>2026-03-30T06:38:28.686Z</time></trkpt><trkpt lat="43.0919383" lon="2.3058"><ele>194.0</ele><time>2026-03-30T06:38:29.69Z</time></trkpt><trkpt lat="43.0918417" lon="2.305695"><ele>194.0</ele><time>2026-03-30T06:38:30.685Z</time></trkpt><trkpt lat="43.09175" lon="2.3055867"><ele>194.0</ele><time>2026-03-30T06:38:31.686Z</time></trkpt><trkpt lat="43.0916633" lon="2.305475"><ele>194.0</ele><time>2026-03-30T06:38:32.688Z</time></trkpt><trkpt lat="43.0915767" lon="2.3053617"><ele>198.25</ele><time>2026-03-30T06:38:33.686Z</time></trkpt><trkpt lat="43.0914817" lon="2.30527"><ele>202.5</ele><time>2026-03-30T06:38:34.686Z</time></trkpt><trkpt lat="43.091375" lon="2.3052083"><ele>206.75</ele><time>2026-03-30T06:38:35.686Z</time></trkpt><trkpt lat="43.0912717" lon="2.305155"><ele>211.0</ele><time>2026-03-30T06:38:36.686Z</time></trkpt><trkpt lat="43.0911783" lon="2.3050783"><ele>211.0</ele><time>2026-03-30T06:38:37.685Z</time></trkpt><trkpt lat="43.0910783" lon="2.305"><ele>211.0</ele><time>2026-03-30T06:38:38.686Z</time></trkpt><trkpt lat="43.0909717" lon="2.3049367"><ele>211.0</ele><time>2026-03-30T06:38:39.684Z</time></trkpt><trkpt lat="43.09086" lon="2.3049"><ele>211.0</ele><time>2026-03-30T06:38:40.686Z</time></trkpt><trkpt lat="43.09075" lon="2.3048783"><ele>213.0</ele><time>2026-03-30T06:38:41.685Z</time></trkpt><trkpt lat="43.0906383" lon="2.3048467"><ele>215.0</ele><time>2026-03-30T06:38:42.685Z</time></trkpt><trkpt lat="43.0905267" lon="2.3048083"><ele>217.0</ele><time>2026-03-30T06:38:43.686Z</time></trkpt><trkpt lat="43.0904233" lon="2.304745"><ele>219.0</ele><time>2026-03-30T06:38:44.688Z</time></trkpt><trkpt lat="43.09032" lon="2.3046833"><ele>220.75</ele><time>2026-03-30T06:38:45.684Z</time></trkpt><trkpt lat="43.0902233" lon="2.3046117"><ele>222.5</ele><time>2026-03-30T06:38:46.685Z</time></trkpt><trkpt lat="43.090135" lon="2.304525"><ele>224.25</ele><time>2026-03-30T06:38:47.687Z</time></trkpt><trkpt lat="43.0900333" lon="2.30444"><ele>226.0</ele><time>2026-03-30T06:38:48.686Z</time></trkpt><trkpt lat="43.0899217" lon="2.3043667"><ele>226.25</ele><time>2026-03-30T06:38:49.685Z</time></trkpt><trkpt lat="43.089805" lon="2.30431"><ele>226.5</ele><time>2026-03-30T06:38:50.686Z</time></trkpt><trkpt lat="43.0896817" lon="2.30426"><ele>226.75</ele><time>2026-03-30T06:38:51.686Z</time></trkpt><trkpt lat="43.08955" lon="2.30421"><ele>227.0</ele><time>2026-03-30T06:38:52.687Z</time></trkpt><trkpt lat="43.0894183" lon="2.30416"><ele>227.0</ele><time>2026-03-30T06:38:53.686Z</time></trkpt><trkpt lat="43.0892917" lon="2.3041133"><ele>227.0</ele><time>2026-03-30T06:38:54.685Z</time></trkpt><trkpt lat="43.0891733" lon="2.3040567"><ele>227.0</ele><time>2026-03-30T06:38:55.686Z</time></trkpt><trkpt lat="43.0890667" lon="2.3039833"><ele>227.0</ele><time>2026-03-30T06:38:56.685Z</time></trkpt><trkpt lat="43.0889667" lon="2.3038883"><ele>228.5</ele><time>2026-03-30T06:38:57.686Z</time></trkpt><trkpt lat="43.0888883" lon="2.3037567"><ele>230.0</ele><time>2026-03-30T06:38:58.684Z</time></trkpt><trkpt lat="43.08881" lon="2.303615"><ele>231.5</ele><time>2026-03-30T06:38:59.684Z</time></trkpt><trkpt lat="43.0887217" lon="2.3034817"><ele>233.0</ele><time>2026-03-30T06:39:00.685Z</time></trkpt><trkpt lat="43.088635" lon="2.3033483"><ele>233.0</ele><time>2026-03-30T06:39:01.685Z</time></trkpt><trkpt lat="43.0885533" lon="2.3032333"><ele>233.0</ele><time>2026-03-30T06:39:02.687Z</time></trkpt><trkpt lat="43.0884867" lon="2.303105"><ele>233.0</ele><time>2026-03-30T06:39:03.686Z</time></trkpt><trkpt lat="43.0884317" lon="2.3029717"><ele>233.0</ele><time>2026-03-30T06:39:04.685Z</time></trkpt><trkpt lat="43.08837" lon="2.302845"><ele>234.0</ele><time>2026-03-30T06:39:05.685Z</time></trkpt><trkpt lat="43.0883017" lon="2.3027367"><ele>235.0</ele><time>2026-03-30T06:39:06.687Z</time></trkpt><trkpt lat="43.0882083" lon="2.3026383"><ele>236.0</ele><time>2026-03-30T06:39:07.687Z</time></trkpt><trkpt lat="43.0881017" lon="2.302545"><ele>237.0</ele><time>2026-03-30T06:39:08.686Z</time></trkpt><trkpt lat="43.08799" lon="2.3024533"><ele>237.25</ele><time>2026-03-30T06:39:09.685Z</time></trkpt><trkpt lat="43.0878683" lon="2.3023467"><ele>237.5</ele><time>2026-03-30T06:39:10.685Z</time></trkpt><trkpt lat="43.0877483" lon="2.3022417"><ele>237.75</ele><time>2026-03-30T06:39:11.685Z</time></trkpt><trkpt lat="43.0876183" lon="2.3021467"><ele>238.0</ele><time>2026-03-30T06:39:12.686Z</time></trkpt><trkpt lat="43.0874833" lon="2.302055"><ele>236.75</ele><time>2026-03-30T06:39:13.687Z</time></trkpt><trkpt lat="43.08735" lon="2.30196"><ele>235.5</ele><time>2026-03-30T06:39:14.687Z</time></trkpt><trkpt lat="43.0872233" lon="2.3018617"><ele>234.25</ele><time>2026-03-30T06:39:15.684Z</time></trkpt><trkpt lat="43.087095" lon="2.3017683"><ele>233.0</ele><time>2026-03-30T06:39:16.685Z</time></trkpt><trkpt lat="43.08696" lon="2.3016933"><ele>233.0</ele><time>2026-03-30T06:39:17.686Z</time></trkpt><trkpt lat="43.0868267" lon="2.3016317"><ele>233.0</ele><time>2026-03-30T06:39:18.686Z</time></trkpt><trkpt lat="43.08669" lon="2.3015833"><ele>233.0</ele><time>2026-03-30T06:39:19.686Z</time></trkpt><trkpt lat="43.0865517" lon="2.301575"><ele>233.0</ele><time>2026-03-30T06:39:20.686Z</time></trkpt><trkpt lat="43.0864233" lon="2.3015783"><ele>235.0</ele><time>2026-03-30T06:39:21.686Z</time></trkpt><trkpt lat="43.0863017" lon="2.301575"><ele>237.0</ele><time>2026-03-30T06:39:22.686Z</time></trkpt><trkpt lat="43.0861783" lon="2.301565"><ele>239.0</ele><time>2026-03-30T06:39:23.686Z</time></trkpt><trkpt lat="43.08606" lon="2.301545"><ele>241.0</ele><time>2026-03-30T06:39:24.688Z</time></trkpt><trkpt lat="43.085935" lon="2.3015167"><ele>241.0</ele><time>2026-03-30T06:39:25.686Z</time></trkpt><trkpt lat="43.08581" lon="2.3014833"><ele>241.0</ele><time>2026-03-30T06:39:26.687Z</time></trkpt><trkpt lat="43.0856883" lon="2.3014417"><ele>241.0</ele><time>2026-03-30T06:39:27.686Z</time></trkpt><trkpt lat="43.0855667" lon="2.3013883"><ele>241.0</ele><time>2026-03-30T06:39:28.689Z</time></trkpt><trkpt lat="43.08545" lon="2.3013283"><ele>242.60000000000002</ele><time>2026-03-30T06:39:29.686Z</time></trkpt><trkpt lat="43.0853417" lon="2.3012683"><ele>244.20000000000002</ele><time>2026-03-30T06:39:30.688Z</time></trkpt><trkpt lat="43.0852417" lon="2.3012117"><ele>245.79999999999998</ele><time>2026-03-30T06:39:31.689Z</time></trkpt><trkpt lat="43.0851417" lon="2.3011683"><ele>247.39999999999998</ele><time>2026-03-30T06:39:32.686Z</time></trkpt><trkpt lat="43.0850417" lon="2.3011483"><ele>249.0</ele><time>2026-03-30T06:39:33.686Z</time></trkpt><trkpt lat="43.0849383" lon="2.301155"><ele>251.16666666666666</ele><time>2026-03-30T06:39:34.685Z</time></trkpt><trkpt lat="43.08484" lon="2.30118"><ele>253.33333333333331</ele><time>2026-03-30T06:39:35.685Z</time></trkpt><trkpt lat="43.08475" lon="2.30121"><ele>255.5</ele><time>2026-03-30T06:39:36.688Z</time></trkpt><trkpt lat="43.0846683" lon="2.3012433"><ele>257.66666666666663</ele><time>2026-03-30T06:39:37.685Z</time></trkpt><trkpt lat="43.0845967" lon="2.3012683"><ele>259.8333333333333</ele><time>2026-03-30T06:39:38.686Z</time></trkpt><trkpt lat="43.0845317" lon="2.30129"><ele>262.0</ele><time>2026-03-30T06:39:39.685Z</time></trkpt><trkpt lat="43.0844283" lon="2.30134"><ele>262.0</ele><time>2026-03-30T06:39:41.688Z</time></trkpt><trkpt lat="43.0843483" lon="2.301345"><ele>262.0</ele><time>2026-03-30T06:39:43.689Z</time></trkpt><trkpt lat="43.08428" lon="2.3012667"><ele>262.0</ele><time>2026-03-30T06:39:45.686Z</time></trkpt><trkpt lat="43.0842033" lon="2.30122"><ele>262.0</ele><time>2026-03-30T06:39:47.687Z</time></trkpt><trkpt lat="43.0841567" lon="2.30133"><ele>262.0</ele><time>2026-03-30T06:39:49.686Z</time></trkpt><trkpt lat="43.0841917" lon="2.301405"><ele>262.0</ele><time>2026-03-30T06:39:50.687Z</time></trkpt><trkpt lat="43.0841833" lon="2.3014917"><ele>262.0</ele><time>2026-03-30T06:39:51.685Z</time></trkpt><trkpt lat="43.0841433" lon="2.301565"><ele>262.0</ele><time>2026-03-30T06:39:52.686Z</time></trkpt><trkpt lat="43.0840683" lon="2.3016117"><ele>262.0</ele><time>2026-03-30T06:39:53.685Z</time></trkpt><trkpt lat="43.083975" lon="2.301635"><ele>262.0</ele><time>2026-03-30T06:39:54.687Z</time></trkpt><trkpt lat="43.0838733" lon="2.3016433"><ele>262.0</ele><time>2026-03-30T06:39:55.69Z</time></trkpt><trkpt lat="43.0837667" lon="2.3016367"><ele>262.6</ele><time>2026-03-30T06:39:56.686Z</time></trkpt><trkpt lat="43.0836567" lon="2.30162"><ele>263.2</ele><time>2026-03-30T06:39:57.688Z</time></trkpt><trkpt lat="43.083545" lon="2.3015967"><ele>263.8</ele><time>2026-03-30T06:39:58.688Z</time></trkpt><trkpt lat="43.0834317" lon="2.301575"><ele>264.4</ele><time>2026-03-30T06:39:59.686Z</time></trkpt><trkpt lat="43.0833233" lon="2.3015883"><ele>265.0</ele><time>2026-03-30T06:40:00.69Z</time></trkpt><trkpt lat="43.08322" lon="2.3016467"><ele>267.0</ele><time>2026-03-30T06:40:01.686Z</time></trkpt><trkpt lat="43.083135" lon="2.3017417"><ele>269.0</ele><time>2026-03-30T06:40:02.689Z</time></trkpt><trkpt lat="43.08306" lon="2.3018517"><ele>271.0</ele><time>2026-03-30T06:40:03.688Z</time></trkpt><trkpt lat="43.0829867" lon="2.3019733"><ele>273.0</ele><time>2026-03-30T06:40:04.685Z</time></trkpt><trkpt lat="43.0829183" lon="2.30208"><ele>275.0</ele><time>2026-03-30T06:40:05.687Z</time></trkpt><trkpt lat="43.082855" lon="2.302185"><ele>273.1666666666667</ele><time>2026-03-30T06:40:06.686Z</time></trkpt><trkpt lat="43.0827933" lon="2.3022783"><ele>271.33333333333337</ele><time>2026-03-30T06:40:07.687Z</time></trkpt><trkpt lat="43.082735" lon="2.302355"><ele>269.5</ele><time>2026-03-30T06:40:08.688Z</time></trkpt><trkpt lat="43.08267" lon="2.3024083"><ele>267.6666666666667</ele><time>2026-03-30T06:40:09.686Z</time></trkpt><trkpt lat="43.0825933" lon="2.302415"><ele>265.8333333333333</ele><time>2026-03-30T06:40:10.687Z</time></trkpt><trkpt lat="43.0825167" lon="2.302395"><ele>264.0</ele><time>2026-03-30T06:40:11.686Z</time></trkpt><trkpt lat="43.082435" lon="2.3023367"><ele>263.2</ele><time>2026-03-30T06:40:12.69Z</time></trkpt><trkpt lat="43.08235" lon="2.3022933"><ele>262.4</ele><time>2026-03-30T06:40:13.686Z</time></trkpt><trkpt lat="43.082255" lon="2.3022583"><ele>261.6</ele><time>2026-03-30T06:40:14.686Z</time></trkpt><trkpt lat="43.0821467" lon="2.3022683"><ele>260.8</ele><time>2026-03-30T06:40:15.685Z</time></trkpt><trkpt lat="43.0820433" lon="2.3022933"><ele>260.0</ele><time>2026-03-30T06:40:16.686Z</time></trkpt><trkpt lat="43.0819483" lon="2.3023433"><ele>260.0</ele><time>2026-03-30T06:40:17.685Z</time></trkpt><trkpt lat="43.0818533" lon="2.3023733"><ele>260.0</ele><time>2026-03-30T06:40:18.686Z</time></trkpt><trkpt lat="43.0817517" lon="2.3023833"><ele>260.0</ele><time>2026-03-30T06:40:19.684Z</time></trkpt><trkpt lat="43.0816517" lon="2.30235"><ele>260.0</ele><time>2026-03-30T06:40:20.685Z</time></trkpt><trkpt lat="43.08155" lon="2.3022883"><ele>260.0</ele><time>2026-03-30T06:40:21.686Z</time></trkpt><trkpt lat="43.0814417" lon="2.30223"><ele>260.0</ele><time>2026-03-30T06:40:22.684Z</time></trkpt><trkpt lat="43.0813283" lon="2.3021967"><ele>260.0</ele><time>2026-03-30T06:40:23.685Z</time></trkpt><trkpt lat="43.0812167" lon="2.3021933"><ele>260.0</ele><time>2026-03-30T06:40:24.687Z</time></trkpt><trkpt lat="43.0811083" lon="2.302205"><ele>260.0</ele><time>2026-03-30T06:40:25.686Z</time></trkpt><trkpt lat="43.0809933" lon="2.302225"><ele>260.0</ele><time>2026-03-30T06:40:26.687Z</time></trkpt><trkpt lat="43.0808917" lon="2.3022383"><ele>260.0</ele><time>2026-03-30T06:40:27.689Z</time></trkpt><trkpt lat="43.0807933" lon="2.302225"><ele>260.0</ele><time>2026-03-30T06:40:28.686Z</time></trkpt><trkpt lat="43.0807067" lon="2.302175"><ele>260.0</ele><time>2026-03-30T06:40:29.688Z</time></trkpt><trkpt lat="43.0806417" lon="2.302075"><ele>260.0</ele><time>2026-03-30T06:40:30.686Z</time></trkpt><trkpt lat="43.0805917" lon="2.3019433"><ele>257.0</ele><time>2026-03-30T06:40:31.685Z</time></trkpt><trkpt lat="43.080545" lon="2.3017983"><ele>254.0</ele><time>2026-03-30T06:40:32.685Z</time></trkpt><trkpt lat="43.0804983" lon="2.3016383"><ele>251.0</ele><time>2026-03-30T06:40:33.685Z</time></trkpt><trkpt lat="43.08045" lon="2.3014883"><ele>248.0</ele><time>2026-03-30T06:40:34.686Z</time></trkpt><trkpt lat="43.0804" lon="2.3013383"><ele>248.0</ele><time>2026-03-30T06:40:35.686Z</time></trkpt><trkpt lat="43.080355" lon="2.30119"><ele>248.0</ele><time>2026-03-30T06:40:36.687Z</time></trkpt><trkpt lat="43.080305" lon="2.3010367"><ele>248.0</ele><time>2026-03-30T06:40:37.687Z</time></trkpt><trkpt lat="43.08025" lon="2.300875"><ele>248.0</ele><time>2026-03-30T06:40:38.687Z</time></trkpt><trkpt lat="43.0801867" lon="2.3007117"><ele>248.25</ele><time>2026-03-30T06:40:39.684Z</time></trkpt><trkpt lat="43.0801133" lon="2.300555"><ele>248.5</ele><time>2026-03-30T06:40:40.686Z</time></trkpt><trkpt lat="43.080035" lon="2.300405"><ele>248.75</ele><time>2026-03-30T06:40:41.685Z</time></trkpt><trkpt lat="43.0799583" lon="2.3002483"><ele>249.0</ele><time>2026-03-30T06:40:42.685Z</time></trkpt><trkpt lat="43.07989" lon="2.30008"><ele>244.33333333333331</ele><time>2026-03-30T06:40:43.685Z</time></trkpt><trkpt lat="43.0798317" lon="2.299895"><ele>239.66666666666666</ele><time>2026-03-30T06:40:44.686Z</time></trkpt><trkpt lat="43.0797717" lon="2.2997033"><ele>235.0</ele><time>2026-03-30T06:40:45.691Z</time></trkpt><trkpt lat="43.07971" lon="2.2995117"><ele>235.0</ele><time>2026-03-30T06:40:46.686Z</time></trkpt><trkpt lat="43.0796417" lon="2.2993283"><ele>235.0</ele><time>2026-03-30T06:40:47.686Z</time></trkpt><trkpt lat="43.0795567" lon="2.2991733"><ele>235.0</ele><time>2026-03-30T06:40:48.686Z</time></trkpt><trkpt lat="43.079455" lon="2.2990467"><ele>235.0</ele><time>2026-03-30T06:40:49.685Z</time></trkpt><trkpt lat="43.0793417" lon="2.29895"><ele>235.75</ele><time>2026-03-30T06:40:50.686Z</time></trkpt><trkpt lat="43.0792233" lon="2.2988517"><ele>236.5</ele><time>2026-03-30T06:40:51.685Z</time></trkpt><trkpt lat="43.07911" lon="2.2987533"><ele>237.25</ele><time>2026-03-30T06:40:52.687Z</time></trkpt><trkpt lat="43.0789983" lon="2.2986517"><ele>238.0</ele><time>2026-03-30T06:40:53.686Z</time></trkpt><trkpt lat="43.0788867" lon="2.29855"><ele>238.0</ele><time>2026-03-30T06:40:54.688Z</time></trkpt><trkpt lat="43.0787733" lon="2.2984483"><ele>238.0</ele><time>2026-03-30T06:40:55.687Z</time></trkpt><trkpt lat="43.078665" lon="2.2983517"><ele>238.0</ele><time>2026-03-30T06:40:56.687Z</time></trkpt><trkpt lat="43.0785533" lon="2.2982617"><ele>238.0</ele><time>2026-03-30T06:40:57.686Z</time></trkpt><trkpt lat="43.0784433" lon="2.298165"><ele>239.25</ele><time>2026-03-30T06:40:58.686Z</time></trkpt><trkpt lat="43.0783267" lon="2.2980733"><ele>240.5</ele><time>2026-03-30T06:40:59.685Z</time></trkpt><trkpt lat="43.0782133" lon="2.298015"><ele>241.75</ele><time>2026-03-30T06:41:00.687Z</time></trkpt><trkpt lat="43.078095" lon="2.2979767"><ele>243.0</ele><time>2026-03-30T06:41:01.686Z</time></trkpt><trkpt lat="43.077975" lon="2.2979633"><ele>243.0</ele><time>2026-03-30T06:41:02.687Z</time></trkpt><trkpt lat="43.0778567" lon="2.2979617"><ele>243.0</ele><time>2026-03-30T06:41:03.686Z</time></trkpt><trkpt lat="43.0777467" lon="2.2979583"><ele>243.0</ele><time>2026-03-30T06:41:04.686Z</time></trkpt><trkpt lat="43.07765" lon="2.2979317"><ele>243.0</ele><time>2026-03-30T06:41:05.685Z</time></trkpt><trkpt lat="43.07756" lon="2.2978817"><ele>243.0</ele><time>2026-03-30T06:41:06.685Z</time></trkpt><trkpt lat="43.077475" lon="2.2978067"><ele>241.4</ele><time>2026-03-30T06:41:07.684Z</time></trkpt><trkpt lat="43.077385" lon="2.2977233"><ele>239.8</ele><time>2026-03-30T06:41:08.685Z</time></trkpt><trkpt lat="43.0772917" lon="2.2976417"><ele>238.2</ele><time>2026-03-30T06:41:09.684Z</time></trkpt><trkpt lat="43.0771967" lon="2.2975683"><ele>236.6</ele><time>2026-03-30T06:41:10.684Z</time></trkpt><trkpt lat="43.0770967" lon="2.2975067"><ele>235.0</ele><time>2026-03-30T06:41:11.686Z</time></trkpt><trkpt lat="43.0769967" lon="2.2974433"><ele>234.99999999999997</ele><time>2026-03-30T06:41:12.685Z</time></trkpt><trkpt lat="43.0769017" lon="2.2973817"><ele>235.0</ele><time>2026-03-30T06:41:13.687Z</time></trkpt><trkpt lat="43.0768183" lon="2.2973167"><ele>235.0</ele><time>2026-03-30T06:41:14.686Z</time></trkpt><trkpt lat="43.076745" lon="2.2972583"><ele>235.0</ele><time>2026-03-30T06:41:15.684Z</time></trkpt><trkpt lat="43.07668" lon="2.297205"><ele>234.99999999999997</ele><time>2026-03-30T06:41:16.686Z</time></trkpt><trkpt lat="43.0766167" lon="2.2971433"><ele>235.0</ele><time>2026-03-30T06:41:17.686Z</time></trkpt><trkpt lat="43.07655" lon="2.2970833"><ele>236.2</ele><time>2026-03-30T06:41:18.685Z</time></trkpt><trkpt lat="43.0764767" lon="2.297015"><ele>237.4</ele><time>2026-03-30T06:41:19.685Z</time></trkpt><trkpt lat="43.0764033" lon="2.2969433"><ele>238.60000000000002</ele><time>2026-03-30T06:41:20.687Z</time></trkpt><trkpt lat="43.0763283" lon="2.296875"><ele>239.8</ele><time>2026-03-30T06:41:21.686Z</time></trkpt><trkpt lat="43.0762467" lon="2.29681"><ele>241.0</ele><time>2026-03-30T06:41:22.685Z</time></trkpt><trkpt lat="43.07616" lon="2.29676"><ele>241.0</ele><time>2026-03-30T06:41:23.685Z</time></trkpt><trkpt lat="43.076065" lon="2.2967233"><ele>241.00000000000003</ele><time>2026-03-30T06:41:24.684Z</time></trkpt><trkpt lat="43.0759667" lon="2.29672"><ele>241.00000000000003</ele><time>2026-03-30T06:41:25.687Z</time></trkpt><trkpt lat="43.0758683" lon="2.296755"><ele>241.0</ele><time>2026-03-30T06:41:26.689Z</time></trkpt><trkpt lat="43.0757783" lon="2.2968217"><ele>241.0</ele><time>2026-03-30T06:41:27.685Z</time></trkpt><trkpt lat="43.0757083" lon="2.2969083"><ele>240.49999999999997</ele><time>2026-03-30T06:41:28.685Z</time></trkpt><trkpt lat="43.0756433" lon="2.2969917"><ele>240.0</ele><time>2026-03-30T06:41:29.686Z</time></trkpt><trkpt lat="43.075585" lon="2.2970717"><ele>239.5</ele><time>2026-03-30T06:41:30.685Z</time></trkpt><trkpt lat="43.07553" lon="2.2971517"><ele>239.0</ele><time>2026-03-30T06:41:31.688Z</time></trkpt><trkpt lat="43.075475" lon="2.2972217"><ele>238.49999999999997</ele><time>2026-03-30T06:41:32.684Z</time></trkpt><trkpt lat="43.0753833" lon="2.2973"><ele>238.0</ele><time>2026-03-30T06:41:34.685Z</time></trkpt><trkpt lat="43.0753283" lon="2.2972483"><ele>237.99999999999997</ele><time>2026-03-30T06:41:36.684Z</time></trkpt><trkpt lat="43.07533" lon="2.2970933"><ele>238.0</ele><time>2026-03-30T06:41:38.689Z</time></trkpt><trkpt lat="43.075355" lon="2.29699"><ele>238.0</ele><time>2026-03-30T06:41:39.685Z</time></trkpt><trkpt lat="43.0753633" lon="2.29689"><ele>238.0</ele><time>2026-03-30T06:41:40.686Z</time></trkpt><trkpt lat="43.0753733" lon="2.2967767"><ele>237.99999999999997</ele><time>2026-03-30T06:41:41.685Z</time></trkpt><trkpt lat="43.0753717" lon="2.2966533"><ele>238.0</ele><time>2026-03-30T06:41:42.685Z</time></trkpt><trkpt lat="43.07534" lon="2.2965367"><ele>238.0</ele><time>2026-03-30T06:41:43.692Z</time></trkpt><trkpt lat="43.07529" lon="2.2964317"><ele>238.0</ele><time>2026-03-30T06:41:44.688Z</time></trkpt><trkpt lat="43.0752267" lon="2.29634"><ele>238.0</ele><time>2026-03-30T06:41:45.688Z</time></trkpt><trkpt lat="43.07517" lon="2.2962433"><ele>238.0</ele><time>2026-03-30T06:41:46.686Z</time></trkpt><trkpt lat="43.0751167" lon="2.29614"><ele>238.0</ele><time>2026-03-30T06:41:47.688Z</time></trkpt><trkpt lat="43.0750633" lon="2.2960333"><ele>238.4</ele><time>2026-03-30T06:41:48.685Z</time></trkpt><trkpt lat="43.0750083" lon="2.2959233"><ele>238.8</ele><time>2026-03-30T06:41:49.693Z</time></trkpt><trkpt lat="43.0749417" lon="2.2958117"><ele>239.2</ele><time>2026-03-30T06:41:50.684Z</time></trkpt><trkpt lat="43.0748683" lon="2.2957067"><ele>239.6</ele><time>2026-03-30T06:41:51.688Z</time></trkpt><trkpt lat="43.0747883" lon="2.2956167"><ele>240.0</ele><time>2026-03-30T06:41:52.687Z</time></trkpt><trkpt lat="43.074705" lon="2.2955417"><ele>241.0</ele><time>2026-03-30T06:41:53.687Z</time></trkpt><trkpt lat="43.0746217" lon="2.2954667"><ele>242.0</ele><time>2026-03-30T06:41:54.685Z</time></trkpt><trkpt lat="43.0745433" lon="2.29538"><ele>243.0</ele><time>2026-03-30T06:41:55.688Z</time></trkpt><trkpt lat="43.0744717" lon="2.2952767"><ele>244.0</ele><time>2026-03-30T06:41:56.688Z</time></trkpt><trkpt lat="43.074405" lon="2.295155"><ele>245.0</ele><time>2026-03-30T06:41:57.687Z</time></trkpt><trkpt lat="43.0743467" lon="2.2950183"><ele>245.0</ele><time>2026-03-30T06:41:58.686Z</time></trkpt><trkpt lat="43.0742967" lon="2.2948717"><ele>245.0</ele><time>2026-03-30T06:41:59.686Z</time></trkpt><trkpt lat="43.07426" lon="2.294715"><ele>245.0</ele><time>2026-03-30T06:42:00.686Z</time></trkpt><trkpt lat="43.0742333" lon="2.294545"><ele>245.0</ele><time>2026-03-30T06:42:01.686Z</time></trkpt><trkpt lat="43.0742017" lon="2.2943683"><ele>245.25</ele><time>2026-03-30T06:42:02.686Z</time></trkpt><trkpt lat="43.0741467" lon="2.2942"><ele>245.5</ele><time>2026-03-30T06:42:03.686Z</time></trkpt><trkpt lat="43.0740683" lon="2.2940483"><ele>245.75</ele><time>2026-03-30T06:42:04.686Z</time></trkpt><trkpt lat="43.0739767" lon="2.293915"><ele>246.0</ele><time>2026-03-30T06:42:05.685Z</time></trkpt><trkpt lat="43.0738833" lon="2.2937933"><ele>246.0</ele><time>2026-03-30T06:42:06.686Z</time></trkpt><trkpt lat="43.0737983" lon="2.2936717"><ele>246.0</ele><time>2026-03-30T06:42:07.686Z</time></trkpt><trkpt lat="43.07372" lon="2.2935333"><ele>246.0</ele><time>2026-03-30T06:42:08.688Z</time></trkpt><trkpt lat="43.0736567" lon="2.29338"><ele>246.0</ele><time>2026-03-30T06:42:09.685Z</time></trkpt><trkpt lat="43.0735967" lon="2.2932117"><ele>247.5</ele><time>2026-03-30T06:42:10.686Z</time></trkpt><trkpt lat="43.0735417" lon="2.2930367"><ele>249.0</ele><time>2026-03-30T06:42:11.684Z</time></trkpt><trkpt lat="43.07349" lon="2.2928583"><ele>250.5</ele><time>2026-03-30T06:42:12.686Z</time></trkpt><trkpt lat="43.0734333" lon="2.2926767"><ele>252.0</ele><time>2026-03-30T06:42:13.686Z</time></trkpt><trkpt lat="43.0733783" lon="2.2924933"><ele>252.0</ele><time>2026-03-30T06:42:14.685Z</time></trkpt><trkpt lat="43.0733183" lon="2.2923133"><ele>252.0</ele><time>2026-03-30T06:42:15.686Z</time></trkpt><trkpt lat="43.0732483" lon="2.2921433"><ele>252.0</ele><time>2026-03-30T06:42:16.685Z</time></trkpt><trkpt lat="43.0731633" lon="2.29198"><ele>252.0</ele><time>2026-03-30T06:42:17.685Z</time></trkpt><trkpt lat="43.0730717" lon="2.29182"><ele>253.0</ele><time>2026-03-30T06:42:18.687Z</time></trkpt><trkpt lat="43.0729783" lon="2.29167"><ele>254.0</ele><time>2026-03-30T06:42:19.685Z</time></trkpt><trkpt lat="43.0728667" lon="2.2915233"><ele>255.0</ele><time>2026-03-30T06:42:20.686Z</time></trkpt><trkpt lat="43.0727617" lon="2.2913683"><ele>256.3333333333333</ele><time>2026-03-30T06:42:21.684Z</time></trkpt><trkpt lat="43.07266" lon="2.2912033"><ele>257.66666666666663</ele><time>2026-03-30T06:42:22.685Z</time></trkpt><trkpt lat="43.072565" lon="2.2910333"><ele>259.0</ele><time>2026-03-30T06:42:23.685Z</time></trkpt><trkpt lat="43.07248" lon="2.2908633"><ele>260.0</ele><time>2026-03-30T06:42:24.685Z</time></trkpt><trkpt lat="43.0724067" lon="2.290685"><ele>261.0</ele><time>2026-03-30T06:42:25.685Z</time></trkpt><trkpt lat="43.07235" lon="2.2904917"><ele>262.0</ele><time>2026-03-30T06:42:26.687Z</time></trkpt><trkpt lat="43.0722883" lon="2.2903"><ele>262.66666666666663</ele><time>2026-03-30T06:42:27.686Z</time></trkpt><trkpt lat="43.07221" lon="2.2901183"><ele>263.3333333333333</ele><time>2026-03-30T06:42:28.686Z</time></trkpt><trkpt lat="43.0721233" lon="2.2899483"><ele>264.0</ele><time>2026-03-30T06:42:29.685Z</time></trkpt><trkpt lat="43.072035" lon="2.2897817"><ele>266.0</ele><time>2026-03-30T06:42:30.685Z</time></trkpt><trkpt lat="43.0719417" lon="2.2896233"><ele>268.0</ele><time>2026-03-30T06:42:31.685Z</time></trkpt><trkpt lat="43.0718383" lon="2.289485"><ele>270.0</ele><time>2026-03-30T06:42:32.685Z</time></trkpt><trkpt lat="43.0717333" lon="2.28937"><ele>272.0</ele><time>2026-03-30T06:42:33.684Z</time></trkpt><trkpt lat="43.07163" lon="2.28928"><ele>274.75</ele><time>2026-03-30T06:42:34.684Z</time></trkpt><trkpt lat="43.0715183" lon="2.2892317"><ele>277.5</ele><time>2026-03-30T06:42:35.684Z</time></trkpt><trkpt lat="43.0714067" lon="2.2892017"><ele>280.25</ele><time>2026-03-30T06:42:36.685Z</time></trkpt><trkpt lat="43.0713033" lon="2.2891467"><ele>283.0</ele><time>2026-03-30T06:42:37.685Z</time></trkpt><trkpt lat="43.071225" lon="2.2890333"><ele>283.25</ele><time>2026-03-30T06:42:38.684Z</time></trkpt><trkpt lat="43.071175" lon="2.2888883"><ele>283.5</ele><time>2026-03-30T06:42:39.685Z</time></trkpt><trkpt lat="43.0711567" lon="2.2887267"><ele>283.75</ele><time>2026-03-30T06:42:40.686Z</time></trkpt><trkpt lat="43.07117" lon="2.2885633"><ele>284.0</ele><time>2026-03-30T06:42:41.686Z</time></trkpt><trkpt lat="43.0712167" lon="2.28841"><ele>284.0</ele><time>2026-03-30T06:42:42.686Z</time></trkpt><trkpt lat="43.0712667" lon="2.288275"><ele>284.0</ele><time>2026-03-30T06:42:43.688Z</time></trkpt><trkpt lat="43.07131" lon="2.2881617"><ele>284.0</ele><time>2026-03-30T06:42:44.686Z</time></trkpt><trkpt lat="43.0713433" lon="2.288065"><ele>284.0</ele><time>2026-03-30T06:42:45.685Z</time></trkpt><trkpt lat="43.0713667" lon="2.2879767"><ele>284.0</ele><time>2026-03-30T06:42:46.686Z</time></trkpt><trkpt lat="43.071325" lon="2.2878733"><ele>284.0</ele><time>2026-03-30T06:42:48.686Z</time></trkpt><trkpt lat="43.0712267" lon="2.287915"><ele>284.0</ele><time>2026-03-30T06:42:50.687Z</time></trkpt><trkpt lat="43.071185" lon="2.2879917"><ele>284.0</ele><time>2026-03-30T06:42:51.687Z</time></trkpt><trkpt lat="43.071155" lon="2.2881083"><ele>284.0</ele><time>2026-03-30T06:42:52.686Z</time></trkpt><trkpt lat="43.07113" lon="2.2882317"><ele>284.0</ele><time>2026-03-30T06:42:53.687Z</time></trkpt><trkpt lat="43.071095" lon="2.2883533"><ele>284.0</ele><time>2026-03-30T06:42:54.687Z</time></trkpt><trkpt lat="43.07104" lon="2.2884617"><ele>284.0</ele><time>2026-03-30T06:42:55.685Z</time></trkpt><trkpt lat="43.0709667" lon="2.2885467"><ele>284.0</ele><time>2026-03-30T06:42:56.689Z</time></trkpt><trkpt lat="43.0708867" lon="2.2885883"><ele>284.0</ele><time>2026-03-30T06:42:57.685Z</time></trkpt><trkpt lat="43.070805" lon="2.2885817"><ele>284.0</ele><time>2026-03-30T06:42:58.688Z</time></trkpt><trkpt lat="43.0707317" lon="2.2885183"><ele>284.0</ele><time>2026-03-30T06:42:59.691Z</time></trkpt><trkpt lat="43.070655" lon="2.2884233"><ele>284.0</ele><time>2026-03-30T06:43:00.689Z</time></trkpt><trkpt lat="43.0705667" lon="2.2883133"><ele>284.25</ele><time>2026-03-30T06:43:01.687Z</time></trkpt><trkpt lat="43.0704767" lon="2.2881983"><ele>284.5</ele><time>2026-03-30T06:43:02.688Z</time></trkpt><trkpt lat="43.0703867" lon="2.288085"><ele>284.75</ele><time>2026-03-30T06:43:03.687Z</time></trkpt><trkpt lat="43.0702883" lon="2.2879767"><ele>285.0</ele><time>2026-03-30T06:43:04.686Z</time></trkpt><trkpt lat="43.0701867" lon="2.2878917"><ele>285.0</ele><time>2026-03-30T06:43:05.686Z</time></trkpt><trkpt lat="43.0700783" lon="2.287835"><ele>285.0</ele><time>2026-03-30T06:43:06.688Z</time></trkpt><trkpt lat="43.069965" lon="2.2878"><ele>285.0</ele><time>2026-03-30T06:43:07.686Z</time></trkpt><trkpt lat="43.069845" lon="2.28778"><ele>285.0</ele><time>2026-03-30T06:43:08.687Z</time></trkpt><trkpt lat="43.06971" lon="2.2877667"><ele>286.25</ele><time>2026-03-30T06:43:09.687Z</time></trkpt><trkpt lat="43.06956" lon="2.2877467"><ele>287.5</ele><time>2026-03-30T06:43:10.686Z</time></trkpt><trkpt lat="43.0694117" lon="2.287715"><ele>288.75</ele><time>2026-03-30T06:43:11.688Z</time></trkpt><trkpt lat="43.0692683" lon="2.2876817"><ele>290.0</ele><time>2026-03-30T06:43:12.687Z</time></trkpt><trkpt lat="43.0691233" lon="2.2876567"><ele>291.0</ele><time>2026-03-30T06:43:13.687Z</time></trkpt><trkpt lat="43.068975" lon="2.2876417"><ele>292.0</ele><time>2026-03-30T06:43:14.687Z</time></trkpt><trkpt lat="43.0688383" lon="2.2876233"><ele>293.0</ele><time>2026-03-30T06:43:15.686Z</time></trkpt><trkpt lat="43.068705" lon="2.2876033"><ele>294.0</ele><time>2026-03-30T06:43:16.687Z</time></trkpt><trkpt lat="43.0685767" lon="2.2875733"><ele>294.0</ele><time>2026-03-30T06:43:17.686Z</time></trkpt><trkpt lat="43.0684517" lon="2.287535"><ele>294.0</ele><time>2026-03-30T06:43:18.687Z</time></trkpt><trkpt lat="43.068325" lon="2.28748"><ele>294.0</ele><time>2026-03-30T06:43:19.685Z</time></trkpt><trkpt lat="43.068195" lon="2.2874067"><ele>294.0</ele><time>2026-03-30T06:43:20.686Z</time></trkpt><trkpt lat="43.06807" lon="2.2873317"><ele>296.25</ele><time>2026-03-30T06:43:21.687Z</time></trkpt><trkpt lat="43.0679467" lon="2.2872583"><ele>298.5</ele><time>2026-03-30T06:43:22.688Z</time></trkpt><trkpt lat="43.0678267" lon="2.2871883"><ele>300.75</ele><time>2026-03-30T06:43:23.686Z</time></trkpt><trkpt lat="43.0677083" lon="2.2871167"><ele>303.0</ele><time>2026-03-30T06:43:24.686Z</time></trkpt><trkpt lat="43.0675917" lon="2.28704"><ele>303.0</ele><time>2026-03-30T06:43:25.687Z</time></trkpt><trkpt lat="43.0674767" lon="2.2869717"><ele>303.0</ele><time>2026-03-30T06:43:26.686Z</time></trkpt><trkpt lat="43.0673583" lon="2.2869067"><ele>303.0</ele><time>2026-03-30T06:43:27.689Z</time></trkpt><trkpt lat="43.067235" lon="2.2868417"><ele>303.0</ele><time>2026-03-30T06:43:28.69Z</time></trkpt><trkpt lat="43.0671033" lon="2.2867767"><ele>305.0</ele><time>2026-03-30T06:43:29.687Z</time></trkpt><trkpt lat="43.0669683" lon="2.2867033"><ele>307.0</ele><time>2026-03-30T06:43:30.687Z</time></trkpt><trkpt lat="43.066835" lon="2.2866283"><ele>309.0</ele><time>2026-03-30T06:43:31.687Z</time></trkpt><trkpt lat="43.0667067" lon="2.2865583"><ele>311.0</ele><time>2026-03-30T06:43:32.687Z</time></trkpt><trkpt lat="43.06658" lon="2.2864833"><ele>312.75</ele><time>2026-03-30T06:43:33.687Z</time></trkpt><trkpt lat="43.0664517" lon="2.2864067"><ele>314.5</ele><time>2026-03-30T06:43:34.685Z</time></trkpt><trkpt lat="43.0663267" lon="2.286325"><ele>316.25</ele><time>2026-03-30T06:43:35.686Z</time></trkpt><trkpt lat="43.0662133" lon="2.28624"><ele>318.0</ele><time>2026-03-30T06:43:36.686Z</time></trkpt><trkpt lat="43.06611" lon="2.2861583"><ele>318.0</ele><time>2026-03-30T06:43:37.685Z</time></trkpt><trkpt lat="43.0660067" lon="2.286085"><ele>318.0</ele><time>2026-03-30T06:43:38.687Z</time></trkpt><trkpt lat="43.0659017" lon="2.28603"><ele>318.0</ele><time>2026-03-30T06:43:39.687Z</time></trkpt><trkpt lat="43.0658033" lon="2.285995"><ele>318.0</ele><time>2026-03-30T06:43:40.687Z</time></trkpt><trkpt lat="43.0657117" lon="2.285975"><ele>318.0</ele><time>2026-03-30T06:43:41.686Z</time></trkpt><trkpt lat="43.0656217" lon="2.2859417"><ele>317.2</ele><time>2026-03-30T06:43:42.688Z</time></trkpt><trkpt lat="43.0655383" lon="2.2858717"><ele>316.4</ele><time>2026-03-30T06:43:43.685Z</time></trkpt><trkpt lat="43.0654567" lon="2.2857733"><ele>315.59999999999997</ele><time>2026-03-30T06:43:44.686Z</time></trkpt><trkpt lat="43.065365" lon="2.2856767"><ele>314.8</ele><time>2026-03-30T06:43:45.686Z</time></trkpt><trkpt lat="43.0652667" lon="2.2855867"><ele>314.0</ele><time>2026-03-30T06:43:46.685Z</time></trkpt><trkpt lat="43.0651683" lon="2.2855033"><ele>315.0</ele><time>2026-03-30T06:43:47.686Z</time></trkpt><trkpt lat="43.0650833" lon="2.2854233"><ele>316.0</ele><time>2026-03-30T06:43:48.687Z</time></trkpt><trkpt lat="43.0650067" lon="2.285355"><ele>317.0</ele><time>2026-03-30T06:43:49.686Z</time></trkpt><trkpt lat="43.0649317" lon="2.28529"><ele>318.0</ele><time>2026-03-30T06:43:50.685Z</time></trkpt><trkpt lat="43.0648617" lon="2.285225"><ele>319.0</ele><time>2026-03-30T06:43:51.685Z</time></trkpt><trkpt lat="43.064785" lon="2.28517"><ele>319.0</ele><time>2026-03-30T06:43:52.685Z</time></trkpt><trkpt lat="43.0646967" lon="2.2851317"><ele>319.0</ele><time>2026-03-30T06:43:53.685Z</time></trkpt><trkpt lat="43.064595" lon="2.285125"><ele>319.0</ele><time>2026-03-30T06:43:54.686Z</time></trkpt><trkpt lat="43.06448" lon="2.28514"><ele>319.0</ele><time>2026-03-30T06:43:55.686Z</time></trkpt><trkpt lat="43.0643633" lon="2.2851617"><ele>319.0</ele><time>2026-03-30T06:43:56.688Z</time></trkpt><trkpt lat="43.0642467" lon="2.2851817"><ele>319.0</ele><time>2026-03-30T06:43:57.687Z</time></trkpt><trkpt lat="43.0641383" lon="2.2851983"><ele>319.0</ele><time>2026-03-30T06:43:58.685Z</time></trkpt><trkpt lat="43.0640333" lon="2.2852183"><ele>319.0</ele><time>2026-03-30T06:43:59.689Z</time></trkpt><trkpt lat="43.0639383" lon="2.2852417"><ele>319.0</ele><time>2026-03-30T06:44:00.686Z</time></trkpt><trkpt lat="43.0638583" lon="2.2852783"><ele>319.0</ele><time>2026-03-30T06:44:01.686Z</time></trkpt><trkpt lat="43.0637883" lon="2.2853067"><ele>317.16666666666663</ele><time>2026-03-30T06:44:02.689Z</time></trkpt><trkpt lat="43.063725" lon="2.2853067"><ele>315.3333333333333</ele><time>2026-03-30T06:44:03.686Z</time></trkpt><trkpt lat="43.0636367" lon="2.2852033"><ele>313.5</ele><time>2026-03-30T06:44:05.686Z</time></trkpt><trkpt lat="43.0636233" lon="2.2850967"><ele>311.6666666666667</ele><time>2026-03-30T06:44:06.686Z</time></trkpt><trkpt lat="43.0636133" lon="2.2849767"><ele>309.83333333333337</ele><time>2026-03-30T06:44:07.686Z</time></trkpt><trkpt lat="43.0635883" lon="2.2848633"><ele>308.0</ele><time>2026-03-30T06:44:08.686Z</time></trkpt><trkpt lat="43.0635517" lon="2.28477"><ele>308.2</ele><time>2026-03-30T06:44:09.687Z</time></trkpt><trkpt lat="43.0634883" lon="2.2846983"><ele>308.4</ele><time>2026-03-30T06:44:10.685Z</time></trkpt><trkpt lat="43.0634133" lon="2.2846267"><ele>308.59999999999997</ele><time>2026-03-30T06:44:11.686Z</time></trkpt><trkpt lat="43.063325" lon="2.284535"><ele>308.8</ele><time>2026-03-30T06:44:12.687Z</time></trkpt><trkpt lat="43.063235" lon="2.2844317"><ele>309.0</ele><time>2026-03-30T06:44:13.685Z</time></trkpt><trkpt lat="43.0631467" lon="2.28432"><ele>308.8</ele><time>2026-03-30T06:44:14.689Z</time></trkpt><trkpt lat="43.0630617" lon="2.28421"><ele>308.59999999999997</ele><time>2026-03-30T06:44:15.685Z</time></trkpt><trkpt lat="43.062985" lon="2.2841083"><ele>308.4</ele><time>2026-03-30T06:44:16.685Z</time></trkpt><trkpt lat="43.0629217" lon="2.2840133"><ele>308.2</ele><time>2026-03-30T06:44:17.687Z</time></trkpt><trkpt lat="43.06287" lon="2.2839033"><ele>308.0</ele><time>2026-03-30T06:44:18.687Z</time></trkpt><trkpt lat="43.0628183" lon="2.2837967"><ele>308.0</ele><time>2026-03-30T06:44:19.686Z</time></trkpt><trkpt lat="43.0627583" lon="2.2836967"><ele>308.0</ele><time>2026-03-30T06:44:20.686Z</time></trkpt><trkpt lat="43.0626733" lon="2.283605"><ele>308.0</ele><time>2026-03-30T06:44:21.686Z</time></trkpt><trkpt lat="43.062585" lon="2.283505"><ele>308.0</ele><time>2026-03-30T06:44:22.686Z</time></trkpt><trkpt lat="43.062495" lon="2.2834"><ele>308.0</ele><time>2026-03-30T06:44:23.686Z</time></trkpt><trkpt lat="43.06241" lon="2.2833017"><ele>308.25</ele><time>2026-03-30T06:44:24.687Z</time></trkpt><trkpt lat="43.0623333" lon="2.2831967"><ele>308.5</ele><time>2026-03-30T06:44:25.685Z</time></trkpt><trkpt lat="43.0622667" lon="2.28308"><ele>308.75</ele><time>2026-03-30T06:44:26.689Z</time></trkpt><trkpt lat="43.0621967" lon="2.28295"><ele>309.0</ele><time>2026-03-30T06:44:27.685Z</time></trkpt><trkpt lat="43.0621317" lon="2.2828133"><ele>310.0</ele><time>2026-03-30T06:44:28.687Z</time></trkpt><trkpt lat="43.06207" lon="2.282685"><ele>311.0</ele><time>2026-03-30T06:44:29.689Z</time></trkpt><trkpt lat="43.0620133" lon="2.2825683"><ele>312.0</ele><time>2026-03-30T06:44:30.686Z</time></trkpt><trkpt lat="43.061965" lon="2.282465"><ele>313.0</ele><time>2026-03-30T06:44:31.686Z</time></trkpt><trkpt lat="43.0619283" lon="2.28236"><ele>314.0</ele><time>2026-03-30T06:44:32.688Z</time></trkpt><trkpt lat="43.061905" lon="2.28225"><ele>315.83333333333337</ele><time>2026-03-30T06:44:33.686Z</time></trkpt><trkpt lat="43.0618883" lon="2.28215"><ele>317.6666666666667</ele><time>2026-03-30T06:44:34.685Z</time></trkpt><trkpt lat="43.0618717" lon="2.282065"><ele>319.5</ele><time>2026-03-30T06:44:35.688Z</time></trkpt><trkpt lat="43.0618317" lon="2.2819133"><ele>321.3333333333333</ele><time>2026-03-30T06:44:37.687Z</time></trkpt><trkpt lat="43.0618183" lon="2.28182"><ele>323.16666666666663</ele><time>2026-03-30T06:44:38.686Z</time></trkpt><trkpt lat="43.0618033" lon="2.2817267"><ele>325.0</ele><time>2026-03-30T06:44:39.685Z</time></trkpt><trkpt lat="43.061785" lon="2.2816167"><ele>325.0</ele><time>2026-03-30T06:44:40.686Z</time></trkpt><trkpt lat="43.0617583" lon="2.2814917"><ele>325.0</ele><time>2026-03-30T06:44:41.687Z</time></trkpt><trkpt lat="43.061735" lon="2.2813533"><ele>325.0</ele><time>2026-03-30T06:44:42.687Z</time></trkpt><trkpt lat="43.061715" lon="2.2812133"><ele>325.0</ele><time>2026-03-30T06:44:43.685Z</time></trkpt><trkpt lat="43.0617017" lon="2.281075"><ele>325.0</ele><time>2026-03-30T06:44:44.687Z</time></trkpt><trkpt lat="43.0616917" lon="2.2809483"><ele>326.8333333333333</ele><time>2026-03-30T06:44:45.685Z</time></trkpt><trkpt lat="43.061665" lon="2.28083"><ele>328.66666666666663</ele><time>2026-03-30T06:44:46.685Z</time></trkpt><trkpt lat="43.0616267" lon="2.2807217"><ele>330.5</ele><time>2026-03-30T06:44:47.685Z</time></trkpt><trkpt lat="43.0615783" lon="2.280615"><ele>332.3333333333333</ele><time>2026-03-30T06:44:48.686Z</time></trkpt><trkpt lat="43.0615233" lon="2.28053"><ele>334.1666666666667</ele><time>2026-03-30T06:44:49.686Z</time></trkpt><trkpt lat="43.0614617" lon="2.28046"><ele>336.0</ele><time>2026-03-30T06:44:50.688Z</time></trkpt><trkpt lat="43.0613983" lon="2.2804017"><ele>339.1666666666667</ele><time>2026-03-30T06:44:51.686Z</time></trkpt><trkpt lat="43.061335" lon="2.28034"><ele>342.3333333333333</ele><time>2026-03-30T06:44:52.685Z</time></trkpt><trkpt lat="43.061265" lon="2.2802783"><ele>345.5</ele><time>2026-03-30T06:44:53.686Z</time></trkpt><trkpt lat="43.0611917" lon="2.2802133"><ele>348.66666666666663</ele><time>2026-03-30T06:44:54.686Z</time></trkpt><trkpt lat="43.0611167" lon="2.280145"><ele>351.8333333333333</ele><time>2026-03-30T06:44:55.685Z</time></trkpt><trkpt lat="43.0610567" lon="2.2800833"><ele>355.0</ele><time>2026-03-30T06:44:56.685Z</time></trkpt><trkpt lat="43.060965" lon="2.2799783"><ele>355.0</ele><time>2026-03-30T06:44:58.685Z</time></trkpt><trkpt lat="43.0609217" lon="2.2799117"><ele>355.0</ele><time>2026-03-30T06:44:59.685Z</time></trkpt><trkpt lat="43.0608717" lon="2.279825"><ele>355.0</ele><time>2026-03-30T06:45:00.686Z</time></trkpt><trkpt lat="43.0608217" lon="2.27974"><ele>355.0</ele><time>2026-03-30T06:45:01.685Z</time></trkpt><trkpt lat="43.0607733" lon="2.279655"><ele>355.0</ele><time>2026-03-30T06:45:02.688Z</time></trkpt><trkpt lat="43.0607167" lon="2.27957"><ele>355.0</ele><time>2026-03-30T06:45:03.685Z</time></trkpt><trkpt lat="43.0606383" lon="2.2794967"><ele>356.5</ele><time>2026-03-30T06:45:04.686Z</time></trkpt><trkpt lat="43.0605583" lon="2.27942"><ele>358.0</ele><time>2026-03-30T06:45:05.686Z</time></trkpt><trkpt lat="43.06048" lon="2.2793483"><ele>359.5</ele><time>2026-03-30T06:45:06.686Z</time></trkpt><trkpt lat="43.0604067" lon="2.27928"><ele>361.0</ele><time>2026-03-30T06:45:07.686Z</time></trkpt><trkpt lat="43.0603433" lon="2.2792067"><ele>362.5</ele><time>2026-03-30T06:45:08.687Z</time></trkpt><trkpt lat="43.0602817" lon="2.279145"><ele>364.0</ele><time>2026-03-30T06:45:09.69Z</time></trkpt><trkpt lat="43.0602283" lon="2.2790933"><ele>364.0</ele><time>2026-03-30T06:45:10.686Z</time></trkpt><trkpt lat="43.06013" lon="2.279"><ele>364.0</ele><time>2026-03-30T06:45:12.69Z</time></trkpt><trkpt lat="43.060075" lon="2.2789567"><ele>364.0</ele><time>2026-03-30T06:45:13.688Z</time></trkpt><trkpt lat="43.0599933" lon="2.27889"><ele>364.0</ele><time>2026-03-30T06:45:15.686Z</time></trkpt><trkpt lat="43.05996" lon="2.2788083"><ele>364.0</ele><time>2026-03-30T06:45:17.686Z</time></trkpt><trkpt lat="43.0599233" lon="2.2786717"><ele>363.8333333333333</ele><time>2026-03-30T06:45:19.686Z</time></trkpt><trkpt lat="43.0598683" lon="2.27852"><ele>363.66666666666663</ele><time>2026-03-30T06:45:21.686Z</time></trkpt><trkpt lat="43.05983" lon="2.2784283"><ele>363.5</ele><time>2026-03-30T06:45:22.687Z</time></trkpt><trkpt lat="43.059795" lon="2.2783417"><ele>363.3333333333333</ele><time>2026-03-30T06:45:23.687Z</time></trkpt><trkpt lat="43.05977" lon="2.2782583"><ele>363.1666666666667</ele><time>2026-03-30T06:45:24.686Z</time></trkpt><trkpt lat="43.0597367" lon="2.278175"><ele>363.0</ele><time>2026-03-30T06:45:25.686Z</time></trkpt><trkpt lat="43.0596983" lon="2.2780933"><ele>363.0</ele><time>2026-03-30T06:45:26.688Z</time></trkpt><trkpt lat="43.0596533" lon="2.2780317"><ele>363.0</ele><time>2026-03-30T06:45:27.687Z</time></trkpt><trkpt lat="43.059555" lon="2.27794"><ele>363.0</ele><time>2026-03-30T06:45:29.686Z</time></trkpt><trkpt lat="43.0594533" lon="2.2778583"><ele>363.0</ele><time>2026-03-30T06:45:31.686Z</time></trkpt><trkpt lat="43.0593933" lon="2.277815"><ele>363.0</ele><time>2026-03-30T06:45:32.687Z</time></trkpt><trkpt lat="43.059315" lon="2.2777683"><ele>363.0</ele><time>2026-03-30T06:45:33.686Z</time></trkpt><trkpt lat="43.0592333" lon="2.27772"><ele>363.0</ele><time>2026-03-30T06:45:34.687Z</time></trkpt><trkpt lat="43.0591467" lon="2.277685"><ele>363.0</ele><time>2026-03-30T06:45:35.687Z</time></trkpt><trkpt lat="43.05907" lon="2.277655"><ele>363.0</ele><time>2026-03-30T06:45:36.692Z</time></trkpt><trkpt lat="43.0589967" lon="2.2776317"><ele>363.0</ele><time>2026-03-30T06:45:37.687Z</time></trkpt><trkpt lat="43.05893" lon="2.277585"><ele>363.0</ele><time>2026-03-30T06:45:39.686Z</time></trkpt><trkpt lat="43.0588833" lon="2.277525"><ele>363.59999999999997</ele><time>2026-03-30T06:45:44.687Z</time></trkpt><trkpt lat="43.0588183" lon="2.277435"><ele>364.2</ele><time>2026-03-30T06:45:47.687Z</time></trkpt><trkpt lat="43.05873" lon="2.2773233"><ele>364.8</ele><time>2026-03-30T06:45:49.685Z</time></trkpt><trkpt lat="43.05869" lon="2.2772517"><ele>365.4</ele><time>2026-03-30T06:45:50.686Z</time></trkpt><trkpt lat="43.058625" lon="2.27717"><ele>366.0</ele><time>2026-03-30T06:45:51.687Z</time></trkpt><trkpt lat="43.0585617" lon="2.277085"><ele>366.0</ele><time>2026-03-30T06:45:52.687Z</time></trkpt><trkpt lat="43.0585183" lon="2.27702"><ele>366.0</ele><time>2026-03-30T06:45:53.686Z</time></trkpt><trkpt lat="43.0584617" lon="2.2769283"><ele>366.0</ele><time>2026-03-30T06:45:55.689Z</time></trkpt><trkpt lat="43.0583967" lon="2.2768217"><ele>366.0</ele><time>2026-03-30T06:45:57.688Z</time></trkpt><trkpt lat="43.0583433" lon="2.2767433"><ele>366.0</ele><time>2026-03-30T06:45:59.686Z</time></trkpt><trkpt lat="43.05827" lon="2.2767017"><ele>366.0</ele><time>2026-03-30T06:46:01.687Z</time></trkpt><trkpt lat="43.0581783" lon="2.2766867"><ele>366.3333333333333</ele><time>2026-03-30T06:46:03.687Z</time></trkpt><trkpt lat="43.05813" lon="2.2767617"><ele>366.6666666666667</ele><time>2026-03-30T06:46:06.687Z</time></trkpt><trkpt lat="43.058185" lon="2.27687"><ele>367.0</ele><time>2026-03-30T06:46:08.687Z</time></trkpt><trkpt lat="43.05822" lon="2.2769833"><ele>367.33333333333337</ele><time>2026-03-30T06:46:10.686Z</time></trkpt><trkpt lat="43.0581933" lon="2.2770617"><ele>367.6666666666667</ele><time>2026-03-30T06:46:11.685Z</time></trkpt><trkpt lat="43.0581367" lon="2.2771583"><ele>368.0</ele><time>2026-03-30T06:46:12.686Z</time></trkpt><trkpt lat="43.0580617" lon="2.2772517"><ele>368.0</ele><time>2026-03-30T06:46:13.685Z</time></trkpt><trkpt lat="43.0579867" lon="2.2773333"><ele>368.0</ele><time>2026-03-30T06:46:14.687Z</time></trkpt><trkpt lat="43.057905" lon="2.2774067"><ele>368.0</ele><time>2026-03-30T06:46:15.685Z</time></trkpt><trkpt lat="43.057825" lon="2.2774683"><ele>368.0</ele><time>2026-03-30T06:46:16.687Z</time></trkpt><trkpt lat="43.0577467" lon="2.2775233"><ele>368.0</ele><time>2026-03-30T06:46:17.685Z</time></trkpt><trkpt lat="43.0576733" lon="2.2775717"><ele>368.0</ele><time>2026-03-30T06:46:18.686Z</time></trkpt><trkpt lat="43.0576033" lon="2.277605"><ele>368.0</ele><time>2026-03-30T06:46:19.689Z</time></trkpt><trkpt lat="43.0575367" lon="2.2776333"><ele>368.0</ele><time>2026-03-30T06:46:20.687Z</time></trkpt><trkpt lat="43.0574717" lon="2.2776717"><ele>368.0</ele><time>2026-03-30T06:46:21.686Z</time></trkpt><trkpt lat="43.057415" lon="2.2777467"><ele>368.0</ele><time>2026-03-30T06:46:22.687Z</time></trkpt><trkpt lat="43.057365" lon="2.2778417"><ele>368.0</ele><time>2026-03-30T06:46:23.689Z</time></trkpt><trkpt lat="43.0573217" lon="2.2779433"><ele>367.0</ele><time>2026-03-30T06:46:24.685Z</time></trkpt><trkpt lat="43.05728" lon="2.2780433"><ele>366.0</ele><time>2026-03-30T06:46:25.688Z</time></trkpt><trkpt lat="43.05724" lon="2.2781417"><ele>365.0</ele><time>2026-03-30T06:46:26.687Z</time></trkpt><trkpt lat="43.05719" lon="2.2782367"><ele>364.0</ele><time>2026-03-30T06:46:27.684Z</time></trkpt><trkpt lat="43.0571283" lon="2.278325"><ele>363.0</ele><time>2026-03-30T06:46:28.686Z</time></trkpt><trkpt lat="43.0570583" lon="2.278425"><ele>362.0</ele><time>2026-03-30T06:46:29.686Z</time></trkpt><trkpt lat="43.0569983" lon="2.2785317"><ele>361.83333333333337</ele><time>2026-03-30T06:46:30.686Z</time></trkpt><trkpt lat="43.0569467" lon="2.2786483"><ele>361.6666666666667</ele><time>2026-03-30T06:46:31.686Z</time></trkpt><trkpt lat="43.0569" lon="2.2787633"><ele>361.5</ele><time>2026-03-30T06:46:32.685Z</time></trkpt><trkpt lat="43.0568533" lon="2.2788717"><ele>361.3333333333333</ele><time>2026-03-30T06:46:33.684Z</time></trkpt><trkpt lat="43.0568067" lon="2.278965"><ele>361.16666666666663</ele><time>2026-03-30T06:46:34.686Z</time></trkpt><trkpt lat="43.056755" lon="2.27904"><ele>361.0</ele><time>2026-03-30T06:46:35.684Z</time></trkpt><trkpt lat="43.0566933" lon="2.279095"><ele>361.0</ele><time>2026-03-30T06:46:36.684Z</time></trkpt><trkpt lat="43.0566267" lon="2.2791233"><ele>361.0</ele><time>2026-03-30T06:46:37.688Z</time></trkpt><trkpt lat="43.05656" lon="2.2791433"><ele>361.0</ele><time>2026-03-30T06:46:38.688Z</time></trkpt><trkpt lat="43.056495" lon="2.2791633"><ele>361.0</ele><time>2026-03-30T06:46:39.685Z</time></trkpt><trkpt lat="43.0564383" lon="2.2792133"><ele>361.0</ele><time>2026-03-30T06:46:40.685Z</time></trkpt><trkpt lat="43.0563833" lon="2.2792783"><ele>361.0</ele><time>2026-03-30T06:46:41.686Z</time></trkpt><trkpt lat="43.0563417" lon="2.2793667"><ele>361.0</ele><time>2026-03-30T06:46:42.689Z</time></trkpt><trkpt lat="43.0563033" lon="2.279465"><ele>357.16666666666663</ele><time>2026-03-30T06:46:43.685Z</time></trkpt><trkpt lat="43.0562867" lon="2.2795733"><ele>353.3333333333333</ele><time>2026-03-30T06:46:44.685Z</time></trkpt><trkpt lat="43.05629" lon="2.2796917"><ele>349.5</ele><time>2026-03-30T06:46:45.686Z</time></trkpt><trkpt lat="43.0562967" lon="2.279815"><ele>345.6666666666667</ele><time>2026-03-30T06:46:46.684Z</time></trkpt><trkpt lat="43.0563083" lon="2.2799367"><ele>341.83333333333337</ele><time>2026-03-30T06:46:47.686Z</time></trkpt><trkpt lat="43.0563183" lon="2.2800617"><ele>338.0</ele><time>2026-03-30T06:46:48.686Z</time></trkpt><trkpt lat="43.0563183" lon="2.280185"><ele>336.33333333333337</ele><time>2026-03-30T06:46:49.686Z</time></trkpt><trkpt lat="43.0563167" lon="2.2803067"><ele>334.6666666666667</ele><time>2026-03-30T06:46:50.687Z</time></trkpt><trkpt lat="43.0563217" lon="2.2804267"><ele>333.0</ele><time>2026-03-30T06:46:51.686Z</time></trkpt><trkpt lat="43.0563367" lon="2.2805467"><ele>331.3333333333333</ele><time>2026-03-30T06:46:52.687Z</time></trkpt><trkpt lat="43.0563517" lon="2.2806683"><ele>329.66666666666663</ele><time>2026-03-30T06:46:53.688Z</time></trkpt><trkpt lat="43.056355" lon="2.280785"><ele>328.0</ele><time>2026-03-30T06:46:54.686Z</time></trkpt><trkpt lat="43.0563617" lon="2.2809"><ele>326.5</ele><time>2026-03-30T06:46:55.686Z</time></trkpt><trkpt lat="43.0563733" lon="2.2810167"><ele>325.0</ele><time>2026-03-30T06:46:56.687Z</time></trkpt><trkpt lat="43.0563933" lon="2.2811283"><ele>323.5</ele><time>2026-03-30T06:46:57.685Z</time></trkpt><trkpt lat="43.056415" lon="2.2812367"><ele>322.0</ele><time>2026-03-30T06:46:58.685Z</time></trkpt><trkpt lat="43.0564217" lon="2.2813417"><ele>320.5</ele><time>2026-03-30T06:46:59.685Z</time></trkpt><trkpt lat="43.056415" lon="2.2814467"><ele>319.0</ele><time>2026-03-30T06:47:00.685Z</time></trkpt><trkpt lat="43.056395" lon="2.2815483"><ele>318.3333333333333</ele><time>2026-03-30T06:47:01.686Z</time></trkpt><trkpt lat="43.0563717" lon="2.2816533"><ele>317.66666666666663</ele><time>2026-03-30T06:47:02.686Z</time></trkpt><trkpt lat="43.0563533" lon="2.281765"><ele>317.0</ele><time>2026-03-30T06:47:03.688Z</time></trkpt><trkpt lat="43.05634" lon="2.281875"><ele>316.3333333333333</ele><time>2026-03-30T06:47:04.686Z</time></trkpt><trkpt lat="43.0563367" lon="2.2819683"><ele>315.6666666666667</ele><time>2026-03-30T06:47:05.686Z</time></trkpt><trkpt lat="43.0563417" lon="2.282065"><ele>315.0</ele><time>2026-03-30T06:47:06.685Z</time></trkpt><trkpt lat="43.0563533" lon="2.2821617"><ele>315.0</ele><time>2026-03-30T06:47:07.686Z</time></trkpt><trkpt lat="43.0563667" lon="2.2822583"><ele>315.0</ele><time>2026-03-30T06:47:08.687Z</time></trkpt><trkpt lat="43.0563867" lon="2.2823567"><ele>315.0</ele><time>2026-03-30T06:47:09.687Z</time></trkpt><trkpt lat="43.0563983" lon="2.282455"><ele>315.0</ele><time>2026-03-30T06:47:10.685Z</time></trkpt><trkpt lat="43.05641" lon="2.2825517"><ele>315.0</ele><time>2026-03-30T06:47:11.687Z</time></trkpt><trkpt lat="43.0564217" lon="2.282655"><ele>315.0</ele><time>2026-03-30T06:47:12.688Z</time></trkpt><trkpt lat="43.056435" lon="2.28276"><ele>315.0</ele><time>2026-03-30T06:47:13.685Z</time></trkpt><trkpt lat="43.0564417" lon="2.2828683"><ele>314.85714285714283</ele><time>2026-03-30T06:47:14.685Z</time></trkpt><trkpt lat="43.0564383" lon="2.2829617"><ele>314.7142857142857</ele><time>2026-03-30T06:47:15.687Z</time></trkpt><trkpt lat="43.0564217" lon="2.28305"><ele>314.57142857142856</ele><time>2026-03-30T06:47:16.685Z</time></trkpt><trkpt lat="43.0563933" lon="2.283135"><ele>314.42857142857144</ele><time>2026-03-30T06:47:17.687Z</time></trkpt><trkpt lat="43.0563583" lon="2.283225"><ele>314.2857142857143</ele><time>2026-03-30T06:47:18.687Z</time></trkpt><trkpt lat="43.0563117" lon="2.283305"><ele>314.1428571428571</ele><time>2026-03-30T06:47:19.685Z</time></trkpt><trkpt lat="43.05627" lon="2.28338"><ele>314.0</ele><time>2026-03-30T06:47:20.687Z</time></trkpt><trkpt lat="43.0562283" lon="2.2834483"><ele>314.0</ele><time>2026-03-30T06:47:21.686Z</time></trkpt><trkpt lat="43.0561467" lon="2.2835317"><ele>314.0</ele><time>2026-03-30T06:47:23.688Z</time></trkpt><trkpt lat="43.05608" lon="2.2834167"><ele>314.0</ele><time>2026-03-30T06:47:25.685Z</time></trkpt><trkpt lat="43.0560633" lon="2.28332"><ele>314.0</ele><time>2026-03-30T06:47:26.687Z</time></trkpt><trkpt lat="43.056055" lon="2.2832083"><ele>314.0</ele><time>2026-03-30T06:47:27.688Z</time></trkpt><trkpt lat="43.0560417" lon="2.2831017"><ele>314.0</ele><time>2026-03-30T06:47:28.685Z</time></trkpt><trkpt lat="43.056015" lon="2.2830133"><ele>314.0</ele><time>2026-03-30T06:47:29.686Z</time></trkpt><trkpt lat="43.05596" lon="2.2829533"><ele>314.0</ele><time>2026-03-30T06:47:30.686Z</time></trkpt><trkpt lat="43.0559017" lon="2.28292"><ele>314.0</ele><time>2026-03-30T06:47:31.684Z</time></trkpt><trkpt lat="43.0558317" lon="2.2829183"><ele>314.0</ele><time>2026-03-30T06:47:32.686Z</time></trkpt><trkpt lat="43.055745" lon="2.282945"><ele>314.0</ele><time>2026-03-30T06:47:33.686Z</time></trkpt><trkpt lat="43.0556533" lon="2.2829733"><ele>314.0</ele><time>2026-03-30T06:47:34.686Z</time></trkpt><trkpt lat="43.0555567" lon="2.2830033"><ele>311.59999999999997</ele><time>2026-03-30T06:47:35.689Z</time></trkpt><trkpt lat="43.05546" lon="2.28303"><ele>309.2</ele><time>2026-03-30T06:47:36.686Z</time></trkpt><trkpt lat="43.0553683" lon="2.2830567"><ele>306.79999999999995</ele><time>2026-03-30T06:47:37.684Z</time></trkpt><trkpt lat="43.0552817" lon="2.283085"><ele>304.4</ele><time>2026-03-30T06:47:38.685Z</time></trkpt><trkpt lat="43.0551967" lon="2.2831317"><ele>302.0</ele><time>2026-03-30T06:47:39.685Z</time></trkpt><trkpt lat="43.0551183" lon="2.2832067"><ele>302.0</ele><time>2026-03-30T06:47:40.684Z</time></trkpt><trkpt lat="43.0550483" lon="2.2833083"><ele>302.0</ele><time>2026-03-30T06:47:41.685Z</time></trkpt><trkpt lat="43.0549833" lon="2.2834233"><ele>302.0</ele><time>2026-03-30T06:47:42.685Z</time></trkpt><trkpt lat="43.0549167" lon="2.2835417"><ele>302.0</ele><time>2026-03-30T06:47:43.685Z</time></trkpt><trkpt lat="43.0548417" lon="2.2836433"><ele>302.0</ele><time>2026-03-30T06:47:44.687Z</time></trkpt><trkpt lat="43.0547667" lon="2.28374"><ele>300.6</ele><time>2026-03-30T06:47:45.685Z</time></trkpt><trkpt lat="43.054695" lon="2.28384"><ele>299.2</ele><time>2026-03-30T06:47:46.686Z</time></trkpt><trkpt lat="43.054635" lon="2.2839467"><ele>297.8</ele><time>2026-03-30T06:47:47.687Z</time></trkpt><trkpt lat="43.0545867" lon="2.28405"><ele>296.4</ele><time>2026-03-30T06:47:48.687Z</time></trkpt><trkpt lat="43.054535" lon="2.2841483"><ele>295.0</ele><time>2026-03-30T06:47:49.686Z</time></trkpt><trkpt lat="43.05447" lon="2.2842417"><ele>295.0</ele><time>2026-03-30T06:47:50.686Z</time></trkpt><trkpt lat="43.05439" lon="2.2843333"><ele>295.0</ele><time>2026-03-30T06:47:51.686Z</time></trkpt><trkpt lat="43.0542933" lon="2.2844233"><ele>295.0</ele><time>2026-03-30T06:47:52.686Z</time></trkpt><trkpt lat="43.0541833" lon="2.284515"><ele>295.0</ele><time>2026-03-30T06:47:53.687Z</time></trkpt><trkpt lat="43.0540633" lon="2.28461"><ele>293.0</ele><time>2026-03-30T06:47:54.685Z</time></trkpt><trkpt lat="43.05395" lon="2.2847067"><ele>291.0</ele><time>2026-03-30T06:47:55.687Z</time></trkpt><trkpt lat="43.0538483" lon="2.2848083"><ele>289.0</ele><time>2026-03-30T06:47:56.686Z</time></trkpt><trkpt lat="43.0537617" lon="2.284905"><ele>287.0</ele><time>2026-03-30T06:47:57.685Z</time></trkpt><trkpt lat="43.05368" lon="2.2850183"><ele>287.0</ele><time>2026-03-30T06:47:58.685Z</time></trkpt><trkpt lat="43.05361" lon="2.285135"><ele>287.0</ele><time>2026-03-30T06:47:59.686Z</time></trkpt><trkpt lat="43.05355" lon="2.2852533"><ele>287.0</ele><time>2026-03-30T06:48:00.689Z</time></trkpt><trkpt lat="43.0534933" lon="2.2853767"><ele>287.0</ele><time>2026-03-30T06:48:01.685Z</time></trkpt><trkpt lat="43.0534417" lon="2.285505"><ele>287.0</ele><time>2026-03-30T06:48:02.687Z</time></trkpt><trkpt lat="43.0534" lon="2.28563"><ele>287.4</ele><time>2026-03-30T06:48:03.687Z</time></trkpt><trkpt lat="43.05337" lon="2.2857567"><ele>287.79999999999995</ele><time>2026-03-30T06:48:04.686Z</time></trkpt><trkpt lat="43.05334" lon="2.28587"><ele>288.2</ele><time>2026-03-30T06:48:05.691Z</time></trkpt><trkpt lat="43.0532983" lon="2.28597"><ele>288.59999999999997</ele><time>2026-03-30T06:48:06.685Z</time></trkpt><trkpt lat="43.0532383" lon="2.286055"><ele>289.0</ele><time>2026-03-30T06:48:07.684Z</time></trkpt><trkpt lat="43.0531567" lon="2.2861267"><ele>289.2</ele><time>2026-03-30T06:48:08.686Z</time></trkpt><trkpt lat="43.0530583" lon="2.28619"><ele>289.4</ele><time>2026-03-30T06:48:09.687Z</time></trkpt><trkpt lat="43.05296" lon="2.286255"><ele>289.6</ele><time>2026-03-30T06:48:10.686Z</time></trkpt><trkpt lat="43.05286" lon="2.2863317"><ele>289.8</ele><time>2026-03-30T06:48:11.685Z</time></trkpt><trkpt lat="43.05276" lon="2.2864067"><ele>290.0</ele><time>2026-03-30T06:48:12.686Z</time></trkpt><trkpt lat="43.0526583" lon="2.28647"><ele>290.0</ele><time>2026-03-30T06:48:13.686Z</time></trkpt><trkpt lat="43.0525567" lon="2.2865233"><ele>290.0</ele><time>2026-03-30T06:48:14.686Z</time></trkpt><trkpt lat="43.0524533" lon="2.28658"><ele>290.0</ele><time>2026-03-30T06:48:15.687Z</time></trkpt><trkpt lat="43.0523583" lon="2.286645"><ele>290.0</ele><time>2026-03-30T06:48:16.687Z</time></trkpt><trkpt lat="43.0522783" lon="2.2867333"><ele>290.0</ele><time>2026-03-30T06:48:17.687Z</time></trkpt><trkpt lat="43.0522067" lon="2.2868367"><ele>290.2</ele><time>2026-03-30T06:48:18.687Z</time></trkpt><trkpt lat="43.0521383" lon="2.2869333"><ele>290.4</ele><time>2026-03-30T06:48:19.689Z</time></trkpt><trkpt lat="43.0520633" lon="2.2870283"><ele>290.6</ele><time>2026-03-30T06:48:20.688Z</time></trkpt><trkpt lat="43.0519917" lon="2.287125"><ele>290.8</ele><time>2026-03-30T06:48:21.686Z</time></trkpt><trkpt lat="43.0519217" lon="2.2872267"><ele>291.0</ele><time>2026-03-30T06:48:22.686Z</time></trkpt><trkpt lat="43.051845" lon="2.2873233"><ele>290.5</ele><time>2026-03-30T06:48:23.69Z</time></trkpt><trkpt lat="43.051755" lon="2.2874233"><ele>290.0</ele><time>2026-03-30T06:48:24.688Z</time></trkpt><trkpt lat="43.0516533" lon="2.287515"><ele>289.5</ele><time>2026-03-30T06:48:25.687Z</time></trkpt><trkpt lat="43.0515367" lon="2.2876033"><ele>289.0</ele><time>2026-03-30T06:48:26.686Z</time></trkpt><trkpt lat="43.0514117" lon="2.2876817"><ele>286.5</ele><time>2026-03-30T06:48:27.686Z</time></trkpt><trkpt lat="43.0512833" lon="2.287765"><ele>284.0</ele><time>2026-03-30T06:48:28.687Z</time></trkpt><trkpt lat="43.0511617" lon="2.2878583"><ele>281.5</ele><time>2026-03-30T06:48:29.688Z</time></trkpt><trkpt lat="43.0510483" lon="2.28796"><ele>279.0</ele><time>2026-03-30T06:48:30.685Z</time></trkpt><trkpt lat="43.0509383" lon="2.2880667"><ele>279.25</ele><time>2026-03-30T06:48:31.685Z</time></trkpt><trkpt lat="43.0508333" lon="2.2881783"><ele>279.5</ele><time>2026-03-30T06:48:32.686Z</time></trkpt><trkpt lat="43.0507333" lon="2.2882967"><ele>279.75</ele><time>2026-03-30T06:48:33.687Z</time></trkpt><trkpt lat="43.05064" lon="2.2884183"><ele>280.0</ele><time>2026-03-30T06:48:34.686Z</time></trkpt><trkpt lat="43.0505533" lon="2.2885383"><ele>281.0</ele><time>2026-03-30T06:48:35.686Z</time></trkpt><trkpt lat="43.0504767" lon="2.2886583"><ele>282.0</ele><time>2026-03-30T06:48:36.688Z</time></trkpt><trkpt lat="43.0504083" lon="2.2887817"><ele>283.0</ele><time>2026-03-30T06:48:37.685Z</time></trkpt><trkpt lat="43.0503483" lon="2.2889133"><ele>284.0</ele><time>2026-03-30T06:48:38.686Z</time></trkpt><trkpt lat="43.050295" lon="2.2890533"><ele>284.2</ele><time>2026-03-30T06:48:39.686Z</time></trkpt><trkpt lat="43.0502433" lon="2.2891917"><ele>284.4</ele><time>2026-03-30T06:48:40.688Z</time></trkpt><trkpt lat="43.050195" lon="2.2893217"><ele>284.6</ele><time>2026-03-30T06:48:41.687Z</time></trkpt><trkpt lat="43.0501483" lon="2.2894467"><ele>284.8</ele><time>2026-03-30T06:48:42.685Z</time></trkpt><trkpt lat="43.050105" lon="2.2895817"><ele>285.0</ele><time>2026-03-30T06:48:43.686Z</time></trkpt><trkpt lat="43.0500633" lon="2.2897217"><ele>285.5</ele><time>2026-03-30T06:48:44.686Z</time></trkpt><trkpt lat="43.0500283" lon="2.2898683"><ele>286.0</ele><time>2026-03-30T06:48:45.686Z</time></trkpt><trkpt lat="43.050005" lon="2.2900233"><ele>286.5</ele><time>2026-03-30T06:48:46.685Z</time></trkpt><trkpt lat="43.049995" lon="2.29018"><ele>287.0</ele><time>2026-03-30T06:48:47.684Z</time></trkpt><trkpt lat="43.0499917" lon="2.2903317"><ele>287.0</ele><time>2026-03-30T06:48:48.687Z</time></trkpt><trkpt lat="43.0499917" lon="2.290475"><ele>287.0</ele><time>2026-03-30T06:48:49.685Z</time></trkpt><trkpt lat="43.04999" lon="2.2906083"><ele>287.0</ele><time>2026-03-30T06:48:50.685Z</time></trkpt><trkpt lat="43.0499783" lon="2.2907333"><ele>287.0</ele><time>2026-03-30T06:48:51.688Z</time></trkpt><trkpt lat="43.0499517" lon="2.2908383"><ele>287.0</ele><time>2026-03-30T06:48:52.686Z</time></trkpt><trkpt lat="43.0499117" lon="2.29092"><ele>287.0</ele><time>2026-03-30T06:48:53.686Z</time></trkpt><trkpt lat="43.0498817" lon="2.2910033"><ele>287.1666666666667</ele><time>2026-03-30T06:48:54.686Z</time></trkpt><trkpt lat="43.0498633" lon="2.29109"><ele>287.33333333333337</ele><time>2026-03-30T06:48:55.686Z</time></trkpt><trkpt lat="43.0498633" lon="2.2911883"><ele>287.5</ele><time>2026-03-30T06:48:56.686Z</time></trkpt><trkpt lat="43.0498917" lon="2.2912983"><ele>287.6666666666667</ele><time>2026-03-30T06:48:57.688Z</time></trkpt><trkpt lat="43.0499267" lon="2.291415"><ele>287.8333333333333</ele><time>2026-03-30T06:48:58.687Z</time></trkpt><trkpt lat="43.0499583" lon="2.2915417"><ele>288.0</ele><time>2026-03-30T06:48:59.686Z</time></trkpt><trkpt lat="43.0499867" lon="2.2916767"><ele>288.0</ele><time>2026-03-30T06:49:00.686Z</time></trkpt><trkpt lat="43.0500033" lon="2.29181"><ele>288.0</ele><time>2026-03-30T06:49:01.686Z</time></trkpt><trkpt lat="43.0500067" lon="2.2919317"><ele>288.0</ele><time>2026-03-30T06:49:02.689Z</time></trkpt><trkpt lat="43.0500083" lon="2.2920367"><ele>288.0</ele><time>2026-03-30T06:49:03.685Z</time></trkpt><trkpt lat="43.050005" lon="2.292155"><ele>288.0</ele><time>2026-03-30T06:49:05.686Z</time></trkpt><trkpt lat="43.0499867" lon="2.2922583"><ele>288.0</ele><time>2026-03-30T06:49:23.689Z</time></trkpt><trkpt lat="43.0499767" lon="2.292405"><ele>288.1666666666667</ele><time>2026-03-30T06:49:25.688Z</time></trkpt><trkpt lat="43.049965" lon="2.2924967"><ele>288.3333333333333</ele><time>2026-03-30T06:49:26.687Z</time></trkpt><trkpt lat="43.0499583" lon="2.2925917"><ele>288.5</ele><time>2026-03-30T06:49:27.687Z</time></trkpt><trkpt lat="43.04995" lon="2.2927517"><ele>288.66666666666663</ele><time>2026-03-30T06:49:29.686Z</time></trkpt><trkpt lat="43.049945" lon="2.2928517"><ele>288.8333333333333</ele><time>2026-03-30T06:49:31.688Z</time></trkpt><trkpt lat="43.0499833" lon="2.292985"><ele>289.0</ele><time>2026-03-30T06:51:45.687Z</time></trkpt><trkpt lat="43.0500267" lon="2.2931467"><ele>289.0</ele><time>2026-03-30T06:51:47.686Z</time></trkpt><trkpt lat="43.050055" lon="2.29324"><ele>289.0</ele><time>2026-03-30T06:51:48.687Z</time></trkpt><trkpt lat="43.0500817" lon="2.2933267"><ele>289.0</ele><time>2026-03-30T06:51:49.686Z</time></trkpt><trkpt lat="43.0501267" lon="2.2934617"><ele>289.0</ele><time>2026-03-30T06:51:51.688Z</time></trkpt><trkpt lat="43.050135" lon="2.2935683"><ele>289.0</ele><time>2026-03-30T06:51:53.687Z</time></trkpt><trkpt lat="43.0500983" lon="2.293685"><ele>289.0</ele><time>2026-03-30T06:51:55.686Z</time></trkpt><trkpt lat="43.0500633" lon="2.29376"><ele>289.0</ele><time>2026-03-30T06:51:56.687Z</time></trkpt><trkpt lat="43.050025" lon="2.2938583"><ele>289.0</ele><time>2026-03-30T06:51:57.687Z</time></trkpt><trkpt lat="43.0499883" lon="2.2939717"><ele>289.0</ele><time>2026-03-30T06:51:58.687Z</time></trkpt><trkpt lat="43.04995" lon="2.29409"><ele>289.0</ele><time>2026-03-30T06:51:59.685Z</time></trkpt><trkpt lat="43.049915" lon="2.2942267"><ele>289.0</ele><time>2026-03-30T06:52:00.687Z</time></trkpt><trkpt lat="43.0498933" lon="2.2943767"><ele>288.5</ele><time>2026-03-30T06:52:01.686Z</time></trkpt><trkpt lat="43.0498817" lon="2.2945317"><ele>288.0</ele><time>2026-03-30T06:52:02.688Z</time></trkpt><trkpt lat="43.0498767" lon="2.29469"><ele>287.5</ele><time>2026-03-30T06:52:03.687Z</time></trkpt><trkpt lat="43.0498717" lon="2.2948533"><ele>287.0</ele><time>2026-03-30T06:52:04.686Z</time></trkpt><trkpt lat="43.0498633" lon="2.2950183"><ele>287.0</ele><time>2026-03-30T06:52:05.685Z</time></trkpt><trkpt lat="43.0498483" lon="2.2951833"><ele>287.0</ele><time>2026-03-30T06:52:06.687Z</time></trkpt><trkpt lat="43.0498317" lon="2.2953333"><ele>287.0</ele><time>2026-03-30T06:52:07.685Z</time></trkpt><trkpt lat="43.049815" lon="2.2954683"><ele>287.0</ele><time>2026-03-30T06:52:08.688Z</time></trkpt><trkpt lat="43.0497983" lon="2.2955917"><ele>287.0</ele><time>2026-03-30T06:52:09.686Z</time></trkpt><trkpt lat="43.04978" lon="2.29571"><ele>287.8</ele><time>2026-03-30T06:52:10.687Z</time></trkpt><trkpt lat="43.04976" lon="2.295815"><ele>288.6</ele><time>2026-03-30T06:52:11.687Z</time></trkpt><trkpt lat="43.0497417" lon="2.29591"><ele>289.40000000000003</ele><time>2026-03-30T06:52:12.688Z</time></trkpt><trkpt lat="43.0497033" lon="2.2960683"><ele>290.2</ele><time>2026-03-30T06:52:14.687Z</time></trkpt><trkpt lat="43.0496633" lon="2.2962"><ele>291.0</ele><time>2026-03-30T06:52:16.689Z</time></trkpt><trkpt lat="43.0496217" lon="2.296335"><ele>291.8333333333333</ele><time>2026-03-30T06:52:18.694Z</time></trkpt><trkpt lat="43.0495867" lon="2.29642"><ele>292.6666666666667</ele><time>2026-03-30T06:52:19.686Z</time></trkpt><trkpt lat="43.0495533" lon="2.2964967"><ele>293.5</ele><time>2026-03-30T06:52:20.688Z</time></trkpt><trkpt lat="43.0495167" lon="2.2965867"><ele>294.33333333333337</ele><time>2026-03-30T06:52:21.687Z</time></trkpt><trkpt lat="43.0494717" lon="2.2967033"><ele>295.1666666666667</ele><time>2026-03-30T06:52:22.687Z</time></trkpt><trkpt lat="43.049435" lon="2.296815"><ele>296.0</ele><time>2026-03-30T06:52:23.686Z</time></trkpt><trkpt lat="43.0493867" lon="2.296925"><ele>296.0</ele><time>2026-03-30T06:52:24.686Z</time></trkpt><trkpt lat="43.04933" lon="2.2970217"><ele>296.0</ele><time>2026-03-30T06:52:25.685Z</time></trkpt><trkpt lat="43.0492717" lon="2.2971067"><ele>296.0</ele><time>2026-03-30T06:52:26.691Z</time></trkpt><trkpt lat="43.049215" lon="2.29717"><ele>296.0</ele><time>2026-03-30T06:52:27.687Z</time></trkpt><trkpt lat="43.0491517" lon="2.2972333"><ele>296.0</ele><time>2026-03-30T06:52:28.685Z</time></trkpt><trkpt lat="43.0490833" lon="2.297285"><ele>296.0</ele><time>2026-03-30T06:52:29.686Z</time></trkpt><trkpt lat="43.0490083" lon="2.2973333"><ele>297.5</ele><time>2026-03-30T06:52:30.686Z</time></trkpt><trkpt lat="43.0489233" lon="2.2973667"><ele>299.0</ele><time>2026-03-30T06:52:31.686Z</time></trkpt><trkpt lat="43.04883" lon="2.2973933"><ele>300.5</ele><time>2026-03-30T06:52:32.686Z</time></trkpt><trkpt lat="43.0487367" lon="2.29741"><ele>302.0</ele><time>2026-03-30T06:52:33.687Z</time></trkpt><trkpt lat="43.04865" lon="2.2974283"><ele>303.5</ele><time>2026-03-30T06:52:34.685Z</time></trkpt><trkpt lat="43.0485717" lon="2.297465"><ele>305.0</ele><time>2026-03-30T06:52:35.686Z</time></trkpt><trkpt lat="43.0485" lon="2.2975333"><ele>305.0</ele><time>2026-03-30T06:52:36.686Z</time></trkpt><trkpt lat="43.0484233" lon="2.2976067"><ele>305.0</ele><time>2026-03-30T06:52:37.686Z</time></trkpt><trkpt lat="43.04836" lon="2.2977267"><ele>305.0</ele><time>2026-03-30T06:52:38.686Z</time></trkpt><trkpt lat="43.0483017" lon="2.2978617"><ele>305.0</ele><time>2026-03-30T06:52:39.69Z</time></trkpt><trkpt lat="43.048245" lon="2.2979933"><ele>305.0</ele><time>2026-03-30T06:52:40.687Z</time></trkpt><trkpt lat="43.048175" lon="2.2981167"><ele>305.4</ele><time>2026-03-30T06:52:41.685Z</time></trkpt><trkpt lat="43.0481017" lon="2.2982117"><ele>305.8</ele><time>2026-03-30T06:52:42.685Z</time></trkpt><trkpt lat="43.0480283" lon="2.2983"><ele>306.2</ele><time>2026-03-30T06:52:43.685Z</time></trkpt><trkpt lat="43.04796" lon="2.2984183"><ele>306.6</ele><time>2026-03-30T06:52:44.687Z</time></trkpt><trkpt lat="43.0479" lon="2.2985483"><ele>307.0</ele><time>2026-03-30T06:52:45.687Z</time></trkpt><trkpt lat="43.04784" lon="2.298695"><ele>307.0</ele><time>2026-03-30T06:52:46.685Z</time></trkpt><trkpt lat="43.0477883" lon="2.2988467"><ele>307.0</ele><time>2026-03-30T06:52:47.686Z</time></trkpt><trkpt lat="43.0477367" lon="2.299005"><ele>307.0</ele><time>2026-03-30T06:52:48.687Z</time></trkpt><trkpt lat="43.0476867" lon="2.2991533"><ele>307.0</ele><time>2026-03-30T06:52:49.686Z</time></trkpt><trkpt lat="43.04764" lon="2.2992883"><ele>308.0</ele><time>2026-03-30T06:52:50.686Z</time></trkpt><trkpt lat="43.047605" lon="2.2994133"><ele>309.0</ele><time>2026-03-30T06:52:51.686Z</time></trkpt><trkpt lat="43.0476017" lon="2.2995583"><ele>310.0</ele><time>2026-03-30T06:52:52.685Z</time></trkpt><trkpt lat="43.0476083" lon="2.29972"><ele>311.0</ele><time>2026-03-30T06:52:53.685Z</time></trkpt><trkpt lat="43.047615" lon="2.2998917"><ele>312.0</ele><time>2026-03-30T06:52:54.687Z</time></trkpt><trkpt lat="43.0476217" lon="2.3000733"><ele>312.25</ele><time>2026-03-30T06:52:55.687Z</time></trkpt><trkpt lat="43.0476433" lon="2.30026"><ele>312.5</ele><time>2026-03-30T06:52:56.687Z</time></trkpt><trkpt lat="43.04768" lon="2.3004467"><ele>312.75</ele><time>2026-03-30T06:52:57.685Z</time></trkpt><trkpt lat="43.0477267" lon="2.30064"><ele>313.0</ele><time>2026-03-30T06:52:58.685Z</time></trkpt><trkpt lat="43.0477733" lon="2.3008267"><ele>313.5</ele><time>2026-03-30T06:52:59.686Z</time></trkpt><trkpt lat="43.047815" lon="2.301"><ele>314.0</ele><time>2026-03-30T06:53:00.685Z</time></trkpt><trkpt lat="43.0478567" lon="2.30116"><ele>314.5</ele><time>2026-03-30T06:53:01.685Z</time></trkpt><trkpt lat="43.047895" lon="2.3013083"><ele>315.0</ele><time>2026-03-30T06:53:02.688Z</time></trkpt><trkpt lat="43.0479333" lon="2.301435"><ele>315.8</ele><time>2026-03-30T06:53:03.687Z</time></trkpt><trkpt lat="43.0479683" lon="2.3015517"><ele>316.6</ele><time>2026-03-30T06:53:04.688Z</time></trkpt><trkpt lat="43.0480017" lon="2.3016633"><ele>317.4</ele><time>2026-03-30T06:53:05.686Z</time></trkpt><trkpt lat="43.048025" lon="2.3017833"><ele>318.2</ele><time>2026-03-30T06:53:06.688Z</time></trkpt><trkpt lat="43.04804" lon="2.3019133"><ele>319.0</ele><time>2026-03-30T06:53:07.685Z</time></trkpt><trkpt lat="43.0480333" lon="2.3020517"><ele>319.0</ele><time>2026-03-30T06:53:08.688Z</time></trkpt><trkpt lat="43.0480083" lon="2.3022"><ele>319.0</ele><time>2026-03-30T06:53:09.686Z</time></trkpt><trkpt lat="43.0479633" lon="2.3023533"><ele>319.0</ele><time>2026-03-30T06:53:10.686Z</time></trkpt><trkpt lat="43.04791" lon="2.302505"><ele>319.0</ele><time>2026-03-30T06:53:11.69Z</time></trkpt><trkpt lat="43.0478517" lon="2.3026467"><ele>319.5</ele><time>2026-03-30T06:53:12.688Z</time></trkpt><trkpt lat="43.0477817" lon="2.30279"><ele>320.0</ele><time>2026-03-30T06:53:13.687Z</time></trkpt><trkpt lat="43.0477" lon="2.302925"><ele>320.5</ele><time>2026-03-30T06:53:14.687Z</time></trkpt><trkpt lat="43.047615" lon="2.3030567"><ele>321.0</ele><time>2026-03-30T06:53:15.686Z</time></trkpt><trkpt lat="43.047525" lon="2.30319"><ele>324.75</ele><time>2026-03-30T06:53:16.686Z</time></trkpt><trkpt lat="43.04744" lon="2.3033317"><ele>328.5</ele><time>2026-03-30T06:53:17.686Z</time></trkpt><trkpt lat="43.0473583" lon="2.303485"><ele>332.25</ele><time>2026-03-30T06:53:18.687Z</time></trkpt><trkpt lat="43.0472817" lon="2.30364"><ele>336.0</ele><time>2026-03-30T06:53:19.687Z</time></trkpt><trkpt lat="43.047205" lon="2.3037883"><ele>335.75</ele><time>2026-03-30T06:53:20.688Z</time></trkpt><trkpt lat="43.0471317" lon="2.303925"><ele>335.5</ele><time>2026-03-30T06:53:21.686Z</time></trkpt><trkpt lat="43.04707" lon="2.3040617"><ele>335.25</ele><time>2026-03-30T06:53:22.688Z</time></trkpt><trkpt lat="43.0470233" lon="2.30419"><ele>335.0</ele><time>2026-03-30T06:53:23.687Z</time></trkpt><trkpt lat="43.0469617" lon="2.304305"><ele>335.0</ele><time>2026-03-30T06:53:24.688Z</time></trkpt><trkpt lat="43.0468833" lon="2.304385"><ele>335.0</ele><time>2026-03-30T06:53:25.686Z</time></trkpt><trkpt lat="43.04679" lon="2.3044683"><ele>335.0</ele><time>2026-03-30T06:53:26.686Z</time></trkpt><trkpt lat="43.0467" lon="2.304555"><ele>335.0</ele><time>2026-03-30T06:53:27.686Z</time></trkpt><trkpt lat="43.0466217" lon="2.3046583"><ele>335.0</ele><time>2026-03-30T06:53:28.688Z</time></trkpt><trkpt lat="43.04656" lon="2.3047717"><ele>336.25</ele><time>2026-03-30T06:53:29.685Z</time></trkpt><trkpt lat="43.0465117" lon="2.3049083"><ele>337.5</ele><time>2026-03-30T06:53:30.685Z</time></trkpt><trkpt lat="43.046465" lon="2.3050533"><ele>338.75</ele><time>2026-03-30T06:53:31.685Z</time></trkpt><trkpt lat="43.04641" lon="2.3051967"><ele>340.0</ele><time>2026-03-30T06:53:32.687Z</time></trkpt><trkpt lat="43.0463417" lon="2.3053283"><ele>340.0</ele><time>2026-03-30T06:53:33.686Z</time></trkpt><trkpt lat="43.0462683" lon="2.3054517"><ele>340.0</ele><time>2026-03-30T06:53:34.687Z</time></trkpt><trkpt lat="43.0461967" lon="2.30556"><ele>340.0</ele><time>2026-03-30T06:53:35.686Z</time></trkpt><trkpt lat="43.0461267" lon="2.3056733"><ele>340.0</ele><time>2026-03-30T06:53:36.687Z</time></trkpt><trkpt lat="43.04606" lon="2.30577"><ele>340.0</ele><time>2026-03-30T06:53:37.684Z</time></trkpt><trkpt lat="43.0459983" lon="2.3058433"><ele>341.16666666666663</ele><time>2026-03-30T06:53:38.687Z</time></trkpt><trkpt lat="43.0459383" lon="2.3058983"><ele>342.3333333333333</ele><time>2026-03-30T06:53:39.686Z</time></trkpt><trkpt lat="43.0458817" lon="2.3059367"><ele>343.5</ele><time>2026-03-30T06:53:40.687Z</time></trkpt><trkpt lat="43.0457883" lon="2.306025"><ele>344.6666666666667</ele><time>2026-03-30T06:53:42.687Z</time></trkpt><trkpt lat="43.045755" lon="2.3061067"><ele>345.83333333333337</ele><time>2026-03-30T06:53:43.685Z</time></trkpt><trkpt lat="43.0457133" lon="2.3061867"><ele>347.0</ele><time>2026-03-30T06:53:44.688Z</time></trkpt><trkpt lat="43.0456817" lon="2.30627"><ele>345.5</ele><time>2026-03-30T06:53:45.685Z</time></trkpt><trkpt lat="43.04566" lon="2.30637"><ele>344.0</ele><time>2026-03-30T06:53:46.687Z</time></trkpt><trkpt lat="43.0456367" lon="2.30647"><ele>342.5</ele><time>2026-03-30T06:53:47.685Z</time></trkpt><trkpt lat="43.04561" lon="2.30658"><ele>341.0</ele><time>2026-03-30T06:53:48.686Z</time></trkpt><trkpt lat="43.04559" lon="2.3066817"><ele>339.5</ele><time>2026-03-30T06:53:49.685Z</time></trkpt><trkpt lat="43.0455733" lon="2.3067817"><ele>338.0</ele><time>2026-03-30T06:53:50.687Z</time></trkpt><trkpt lat="43.04556" lon="2.3068833"><ele>338.0</ele><time>2026-03-30T06:53:51.685Z</time></trkpt><trkpt lat="43.045555" lon="2.3069933"><ele>338.0</ele><time>2026-03-30T06:53:52.685Z</time></trkpt><trkpt lat="43.0455517" lon="2.3071133"><ele>338.0</ele><time>2026-03-30T06:53:53.686Z</time></trkpt><trkpt lat="43.0455483" lon="2.307235"><ele>338.0</ele><time>2026-03-30T06:53:54.686Z</time></trkpt><trkpt lat="43.0455383" lon="2.3073533"><ele>338.0</ele><time>2026-03-30T06:53:55.685Z</time></trkpt><trkpt lat="43.0455167" lon="2.3074633"><ele>338.0</ele><time>2026-03-30T06:53:56.687Z</time></trkpt><trkpt lat="43.0454783" lon="2.3075783"><ele>341.4</ele><time>2026-03-30T06:53:57.685Z</time></trkpt><trkpt lat="43.0454367" lon="2.3076867"><ele>344.79999999999995</ele><time>2026-03-30T06:53:58.685Z</time></trkpt><trkpt lat="43.0453917" lon="2.3077933"><ele>348.2</ele><time>2026-03-30T06:53:59.686Z</time></trkpt><trkpt lat="43.0453583" lon="2.30791"><ele>351.6</ele><time>2026-03-30T06:54:00.684Z</time></trkpt><trkpt lat="43.04533" lon="2.3080333"><ele>355.0</ele><time>2026-03-30T06:54:01.688Z</time></trkpt><trkpt lat="43.0453017" lon="2.3081583"><ele>357.4</ele><time>2026-03-30T06:54:02.685Z</time></trkpt><trkpt lat="43.045265" lon="2.30829"><ele>359.8</ele><time>2026-03-30T06:54:03.688Z</time></trkpt><trkpt lat="43.045235" lon="2.308425"><ele>362.20000000000005</ele><time>2026-03-30T06:54:04.686Z</time></trkpt><trkpt lat="43.0452083" lon="2.3085617"><ele>364.6</ele><time>2026-03-30T06:54:05.688Z</time></trkpt><trkpt lat="43.0451833" lon="2.308695"><ele>367.0</ele><time>2026-03-30T06:54:06.688Z</time></trkpt><trkpt lat="43.0451617" lon="2.3088267"><ele>369.0</ele><time>2026-03-30T06:54:07.686Z</time></trkpt><trkpt lat="43.0451433" lon="2.30897"><ele>371.0</ele><time>2026-03-30T06:54:08.686Z</time></trkpt><trkpt lat="43.045125" lon="2.3091083"><ele>373.0</ele><time>2026-03-30T06:54:09.684Z</time></trkpt><trkpt lat="43.0451083" lon="2.30925"><ele>375.0</ele><time>2026-03-30T06:54:10.686Z</time></trkpt><trkpt lat="43.0450933" lon="2.30939"><ele>377.0</ele><time>2026-03-30T06:54:11.686Z</time></trkpt><trkpt lat="43.0450967" lon="2.3095133"><ele>377.0</ele><time>2026-03-30T06:54:12.685Z</time></trkpt><trkpt lat="43.0451" lon="2.3096333"><ele>377.0</ele><time>2026-03-30T06:54:13.688Z</time></trkpt><trkpt lat="43.0450933" lon="2.3097683"><ele>377.0</ele><time>2026-03-30T06:54:14.688Z</time></trkpt><trkpt lat="43.045075" lon="2.3099083"><ele>377.0</ele><time>2026-03-30T06:54:15.688Z</time></trkpt><trkpt lat="43.04505" lon="2.3100517"><ele>377.0</ele><time>2026-03-30T06:54:16.686Z</time></trkpt><trkpt lat="43.0450267" lon="2.31019"><ele>377.20000000000005</ele><time>2026-03-30T06:54:17.685Z</time></trkpt><trkpt lat="43.0449967" lon="2.310325"><ele>377.4</ele><time>2026-03-30T06:54:18.776Z</time></trkpt><trkpt lat="43.04495" lon="2.31045"><ele>377.6</ele><time>2026-03-30T06:54:19.685Z</time></trkpt><trkpt lat="43.044885" lon="2.31057"><ele>377.79999999999995</ele><time>2026-03-30T06:54:20.688Z</time></trkpt><trkpt lat="43.044805" lon="2.3106817"><ele>378.0</ele><time>2026-03-30T06:54:21.685Z</time></trkpt><trkpt lat="43.0447233" lon="2.31078"><ele>378.0</ele><time>2026-03-30T06:54:22.685Z</time></trkpt><trkpt lat="43.0446467" lon="2.31087"><ele>378.0</ele><time>2026-03-30T06:54:23.687Z</time></trkpt><trkpt lat="43.0445733" lon="2.310955"><ele>378.0</ele><time>2026-03-30T06:54:24.687Z</time></trkpt><trkpt lat="43.0445017" lon="2.3110433"><ele>378.0</ele><time>2026-03-30T06:54:25.686Z</time></trkpt><trkpt lat="43.044445" lon="2.3111383"><ele>378.0</ele><time>2026-03-30T06:54:26.685Z</time></trkpt><trkpt lat="43.0443967" lon="2.3112483"><ele>378.0</ele><time>2026-03-30T06:54:27.685Z</time></trkpt><trkpt lat="43.044365" lon="2.311375"><ele>378.0</ele><time>2026-03-30T06:54:28.685Z</time></trkpt><trkpt lat="43.0443417" lon="2.3115067"><ele>378.0</ele><time>2026-03-30T06:54:29.686Z</time></trkpt><trkpt lat="43.044315" lon="2.3116483"><ele>378.0</ele><time>2026-03-30T06:54:30.687Z</time></trkpt><trkpt lat="43.0442883" lon="2.3117883"><ele>378.0</ele><time>2026-03-30T06:54:31.685Z</time></trkpt><trkpt lat="43.044255" lon="2.3119367"><ele>381.5</ele><time>2026-03-30T06:54:32.688Z</time></trkpt><trkpt lat="43.0442183" lon="2.3120917"><ele>385.0</ele><time>2026-03-30T06:54:33.686Z</time></trkpt><trkpt lat="43.044185" lon="2.3122517"><ele>388.5</ele><time>2026-03-30T06:54:34.685Z</time></trkpt><trkpt lat="43.0441583" lon="2.3124183"><ele>392.0</ele><time>2026-03-30T06:54:35.686Z</time></trkpt><trkpt lat="43.04414" lon="2.3125783"><ele>387.20000000000005</ele><time>2026-03-30T06:54:36.686Z</time></trkpt><trkpt lat="43.044125" lon="2.3127317"><ele>382.4</ele><time>2026-03-30T06:54:37.686Z</time></trkpt><trkpt lat="43.0441167" lon="2.3128767"><ele>377.6</ele><time>2026-03-30T06:54:38.687Z</time></trkpt><trkpt lat="43.04411" lon="2.3130183"><ele>372.79999999999995</ele><time>2026-03-30T06:54:39.684Z</time></trkpt><trkpt lat="43.0441083" lon="2.3131617"><ele>368.0</ele><time>2026-03-30T06:54:40.686Z</time></trkpt><trkpt lat="43.0441167" lon="2.3133067"><ele>374.0</ele><time>2026-03-30T06:54:41.687Z</time></trkpt><trkpt lat="43.0441367" lon="2.3134583"><ele>380.0</ele><time>2026-03-30T06:54:42.685Z</time></trkpt><trkpt lat="43.04417" lon="2.31361"><ele>386.0</ele><time>2026-03-30T06:54:43.685Z</time></trkpt><trkpt lat="43.04421" lon="2.3137683"><ele>392.0</ele><time>2026-03-30T06:54:44.687Z</time></trkpt><trkpt lat="43.0442517" lon="2.3139267"><ele>392.0</ele><time>2026-03-30T06:54:45.687Z</time></trkpt><trkpt lat="43.04429" lon="2.314095"><ele>392.0</ele><time>2026-03-30T06:54:46.686Z</time></trkpt><trkpt lat="43.044325" lon="2.3142433"><ele>392.0</ele><time>2026-03-30T06:54:47.687Z</time></trkpt><trkpt lat="43.0443517" lon="2.3143817"><ele>392.0</ele><time>2026-03-30T06:54:48.686Z</time></trkpt><trkpt lat="43.0443667" lon="2.314505"><ele>392.0</ele><time>2026-03-30T06:54:49.694Z</time></trkpt><trkpt lat="43.0443767" lon="2.31462"><ele>391.99999999999994</ele><time>2026-03-30T06:54:50.686Z</time></trkpt><trkpt lat="43.04438" lon="2.314735"><ele>392.0</ele><time>2026-03-30T06:54:51.686Z</time></trkpt><trkpt lat="43.044385" lon="2.3148433"><ele>392.0</ele><time>2026-03-30T06:54:52.686Z</time></trkpt><trkpt lat="43.0443967" lon="2.3149567"><ele>392.0</ele><time>2026-03-30T06:54:53.685Z</time></trkpt><trkpt lat="43.0444183" lon="2.3150783"><ele>391.99999999999994</ele><time>2026-03-30T06:54:54.686Z</time></trkpt><trkpt lat="43.044455" lon="2.3152017"><ele>392.0</ele><time>2026-03-30T06:54:55.685Z</time></trkpt><trkpt lat="43.04451" lon="2.315335"><ele>391.6</ele><time>2026-03-30T06:54:56.685Z</time></trkpt><trkpt lat="43.0445717" lon="2.3154683"><ele>391.20000000000005</ele><time>2026-03-30T06:54:57.684Z</time></trkpt><trkpt lat="43.0446317" lon="2.31559"><ele>390.8</ele><time>2026-03-30T06:54:58.685Z</time></trkpt><trkpt lat="43.0446817" lon="2.315705"><ele>390.4</ele><time>2026-03-30T06:54:59.685Z</time></trkpt><trkpt lat="43.0447233" lon="2.3158083"><ele>390.0</ele><time>2026-03-30T06:55:00.685Z</time></trkpt><trkpt lat="43.0447567" lon="2.3159"><ele>389.3333333333333</ele><time>2026-03-30T06:55:01.688Z</time></trkpt><trkpt lat="43.0447783" lon="2.3159817"><ele>388.66666666666663</ele><time>2026-03-30T06:55:02.686Z</time></trkpt><trkpt lat="43.0447717" lon="2.316095"><ele>388.0</ele><time>2026-03-30T06:55:04.685Z</time></trkpt><trkpt lat="43.044775" lon="2.3162167"><ele>387.3333333333333</ele><time>2026-03-30T06:55:06.687Z</time></trkpt><trkpt lat="43.0448017" lon="2.3163517"><ele>386.66666666666663</ele><time>2026-03-30T06:55:08.686Z</time></trkpt><trkpt lat="43.0448233" lon="2.316455"><ele>386.0</ele><time>2026-03-30T06:55:10.685Z</time></trkpt><trkpt lat="43.0447983" lon="2.3165717"><ele>385.99999999999994</ele><time>2026-03-30T06:55:13.685Z</time></trkpt><trkpt lat="43.044735" lon="2.3166917"><ele>386.0</ele><time>2026-03-30T06:55:15.685Z</time></trkpt><trkpt lat="43.0447" lon="2.3167767"><ele>386.0</ele><time>2026-03-30T06:55:16.686Z</time></trkpt><trkpt lat="43.0446583" lon="2.3168683"><ele>386.0</ele><time>2026-03-30T06:55:17.686Z</time></trkpt><trkpt lat="43.04461" lon="2.3169667"><ele>385.99999999999994</ele><time>2026-03-30T06:55:18.686Z</time></trkpt><trkpt lat="43.0445517" lon="2.3170667"><ele>386.0</ele><time>2026-03-30T06:55:19.685Z</time></trkpt><trkpt lat="43.044485" lon="2.3171717"><ele>386.8</ele><time>2026-03-30T06:55:20.687Z</time></trkpt><trkpt lat="43.0444183" lon="2.3172733"><ele>387.6</ele><time>2026-03-30T06:55:21.684Z</time></trkpt><trkpt lat="43.0443583" lon="2.3173767"><ele>388.4</ele><time>2026-03-30T06:55:22.686Z</time></trkpt><trkpt lat="43.044305" lon="2.31749"><ele>389.2</ele><time>2026-03-30T06:55:23.686Z</time></trkpt><trkpt lat="43.044255" lon="2.3176167"><ele>390.0</ele><time>2026-03-30T06:55:24.685Z</time></trkpt><trkpt lat="43.0442083" lon="2.3177467"><ele>390.0</ele><time>2026-03-30T06:55:25.687Z</time></trkpt><trkpt lat="43.04416" lon="2.3178767"><ele>390.0</ele><time>2026-03-30T06:55:26.688Z</time></trkpt><trkpt lat="43.0441167" lon="2.3179933"><ele>390.0</ele><time>2026-03-30T06:55:27.685Z</time></trkpt><trkpt lat="43.0440717" lon="2.318105"><ele>390.0</ele><time>2026-03-30T06:55:28.687Z</time></trkpt><trkpt lat="43.044025" lon="2.318215"><ele>390.0</ele><time>2026-03-30T06:55:29.688Z</time></trkpt><trkpt lat="43.0439783" lon="2.3183233"><ele>392.5</ele><time>2026-03-30T06:55:30.686Z</time></trkpt><trkpt lat="43.0439383" lon="2.3184317"><ele>395.0</ele><time>2026-03-30T06:55:31.684Z</time></trkpt><trkpt lat="43.04391" lon="2.3185383"><ele>397.5</ele><time>2026-03-30T06:55:32.685Z</time></trkpt><trkpt lat="43.04389" lon="2.3186483"><ele>400.0</ele><time>2026-03-30T06:55:33.687Z</time></trkpt><trkpt lat="43.04388" lon="2.318735"><ele>402.5</ele><time>2026-03-30T06:55:34.685Z</time></trkpt><trkpt lat="43.0438433" lon="2.318875"><ele>405.0</ele><time>2026-03-30T06:55:36.687Z</time></trkpt><trkpt lat="43.0438267" lon="2.3190417"><ele>405.6666666666667</ele><time>2026-03-30T06:55:38.687Z</time></trkpt><trkpt lat="43.043825" lon="2.319175"><ele>406.33333333333337</ele><time>2026-03-30T06:55:40.685Z</time></trkpt><trkpt lat="43.043795" lon="2.319275"><ele>407.0</ele><time>2026-03-30T06:55:42.686Z</time></trkpt><trkpt lat="43.0436883" lon="2.3193467"><ele>407.6666666666667</ele><time>2026-03-30T06:55:44.687Z</time></trkpt><trkpt lat="43.043615" lon="2.31937"><ele>408.33333333333337</ele><time>2026-03-30T06:55:45.686Z</time></trkpt><trkpt lat="43.0435483" lon="2.3194017"><ele>409.0</ele><time>2026-03-30T06:55:46.685Z</time></trkpt><trkpt lat="43.0434833" lon="2.3194567"><ele>409.0</ele><time>2026-03-30T06:55:47.685Z</time></trkpt><trkpt lat="43.0434267" lon="2.3195433"><ele>409.0</ele><time>2026-03-30T06:55:48.685Z</time></trkpt><trkpt lat="43.0433733" lon="2.319645"><ele>409.0</ele><time>2026-03-30T06:55:49.685Z</time></trkpt><trkpt lat="43.0433317" lon="2.31977"><ele>409.0</ele><time>2026-03-30T06:55:50.69Z</time></trkpt><trkpt lat="43.0432933" lon="2.3198783"><ele>409.0</ele><time>2026-03-30T06:55:51.686Z</time></trkpt><trkpt lat="43.0432533" lon="2.3199917"><ele>411.0</ele><time>2026-03-30T06:55:52.685Z</time></trkpt><trkpt lat="43.0432117" lon="2.3200617"><ele>413.0</ele><time>2026-03-30T06:55:53.686Z</time></trkpt><trkpt lat="43.043115" lon="2.3200867"><ele>415.0</ele><time>2026-03-30T06:55:55.684Z</time></trkpt><trkpt lat="43.04303" lon="2.3201733"><ele>417.0</ele><time>2026-03-30T06:55:57.686Z</time></trkpt><trkpt lat="43.0429767" lon="2.320315"><ele>419.0</ele><time>2026-03-30T06:55:59.686Z</time></trkpt><trkpt lat="43.0429217" lon="2.3204267"><ele>419.0</ele><time>2026-03-30T06:56:01.686Z</time></trkpt><trkpt lat="43.0428417" lon="2.3204933"><ele>419.0</ele><time>2026-03-30T06:56:03.684Z</time></trkpt><trkpt lat="43.04278" lon="2.3205767"><ele>419.0</ele><time>2026-03-30T06:56:05.688Z</time></trkpt><trkpt lat="43.0427383" lon="2.3207567"><ele>419.0</ele><time>2026-03-30T06:56:07.687Z</time></trkpt><trkpt lat="43.0427067" lon="2.3208733"><ele>419.0</ele><time>2026-03-30T06:56:08.688Z</time></trkpt><trkpt lat="43.0426683" lon="2.3209933"><ele>417.6</ele><time>2026-03-30T06:56:09.685Z</time></trkpt><trkpt lat="43.0426267" lon="2.321115"><ele>416.2</ele><time>2026-03-30T06:56:10.686Z</time></trkpt><trkpt lat="43.042585" lon="2.3212333"><ele>414.8</ele><time>2026-03-30T06:56:11.686Z</time></trkpt><trkpt lat="43.042545" lon="2.32135"><ele>413.40000000000003</ele><time>2026-03-30T06:56:12.686Z</time></trkpt><trkpt lat="43.042505" lon="2.321465"><ele>412.0</ele><time>2026-03-30T06:56:13.684Z</time></trkpt><trkpt lat="43.0424667" lon="2.32159"><ele>411.1666666666667</ele><time>2026-03-30T06:56:14.685Z</time></trkpt><trkpt lat="43.042425" lon="2.321715"><ele>410.33333333333337</ele><time>2026-03-30T06:56:15.684Z</time></trkpt><trkpt lat="43.0423817" lon="2.321835"><ele>409.5</ele><time>2026-03-30T06:56:16.687Z</time></trkpt><trkpt lat="43.04234" lon="2.3219467"><ele>408.66666666666663</ele><time>2026-03-30T06:56:17.684Z</time></trkpt><trkpt lat="43.042305" lon="2.322045"><ele>407.8333333333333</ele><time>2026-03-30T06:56:18.686Z</time></trkpt><trkpt lat="43.0422683" lon="2.3221417"><ele>407.0</ele><time>2026-03-30T06:56:19.684Z</time></trkpt><trkpt lat="43.0422283" lon="2.3222467"><ele>406.99999999999994</ele><time>2026-03-30T06:56:20.685Z</time></trkpt><trkpt lat="43.04219" lon="2.3223567"><ele>407.0</ele><time>2026-03-30T06:56:21.684Z</time></trkpt><trkpt lat="43.0421567" lon="2.3224617"><ele>407.0</ele><time>2026-03-30T06:56:22.684Z</time></trkpt><trkpt lat="43.0421317" lon="2.322565"><ele>407.0</ele><time>2026-03-30T06:56:23.686Z</time></trkpt><trkpt lat="43.0421083" lon="2.3226733"><ele>406.99999999999994</ele><time>2026-03-30T06:56:24.685Z</time></trkpt><trkpt lat="43.0420817" lon="2.3227967"><ele>407.0</ele><time>2026-03-30T06:56:25.686Z</time></trkpt><trkpt lat="43.0420417" lon="2.3229267"><ele>407.0</ele><time>2026-03-30T06:56:26.685Z</time></trkpt><trkpt lat="43.0419917" lon="2.32305"><ele>407.0</ele><time>2026-03-30T06:56:27.685Z</time></trkpt><trkpt lat="43.0419283" lon="2.3231733"><ele>407.0</ele><time>2026-03-30T06:56:28.686Z</time></trkpt><trkpt lat="43.0418567" lon="2.3232983"><ele>407.0</ele><time>2026-03-30T06:56:29.686Z</time></trkpt><trkpt lat="43.0417817" lon="2.3234217"><ele>407.0</ele><time>2026-03-30T06:56:30.684Z</time></trkpt><trkpt lat="43.0417033" lon="2.323545"><ele>407.40000000000003</ele><time>2026-03-30T06:56:31.684Z</time></trkpt><trkpt lat="43.0416267" lon="2.32366"><ele>407.8</ele><time>2026-03-30T06:56:32.688Z</time></trkpt><trkpt lat="43.04156" lon="2.3237733"><ele>408.2</ele><time>2026-03-30T06:56:33.687Z</time></trkpt><trkpt lat="43.0415" lon="2.323885"><ele>408.6</ele><time>2026-03-30T06:56:34.686Z</time></trkpt><trkpt lat="43.041445" lon="2.324"><ele>409.0</ele><time>2026-03-30T06:56:35.686Z</time></trkpt><trkpt lat="43.0414033" lon="2.3241283"><ele>409.0</ele><time>2026-03-30T06:56:36.684Z</time></trkpt><trkpt lat="43.0413633" lon="2.3242633"><ele>409.0</ele><time>2026-03-30T06:56:37.686Z</time></trkpt><trkpt lat="43.0413233" lon="2.3244033"><ele>409.0</ele><time>2026-03-30T06:56:38.686Z</time></trkpt><trkpt lat="43.0412917" lon="2.3245417"><ele>409.0</ele><time>2026-03-30T06:56:39.685Z</time></trkpt><trkpt lat="43.041265" lon="2.32467"><ele>409.0</ele><time>2026-03-30T06:56:40.685Z</time></trkpt><trkpt lat="43.0412483" lon="2.3247883"><ele>409.0</ele><time>2026-03-30T06:56:41.685Z</time></trkpt><trkpt lat="43.041245" lon="2.3248883"><ele>409.0</ele><time>2026-03-30T06:56:42.685Z</time></trkpt><trkpt lat="43.0412483" lon="2.3249817"><ele>409.0</ele><time>2026-03-30T06:56:43.684Z</time></trkpt><trkpt lat="43.041265" lon="2.325145"><ele>409.0</ele><time>2026-03-30T06:56:45.684Z</time></trkpt><trkpt lat="43.0412783" lon="2.3252933"><ele>409.0</ele><time>2026-03-30T06:56:47.684Z</time></trkpt><trkpt lat="43.04129" lon="2.325415"><ele>409.00000000000006</ele><time>2026-03-30T06:56:49.686Z</time></trkpt><trkpt lat="43.0412817" lon="2.3255167"><ele>409.0</ele><time>2026-03-30T06:56:51.689Z</time></trkpt><trkpt lat="43.0412483" lon="2.3256283"><ele>409.0</ele><time>2026-03-30T06:56:53.685Z</time></trkpt><trkpt lat="43.0412233" lon="2.3257683"><ele>409.0</ele><time>2026-03-30T06:56:55.686Z</time></trkpt><trkpt lat="43.04122" lon="2.3258567"><ele>409.00000000000006</ele><time>2026-03-30T06:56:56.689Z</time></trkpt><trkpt lat="43.0412167" lon="2.3259583"><ele>409.0</ele><time>2026-03-30T06:56:57.687Z</time></trkpt><trkpt lat="43.04122" lon="2.3260583"><ele>407.00000000000006</ele><time>2026-03-30T06:56:58.685Z</time></trkpt><trkpt lat="43.0412283" lon="2.3261633"><ele>405.0</ele><time>2026-03-30T06:56:59.685Z</time></trkpt><trkpt lat="43.0412267" lon="2.3262717"><ele>403.0</ele><time>2026-03-30T06:57:00.686Z</time></trkpt><trkpt lat="43.041225" lon="2.326375"><ele>401.0</ele><time>2026-03-30T06:57:01.685Z</time></trkpt><trkpt lat="43.041225" lon="2.3264867"><ele>399.00000000000006</ele><time>2026-03-30T06:57:02.685Z</time></trkpt><trkpt lat="43.0412233" lon="2.3266033"><ele>397.0</ele><time>2026-03-30T06:57:03.685Z</time></trkpt><trkpt lat="43.0412167" lon="2.3267183"><ele>396.33333333333337</ele><time>2026-03-30T06:57:04.685Z</time></trkpt><trkpt lat="43.0412117" lon="2.3268267"><ele>395.6666666666667</ele><time>2026-03-30T06:57:05.684Z</time></trkpt><trkpt lat="43.0412067" lon="2.3269367"><ele>395.0</ele><time>2026-03-30T06:57:06.685Z</time></trkpt><trkpt lat="43.0411917" lon="2.3270383"><ele>394.33333333333337</ele><time>2026-03-30T06:57:07.685Z</time></trkpt><trkpt lat="43.0411717" lon="2.3271317"><ele>393.6666666666667</ele><time>2026-03-30T06:57:08.686Z</time></trkpt><trkpt lat="43.0411567" lon="2.3272267"><ele>393.0</ele><time>2026-03-30T06:57:09.684Z</time></trkpt><trkpt lat="43.041155" lon="2.32733"><ele>392.8333333333333</ele><time>2026-03-30T06:57:10.686Z</time></trkpt><trkpt lat="43.0411567" lon="2.3274317"><ele>392.66666666666663</ele><time>2026-03-30T06:57:11.685Z</time></trkpt><trkpt lat="43.041155" lon="2.3275367"><ele>392.5</ele><time>2026-03-30T06:57:12.684Z</time></trkpt><trkpt lat="43.041155" lon="2.327645"><ele>392.3333333333333</ele><time>2026-03-30T06:57:13.684Z</time></trkpt><trkpt lat="43.041145" lon="2.32777"><ele>392.16666666666663</ele><time>2026-03-30T06:57:14.686Z</time></trkpt><trkpt lat="43.0411367" lon="2.3278867"><ele>392.0</ele><time>2026-03-30T06:57:15.686Z</time></trkpt><trkpt lat="43.0411183" lon="2.3279883"><ele>393.16666666666663</ele><time>2026-03-30T06:57:16.685Z</time></trkpt><trkpt lat="43.0410983" lon="2.3280717"><ele>394.3333333333333</ele><time>2026-03-30T06:57:17.684Z</time></trkpt><trkpt lat="43.0410683" lon="2.3281983"><ele>395.5</ele><time>2026-03-30T06:57:19.684Z</time></trkpt><trkpt lat="43.04103" lon="2.32831"><ele>396.66666666666663</ele><time>2026-03-30T06:57:22.686Z</time></trkpt><trkpt lat="43.0410033" lon="2.3283933"><ele>397.8333333333333</ele><time>2026-03-30T06:57:24.685Z</time></trkpt><trkpt lat="43.0409733" lon="2.32853"><ele>399.0</ele><time>2026-03-30T06:57:26.686Z</time></trkpt><trkpt lat="43.04095" lon="2.328615"><ele>399.0</ele><time>2026-03-30T06:57:27.684Z</time></trkpt><trkpt lat="43.04093" lon="2.3287017"><ele>399.0</ele><time>2026-03-30T06:57:28.685Z</time></trkpt><trkpt lat="43.0409167" lon="2.3287983"><ele>399.0</ele><time>2026-03-30T06:57:29.686Z</time></trkpt><trkpt lat="43.0409033" lon="2.3289017"><ele>399.0</ele><time>2026-03-30T06:57:30.684Z</time></trkpt><trkpt lat="43.0409017" lon="2.3290133"><ele>399.0</ele><time>2026-03-30T06:57:31.69Z</time></trkpt><trkpt lat="43.040915" lon="2.329125"><ele>399.0</ele><time>2026-03-30T06:57:32.686Z</time></trkpt><trkpt lat="43.040945" lon="2.329225"><ele>399.5</ele><time>2026-03-30T06:57:33.685Z</time></trkpt><trkpt lat="43.0409867" lon="2.329315"><ele>400.0</ele><time>2026-03-30T06:57:34.685Z</time></trkpt><trkpt lat="43.04104" lon="2.329405"><ele>400.5</ele><time>2026-03-30T06:57:35.685Z</time></trkpt><trkpt lat="43.04109" lon="2.3294933"><ele>401.0</ele><time>2026-03-30T06:57:36.686Z</time></trkpt><trkpt lat="43.0411283" lon="2.329575"><ele>401.5</ele><time>2026-03-30T06:57:37.687Z</time></trkpt><trkpt lat="43.0411583" lon="2.32966"><ele>402.0</ele><time>2026-03-30T06:57:38.685Z</time></trkpt><trkpt lat="43.0411783" lon="2.32975"><ele>400.0</ele><time>2026-03-30T06:57:39.684Z</time></trkpt><trkpt lat="43.041195" lon="2.3298467"><ele>398.0</ele><time>2026-03-30T06:57:40.685Z</time></trkpt><trkpt lat="43.0412067" lon="2.3299567"><ele>396.0</ele><time>2026-03-30T06:57:41.686Z</time></trkpt><trkpt lat="43.0412167" lon="2.3300767"><ele>394.0</ele><time>2026-03-30T06:57:42.684Z</time></trkpt><trkpt lat="43.0412283" lon="2.330195"><ele>392.0</ele><time>2026-03-30T06:57:43.688Z</time></trkpt><trkpt lat="43.0412467" lon="2.3302983"><ele>390.0</ele><time>2026-03-30T06:57:44.685Z</time></trkpt><trkpt lat="43.0412667" lon="2.3303933"><ele>390.0</ele><time>2026-03-30T06:57:45.684Z</time></trkpt><trkpt lat="43.0412933" lon="2.330475"><ele>390.0</ele><time>2026-03-30T06:57:46.685Z</time></trkpt><trkpt lat="43.0413933" lon="2.3305967"><ele>390.0</ele><time>2026-03-30T06:57:48.688Z</time></trkpt><trkpt lat="43.0414667" lon="2.33064"><ele>390.0</ele><time>2026-03-30T06:57:49.687Z</time></trkpt><trkpt lat="43.0415517" lon="2.330685"><ele>390.0</ele><time>2026-03-30T06:57:50.687Z</time></trkpt><trkpt lat="43.04164" lon="2.3307317"><ele>391.6666666666667</ele><time>2026-03-30T06:57:51.687Z</time></trkpt><trkpt lat="43.041725" lon="2.3307767"><ele>393.33333333333337</ele><time>2026-03-30T06:57:52.687Z</time></trkpt><trkpt lat="43.0417983" lon="2.3308183"><ele>395.0</ele><time>2026-03-30T06:57:53.687Z</time></trkpt><trkpt lat="43.0418633" lon="2.330855"><ele>396.6666666666667</ele><time>2026-03-30T06:57:54.687Z</time></trkpt><trkpt lat="43.0419483" lon="2.330875"><ele>398.33333333333337</ele><time>2026-03-30T06:57:56.687Z</time></trkpt><trkpt lat="43.041975" lon="2.3310017"><ele>400.0</ele><time>2026-03-30T06:58:18.686Z</time></trkpt><trkpt lat="43.0419617" lon="2.3311867"><ele>400.0</ele><time>2026-03-30T06:58:20.689Z</time></trkpt><trkpt lat="43.0419683" lon="2.3313033"><ele>400.0</ele><time>2026-03-30T06:58:21.685Z</time></trkpt><trkpt lat="43.0419767" lon="2.33143"><ele>400.0</ele><time>2026-03-30T06:58:22.684Z</time></trkpt><trkpt lat="43.0419867" lon="2.3315617"><ele>400.0</ele><time>2026-03-30T06:58:23.686Z</time></trkpt><trkpt lat="43.042" lon="2.3317033"><ele>400.0</ele><time>2026-03-30T06:58:24.685Z</time></trkpt><trkpt lat="43.042005" lon="2.3318567"><ele>400.5</ele><time>2026-03-30T06:58:25.686Z</time></trkpt><trkpt lat="43.0420117" lon="2.3320217"><ele>401.0</ele><time>2026-03-30T06:58:26.686Z</time></trkpt><trkpt lat="43.042025" lon="2.3321833"><ele>401.5</ele><time>2026-03-30T06:58:27.685Z</time></trkpt><trkpt lat="43.04203" lon="2.3323433"><ele>402.0</ele><time>2026-03-30T06:58:28.684Z</time></trkpt><trkpt lat="43.0420333" lon="2.3325017"><ele>402.0</ele><time>2026-03-30T06:58:29.685Z</time></trkpt><trkpt lat="43.04203" lon="2.33266"><ele>402.0</ele><time>2026-03-30T06:58:30.687Z</time></trkpt><trkpt lat="43.0420183" lon="2.3328183"><ele>402.0</ele><time>2026-03-30T06:58:31.684Z</time></trkpt><trkpt lat="43.0420083" lon="2.33298"><ele>402.0</ele><time>2026-03-30T06:58:32.685Z</time></trkpt><trkpt lat="43.04202" lon="2.3331517"><ele>402.75</ele><time>2026-03-30T06:58:33.685Z</time></trkpt><trkpt lat="43.0420383" lon="2.3333183"><ele>403.5</ele><time>2026-03-30T06:58:34.686Z</time></trkpt><trkpt lat="43.0420567" lon="2.33348"><ele>404.25</ele><time>2026-03-30T06:58:35.685Z</time></trkpt><trkpt lat="43.0420767" lon="2.3336383"><ele>405.0</ele><time>2026-03-30T06:58:36.685Z</time></trkpt><trkpt lat="43.042105" lon="2.3337967"><ele>405.75</ele><time>2026-03-30T06:58:37.685Z</time></trkpt><trkpt lat="43.0421217" lon="2.3339567"><ele>406.5</ele><time>2026-03-30T06:58:38.686Z</time></trkpt><trkpt lat="43.0421217" lon="2.3341233"><ele>407.25</ele><time>2026-03-30T06:58:39.686Z</time></trkpt><trkpt lat="43.042115" lon="2.3342933"><ele>408.0</ele><time>2026-03-30T06:58:40.686Z</time></trkpt><trkpt lat="43.0421033" lon="2.3344617"><ele>408.0</ele><time>2026-03-30T06:58:41.689Z</time></trkpt><trkpt lat="43.0420867" lon="2.33463"><ele>408.0</ele><time>2026-03-30T06:58:42.688Z</time></trkpt><trkpt lat="43.0420733" lon="2.3348"><ele>408.0</ele><time>2026-03-30T06:58:43.684Z</time></trkpt><trkpt lat="43.04207" lon="2.334975"><ele>408.0</ele><time>2026-03-30T06:58:44.686Z</time></trkpt><trkpt lat="43.0420617" lon="2.335145"><ele>407.5</ele><time>2026-03-30T06:58:45.685Z</time></trkpt><trkpt lat="43.0420467" lon="2.3353133"><ele>407.0</ele><time>2026-03-30T06:58:46.686Z</time></trkpt><trkpt lat="43.04204" lon="2.3354783"><ele>406.5</ele><time>2026-03-30T06:58:47.685Z</time></trkpt><trkpt lat="43.0420367" lon="2.3356517"><ele>406.0</ele><time>2026-03-30T06:58:48.685Z</time></trkpt><trkpt lat="43.04204" lon="2.3358383"><ele>404.5</ele><time>2026-03-30T06:58:49.685Z</time></trkpt><trkpt lat="43.04205" lon="2.3360283"><ele>403.0</ele><time>2026-03-30T06:58:50.685Z</time></trkpt><trkpt lat="43.0420617" lon="2.33622"><ele>401.5</ele><time>2026-03-30T06:58:51.685Z</time></trkpt><trkpt lat="43.0420667" lon="2.3364033"><ele>400.0</ele><time>2026-03-30T06:58:52.685Z</time></trkpt><trkpt lat="43.04206" lon="2.3365783"><ele>398.25</ele><time>2026-03-30T06:58:53.685Z</time></trkpt><trkpt lat="43.0420417" lon="2.336745"><ele>396.5</ele><time>2026-03-30T06:58:54.685Z</time></trkpt><trkpt lat="43.042025" lon="2.3369033"><ele>394.75</ele><time>2026-03-30T06:58:55.684Z</time></trkpt><trkpt lat="43.042015" lon="2.3370517"><ele>393.0</ele><time>2026-03-30T06:58:56.685Z</time></trkpt><trkpt lat="43.04202" lon="2.3371917"><ele>392.0</ele><time>2026-03-30T06:58:57.684Z</time></trkpt><trkpt lat="43.0420533" lon="2.3373217"><ele>391.0</ele><time>2026-03-30T06:58:58.686Z</time></trkpt><trkpt lat="43.0421133" lon="2.3374367"><ele>390.0</ele><time>2026-03-30T06:58:59.685Z</time></trkpt><trkpt lat="43.042195" lon="2.337545"><ele>389.0</ele><time>2026-03-30T06:59:00.686Z</time></trkpt><trkpt lat="43.04228" lon="2.337645"><ele>388.0</ele><time>2026-03-30T06:59:01.69Z</time></trkpt><trkpt lat="43.0423667" lon="2.3377433"><ele>388.0</ele><time>2026-03-30T06:59:02.687Z</time></trkpt><trkpt lat="43.0424467" lon="2.3378517"><ele>388.0</ele><time>2026-03-30T06:59:03.684Z</time></trkpt><trkpt lat="43.0425133" lon="2.3379817"><ele>388.0</ele><time>2026-03-30T06:59:04.686Z</time></trkpt><trkpt lat="43.0425617" lon="2.3381333"><ele>388.0</ele><time>2026-03-30T06:59:05.685Z</time></trkpt><trkpt lat="43.042595" lon="2.3382967"><ele>393.5</ele><time>2026-03-30T06:59:06.688Z</time></trkpt><trkpt lat="43.0426033" lon="2.3384633"><ele>399.0</ele><time>2026-03-30T06:59:07.686Z</time></trkpt><trkpt lat="43.042595" lon="2.3386267"><ele>404.5</ele><time>2026-03-30T06:59:08.686Z</time></trkpt><trkpt lat="43.0425667" lon="2.3387867"><ele>410.0</ele><time>2026-03-30T06:59:09.685Z</time></trkpt><trkpt lat="43.0425317" lon="2.33894"><ele>411.0</ele><time>2026-03-30T06:59:10.684Z</time></trkpt><trkpt lat="43.0424917" lon="2.3390967"><ele>412.0</ele><time>2026-03-30T06:59:11.685Z</time></trkpt><trkpt lat="43.0424433" lon="2.3392517"><ele>413.0</ele><time>2026-03-30T06:59:12.686Z</time></trkpt><trkpt lat="43.0423767" lon="2.339395"><ele>414.0</ele><time>2026-03-30T06:59:13.685Z</time></trkpt><trkpt lat="43.0422967" lon="2.3395283"><ele>408.0</ele><time>2026-03-30T06:59:14.686Z</time></trkpt><trkpt lat="43.04222" lon="2.33967"><ele>402.0</ele><time>2026-03-30T06:59:15.685Z</time></trkpt><trkpt lat="43.0421533" lon="2.3398233"><ele>396.0</ele><time>2026-03-30T06:59:16.685Z</time></trkpt><trkpt lat="43.0421017" lon="2.33999"><ele>390.0</ele><time>2026-03-30T06:59:17.687Z</time></trkpt><trkpt lat="43.0420583" lon="2.34016"><ele>390.0</ele><time>2026-03-30T06:59:18.686Z</time></trkpt><trkpt lat="43.0420183" lon="2.3403217"><ele>390.0</ele><time>2026-03-30T06:59:19.687Z</time></trkpt><trkpt lat="43.04197" lon="2.34047"><ele>390.0</ele><time>2026-03-30T06:59:20.687Z</time></trkpt><trkpt lat="43.0419033" lon="2.3405917"><ele>390.0</ele><time>2026-03-30T06:59:21.687Z</time></trkpt><trkpt lat="43.0418183" lon="2.3406833"><ele>391.8</ele><time>2026-03-30T06:59:22.688Z</time></trkpt><trkpt lat="43.04173" lon="2.3407583"><ele>393.6</ele><time>2026-03-30T06:59:23.687Z</time></trkpt><trkpt lat="43.04165" lon="2.3408433"><ele>395.4</ele><time>2026-03-30T06:59:24.687Z</time></trkpt><trkpt lat="43.0416" lon="2.3409583"><ele>397.2</ele><time>2026-03-30T06:59:25.684Z</time></trkpt><trkpt lat="43.0415883" lon="2.3410983"><ele>399.0</ele><time>2026-03-30T06:59:26.686Z</time></trkpt><trkpt lat="43.0416" lon="2.341245"><ele>394.5</ele><time>2026-03-30T06:59:27.685Z</time></trkpt><trkpt lat="43.04162" lon="2.3414017"><ele>390.0</ele><time>2026-03-30T06:59:28.687Z</time></trkpt><trkpt lat="43.0416233" lon="2.341565"><ele>385.5</ele><time>2026-03-30T06:59:29.684Z</time></trkpt><trkpt lat="43.0416067" lon="2.3417217"><ele>381.0</ele><time>2026-03-30T06:59:30.685Z</time></trkpt><trkpt lat="43.0415583" lon="2.3418717"><ele>381.0</ele><time>2026-03-30T06:59:31.685Z</time></trkpt><trkpt lat="43.041485" lon="2.3419983"><ele>381.0</ele><time>2026-03-30T06:59:32.685Z</time></trkpt><trkpt lat="43.04139" lon="2.342105"><ele>381.0</ele><time>2026-03-30T06:59:33.687Z</time></trkpt><trkpt lat="43.0412817" lon="2.3421783"><ele>381.0</ele><time>2026-03-30T06:59:34.685Z</time></trkpt><trkpt lat="43.0411667" lon="2.3422183"><ele>381.5</ele><time>2026-03-30T06:59:35.685Z</time></trkpt><trkpt lat="43.0410483" lon="2.34224"><ele>382.0</ele><time>2026-03-30T06:59:36.685Z</time></trkpt><trkpt lat="43.04093" lon="2.3422667"><ele>382.5</ele><time>2026-03-30T06:59:37.685Z</time></trkpt><trkpt lat="43.0408217" lon="2.34232"><ele>383.0</ele><time>2026-03-30T06:59:38.685Z</time></trkpt><trkpt lat="43.0407317" lon="2.3424183"><ele>383.0</ele><time>2026-03-30T06:59:39.684Z</time></trkpt><trkpt lat="43.040655" lon="2.34254"><ele>383.0</ele><time>2026-03-30T06:59:40.685Z</time></trkpt><trkpt lat="43.040585" lon="2.34267"><ele>383.0</ele><time>2026-03-30T06:59:41.687Z</time></trkpt><trkpt lat="43.0405133" lon="2.3427983"><ele>383.0</ele><time>2026-03-30T06:59:42.685Z</time></trkpt><trkpt lat="43.0404333" lon="2.34292"><ele>383.0</ele><time>2026-03-30T06:59:43.685Z</time></trkpt><trkpt lat="43.0403467" lon="2.3430267"><ele>383.0</ele><time>2026-03-30T06:59:44.686Z</time></trkpt><trkpt lat="43.040255" lon="2.3431117"><ele>383.0</ele><time>2026-03-30T06:59:45.686Z</time></trkpt><trkpt lat="43.04016" lon="2.3431633"><ele>383.0</ele><time>2026-03-30T06:59:46.686Z</time></trkpt><trkpt lat="43.04006" lon="2.34316"><ele>383.0</ele><time>2026-03-30T06:59:47.685Z</time></trkpt><trkpt lat="43.0399617" lon="2.3430967"><ele>384.25</ele><time>2026-03-30T06:59:48.686Z</time></trkpt><trkpt lat="43.0398783" lon="2.3429883"><ele>385.5</ele><time>2026-03-30T06:59:49.693Z</time></trkpt><trkpt lat="43.0397983" lon="2.34286"><ele>386.75</ele><time>2026-03-30T06:59:50.686Z</time></trkpt><trkpt lat="43.0397267" lon="2.3427183"><ele>388.0</ele><time>2026-03-30T06:59:51.686Z</time></trkpt><trkpt lat="43.0396533" lon="2.3425783"><ele>388.0</ele><time>2026-03-30T06:59:52.685Z</time></trkpt><trkpt lat="43.0395667" lon="2.342445"><ele>388.0</ele><time>2026-03-30T06:59:53.686Z</time></trkpt><trkpt lat="43.0394683" lon="2.34233"><ele>388.0</ele><time>2026-03-30T06:59:54.686Z</time></trkpt><trkpt lat="43.0393717" lon="2.3422133"><ele>388.0</ele><time>2026-03-30T06:59:55.685Z</time></trkpt><trkpt lat="43.0392883" lon="2.34208"><ele>385.75</ele><time>2026-03-30T06:59:56.686Z</time></trkpt><trkpt lat="43.039235" lon="2.3419217"><ele>383.5</ele><time>2026-03-30T06:59:57.688Z</time></trkpt><trkpt lat="43.0391933" lon="2.3417567"><ele>381.25</ele><time>2026-03-30T06:59:58.687Z</time></trkpt><trkpt lat="43.0391433" lon="2.3416017"><ele>379.0</ele><time>2026-03-30T06:59:59.687Z</time></trkpt><trkpt lat="43.03907" lon="2.341455"><ele>377.5</ele><time>2026-03-30T07:00:00.687Z</time></trkpt><trkpt lat="43.0390017" lon="2.3413133"><ele>376.0</ele><time>2026-03-30T07:00:01.687Z</time></trkpt><trkpt lat="43.0389567" lon="2.3411683"><ele>374.5</ele><time>2026-03-30T07:00:02.688Z</time></trkpt><trkpt lat="43.0389267" lon="2.34102"><ele>373.0</ele><time>2026-03-30T07:00:03.689Z</time></trkpt><trkpt lat="43.0388983" lon="2.3408783"><ele>373.0</ele><time>2026-03-30T07:00:04.687Z</time></trkpt><trkpt lat="43.0388617" lon="2.3407583"><ele>373.0</ele><time>2026-03-30T07:00:05.687Z</time></trkpt><trkpt lat="43.0388117" lon="2.3406583"><ele>373.0</ele><time>2026-03-30T07:00:06.69Z</time></trkpt><trkpt lat="43.0387383" lon="2.34058"><ele>373.0</ele><time>2026-03-30T07:00:07.687Z</time></trkpt><trkpt lat="43.0386467" lon="2.340535"><ele>373.0</ele><time>2026-03-30T07:00:08.687Z</time></trkpt><trkpt lat="43.03853" lon="2.3405283"><ele>371.59999999999997</ele><time>2026-03-30T07:00:09.687Z</time></trkpt><trkpt lat="43.0384183" lon="2.3405283"><ele>370.2</ele><time>2026-03-30T07:00:10.686Z</time></trkpt><trkpt lat="43.0383133" lon="2.340525"><ele>368.8</ele><time>2026-03-30T07:00:11.687Z</time></trkpt><trkpt lat="43.0382167" lon="2.34052"><ele>367.4</ele><time>2026-03-30T07:00:12.688Z</time></trkpt><trkpt lat="43.0381217" lon="2.340515"><ele>366.0</ele><time>2026-03-30T07:00:13.687Z</time></trkpt><trkpt lat="43.0380333" lon="2.3405133"><ele>366.0</ele><time>2026-03-30T07:00:14.69Z</time></trkpt><trkpt lat="43.0379467" lon="2.3405133"><ele>366.0</ele><time>2026-03-30T07:00:15.688Z</time></trkpt><trkpt lat="43.0378667" lon="2.3405117"><ele>366.0</ele><time>2026-03-30T07:00:16.688Z</time></trkpt><trkpt lat="43.037795" lon="2.340555"><ele>366.0</ele><time>2026-03-30T07:00:17.688Z</time></trkpt><trkpt lat="43.03773" lon="2.3406033"><ele>366.0</ele><time>2026-03-30T07:00:18.689Z</time></trkpt><trkpt lat="43.0376717" lon="2.3406733"><ele>366.0</ele><time>2026-03-30T07:00:19.689Z</time></trkpt><trkpt lat="43.0376383" lon="2.3407783"><ele>365.8</ele><time>2026-03-30T07:00:20.689Z</time></trkpt><trkpt lat="43.03762" lon="2.3409017"><ele>365.6</ele><time>2026-03-30T07:00:21.687Z</time></trkpt><trkpt lat="43.0375983" lon="2.3410367"><ele>365.4</ele><time>2026-03-30T07:00:22.689Z</time></trkpt><trkpt lat="43.0375767" lon="2.34118"><ele>365.2</ele><time>2026-03-30T07:00:23.687Z</time></trkpt><trkpt lat="43.037555" lon="2.3413167"><ele>365.0</ele><time>2026-03-30T07:00:24.693Z</time></trkpt><trkpt lat="43.0375367" lon="2.3414517"><ele>364.8</ele><time>2026-03-30T07:00:25.689Z</time></trkpt><trkpt lat="43.037525" lon="2.3416017"><ele>364.6</ele><time>2026-03-30T07:00:26.685Z</time></trkpt><trkpt lat="43.0375133" lon="2.34172"><ele>364.4</ele><time>2026-03-30T07:00:27.685Z</time></trkpt><trkpt lat="43.0375067" lon="2.3418417"><ele>364.2</ele><time>2026-03-30T07:00:28.688Z</time></trkpt><trkpt lat="43.0375133" lon="2.34195"><ele>364.0</ele><time>2026-03-30T07:00:29.687Z</time></trkpt><trkpt lat="43.037565" lon="2.3420467"><ele>364.0</ele><time>2026-03-30T07:00:30.686Z</time></trkpt><trkpt lat="43.0375917" lon="2.3421333"><ele>364.0</ele><time>2026-03-30T07:00:31.688Z</time></trkpt><trkpt lat="43.0375933" lon="2.34222"><ele>364.0</ele><time>2026-03-30T07:00:32.689Z</time></trkpt><trkpt lat="43.03752" lon="2.34233"><ele>364.0</ele><time>2026-03-30T07:00:34.687Z</time></trkpt><trkpt lat="43.03746" lon="2.342405"><ele>364.0</ele><time>2026-03-30T07:00:36.69Z</time></trkpt><trkpt lat="43.03744" lon="2.34249"><ele>364.0</ele><time>2026-03-30T07:00:38.688Z</time></trkpt><trkpt lat="43.03748" lon="2.342635"><ele>364.16666666666663</ele><time>2026-03-30T07:00:40.688Z</time></trkpt><trkpt lat="43.0375217" lon="2.3427133"><ele>364.3333333333333</ele><time>2026-03-30T07:00:41.687Z</time></trkpt><trkpt lat="43.0375867" lon="2.3427733"><ele>364.5</ele><time>2026-03-30T07:00:42.687Z</time></trkpt><trkpt lat="43.0376783" lon="2.3428317"><ele>364.6666666666667</ele><time>2026-03-30T07:00:43.692Z</time></trkpt><trkpt lat="43.037765" lon="2.3428967"><ele>364.83333333333337</ele><time>2026-03-30T07:00:44.686Z</time></trkpt><trkpt lat="43.0378467" lon="2.34297"><ele>365.0</ele><time>2026-03-30T07:00:45.688Z</time></trkpt><trkpt lat="43.0379083" lon="2.343085"><ele>365.4</ele><time>2026-03-30T07:00:46.687Z</time></trkpt><trkpt lat="43.03793" lon="2.343225"><ele>365.8</ele><time>2026-03-30T07:00:47.688Z</time></trkpt><trkpt lat="43.037905" lon="2.3433583"><ele>366.20000000000005</ele><time>2026-03-30T07:00:48.686Z</time></trkpt><trkpt lat="43.03784" lon="2.343465"><ele>366.6</ele><time>2026-03-30T07:00:49.685Z</time></trkpt><trkpt lat="43.0377333" lon="2.343535"><ele>367.0</ele><time>2026-03-30T07:00:50.687Z</time></trkpt><trkpt lat="43.037615" lon="2.3436"><ele>367.0</ele><time>2026-03-30T07:00:51.686Z</time></trkpt><trkpt lat="43.0374967" lon="2.34367"><ele>367.0</ele><time>2026-03-30T07:00:52.686Z</time></trkpt><trkpt lat="43.0373917" lon="2.343755"><ele>367.0</ele><time>2026-03-30T07:00:53.687Z</time></trkpt><trkpt lat="43.0372967" lon="2.3438733"><ele>367.0</ele><time>2026-03-30T07:00:54.688Z</time></trkpt><trkpt lat="43.03721" lon="2.3440167"><ele>366.25</ele><time>2026-03-30T07:00:55.686Z</time></trkpt><trkpt lat="43.037135" lon="2.3441783"><ele>365.5</ele><time>2026-03-30T07:00:56.688Z</time></trkpt><trkpt lat="43.037055" lon="2.3443333"><ele>364.75</ele><time>2026-03-30T07:00:57.685Z</time></trkpt><trkpt lat="43.036965" lon="2.3444867"><ele>364.0</ele><time>2026-03-30T07:00:58.686Z</time></trkpt><trkpt lat="43.0368783" lon="2.344645"><ele>365.75</ele><time>2026-03-30T07:00:59.685Z</time></trkpt><trkpt lat="43.0368017" lon="2.344805"><ele>367.5</ele><time>2026-03-30T07:01:00.686Z</time></trkpt><trkpt lat="43.0367383" lon="2.3449783"><ele>369.25</ele><time>2026-03-30T07:01:01.685Z</time></trkpt><trkpt lat="43.036685" lon="2.3451567"><ele>371.0</ele><time>2026-03-30T07:01:02.687Z</time></trkpt><trkpt lat="43.0366417" lon="2.3453333"><ele>372.75</ele><time>2026-03-30T07:01:03.687Z</time></trkpt><trkpt lat="43.03661" lon="2.3455133"><ele>374.5</ele><time>2026-03-30T07:01:04.685Z</time></trkpt><trkpt lat="43.036595" lon="2.3456917"><ele>376.25</ele><time>2026-03-30T07:01:05.685Z</time></trkpt><trkpt lat="43.0366067" lon="2.3458667"><ele>378.0</ele><time>2026-03-30T07:01:06.687Z</time></trkpt><trkpt lat="43.03665" lon="2.3460283"><ele>378.0</ele><time>2026-03-30T07:01:07.686Z</time></trkpt><trkpt lat="43.0367367" lon="2.3461517"><ele>378.0</ele><time>2026-03-30T07:01:08.687Z</time></trkpt><trkpt lat="43.0368533" lon="2.3462383"><ele>378.0</ele><time>2026-03-30T07:01:09.689Z</time></trkpt><trkpt lat="43.0369767" lon="2.34631"><ele>378.0</ele><time>2026-03-30T07:01:10.688Z</time></trkpt><trkpt lat="43.037105" lon="2.3463917"><ele>376.5</ele><time>2026-03-30T07:01:11.688Z</time></trkpt><trkpt lat="43.0372233" lon="2.3465"><ele>375.0</ele><time>2026-03-30T07:01:12.686Z</time></trkpt><trkpt lat="43.037315" lon="2.3466467"><ele>373.5</ele><time>2026-03-30T07:01:13.693Z</time></trkpt><trkpt lat="43.0373767" lon="2.346815"><ele>372.0</ele><time>2026-03-30T07:01:14.688Z</time></trkpt><trkpt lat="43.0374133" lon="2.3470017"><ele>372.0</ele><time>2026-03-30T07:01:15.685Z</time></trkpt><trkpt lat="43.037445" lon="2.3471867"><ele>372.0</ele><time>2026-03-30T07:01:16.685Z</time></trkpt><trkpt lat="43.037475" lon="2.34737"><ele>372.0</ele><time>2026-03-30T07:01:17.686Z</time></trkpt><trkpt lat="43.037495" lon="2.347555"><ele>372.0</ele><time>2026-03-30T07:01:18.686Z</time></trkpt><trkpt lat="43.0374967" lon="2.3477383"><ele>375.75</ele><time>2026-03-30T07:01:19.688Z</time></trkpt><trkpt lat="43.037475" lon="2.34792"><ele>379.5</ele><time>2026-03-30T07:01:20.686Z</time></trkpt><trkpt lat="43.0374333" lon="2.34809"><ele>383.25</ele><time>2026-03-30T07:01:21.689Z</time></trkpt><trkpt lat="43.0373567" lon="2.348235"><ele>387.0</ele><time>2026-03-30T07:01:22.691Z</time></trkpt><trkpt lat="43.037245" lon="2.348335"><ele>387.0</ele><time>2026-03-30T07:01:23.692Z</time></trkpt><trkpt lat="43.037115" lon="2.3483917"><ele>387.0</ele><time>2026-03-30T07:01:24.686Z</time></trkpt><trkpt lat="43.0369767" lon="2.3484083"><ele>387.0</ele><time>2026-03-30T07:01:25.686Z</time></trkpt><trkpt lat="43.0368383" lon="2.34841"><ele>387.0</ele><time>2026-03-30T07:01:26.687Z</time></trkpt><trkpt lat="43.0367033" lon="2.3484383"><ele>384.0</ele><time>2026-03-30T07:01:27.686Z</time></trkpt><trkpt lat="43.0365783" lon="2.3485183"><ele>381.0</ele><time>2026-03-30T07:01:28.686Z</time></trkpt><trkpt lat="43.0364733" lon="2.34864"><ele>378.0</ele><time>2026-03-30T07:01:29.686Z</time></trkpt><trkpt lat="43.0364" lon="2.3488"><ele>375.0</ele><time>2026-03-30T07:01:30.69Z</time></trkpt><trkpt lat="43.0363567" lon="2.3489817"><ele>375.0</ele><time>2026-03-30T07:01:31.685Z</time></trkpt><trkpt lat="43.0363433" lon="2.3491733"><ele>375.0</ele><time>2026-03-30T07:01:32.688Z</time></trkpt><trkpt lat="43.036355" lon="2.3493617"><ele>375.0</ele><time>2026-03-30T07:01:33.687Z</time></trkpt><trkpt lat="43.0364" lon="2.3495433"><ele>375.0</ele><time>2026-03-30T07:01:34.687Z</time></trkpt><trkpt lat="43.036485" lon="2.3497017"><ele>374.0</ele><time>2026-03-30T07:01:35.687Z</time></trkpt><trkpt lat="43.0365933" lon="2.3498267"><ele>373.0</ele><time>2026-03-30T07:01:36.686Z</time></trkpt><trkpt lat="43.03672" lon="2.3499233"><ele>372.0</ele><time>2026-03-30T07:01:37.689Z</time></trkpt><trkpt lat="43.0368533" lon="2.3499983"><ele>371.0</ele><time>2026-03-30T07:01:38.688Z</time></trkpt><trkpt lat="43.0369883" lon="2.3500667"><ele>375.75</ele><time>2026-03-30T07:01:39.689Z</time></trkpt><trkpt lat="43.0371217" lon="2.3501367"><ele>380.5</ele><time>2026-03-30T07:01:40.686Z</time></trkpt><trkpt lat="43.0372517" lon="2.3502"><ele>385.25</ele><time>2026-03-30T07:01:41.686Z</time></trkpt><trkpt lat="43.0373783" lon="2.35026"><ele>390.0</ele><time>2026-03-30T07:01:42.685Z</time></trkpt><trkpt lat="43.0374933" lon="2.3503367"><ele>392.5</ele><time>2026-03-30T07:01:43.686Z</time></trkpt><trkpt lat="43.0375833" lon="2.3504583"><ele>395.0</ele><time>2026-03-30T07:01:44.686Z</time></trkpt><trkpt lat="43.0376317" lon="2.3506217"><ele>397.5</ele><time>2026-03-30T07:01:45.685Z</time></trkpt><trkpt lat="43.037635" lon="2.3508017"><ele>400.0</ele><time>2026-03-30T07:01:46.685Z</time></trkpt><trkpt lat="43.0375967" lon="2.3509817"><ele>400.0</ele><time>2026-03-30T07:01:47.687Z</time></trkpt><trkpt lat="43.03754" lon="2.3511567"><ele>400.0</ele><time>2026-03-30T07:01:48.685Z</time></trkpt><trkpt lat="43.037475" lon="2.3513283"><ele>400.0</ele><time>2026-03-30T07:01:49.687Z</time></trkpt><trkpt lat="43.03741" lon="2.3515017"><ele>400.0</ele><time>2026-03-30T07:01:50.688Z</time></trkpt><trkpt lat="43.037365" lon="2.3516817"><ele>398.75</ele><time>2026-03-30T07:01:51.685Z</time></trkpt><trkpt lat="43.0373567" lon="2.3518667"><ele>397.5</ele><time>2026-03-30T07:01:52.685Z</time></trkpt><trkpt lat="43.0373883" lon="2.3520483"><ele>396.25</ele><time>2026-03-30T07:01:53.686Z</time></trkpt><trkpt lat="43.0374483" lon="2.3522183"><ele>395.0</ele><time>2026-03-30T07:01:54.689Z</time></trkpt><trkpt lat="43.0375217" lon="2.3523867"><ele>397.5</ele><time>2026-03-30T07:01:55.691Z</time></trkpt><trkpt lat="43.0375783" lon="2.3525633"><ele>400.0</ele><time>2026-03-30T07:01:56.687Z</time></trkpt><trkpt lat="43.037595" lon="2.3527517"><ele>402.5</ele><time>2026-03-30T07:01:57.686Z</time></trkpt><trkpt lat="43.0375883" lon="2.3529417"><ele>405.0</ele><time>2026-03-30T07:01:58.686Z</time></trkpt><trkpt lat="43.03757" lon="2.353125"><ele>405.0</ele><time>2026-03-30T07:01:59.685Z</time></trkpt><trkpt lat="43.03754" lon="2.3532967"><ele>405.0</ele><time>2026-03-30T07:02:00.689Z</time></trkpt><trkpt lat="43.0374833" lon="2.353445"><ele>405.0</ele><time>2026-03-30T07:02:01.687Z</time></trkpt><trkpt lat="43.037395" lon="2.353555"><ele>405.0</ele><time>2026-03-30T07:02:02.688Z</time></trkpt><trkpt lat="43.0372833" lon="2.3536117"><ele>405.0</ele><time>2026-03-30T07:02:03.69Z</time></trkpt><trkpt lat="43.0371567" lon="2.3536517"><ele>405.0</ele><time>2026-03-30T07:02:04.687Z</time></trkpt><trkpt lat="43.03703" lon="2.3536883"><ele>405.0</ele><time>2026-03-30T07:02:05.687Z</time></trkpt><trkpt lat="43.0369017" lon="2.3537233"><ele>405.0</ele><time>2026-03-30T07:02:06.687Z</time></trkpt><trkpt lat="43.03678" lon="2.3537633"><ele>405.0</ele><time>2026-03-30T07:02:07.687Z</time></trkpt><trkpt lat="43.036675" lon="2.3538317"><ele>405.0</ele><time>2026-03-30T07:02:08.687Z</time></trkpt><trkpt lat="43.0366" lon="2.3539483"><ele>405.0</ele><time>2026-03-30T07:02:09.687Z</time></trkpt><trkpt lat="43.03657" lon="2.3541033"><ele>405.0</ele><time>2026-03-30T07:02:10.687Z</time></trkpt><trkpt lat="43.0365817" lon="2.3542733"><ele>404.25</ele><time>2026-03-30T07:02:11.687Z</time></trkpt><trkpt lat="43.0366117" lon="2.35445"><ele>403.5</ele><time>2026-03-30T07:02:12.688Z</time></trkpt><trkpt lat="43.036645" lon="2.35463"><ele>402.75</ele><time>2026-03-30T07:02:13.687Z</time></trkpt><trkpt lat="43.0366783" lon="2.35481"><ele>402.0</ele><time>2026-03-30T07:02:14.691Z</time></trkpt><trkpt lat="43.03671" lon="2.3549883"><ele>404.25</ele><time>2026-03-30T07:02:15.686Z</time></trkpt><trkpt lat="43.0367417" lon="2.3551717"><ele>406.5</ele><time>2026-03-30T07:02:16.685Z</time></trkpt><trkpt lat="43.0367733" lon="2.3553567"><ele>408.75</ele><time>2026-03-30T07:02:17.686Z</time></trkpt><trkpt lat="43.0368083" lon="2.3555433"><ele>411.0</ele><time>2026-03-30T07:02:18.686Z</time></trkpt><trkpt lat="43.0368483" lon="2.3557283"><ele>411.0</ele><time>2026-03-30T07:02:19.686Z</time></trkpt><trkpt lat="43.0369033" lon="2.3559017"><ele>411.0</ele><time>2026-03-30T07:02:20.686Z</time></trkpt><trkpt lat="43.0369683" lon="2.3560567"><ele>411.0</ele><time>2026-03-30T07:02:21.685Z</time></trkpt><trkpt lat="43.0370117" lon="2.356215"><ele>411.0</ele><time>2026-03-30T07:02:22.685Z</time></trkpt><trkpt lat="43.03701" lon="2.3563817"><ele>412.5</ele><time>2026-03-30T07:02:23.684Z</time></trkpt><trkpt lat="43.0369633" lon="2.35654"><ele>414.0</ele><time>2026-03-30T07:02:24.685Z</time></trkpt><trkpt lat="43.036895" lon="2.356695"><ele>415.5</ele><time>2026-03-30T07:02:25.684Z</time></trkpt><trkpt lat="43.0368267" lon="2.356855"><ele>417.0</ele><time>2026-03-30T07:02:26.687Z</time></trkpt><trkpt lat="43.03676" lon="2.35702"><ele>417.0</ele><time>2026-03-30T07:02:27.685Z</time></trkpt><trkpt lat="43.0366933" lon="2.3571867"><ele>417.0</ele><time>2026-03-30T07:02:28.685Z</time></trkpt><trkpt lat="43.0366233" lon="2.3573567"><ele>417.0</ele><time>2026-03-30T07:02:29.687Z</time></trkpt><trkpt lat="43.0365533" lon="2.3575233"><ele>417.0</ele><time>2026-03-30T07:02:30.686Z</time></trkpt><trkpt lat="43.0364867" lon="2.357685"><ele>416.8</ele><time>2026-03-30T07:02:31.69Z</time></trkpt><trkpt lat="43.0364283" lon="2.3578333"><ele>416.6</ele><time>2026-03-30T07:02:32.69Z</time></trkpt><trkpt lat="43.0363783" lon="2.3579667"><ele>416.40000000000003</ele><time>2026-03-30T07:02:33.686Z</time></trkpt><trkpt lat="43.036325" lon="2.3580833"><ele>416.20000000000005</ele><time>2026-03-30T07:02:34.688Z</time></trkpt><trkpt lat="43.0362433" lon="2.358155"><ele>416.0</ele><time>2026-03-30T07:02:35.686Z</time></trkpt><trkpt lat="43.0361567" lon="2.358175"><ele>415.99999999999994</ele><time>2026-03-30T07:02:36.686Z</time></trkpt><trkpt lat="43.036075" lon="2.35815"><ele>416.0</ele><time>2026-03-30T07:02:37.686Z</time></trkpt><trkpt lat="43.035995" lon="2.35809"><ele>416.0</ele><time>2026-03-30T07:02:38.686Z</time></trkpt><trkpt lat="43.0359417" lon="2.3579717"><ele>416.0</ele><time>2026-03-30T07:02:39.686Z</time></trkpt><trkpt lat="43.0358583" lon="2.35793"><ele>415.99999999999994</ele><time>2026-03-30T07:02:40.689Z</time></trkpt><trkpt lat="43.0357767" lon="2.357955"><ele>416.0</ele><time>2026-03-30T07:02:41.685Z</time></trkpt><trkpt lat="43.0356967" lon="2.358035"><ele>413.0</ele><time>2026-03-30T07:02:42.686Z</time></trkpt><trkpt lat="43.0356367" lon="2.3581683"><ele>410.0</ele><time>2026-03-30T07:02:43.686Z</time></trkpt><trkpt lat="43.035595" lon="2.3583233"><ele>407.0</ele><time>2026-03-30T07:02:44.685Z</time></trkpt><trkpt lat="43.0355667" lon="2.35848"><ele>404.0</ele><time>2026-03-30T07:02:45.688Z</time></trkpt><trkpt lat="43.035565" lon="2.3586467"><ele>404.0</ele><time>2026-03-30T07:02:46.685Z</time></trkpt><trkpt lat="43.0355883" lon="2.3588067"><ele>404.0</ele><time>2026-03-30T07:02:47.686Z</time></trkpt><trkpt lat="43.0356633" lon="2.3589433"><ele>404.0</ele><time>2026-03-30T07:02:48.685Z</time></trkpt><trkpt lat="43.0357617" lon="2.3590567"><ele>404.0</ele><time>2026-03-30T07:02:49.685Z</time></trkpt><trkpt lat="43.0358683" lon="2.3591633"><ele>410.0</ele><time>2026-03-30T07:02:50.686Z</time></trkpt><trkpt lat="43.03597" lon="2.35927"><ele>416.0</ele><time>2026-03-30T07:02:51.685Z</time></trkpt><trkpt lat="43.03607" lon="2.35938"><ele>422.0</ele><time>2026-03-30T07:02:52.685Z</time></trkpt><trkpt lat="43.0361717" lon="2.3594867"><ele>428.0</ele><time>2026-03-30T07:02:53.685Z</time></trkpt><trkpt lat="43.0362767" lon="2.3595983"><ele>428.0</ele><time>2026-03-30T07:02:54.685Z</time></trkpt><trkpt lat="43.0363733" lon="2.359725"><ele>428.0</ele><time>2026-03-30T07:02:55.686Z</time></trkpt><trkpt lat="43.0364417" lon="2.3598717"><ele>428.0</ele><time>2026-03-30T07:02:56.686Z</time></trkpt><trkpt lat="43.036465" lon="2.3600333"><ele>428.0</ele><time>2026-03-30T07:02:57.687Z</time></trkpt><trkpt lat="43.03644" lon="2.3601867"><ele>428.0</ele><time>2026-03-30T07:02:58.686Z</time></trkpt><trkpt lat="43.0363733" lon="2.3603083"><ele>428.0</ele><time>2026-03-30T07:02:59.687Z</time></trkpt><trkpt lat="43.03626" lon="2.3603817"><ele>428.0</ele><time>2026-03-30T07:03:00.686Z</time></trkpt><trkpt lat="43.0361317" lon="2.36044"><ele>428.0</ele><time>2026-03-30T07:03:01.688Z</time></trkpt><trkpt lat="43.036005" lon="2.360495"><ele>425.25</ele><time>2026-03-30T07:03:02.686Z</time></trkpt><trkpt lat="43.035885" lon="2.360545"><ele>422.5</ele><time>2026-03-30T07:03:03.687Z</time></trkpt><trkpt lat="43.0357667" lon="2.3606033"><ele>419.75</ele><time>2026-03-30T07:03:04.687Z</time></trkpt><trkpt lat="43.0356667" lon="2.36069"><ele>417.0</ele><time>2026-03-30T07:03:05.686Z</time></trkpt><trkpt lat="43.03559" lon="2.36082"><ele>417.0</ele><time>2026-03-30T07:03:06.686Z</time></trkpt><trkpt lat="43.0355383" lon="2.3609767"><ele>417.0</ele><time>2026-03-30T07:03:07.686Z</time></trkpt><trkpt lat="43.0355083" lon="2.3611583"><ele>417.0</ele><time>2026-03-30T07:03:08.688Z</time></trkpt><trkpt lat="43.0354817" lon="2.361345"><ele>417.0</ele><time>2026-03-30T07:03:09.687Z</time></trkpt><trkpt lat="43.0354583" lon="2.3615267"><ele>418.75</ele><time>2026-03-30T07:03:10.686Z</time></trkpt><trkpt lat="43.03545" lon="2.3617117"><ele>420.5</ele><time>2026-03-30T07:03:11.686Z</time></trkpt><trkpt lat="43.0354733" lon="2.3619"><ele>422.25</ele><time>2026-03-30T07:03:12.685Z</time></trkpt><trkpt lat="43.03552" lon="2.3620817"><ele>424.0</ele><time>2026-03-30T07:03:13.688Z</time></trkpt><trkpt lat="43.0355933" lon="2.3622483"><ele>424.0</ele><time>2026-03-30T07:03:14.686Z</time></trkpt><trkpt lat="43.035675" lon="2.362415"><ele>424.0</ele><time>2026-03-30T07:03:15.686Z</time></trkpt><trkpt lat="43.0357433" lon="2.3625733"><ele>424.0</ele><time>2026-03-30T07:03:16.686Z</time></trkpt><trkpt lat="43.03577" lon="2.3627567"><ele>424.0</ele><time>2026-03-30T07:03:17.684Z</time></trkpt><trkpt lat="43.0357583" lon="2.3629383"><ele>425.75</ele><time>2026-03-30T07:03:18.685Z</time></trkpt><trkpt lat="43.0357067" lon="2.3631033"><ele>427.5</ele><time>2026-03-30T07:03:19.685Z</time></trkpt><trkpt lat="43.0356117" lon="2.36323"><ele>429.25</ele><time>2026-03-30T07:03:20.689Z</time></trkpt><trkpt lat="43.0354933" lon="2.3633083"><ele>431.0</ele><time>2026-03-30T07:03:21.687Z</time></trkpt><trkpt lat="43.03537" lon="2.3633733"><ele>431.0</ele><time>2026-03-30T07:03:22.686Z</time></trkpt><trkpt lat="43.03526" lon="2.3634733"><ele>431.0</ele><time>2026-03-30T07:03:23.685Z</time></trkpt><trkpt lat="43.0351933" lon="2.3636317"><ele>431.0</ele><time>2026-03-30T07:03:24.686Z</time></trkpt><trkpt lat="43.035175" lon="2.3638133"><ele>431.0</ele><time>2026-03-30T07:03:25.685Z</time></trkpt><trkpt lat="43.03519" lon="2.3639983"><ele>433.25</ele><time>2026-03-30T07:03:26.687Z</time></trkpt><trkpt lat="43.035225" lon="2.3641833"><ele>435.5</ele><time>2026-03-30T07:03:27.687Z</time></trkpt><trkpt lat="43.0352717" lon="2.3643667"><ele>437.75</ele><time>2026-03-30T07:03:28.688Z</time></trkpt><trkpt lat="43.03531" lon="2.3645567"><ele>440.0</ele><time>2026-03-30T07:03:29.687Z</time></trkpt><trkpt lat="43.0353233" lon="2.3647467"><ele>442.0</ele><time>2026-03-30T07:03:30.689Z</time></trkpt><trkpt lat="43.0353117" lon="2.364935"><ele>444.0</ele><time>2026-03-30T07:03:31.687Z</time></trkpt><trkpt lat="43.0352783" lon="2.3651167"><ele>446.0</ele><time>2026-03-30T07:03:32.688Z</time></trkpt><trkpt lat="43.0352383" lon="2.3653"><ele>448.0</ele><time>2026-03-30T07:03:33.687Z</time></trkpt><trkpt lat="43.0352017" lon="2.365485"><ele>449.5</ele><time>2026-03-30T07:03:34.685Z</time></trkpt><trkpt lat="43.03518" lon="2.3656683"><ele>451.0</ele><time>2026-03-30T07:03:35.685Z</time></trkpt><trkpt lat="43.0351533" lon="2.3658367"><ele>452.5</ele><time>2026-03-30T07:03:36.686Z</time></trkpt><trkpt lat="43.035105" lon="2.3659867"><ele>454.0</ele><time>2026-03-30T07:03:37.687Z</time></trkpt><trkpt lat="43.0350233" lon="2.3661033"><ele>452.4</ele><time>2026-03-30T07:03:38.688Z</time></trkpt><trkpt lat="43.0349183" lon="2.3661667"><ele>450.79999999999995</ele><time>2026-03-30T07:03:39.684Z</time></trkpt><trkpt lat="43.034805" lon="2.36621"><ele>449.20000000000005</ele><time>2026-03-30T07:03:40.686Z</time></trkpt><trkpt lat="43.0347067" lon="2.3662767"><ele>447.6</ele><time>2026-03-30T07:03:41.692Z</time></trkpt><trkpt lat="43.034635" lon="2.36638"><ele>446.0</ele><time>2026-03-30T07:03:42.687Z</time></trkpt><trkpt lat="43.0346217" lon="2.3665217"><ele>446.0</ele><time>2026-03-30T07:03:43.684Z</time></trkpt><trkpt lat="43.03465" lon="2.3666983"><ele>446.0</ele><time>2026-03-30T07:03:44.687Z</time></trkpt><trkpt lat="43.0346817" lon="2.3668733"><ele>446.0</ele><time>2026-03-30T07:03:45.685Z</time></trkpt><trkpt lat="43.034715" lon="2.3670583"><ele>446.0</ele><time>2026-03-30T07:03:46.686Z</time></trkpt><trkpt lat="43.0347433" lon="2.36724"><ele>447.25</ele><time>2026-03-30T07:03:47.685Z</time></trkpt><trkpt lat="43.0347583" lon="2.3674233"><ele>448.5</ele><time>2026-03-30T07:03:48.687Z</time></trkpt><trkpt lat="43.0347683" lon="2.36761"><ele>449.75</ele><time>2026-03-30T07:03:49.686Z</time></trkpt><trkpt lat="43.034765" lon="2.3677917"><ele>451.0</ele><time>2026-03-30T07:03:50.687Z</time></trkpt><trkpt lat="43.0347467" lon="2.3679767"><ele>451.5</ele><time>2026-03-30T07:03:51.686Z</time></trkpt><trkpt lat="43.0347317" lon="2.3681733"><ele>452.0</ele><time>2026-03-30T07:03:52.687Z</time></trkpt><trkpt lat="43.0347167" lon="2.36837"><ele>452.5</ele><time>2026-03-30T07:03:53.686Z</time></trkpt><trkpt lat="43.0346983" lon="2.368565"><ele>453.0</ele><time>2026-03-30T07:03:54.688Z</time></trkpt><trkpt lat="43.03468" lon="2.36876"><ele>453.75</ele><time>2026-03-30T07:03:55.687Z</time></trkpt><trkpt lat="43.0346617" lon="2.3689533"><ele>454.5</ele><time>2026-03-30T07:03:56.69Z</time></trkpt><trkpt lat="43.0346417" lon="2.3691467"><ele>455.25</ele><time>2026-03-30T07:03:57.686Z</time></trkpt><trkpt lat="43.03461" lon="2.36933"><ele>456.0</ele><time>2026-03-30T07:03:58.687Z</time></trkpt><trkpt lat="43.0345667" lon="2.3695033"><ele>456.0</ele><time>2026-03-30T07:03:59.685Z</time></trkpt><trkpt lat="43.0344917" lon="2.3696533"><ele>456.0</ele><time>2026-03-30T07:04:00.686Z</time></trkpt><trkpt lat="43.0344083" lon="2.3697883"><ele>456.0</ele><time>2026-03-30T07:04:01.686Z</time></trkpt><trkpt lat="43.0343417" lon="2.3699217"><ele>456.0</ele><time>2026-03-30T07:04:02.687Z</time></trkpt><trkpt lat="43.0343067" lon="2.37007"><ele>458.25</ele><time>2026-03-30T07:04:03.685Z</time></trkpt><trkpt lat="43.0343067" lon="2.37023"><ele>460.5</ele><time>2026-03-30T07:04:04.685Z</time></trkpt><trkpt lat="43.0343367" lon="2.3703883"><ele>462.75</ele><time>2026-03-30T07:04:05.685Z</time></trkpt><trkpt lat="43.0343817" lon="2.370545"><ele>465.0</ele><time>2026-03-30T07:04:06.685Z</time></trkpt><trkpt lat="43.034425" lon="2.3706983"><ele>466.6</ele><time>2026-03-30T07:04:07.685Z</time></trkpt><trkpt lat="43.03445" lon="2.37085"><ele>468.2</ele><time>2026-03-30T07:04:08.686Z</time></trkpt><trkpt lat="43.0344467" lon="2.371"><ele>469.79999999999995</ele><time>2026-03-30T07:04:09.686Z</time></trkpt><trkpt lat="43.034405" lon="2.3711233"><ele>471.4</ele><time>2026-03-30T07:04:10.686Z</time></trkpt><trkpt lat="43.0343267" lon="2.3712033"><ele>473.0</ele><time>2026-03-30T07:04:11.689Z</time></trkpt><trkpt lat="43.0342233" lon="2.3712217"><ele>472.79999999999995</ele><time>2026-03-30T07:04:12.684Z</time></trkpt><trkpt lat="43.034115" lon="2.3711967"><ele>472.59999999999997</ele><time>2026-03-30T07:04:13.687Z</time></trkpt><trkpt lat="43.03401" lon="2.3711583"><ele>472.40000000000003</ele><time>2026-03-30T07:04:14.687Z</time></trkpt><trkpt lat="43.0339017" lon="2.3711333"><ele>472.20000000000005</ele><time>2026-03-30T07:04:15.686Z</time></trkpt><trkpt lat="43.0337983" lon="2.3711617"><ele>472.0</ele><time>2026-03-30T07:04:16.688Z</time></trkpt><trkpt lat="43.0337217" lon="2.37125"><ele>472.40000000000003</ele><time>2026-03-30T07:04:17.686Z</time></trkpt><trkpt lat="43.0336833" lon="2.3713767"><ele>472.80000000000007</ele><time>2026-03-30T07:04:18.688Z</time></trkpt><trkpt lat="43.0336667" lon="2.3715233"><ele>473.2</ele><time>2026-03-30T07:04:19.688Z</time></trkpt><trkpt lat="43.033655" lon="2.3716733"><ele>473.6</ele><time>2026-03-30T07:04:20.689Z</time></trkpt><trkpt lat="43.0336433" lon="2.3718283"><ele>474.0</ele><time>2026-03-30T07:04:21.687Z</time></trkpt><trkpt lat="43.033625" lon="2.3719783"><ele>474.0</ele><time>2026-03-30T07:04:22.686Z</time></trkpt><trkpt lat="43.0335983" lon="2.3721183"><ele>474.0</ele><time>2026-03-30T07:04:23.688Z</time></trkpt><trkpt lat="43.033565" lon="2.3722417"><ele>474.0</ele><time>2026-03-30T07:04:24.688Z</time></trkpt><trkpt lat="43.03352" lon="2.372345"><ele>474.0</ele><time>2026-03-30T07:04:25.686Z</time></trkpt><trkpt lat="43.0334683" lon="2.3724317"><ele>474.0</ele><time>2026-03-30T07:04:26.687Z</time></trkpt><trkpt lat="43.0334217" lon="2.3725083"><ele>474.0</ele><time>2026-03-30T07:04:27.687Z</time></trkpt><trkpt lat="43.0333933" lon="2.372595"><ele>474.1666666666667</ele><time>2026-03-30T07:04:28.687Z</time></trkpt><trkpt lat="43.0333883" lon="2.37269"><ele>474.33333333333337</ele><time>2026-03-30T07:04:29.687Z</time></trkpt><trkpt lat="43.0334017" lon="2.3728"><ele>474.5</ele><time>2026-03-30T07:04:30.685Z</time></trkpt><trkpt lat="43.0334217" lon="2.3729167"><ele>474.6666666666667</ele><time>2026-03-30T07:04:31.685Z</time></trkpt><trkpt lat="43.0334417" lon="2.373045"><ele>474.83333333333337</ele><time>2026-03-30T07:04:32.686Z</time></trkpt><trkpt lat="43.033465" lon="2.3731783"><ele>475.0</ele><time>2026-03-30T07:04:33.687Z</time></trkpt><trkpt lat="43.0334883" lon="2.373315"><ele>475.2</ele><time>2026-03-30T07:04:34.687Z</time></trkpt><trkpt lat="43.03351" lon="2.3734583"><ele>475.4</ele><time>2026-03-30T07:04:35.685Z</time></trkpt><trkpt lat="43.0335283" lon="2.3736083"><ele>475.6</ele><time>2026-03-30T07:04:36.686Z</time></trkpt><trkpt lat="43.03355" lon="2.3737633"><ele>475.8</ele><time>2026-03-30T07:04:37.687Z</time></trkpt><trkpt lat="43.0335717" lon="2.373915"><ele>476.0</ele><time>2026-03-30T07:04:38.688Z</time></trkpt><trkpt lat="43.0335933" lon="2.3740633"><ele>476.0</ele><time>2026-03-30T07:04:39.687Z</time></trkpt><trkpt lat="43.0336133" lon="2.3742083"><ele>476.0</ele><time>2026-03-30T07:04:40.687Z</time></trkpt><trkpt lat="43.03363" lon="2.3743467"><ele>476.0</ele><time>2026-03-30T07:04:41.687Z</time></trkpt><trkpt lat="43.0336517" lon="2.374475"><ele>476.0</ele><time>2026-03-30T07:04:42.685Z</time></trkpt><trkpt lat="43.033685" lon="2.37458"><ele>476.0</ele><time>2026-03-30T07:04:43.686Z</time></trkpt><trkpt lat="43.0337383" lon="2.374645"><ele>475.99999999999994</ele><time>2026-03-30T07:04:44.685Z</time></trkpt><trkpt lat="43.0338117" lon="2.3746467"><ele>476.0</ele><time>2026-03-30T07:04:45.686Z</time></trkpt><trkpt lat="43.0338833" lon="2.3746"><ele>476.0</ele><time>2026-03-30T07:04:46.685Z</time></trkpt><trkpt lat="43.03395" lon="2.3745317"><ele>476.0</ele><time>2026-03-30T07:04:47.689Z</time></trkpt><trkpt lat="43.0340217" lon="2.3744817"><ele>475.99999999999994</ele><time>2026-03-30T07:04:48.686Z</time></trkpt><trkpt lat="43.0340967" lon="2.3744783"><ele>476.0</ele><time>2026-03-30T07:04:49.685Z</time></trkpt><trkpt lat="43.03415" lon="2.3745867"><ele>475.0</ele><time>2026-03-30T07:04:50.686Z</time></trkpt><trkpt lat="43.034175" lon="2.3747167"><ele>474.0</ele><time>2026-03-30T07:04:51.687Z</time></trkpt><trkpt lat="43.0341633" lon="2.3748683"><ele>473.0</ele><time>2026-03-30T07:04:52.685Z</time></trkpt><trkpt lat="43.034145" lon="2.3750217"><ele>472.0</ele><time>2026-03-30T07:04:53.686Z</time></trkpt><trkpt lat="43.0341383" lon="2.37518"><ele>471.0</ele><time>2026-03-30T07:04:54.687Z</time></trkpt><trkpt lat="43.0341517" lon="2.3753483"><ele>470.0</ele><time>2026-03-30T07:04:55.686Z</time></trkpt><trkpt lat="43.0341733" lon="2.3755217"><ele>469.0</ele><time>2026-03-30T07:04:56.687Z</time></trkpt><trkpt lat="43.0342133" lon="2.375695"><ele>468.0</ele><time>2026-03-30T07:04:57.687Z</time></trkpt><trkpt lat="43.03426" lon="2.375875"><ele>467.0</ele><time>2026-03-30T07:04:58.687Z</time></trkpt><trkpt lat="43.034295" lon="2.3760567"><ele>467.0</ele><time>2026-03-30T07:04:59.686Z</time></trkpt><trkpt lat="43.0343233" lon="2.3762317"><ele>467.0</ele><time>2026-03-30T07:05:00.686Z</time></trkpt><trkpt lat="43.034355" lon="2.3764017"><ele>467.0</ele><time>2026-03-30T07:05:01.684Z</time></trkpt><trkpt lat="43.034385" lon="2.3765717"><ele>467.0</ele><time>2026-03-30T07:05:02.687Z</time></trkpt><trkpt lat="43.0343983" lon="2.3767433"><ele>467.0</ele><time>2026-03-30T07:05:03.684Z</time></trkpt><trkpt lat="43.03439" lon="2.3769217"><ele>467.0</ele><time>2026-03-30T07:05:04.687Z</time></trkpt><trkpt lat="43.034365" lon="2.3771083"><ele>467.0</ele><time>2026-03-30T07:05:05.685Z</time></trkpt><trkpt lat="43.034335" lon="2.3773017"><ele>467.0</ele><time>2026-03-30T07:05:06.686Z</time></trkpt><trkpt lat="43.0343017" lon="2.377495"><ele>466.25</ele><time>2026-03-30T07:05:07.685Z</time></trkpt><trkpt lat="43.0342667" lon="2.3776883"><ele>465.5</ele><time>2026-03-30T07:05:08.686Z</time></trkpt><trkpt lat="43.034225" lon="2.37788"><ele>464.75</ele><time>2026-03-30T07:05:09.686Z</time></trkpt><trkpt lat="43.0341817" lon="2.3780683"><ele>464.0</ele><time>2026-03-30T07:05:10.685Z</time></trkpt><trkpt lat="43.03413" lon="2.3782433"><ele>463.75</ele><time>2026-03-30T07:05:11.685Z</time></trkpt><trkpt lat="43.0340783" lon="2.3784183"><ele>463.5</ele><time>2026-03-30T07:05:12.685Z</time></trkpt><trkpt lat="43.0340283" lon="2.3785933"><ele>463.25</ele><time>2026-03-30T07:05:13.684Z</time></trkpt><trkpt lat="43.0339867" lon="2.3787817"><ele>463.0</ele><time>2026-03-30T07:05:14.686Z</time></trkpt><trkpt lat="43.0339583" lon="2.3789667"><ele>461.5</ele><time>2026-03-30T07:05:15.685Z</time></trkpt><trkpt lat="43.0339467" lon="2.37915"><ele>460.0</ele><time>2026-03-30T07:05:16.685Z</time></trkpt><trkpt lat="43.0339483" lon="2.37933"><ele>458.5</ele><time>2026-03-30T07:05:17.686Z</time></trkpt><trkpt lat="43.033955" lon="2.379505"><ele>457.0</ele><time>2026-03-30T07:05:18.686Z</time></trkpt><trkpt lat="43.0339767" lon="2.3796767"><ele>457.5</ele><time>2026-03-30T07:05:19.687Z</time></trkpt><trkpt lat="43.0340267" lon="2.379845"><ele>458.0</ele><time>2026-03-30T07:05:20.685Z</time></trkpt><trkpt lat="43.0340867" lon="2.3800017"><ele>458.5</ele><time>2026-03-30T07:05:21.687Z</time></trkpt><trkpt lat="43.0341667" lon="2.38014"><ele>459.0</ele><time>2026-03-30T07:05:22.686Z</time></trkpt><trkpt lat="43.0342533" lon="2.3802733"><ele>456.25</ele><time>2026-03-30T07:05:23.687Z</time></trkpt><trkpt lat="43.0343283" lon="2.3804117"><ele>453.5</ele><time>2026-03-30T07:05:24.687Z</time></trkpt><trkpt lat="43.03438" lon="2.3805683"><ele>450.75</ele><time>2026-03-30T07:05:25.687Z</time></trkpt><trkpt lat="43.0344033" lon="2.380745"><ele>448.0</ele><time>2026-03-30T07:05:26.684Z</time></trkpt><trkpt lat="43.0344167" lon="2.3809283"><ele>447.5</ele><time>2026-03-30T07:05:27.688Z</time></trkpt><trkpt lat="43.0344233" lon="2.38112"><ele>447.0</ele><time>2026-03-30T07:05:28.687Z</time></trkpt><trkpt lat="43.0344317" lon="2.3813133"><ele>446.5</ele><time>2026-03-30T07:05:29.687Z</time></trkpt><trkpt lat="43.0344467" lon="2.3815017"><ele>446.0</ele><time>2026-03-30T07:05:30.686Z</time></trkpt><trkpt lat="43.0344583" lon="2.3816817"><ele>445.5</ele><time>2026-03-30T07:05:31.684Z</time></trkpt><trkpt lat="43.034465" lon="2.3818517"><ele>445.0</ele><time>2026-03-30T07:05:32.689Z</time></trkpt><trkpt lat="43.0344567" lon="2.38202"><ele>444.5</ele><time>2026-03-30T07:05:33.687Z</time></trkpt><trkpt lat="43.03443" lon="2.382185"><ele>444.0</ele><time>2026-03-30T07:05:34.685Z</time></trkpt><trkpt lat="43.0343817" lon="2.38235"><ele>443.25</ele><time>2026-03-30T07:05:35.689Z</time></trkpt><trkpt lat="43.03431" lon="2.3825033"><ele>442.5</ele><time>2026-03-30T07:05:36.686Z</time></trkpt><trkpt lat="43.0342283" lon="2.3826417"><ele>441.75</ele><time>2026-03-30T07:05:37.684Z</time></trkpt><trkpt lat="43.034145" lon="2.382775"><ele>441.0</ele><time>2026-03-30T07:05:38.687Z</time></trkpt><trkpt lat="43.034065" lon="2.382905"><ele>442.0</ele><time>2026-03-30T07:05:39.685Z</time></trkpt><trkpt lat="43.0340033" lon="2.3830333"><ele>443.0</ele><time>2026-03-30T07:05:40.685Z</time></trkpt><trkpt lat="43.0339567" lon="2.3831667"><ele>444.0</ele><time>2026-03-30T07:05:41.684Z</time></trkpt><trkpt lat="43.0339067" lon="2.3832967"><ele>445.0</ele><time>2026-03-30T07:05:42.686Z</time></trkpt><trkpt lat="43.03384" lon="2.3834133"><ele>446.0</ele><time>2026-03-30T07:05:43.685Z</time></trkpt><trkpt lat="43.03375" lon="2.38351"><ele>446.0</ele><time>2026-03-30T07:05:44.687Z</time></trkpt><trkpt lat="43.03365" lon="2.3835783"><ele>446.0</ele><time>2026-03-30T07:05:45.686Z</time></trkpt><trkpt lat="43.0335433" lon="2.38366"><ele>446.0</ele><time>2026-03-30T07:05:46.685Z</time></trkpt><trkpt lat="43.033445" lon="2.3837583"><ele>446.0</ele><time>2026-03-30T07:05:47.685Z</time></trkpt><trkpt lat="43.0333533" lon="2.3838733"><ele>447.0</ele><time>2026-03-30T07:05:48.687Z</time></trkpt><trkpt lat="43.0332567" lon="2.383985"><ele>448.0</ele><time>2026-03-30T07:05:49.686Z</time></trkpt><trkpt lat="43.0331567" lon="2.384085"><ele>449.0</ele><time>2026-03-30T07:05:50.688Z</time></trkpt><trkpt lat="43.0330517" lon="2.3841867"><ele>450.0</ele><time>2026-03-30T07:05:51.685Z</time></trkpt><trkpt lat="43.0329483" lon="2.384295"><ele>450.0</ele><time>2026-03-30T07:05:52.685Z</time></trkpt><trkpt lat="43.03286" lon="2.3844183"><ele>450.0</ele><time>2026-03-30T07:05:53.685Z</time></trkpt><trkpt lat="43.032815" lon="2.3845317"><ele>450.0</ele><time>2026-03-30T07:05:54.685Z</time></trkpt><trkpt lat="43.0327617" lon="2.3846917"><ele>450.0</ele><time>2026-03-30T07:05:55.685Z</time></trkpt><trkpt lat="43.0327183" lon="2.38485"><ele>447.4</ele><time>2026-03-30T07:05:56.685Z</time></trkpt><trkpt lat="43.0326667" lon="2.3849917"><ele>444.8</ele><time>2026-03-30T07:05:57.685Z</time></trkpt><trkpt lat="43.032635" lon="2.3851267"><ele>442.20000000000005</ele><time>2026-03-30T07:05:58.685Z</time></trkpt><trkpt lat="43.032625" lon="2.3852683"><ele>439.6</ele><time>2026-03-30T07:05:59.685Z</time></trkpt><trkpt lat="43.032655" lon="2.3854"><ele>437.0</ele><time>2026-03-30T07:06:00.686Z</time></trkpt><trkpt lat="43.0327183" lon="2.3855283"><ele>435.25</ele><time>2026-03-30T07:06:01.685Z</time></trkpt><trkpt lat="43.03279" lon="2.38566"><ele>433.5</ele><time>2026-03-30T07:06:02.685Z</time></trkpt><trkpt lat="43.0328733" lon="2.3857883"><ele>431.75</ele><time>2026-03-30T07:06:03.684Z</time></trkpt><trkpt lat="43.0329317" lon="2.3859383"><ele>430.0</ele><time>2026-03-30T07:06:04.687Z</time></trkpt><trkpt lat="43.0329833" lon="2.3860967"><ele>430.0</ele><time>2026-03-30T07:06:05.684Z</time></trkpt><trkpt lat="43.0330333" lon="2.3862517"><ele>430.0</ele><time>2026-03-30T07:06:06.686Z</time></trkpt><trkpt lat="43.03308" lon="2.3864033"><ele>430.0</ele><time>2026-03-30T07:06:07.684Z</time></trkpt><trkpt lat="43.0331217" lon="2.38656"><ele>430.0</ele><time>2026-03-30T07:06:08.685Z</time></trkpt><trkpt lat="43.0331533" lon="2.38672"><ele>429.5</ele><time>2026-03-30T07:06:09.685Z</time></trkpt><trkpt lat="43.0331583" lon="2.3868933"><ele>429.0</ele><time>2026-03-30T07:06:10.687Z</time></trkpt><trkpt lat="43.03314" lon="2.3870633"><ele>428.5</ele><time>2026-03-30T07:06:11.685Z</time></trkpt><trkpt lat="43.0330933" lon="2.38718"><ele>428.0</ele><time>2026-03-30T07:06:12.689Z</time></trkpt><trkpt lat="43.0330267" lon="2.3873183"><ele>427.25</ele><time>2026-03-30T07:06:13.686Z</time></trkpt><trkpt lat="43.0329517" lon="2.3874717"><ele>426.5</ele><time>2026-03-30T07:06:14.687Z</time></trkpt><trkpt lat="43.032875" lon="2.38763"><ele>425.75</ele><time>2026-03-30T07:06:15.686Z</time></trkpt><trkpt lat="43.0327883" lon="2.3878"><ele>425.0</ele><time>2026-03-30T07:06:16.686Z</time></trkpt><trkpt lat="43.0326983" lon="2.3879583"><ele>428.25</ele><time>2026-03-30T07:06:17.684Z</time></trkpt><trkpt lat="43.032615" lon="2.3881133"><ele>431.5</ele><time>2026-03-30T07:06:18.688Z</time></trkpt><trkpt lat="43.0325283" lon="2.388265"><ele>434.75</ele><time>2026-03-30T07:06:19.686Z</time></trkpt><trkpt lat="43.0324483" lon="2.3884117"><ele>438.0</ele><time>2026-03-30T07:06:20.685Z</time></trkpt><trkpt lat="43.0324267" lon="2.3885017"><ele>442.0</ele><time>2026-03-30T07:06:21.686Z</time></trkpt><trkpt lat="43.0323433" lon="2.3886783"><ele>446.0</ele><time>2026-03-30T07:06:22.688Z</time></trkpt><trkpt lat="43.0322867" lon="2.3888533"><ele>450.0</ele><time>2026-03-30T07:06:23.685Z</time></trkpt><trkpt lat="43.03223" lon="2.3890517"><ele>454.0</ele><time>2026-03-30T07:06:24.685Z</time></trkpt><trkpt lat="43.0321967" lon="2.3892567"><ele>455.6666666666667</ele><time>2026-03-30T07:06:25.686Z</time></trkpt><trkpt lat="43.032165" lon="2.3894633"><ele>457.33333333333337</ele><time>2026-03-30T07:06:26.686Z</time></trkpt><trkpt lat="43.0321133" lon="2.38967"><ele>459.0</ele><time>2026-03-30T07:06:27.686Z</time></trkpt><trkpt lat="43.0320767" lon="2.38988"><ele>459.0</ele><time>2026-03-30T07:06:28.687Z</time></trkpt><trkpt lat="43.0320417" lon="2.3900767"><ele>459.0</ele><time>2026-03-30T07:06:29.686Z</time></trkpt><trkpt lat="43.0320183" lon="2.3902783"><ele>459.0</ele><time>2026-03-30T07:06:30.685Z</time></trkpt><trkpt lat="43.0319983" lon="2.3904817"><ele>459.0</ele><time>2026-03-30T07:06:31.686Z</time></trkpt><trkpt lat="43.0319767" lon="2.3906883"><ele>460.0</ele><time>2026-03-30T07:06:32.685Z</time></trkpt><trkpt lat="43.0319633" lon="2.3908983"><ele>461.0</ele><time>2026-03-30T07:06:33.688Z</time></trkpt><trkpt lat="43.0319633" lon="2.3911167"><ele>462.0</ele><time>2026-03-30T07:06:34.685Z</time></trkpt><trkpt lat="43.0319833" lon="2.3913283"><ele>463.0</ele><time>2026-03-30T07:06:35.692Z</time></trkpt><trkpt lat="43.0320083" lon="2.3915417"><ele>464.0</ele><time>2026-03-30T07:06:36.685Z</time></trkpt><trkpt lat="43.0320367" lon="2.3917433"><ele>465.0</ele><time>2026-03-30T07:06:37.686Z</time></trkpt><trkpt lat="43.0320717" lon="2.391955"><ele>465.0</ele><time>2026-03-30T07:06:38.685Z</time></trkpt><trkpt lat="43.0321067" lon="2.39216"><ele>465.0</ele><time>2026-03-30T07:06:39.686Z</time></trkpt><trkpt lat="43.03214" lon="2.3923667"><ele>465.0</ele><time>2026-03-30T07:06:40.686Z</time></trkpt><trkpt lat="43.0321567" lon="2.3925717"><ele>467.0</ele><time>2026-03-30T07:06:41.686Z</time></trkpt><trkpt lat="43.0321621" lon="2.3927793"><ele>469.0</ele><time>2026-03-30T07:06:42.684Z</time></trkpt><trkpt lat="43.0321503" lon="2.392984"><ele>471.0</ele><time>2026-03-30T07:06:43.689Z</time></trkpt><trkpt lat="43.0321255" lon="2.3931825"><ele>473.0</ele><time>2026-03-30T07:06:44.686Z</time></trkpt><trkpt lat="43.0321104" lon="2.3933786"><ele>473.25</ele><time>2026-03-30T07:06:45.685Z</time></trkpt><trkpt lat="43.0321134" lon="2.3935753"><ele>473.5</ele><time>2026-03-30T07:06:46.685Z</time></trkpt><trkpt lat="43.0321256" lon="2.3937739"><ele>473.75</ele><time>2026-03-30T07:06:47.685Z</time></trkpt><trkpt lat="43.0321403" lon="2.3939732"><ele>474.0</ele><time>2026-03-30T07:06:48.685Z</time></trkpt><trkpt lat="43.0321475" lon="2.3941708"><ele>476.25</ele><time>2026-03-30T07:06:49.687Z</time></trkpt><trkpt lat="43.0321554" lon="2.3943715"><ele>478.5</ele><time>2026-03-30T07:06:50.684Z</time></trkpt><trkpt lat="43.0321687" lon="2.3945743"><ele>480.75</ele><time>2026-03-30T07:06:51.684Z</time></trkpt><trkpt lat="43.0321873" lon="2.3947762"><ele>483.0</ele><time>2026-03-30T07:06:52.685Z</time></trkpt><trkpt lat="43.0322036" lon="2.3949744"><ele>484.5</ele><time>2026-03-30T07:06:53.684Z</time></trkpt><trkpt lat="43.0322175" lon="2.3951653"><ele>486.0</ele><time>2026-03-30T07:06:54.685Z</time></trkpt><trkpt lat="43.0322338" lon="2.3953522"><ele>487.5</ele><time>2026-03-30T07:06:55.685Z</time></trkpt><trkpt lat="43.0322611" lon="2.3955375"><ele>489.0</ele><time>2026-03-30T07:06:56.688Z</time></trkpt><trkpt lat="43.0323096" lon="2.395715"><ele>489.25</ele><time>2026-03-30T07:06:57.688Z</time></trkpt><trkpt lat="43.0323757" lon="2.3958833"><ele>489.5</ele><time>2026-03-30T07:06:58.684Z</time></trkpt><trkpt lat="43.0324448" lon="2.3960505"><ele>489.75</ele><time>2026-03-30T07:06:59.685Z</time></trkpt><trkpt lat="43.0325099" lon="2.3962164"><ele>490.0</ele><time>2026-03-30T07:07:00.686Z</time></trkpt><trkpt lat="43.0325592" lon="2.3963911"><ele>487.75</ele><time>2026-03-30T07:07:01.686Z</time></trkpt><trkpt lat="43.0325803" lon="2.3965766"><ele>485.5</ele><time>2026-03-30T07:07:02.686Z</time></trkpt><trkpt lat="43.0325919" lon="2.3967672"><ele>483.25</ele><time>2026-03-30T07:07:03.689Z</time></trkpt><trkpt lat="43.0326116" lon="2.3969575"><ele>481.0</ele><time>2026-03-30T07:07:04.685Z</time></trkpt><trkpt lat="43.0326514" lon="2.3971433"><ele>481.5</ele><time>2026-03-30T07:07:05.686Z</time></trkpt><trkpt lat="43.0327076" lon="2.3973235"><ele>482.0</ele><time>2026-03-30T07:07:06.684Z</time></trkpt><trkpt lat="43.0327883" lon="2.3974867"><ele>482.5</ele><time>2026-03-30T07:07:07.687Z</time></trkpt><trkpt lat="43.0328817" lon="2.3976283"><ele>483.0</ele><time>2026-03-30T07:07:08.685Z</time></trkpt><trkpt lat="43.0329833" lon="2.39776"><ele>483.0</ele><time>2026-03-30T07:07:09.685Z</time></trkpt><trkpt lat="43.033085" lon="2.3978917"><ele>483.0</ele><time>2026-03-30T07:07:10.684Z</time></trkpt><trkpt lat="43.0331817" lon="2.3980283"><ele>483.0</ele><time>2026-03-30T07:07:11.688Z</time></trkpt><trkpt lat="43.03327" lon="2.3981733"><ele>483.0</ele><time>2026-03-30T07:07:12.688Z</time></trkpt><trkpt lat="43.03335" lon="2.3983267"><ele>480.5</ele><time>2026-03-30T07:07:13.686Z</time></trkpt><trkpt lat="43.033405" lon="2.3984867"><ele>478.0</ele><time>2026-03-30T07:07:14.686Z</time></trkpt><trkpt lat="43.033435" lon="2.39865"><ele>475.5</ele><time>2026-03-30T07:07:15.685Z</time></trkpt><trkpt lat="43.033425" lon="2.3988117"><ele>473.0</ele><time>2026-03-30T07:07:16.686Z</time></trkpt><trkpt lat="43.0333683" lon="2.3989583"><ele>479.25</ele><time>2026-03-30T07:07:17.684Z</time></trkpt><trkpt lat="43.0332867" lon="2.3990817"><ele>485.5</ele><time>2026-03-30T07:07:18.686Z</time></trkpt><trkpt lat="43.0332117" lon="2.39921"><ele>491.75</ele><time>2026-03-30T07:07:19.685Z</time></trkpt><trkpt lat="43.0331783" lon="2.3993667"><ele>498.0</ele><time>2026-03-30T07:07:20.687Z</time></trkpt><trkpt lat="43.0331783" lon="2.399535"><ele>499.5</ele><time>2026-03-30T07:07:21.685Z</time></trkpt><trkpt lat="43.0331983" lon="2.399705"><ele>501.0</ele><time>2026-03-30T07:07:22.685Z</time></trkpt><trkpt lat="43.0332117" lon="2.39988"><ele>502.5</ele><time>2026-03-30T07:07:23.685Z</time></trkpt><trkpt lat="43.0332083" lon="2.4000633"><ele>504.0</ele><time>2026-03-30T07:07:24.686Z</time></trkpt><trkpt lat="43.033185" lon="2.4002467"><ele>504.0</ele><time>2026-03-30T07:07:25.684Z</time></trkpt><trkpt lat="43.0331383" lon="2.4004233"><ele>504.0</ele><time>2026-03-30T07:07:26.687Z</time></trkpt><trkpt lat="43.0330817" lon="2.4005933"><ele>504.0</ele><time>2026-03-30T07:07:27.685Z</time></trkpt><trkpt lat="43.0330483" lon="2.4007783"><ele>504.0</ele><time>2026-03-30T07:07:28.685Z</time></trkpt><trkpt lat="43.0330383" lon="2.4009717"><ele>504.25</ele><time>2026-03-30T07:07:29.69Z</time></trkpt><trkpt lat="43.03304" lon="2.4011733"><ele>504.5</ele><time>2026-03-30T07:07:30.685Z</time></trkpt><trkpt lat="43.0330383" lon="2.4013767"><ele>504.75</ele><time>2026-03-30T07:07:31.684Z</time></trkpt><trkpt lat="43.0330283" lon="2.40157"><ele>505.0</ele><time>2026-03-30T07:07:32.685Z</time></trkpt><trkpt lat="43.03301" lon="2.4017533"><ele>505.0</ele><time>2026-03-30T07:07:33.685Z</time></trkpt><trkpt lat="43.0329867" lon="2.4019367"><ele>505.0</ele><time>2026-03-30T07:07:34.685Z</time></trkpt><trkpt lat="43.0329567" lon="2.4021233"><ele>505.0</ele><time>2026-03-30T07:07:35.684Z</time></trkpt><trkpt lat="43.03292" lon="2.40231"><ele>505.0</ele><time>2026-03-30T07:07:36.686Z</time></trkpt><trkpt lat="43.0328833" lon="2.4024983"><ele>504.5</ele><time>2026-03-30T07:07:37.686Z</time></trkpt><trkpt lat="43.0328467" lon="2.40269"><ele>504.0</ele><time>2026-03-30T07:07:38.686Z</time></trkpt><trkpt lat="43.0328017" lon="2.40288"><ele>503.5</ele><time>2026-03-30T07:07:39.688Z</time></trkpt><trkpt lat="43.0327517" lon="2.403065"><ele>503.0</ele><time>2026-03-30T07:07:40.686Z</time></trkpt><trkpt lat="43.0327033" lon="2.4032483"><ele>502.75</ele><time>2026-03-30T07:07:41.685Z</time></trkpt><trkpt lat="43.0326567" lon="2.4034267"><ele>502.5</ele><time>2026-03-30T07:07:42.685Z</time></trkpt><trkpt lat="43.0326083" lon="2.403605"><ele>502.25</ele><time>2026-03-30T07:07:43.686Z</time></trkpt><trkpt lat="43.0325567" lon="2.4037717"><ele>502.0</ele><time>2026-03-30T07:07:44.688Z</time></trkpt><trkpt lat="43.0325017" lon="2.403935"><ele>508.25</ele><time>2026-03-30T07:07:45.688Z</time></trkpt><trkpt lat="43.0324433" lon="2.4040983"><ele>514.5</ele><time>2026-03-30T07:07:46.686Z</time></trkpt><trkpt lat="43.03239" lon="2.40427"><ele>520.75</ele><time>2026-03-30T07:07:47.685Z</time></trkpt><trkpt lat="43.0323383" lon="2.4044433"><ele>527.0</ele><time>2026-03-30T07:07:48.686Z</time></trkpt><trkpt lat="43.0322817" lon="2.4046133"><ele>525.75</ele><time>2026-03-30T07:07:49.688Z</time></trkpt><trkpt lat="43.03223" lon="2.4047817"><ele>524.5</ele><time>2026-03-30T07:07:50.687Z</time></trkpt><trkpt lat="43.03218" lon="2.40495"><ele>523.25</ele><time>2026-03-30T07:07:51.686Z</time></trkpt><trkpt lat="43.0321233" lon="2.4051167"><ele>522.0</ele><time>2026-03-30T07:07:52.688Z</time></trkpt><trkpt lat="43.0320717" lon="2.4052783"><ele>522.0</ele><time>2026-03-30T07:07:53.688Z</time></trkpt><trkpt lat="43.0320167" lon="2.40543"><ele>522.0</ele><time>2026-03-30T07:07:54.689Z</time></trkpt><trkpt lat="43.0319667" lon="2.4055883"><ele>522.0</ele><time>2026-03-30T07:07:55.685Z</time></trkpt><trkpt lat="43.0319217" lon="2.405745"><ele>522.0</ele><time>2026-03-30T07:07:56.686Z</time></trkpt><trkpt lat="43.03188" lon="2.4059017"><ele>521.0</ele><time>2026-03-30T07:07:57.685Z</time></trkpt><trkpt lat="43.0318367" lon="2.40608"><ele>520.0</ele><time>2026-03-30T07:07:58.686Z</time></trkpt><trkpt lat="43.0317967" lon="2.4062633"><ele>519.0</ele><time>2026-03-30T07:07:59.685Z</time></trkpt><trkpt lat="43.0317583" lon="2.4064467"><ele>518.0</ele><time>2026-03-30T07:08:00.685Z</time></trkpt><trkpt lat="43.03171" lon="2.4066233"><ele>517.75</ele><time>2026-03-30T07:08:01.687Z</time></trkpt><trkpt lat="43.0316483" lon="2.4067867"><ele>517.5</ele><time>2026-03-30T07:08:02.688Z</time></trkpt><trkpt lat="43.03158" lon="2.4069417"><ele>517.25</ele><time>2026-03-30T07:08:03.686Z</time></trkpt><trkpt lat="43.0315133" lon="2.407095"><ele>517.0</ele><time>2026-03-30T07:08:04.685Z</time></trkpt><trkpt lat="43.0314483" lon="2.4072433"><ele>519.5</ele><time>2026-03-30T07:08:05.685Z</time></trkpt><trkpt lat="43.0313833" lon="2.4073917"><ele>522.0</ele><time>2026-03-30T07:08:06.688Z</time></trkpt><trkpt lat="43.031315" lon="2.4075367"><ele>524.5</ele><time>2026-03-30T07:08:07.686Z</time></trkpt><trkpt lat="43.0312467" lon="2.4076783"><ele>527.0</ele><time>2026-03-30T07:08:08.687Z</time></trkpt><trkpt lat="43.031175" lon="2.4078167"><ele>527.0</ele><time>2026-03-30T07:08:09.687Z</time></trkpt><trkpt lat="43.0310917" lon="2.407945"><ele>527.0</ele><time>2026-03-30T07:08:10.685Z</time></trkpt><trkpt lat="43.031" lon="2.4080467"><ele>527.0</ele><time>2026-03-30T07:08:11.687Z</time></trkpt><trkpt lat="43.0309067" lon="2.4081317"><ele>527.0</ele><time>2026-03-30T07:08:12.686Z</time></trkpt><trkpt lat="43.0308183" lon="2.4082"><ele>525.1666666666666</ele><time>2026-03-30T07:08:13.688Z</time></trkpt><trkpt lat="43.0307383" lon="2.408275"><ele>523.3333333333333</ele><time>2026-03-30T07:08:14.688Z</time></trkpt><trkpt lat="43.0306633" lon="2.4083317"><ele>521.5</ele><time>2026-03-30T07:08:15.685Z</time></trkpt><trkpt lat="43.0305783" lon="2.4083683"><ele>519.6666666666666</ele><time>2026-03-30T07:08:16.687Z</time></trkpt><trkpt lat="43.03049" lon="2.4083817"><ele>517.8333333333334</ele><time>2026-03-30T07:08:17.685Z</time></trkpt><trkpt lat="43.0304033" lon="2.4083717"><ele>516.0</ele><time>2026-03-30T07:08:18.686Z</time></trkpt><trkpt lat="43.0303233" lon="2.4083167"><ele>516.0</ele><time>2026-03-30T07:08:19.686Z</time></trkpt><trkpt lat="43.0302467" lon="2.4082567"><ele>516.0</ele><time>2026-03-30T07:08:20.686Z</time></trkpt><trkpt lat="43.0301817" lon="2.408155"><ele>516.0</ele><time>2026-03-30T07:08:21.686Z</time></trkpt><trkpt lat="43.0301217" lon="2.4080217"><ele>516.0</ele><time>2026-03-30T07:08:22.687Z</time></trkpt><trkpt lat="43.030055" lon="2.4078883"><ele>516.0</ele><time>2026-03-30T07:08:23.685Z</time></trkpt><trkpt lat="43.0299833" lon="2.4077867"><ele>523.8</ele><time>2026-03-30T07:08:24.685Z</time></trkpt><trkpt lat="43.02992" lon="2.40768"><ele>531.6</ele><time>2026-03-30T07:08:25.686Z</time></trkpt><trkpt lat="43.0298517" lon="2.40757"><ele>539.4</ele><time>2026-03-30T07:08:26.687Z</time></trkpt><trkpt lat="43.02979" lon="2.4074733"><ele>547.2</ele><time>2026-03-30T07:08:27.685Z</time></trkpt><trkpt lat="43.0297317" lon="2.4073933"><ele>555.0</ele><time>2026-03-30T07:08:28.687Z</time></trkpt><trkpt lat="43.0296683" lon="2.407325"><ele>555.0</ele><time>2026-03-30T07:08:29.685Z</time></trkpt><trkpt lat="43.0295533" lon="2.4073283"><ele>555.0</ele><time>2026-03-30T07:08:31.687Z</time></trkpt><trkpt lat="43.02953" lon="2.4074717"><ele>555.0</ele><time>2026-03-30T07:08:32.687Z</time></trkpt><trkpt lat="43.0295083" lon="2.4076"><ele>555.0</ele><time>2026-03-30T07:08:33.685Z</time></trkpt><trkpt lat="43.0294983" lon="2.4077633"><ele>555.0</ele><time>2026-03-30T07:08:34.688Z</time></trkpt><trkpt lat="43.0294733" lon="2.4079117"><ele>549.75</ele><time>2026-03-30T07:08:35.687Z</time></trkpt><trkpt lat="43.02945" lon="2.4080617"><ele>544.5</ele><time>2026-03-30T07:08:36.687Z</time></trkpt><trkpt lat="43.0294217" lon="2.4082083"><ele>539.25</ele><time>2026-03-30T07:08:37.688Z</time></trkpt><trkpt lat="43.02938" lon="2.4083583"><ele>534.0</ele><time>2026-03-30T07:08:38.686Z</time></trkpt><trkpt lat="43.0293317" lon="2.4085017"><ele>534.0</ele><time>2026-03-30T07:08:39.689Z</time></trkpt><trkpt lat="43.029275" lon="2.4086317"><ele>534.0</ele><time>2026-03-30T07:08:40.685Z</time></trkpt><trkpt lat="43.0292183" lon="2.4087533"><ele>534.0</ele><time>2026-03-30T07:08:41.685Z</time></trkpt><trkpt lat="43.02915" lon="2.40888"><ele>534.0</ele><time>2026-03-30T07:08:42.686Z</time></trkpt><trkpt lat="43.0290783" lon="2.40899"><ele>534.0</ele><time>2026-03-30T07:08:43.686Z</time></trkpt><trkpt lat="43.0289983" lon="2.4090683"><ele>527.6</ele><time>2026-03-30T07:08:44.688Z</time></trkpt><trkpt lat="43.02891" lon="2.4091017"><ele>521.2</ele><time>2026-03-30T07:08:45.686Z</time></trkpt><trkpt lat="43.0288067" lon="2.4091017"><ele>514.8000000000001</ele><time>2026-03-30T07:08:46.687Z</time></trkpt><trkpt lat="43.0286967" lon="2.4090467"><ele>508.40000000000003</ele><time>2026-03-30T07:08:47.685Z</time></trkpt><trkpt lat="43.0285883" lon="2.408985"><ele>502.0</ele><time>2026-03-30T07:08:48.686Z</time></trkpt><trkpt lat="43.02849" lon="2.4089167"><ele>502.0</ele><time>2026-03-30T07:08:49.687Z</time></trkpt><trkpt lat="43.02841" lon="2.4088317"><ele>502.00000000000006</ele><time>2026-03-30T07:08:50.687Z</time></trkpt><trkpt lat="43.0283367" lon="2.40875"><ele>502.00000000000006</ele><time>2026-03-30T07:08:51.685Z</time></trkpt><trkpt lat="43.0282567" lon="2.408695"><ele>502.0</ele><time>2026-03-30T07:08:52.693Z</time></trkpt><trkpt lat="43.0281683" lon="2.4086683"><ele>502.0</ele><time>2026-03-30T07:08:53.686Z</time></trkpt><trkpt lat="43.02807" lon="2.4087267"><ele>503.0</ele><time>2026-03-30T07:08:54.685Z</time></trkpt><trkpt lat="43.0279667" lon="2.4087983"><ele>504.0</ele><time>2026-03-30T07:08:55.685Z</time></trkpt><trkpt lat="43.027855" lon="2.4088433"><ele>505.0</ele><time>2026-03-30T07:08:56.69Z</time></trkpt><trkpt lat="43.0277367" lon="2.4088883"><ele>506.0</ele><time>2026-03-30T07:08:57.687Z</time></trkpt><trkpt lat="43.027615" lon="2.408935"><ele>506.0</ele><time>2026-03-30T07:08:58.686Z</time></trkpt><trkpt lat="43.0274983" lon="2.4090067"><ele>506.0</ele><time>2026-03-30T07:08:59.685Z</time></trkpt><trkpt lat="43.02739" lon="2.4090817"><ele>506.0</ele><time>2026-03-30T07:09:00.688Z</time></trkpt><trkpt lat="43.0272867" lon="2.409155"><ele>506.0</ele><time>2026-03-30T07:09:01.686Z</time></trkpt><trkpt lat="43.0271817" lon="2.409225"><ele>509.5</ele><time>2026-03-30T07:09:02.687Z</time></trkpt><trkpt lat="43.0270717" lon="2.4092783"><ele>513.0</ele><time>2026-03-30T07:09:03.686Z</time></trkpt><trkpt lat="43.0269583" lon="2.409305"><ele>516.5</ele><time>2026-03-30T07:09:04.685Z</time></trkpt><trkpt lat="43.0268433" lon="2.409305"><ele>520.0</ele><time>2026-03-30T07:09:05.686Z</time></trkpt><trkpt lat="43.0267317" lon="2.4093483"><ele>519.75</ele><time>2026-03-30T07:09:06.685Z</time></trkpt><trkpt lat="43.0266317" lon="2.4094367"><ele>519.5</ele><time>2026-03-30T07:09:07.685Z</time></trkpt><trkpt lat="43.0265467" lon="2.4095617"><ele>519.25</ele><time>2026-03-30T07:09:08.687Z</time></trkpt><trkpt lat="43.0264783" lon="2.409675"><ele>519.0</ele><time>2026-03-30T07:09:09.686Z</time></trkpt><trkpt lat="43.0264133" lon="2.4098217"><ele>519.0</ele><time>2026-03-30T07:09:10.685Z</time></trkpt><trkpt lat="43.0263567" lon="2.40996"><ele>519.0</ele><time>2026-03-30T07:09:11.686Z</time></trkpt><trkpt lat="43.0262983" lon="2.41009"><ele>519.0</ele><time>2026-03-30T07:09:12.685Z</time></trkpt><trkpt lat="43.026235" lon="2.4102167"><ele>519.0</ele><time>2026-03-30T07:09:13.686Z</time></trkpt><trkpt lat="43.0261717" lon="2.4103317"><ele>519.0</ele><time>2026-03-30T07:09:14.685Z</time></trkpt><trkpt lat="43.026115" lon="2.4104433"><ele>517.2</ele><time>2026-03-30T07:09:15.687Z</time></trkpt><trkpt lat="43.026075" lon="2.4105517"><ele>515.4</ele><time>2026-03-30T07:09:16.687Z</time></trkpt><trkpt lat="43.0260567" lon="2.41066"><ele>513.6</ele><time>2026-03-30T07:09:17.687Z</time></trkpt><trkpt lat="43.02607" lon="2.4107617"><ele>511.8</ele><time>2026-03-30T07:09:18.685Z</time></trkpt><trkpt lat="43.0261667" lon="2.4108067"><ele>510.0</ele><time>2026-03-30T07:09:19.687Z</time></trkpt><trkpt lat="43.02627" lon="2.4108267"><ele>510.0</ele><time>2026-03-30T07:09:20.686Z</time></trkpt><trkpt lat="43.0263883" lon="2.4108367"><ele>510.0</ele><time>2026-03-30T07:09:21.686Z</time></trkpt><trkpt lat="43.0265133" lon="2.4107733"><ele>510.0</ele><time>2026-03-30T07:09:22.686Z</time></trkpt><trkpt lat="43.02663" lon="2.410705"><ele>510.0</ele><time>2026-03-30T07:09:23.686Z</time></trkpt><trkpt lat="43.0267417" lon="2.41062"><ele>507.25</ele><time>2026-03-30T07:09:24.687Z</time></trkpt><trkpt lat="43.0268467" lon="2.4105333"><ele>504.5</ele><time>2026-03-30T07:09:25.688Z</time></trkpt><trkpt lat="43.0269483" lon="2.4104433"><ele>501.75</ele><time>2026-03-30T07:09:26.688Z</time></trkpt><trkpt lat="43.0270583" lon="2.4103617"><ele>499.0</ele><time>2026-03-30T07:09:27.686Z</time></trkpt><trkpt lat="43.0271717" lon="2.41028"><ele>498.0</ele><time>2026-03-30T07:09:28.687Z</time></trkpt><trkpt lat="43.0272867" lon="2.4102217"><ele>497.0</ele><time>2026-03-30T07:09:29.688Z</time></trkpt><trkpt lat="43.0273967" lon="2.4101717"><ele>496.0</ele><time>2026-03-30T07:09:30.688Z</time></trkpt><trkpt lat="43.02751" lon="2.4101417"><ele>495.0</ele><time>2026-03-30T07:09:31.687Z</time></trkpt><trkpt lat="43.0276183" lon="2.4101217"><ele>492.75</ele><time>2026-03-30T07:09:32.686Z</time></trkpt><trkpt lat="43.0277283" lon="2.4101233"><ele>490.5</ele><time>2026-03-30T07:09:33.689Z</time></trkpt><trkpt lat="43.02785" lon="2.4101617"><ele>488.25</ele><time>2026-03-30T07:09:34.689Z</time></trkpt><trkpt lat="43.02797" lon="2.4102283"><ele>486.0</ele><time>2026-03-30T07:09:35.685Z</time></trkpt><trkpt lat="43.028075" lon="2.4103183"><ele>486.0</ele><time>2026-03-30T07:09:36.689Z</time></trkpt><trkpt lat="43.0281783" lon="2.4104217"><ele>486.0</ele><time>2026-03-30T07:09:37.686Z</time></trkpt><trkpt lat="43.0282883" lon="2.410535"><ele>486.0</ele><time>2026-03-30T07:09:38.69Z</time></trkpt><trkpt lat="43.0284" lon="2.4106583"><ele>486.0</ele><time>2026-03-30T07:09:39.685Z</time></trkpt><trkpt lat="43.0285067" lon="2.4107783"><ele>485.0</ele><time>2026-03-30T07:09:40.686Z</time></trkpt><trkpt lat="43.02861" lon="2.410905"><ele>484.0</ele><time>2026-03-30T07:09:41.686Z</time></trkpt><trkpt lat="43.02871" lon="2.4110333"><ele>483.0</ele><time>2026-03-30T07:09:42.685Z</time></trkpt><trkpt lat="43.0287967" lon="2.4111717"><ele>482.0</ele><time>2026-03-30T07:09:43.686Z</time></trkpt><trkpt lat="43.0288767" lon="2.4113133"><ele>477.25</ele><time>2026-03-30T07:09:44.687Z</time></trkpt><trkpt lat="43.0289533" lon="2.4114533"><ele>472.5</ele><time>2026-03-30T07:09:45.685Z</time></trkpt><trkpt lat="43.0290267" lon="2.4115867"><ele>467.75</ele><time>2026-03-30T07:09:46.686Z</time></trkpt><trkpt lat="43.0290983" lon="2.4117283"><ele>463.0</ele><time>2026-03-30T07:09:47.686Z</time></trkpt><trkpt lat="43.0291683" lon="2.4118833"><ele>463.0</ele><time>2026-03-30T07:09:48.688Z</time></trkpt><trkpt lat="43.02923" lon="2.4120567"><ele>463.0</ele><time>2026-03-30T07:09:49.686Z</time></trkpt><trkpt lat="43.0292917" lon="2.4122417"><ele>463.0</ele><time>2026-03-30T07:09:50.688Z</time></trkpt><trkpt lat="43.0293417" lon="2.4124317"><ele>463.0</ele><time>2026-03-30T07:09:51.687Z</time></trkpt><trkpt lat="43.0293967" lon="2.412625"><ele>464.75</ele><time>2026-03-30T07:09:52.687Z</time></trkpt><trkpt lat="43.0294517" lon="2.4128183"><ele>466.5</ele><time>2026-03-30T07:09:53.687Z</time></trkpt><trkpt lat="43.0294983" lon="2.4130033"><ele>468.25</ele><time>2026-03-30T07:09:54.685Z</time></trkpt><trkpt lat="43.0295567" lon="2.413185"><ele>470.0</ele><time>2026-03-30T07:09:55.686Z</time></trkpt><trkpt lat="43.029615" lon="2.41337"><ele>472.25</ele><time>2026-03-30T07:09:56.688Z</time></trkpt><trkpt lat="43.0296733" lon="2.4135567"><ele>474.5</ele><time>2026-03-30T07:09:57.685Z</time></trkpt><trkpt lat="43.0297333" lon="2.4137433"><ele>476.75</ele><time>2026-03-30T07:09:58.687Z</time></trkpt><trkpt lat="43.0298" lon="2.4139283"><ele>479.0</ele><time>2026-03-30T07:09:59.685Z</time></trkpt><trkpt lat="43.0298683" lon="2.4141167"><ele>481.3333333333333</ele><time>2026-03-30T07:10:00.685Z</time></trkpt><trkpt lat="43.0299383" lon="2.4143083"><ele>483.66666666666663</ele><time>2026-03-30T07:10:01.684Z</time></trkpt><trkpt lat="43.03" lon="2.4144967"><ele>486.0</ele><time>2026-03-30T07:10:02.685Z</time></trkpt><trkpt lat="43.0300533" lon="2.4146833"><ele>476.0</ele><time>2026-03-30T07:10:03.685Z</time></trkpt><trkpt lat="43.030105" lon="2.4148667"><ele>466.0</ele><time>2026-03-30T07:10:04.688Z</time></trkpt><trkpt lat="43.030155" lon="2.4150417"><ele>456.0</ele><time>2026-03-30T07:10:05.685Z</time></trkpt><trkpt lat="43.0302067" lon="2.4152083"><ele>446.0</ele><time>2026-03-30T07:10:06.687Z</time></trkpt><trkpt lat="43.0302633" lon="2.4153733"><ele>443.25</ele><time>2026-03-30T07:10:07.685Z</time></trkpt><trkpt lat="43.03032" lon="2.415535"><ele>440.5</ele><time>2026-03-30T07:10:08.685Z</time></trkpt><trkpt lat="43.03038" lon="2.415705"><ele>437.75</ele><time>2026-03-30T07:10:09.686Z</time></trkpt><trkpt lat="43.0304433" lon="2.41588"><ele>435.0</ele><time>2026-03-30T07:10:10.687Z</time></trkpt><trkpt lat="43.0304983" lon="2.4160617"><ele>435.0</ele><time>2026-03-30T07:10:11.687Z</time></trkpt><trkpt lat="43.03056" lon="2.41624"><ele>435.0</ele><time>2026-03-30T07:10:12.685Z</time></trkpt><trkpt lat="43.0306167" lon="2.41641"><ele>435.0</ele><time>2026-03-30T07:10:13.685Z</time></trkpt><trkpt lat="43.0306767" lon="2.41658"><ele>435.0</ele><time>2026-03-30T07:10:14.686Z</time></trkpt><trkpt lat="43.0307333" lon="2.41675"><ele>435.75</ele><time>2026-03-30T07:10:15.684Z</time></trkpt><trkpt lat="43.03079" lon="2.4169283"><ele>436.5</ele><time>2026-03-30T07:10:16.685Z</time></trkpt><trkpt lat="43.030845" lon="2.4171117"><ele>437.25</ele><time>2026-03-30T07:10:17.686Z</time></trkpt><trkpt lat="43.0308917" lon="2.4173017"><ele>438.0</ele><time>2026-03-30T07:10:18.685Z</time></trkpt><trkpt lat="43.030925" lon="2.4174967"><ele>439.5</ele><time>2026-03-30T07:10:19.685Z</time></trkpt><trkpt lat="43.03096" lon="2.4176883"><ele>441.0</ele><time>2026-03-30T07:10:20.686Z</time></trkpt><trkpt lat="43.0309867" lon="2.4178817"><ele>442.5</ele><time>2026-03-30T07:10:21.685Z</time></trkpt><trkpt lat="43.0310217" lon="2.4180717"><ele>444.0</ele><time>2026-03-30T07:10:22.689Z</time></trkpt><trkpt lat="43.0310683" lon="2.41825"><ele>448.0</ele><time>2026-03-30T07:10:23.686Z</time></trkpt><trkpt lat="43.0311217" lon="2.4184183"><ele>452.0</ele><time>2026-03-30T07:10:24.685Z</time></trkpt><trkpt lat="43.0311783" lon="2.4185717"><ele>456.0</ele><time>2026-03-30T07:10:25.686Z</time></trkpt><trkpt lat="43.0312317" lon="2.4187117"><ele>460.0</ele><time>2026-03-30T07:10:26.686Z</time></trkpt><trkpt lat="43.0312983" lon="2.418805"><ele>462.4</ele><time>2026-03-30T07:10:27.687Z</time></trkpt><trkpt lat="43.0313533" lon="2.41886"><ele>464.8</ele><time>2026-03-30T07:10:28.685Z</time></trkpt><trkpt lat="43.031425" lon="2.4189183"><ele>467.20000000000005</ele><time>2026-03-30T07:10:29.686Z</time></trkpt><trkpt lat="43.0314633" lon="2.4190333"><ele>469.6</ele><time>2026-03-30T07:10:30.684Z</time></trkpt><trkpt lat="43.031475" lon="2.419175"><ele>472.0</ele><time>2026-03-30T07:10:31.685Z</time></trkpt><trkpt lat="43.0314783" lon="2.41933"><ele>472.0</ele><time>2026-03-30T07:10:32.685Z</time></trkpt><trkpt lat="43.031475" lon="2.4194833"><ele>472.0</ele><time>2026-03-30T07:10:33.686Z</time></trkpt><trkpt lat="43.0314767" lon="2.4196417"><ele>472.0</ele><time>2026-03-30T07:10:34.685Z</time></trkpt><trkpt lat="43.0315" lon="2.4198033"><ele>472.0</ele><time>2026-03-30T07:10:35.685Z</time></trkpt><trkpt lat="43.03154" lon="2.419965"><ele>474.75</ele><time>2026-03-30T07:10:36.687Z</time></trkpt><trkpt lat="43.03159" lon="2.4201317"><ele>477.5</ele><time>2026-03-30T07:10:37.685Z</time></trkpt><trkpt lat="43.0316483" lon="2.420305"><ele>480.25</ele><time>2026-03-30T07:10:38.685Z</time></trkpt><trkpt lat="43.0317017" lon="2.4204833"><ele>483.0</ele><time>2026-03-30T07:10:39.686Z</time></trkpt><trkpt lat="43.0317483" lon="2.4206633"><ele>477.5</ele><time>2026-03-30T07:10:40.686Z</time></trkpt><trkpt lat="43.031785" lon="2.4208483"><ele>472.0</ele><time>2026-03-30T07:10:41.686Z</time></trkpt><trkpt lat="43.0318183" lon="2.42104"><ele>466.5</ele><time>2026-03-30T07:10:42.687Z</time></trkpt><trkpt lat="43.0318533" lon="2.4212333"><ele>461.0</ele><time>2026-03-30T07:10:43.687Z</time></trkpt><trkpt lat="43.03189" lon="2.4214267"><ele>461.0</ele><time>2026-03-30T07:10:44.686Z</time></trkpt><trkpt lat="43.0319317" lon="2.4216217"><ele>461.0</ele><time>2026-03-30T07:10:45.686Z</time></trkpt><trkpt lat="43.0319733" lon="2.4218183"><ele>461.0</ele><time>2026-03-30T07:10:46.685Z</time></trkpt><trkpt lat="43.0320133" lon="2.4220167"><ele>461.0</ele><time>2026-03-30T07:10:47.686Z</time></trkpt><trkpt lat="43.03205" lon="2.422215"><ele>463.5</ele><time>2026-03-30T07:10:48.689Z</time></trkpt><trkpt lat="43.0320883" lon="2.42241"><ele>466.0</ele><time>2026-03-30T07:10:49.686Z</time></trkpt><trkpt lat="43.0321267" lon="2.4226067"><ele>468.5</ele><time>2026-03-30T07:10:50.685Z</time></trkpt><trkpt lat="43.032155" lon="2.422805"><ele>471.0</ele><time>2026-03-30T07:10:51.687Z</time></trkpt><trkpt lat="43.0321783" lon="2.423005"><ele>473.0</ele><time>2026-03-30T07:10:52.686Z</time></trkpt><trkpt lat="43.0321983" lon="2.4232033"><ele>475.0</ele><time>2026-03-30T07:10:53.686Z</time></trkpt><trkpt lat="43.032215" lon="2.4233983"><ele>477.0</ele><time>2026-03-30T07:10:54.685Z</time></trkpt><trkpt lat="43.0322283" lon="2.4235917"><ele>479.0</ele><time>2026-03-30T07:10:55.685Z</time></trkpt><trkpt lat="43.0322467" lon="2.4237767"><ele>480.75</ele><time>2026-03-30T07:10:56.686Z</time></trkpt><trkpt lat="43.0322617" lon="2.42396"><ele>482.5</ele><time>2026-03-30T07:10:57.688Z</time></trkpt><trkpt lat="43.03227" lon="2.424145"><ele>484.25</ele><time>2026-03-30T07:10:58.684Z</time></trkpt><trkpt lat="43.0322533" lon="2.4243267"><ele>486.0</ele><time>2026-03-30T07:10:59.685Z</time></trkpt><trkpt lat="43.0322133" lon="2.42449"><ele>486.25</ele><time>2026-03-30T07:11:00.687Z</time></trkpt><trkpt lat="43.0321483" lon="2.4246467"><ele>486.5</ele><time>2026-03-30T07:11:01.686Z</time></trkpt><trkpt lat="43.0321" lon="2.424815"><ele>486.75</ele><time>2026-03-30T07:11:02.686Z</time></trkpt><trkpt lat="43.0320667" lon="2.4249967"><ele>487.0</ele><time>2026-03-30T07:11:03.684Z</time></trkpt><trkpt lat="43.0320683" lon="2.4251917"><ele>487.0</ele><time>2026-03-30T07:11:04.687Z</time></trkpt><trkpt lat="43.03207" lon="2.42539"><ele>487.0</ele><time>2026-03-30T07:11:05.685Z</time></trkpt><trkpt lat="43.032075" lon="2.4255967"><ele>487.0</ele><time>2026-03-30T07:11:06.686Z</time></trkpt><trkpt lat="43.0320833" lon="2.4257967"><ele>487.0</ele><time>2026-03-30T07:11:07.686Z</time></trkpt><trkpt lat="43.032095" lon="2.4259933"><ele>486.5</ele><time>2026-03-30T07:11:08.686Z</time></trkpt><trkpt lat="43.032095" lon="2.42619"><ele>486.0</ele><time>2026-03-30T07:11:09.686Z</time></trkpt><trkpt lat="43.03208" lon="2.4263767"><ele>485.5</ele><time>2026-03-30T07:11:10.687Z</time></trkpt><trkpt lat="43.0320583" lon="2.4265667"><ele>485.0</ele><time>2026-03-30T07:11:11.685Z</time></trkpt><trkpt lat="43.0320483" lon="2.42676"><ele>485.0</ele><time>2026-03-30T07:11:12.688Z</time></trkpt><trkpt lat="43.0320667" lon="2.4269517"><ele>485.0</ele><time>2026-03-30T07:11:13.686Z</time></trkpt><trkpt lat="43.0320967" lon="2.4271467"><ele>485.0</ele><time>2026-03-30T07:11:14.687Z</time></trkpt><trkpt lat="43.0321233" lon="2.4273367"><ele>485.0</ele><time>2026-03-30T07:11:15.685Z</time></trkpt><trkpt lat="43.0321533" lon="2.4275283"><ele>485.5</ele><time>2026-03-30T07:11:16.685Z</time></trkpt><trkpt lat="43.03218" lon="2.4277217"><ele>486.0</ele><time>2026-03-30T07:11:17.689Z</time></trkpt><trkpt lat="43.0322" lon="2.42792"><ele>486.5</ele><time>2026-03-30T07:11:18.687Z</time></trkpt><trkpt lat="43.0322083" lon="2.42812"><ele>487.0</ele><time>2026-03-30T07:11:19.685Z</time></trkpt><trkpt lat="43.0322133" lon="2.4283217"><ele>488.5</ele><time>2026-03-30T07:11:20.686Z</time></trkpt><trkpt lat="43.0322167" lon="2.4285233"><ele>490.0</ele><time>2026-03-30T07:11:21.685Z</time></trkpt><trkpt lat="43.0322283" lon="2.428725"><ele>491.5</ele><time>2026-03-30T07:11:22.686Z</time></trkpt><trkpt lat="43.0322367" lon="2.4289267"><ele>493.0</ele><time>2026-03-30T07:11:23.691Z</time></trkpt><trkpt lat="43.0322517" lon="2.4291267"><ele>494.25</ele><time>2026-03-30T07:11:24.685Z</time></trkpt><trkpt lat="43.0322767" lon="2.4293217"><ele>495.5</ele><time>2026-03-30T07:11:25.686Z</time></trkpt><trkpt lat="43.0323067" lon="2.42952"><ele>496.75</ele><time>2026-03-30T07:11:26.685Z</time></trkpt><trkpt lat="43.0323333" lon="2.42972"><ele>498.0</ele><time>2026-03-30T07:11:27.685Z</time></trkpt><trkpt lat="43.0323567" lon="2.4299167"><ele>499.5</ele><time>2026-03-30T07:11:28.687Z</time></trkpt><trkpt lat="43.03238" lon="2.4301117"><ele>501.0</ele><time>2026-03-30T07:11:29.686Z</time></trkpt><trkpt lat="43.032405" lon="2.43031"><ele>502.5</ele><time>2026-03-30T07:11:30.685Z</time></trkpt><trkpt lat="43.032425" lon="2.4305083"><ele>504.0</ele><time>2026-03-30T07:11:31.684Z</time></trkpt><trkpt lat="43.0324433" lon="2.4307083"><ele>504.5</ele><time>2026-03-30T07:11:32.686Z</time></trkpt><trkpt lat="43.0324633" lon="2.4309067"><ele>505.0</ele><time>2026-03-30T07:11:33.686Z</time></trkpt><trkpt lat="43.0324733" lon="2.4311067"><ele>505.5</ele><time>2026-03-30T07:11:34.685Z</time></trkpt><trkpt lat="43.0324767" lon="2.431305"><ele>506.0</ele><time>2026-03-30T07:11:35.685Z</time></trkpt><trkpt lat="43.032475" lon="2.4315017"><ele>508.0</ele><time>2026-03-30T07:11:36.685Z</time></trkpt><trkpt lat="43.032475" lon="2.4316933"><ele>510.0</ele><time>2026-03-30T07:11:37.684Z</time></trkpt><trkpt lat="43.0324767" lon="2.43188"><ele>512.0</ele><time>2026-03-30T07:11:38.686Z</time></trkpt><trkpt lat="43.0324767" lon="2.4320583"><ele>514.0</ele><time>2026-03-30T07:11:39.687Z</time></trkpt><trkpt lat="43.03246" lon="2.4322133"><ele>515.0</ele><time>2026-03-30T07:11:40.685Z</time></trkpt><trkpt lat="43.0324133" lon="2.4323467"><ele>516.0</ele><time>2026-03-30T07:11:41.684Z</time></trkpt><trkpt lat="43.032335" lon="2.432445"><ele>517.0</ele><time>2026-03-30T07:11:42.688Z</time></trkpt><trkpt lat="43.0322367" lon="2.432525"><ele>518.0</ele><time>2026-03-30T07:11:43.693Z</time></trkpt><trkpt lat="43.03215" lon="2.4326333"><ele>519.0</ele><time>2026-03-30T07:11:44.687Z</time></trkpt><trkpt lat="43.0320967" lon="2.4327733"><ele>519.0</ele><time>2026-03-30T07:11:45.684Z</time></trkpt><trkpt lat="43.0320833" lon="2.4329383"><ele>519.0</ele><time>2026-03-30T07:11:46.685Z</time></trkpt><trkpt lat="43.0320933" lon="2.433115"><ele>519.0</ele><time>2026-03-30T07:11:47.687Z</time></trkpt><trkpt lat="43.0321167" lon="2.4332933"><ele>519.0</ele><time>2026-03-30T07:11:48.686Z</time></trkpt><trkpt lat="43.03214" lon="2.43347"><ele>518.75</ele><time>2026-03-30T07:11:49.688Z</time></trkpt><trkpt lat="43.0321633" lon="2.4336483"><ele>518.5</ele><time>2026-03-30T07:11:50.687Z</time></trkpt><trkpt lat="43.032185" lon="2.4338333"><ele>518.25</ele><time>2026-03-30T07:11:51.687Z</time></trkpt><trkpt lat="43.0322017" lon="2.4340217"><ele>518.0</ele><time>2026-03-30T07:11:52.686Z</time></trkpt><trkpt lat="43.03221" lon="2.4342167"><ele>520.0</ele><time>2026-03-30T07:11:53.687Z</time></trkpt><trkpt lat="43.0322083" lon="2.4344117"><ele>522.0</ele><time>2026-03-30T07:11:54.685Z</time></trkpt><trkpt lat="43.0322083" lon="2.4346067"><ele>524.0</ele><time>2026-03-30T07:11:55.692Z</time></trkpt><trkpt lat="43.0322117" lon="2.4348033"><ele>526.0</ele><time>2026-03-30T07:11:56.685Z</time></trkpt><trkpt lat="43.03222" lon="2.4349967"><ele>527.5</ele><time>2026-03-30T07:11:57.686Z</time></trkpt><trkpt lat="43.0322167" lon="2.435195"><ele>529.0</ele><time>2026-03-30T07:11:58.685Z</time></trkpt><trkpt lat="43.0321917" lon="2.4353933"><ele>530.5</ele><time>2026-03-30T07:11:59.684Z</time></trkpt><trkpt lat="43.03215" lon="2.435585"><ele>532.0</ele><time>2026-03-30T07:12:00.685Z</time></trkpt><trkpt lat="43.0321117" lon="2.4357767"><ele>532.5</ele><time>2026-03-30T07:12:01.686Z</time></trkpt><trkpt lat="43.03209" lon="2.4359783"><ele>533.0</ele><time>2026-03-30T07:12:02.686Z</time></trkpt><trkpt lat="43.0320833" lon="2.43618"><ele>533.5</ele><time>2026-03-30T07:12:03.686Z</time></trkpt><trkpt lat="43.0320833" lon="2.4363833"><ele>534.0</ele><time>2026-03-30T07:12:04.684Z</time></trkpt><trkpt lat="43.03208" lon="2.43659"><ele>534.75</ele><time>2026-03-30T07:12:05.685Z</time></trkpt><trkpt lat="43.032065" lon="2.4367967"><ele>535.5</ele><time>2026-03-30T07:12:06.685Z</time></trkpt><trkpt lat="43.0320367" lon="2.4369933"><ele>536.25</ele><time>2026-03-30T07:12:07.686Z</time></trkpt><trkpt lat="43.0319983" lon="2.43718"><ele>537.0</ele><time>2026-03-30T07:12:08.688Z</time></trkpt><trkpt lat="43.0319617" lon="2.4373517"><ele>538.25</ele><time>2026-03-30T07:12:09.685Z</time></trkpt><trkpt lat="43.0319083" lon="2.4374967"><ele>539.5</ele><time>2026-03-30T07:12:10.685Z</time></trkpt><trkpt lat="43.03182" lon="2.4376083"><ele>540.75</ele><time>2026-03-30T07:12:11.685Z</time></trkpt><trkpt lat="43.0317067" lon="2.437685"><ele>542.0</ele><time>2026-03-30T07:12:12.687Z</time></trkpt><trkpt lat="43.0315917" lon="2.4377567"><ele>543.25</ele><time>2026-03-30T07:12:13.685Z</time></trkpt><trkpt lat="43.03149" lon="2.4378583"><ele>544.5</ele><time>2026-03-30T07:12:14.686Z</time></trkpt><trkpt lat="43.03141" lon="2.4379983"><ele>545.75</ele><time>2026-03-30T07:12:15.684Z</time></trkpt><trkpt lat="43.03133" lon="2.4381517"><ele>547.0</ele><time>2026-03-30T07:12:16.684Z</time></trkpt><trkpt lat="43.0312483" lon="2.4383033"><ele>548.0</ele><time>2026-03-30T07:12:17.685Z</time></trkpt><trkpt lat="43.0311683" lon="2.438455"><ele>549.0</ele><time>2026-03-30T07:12:18.689Z</time></trkpt><trkpt lat="43.03109" lon="2.43861"><ele>550.0</ele><time>2026-03-30T07:12:19.692Z</time></trkpt><trkpt lat="43.03101" lon="2.4387733"><ele>551.0</ele><time>2026-03-30T07:12:20.689Z</time></trkpt><trkpt lat="43.03093" lon="2.438935"><ele>552.5</ele><time>2026-03-30T07:12:21.686Z</time></trkpt><trkpt lat="43.0308483" lon="2.4390983"><ele>554.0</ele><time>2026-03-30T07:12:22.686Z</time></trkpt><trkpt lat="43.0307683" lon="2.4392533"><ele>555.5</ele><time>2026-03-30T07:12:23.686Z</time></trkpt><trkpt lat="43.03069" lon="2.4393933"><ele>557.0</ele><time>2026-03-30T07:12:24.686Z</time></trkpt><trkpt lat="43.030625" lon="2.439535"><ele>559.2</ele><time>2026-03-30T07:12:25.686Z</time></trkpt><trkpt lat="43.030555" lon="2.439665"><ele>561.4000000000001</ele><time>2026-03-30T07:12:26.685Z</time></trkpt><trkpt lat="43.0304683" lon="2.4397467"><ele>563.5999999999999</ele><time>2026-03-30T07:12:27.685Z</time></trkpt><trkpt lat="43.0303683" lon="2.4397717"><ele>565.8</ele><time>2026-03-30T07:12:28.687Z</time></trkpt><trkpt lat="43.0302783" lon="2.43973"><ele>568.0</ele><time>2026-03-30T07:12:29.686Z</time></trkpt><trkpt lat="43.030205" lon="2.43964"><ele>567.25</ele><time>2026-03-30T07:12:30.686Z</time></trkpt><trkpt lat="43.0301517" lon="2.439515"><ele>566.5</ele><time>2026-03-30T07:12:31.684Z</time></trkpt><trkpt lat="43.0301167" lon="2.43936"><ele>565.75</ele><time>2026-03-30T07:12:32.685Z</time></trkpt><trkpt lat="43.0300783" lon="2.4392"><ele>565.0</ele><time>2026-03-30T07:12:33.685Z</time></trkpt><trkpt lat="43.0300383" lon="2.4390417"><ele>565.0</ele><time>2026-03-30T07:12:34.688Z</time></trkpt><trkpt lat="43.0300033" lon="2.4388917"><ele>565.0</ele><time>2026-03-30T07:12:35.686Z</time></trkpt><trkpt lat="43.0299717" lon="2.4387417"><ele>565.0</ele><time>2026-03-30T07:12:36.685Z</time></trkpt><trkpt lat="43.02994" lon="2.4386083"><ele>565.0</ele><time>2026-03-30T07:12:37.685Z</time></trkpt><trkpt lat="43.0299133" lon="2.4384917"><ele>565.0</ele><time>2026-03-30T07:12:38.688Z</time></trkpt><trkpt lat="43.0298717" lon="2.438405"><ele>563.4</ele><time>2026-03-30T07:12:39.684Z</time></trkpt><trkpt lat="43.0298067" lon="2.4383717"><ele>561.8</ele><time>2026-03-30T07:12:40.685Z</time></trkpt><trkpt lat="43.0296917" lon="2.4384217"><ele>560.2</ele><time>2026-03-30T07:12:42.686Z</time></trkpt><trkpt lat="43.02962" lon="2.43859"><ele>558.6</ele><time>2026-03-30T07:12:44.685Z</time></trkpt><trkpt lat="43.0296033" lon="2.438705"><ele>557.0</ele><time>2026-03-30T07:12:45.684Z</time></trkpt><trkpt lat="43.0295883" lon="2.4388233"><ele>557.0</ele><time>2026-03-30T07:12:46.685Z</time></trkpt><trkpt lat="43.029565" lon="2.4389467"><ele>557.0</ele><time>2026-03-30T07:12:47.687Z</time></trkpt><trkpt lat="43.0295317" lon="2.4390667"><ele>557.0</ele><time>2026-03-30T07:12:48.687Z</time></trkpt><trkpt lat="43.0294983" lon="2.439185"><ele>557.0</ele><time>2026-03-30T07:12:49.685Z</time></trkpt><trkpt lat="43.0294617" lon="2.4393083"><ele>557.0</ele><time>2026-03-30T07:12:50.686Z</time></trkpt><trkpt lat="43.0294183" lon="2.4394317"><ele>557.0</ele><time>2026-03-30T07:12:51.686Z</time></trkpt><trkpt lat="43.0293717" lon="2.4395517"><ele>557.0</ele><time>2026-03-30T07:12:52.687Z</time></trkpt><trkpt lat="43.02932" lon="2.43967"><ele>557.0</ele><time>2026-03-30T07:12:53.689Z</time></trkpt><trkpt lat="43.029255" lon="2.4397867"><ele>557.0</ele><time>2026-03-30T07:12:54.688Z</time></trkpt><trkpt lat="43.029185" lon="2.4399"><ele>557.0</ele><time>2026-03-30T07:12:55.688Z</time></trkpt><trkpt lat="43.0291133" lon="2.440015"><ele>556.2</ele><time>2026-03-30T07:12:56.69Z</time></trkpt><trkpt lat="43.0290433" lon="2.4401233"><ele>555.4000000000001</ele><time>2026-03-30T07:12:57.689Z</time></trkpt><trkpt lat="43.0289733" lon="2.4402283"><ele>554.5999999999999</ele><time>2026-03-30T07:12:58.688Z</time></trkpt><trkpt lat="43.0289067" lon="2.44034"><ele>553.8</ele><time>2026-03-30T07:12:59.687Z</time></trkpt><trkpt lat="43.028845" lon="2.44045"><ele>553.0</ele><time>2026-03-30T07:13:00.688Z</time></trkpt><trkpt lat="43.0287817" lon="2.440555"><ele>553.0</ele><time>2026-03-30T07:13:01.688Z</time></trkpt><trkpt lat="43.028725" lon="2.4406633"><ele>553.0</ele><time>2026-03-30T07:13:02.692Z</time></trkpt><trkpt lat="43.0286783" lon="2.4407683"><ele>553.0</ele><time>2026-03-30T07:13:03.688Z</time></trkpt><trkpt lat="43.02864" lon="2.44088"><ele>553.0</ele><time>2026-03-30T07:13:04.687Z</time></trkpt><trkpt lat="43.0286033" lon="2.4409917"><ele>553.0</ele><time>2026-03-30T07:13:05.69Z</time></trkpt><trkpt lat="43.0285633" lon="2.4411033"><ele>553.0</ele><time>2026-03-30T07:13:06.69Z</time></trkpt><trkpt lat="43.0285133" lon="2.441205"><ele>553.0</ele><time>2026-03-30T07:13:07.685Z</time></trkpt><trkpt lat="43.0284517" lon="2.4413"><ele>553.0</ele><time>2026-03-30T07:13:08.686Z</time></trkpt><trkpt lat="43.02838" lon="2.4413733"><ele>553.0</ele><time>2026-03-30T07:13:09.685Z</time></trkpt><trkpt lat="43.0282933" lon="2.4414483"><ele>553.0</ele><time>2026-03-30T07:13:10.686Z</time></trkpt><trkpt lat="43.0282017" lon="2.441525"><ele>553.6</ele><time>2026-03-30T07:13:11.687Z</time></trkpt><trkpt lat="43.0281067" lon="2.4416067"><ele>554.1999999999999</ele><time>2026-03-30T07:13:12.686Z</time></trkpt><trkpt lat="43.0280033" lon="2.441685"><ele>554.8</ele><time>2026-03-30T07:13:13.688Z</time></trkpt><trkpt lat="43.027905" lon="2.441755"><ele>555.4</ele><time>2026-03-30T07:13:14.686Z</time></trkpt><trkpt lat="43.0278067" lon="2.44181"><ele>556.0</ele><time>2026-03-30T07:13:15.685Z</time></trkpt><trkpt lat="43.027715" lon="2.4418867"><ele>556.0</ele><time>2026-03-30T07:13:16.69Z</time></trkpt><trkpt lat="43.02764" lon="2.4419917"><ele>556.0</ele><time>2026-03-30T07:13:17.686Z</time></trkpt><trkpt lat="43.02758" lon="2.4421033"><ele>556.0</ele><time>2026-03-30T07:13:18.69Z</time></trkpt><trkpt lat="43.0275267" lon="2.442215"><ele>556.0</ele><time>2026-03-30T07:13:19.687Z</time></trkpt><trkpt lat="43.0274867" lon="2.4423233"><ele>556.0</ele><time>2026-03-30T07:13:20.688Z</time></trkpt><trkpt lat="43.0274517" lon="2.4424183"><ele>558.0</ele><time>2026-03-30T07:13:21.686Z</time></trkpt><trkpt lat="43.0274167" lon="2.442495"><ele>560.0</ele><time>2026-03-30T07:13:22.688Z</time></trkpt><trkpt lat="43.027315" lon="2.4425983"><ele>562.0</ele><time>2026-03-30T07:13:24.686Z</time></trkpt><trkpt lat="43.0272483" lon="2.4426383"><ele>564.0</ele><time>2026-03-30T07:13:25.685Z</time></trkpt><trkpt lat="43.027175" lon="2.44268"><ele>566.0</ele><time>2026-03-30T07:13:26.689Z</time></trkpt><trkpt lat="43.0271" lon="2.44272"><ele>568.0</ele><time>2026-03-30T07:13:27.687Z</time></trkpt><trkpt lat="43.0270183" lon="2.4427567"><ele>568.0</ele><time>2026-03-30T07:13:28.686Z</time></trkpt><trkpt lat="43.0269333" lon="2.4427883"><ele>568.0</ele><time>2026-03-30T07:13:29.686Z</time></trkpt><trkpt lat="43.0268467" lon="2.442825"><ele>568.0</ele><time>2026-03-30T07:13:30.688Z</time></trkpt><trkpt lat="43.02676" lon="2.4428583"><ele>568.0</ele><time>2026-03-30T07:13:31.685Z</time></trkpt><trkpt lat="43.0266733" lon="2.4428933"><ele>568.0</ele><time>2026-03-30T07:13:32.687Z</time></trkpt><trkpt lat="43.02659" lon="2.4429183"><ele>568.0</ele><time>2026-03-30T07:13:33.685Z</time></trkpt><trkpt lat="43.02651" lon="2.44293"><ele>573.6</ele><time>2026-03-30T07:13:34.685Z</time></trkpt><trkpt lat="43.0264267" lon="2.4429417"><ele>579.1999999999999</ele><time>2026-03-30T07:13:35.686Z</time></trkpt><trkpt lat="43.026345" lon="2.4429417"><ele>584.8</ele><time>2026-03-30T07:13:36.685Z</time></trkpt><trkpt lat="43.0262733" lon="2.4429333"><ele>590.4</ele><time>2026-03-30T07:13:37.688Z</time></trkpt><trkpt lat="43.0261683" lon="2.44285"><ele>596.0</ele><time>2026-03-30T07:13:39.685Z</time></trkpt><trkpt lat="43.0261733" lon="2.4427117"><ele>596.0</ele><time>2026-03-30T07:13:41.686Z</time></trkpt><trkpt lat="43.0262583" lon="2.44262"><ele>596.0</ele><time>2026-03-30T07:13:42.686Z</time></trkpt><trkpt lat="43.026345" lon="2.4425317"><ele>596.0</ele><time>2026-03-30T07:13:43.685Z</time></trkpt><trkpt lat="43.026415" lon="2.4424333"><ele>596.0</ele><time>2026-03-30T07:13:44.687Z</time></trkpt><trkpt lat="43.0264817" lon="2.442325"><ele>596.0</ele><time>2026-03-30T07:13:45.685Z</time></trkpt><trkpt lat="43.026545" lon="2.442205"><ele>592.2</ele><time>2026-03-30T07:13:46.686Z</time></trkpt><trkpt lat="43.0265933" lon="2.4420783"><ele>588.4000000000001</ele><time>2026-03-30T07:13:47.686Z</time></trkpt><trkpt lat="43.02664" lon="2.4419467"><ele>584.6</ele><time>2026-03-30T07:13:48.689Z</time></trkpt><trkpt lat="43.0266867" lon="2.4418067"><ele>580.8000000000001</ele><time>2026-03-30T07:13:49.686Z</time></trkpt><trkpt lat="43.02673" lon="2.4416617"><ele>577.0</ele><time>2026-03-30T07:13:50.686Z</time></trkpt><trkpt lat="43.0267717" lon="2.4415133"><ele>577.0</ele><time>2026-03-30T07:13:51.685Z</time></trkpt><trkpt lat="43.0268117" lon="2.44137"><ele>577.0</ele><time>2026-03-30T07:13:52.686Z</time></trkpt><trkpt lat="43.026855" lon="2.4412233"><ele>577.0</ele><time>2026-03-30T07:13:53.685Z</time></trkpt><trkpt lat="43.0268967" lon="2.441075"><ele>577.0</ele><time>2026-03-30T07:13:54.685Z</time></trkpt><trkpt lat="43.0269433" lon="2.44093"><ele>578.5</ele><time>2026-03-30T07:13:55.685Z</time></trkpt><trkpt lat="43.02699" lon="2.440785"><ele>580.0</ele><time>2026-03-30T07:13:56.689Z</time></trkpt><trkpt lat="43.02703" lon="2.4406333"><ele>581.5</ele><time>2026-03-30T07:13:57.685Z</time></trkpt><trkpt lat="43.0270633" lon="2.4404833"><ele>583.0</ele><time>2026-03-30T07:13:58.685Z</time></trkpt><trkpt lat="43.0270983" lon="2.4403383"><ele>584.0</ele><time>2026-03-30T07:13:59.684Z</time></trkpt><trkpt lat="43.0271367" lon="2.4402"><ele>585.0</ele><time>2026-03-30T07:14:00.686Z</time></trkpt><trkpt lat="43.0271717" lon="2.440065"><ele>586.0</ele><time>2026-03-30T07:14:01.685Z</time></trkpt><trkpt lat="43.0272033" lon="2.439925"><ele>587.0</ele><time>2026-03-30T07:14:02.686Z</time></trkpt><trkpt lat="43.0272283" lon="2.43978"><ele>588.0</ele><time>2026-03-30T07:14:03.686Z</time></trkpt><trkpt lat="43.0272567" lon="2.439635"><ele>588.6</ele><time>2026-03-30T07:14:04.686Z</time></trkpt><trkpt lat="43.0272833" lon="2.4394917"><ele>589.1999999999999</ele><time>2026-03-30T07:14:05.684Z</time></trkpt><trkpt lat="43.02731" lon="2.4393517"><ele>589.8</ele><time>2026-03-30T07:14:06.686Z</time></trkpt><trkpt lat="43.0273283" lon="2.4392183"><ele>590.4</ele><time>2026-03-30T07:14:07.686Z</time></trkpt><trkpt lat="43.02734" lon="2.4390833"><ele>591.0</ele><time>2026-03-30T07:14:08.687Z</time></trkpt><trkpt lat="43.02735" lon="2.43895"><ele>591.0</ele><time>2026-03-30T07:14:09.686Z</time></trkpt><trkpt lat="43.0273583" lon="2.4388117"><ele>591.0</ele><time>2026-03-30T07:14:10.686Z</time></trkpt><trkpt lat="43.02736" lon="2.4386817"><ele>591.0</ele><time>2026-03-30T07:14:11.69Z</time></trkpt><trkpt lat="43.0273583" lon="2.4385617"><ele>591.0</ele><time>2026-03-30T07:14:12.686Z</time></trkpt><trkpt lat="43.027355" lon="2.43845"><ele>591.0</ele><time>2026-03-30T07:14:13.685Z</time></trkpt><trkpt lat="43.027355" lon="2.438355"><ele>591.0</ele><time>2026-03-30T07:14:14.687Z</time></trkpt><trkpt lat="43.0273567" lon="2.43821"><ele>591.7142857142857</ele><time>2026-03-30T07:14:16.685Z</time></trkpt><trkpt lat="43.0273583" lon="2.4381183"><ele>592.4285714285714</ele><time>2026-03-30T07:14:18.687Z</time></trkpt><trkpt lat="43.027375" lon="2.4380117"><ele>593.1428571428571</ele><time>2026-03-30T07:14:21.686Z</time></trkpt><trkpt lat="43.0273883" lon="2.4379183"><ele>593.8571428571429</ele><time>2026-03-30T07:14:24.686Z</time></trkpt><trkpt lat="43.0273867" lon="2.43782"><ele>594.5714285714286</ele><time>2026-03-30T07:14:28.687Z</time></trkpt><trkpt lat="43.02739" lon="2.4377083"><ele>595.2857142857142</ele><time>2026-03-30T07:14:32.688Z</time></trkpt><trkpt lat="43.0273717" lon="2.4376033"><ele>596.0</ele><time>2026-03-30T07:14:37.686Z</time></trkpt><trkpt lat="43.02737" lon="2.4377017"><ele>596.0</ele><time>2026-03-30T07:24:22.686Z</time></trkpt><trkpt lat="43.0274" lon="2.437805"><ele>596.0</ele><time>2026-03-30T07:24:47.686Z</time></trkpt><trkpt lat="43.0274017" lon="2.437915"><ele>596.0</ele><time>2026-03-30T07:24:55.686Z</time></trkpt><trkpt lat="43.0274" lon="2.4380083"><ele>596.0</ele><time>2026-03-30T07:24:57.685Z</time></trkpt><trkpt lat="43.0273517" lon="2.4380717"><ele>596.0</ele><time>2026-03-30T07:25:01.686Z</time></trkpt><trkpt lat="43.0273283" lon="2.4379833"><ele>596.0</ele><time>2026-03-30T07:25:04.686Z</time></trkpt><trkpt lat="43.0273133" lon="2.4378983"><ele>596.0</ele><time>2026-03-30T07:25:06.685Z</time></trkpt><trkpt lat="43.0272983" lon="2.4377933"><ele>596.0</ele><time>2026-03-30T07:25:08.686Z</time></trkpt><trkpt lat="43.0272717" lon="2.4376617"><ele>596.0</ele><time>2026-03-30T07:25:10.685Z</time></trkpt><trkpt lat="43.0272133" lon="2.4375467"><ele>596.0</ele><time>2026-03-30T07:25:12.687Z</time></trkpt><trkpt lat="43.0271483" lon="2.4374233"><ele>596.0</ele><time>2026-03-30T07:25:14.686Z</time></trkpt><trkpt lat="43.0270833" lon="2.4372917"><ele>596.0</ele><time>2026-03-30T07:25:16.686Z</time></trkpt><trkpt lat="43.02706" lon="2.437145"><ele>596.2</ele><time>2026-03-30T07:25:18.686Z</time></trkpt><trkpt lat="43.027065" lon="2.4369783"><ele>596.4000000000001</ele><time>2026-03-30T07:25:20.686Z</time></trkpt><trkpt lat="43.02706" lon="2.436815"><ele>596.6</ele><time>2026-03-30T07:25:22.685Z</time></trkpt><trkpt lat="43.02705" lon="2.4366567"><ele>596.8000000000001</ele><time>2026-03-30T07:25:24.688Z</time></trkpt><trkpt lat="43.0270417" lon="2.4365683"><ele>597.0</ele><time>2026-03-30T07:25:25.687Z</time></trkpt><trkpt lat="43.027015" lon="2.4364067"><ele>597.0</ele><time>2026-03-30T07:25:27.687Z</time></trkpt><trkpt lat="43.0269983" lon="2.4363183"><ele>597.0</ele><time>2026-03-30T07:25:28.686Z</time></trkpt><trkpt lat="43.02698" lon="2.4362267"><ele>597.0</ele><time>2026-03-30T07:25:29.686Z</time></trkpt><trkpt lat="43.026965" lon="2.4361333"><ele>597.0</ele><time>2026-03-30T07:25:30.685Z</time></trkpt><trkpt lat="43.0269517" lon="2.436035"><ele>597.0</ele><time>2026-03-30T07:25:31.685Z</time></trkpt><trkpt lat="43.026935" lon="2.43595"><ele>597.0</ele><time>2026-03-30T07:25:32.689Z</time></trkpt><trkpt lat="43.026885" lon="2.4357867"><ele>596.4285714285714</ele><time>2026-03-30T07:25:34.685Z</time></trkpt><trkpt lat="43.02685" lon="2.4357017"><ele>595.8571428571429</ele><time>2026-03-30T07:25:35.686Z</time></trkpt><trkpt lat="43.02681" lon="2.4356317"><ele>595.2857142857142</ele><time>2026-03-30T07:25:36.685Z</time></trkpt><trkpt lat="43.0267617" lon="2.4355717"><ele>594.7142857142858</ele><time>2026-03-30T07:25:37.684Z</time></trkpt><trkpt lat="43.0267067" lon="2.4355217"><ele>594.1428571428571</ele><time>2026-03-30T07:25:38.688Z</time></trkpt><trkpt lat="43.0266433" lon="2.4354867"><ele>593.5714285714286</ele><time>2026-03-30T07:25:39.687Z</time></trkpt><trkpt lat="43.02658" lon="2.4354767"><ele>593.0</ele><time>2026-03-30T07:25:40.686Z</time></trkpt><trkpt lat="43.0264667" lon="2.4355267"><ele>593.0</ele><time>2026-03-30T07:25:42.685Z</time></trkpt><trkpt lat="43.0264183" lon="2.4355883"><ele>593.0</ele><time>2026-03-30T07:25:43.687Z</time></trkpt><trkpt lat="43.0263883" lon="2.4356667"><ele>593.0</ele><time>2026-03-30T07:25:44.687Z</time></trkpt><trkpt lat="43.0263783" lon="2.4358367"><ele>593.0</ele><time>2026-03-30T07:25:46.687Z</time></trkpt><trkpt lat="43.026385" lon="2.4359267"><ele>593.0</ele><time>2026-03-30T07:25:47.686Z</time></trkpt><trkpt lat="43.026395" lon="2.43602"><ele>593.0</ele><time>2026-03-30T07:25:48.686Z</time></trkpt><trkpt lat="43.026395" lon="2.436115"><ele>593.0</ele><time>2026-03-30T07:25:49.687Z</time></trkpt><trkpt lat="43.0263883" lon="2.4362183"><ele>593.0</ele><time>2026-03-30T07:25:50.687Z</time></trkpt><trkpt lat="43.02638" lon="2.436335"><ele>593.0</ele><time>2026-03-30T07:25:51.686Z</time></trkpt><trkpt lat="43.0263717" lon="2.4364317"><ele>593.0</ele><time>2026-03-30T07:25:52.686Z</time></trkpt><trkpt lat="43.02636" lon="2.4365417"><ele>593.0</ele><time>2026-03-30T07:25:53.685Z</time></trkpt><trkpt lat="43.0263433" lon="2.436655"><ele>593.0</ele><time>2026-03-30T07:25:54.686Z</time></trkpt><trkpt lat="43.0263167" lon="2.4368067"><ele>595.3333333333333</ele><time>2026-03-30T07:25:56.687Z</time></trkpt><trkpt lat="43.0262517" lon="2.4369583"><ele>597.6666666666666</ele><time>2026-03-30T07:25:58.686Z</time></trkpt><trkpt lat="43.0261983" lon="2.437025"><ele>600.0</ele><time>2026-03-30T07:25:59.687Z</time></trkpt><trkpt lat="43.0261383" lon="2.4370867"><ele>602.3333333333334</ele><time>2026-03-30T07:26:00.686Z</time></trkpt><trkpt lat="43.0260733" lon="2.4371367"><ele>604.6666666666667</ele><time>2026-03-30T07:26:01.685Z</time></trkpt><trkpt lat="43.0259967" lon="2.4371517"><ele>607.0</ele><time>2026-03-30T07:26:02.687Z</time></trkpt><trkpt lat="43.0259167" lon="2.4371333"><ele>607.0</ele><time>2026-03-30T07:26:03.686Z</time></trkpt><trkpt lat="43.025845" lon="2.43709"><ele>607.0</ele><time>2026-03-30T07:26:04.685Z</time></trkpt><trkpt lat="43.02578" lon="2.4370383"><ele>607.0</ele><time>2026-03-30T07:26:05.684Z</time></trkpt><trkpt lat="43.0257167" lon="2.436985"><ele>607.0</ele><time>2026-03-30T07:26:06.685Z</time></trkpt><trkpt lat="43.02564" lon="2.4369317"><ele>607.0</ele><time>2026-03-30T07:26:07.685Z</time></trkpt><trkpt lat="43.02557" lon="2.4368733"><ele>607.0</ele><time>2026-03-30T07:26:08.686Z</time></trkpt><trkpt lat="43.0255083" lon="2.436815"><ele>609.0</ele><time>2026-03-30T07:26:09.684Z</time></trkpt><trkpt lat="43.025455" lon="2.436745"><ele>611.0</ele><time>2026-03-30T07:26:10.685Z</time></trkpt><trkpt lat="43.0254033" lon="2.436665"><ele>613.0</ele><time>2026-03-30T07:26:11.684Z</time></trkpt><trkpt lat="43.0253817" lon="2.4365733"><ele>615.0</ele><time>2026-03-30T07:26:12.685Z</time></trkpt><trkpt lat="43.02537" lon="2.4364867"><ele>617.0</ele><time>2026-03-30T07:26:13.684Z</time></trkpt><trkpt lat="43.0253433" lon="2.4363267"><ele>619.0</ele><time>2026-03-30T07:26:15.684Z</time></trkpt><trkpt lat="43.0253233" lon="2.43624"><ele>619.0</ele><time>2026-03-30T07:26:16.685Z</time></trkpt><trkpt lat="43.0252933" lon="2.4361567"><ele>619.0</ele><time>2026-03-30T07:26:17.684Z</time></trkpt><trkpt lat="43.0252567" lon="2.4360567"><ele>619.0</ele><time>2026-03-30T07:26:18.685Z</time></trkpt><trkpt lat="43.0252417" lon="2.43597"><ele>619.0</ele><time>2026-03-30T07:26:19.684Z</time></trkpt><trkpt lat="43.02523" lon="2.4358817"><ele>619.0</ele><time>2026-03-30T07:26:20.685Z</time></trkpt><trkpt lat="43.0251967" lon="2.4357917"><ele>619.0</ele><time>2026-03-30T07:26:21.684Z</time></trkpt><trkpt lat="43.0251567" lon="2.4356867"><ele>619.0</ele><time>2026-03-30T07:26:22.687Z</time></trkpt><trkpt lat="43.025125" lon="2.4355883"><ele>619.0</ele><time>2026-03-30T07:26:23.686Z</time></trkpt><trkpt lat="43.0251067" lon="2.43548"><ele>619.0</ele><time>2026-03-30T07:26:24.685Z</time></trkpt><trkpt lat="43.025095" lon="2.43537"><ele>619.0</ele><time>2026-03-30T07:26:25.685Z</time></trkpt><trkpt lat="43.0250667" lon="2.4352483"><ele>619.0</ele><time>2026-03-30T07:26:26.685Z</time></trkpt><trkpt lat="43.0250367" lon="2.4351383"><ele>619.0</ele><time>2026-03-30T07:26:27.684Z</time></trkpt><trkpt lat="43.0249967" lon="2.4350167"><ele>619.0</ele><time>2026-03-30T07:26:28.685Z</time></trkpt><trkpt lat="43.0249617" lon="2.434895"><ele>621.6</ele><time>2026-03-30T07:26:29.684Z</time></trkpt><trkpt lat="43.0249233" lon="2.43476"><ele>624.2</ele><time>2026-03-30T07:26:30.685Z</time></trkpt><trkpt lat="43.0248833" lon="2.434625"><ele>626.8000000000001</ele><time>2026-03-30T07:26:31.684Z</time></trkpt><trkpt lat="43.0248467" lon="2.4344867"><ele>629.4</ele><time>2026-03-30T07:26:32.684Z</time></trkpt><trkpt lat="43.024805" lon="2.4343533"><ele>632.0</ele><time>2026-03-30T07:26:33.684Z</time></trkpt><trkpt lat="43.02478" lon="2.43424"><ele>632.0</ele><time>2026-03-30T07:26:34.684Z</time></trkpt><trkpt lat="43.0247633" lon="2.434155"><ele>632.0</ele><time>2026-03-30T07:26:35.687Z</time></trkpt><trkpt lat="43.024745" lon="2.4340667"><ele>632.0</ele><time>2026-03-30T07:26:36.684Z</time></trkpt><trkpt lat="43.0247317" lon="2.4339717"><ele>632.0</ele><time>2026-03-30T07:26:37.684Z</time></trkpt><trkpt lat="43.024715" lon="2.433855"><ele>632.0</ele><time>2026-03-30T07:26:38.685Z</time></trkpt><trkpt lat="43.0247133" lon="2.4337417"><ele>632.0</ele><time>2026-03-30T07:26:39.685Z</time></trkpt><trkpt lat="43.0247217" lon="2.433605"><ele>632.0</ele><time>2026-03-30T07:26:41.686Z</time></trkpt><trkpt lat="43.024695" lon="2.43345"><ele>632.0</ele><time>2026-03-30T07:30:17.693Z</time></trkpt><trkpt lat="43.02463" lon="2.4334483"><ele>632.0</ele><time>2026-03-30T07:31:06.693Z</time></trkpt><trkpt lat="43.02458" lon="2.433575"><ele>632.0</ele><time>2026-03-30T07:31:08.687Z</time></trkpt><trkpt lat="43.02454" lon="2.4337017"><ele>632.0</ele><time>2026-03-30T07:31:10.689Z</time></trkpt><trkpt lat="43.0244817" lon="2.43383"><ele>632.0</ele><time>2026-03-30T07:31:12.689Z</time></trkpt><trkpt lat="43.0244117" lon="2.4339317"><ele>632.0</ele><time>2026-03-30T07:31:14.692Z</time></trkpt><trkpt lat="43.02435" lon="2.43401"><ele>632.0</ele><time>2026-03-30T07:31:16.694Z</time></trkpt><trkpt lat="43.02427" lon="2.4340733"><ele>632.0</ele><time>2026-03-30T07:31:18.693Z</time></trkpt><trkpt lat="43.0241533" lon="2.434165"><ele>632.0</ele><time>2026-03-30T07:31:20.697Z</time></trkpt><trkpt lat="43.024075" lon="2.4342217"><ele>632.8000000000001</ele><time>2026-03-30T07:31:21.692Z</time></trkpt><trkpt lat="43.024" lon="2.4342483"><ele>633.6</ele><time>2026-03-30T07:31:22.686Z</time></trkpt><trkpt lat="43.0239367" lon="2.4342683"><ele>634.4000000000001</ele><time>2026-03-30T07:31:23.693Z</time></trkpt><trkpt lat="43.0238133" lon="2.4342883"><ele>635.2</ele><time>2026-03-30T07:31:25.693Z</time></trkpt><trkpt lat="43.0237467" lon="2.4342933"><ele>636.0</ele><time>2026-03-30T07:31:26.695Z</time></trkpt><trkpt lat="43.023625" lon="2.4343133"><ele>636.0</ele><time>2026-03-30T07:31:28.698Z</time></trkpt><trkpt lat="43.023495" lon="2.4343467"><ele>636.0</ele><time>2026-03-30T07:31:30.697Z</time></trkpt><trkpt lat="43.023425" lon="2.434375"><ele>636.0</ele><time>2026-03-30T07:31:31.697Z</time></trkpt><trkpt lat="43.0233483" lon="2.4343933"><ele>636.0</ele><time>2026-03-30T07:31:32.693Z</time></trkpt><trkpt lat="43.0232733" lon="2.434405"><ele>636.0</ele><time>2026-03-30T07:31:33.695Z</time></trkpt><trkpt lat="43.0232017" lon="2.4344"><ele>636.0</ele><time>2026-03-30T07:31:34.693Z</time></trkpt><trkpt lat="43.0231283" lon="2.4343867"><ele>635.6</ele><time>2026-03-30T07:31:35.691Z</time></trkpt><trkpt lat="43.02302" lon="2.434315"><ele>635.2</ele><time>2026-03-30T07:31:37.694Z</time></trkpt><trkpt lat="43.02295" lon="2.4342817"><ele>634.8</ele><time>2026-03-30T07:31:38.693Z</time></trkpt><trkpt lat="43.0228733" lon="2.4342533"><ele>634.4</ele><time>2026-03-30T07:31:39.693Z</time></trkpt><trkpt lat="43.0227817" lon="2.4341917"><ele>634.0</ele><time>2026-03-30T07:31:41.695Z</time></trkpt><trkpt lat="43.02269" lon="2.4342217"><ele>634.0</ele><time>2026-03-30T07:31:43.693Z</time></trkpt><trkpt lat="43.0226333" lon="2.4343683"><ele>634.0</ele><time>2026-03-30T07:31:45.689Z</time></trkpt><trkpt lat="43.0226133" lon="2.4344533"><ele>634.0</ele><time>2026-03-30T07:31:46.69Z</time></trkpt><trkpt lat="43.0225933" lon="2.4345417"><ele>634.0</ele><time>2026-03-30T07:31:47.693Z</time></trkpt><trkpt lat="43.0225767" lon="2.4346333"><ele>634.0</ele><time>2026-03-30T07:31:48.691Z</time></trkpt><trkpt lat="43.022565" lon="2.4347233"><ele>634.0</ele><time>2026-03-30T07:31:49.688Z</time></trkpt><trkpt lat="43.0225617" lon="2.43481"><ele>635.6</ele><time>2026-03-30T07:31:50.695Z</time></trkpt><trkpt lat="43.0225467" lon="2.4349733"><ele>637.2</ele><time>2026-03-30T07:31:52.695Z</time></trkpt><trkpt lat="43.0225433" lon="2.43511"><ele>638.8000000000001</ele><time>2026-03-30T07:31:54.69Z</time></trkpt><trkpt lat="43.0225367" lon="2.4352417"><ele>640.4</ele><time>2026-03-30T07:31:56.695Z</time></trkpt><trkpt lat="43.0225317" lon="2.4354033"><ele>642.0</ele><time>2026-03-30T07:31:58.691Z</time></trkpt><trkpt lat="43.0225333" lon="2.4354933"><ele>641.8333333333334</ele><time>2026-03-30T07:31:59.696Z</time></trkpt><trkpt lat="43.022515" lon="2.4355817"><ele>641.6666666666666</ele><time>2026-03-30T07:32:00.697Z</time></trkpt><trkpt lat="43.0224867" lon="2.43568"><ele>641.5</ele><time>2026-03-30T07:32:01.692Z</time></trkpt><trkpt lat="43.0224467" lon="2.4357883"><ele>641.3333333333333</ele><time>2026-03-30T07:32:02.691Z</time></trkpt><trkpt lat="43.02241" lon="2.4358833"><ele>641.1666666666666</ele><time>2026-03-30T07:32:03.693Z</time></trkpt><trkpt lat="43.02238" lon="2.4359833"><ele>641.0</ele><time>2026-03-30T07:32:04.689Z</time></trkpt><trkpt lat="43.0223583" lon="2.4360767"><ele>641.0</ele><time>2026-03-30T07:32:05.694Z</time></trkpt><trkpt lat="43.0222883" lon="2.4362333"><ele>641.0</ele><time>2026-03-30T07:32:07.69Z</time></trkpt><trkpt lat="43.0222417" lon="2.43631"><ele>641.0</ele><time>2026-03-30T07:32:08.694Z</time></trkpt><trkpt lat="43.0221983" lon="2.43638"><ele>641.0</ele><time>2026-03-30T07:32:09.695Z</time></trkpt><trkpt lat="43.0221233" lon="2.436505"><ele>641.0</ele><time>2026-03-30T07:32:11.694Z</time></trkpt><trkpt lat="43.02208" lon="2.436575"><ele>642.8333333333333</ele><time>2026-03-30T07:32:12.69Z</time></trkpt><trkpt lat="43.02203" lon="2.4366417"><ele>644.6666666666666</ele><time>2026-03-30T07:32:13.691Z</time></trkpt><trkpt lat="43.0219833" lon="2.436715"><ele>646.5</ele><time>2026-03-30T07:32:14.695Z</time></trkpt><trkpt lat="43.021935" lon="2.4368"><ele>648.3333333333334</ele><time>2026-03-30T07:32:15.695Z</time></trkpt><trkpt lat="43.0218867" lon="2.43689"><ele>650.1666666666667</ele><time>2026-03-30T07:32:16.692Z</time></trkpt><trkpt lat="43.02184" lon="2.43699"><ele>652.0</ele><time>2026-03-30T07:32:17.693Z</time></trkpt><trkpt lat="43.0218" lon="2.4370967"><ele>654.1666666666667</ele><time>2026-03-30T07:32:18.693Z</time></trkpt><trkpt lat="43.0217617" lon="2.437205"><ele>656.3333333333334</ele><time>2026-03-30T07:32:19.689Z</time></trkpt><trkpt lat="43.02173" lon="2.4373083"><ele>658.5</ele><time>2026-03-30T07:32:20.696Z</time></trkpt><trkpt lat="43.0217033" lon="2.4374117"><ele>660.6666666666666</ele><time>2026-03-30T07:32:21.695Z</time></trkpt><trkpt lat="43.0216783" lon="2.437515"><ele>662.8333333333333</ele><time>2026-03-30T07:32:22.693Z</time></trkpt><trkpt lat="43.0216483" lon="2.437625"><ele>665.0</ele><time>2026-03-30T07:32:23.688Z</time></trkpt><trkpt lat="43.0216217" lon="2.4377317"><ele>665.1428571428571</ele><time>2026-03-30T07:32:24.689Z</time></trkpt><trkpt lat="43.0216" lon="2.4378383"><ele>665.2857142857142</ele><time>2026-03-30T07:32:25.693Z</time></trkpt><trkpt lat="43.021575" lon="2.437935"><ele>665.4285714285714</ele><time>2026-03-30T07:32:26.697Z</time></trkpt><trkpt lat="43.0215467" lon="2.4380167"><ele>665.5714285714286</ele><time>2026-03-30T07:32:27.691Z</time></trkpt><trkpt lat="43.0215067" lon="2.438085"><ele>665.7142857142857</ele><time>2026-03-30T07:32:28.69Z</time></trkpt><trkpt lat="43.021455" lon="2.4381433"><ele>665.8571428571429</ele><time>2026-03-30T07:32:29.694Z</time></trkpt><trkpt lat="43.0213983" lon="2.4381967"><ele>666.0</ele><time>2026-03-30T07:32:30.698Z</time></trkpt><trkpt lat="43.0213383" lon="2.4382417"><ele>667.1999999999999</ele><time>2026-03-30T07:32:31.695Z</time></trkpt><trkpt lat="43.02128" lon="2.4382867"><ele>668.4</ele><time>2026-03-30T07:32:32.687Z</time></trkpt><trkpt lat="43.021225" lon="2.438335"><ele>669.6</ele><time>2026-03-30T07:32:33.693Z</time></trkpt><trkpt lat="43.0211417" lon="2.4384417"><ele>670.8</ele><time>2026-03-30T07:32:35.695Z</time></trkpt><trkpt lat="43.02107" lon="2.4385583"><ele>672.0</ele><time>2026-03-30T07:32:37.694Z</time></trkpt><trkpt lat="43.0210133" lon="2.43868"><ele>673.8</ele><time>2026-03-30T07:32:39.693Z</time></trkpt><trkpt lat="43.02098" lon="2.4388067"><ele>675.6</ele><time>2026-03-30T07:32:41.686Z</time></trkpt><trkpt lat="43.02093" lon="2.438935"><ele>677.4</ele><time>2026-03-30T07:32:43.69Z</time></trkpt><trkpt lat="43.020885" lon="2.4390733"><ele>679.1999999999999</ele><time>2026-03-30T07:32:45.694Z</time></trkpt><trkpt lat="43.0208983" lon="2.4392317"><ele>681.0</ele><time>2026-03-30T07:32:47.692Z</time></trkpt><trkpt lat="43.02091" lon="2.4393167"><ele>681.0</ele><time>2026-03-30T07:32:48.692Z</time></trkpt><trkpt lat="43.02092" lon="2.4394083"><ele>681.0</ele><time>2026-03-30T07:32:49.693Z</time></trkpt><trkpt lat="43.0209367" lon="2.4395633"><ele>681.0</ele><time>2026-03-30T07:32:51.687Z</time></trkpt><trkpt lat="43.0209567" lon="2.4396883"><ele>681.0</ele><time>2026-03-30T07:32:53.684Z</time></trkpt><trkpt lat="43.0209733" lon="2.4397917"><ele>681.0</ele><time>2026-03-30T07:32:55.689Z</time></trkpt><trkpt lat="43.0209967" lon="2.439895"><ele>681.0</ele><time>2026-03-30T07:32:58.69Z</time></trkpt><trkpt lat="43.0209767" lon="2.4400267"><ele>681.1666666666666</ele><time>2026-03-30T07:38:03.693Z</time></trkpt><trkpt lat="43.0210233" lon="2.4401767"><ele>681.3333333333334</ele><time>2026-03-30T07:38:06.693Z</time></trkpt><trkpt lat="43.0210533" lon="2.440265"><ele>681.5</ele><time>2026-03-30T07:38:07.694Z</time></trkpt><trkpt lat="43.021065" lon="2.4403583"><ele>681.6666666666667</ele><time>2026-03-30T07:38:08.688Z</time></trkpt><trkpt lat="43.021075" lon="2.4404567"><ele>681.8333333333334</ele><time>2026-03-30T07:38:09.687Z</time></trkpt><trkpt lat="43.02108" lon="2.44056"><ele>682.0</ele><time>2026-03-30T07:38:10.695Z</time></trkpt><trkpt lat="43.0210667" lon="2.44067"><ele>680.8333333333334</ele><time>2026-03-30T07:38:11.693Z</time></trkpt><trkpt lat="43.0210517" lon="2.44078"><ele>679.6666666666667</ele><time>2026-03-30T07:38:12.694Z</time></trkpt><trkpt lat="43.02104" lon="2.44089"><ele>678.5</ele><time>2026-03-30T07:38:13.685Z</time></trkpt><trkpt lat="43.0210317" lon="2.4409983"><ele>677.3333333333334</ele><time>2026-03-30T07:38:14.685Z</time></trkpt><trkpt lat="43.0210183" lon="2.4411167"><ele>676.1666666666666</ele><time>2026-03-30T07:38:15.688Z</time></trkpt><trkpt lat="43.0210033" lon="2.44123"><ele>675.0</ele><time>2026-03-30T07:38:16.687Z</time></trkpt><trkpt lat="43.0209933" lon="2.4413233"><ele>672.8333333333334</ele><time>2026-03-30T07:38:17.693Z</time></trkpt><trkpt lat="43.0209767" lon="2.441415"><ele>670.6666666666666</ele><time>2026-03-30T07:38:18.695Z</time></trkpt><trkpt lat="43.0209517" lon="2.4414983"><ele>668.5</ele><time>2026-03-30T07:38:19.688Z</time></trkpt><trkpt lat="43.0209233" lon="2.4416617"><ele>666.3333333333333</ele><time>2026-03-30T07:38:21.688Z</time></trkpt><trkpt lat="43.0208983" lon="2.4417433"><ele>664.1666666666666</ele><time>2026-03-30T07:38:22.693Z</time></trkpt><trkpt lat="43.020865" lon="2.4418333"><ele>662.0</ele><time>2026-03-30T07:38:23.693Z</time></trkpt><trkpt lat="43.0208233" lon="2.44193"><ele>662.6</ele><time>2026-03-30T07:38:24.689Z</time></trkpt><trkpt lat="43.0207783" lon="2.442025"><ele>663.2</ele><time>2026-03-30T07:38:25.693Z</time></trkpt><trkpt lat="43.020735" lon="2.4421283"><ele>663.8</ele><time>2026-03-30T07:38:26.697Z</time></trkpt><trkpt lat="43.02069" lon="2.4422467"><ele>664.4</ele><time>2026-03-30T07:38:27.694Z</time></trkpt><trkpt lat="43.0206433" lon="2.4423767"><ele>665.0</ele><time>2026-03-30T07:38:28.693Z</time></trkpt><trkpt lat="43.0205983" lon="2.4425183"><ele>665.0</ele><time>2026-03-30T07:38:29.694Z</time></trkpt><trkpt lat="43.020555" lon="2.44266"><ele>665.0</ele><time>2026-03-30T07:38:30.693Z</time></trkpt><trkpt lat="43.0205167" lon="2.44279"><ele>665.0</ele><time>2026-03-30T07:38:31.695Z</time></trkpt><trkpt lat="43.020485" lon="2.442915"><ele>665.0</ele><time>2026-03-30T07:38:32.693Z</time></trkpt><trkpt lat="43.0204583" lon="2.4430333"><ele>665.0</ele><time>2026-03-30T07:38:33.694Z</time></trkpt><trkpt lat="43.0204417" lon="2.4431467"><ele>664.3333333333333</ele><time>2026-03-30T07:38:34.689Z</time></trkpt><trkpt lat="43.0204317" lon="2.44325"><ele>663.6666666666666</ele><time>2026-03-30T07:38:35.695Z</time></trkpt><trkpt lat="43.020425" lon="2.4433433"><ele>663.0</ele><time>2026-03-30T07:38:36.694Z</time></trkpt><trkpt lat="43.0204067" lon="2.4434767"><ele>662.3333333333334</ele><time>2026-03-30T07:38:38.695Z</time></trkpt><trkpt lat="43.0203617" lon="2.4435483"><ele>661.6666666666667</ele><time>2026-03-30T07:38:40.692Z</time></trkpt><trkpt lat="43.0202983" lon="2.4436017"><ele>661.0</ele><time>2026-03-30T07:38:43.693Z</time></trkpt><trkpt lat="43.0203767" lon="2.443515"><ele>661.0</ele><time>2026-03-30T07:45:01.687Z</time></trkpt><trkpt lat="43.0204167" lon="2.44337"><ele>661.0</ele><time>2026-03-30T07:45:03.687Z</time></trkpt><trkpt lat="43.0204317" lon="2.4432717"><ele>661.0</ele><time>2026-03-30T07:45:04.686Z</time></trkpt><trkpt lat="43.0204417" lon="2.4431617"><ele>661.0</ele><time>2026-03-30T07:45:05.685Z</time></trkpt><trkpt lat="43.020455" lon="2.4430317"><ele>661.0</ele><time>2026-03-30T07:45:06.688Z</time></trkpt><trkpt lat="43.0204833" lon="2.4428967"><ele>661.8</ele><time>2026-03-30T07:45:07.686Z</time></trkpt><trkpt lat="43.0205167" lon="2.4427567"><ele>662.5999999999999</ele><time>2026-03-30T07:45:08.687Z</time></trkpt><trkpt lat="43.0205567" lon="2.44262"><ele>663.4</ele><time>2026-03-30T07:45:09.686Z</time></trkpt><trkpt lat="43.0205967" lon="2.4424917"><ele>664.2</ele><time>2026-03-30T07:45:10.685Z</time></trkpt><trkpt lat="43.0206383" lon="2.4423667"><ele>665.0</ele><time>2026-03-30T07:45:11.69Z</time></trkpt><trkpt lat="43.0206767" lon="2.442245"><ele>664.5</ele><time>2026-03-30T07:45:12.686Z</time></trkpt><trkpt lat="43.02072" lon="2.4421283"><ele>664.0</ele><time>2026-03-30T07:45:13.688Z</time></trkpt><trkpt lat="43.0207683" lon="2.4420217"><ele>663.5</ele><time>2026-03-30T07:45:14.686Z</time></trkpt><trkpt lat="43.0208167" lon="2.4419267"><ele>663.0</ele><time>2026-03-30T07:45:15.686Z</time></trkpt><trkpt lat="43.020855" lon="2.4418367"><ele>662.5</ele><time>2026-03-30T07:45:16.687Z</time></trkpt><trkpt lat="43.0208867" lon="2.4417517"><ele>662.0</ele><time>2026-03-30T07:45:17.686Z</time></trkpt><trkpt lat="43.0209183" lon="2.4416717"><ele>662.0</ele><time>2026-03-30T07:45:18.686Z</time></trkpt><trkpt lat="43.0209483" lon="2.441585"><ele>662.0</ele><time>2026-03-30T07:45:19.686Z</time></trkpt><trkpt lat="43.020975" lon="2.4414983"><ele>662.0</ele><time>2026-03-30T07:45:20.688Z</time></trkpt><trkpt lat="43.021005" lon="2.4413517"><ele>662.0</ele><time>2026-03-30T07:45:22.687Z</time></trkpt><trkpt lat="43.02102" lon="2.441195"><ele>662.0</ele><time>2026-03-30T07:45:24.687Z</time></trkpt><trkpt lat="43.021025" lon="2.4411"><ele>662.0</ele><time>2026-03-30T07:45:25.688Z</time></trkpt><trkpt lat="43.02103" lon="2.4410033"><ele>663.8571428571429</ele><time>2026-03-30T07:45:26.688Z</time></trkpt><trkpt lat="43.021035" lon="2.4409083"><ele>665.7142857142857</ele><time>2026-03-30T07:45:27.688Z</time></trkpt><trkpt lat="43.0210383" lon="2.4408117"><ele>667.5714285714286</ele><time>2026-03-30T07:45:28.686Z</time></trkpt><trkpt lat="43.021045" lon="2.4407117"><ele>669.4285714285714</ele><time>2026-03-30T07:45:29.687Z</time></trkpt><trkpt lat="43.0210517" lon="2.4406067"><ele>671.2857142857143</ele><time>2026-03-30T07:45:30.685Z</time></trkpt><trkpt lat="43.0210567" lon="2.440505"><ele>673.1428571428571</ele><time>2026-03-30T07:45:31.686Z</time></trkpt><trkpt lat="43.0210583" lon="2.4404083"><ele>675.0</ele><time>2026-03-30T07:45:32.686Z</time></trkpt><trkpt lat="43.0210533" lon="2.4403133"><ele>676.1666666666666</ele><time>2026-03-30T07:45:33.685Z</time></trkpt><trkpt lat="43.0210467" lon="2.440215"><ele>677.3333333333334</ele><time>2026-03-30T07:45:34.686Z</time></trkpt><trkpt lat="43.021035" lon="2.44013"><ele>678.5</ele><time>2026-03-30T07:45:35.687Z</time></trkpt><trkpt lat="43.0210133" lon="2.43998"><ele>679.6666666666667</ele><time>2026-03-30T07:45:37.686Z</time></trkpt><trkpt lat="43.02099" lon="2.43988"><ele>680.8333333333334</ele><time>2026-03-30T07:45:46.685Z</time></trkpt><trkpt lat="43.0209617" lon="2.439745"><ele>682.0</ele><time>2026-03-30T07:45:48.687Z</time></trkpt><trkpt lat="43.0209517" lon="2.4396533"><ele>681.8333333333334</ele><time>2026-03-30T07:45:49.685Z</time></trkpt><trkpt lat="43.02094" lon="2.43956"><ele>681.6666666666667</ele><time>2026-03-30T07:45:50.685Z</time></trkpt><trkpt lat="43.0209267" lon="2.439475"><ele>681.5</ele><time>2026-03-30T07:45:51.688Z</time></trkpt><trkpt lat="43.0209083" lon="2.439315"><ele>681.3333333333334</ele><time>2026-03-30T07:45:53.688Z</time></trkpt><trkpt lat="43.02091" lon="2.4391867"><ele>681.1666666666666</ele><time>2026-03-30T07:45:55.686Z</time></trkpt><trkpt lat="43.02091" lon="2.4390617"><ele>681.0</ele><time>2026-03-30T07:45:57.687Z</time></trkpt><trkpt lat="43.02094" lon="2.4389333"><ele>681.0</ele><time>2026-03-30T07:45:59.689Z</time></trkpt><trkpt lat="43.0209883" lon="2.4388117"><ele>681.0</ele><time>2026-03-30T07:46:01.686Z</time></trkpt><trkpt lat="43.0210183" lon="2.43869"><ele>681.0</ele><time>2026-03-30T07:46:03.686Z</time></trkpt><trkpt lat="43.0210517" lon="2.4385883"><ele>681.0</ele><time>2026-03-30T07:46:05.687Z</time></trkpt><trkpt lat="43.0211217" lon="2.438485"><ele>681.0</ele><time>2026-03-30T07:46:07.686Z</time></trkpt><trkpt lat="43.0211967" lon="2.43836"><ele>679.7142857142858</ele><time>2026-03-30T07:46:09.689Z</time></trkpt><trkpt lat="43.0212483" lon="2.4383033"><ele>678.4285714285714</ele><time>2026-03-30T07:46:10.685Z</time></trkpt><trkpt lat="43.0213083" lon="2.4382383"><ele>677.1428571428571</ele><time>2026-03-30T07:46:11.685Z</time></trkpt><trkpt lat="43.0213733" lon="2.438185"><ele>675.8571428571429</ele><time>2026-03-30T07:46:12.684Z</time></trkpt><trkpt lat="43.0214417" lon="2.43813"><ele>674.5714285714286</ele><time>2026-03-30T07:46:13.685Z</time></trkpt><trkpt lat="43.0214967" lon="2.4380767"><ele>673.2857142857143</ele><time>2026-03-30T07:46:14.686Z</time></trkpt><trkpt lat="43.0215467" lon="2.4380133"><ele>672.0</ele><time>2026-03-30T07:46:15.685Z</time></trkpt><trkpt lat="43.0215817" lon="2.4379333"><ele>671.1428571428571</ele><time>2026-03-30T07:46:16.686Z</time></trkpt><trkpt lat="43.0216017" lon="2.437845"><ele>670.2857142857142</ele><time>2026-03-30T07:46:17.688Z</time></trkpt><trkpt lat="43.0216183" lon="2.437755"><ele>669.4285714285714</ele><time>2026-03-30T07:46:18.687Z</time></trkpt><trkpt lat="43.0216333" lon="2.4376633"><ele>668.5714285714286</ele><time>2026-03-30T07:46:19.686Z</time></trkpt><trkpt lat="43.0216517" lon="2.4375717"><ele>667.7142857142857</ele><time>2026-03-30T07:46:20.689Z</time></trkpt><trkpt lat="43.021675" lon="2.43748"><ele>666.8571428571429</ele><time>2026-03-30T07:46:21.691Z</time></trkpt><trkpt lat="43.0216967" lon="2.4373867"><ele>666.0</ele><time>2026-03-30T07:46:22.689Z</time></trkpt><trkpt lat="43.0217217" lon="2.4372883"><ele>665.8333333333334</ele><time>2026-03-30T07:46:23.689Z</time></trkpt><trkpt lat="43.0217517" lon="2.4371833"><ele>665.6666666666666</ele><time>2026-03-30T07:46:24.688Z</time></trkpt><trkpt lat="43.02179" lon="2.4370783"><ele>665.5</ele><time>2026-03-30T07:46:25.685Z</time></trkpt><trkpt lat="43.0218367" lon="2.43697"><ele>665.3333333333333</ele><time>2026-03-30T07:46:26.69Z</time></trkpt><trkpt lat="43.02189" lon="2.4368667"><ele>665.1666666666666</ele><time>2026-03-30T07:46:27.689Z</time></trkpt><trkpt lat="43.02195" lon="2.4367683"><ele>665.0</ele><time>2026-03-30T07:46:28.688Z</time></trkpt><trkpt lat="43.0220083" lon="2.43668"><ele>662.8333333333333</ele><time>2026-03-30T07:46:29.685Z</time></trkpt><trkpt lat="43.0220667" lon="2.4365917"><ele>660.6666666666666</ele><time>2026-03-30T07:46:30.692Z</time></trkpt><trkpt lat="43.0221167" lon="2.43651"><ele>658.5</ele><time>2026-03-30T07:46:31.686Z</time></trkpt><trkpt lat="43.02216" lon="2.4364417"><ele>656.3333333333334</ele><time>2026-03-30T07:46:32.688Z</time></trkpt><trkpt lat="43.02223" lon="2.4363383"><ele>654.1666666666667</ele><time>2026-03-30T07:46:34.685Z</time></trkpt><trkpt lat="43.0223" lon="2.436245"><ele>652.0</ele><time>2026-03-30T07:46:36.687Z</time></trkpt><trkpt lat="43.022365" lon="2.4361083"><ele>652.5</ele><time>2026-03-30T07:46:38.688Z</time></trkpt><trkpt lat="43.0223917" lon="2.4360233"><ele>653.0</ele><time>2026-03-30T07:46:39.686Z</time></trkpt><trkpt lat="43.02242" lon="2.4359267"><ele>653.5</ele><time>2026-03-30T07:46:40.687Z</time></trkpt><trkpt lat="43.0224533" lon="2.43582"><ele>654.0</ele><time>2026-03-30T07:46:41.688Z</time></trkpt><trkpt lat="43.0224833" lon="2.4357183"><ele>654.5</ele><time>2026-03-30T07:46:42.685Z</time></trkpt><trkpt lat="43.0225083" lon="2.4356233"><ele>655.0</ele><time>2026-03-30T07:46:43.685Z</time></trkpt><trkpt lat="43.0225283" lon="2.435535"><ele>652.4</ele><time>2026-03-30T07:46:44.687Z</time></trkpt><trkpt lat="43.0225467" lon="2.4354033"><ele>649.8</ele><time>2026-03-30T07:46:46.686Z</time></trkpt><trkpt lat="43.0225483" lon="2.435265"><ele>647.2</ele><time>2026-03-30T07:46:48.685Z</time></trkpt><trkpt lat="43.022545" lon="2.4351433"><ele>644.6</ele><time>2026-03-30T07:46:50.686Z</time></trkpt><trkpt lat="43.0225533" lon="2.4350317"><ele>642.0</ele><time>2026-03-30T07:46:52.686Z</time></trkpt><trkpt lat="43.0225667" lon="2.43492"><ele>642.0</ele><time>2026-03-30T07:46:54.685Z</time></trkpt><trkpt lat="43.022575" lon="2.4348"><ele>642.0</ele><time>2026-03-30T07:46:56.686Z</time></trkpt><trkpt lat="43.0225833" lon="2.4346383"><ele>642.0</ele><time>2026-03-30T07:46:58.687Z</time></trkpt><trkpt lat="43.0225967" lon="2.43455"><ele>642.0</ele><time>2026-03-30T07:46:59.686Z</time></trkpt><trkpt lat="43.022615" lon="2.43446"><ele>642.0</ele><time>2026-03-30T07:47:00.685Z</time></trkpt><trkpt lat="43.0226333" lon="2.4343717"><ele>642.0</ele><time>2026-03-30T07:47:01.685Z</time></trkpt><trkpt lat="43.02269" lon="2.4342333"><ele>640.6666666666666</ele><time>2026-03-30T07:47:03.686Z</time></trkpt><trkpt lat="43.0227917" lon="2.4341833"><ele>639.3333333333334</ele><time>2026-03-30T07:47:05.685Z</time></trkpt><trkpt lat="43.0228967" lon="2.43424"><ele>638.0</ele><time>2026-03-30T07:47:07.686Z</time></trkpt><trkpt lat="43.0229567" lon="2.43428"><ele>636.6666666666667</ele><time>2026-03-30T07:47:08.687Z</time></trkpt><trkpt lat="43.0230217" lon="2.4343183"><ele>635.3333333333334</ele><time>2026-03-30T07:47:09.686Z</time></trkpt><trkpt lat="43.0230867" lon="2.4343433"><ele>634.0</ele><time>2026-03-30T07:47:10.685Z</time></trkpt><trkpt lat="43.0231533" lon="2.4343633"><ele>634.0</ele><time>2026-03-30T07:47:11.687Z</time></trkpt><trkpt lat="43.0232267" lon="2.43438"><ele>634.0</ele><time>2026-03-30T07:47:12.685Z</time></trkpt><trkpt lat="43.0233" lon="2.434385"><ele>634.0</ele><time>2026-03-30T07:47:13.687Z</time></trkpt><trkpt lat="43.02337" lon="2.4343867"><ele>634.0</ele><time>2026-03-30T07:47:14.687Z</time></trkpt><trkpt lat="43.0234333" lon="2.4343783"><ele>634.0</ele><time>2026-03-30T07:47:15.686Z</time></trkpt><trkpt lat="43.0235517" lon="2.43434"><ele>634.0</ele><time>2026-03-30T07:47:17.685Z</time></trkpt><trkpt lat="43.0236183" lon="2.434325"><ele>634.3333333333334</ele><time>2026-03-30T07:47:18.685Z</time></trkpt><trkpt lat="43.0236833" lon="2.434315"><ele>634.6666666666667</ele><time>2026-03-30T07:47:19.687Z</time></trkpt><trkpt lat="43.0237467" lon="2.4343017"><ele>635.0</ele><time>2026-03-30T07:47:20.686Z</time></trkpt><trkpt lat="43.02382" lon="2.4342917"><ele>635.3333333333334</ele><time>2026-03-30T07:47:21.686Z</time></trkpt><trkpt lat="43.0238967" lon="2.4342817"><ele>635.6666666666666</ele><time>2026-03-30T07:47:22.686Z</time></trkpt><trkpt lat="43.023975" lon="2.4342617"><ele>636.0</ele><time>2026-03-30T07:47:23.686Z</time></trkpt><trkpt lat="43.0240633" lon="2.4342367"><ele>635.2</ele><time>2026-03-30T07:47:24.688Z</time></trkpt><trkpt lat="43.024155" lon="2.4341883"><ele>634.4000000000001</ele><time>2026-03-30T07:47:25.686Z</time></trkpt><trkpt lat="43.0242217" lon="2.43415"><ele>633.6</ele><time>2026-03-30T07:47:26.689Z</time></trkpt><trkpt lat="43.024315" lon="2.4340617"><ele>632.8000000000001</ele><time>2026-03-30T07:47:28.685Z</time></trkpt><trkpt lat="43.02439" lon="2.4339867"><ele>632.0</ele><time>2026-03-30T07:47:30.686Z</time></trkpt><trkpt lat="43.02446" lon="2.433915"><ele>631.6</ele><time>2026-03-30T07:47:32.686Z</time></trkpt><trkpt lat="43.0245083" lon="2.4337983"><ele>631.2</ele><time>2026-03-30T07:47:34.687Z</time></trkpt><trkpt lat="43.024555" lon="2.43367"><ele>630.8</ele><time>2026-03-30T07:47:36.687Z</time></trkpt><trkpt lat="43.0245933" lon="2.4335333"><ele>630.4</ele><time>2026-03-30T07:47:38.689Z</time></trkpt><trkpt lat="43.02462" lon="2.4334233"><ele>630.0</ele><time>2026-03-30T07:47:40.686Z</time></trkpt><trkpt lat="43.0247183" lon="2.43338"><ele>630.0</ele><time>2026-03-30T07:48:12.686Z</time></trkpt><trkpt lat="43.02471" lon="2.43348"><ele>630.0</ele><time>2026-03-30T07:48:17.686Z</time></trkpt><trkpt lat="43.0246917" lon="2.4336233"><ele>630.0</ele><time>2026-03-30T07:48:57.686Z</time></trkpt><trkpt lat="43.0246833" lon="2.4337917"><ele>630.0</ele><time>2026-03-30T07:48:59.688Z</time></trkpt><trkpt lat="43.0246933" lon="2.4338967"><ele>630.0</ele><time>2026-03-30T07:49:00.685Z</time></trkpt><trkpt lat="43.0247017" lon="2.434"><ele>630.4</ele><time>2026-03-30T07:49:01.687Z</time></trkpt><trkpt lat="43.0247183" lon="2.434105"><ele>630.8</ele><time>2026-03-30T07:49:02.686Z</time></trkpt><trkpt lat="43.0247383" lon="2.4342167"><ele>631.2</ele><time>2026-03-30T07:49:03.684Z</time></trkpt><trkpt lat="43.0247683" lon="2.4343317"><ele>631.6</ele><time>2026-03-30T07:49:04.688Z</time></trkpt><trkpt lat="43.024805" lon="2.4344567"><ele>632.0</ele><time>2026-03-30T07:49:05.685Z</time></trkpt><trkpt lat="43.0248433" lon="2.4345917"><ele>633.8</ele><time>2026-03-30T07:49:06.684Z</time></trkpt><trkpt lat="43.0248783" lon="2.4347333"><ele>635.6</ele><time>2026-03-30T07:49:07.686Z</time></trkpt><trkpt lat="43.0249117" lon="2.4348683"><ele>637.4</ele><time>2026-03-30T07:49:08.687Z</time></trkpt><trkpt lat="43.024925" lon="2.4349717"><ele>639.1999999999999</ele><time>2026-03-30T07:49:09.685Z</time></trkpt><trkpt lat="43.0249483" lon="2.4350833"><ele>641.0</ele><time>2026-03-30T07:49:10.685Z</time></trkpt><trkpt lat="43.0249783" lon="2.4351883"><ele>637.3333333333333</ele><time>2026-03-30T07:49:11.685Z</time></trkpt><trkpt lat="43.0250017" lon="2.4352867"><ele>633.6666666666666</ele><time>2026-03-30T07:49:12.686Z</time></trkpt><trkpt lat="43.0250233" lon="2.4353717"><ele>630.0</ele><time>2026-03-30T07:49:13.687Z</time></trkpt><trkpt lat="43.0250467" lon="2.4355433"><ele>626.3333333333334</ele><time>2026-03-30T07:49:15.685Z</time></trkpt><trkpt lat="43.0250633" lon="2.43564"><ele>622.6666666666667</ele><time>2026-03-30T07:49:16.686Z</time></trkpt><trkpt lat="43.0250967" lon="2.4357367"><ele>619.0</ele><time>2026-03-30T07:49:17.688Z</time></trkpt><trkpt lat="43.02513" lon="2.435835"><ele>619.0</ele><time>2026-03-30T07:49:18.687Z</time></trkpt><trkpt lat="43.0251617" lon="2.4359333"><ele>619.0</ele><time>2026-03-30T07:49:19.686Z</time></trkpt><trkpt lat="43.0251983" lon="2.4360317"><ele>619.0</ele><time>2026-03-30T07:49:20.687Z</time></trkpt><trkpt lat="43.0252333" lon="2.436125"><ele>619.0</ele><time>2026-03-30T07:49:21.686Z</time></trkpt><trkpt lat="43.025265" lon="2.436205"><ele>619.0</ele><time>2026-03-30T07:49:22.688Z</time></trkpt><trkpt lat="43.0253117" lon="2.436355"><ele>619.0</ele><time>2026-03-30T07:49:24.686Z</time></trkpt><trkpt lat="43.0253533" lon="2.4365033"><ele>621.4</ele><time>2026-03-30T07:49:26.69Z</time></trkpt><trkpt lat="43.0254" lon="2.436665"><ele>623.8</ele><time>2026-03-30T07:49:28.687Z</time></trkpt><trkpt lat="43.0254233" lon="2.436755"><ele>626.2</ele><time>2026-03-30T07:49:29.686Z</time></trkpt><trkpt lat="43.02548" lon="2.4368317"><ele>628.6</ele><time>2026-03-30T07:49:30.686Z</time></trkpt><trkpt lat="43.02555" lon="2.4368967"><ele>631.0</ele><time>2026-03-30T07:49:31.686Z</time></trkpt><trkpt lat="43.0256367" lon="2.4369617"><ele>631.0</ele><time>2026-03-30T07:49:32.685Z</time></trkpt><trkpt lat="43.025725" lon="2.4370283"><ele>631.0</ele><time>2026-03-30T07:49:33.685Z</time></trkpt><trkpt lat="43.02581" lon="2.4370867"><ele>631.0</ele><time>2026-03-30T07:49:34.685Z</time></trkpt><trkpt lat="43.0258933" lon="2.437135"><ele>631.0</ele><time>2026-03-30T07:49:35.684Z</time></trkpt><trkpt lat="43.0259733" lon="2.4371633"><ele>631.0</ele><time>2026-03-30T07:49:36.685Z</time></trkpt><trkpt lat="43.0260517" lon="2.437155"><ele>631.0</ele><time>2026-03-30T07:49:37.684Z</time></trkpt><trkpt lat="43.0261267" lon="2.4371217"><ele>627.0</ele><time>2026-03-30T07:49:38.685Z</time></trkpt><trkpt lat="43.0261833" lon="2.4370567"><ele>623.0</ele><time>2026-03-30T07:49:39.685Z</time></trkpt><trkpt lat="43.0262367" lon="2.4369717"><ele>619.0</ele><time>2026-03-30T07:49:40.686Z</time></trkpt><trkpt lat="43.0262833" lon="2.43687"><ele>615.0</ele><time>2026-03-30T07:49:41.684Z</time></trkpt><trkpt lat="43.0263133" lon="2.43677"><ele>611.0</ele><time>2026-03-30T07:49:42.685Z</time></trkpt><trkpt lat="43.0263267" lon="2.4366733"><ele>607.0</ele><time>2026-03-30T07:49:43.685Z</time></trkpt><trkpt lat="43.0263317" lon="2.436575"><ele>606.9999999999999</ele><time>2026-03-30T07:49:44.685Z</time></trkpt><trkpt lat="43.0263417" lon="2.4364783"><ele>607.0</ele><time>2026-03-30T07:49:45.685Z</time></trkpt><trkpt lat="43.0263533" lon="2.4363817"><ele>607.0</ele><time>2026-03-30T07:49:46.686Z</time></trkpt><trkpt lat="43.0263633" lon="2.4362833"><ele>607.0</ele><time>2026-03-30T07:49:47.684Z</time></trkpt><trkpt lat="43.0263683" lon="2.4361883"><ele>607.0</ele><time>2026-03-30T07:49:48.686Z</time></trkpt><trkpt lat="43.0263717" lon="2.4360983"><ele>606.9999999999999</ele><time>2026-03-30T07:49:49.685Z</time></trkpt><trkpt lat="43.0263667" lon="2.4360083"><ele>607.0</ele><time>2026-03-30T07:49:50.686Z</time></trkpt><trkpt lat="43.0263567" lon="2.4359167"><ele>604.6666666666667</ele><time>2026-03-30T07:49:51.684Z</time></trkpt><trkpt lat="43.0263583" lon="2.4358283"><ele>602.3333333333334</ele><time>2026-03-30T07:49:52.684Z</time></trkpt><trkpt lat="43.026365" lon="2.43574"><ele>600.0</ele><time>2026-03-30T07:49:53.685Z</time></trkpt><trkpt lat="43.026385" lon="2.4356567"><ele>597.6666666666666</ele><time>2026-03-30T07:49:54.685Z</time></trkpt><trkpt lat="43.0264683" lon="2.4355383"><ele>595.3333333333333</ele><time>2026-03-30T07:49:56.684Z</time></trkpt><trkpt lat="43.0265817" lon="2.4354933"><ele>593.0</ele><time>2026-03-30T07:49:58.684Z</time></trkpt><trkpt lat="43.026645" lon="2.4355033"><ele>592.8571428571428</ele><time>2026-03-30T07:49:59.684Z</time></trkpt><trkpt lat="43.0267067" lon="2.4355367"><ele>592.7142857142857</ele><time>2026-03-30T07:50:00.684Z</time></trkpt><trkpt lat="43.0267583" lon="2.43559"><ele>592.5714285714286</ele><time>2026-03-30T07:50:01.686Z</time></trkpt><trkpt lat="43.026805" lon="2.435665"><ele>592.4285714285713</ele><time>2026-03-30T07:50:02.686Z</time></trkpt><trkpt lat="43.026845" lon="2.4357483"><ele>592.2857142857142</ele><time>2026-03-30T07:50:03.684Z</time></trkpt><trkpt lat="43.026875" lon="2.4358367"><ele>592.1428571428571</ele><time>2026-03-30T07:50:04.685Z</time></trkpt><trkpt lat="43.0269" lon="2.435925"><ele>592.0</ele><time>2026-03-30T07:50:05.685Z</time></trkpt><trkpt lat="43.0269233" lon="2.4360167"><ele>592.0</ele><time>2026-03-30T07:50:06.685Z</time></trkpt><trkpt lat="43.0269433" lon="2.4361083"><ele>592.0</ele><time>2026-03-30T07:50:07.685Z</time></trkpt><trkpt lat="43.0269633" lon="2.4362"><ele>592.0</ele><time>2026-03-30T07:50:08.684Z</time></trkpt><trkpt lat="43.0269817" lon="2.4362917"><ele>592.0</ele><time>2026-03-30T07:50:09.684Z</time></trkpt><trkpt lat="43.0269967" lon="2.4363817"><ele>592.0</ele><time>2026-03-30T07:50:10.684Z</time></trkpt><trkpt lat="43.02701" lon="2.4364717"><ele>592.0</ele><time>2026-03-30T07:50:11.684Z</time></trkpt><trkpt lat="43.0270217" lon="2.436565"><ele>592.0</ele><time>2026-03-30T07:50:12.685Z</time></trkpt><trkpt lat="43.0270283" lon="2.4366583"><ele>592.8000000000001</ele><time>2026-03-30T07:50:13.687Z</time></trkpt><trkpt lat="43.02704" lon="2.4367517"><ele>593.6</ele><time>2026-03-30T07:50:14.685Z</time></trkpt><trkpt lat="43.027045" lon="2.4368433"><ele>594.4000000000001</ele><time>2026-03-30T07:50:15.686Z</time></trkpt><trkpt lat="43.0270583" lon="2.4370117"><ele>595.2</ele><time>2026-03-30T07:50:17.684Z</time></trkpt><trkpt lat="43.027055" lon="2.4371567"><ele>596.0</ele><time>2026-03-30T07:50:19.689Z</time></trkpt><trkpt lat="43.02707" lon="2.43728"><ele>596.0</ele><time>2026-03-30T07:50:21.685Z</time></trkpt><trkpt lat="43.0271183" lon="2.4373917"><ele>596.0</ele><time>2026-03-30T07:50:23.685Z</time></trkpt><trkpt lat="43.0271733" lon="2.4375"><ele>596.0</ele><time>2026-03-30T07:50:25.685Z</time></trkpt><trkpt lat="43.0272317" lon="2.4376233"><ele>596.0</ele><time>2026-03-30T07:50:27.685Z</time></trkpt><trkpt lat="43.0272783" lon="2.4377767"><ele>596.0</ele><time>2026-03-30T07:50:29.685Z</time></trkpt><trkpt lat="43.0273033" lon="2.43794"><ele>596.0</ele><time>2026-03-30T07:50:31.685Z</time></trkpt><trkpt lat="43.02732" lon="2.4380283"><ele>596.0</ele><time>2026-03-30T07:50:32.69Z</time></trkpt><trkpt lat="43.027335" lon="2.4381183"><ele>596.0</ele><time>2026-03-30T07:50:33.687Z</time></trkpt><trkpt lat="43.0273433" lon="2.438235"><ele>596.0</ele><time>2026-03-30T07:50:34.686Z</time></trkpt><trkpt lat="43.0273417" lon="2.438345"><ele>596.0</ele><time>2026-03-30T07:50:35.687Z</time></trkpt><trkpt lat="43.027335" lon="2.4384517"><ele>596.0</ele><time>2026-03-30T07:50:36.686Z</time></trkpt><trkpt lat="43.0273317" lon="2.4385567"><ele>596.0</ele><time>2026-03-30T07:50:37.685Z</time></trkpt><trkpt lat="43.0273317" lon="2.4386667"><ele>596.0</ele><time>2026-03-30T07:50:38.687Z</time></trkpt><trkpt lat="43.0273317" lon="2.438775"><ele>596.0</ele><time>2026-03-30T07:50:39.685Z</time></trkpt><trkpt lat="43.02733" lon="2.4388833"><ele>596.0</ele><time>2026-03-30T07:50:40.688Z</time></trkpt><trkpt lat="43.0273283" lon="2.438995"><ele>596.0</ele><time>2026-03-30T07:50:41.685Z</time></trkpt><trkpt lat="43.0273233" lon="2.43911"><ele>596.0</ele><time>2026-03-30T07:50:42.687Z</time></trkpt><trkpt lat="43.0273117" lon="2.4392283"><ele>595.0</ele><time>2026-03-30T07:50:43.685Z</time></trkpt><trkpt lat="43.0272967" lon="2.4393483"><ele>594.0</ele><time>2026-03-30T07:50:44.688Z</time></trkpt><trkpt lat="43.02728" lon="2.43947"><ele>593.0</ele><time>2026-03-30T07:50:45.687Z</time></trkpt><trkpt lat="43.02726" lon="2.4395983"><ele>592.0</ele><time>2026-03-30T07:50:46.688Z</time></trkpt><trkpt lat="43.0272383" lon="2.439735"><ele>591.0</ele><time>2026-03-30T07:50:47.687Z</time></trkpt><trkpt lat="43.0272117" lon="2.439875"><ele>590.25</ele><time>2026-03-30T07:50:48.687Z</time></trkpt><trkpt lat="43.0271817" lon="2.4400183"><ele>589.5</ele><time>2026-03-30T07:50:49.686Z</time></trkpt><trkpt lat="43.02715" lon="2.440165"><ele>588.75</ele><time>2026-03-30T07:50:50.686Z</time></trkpt><trkpt lat="43.027115" lon="2.4403167"><ele>588.0</ele><time>2026-03-30T07:50:51.687Z</time></trkpt><trkpt lat="43.027075" lon="2.44047"><ele>586.75</ele><time>2026-03-30T07:50:52.686Z</time></trkpt><trkpt lat="43.0270383" lon="2.4406217"><ele>585.5</ele><time>2026-03-30T07:50:53.687Z</time></trkpt><trkpt lat="43.0270017" lon="2.4407667"><ele>584.25</ele><time>2026-03-30T07:50:54.687Z</time></trkpt><trkpt lat="43.0269583" lon="2.44091"><ele>583.0</ele><time>2026-03-30T07:50:55.686Z</time></trkpt><trkpt lat="43.0269117" lon="2.44105"><ele>583.0</ele><time>2026-03-30T07:50:56.687Z</time></trkpt><trkpt lat="43.0268667" lon="2.441195"><ele>583.0</ele><time>2026-03-30T07:50:57.687Z</time></trkpt><trkpt lat="43.026825" lon="2.4413467"><ele>583.0</ele><time>2026-03-30T07:50:58.688Z</time></trkpt><trkpt lat="43.02678" lon="2.44149"><ele>583.0</ele><time>2026-03-30T07:50:59.687Z</time></trkpt><trkpt lat="43.02674" lon="2.4416283"><ele>581.8</ele><time>2026-03-30T07:51:00.687Z</time></trkpt><trkpt lat="43.0266983" lon="2.441735"><ele>580.5999999999999</ele><time>2026-03-30T07:51:01.686Z</time></trkpt><trkpt lat="43.02666" lon="2.4418467"><ele>579.4000000000001</ele><time>2026-03-30T07:51:02.687Z</time></trkpt><trkpt lat="43.0266217" lon="2.4419633"><ele>578.2</ele><time>2026-03-30T07:51:03.687Z</time></trkpt><trkpt lat="43.0265833" lon="2.442075"><ele>577.0</ele><time>2026-03-30T07:51:04.685Z</time></trkpt><trkpt lat="43.0265433" lon="2.4421867"><ele>580.1666666666667</ele><time>2026-03-30T07:51:05.686Z</time></trkpt><trkpt lat="43.026495" lon="2.4422967"><ele>583.3333333333334</ele><time>2026-03-30T07:51:06.687Z</time></trkpt><trkpt lat="43.0264433" lon="2.4424"><ele>586.5</ele><time>2026-03-30T07:51:07.686Z</time></trkpt><trkpt lat="43.0263883" lon="2.44249"><ele>589.6666666666666</ele><time>2026-03-30T07:51:08.687Z</time></trkpt><trkpt lat="43.0263317" lon="2.4425733"><ele>592.8333333333333</ele><time>2026-03-30T07:51:09.685Z</time></trkpt><trkpt lat="43.0262817" lon="2.442645"><ele>596.0</ele><time>2026-03-30T07:51:10.686Z</time></trkpt><trkpt lat="43.0262367" lon="2.4427117"><ele>596.0</ele><time>2026-03-30T07:51:11.687Z</time></trkpt><trkpt lat="43.0261867" lon="2.44284"><ele>596.0</ele><time>2026-03-30T07:51:13.687Z</time></trkpt><trkpt lat="43.02625" lon="2.4429617"><ele>596.0</ele><time>2026-03-30T07:51:15.686Z</time></trkpt><trkpt lat="43.02634" lon="2.44298"><ele>596.0</ele><time>2026-03-30T07:51:16.685Z</time></trkpt><trkpt lat="43.026435" lon="2.442965"><ele>596.0</ele><time>2026-03-30T07:51:17.686Z</time></trkpt><trkpt lat="43.0265367" lon="2.442935"><ele>589.0</ele><time>2026-03-30T07:51:18.688Z</time></trkpt><trkpt lat="43.0266467" lon="2.4428933"><ele>582.0</ele><time>2026-03-30T07:51:19.69Z</time></trkpt><trkpt lat="43.026765" lon="2.4428467"><ele>575.0</ele><time>2026-03-30T07:51:20.687Z</time></trkpt><trkpt lat="43.0268717" lon="2.4428033"><ele>568.0</ele><time>2026-03-30T07:51:21.685Z</time></trkpt><trkpt lat="43.0269767" lon="2.4427667"><ele>568.0</ele><time>2026-03-30T07:51:22.687Z</time></trkpt><trkpt lat="43.02708" lon="2.4427267"><ele>568.0</ele><time>2026-03-30T07:51:23.687Z</time></trkpt><trkpt lat="43.0271783" lon="2.442695"><ele>568.0</ele><time>2026-03-30T07:51:24.686Z</time></trkpt><trkpt lat="43.0272683" lon="2.44265"><ele>568.0</ele><time>2026-03-30T07:51:25.687Z</time></trkpt><trkpt lat="43.0273567" lon="2.4426067"><ele>568.0</ele><time>2026-03-30T07:51:26.686Z</time></trkpt><trkpt lat="43.027425" lon="2.442545"><ele>568.0</ele><time>2026-03-30T07:51:27.687Z</time></trkpt><trkpt lat="43.0274683" lon="2.44244"><ele>568.0</ele><time>2026-03-30T07:51:28.686Z</time></trkpt><trkpt lat="43.0275067" lon="2.4423183"><ele>568.0</ele><time>2026-03-30T07:51:29.686Z</time></trkpt><trkpt lat="43.02755" lon="2.4421967"><ele>568.0</ele><time>2026-03-30T07:51:30.688Z</time></trkpt><trkpt lat="43.027595" lon="2.4420867"><ele>568.0</ele><time>2026-03-30T07:51:31.687Z</time></trkpt><trkpt lat="43.0276483" lon="2.4419883"><ele>565.6</ele><time>2026-03-30T07:51:32.688Z</time></trkpt><trkpt lat="43.0277133" lon="2.4419017"><ele>563.1999999999999</ele><time>2026-03-30T07:51:33.686Z</time></trkpt><trkpt lat="43.027795" lon="2.4418233"><ele>560.8</ele><time>2026-03-30T07:51:34.687Z</time></trkpt><trkpt lat="43.0278817" lon="2.4417583"><ele>558.4</ele><time>2026-03-30T07:51:35.686Z</time></trkpt><trkpt lat="43.0279683" lon="2.4416967"><ele>556.0</ele><time>2026-03-30T07:51:36.686Z</time></trkpt><trkpt lat="43.0280567" lon="2.4416317"><ele>556.0</ele><time>2026-03-30T07:51:37.686Z</time></trkpt><trkpt lat="43.0281483" lon="2.4415617"><ele>556.0</ele><time>2026-03-30T07:51:38.689Z</time></trkpt><trkpt lat="43.0282367" lon="2.4414933"><ele>556.0</ele><time>2026-03-30T07:51:39.686Z</time></trkpt><trkpt lat="43.0283183" lon="2.4414217"><ele>556.0</ele><time>2026-03-30T07:51:40.689Z</time></trkpt><trkpt lat="43.0283967" lon="2.44135"><ele>556.0</ele><time>2026-03-30T07:51:41.686Z</time></trkpt><trkpt lat="43.0284683" lon="2.44127"><ele>555.5</ele><time>2026-03-30T07:51:42.685Z</time></trkpt><trkpt lat="43.02853" lon="2.4411833"><ele>555.0</ele><time>2026-03-30T07:51:43.686Z</time></trkpt><trkpt lat="43.0285767" lon="2.4410833"><ele>554.5</ele><time>2026-03-30T07:51:44.688Z</time></trkpt><trkpt lat="43.0286117" lon="2.4409817"><ele>554.0</ele><time>2026-03-30T07:51:45.691Z</time></trkpt><trkpt lat="43.02864" lon="2.44088"><ele>553.5</ele><time>2026-03-30T07:51:46.686Z</time></trkpt><trkpt lat="43.0286733" lon="2.4407733"><ele>553.0</ele><time>2026-03-30T07:51:47.686Z</time></trkpt><trkpt lat="43.0287217" lon="2.440675"><ele>553.0</ele><time>2026-03-30T07:51:48.686Z</time></trkpt><trkpt lat="43.0287733" lon="2.4405767"><ele>553.0</ele><time>2026-03-30T07:51:49.69Z</time></trkpt><trkpt lat="43.02883" lon="2.44048"><ele>553.0</ele><time>2026-03-30T07:51:50.686Z</time></trkpt><trkpt lat="43.0288867" lon="2.4403883"><ele>553.0</ele><time>2026-03-30T07:51:51.686Z</time></trkpt><trkpt lat="43.0289417" lon="2.4402917"><ele>553.0</ele><time>2026-03-30T07:51:52.69Z</time></trkpt><trkpt lat="43.0289983" lon="2.440195"><ele>553.0</ele><time>2026-03-30T07:51:53.688Z</time></trkpt><trkpt lat="43.029055" lon="2.4401"><ele>552.5</ele><time>2026-03-30T07:51:54.688Z</time></trkpt><trkpt lat="43.0291117" lon="2.4400067"><ele>552.0</ele><time>2026-03-30T07:51:55.686Z</time></trkpt><trkpt lat="43.0291683" lon="2.439915"><ele>551.5</ele><time>2026-03-30T07:51:56.686Z</time></trkpt><trkpt lat="43.0292217" lon="2.439825"><ele>551.0</ele><time>2026-03-30T07:51:57.689Z</time></trkpt><trkpt lat="43.0292733" lon="2.4397367"><ele>550.5</ele><time>2026-03-30T07:51:58.685Z</time></trkpt><trkpt lat="43.0293233" lon="2.4396517"><ele>550.0</ele><time>2026-03-30T07:51:59.686Z</time></trkpt><trkpt lat="43.029365" lon="2.43956"><ele>551.1666666666667</ele><time>2026-03-30T07:52:00.687Z</time></trkpt><trkpt lat="43.0293983" lon="2.4394667"><ele>552.3333333333334</ele><time>2026-03-30T07:52:01.687Z</time></trkpt><trkpt lat="43.0294333" lon="2.4393167"><ele>553.5</ele><time>2026-03-30T07:52:03.686Z</time></trkpt><trkpt lat="43.0294667" lon="2.4392183"><ele>554.6666666666666</ele><time>2026-03-30T07:52:05.688Z</time></trkpt><trkpt lat="43.029555" lon="2.43921"><ele>555.8333333333333</ele><time>2026-03-30T07:52:08.687Z</time></trkpt><trkpt lat="43.0295983" lon="2.4392733"><ele>557.0</ele><time>2026-03-30T07:52:10.687Z</time></trkpt><trkpt lat="43.0295383" lon="2.4394"><ele>557.0</ele><time>2026-03-30T07:52:33.685Z</time></trkpt><trkpt lat="43.0294917" lon="2.43946"><ele>557.0</ele><time>2026-03-30T07:52:34.686Z</time></trkpt><trkpt lat="43.0294483" lon="2.4395517"><ele>557.0</ele><time>2026-03-30T07:52:35.685Z</time></trkpt><trkpt lat="43.02941" lon="2.4396567"><ele>557.0</ele><time>2026-03-30T07:52:36.686Z</time></trkpt><trkpt lat="43.0293767" lon="2.4397733"><ele>557.0</ele><time>2026-03-30T07:52:37.686Z</time></trkpt><trkpt lat="43.0293383" lon="2.4399017"><ele>557.0</ele><time>2026-03-30T07:52:38.686Z</time></trkpt><trkpt lat="43.029295" lon="2.4400367"><ele>558.0</ele><time>2026-03-30T07:52:39.686Z</time></trkpt><trkpt lat="43.02925" lon="2.4401733"><ele>559.0</ele><time>2026-03-30T07:52:40.686Z</time></trkpt><trkpt lat="43.029205" lon="2.440315"><ele>560.0</ele><time>2026-03-30T07:52:41.692Z</time></trkpt><trkpt lat="43.0291583" lon="2.4404583"><ele>561.0</ele><time>2026-03-30T07:52:42.685Z</time></trkpt><trkpt lat="43.0291167" lon="2.4406067"><ele>559.6</ele><time>2026-03-30T07:52:43.685Z</time></trkpt><trkpt lat="43.0290883" lon="2.4407567"><ele>558.2</ele><time>2026-03-30T07:52:44.686Z</time></trkpt><trkpt lat="43.02908" lon="2.4409117"><ele>556.8</ele><time>2026-03-30T07:52:45.687Z</time></trkpt><trkpt lat="43.0290883" lon="2.4410667"><ele>555.4</ele><time>2026-03-30T07:52:46.685Z</time></trkpt><trkpt lat="43.0291033" lon="2.4412083"><ele>554.0</ele><time>2026-03-30T07:52:47.687Z</time></trkpt><trkpt lat="43.02912" lon="2.4413417"><ele>554.0</ele><time>2026-03-30T07:52:48.687Z</time></trkpt><trkpt lat="43.0291233" lon="2.441465"><ele>554.0</ele><time>2026-03-30T07:52:49.689Z</time></trkpt><trkpt lat="43.0291" lon="2.4415833"><ele>554.0</ele><time>2026-03-30T07:52:50.687Z</time></trkpt><trkpt lat="43.02904" lon="2.4416783"><ele>554.0</ele><time>2026-03-30T07:52:51.686Z</time></trkpt><trkpt lat="43.0289567" lon="2.4417417"><ele>554.0</ele><time>2026-03-30T07:52:52.687Z</time></trkpt><trkpt lat="43.0288683" lon="2.4418133"><ele>554.0</ele><time>2026-03-30T07:52:53.687Z</time></trkpt><trkpt lat="43.028785" lon="2.4418983"><ele>554.0</ele><time>2026-03-30T07:52:54.687Z</time></trkpt><trkpt lat="43.028715" lon="2.4420133"><ele>554.0</ele><time>2026-03-30T07:52:55.686Z</time></trkpt><trkpt lat="43.0286617" lon="2.4421583"><ele>554.0</ele><time>2026-03-30T07:52:56.687Z</time></trkpt><trkpt lat="43.02862" lon="2.442325"><ele>555.25</ele><time>2026-03-30T07:52:57.687Z</time></trkpt><trkpt lat="43.0285817" lon="2.44251"><ele>556.5</ele><time>2026-03-30T07:52:58.685Z</time></trkpt><trkpt lat="43.0285433" lon="2.4426933"><ele>557.75</ele><time>2026-03-30T07:52:59.689Z</time></trkpt><trkpt lat="43.028495" lon="2.44287"><ele>559.0</ele><time>2026-03-30T07:53:00.687Z</time></trkpt><trkpt lat="43.0284383" lon="2.4430433"><ele>558.75</ele><time>2026-03-30T07:53:01.685Z</time></trkpt><trkpt lat="43.0283767" lon="2.4432183"><ele>558.5</ele><time>2026-03-30T07:53:02.688Z</time></trkpt><trkpt lat="43.0283167" lon="2.4433933"><ele>558.25</ele><time>2026-03-30T07:53:03.685Z</time></trkpt><trkpt lat="43.0282517" lon="2.4435733"><ele>558.0</ele><time>2026-03-30T07:53:04.687Z</time></trkpt><trkpt lat="43.0281833" lon="2.4437517"><ele>559.0</ele><time>2026-03-30T07:53:05.687Z</time></trkpt><trkpt lat="43.02811" lon="2.4439267"><ele>560.0</ele><time>2026-03-30T07:53:06.687Z</time></trkpt><trkpt lat="43.0280317" lon="2.4440933"><ele>561.0</ele><time>2026-03-30T07:53:07.687Z</time></trkpt><trkpt lat="43.0279417" lon="2.4442467"><ele>562.0</ele><time>2026-03-30T07:53:08.687Z</time></trkpt><trkpt lat="43.0278483" lon="2.4443967"><ele>562.0</ele><time>2026-03-30T07:53:09.686Z</time></trkpt><trkpt lat="43.027745" lon="2.4445333"><ele>562.0</ele><time>2026-03-30T07:53:10.686Z</time></trkpt><trkpt lat="43.0276417" lon="2.4446667"><ele>562.0</ele><time>2026-03-30T07:53:11.686Z</time></trkpt><trkpt lat="43.027555" lon="2.4447933"><ele>562.0</ele><time>2026-03-30T07:53:12.687Z</time></trkpt><trkpt lat="43.0274767" lon="2.4449367"><ele>562.25</ele><time>2026-03-30T07:53:13.687Z</time></trkpt><trkpt lat="43.02741" lon="2.4451017"><ele>562.5</ele><time>2026-03-30T07:53:14.686Z</time></trkpt><trkpt lat="43.0273567" lon="2.4452783"><ele>562.75</ele><time>2026-03-30T07:53:15.688Z</time></trkpt><trkpt lat="43.0273117" lon="2.44546"><ele>563.0</ele><time>2026-03-30T07:53:16.685Z</time></trkpt><trkpt lat="43.0272733" lon="2.4456417"><ele>563.0</ele><time>2026-03-30T07:53:17.687Z</time></trkpt><trkpt lat="43.027245" lon="2.4458183"><ele>563.0</ele><time>2026-03-30T07:53:18.686Z</time></trkpt><trkpt lat="43.02723" lon="2.4459867"><ele>563.0</ele><time>2026-03-30T07:53:19.686Z</time></trkpt><trkpt lat="43.0272333" lon="2.4461517"><ele>563.0</ele><time>2026-03-30T07:53:20.685Z</time></trkpt><trkpt lat="43.0272633" lon="2.4463117"><ele>563.0</ele><time>2026-03-30T07:53:21.687Z</time></trkpt><trkpt lat="43.0273133" lon="2.4464667"><ele>563.0</ele><time>2026-03-30T07:53:22.686Z</time></trkpt><trkpt lat="43.0273717" lon="2.4466017"><ele>563.0</ele><time>2026-03-30T07:53:23.685Z</time></trkpt><trkpt lat="43.02742" lon="2.4467217"><ele>563.0</ele><time>2026-03-30T07:53:24.685Z</time></trkpt><trkpt lat="43.0274267" lon="2.4468483"><ele>563.0</ele><time>2026-03-30T07:53:25.685Z</time></trkpt><trkpt lat="43.027395" lon="2.4469683"><ele>563.0</ele><time>2026-03-30T07:53:26.686Z</time></trkpt><trkpt lat="43.027325" lon="2.4470717"><ele>563.0</ele><time>2026-03-30T07:53:27.685Z</time></trkpt><trkpt lat="43.0272467" lon="2.44717"><ele>563.0</ele><time>2026-03-30T07:53:28.685Z</time></trkpt><trkpt lat="43.0271667" lon="2.4472817"><ele>563.0</ele><time>2026-03-30T07:53:29.685Z</time></trkpt><trkpt lat="43.027095" lon="2.4474183"><ele>563.0</ele><time>2026-03-30T07:53:30.685Z</time></trkpt><trkpt lat="43.0270317" lon="2.447585"><ele>564.0</ele><time>2026-03-30T07:53:31.687Z</time></trkpt><trkpt lat="43.0269783" lon="2.4477633"><ele>565.0</ele><time>2026-03-30T07:53:32.686Z</time></trkpt><trkpt lat="43.0269317" lon="2.4479433"><ele>566.0</ele><time>2026-03-30T07:53:33.685Z</time></trkpt><trkpt lat="43.0268883" lon="2.4481233"><ele>567.0</ele><time>2026-03-30T07:53:34.685Z</time></trkpt><trkpt lat="43.02685" lon="2.4483033"><ele>569.25</ele><time>2026-03-30T07:53:35.687Z</time></trkpt><trkpt lat="43.0268133" lon="2.4484933"><ele>571.5</ele><time>2026-03-30T07:53:36.687Z</time></trkpt><trkpt lat="43.02678" lon="2.4486883"><ele>573.75</ele><time>2026-03-30T07:53:37.687Z</time></trkpt><trkpt lat="43.026755" lon="2.4488867"><ele>576.0</ele><time>2026-03-30T07:53:38.686Z</time></trkpt><trkpt lat="43.0267317" lon="2.4490833"><ele>577.5</ele><time>2026-03-30T07:53:39.687Z</time></trkpt><trkpt lat="43.02671" lon="2.449285"><ele>579.0</ele><time>2026-03-30T07:53:40.686Z</time></trkpt><trkpt lat="43.0266883" lon="2.4494867"><ele>580.5</ele><time>2026-03-30T07:53:41.687Z</time></trkpt><trkpt lat="43.0266633" lon="2.4496883"><ele>582.0</ele><time>2026-03-30T07:53:42.685Z</time></trkpt><trkpt lat="43.02661" lon="2.44988"><ele>582.3333333333334</ele><time>2026-03-30T07:53:43.686Z</time></trkpt><trkpt lat="43.026545" lon="2.4500633"><ele>582.6666666666667</ele><time>2026-03-30T07:53:44.686Z</time></trkpt><trkpt lat="43.0264767" lon="2.45025"><ele>583.0</ele><time>2026-03-30T07:53:45.686Z</time></trkpt><trkpt lat="43.0263983" lon="2.4504417"><ele>583.0</ele><time>2026-03-30T07:53:46.684Z</time></trkpt><trkpt lat="43.0263417" lon="2.4506333"><ele>583.0</ele><time>2026-03-30T07:53:47.688Z</time></trkpt><trkpt lat="43.0262817" lon="2.45083"><ele>583.0</ele><time>2026-03-30T07:53:48.687Z</time></trkpt><trkpt lat="43.026215" lon="2.4510267"><ele>583.0</ele><time>2026-03-30T07:53:49.687Z</time></trkpt><trkpt lat="43.02615" lon="2.45122"><ele>583.0</ele><time>2026-03-30T07:53:50.686Z</time></trkpt><trkpt lat="43.0260883" lon="2.451415"><ele>583.0</ele><time>2026-03-30T07:53:51.686Z</time></trkpt><trkpt lat="43.0260317" lon="2.4515967"><ele>584.75</ele><time>2026-03-30T07:53:52.692Z</time></trkpt><trkpt lat="43.0259733" lon="2.4517717"><ele>586.5</ele><time>2026-03-30T07:53:53.687Z</time></trkpt><trkpt lat="43.0259083" lon="2.4519667"><ele>588.25</ele><time>2026-03-30T07:53:54.69Z</time></trkpt><trkpt lat="43.0258467" lon="2.4521567"><ele>590.0</ele><time>2026-03-30T07:53:55.685Z</time></trkpt><trkpt lat="43.0257817" lon="2.4523433"><ele>591.5</ele><time>2026-03-30T07:53:56.686Z</time></trkpt><trkpt lat="43.02571" lon="2.45252"><ele>593.0</ele><time>2026-03-30T07:53:57.686Z</time></trkpt><trkpt lat="43.0256267" lon="2.45269"><ele>594.5</ele><time>2026-03-30T07:53:58.685Z</time></trkpt><trkpt lat="43.0255483" lon="2.4528617"><ele>596.0</ele><time>2026-03-30T07:53:59.684Z</time></trkpt><trkpt lat="43.0254667" lon="2.453025"><ele>596.25</ele><time>2026-03-30T07:54:00.685Z</time></trkpt><trkpt lat="43.0253883" lon="2.4531867"><ele>596.5</ele><time>2026-03-30T07:54:01.687Z</time></trkpt><trkpt lat="43.02532" lon="2.45334"><ele>596.75</ele><time>2026-03-30T07:54:02.686Z</time></trkpt><trkpt lat="43.0252533" lon="2.4534817"><ele>597.0</ele><time>2026-03-30T07:54:03.686Z</time></trkpt><trkpt lat="43.0251867" lon="2.4536117"><ele>597.0</ele><time>2026-03-30T07:54:04.687Z</time></trkpt><trkpt lat="43.0251233" lon="2.4537333"><ele>597.0</ele><time>2026-03-30T07:54:05.685Z</time></trkpt><trkpt lat="43.02507" lon="2.4538517"><ele>597.0</ele><time>2026-03-30T07:54:06.686Z</time></trkpt><trkpt lat="43.0250117" lon="2.4539617"><ele>597.0</ele><time>2026-03-30T07:54:07.685Z</time></trkpt><trkpt lat="43.02496" lon="2.45406"><ele>597.0</ele><time>2026-03-30T07:54:08.689Z</time></trkpt><trkpt lat="43.024915" lon="2.45414"><ele>599.6666666666666</ele><time>2026-03-30T07:54:09.685Z</time></trkpt><trkpt lat="43.024855" lon="2.4542283"><ele>602.3333333333334</ele><time>2026-03-30T07:54:11.686Z</time></trkpt><trkpt lat="43.0248317" lon="2.4543417"><ele>605.0</ele><time>2026-03-30T07:54:31.684Z</time></trkpt><trkpt lat="43.024765" lon="2.4544283"><ele>607.6666666666667</ele><time>2026-03-30T07:54:33.688Z</time></trkpt><trkpt lat="43.0247067" lon="2.4544833"><ele>610.3333333333334</ele><time>2026-03-30T07:54:34.686Z</time></trkpt><trkpt lat="43.0246417" lon="2.4545567"><ele>613.0</ele><time>2026-03-30T07:54:35.685Z</time></trkpt><trkpt lat="43.0245667" lon="2.45462"><ele>611.8</ele><time>2026-03-30T07:54:36.687Z</time></trkpt><trkpt lat="43.0244767" lon="2.4546833"><ele>610.5999999999999</ele><time>2026-03-30T07:54:37.685Z</time></trkpt><trkpt lat="43.0243867" lon="2.4547583"><ele>609.4000000000001</ele><time>2026-03-30T07:54:38.688Z</time></trkpt><trkpt lat="43.024295" lon="2.4548467"><ele>608.2</ele><time>2026-03-30T07:54:39.689Z</time></trkpt><trkpt lat="43.0242033" lon="2.4549433"><ele>607.0</ele><time>2026-03-30T07:54:40.685Z</time></trkpt><trkpt lat="43.0241333" lon="2.4550817"><ele>608.5</ele><time>2026-03-30T07:54:41.686Z</time></trkpt><trkpt lat="43.0240833" lon="2.4552417"><ele>610.0</ele><time>2026-03-30T07:54:42.687Z</time></trkpt><trkpt lat="43.0240483" lon="2.4554083"><ele>611.5</ele><time>2026-03-30T07:54:43.684Z</time></trkpt><trkpt lat="43.0240217" lon="2.4555817"><ele>613.0</ele><time>2026-03-30T07:54:44.685Z</time></trkpt><trkpt lat="43.0240067" lon="2.455755"><ele>613.0</ele><time>2026-03-30T07:54:45.686Z</time></trkpt><trkpt lat="43.0240067" lon="2.45593"><ele>613.0</ele><time>2026-03-30T07:54:46.688Z</time></trkpt><trkpt lat="43.0240183" lon="2.456105"><ele>613.0</ele><time>2026-03-30T07:54:47.687Z</time></trkpt><trkpt lat="43.02406" lon="2.4562733"><ele>613.0</ele><time>2026-03-30T07:54:48.688Z</time></trkpt><trkpt lat="43.0240883" lon="2.45645"><ele>610.75</ele><time>2026-03-30T07:54:49.686Z</time></trkpt><trkpt lat="43.0240867" lon="2.45663"><ele>608.5</ele><time>2026-03-30T07:54:50.686Z</time></trkpt><trkpt lat="43.0240733" lon="2.4568"><ele>606.25</ele><time>2026-03-30T07:54:51.684Z</time></trkpt><trkpt lat="43.0240567" lon="2.4569583"><ele>604.0</ele><time>2026-03-30T07:54:52.686Z</time></trkpt><trkpt lat="43.02404" lon="2.4571133"><ele>600.8</ele><time>2026-03-30T07:54:53.687Z</time></trkpt><trkpt lat="43.0240183" lon="2.45725"><ele>597.5999999999999</ele><time>2026-03-30T07:54:54.685Z</time></trkpt><trkpt lat="43.023975" lon="2.45736"><ele>594.4</ele><time>2026-03-30T07:54:55.686Z</time></trkpt><trkpt lat="43.0239033" lon="2.4574433"><ele>591.1999999999999</ele><time>2026-03-30T07:54:56.685Z</time></trkpt><trkpt lat="43.0238083" lon="2.457485"><ele>588.0</ele><time>2026-03-30T07:54:57.686Z</time></trkpt><trkpt lat="43.0237033" lon="2.4575"><ele>588.0</ele><time>2026-03-30T07:54:58.687Z</time></trkpt><trkpt lat="43.0235933" lon="2.457525"><ele>588.0</ele><time>2026-03-30T07:54:59.685Z</time></trkpt><trkpt lat="43.0234967" lon="2.457595"><ele>588.0</ele><time>2026-03-30T07:55:00.686Z</time></trkpt><trkpt lat="43.0234067" lon="2.45768"><ele>588.0</ele><time>2026-03-30T07:55:01.688Z</time></trkpt><trkpt lat="43.02332" lon="2.4577833"><ele>588.0</ele><time>2026-03-30T07:55:02.686Z</time></trkpt><trkpt lat="43.02324" lon="2.4579433"><ele>593.0</ele><time>2026-03-30T07:55:03.686Z</time></trkpt><trkpt lat="43.023155" lon="2.45812"><ele>598.0</ele><time>2026-03-30T07:55:04.687Z</time></trkpt><trkpt lat="43.0230583" lon="2.4582883"><ele>603.0</ele><time>2026-03-30T07:55:05.686Z</time></trkpt><trkpt lat="43.0229583" lon="2.45846"><ele>603.0</ele><time>2026-03-30T07:55:06.687Z</time></trkpt><trkpt lat="43.0228717" lon="2.4586333"><ele>603.0</ele><time>2026-03-30T07:55:07.686Z</time></trkpt><trkpt lat="43.0228" lon="2.458805"><ele>603.0</ele><time>2026-03-30T07:55:08.689Z</time></trkpt><trkpt lat="43.02274" lon="2.458975"><ele>603.0</ele><time>2026-03-30T07:55:09.685Z</time></trkpt><trkpt lat="43.022685" lon="2.45914"><ele>605.5</ele><time>2026-03-30T07:55:10.684Z</time></trkpt><trkpt lat="43.0226233" lon="2.4592867"><ele>608.0</ele><time>2026-03-30T07:55:11.687Z</time></trkpt><trkpt lat="43.0225417" lon="2.4594033"><ele>610.5</ele><time>2026-03-30T07:55:12.685Z</time></trkpt><trkpt lat="43.0224483" lon="2.4595017"><ele>613.0</ele><time>2026-03-30T07:55:13.686Z</time></trkpt><trkpt lat="43.022355" lon="2.4595983"><ele>610.4</ele><time>2026-03-30T07:55:14.686Z</time></trkpt><trkpt lat="43.02227" lon="2.4597033"><ele>607.8</ele><time>2026-03-30T07:55:15.686Z</time></trkpt><trkpt lat="43.0222067" lon="2.4598217"><ele>605.2</ele><time>2026-03-30T07:55:16.686Z</time></trkpt><trkpt lat="43.0221817" lon="2.459955"><ele>602.6</ele><time>2026-03-30T07:55:17.69Z</time></trkpt><trkpt lat="43.0222017" lon="2.4601083"><ele>600.0</ele><time>2026-03-30T07:55:18.687Z</time></trkpt><trkpt lat="43.0222433" lon="2.4602633"><ele>600.0</ele><time>2026-03-30T07:55:19.688Z</time></trkpt><trkpt lat="43.0222983" lon="2.4604083"><ele>600.0</ele><time>2026-03-30T07:55:20.688Z</time></trkpt><trkpt lat="43.02236" lon="2.46055"><ele>600.0</ele><time>2026-03-30T07:55:21.687Z</time></trkpt><trkpt lat="43.022405" lon="2.4607033"><ele>600.0</ele><time>2026-03-30T07:55:22.684Z</time></trkpt><trkpt lat="43.0224383" lon="2.4608767"><ele>602.0</ele><time>2026-03-30T07:55:23.687Z</time></trkpt><trkpt lat="43.0224567" lon="2.4610617"><ele>604.0</ele><time>2026-03-30T07:55:24.687Z</time></trkpt><trkpt lat="43.0224617" lon="2.4612617"><ele>606.0</ele><time>2026-03-30T07:55:25.685Z</time></trkpt><trkpt lat="43.0224617" lon="2.461465"><ele>608.0</ele><time>2026-03-30T07:55:26.687Z</time></trkpt><trkpt lat="43.0224517" lon="2.4616733"><ele>608.0</ele><time>2026-03-30T07:55:27.688Z</time></trkpt><trkpt lat="43.02244" lon="2.46188"><ele>608.0</ele><time>2026-03-30T07:55:28.685Z</time></trkpt><trkpt lat="43.0224317" lon="2.4620833"><ele>608.0</ele><time>2026-03-30T07:55:29.685Z</time></trkpt><trkpt lat="43.022425" lon="2.462285"><ele>608.0</ele><time>2026-03-30T07:55:30.687Z</time></trkpt><trkpt lat="43.0224117" lon="2.46249"><ele>606.5</ele><time>2026-03-30T07:55:31.684Z</time></trkpt><trkpt lat="43.0223967" lon="2.462685"><ele>605.0</ele><time>2026-03-30T07:55:32.685Z</time></trkpt><trkpt lat="43.0223767" lon="2.462875"><ele>603.5</ele><time>2026-03-30T07:55:33.691Z</time></trkpt><trkpt lat="43.0223483" lon="2.4630617"><ele>602.0</ele><time>2026-03-30T07:55:34.685Z</time></trkpt><trkpt lat="43.0223117" lon="2.4632517"><ele>600.0</ele><time>2026-03-30T07:55:35.687Z</time></trkpt><trkpt lat="43.022275" lon="2.4634367"><ele>598.0</ele><time>2026-03-30T07:55:36.685Z</time></trkpt><trkpt lat="43.0222567" lon="2.4636317"><ele>596.0</ele><time>2026-03-30T07:55:37.686Z</time></trkpt><trkpt lat="43.0222617" lon="2.463835"><ele>594.0</ele><time>2026-03-30T07:55:38.686Z</time></trkpt><trkpt lat="43.0222817" lon="2.464045"><ele>594.0</ele><time>2026-03-30T07:55:39.684Z</time></trkpt><trkpt lat="43.0223117" lon="2.4642517"><ele>594.0</ele><time>2026-03-30T07:55:40.686Z</time></trkpt><trkpt lat="43.0223483" lon="2.4644517"><ele>594.0</ele><time>2026-03-30T07:55:41.686Z</time></trkpt><trkpt lat="43.02241" lon="2.4646433"><ele>594.0</ele><time>2026-03-30T07:55:42.685Z</time></trkpt><trkpt lat="43.0224783" lon="2.4648283"><ele>594.0</ele><time>2026-03-30T07:55:43.684Z</time></trkpt><trkpt lat="43.0225367" lon="2.4650183"><ele>594.0</ele><time>2026-03-30T07:55:44.684Z</time></trkpt><trkpt lat="43.02258" lon="2.46521"><ele>594.0</ele><time>2026-03-30T07:55:45.685Z</time></trkpt><trkpt lat="43.0226167" lon="2.465405"><ele>575.0</ele><time>2026-03-30T07:55:46.685Z</time></trkpt><trkpt lat="43.02264" lon="2.465605"><ele>556.0</ele><time>2026-03-30T07:55:47.685Z</time></trkpt><trkpt lat="43.0226533" lon="2.4658117"><ele>537.0</ele><time>2026-03-30T07:55:48.686Z</time></trkpt><trkpt lat="43.0226517" lon="2.46602"><ele>537.0</ele><time>2026-03-30T07:55:49.684Z</time></trkpt><trkpt lat="43.0226567" lon="2.46623"><ele>537.0</ele><time>2026-03-30T07:55:50.687Z</time></trkpt><trkpt lat="43.0226517" lon="2.4664317"><ele>537.0</ele><time>2026-03-30T07:55:51.686Z</time></trkpt><trkpt lat="43.02264" lon="2.466635"><ele>534.0</ele><time>2026-03-30T07:55:52.687Z</time></trkpt><trkpt lat="43.0226133" lon="2.466835"><ele>531.0</ele><time>2026-03-30T07:55:53.685Z</time></trkpt><trkpt lat="43.0225767" lon="2.4670383"><ele>528.0</ele><time>2026-03-30T07:55:54.685Z</time></trkpt><trkpt lat="43.022535" lon="2.46724"><ele>526.0</ele><time>2026-03-30T07:55:55.686Z</time></trkpt><trkpt lat="43.02249" lon="2.4674383"><ele>524.0</ele><time>2026-03-30T07:55:56.686Z</time></trkpt><trkpt lat="43.0224433" lon="2.46763"><ele>522.0</ele><time>2026-03-30T07:55:57.685Z</time></trkpt><trkpt lat="43.022395" lon="2.4678183"><ele>520.0</ele><time>2026-03-30T07:55:58.685Z</time></trkpt><trkpt lat="43.0223517" lon="2.4680117"><ele>532.3333333333334</ele><time>2026-03-30T07:55:59.687Z</time></trkpt><trkpt lat="43.0223033" lon="2.468205"><ele>544.6666666666666</ele><time>2026-03-30T07:56:00.687Z</time></trkpt><trkpt lat="43.0222617" lon="2.4684067"><ele>557.0</ele><time>2026-03-30T07:56:01.684Z</time></trkpt><trkpt lat="43.0222217" lon="2.46861"><ele>552.3333333333333</ele><time>2026-03-30T07:56:02.685Z</time></trkpt><trkpt lat="43.0221867" lon="2.468815"><ele>547.6666666666666</ele><time>2026-03-30T07:56:03.685Z</time></trkpt><trkpt lat="43.02216" lon="2.4690217"><ele>543.0</ele><time>2026-03-30T07:56:04.686Z</time></trkpt><trkpt lat="43.0221267" lon="2.4692167"><ele>543.0</ele><time>2026-03-30T07:56:05.686Z</time></trkpt><trkpt lat="43.0220917" lon="2.4694033"><ele>543.0</ele><time>2026-03-30T07:56:06.686Z</time></trkpt><trkpt lat="43.022055" lon="2.469595"><ele>543.0</ele><time>2026-03-30T07:56:07.685Z</time></trkpt><trkpt lat="43.0220133" lon="2.4697867"><ele>543.0</ele><time>2026-03-30T07:56:08.685Z</time></trkpt><trkpt lat="43.0219583" lon="2.4699717"><ele>538.25</ele><time>2026-03-30T07:56:09.684Z</time></trkpt><trkpt lat="43.0219033" lon="2.4701567"><ele>533.5</ele><time>2026-03-30T07:56:10.687Z</time></trkpt><trkpt lat="43.0218433" lon="2.470335"><ele>528.75</ele><time>2026-03-30T07:56:11.684Z</time></trkpt><trkpt lat="43.0217783" lon="2.4705117"><ele>524.0</ele><time>2026-03-30T07:56:12.684Z</time></trkpt><trkpt lat="43.02171" lon="2.4706833"><ele>521.0</ele><time>2026-03-30T07:56:13.685Z</time></trkpt><trkpt lat="43.0216433" lon="2.470855"><ele>518.0</ele><time>2026-03-30T07:56:14.687Z</time></trkpt><trkpt lat="43.0215783" lon="2.4710317"><ele>515.0</ele><time>2026-03-30T07:56:15.686Z</time></trkpt><trkpt lat="43.0215067" lon="2.4712117"><ele>512.0</ele><time>2026-03-30T07:56:16.685Z</time></trkpt><trkpt lat="43.021435" lon="2.4713933"><ele>512.0</ele><time>2026-03-30T07:56:17.686Z</time></trkpt><trkpt lat="43.0213717" lon="2.4715733"><ele>512.0</ele><time>2026-03-30T07:56:18.685Z</time></trkpt><trkpt lat="43.0213117" lon="2.4717467"><ele>512.0</ele><time>2026-03-30T07:56:19.685Z</time></trkpt><trkpt lat="43.021265" lon="2.4719167"><ele>512.0</ele><time>2026-03-30T07:56:20.685Z</time></trkpt><trkpt lat="43.021215" lon="2.4720733"><ele>507.40000000000003</ele><time>2026-03-30T07:56:21.687Z</time></trkpt><trkpt lat="43.021165" lon="2.472215"><ele>502.80000000000007</ele><time>2026-03-30T07:56:22.686Z</time></trkpt><trkpt lat="43.0211083" lon="2.47233"><ele>498.2</ele><time>2026-03-30T07:56:23.686Z</time></trkpt><trkpt lat="43.0210433" lon="2.47241"><ele>493.6</ele><time>2026-03-30T07:56:24.684Z</time></trkpt><trkpt lat="43.02096" lon="2.4724233"><ele>489.0</ele><time>2026-03-30T07:56:25.685Z</time></trkpt><trkpt lat="43.02087" lon="2.4723917"><ele>492.4</ele><time>2026-03-30T07:56:26.685Z</time></trkpt><trkpt lat="43.0207733" lon="2.4723433"><ele>495.79999999999995</ele><time>2026-03-30T07:56:27.686Z</time></trkpt><trkpt lat="43.0206683" lon="2.4723233"><ele>499.20000000000005</ele><time>2026-03-30T07:56:28.685Z</time></trkpt><trkpt lat="43.0205617" lon="2.4723517"><ele>502.6</ele><time>2026-03-30T07:56:29.685Z</time></trkpt><trkpt lat="43.0204517" lon="2.4724233"><ele>506.0</ele><time>2026-03-30T07:56:30.684Z</time></trkpt><trkpt lat="43.0203467" lon="2.4725183"><ele>506.0</ele><time>2026-03-30T07:56:31.686Z</time></trkpt><trkpt lat="43.0202483" lon="2.47264"><ele>506.0</ele><time>2026-03-30T07:56:32.687Z</time></trkpt><trkpt lat="43.0201533" lon="2.4727583"><ele>506.0</ele><time>2026-03-30T07:56:33.686Z</time></trkpt><trkpt lat="43.0200633" lon="2.47289"><ele>506.0</ele><time>2026-03-30T07:56:34.687Z</time></trkpt><trkpt lat="43.0199817" lon="2.473"><ele>508.25</ele><time>2026-03-30T07:56:35.685Z</time></trkpt><trkpt lat="43.0198983" lon="2.4730933"><ele>510.5</ele><time>2026-03-30T07:56:36.684Z</time></trkpt><trkpt lat="43.01982" lon="2.4732233"><ele>512.75</ele><time>2026-03-30T07:56:37.685Z</time></trkpt><trkpt lat="43.019765" lon="2.473405"><ele>515.0</ele><time>2026-03-30T07:56:38.684Z</time></trkpt><trkpt lat="43.019715" lon="2.4735883"><ele>515.0</ele><time>2026-03-30T07:56:39.685Z</time></trkpt><trkpt lat="43.0196567" lon="2.4737517"><ele>515.0</ele><time>2026-03-30T07:56:40.685Z</time></trkpt><trkpt lat="43.0195967" lon="2.47391"><ele>515.0</ele><time>2026-03-30T07:56:41.687Z</time></trkpt><trkpt lat="43.0195433" lon="2.4740717"><ele>515.0</ele><time>2026-03-30T07:56:42.684Z</time></trkpt><trkpt lat="43.0195083" lon="2.4742367"><ele>511.0</ele><time>2026-03-30T07:56:43.686Z</time></trkpt><trkpt lat="43.019495" lon="2.474405"><ele>507.0</ele><time>2026-03-30T07:56:44.685Z</time></trkpt><trkpt lat="43.0194933" lon="2.4745667"><ele>503.0</ele><time>2026-03-30T07:56:45.685Z</time></trkpt><trkpt lat="43.0194933" lon="2.4747217"><ele>499.0</ele><time>2026-03-30T07:56:46.687Z</time></trkpt><trkpt lat="43.0194683" lon="2.4748767"><ele>495.0</ele><time>2026-03-30T07:56:47.686Z</time></trkpt><trkpt lat="43.0194167" lon="2.4750267"><ele>491.0</ele><time>2026-03-30T07:56:48.685Z</time></trkpt><trkpt lat="43.019345" lon="2.475175"><ele>487.0</ele><time>2026-03-30T07:56:49.686Z</time></trkpt><trkpt lat="43.0192617" lon="2.4753317"><ele>483.0</ele><time>2026-03-30T07:56:50.685Z</time></trkpt><trkpt lat="43.0191733" lon="2.4754883"><ele>481.75</ele><time>2026-03-30T07:56:51.685Z</time></trkpt><trkpt lat="43.0190967" lon="2.4756433"><ele>480.5</ele><time>2026-03-30T07:56:52.685Z</time></trkpt><trkpt lat="43.019025" lon="2.4757983"><ele>479.25</ele><time>2026-03-30T07:56:53.685Z</time></trkpt><trkpt lat="43.01895" lon="2.475945"><ele>478.0</ele><time>2026-03-30T07:56:54.686Z</time></trkpt><trkpt lat="43.018875" lon="2.4760917"><ele>478.0</ele><time>2026-03-30T07:56:55.686Z</time></trkpt><trkpt lat="43.0188" lon="2.4762433"><ele>478.0</ele><time>2026-03-30T07:56:56.685Z</time></trkpt><trkpt lat="43.0187133" lon="2.4763883"><ele>478.0</ele><time>2026-03-30T07:56:57.687Z</time></trkpt><trkpt lat="43.0186183" lon="2.476535"><ele>478.0</ele><time>2026-03-30T07:56:58.685Z</time></trkpt><trkpt lat="43.0185233" lon="2.476675"><ele>475.0</ele><time>2026-03-30T07:56:59.684Z</time></trkpt><trkpt lat="43.018425" lon="2.476805"><ele>472.0</ele><time>2026-03-30T07:57:00.685Z</time></trkpt><trkpt lat="43.0183267" lon="2.4769317"><ele>469.0</ele><time>2026-03-30T07:57:01.686Z</time></trkpt><trkpt lat="43.0182267" lon="2.4770483"><ele>466.0</ele><time>2026-03-30T07:57:02.686Z</time></trkpt><trkpt lat="43.018135" lon="2.4771617"><ele>460.4</ele><time>2026-03-30T07:57:03.685Z</time></trkpt><trkpt lat="43.018045" lon="2.4772583"><ele>454.8</ele><time>2026-03-30T07:57:04.687Z</time></trkpt><trkpt lat="43.0179517" lon="2.4773333"><ele>449.19999999999993</ele><time>2026-03-30T07:57:05.684Z</time></trkpt><trkpt lat="43.017865" lon="2.4774183"><ele>443.59999999999997</ele><time>2026-03-30T07:57:06.685Z</time></trkpt><trkpt lat="43.01779" lon="2.477505"><ele>438.0</ele><time>2026-03-30T07:57:07.686Z</time></trkpt><trkpt lat="43.017735" lon="2.477615"><ele>438.0</ele><time>2026-03-30T07:57:08.688Z</time></trkpt><trkpt lat="43.017705" lon="2.4777317"><ele>438.0</ele><time>2026-03-30T07:57:09.686Z</time></trkpt><trkpt lat="43.0176967" lon="2.477845"><ele>438.0</ele><time>2026-03-30T07:57:10.685Z</time></trkpt><trkpt lat="43.01772" lon="2.4779567"><ele>438.0</ele><time>2026-03-30T07:57:11.685Z</time></trkpt><trkpt lat="43.0178017" lon="2.4779883"><ele>438.0</ele><time>2026-03-30T07:57:12.685Z</time></trkpt><trkpt lat="43.0178983" lon="2.4779517"><ele>438.0</ele><time>2026-03-30T07:57:13.685Z</time></trkpt><trkpt lat="43.0179867" lon="2.477895"><ele>438.0</ele><time>2026-03-30T07:57:14.685Z</time></trkpt><trkpt lat="43.0180783" lon="2.477795"><ele>438.0</ele><time>2026-03-30T07:57:15.685Z</time></trkpt><trkpt lat="43.0181717" lon="2.4776967"><ele>438.0</ele><time>2026-03-30T07:57:16.686Z</time></trkpt><trkpt lat="43.0182683" lon="2.4775833"><ele>438.0</ele><time>2026-03-30T07:57:17.686Z</time></trkpt><trkpt lat="43.0183683" lon="2.4774717"><ele>441.5</ele><time>2026-03-30T07:57:18.686Z</time></trkpt><trkpt lat="43.0184733" lon="2.4773583"><ele>445.0</ele><time>2026-03-30T07:57:19.685Z</time></trkpt><trkpt lat="43.0185883" lon="2.4772417"><ele>448.5</ele><time>2026-03-30T07:57:20.685Z</time></trkpt><trkpt lat="43.018705" lon="2.4771267"><ele>452.0</ele><time>2026-03-30T07:57:21.684Z</time></trkpt><trkpt lat="43.018805" lon="2.4770167"><ele>450.0</ele><time>2026-03-30T07:57:22.686Z</time></trkpt><trkpt lat="43.0189017" lon="2.4768983"><ele>448.0</ele><time>2026-03-30T07:57:23.684Z</time></trkpt><trkpt lat="43.018995" lon="2.4767833"><ele>446.0</ele><time>2026-03-30T07:57:24.687Z</time></trkpt><trkpt lat="43.019085" lon="2.4766667"><ele>444.0</ele><time>2026-03-30T07:57:25.686Z</time></trkpt><trkpt lat="43.0191717" lon="2.47655"><ele>444.0</ele><time>2026-03-30T07:57:26.686Z</time></trkpt><trkpt lat="43.0192533" lon="2.4764333"><ele>444.0</ele><time>2026-03-30T07:57:27.685Z</time></trkpt><trkpt lat="43.0193267" lon="2.4763167"><ele>444.0</ele><time>2026-03-30T07:57:28.687Z</time></trkpt><trkpt lat="43.019385" lon="2.4762033"><ele>444.0</ele><time>2026-03-30T07:57:29.687Z</time></trkpt><trkpt lat="43.0194317" lon="2.476095"><ele>444.0</ele><time>2026-03-30T07:57:30.685Z</time></trkpt><trkpt lat="43.0194733" lon="2.476"><ele>444.0</ele><time>2026-03-30T07:57:31.685Z</time></trkpt><trkpt lat="43.01953" lon="2.47595"><ele>444.0</ele><time>2026-03-30T07:57:32.686Z</time></trkpt><trkpt lat="43.0196233" lon="2.4760383"><ele>444.0</ele><time>2026-03-30T07:57:34.685Z</time></trkpt><trkpt lat="43.0196017" lon="2.476135"><ele>444.0</ele><time>2026-03-30T07:57:35.687Z</time></trkpt><trkpt lat="43.019545" lon="2.476235"><ele>444.0</ele><time>2026-03-30T07:57:36.685Z</time></trkpt><trkpt lat="43.0194783" lon="2.4763583"><ele>444.0</ele><time>2026-03-30T07:57:37.689Z</time></trkpt><trkpt lat="43.01941" lon="2.4764933"><ele>444.0</ele><time>2026-03-30T07:57:38.688Z</time></trkpt><trkpt lat="43.0193417" lon="2.4766267"><ele>444.0</ele><time>2026-03-30T07:57:39.686Z</time></trkpt><trkpt lat="43.0192683" lon="2.4767667"><ele>444.0</ele><time>2026-03-30T07:57:40.686Z</time></trkpt><trkpt lat="43.0191917" lon="2.4769183"><ele>446.0</ele><time>2026-03-30T07:57:41.685Z</time></trkpt><trkpt lat="43.019115" lon="2.4770783"><ele>448.0</ele><time>2026-03-30T07:57:42.686Z</time></trkpt><trkpt lat="43.019045" lon="2.4772383"><ele>450.0</ele><time>2026-03-30T07:57:43.686Z</time></trkpt><trkpt lat="43.0189917" lon="2.4774083"><ele>452.0</ele><time>2026-03-30T07:57:44.685Z</time></trkpt><trkpt lat="43.0189517" lon="2.4775783"><ele>452.0</ele><time>2026-03-30T07:57:45.687Z</time></trkpt><trkpt lat="43.01891" lon="2.4777467"><ele>452.0</ele><time>2026-03-30T07:57:46.687Z</time></trkpt><trkpt lat="43.01886" lon="2.4779117"><ele>452.0</ele><time>2026-03-30T07:57:47.686Z</time></trkpt><trkpt lat="43.0187983" lon="2.4780767"><ele>452.0</ele><time>2026-03-30T07:57:48.686Z</time></trkpt><trkpt lat="43.0187283" lon="2.478245"><ele>447.75</ele><time>2026-03-30T07:57:49.686Z</time></trkpt><trkpt lat="43.0186483" lon="2.478415"><ele>443.5</ele><time>2026-03-30T07:57:50.686Z</time></trkpt><trkpt lat="43.0185667" lon="2.4785883"><ele>439.25</ele><time>2026-03-30T07:57:51.691Z</time></trkpt><trkpt lat="43.0184867" lon="2.4787567"><ele>435.0</ele><time>2026-03-30T07:57:52.686Z</time></trkpt><trkpt lat="43.01841" lon="2.47892"><ele>430.25</ele><time>2026-03-30T07:57:53.689Z</time></trkpt><trkpt lat="43.0183367" lon="2.4790817"><ele>425.5</ele><time>2026-03-30T07:57:54.687Z</time></trkpt><trkpt lat="43.018265" lon="2.4792383"><ele>420.75</ele><time>2026-03-30T07:57:55.685Z</time></trkpt><trkpt lat="43.0181983" lon="2.4793883"><ele>416.0</ele><time>2026-03-30T07:57:56.69Z</time></trkpt><trkpt lat="43.01813" lon="2.4795317"><ele>414.5</ele><time>2026-03-30T07:57:57.688Z</time></trkpt><trkpt lat="43.018065" lon="2.47967"><ele>413.0</ele><time>2026-03-30T07:57:58.685Z</time></trkpt><trkpt lat="43.0180017" lon="2.4798067"><ele>411.5</ele><time>2026-03-30T07:57:59.686Z</time></trkpt><trkpt lat="43.01794" lon="2.4799467"><ele>410.0</ele><time>2026-03-30T07:58:00.687Z</time></trkpt><trkpt lat="43.0178833" lon="2.4800717"><ele>410.0</ele><time>2026-03-30T07:58:01.688Z</time></trkpt><trkpt lat="43.0178283" lon="2.4801917"><ele>410.0</ele><time>2026-03-30T07:58:02.687Z</time></trkpt><trkpt lat="43.0177717" lon="2.4803"><ele>410.0</ele><time>2026-03-30T07:58:03.685Z</time></trkpt><trkpt lat="43.0177083" lon="2.4803917"><ele>410.0</ele><time>2026-03-30T07:58:04.688Z</time></trkpt><trkpt lat="43.0176367" lon="2.4804633"><ele>410.0</ele><time>2026-03-30T07:58:05.685Z</time></trkpt><trkpt lat="43.017555" lon="2.48051"><ele>409.4</ele><time>2026-03-30T07:58:06.689Z</time></trkpt><trkpt lat="43.0174633" lon="2.4805467"><ele>408.8</ele><time>2026-03-30T07:58:07.686Z</time></trkpt><trkpt lat="43.01737" lon="2.4805917"><ele>408.20000000000005</ele><time>2026-03-30T07:58:08.686Z</time></trkpt><trkpt lat="43.0172817" lon="2.480635"><ele>407.6</ele><time>2026-03-30T07:58:09.686Z</time></trkpt><trkpt lat="43.017195" lon="2.4806667"><ele>407.0</ele><time>2026-03-30T07:58:10.685Z</time></trkpt><trkpt lat="43.01711" lon="2.4806833"><ele>406.99999999999994</ele><time>2026-03-30T07:58:11.687Z</time></trkpt><trkpt lat="43.0170367" lon="2.4807067"><ele>407.0</ele><time>2026-03-30T07:58:12.686Z</time></trkpt><trkpt lat="43.0169583" lon="2.48073"><ele>407.0</ele><time>2026-03-30T07:58:13.685Z</time></trkpt><trkpt lat="43.0168867" lon="2.48077"><ele>407.0</ele><time>2026-03-30T07:58:14.686Z</time></trkpt><trkpt lat="43.0168317" lon="2.48082"><ele>406.99999999999994</ele><time>2026-03-30T07:58:15.685Z</time></trkpt><trkpt lat="43.016785" lon="2.4809167"><ele>407.0</ele><time>2026-03-30T07:58:16.689Z</time></trkpt><trkpt lat="43.0167133" lon="2.4810583"><ele>407.0</ele><time>2026-03-30T07:58:18.687Z</time></trkpt><trkpt lat="43.0166733" lon="2.481175"><ele>407.0</ele><time>2026-03-30T07:58:19.686Z</time></trkpt><trkpt lat="43.016635" lon="2.4813133"><ele>407.0</ele><time>2026-03-30T07:58:20.688Z</time></trkpt><trkpt lat="43.016595" lon="2.481485"><ele>407.0</ele><time>2026-03-30T07:58:21.686Z</time></trkpt><trkpt lat="43.0165533" lon="2.481645"><ele>407.5</ele><time>2026-03-30T07:58:22.685Z</time></trkpt><trkpt lat="43.0165117" lon="2.4817917"><ele>408.0</ele><time>2026-03-30T07:58:23.687Z</time></trkpt><trkpt lat="43.0164717" lon="2.4819483"><ele>408.5</ele><time>2026-03-30T07:58:24.688Z</time></trkpt><trkpt lat="43.0164367" lon="2.4820983"><ele>409.0</ele><time>2026-03-30T07:58:25.686Z</time></trkpt><trkpt lat="43.0164" lon="2.4822417"><ele>409.0</ele><time>2026-03-30T07:58:26.69Z</time></trkpt><trkpt lat="43.0163617" lon="2.482385"><ele>409.0</ele><time>2026-03-30T07:58:27.688Z</time></trkpt><trkpt lat="43.01632" lon="2.48253"><ele>409.0</ele><time>2026-03-30T07:58:28.685Z</time></trkpt><trkpt lat="43.0162883" lon="2.4826683"><ele>409.0</ele><time>2026-03-30T07:58:29.686Z</time></trkpt><trkpt lat="43.0162617" lon="2.48281"><ele>409.0</ele><time>2026-03-30T07:58:30.687Z</time></trkpt><trkpt lat="43.016225" lon="2.4829333"><ele>406.33333333333337</ele><time>2026-03-30T07:58:31.685Z</time></trkpt><trkpt lat="43.016165" lon="2.4830417"><ele>403.6666666666667</ele><time>2026-03-30T07:58:32.685Z</time></trkpt><trkpt lat="43.0161067" lon="2.4831267"><ele>401.0</ele><time>2026-03-30T07:58:33.688Z</time></trkpt><trkpt lat="43.016045" lon="2.4832083"><ele>398.33333333333337</ele><time>2026-03-30T07:58:34.685Z</time></trkpt><trkpt lat="43.0159917" lon="2.4832917"><ele>395.6666666666667</ele><time>2026-03-30T07:58:35.685Z</time></trkpt><trkpt lat="43.015945" lon="2.4833683"><ele>393.0</ele><time>2026-03-30T07:58:36.687Z</time></trkpt><trkpt lat="43.0159167" lon="2.48349"><ele>393.0</ele><time>2026-03-30T07:58:37.685Z</time></trkpt><trkpt lat="43.0158817" lon="2.4836033"><ele>393.0</ele><time>2026-03-30T07:58:38.685Z</time></trkpt><trkpt lat="43.015845" lon="2.4837067"><ele>393.0</ele><time>2026-03-30T07:58:39.685Z</time></trkpt><trkpt lat="43.015815" lon="2.4838133"><ele>393.0</ele><time>2026-03-30T07:58:40.686Z</time></trkpt><trkpt lat="43.0157833" lon="2.4839183"><ele>393.0</ele><time>2026-03-30T07:58:41.687Z</time></trkpt><trkpt lat="43.015745" lon="2.484015"><ele>393.0</ele><time>2026-03-30T07:58:42.686Z</time></trkpt><trkpt lat="43.0157083" lon="2.484115"><ele>389.6666666666667</ele><time>2026-03-30T07:58:43.685Z</time></trkpt><trkpt lat="43.015675" lon="2.4842067"><ele>386.3333333333333</ele><time>2026-03-30T07:58:44.686Z</time></trkpt><trkpt lat="43.0156433" lon="2.48429"><ele>383.0</ele><time>2026-03-30T07:58:45.686Z</time></trkpt><trkpt lat="43.0155433" lon="2.48439"><ele>379.66666666666663</ele><time>2026-03-30T07:58:47.686Z</time></trkpt><trkpt lat="43.0155033" lon="2.4844567"><ele>376.3333333333333</ele><time>2026-03-30T07:58:48.687Z</time></trkpt><trkpt lat="43.0154667" lon="2.48454"><ele>373.0</ele><time>2026-03-30T07:58:49.685Z</time></trkpt><trkpt lat="43.0154333" lon="2.4846467"><ele>373.0</ele><time>2026-03-30T07:58:50.689Z</time></trkpt><trkpt lat="43.0154" lon="2.484765"><ele>373.0</ele><time>2026-03-30T07:58:51.687Z</time></trkpt><trkpt lat="43.0153633" lon="2.4848883"><ele>373.0</ele><time>2026-03-30T07:58:52.687Z</time></trkpt><trkpt lat="43.015325" lon="2.4850083"><ele>373.0</ele><time>2026-03-30T07:58:53.687Z</time></trkpt><trkpt lat="43.01528" lon="2.48515"><ele>373.0</ele><time>2026-03-30T07:58:54.686Z</time></trkpt><trkpt lat="43.0151983" lon="2.485255"><ele>373.0</ele><time>2026-03-30T07:58:55.686Z</time></trkpt><trkpt lat="43.0151383" lon="2.4853667"><ele>373.0</ele><time>2026-03-30T07:58:56.686Z</time></trkpt><trkpt lat="43.0150717" lon="2.4854783"><ele>373.0</ele><time>2026-03-30T07:58:57.686Z</time></trkpt><trkpt lat="43.01499" lon="2.4855867"><ele>373.0</ele><time>2026-03-30T07:58:58.686Z</time></trkpt><trkpt lat="43.0149" lon="2.4856933"><ele>373.0</ele><time>2026-03-30T07:58:59.686Z</time></trkpt><trkpt lat="43.0148167" lon="2.48579"><ele>373.59999999999997</ele><time>2026-03-30T07:59:00.686Z</time></trkpt><trkpt lat="43.0147383" lon="2.4858817"><ele>374.2</ele><time>2026-03-30T07:59:01.692Z</time></trkpt><trkpt lat="43.014655" lon="2.4859783"><ele>374.8</ele><time>2026-03-30T07:59:02.685Z</time></trkpt><trkpt lat="43.0145717" lon="2.4860783"><ele>375.4</ele><time>2026-03-30T07:59:03.688Z</time></trkpt><trkpt lat="43.01448" lon="2.486175"><ele>376.0</ele><time>2026-03-30T07:59:04.686Z</time></trkpt><trkpt lat="43.0143883" lon="2.4862883"><ele>374.0</ele><time>2026-03-30T07:59:05.686Z</time></trkpt><trkpt lat="43.0142983" lon="2.486415"><ele>372.0</ele><time>2026-03-30T07:59:06.685Z</time></trkpt><trkpt lat="43.0142117" lon="2.48654"><ele>370.0</ele><time>2026-03-30T07:59:07.688Z</time></trkpt><trkpt lat="43.0141333" lon="2.486665"><ele>368.0</ele><time>2026-03-30T07:59:08.686Z</time></trkpt><trkpt lat="43.0140617" lon="2.4867917"><ele>366.25</ele><time>2026-03-30T07:59:09.686Z</time></trkpt><trkpt lat="43.0139983" lon="2.4869217"><ele>364.5</ele><time>2026-03-30T07:59:10.687Z</time></trkpt><trkpt lat="43.0139517" lon="2.48706"><ele>362.75</ele><time>2026-03-30T07:59:11.686Z</time></trkpt><trkpt lat="43.013915" lon="2.487205"><ele>361.0</ele><time>2026-03-30T07:59:12.686Z</time></trkpt><trkpt lat="43.0138833" lon="2.4873517"><ele>360.6</ele><time>2026-03-30T07:59:13.686Z</time></trkpt><trkpt lat="43.0138483" lon="2.4874917"><ele>360.20000000000005</ele><time>2026-03-30T07:59:14.686Z</time></trkpt><trkpt lat="43.01382" lon="2.4876333"><ele>359.79999999999995</ele><time>2026-03-30T07:59:15.686Z</time></trkpt><trkpt lat="43.0137833" lon="2.48776"><ele>359.4</ele><time>2026-03-30T07:59:16.69Z</time></trkpt><trkpt lat="43.0137267" lon="2.48786"><ele>359.0</ele><time>2026-03-30T07:59:17.686Z</time></trkpt><trkpt lat="43.0136567" lon="2.487935"><ele>359.0</ele><time>2026-03-30T07:59:18.687Z</time></trkpt><trkpt lat="43.0135683" lon="2.4879333"><ele>359.0</ele><time>2026-03-30T07:59:19.686Z</time></trkpt><trkpt lat="43.0134717" lon="2.4878967"><ele>359.0</ele><time>2026-03-30T07:59:20.689Z</time></trkpt><trkpt lat="43.0134" lon="2.4878017"><ele>359.0</ele><time>2026-03-30T07:59:21.688Z</time></trkpt><trkpt lat="43.0133517" lon="2.48767"><ele>359.0</ele><time>2026-03-30T07:59:22.686Z</time></trkpt><trkpt lat="43.013325" lon="2.4875217"><ele>351.75</ele><time>2026-03-30T07:59:23.687Z</time></trkpt><trkpt lat="43.0133183" lon="2.4873633"><ele>344.5</ele><time>2026-03-30T07:59:24.685Z</time></trkpt><trkpt lat="43.013315" lon="2.4872017"><ele>337.25</ele><time>2026-03-30T07:59:25.685Z</time></trkpt><trkpt lat="43.0133083" lon="2.487035"><ele>330.0</ele><time>2026-03-30T07:59:26.686Z</time></trkpt><trkpt lat="43.0132883" lon="2.486865"><ele>329.5</ele><time>2026-03-30T07:59:27.685Z</time></trkpt><trkpt lat="43.0132517" lon="2.486695"><ele>329.0</ele><time>2026-03-30T07:59:28.688Z</time></trkpt><trkpt lat="43.0132" lon="2.4865317"><ele>328.5</ele><time>2026-03-30T07:59:29.685Z</time></trkpt><trkpt lat="43.013145" lon="2.4863767"><ele>328.0</ele><time>2026-03-30T07:59:30.685Z</time></trkpt><trkpt lat="43.0130867" lon="2.48623"><ele>331.75</ele><time>2026-03-30T07:59:31.685Z</time></trkpt><trkpt lat="43.0130083" lon="2.486105"><ele>335.5</ele><time>2026-03-30T07:59:32.687Z</time></trkpt><trkpt lat="43.0129233" lon="2.4859933"><ele>339.25</ele><time>2026-03-30T07:59:33.686Z</time></trkpt><trkpt lat="43.0128317" lon="2.4859067"><ele>343.0</ele><time>2026-03-30T07:59:34.686Z</time></trkpt><trkpt lat="43.0127367" lon="2.485855"><ele>343.0</ele><time>2026-03-30T07:59:35.685Z</time></trkpt><trkpt lat="43.0126417" lon="2.4858083"><ele>343.0</ele><time>2026-03-30T07:59:36.685Z</time></trkpt><trkpt lat="43.0125733" lon="2.4857367"><ele>343.0</ele><time>2026-03-30T07:59:37.688Z</time></trkpt><trkpt lat="43.012525" lon="2.48564"><ele>343.0</ele><time>2026-03-30T07:59:38.686Z</time></trkpt><trkpt lat="43.0124933" lon="2.4855317"><ele>343.0</ele><time>2026-03-30T07:59:39.685Z</time></trkpt><trkpt lat="43.012485" lon="2.4854033"><ele>343.59999999999997</ele><time>2026-03-30T07:59:40.686Z</time></trkpt><trkpt lat="43.0124967" lon="2.4852633"><ele>344.2</ele><time>2026-03-30T07:59:41.685Z</time></trkpt><trkpt lat="43.0125033" lon="2.48512"><ele>344.8</ele><time>2026-03-30T07:59:42.685Z</time></trkpt><trkpt lat="43.012515" lon="2.4849783"><ele>345.4</ele><time>2026-03-30T07:59:43.686Z</time></trkpt><trkpt lat="43.01253" lon="2.4848267"><ele>346.0</ele><time>2026-03-30T07:59:44.687Z</time></trkpt><trkpt lat="43.012545" lon="2.4846717"><ele>344.4</ele><time>2026-03-30T07:59:45.686Z</time></trkpt><trkpt lat="43.0125583" lon="2.4845167"><ele>342.8</ele><time>2026-03-30T07:59:46.685Z</time></trkpt><trkpt lat="43.0125733" lon="2.4843717"><ele>341.2</ele><time>2026-03-30T07:59:47.686Z</time></trkpt><trkpt lat="43.0125833" lon="2.4842217"><ele>339.59999999999997</ele><time>2026-03-30T07:59:48.686Z</time></trkpt><trkpt lat="43.012595" lon="2.484075"><ele>338.0</ele><time>2026-03-30T07:59:49.685Z</time></trkpt><trkpt lat="43.0126333" lon="2.483925"><ele>338.0</ele><time>2026-03-30T07:59:50.687Z</time></trkpt><trkpt lat="43.0126817" lon="2.4837817"><ele>338.0</ele><time>2026-03-30T07:59:51.687Z</time></trkpt><trkpt lat="43.0127533" lon="2.48366"><ele>338.0</ele><time>2026-03-30T07:59:52.685Z</time></trkpt><trkpt lat="43.0128483" lon="2.4835767"><ele>338.0</ele><time>2026-03-30T07:59:53.686Z</time></trkpt><trkpt lat="43.0129567" lon="2.4835067"><ele>339.0</ele><time>2026-03-30T07:59:54.685Z</time></trkpt><trkpt lat="43.0130717" lon="2.48345"><ele>340.0</ele><time>2026-03-30T07:59:55.685Z</time></trkpt><trkpt lat="43.0131883" lon="2.48341"><ele>341.0</ele><time>2026-03-30T07:59:56.686Z</time></trkpt><trkpt lat="43.013305" lon="2.48341"><ele>342.0</ele><time>2026-03-30T07:59:57.685Z</time></trkpt><trkpt lat="43.0134133" lon="2.4834433"><ele>342.0</ele><time>2026-03-30T07:59:58.686Z</time></trkpt><trkpt lat="43.0135167" lon="2.48346"><ele>342.0</ele><time>2026-03-30T07:59:59.686Z</time></trkpt><trkpt lat="43.0136117" lon="2.4834317"><ele>342.0</ele><time>2026-03-30T08:00:00.686Z</time></trkpt><trkpt lat="43.01368" lon="2.4833517"><ele>342.0</ele><time>2026-03-30T08:00:01.685Z</time></trkpt><trkpt lat="43.0136933" lon="2.483225"><ele>342.0</ele><time>2026-03-30T08:00:02.686Z</time></trkpt><trkpt lat="43.0136567" lon="2.4831083"><ele>342.0</ele><time>2026-03-30T08:00:03.686Z</time></trkpt><trkpt lat="43.0135867" lon="2.4830033"><ele>342.0</ele><time>2026-03-30T08:00:04.689Z</time></trkpt><trkpt lat="43.0134983" lon="2.4829067"><ele>342.0</ele><time>2026-03-30T08:00:05.688Z</time></trkpt><trkpt lat="43.0134033" lon="2.4828117"><ele>342.0</ele><time>2026-03-30T08:00:06.686Z</time></trkpt><trkpt lat="43.013305" lon="2.4827183"><ele>337.25</ele><time>2026-03-30T08:00:07.687Z</time></trkpt><trkpt lat="43.0131917" lon="2.4826367"><ele>332.5</ele><time>2026-03-30T08:00:08.685Z</time></trkpt><trkpt lat="43.01308" lon="2.482575"><ele>327.75</ele><time>2026-03-30T08:00:09.686Z</time></trkpt><trkpt lat="43.0129667" lon="2.482525"><ele>323.0</ele><time>2026-03-30T08:00:10.686Z</time></trkpt><trkpt lat="43.0128517" lon="2.482475"><ele>323.0</ele><time>2026-03-30T08:00:11.685Z</time></trkpt><trkpt lat="43.01276" lon="2.4824033"><ele>323.0</ele><time>2026-03-30T08:00:12.685Z</time></trkpt><trkpt lat="43.01269" lon="2.4822967"><ele>323.0</ele><time>2026-03-30T08:00:13.685Z</time></trkpt><trkpt lat="43.0126467" lon="2.48218"><ele>323.0</ele><time>2026-03-30T08:00:14.686Z</time></trkpt><trkpt lat="43.0126317" lon="2.48205"><ele>323.0</ele><time>2026-03-30T08:00:15.686Z</time></trkpt><trkpt lat="43.012645" lon="2.481905"><ele>324.25</ele><time>2026-03-30T08:00:16.686Z</time></trkpt><trkpt lat="43.012675" lon="2.4817567"><ele>325.5</ele><time>2026-03-30T08:00:17.687Z</time></trkpt><trkpt lat="43.012715" lon="2.4816017"><ele>326.75</ele><time>2026-03-30T08:00:18.688Z</time></trkpt><trkpt lat="43.012755" lon="2.4814467"><ele>328.0</ele><time>2026-03-30T08:00:19.689Z</time></trkpt><trkpt lat="43.012785" lon="2.4813017"><ele>329.59999999999997</ele><time>2026-03-30T08:00:20.687Z</time></trkpt><trkpt lat="43.0128133" lon="2.48116"><ele>331.2</ele><time>2026-03-30T08:00:21.688Z</time></trkpt><trkpt lat="43.0128667" lon="2.4810233"><ele>332.8</ele><time>2026-03-30T08:00:22.687Z</time></trkpt><trkpt lat="43.012925" lon="2.4808983"><ele>334.4</ele><time>2026-03-30T08:00:23.686Z</time></trkpt><trkpt lat="43.012985" lon="2.4807933"><ele>336.0</ele><time>2026-03-30T08:00:24.686Z</time></trkpt><trkpt lat="43.0130433" lon="2.4806983"><ele>336.0</ele><time>2026-03-30T08:00:25.685Z</time></trkpt><trkpt lat="43.013095" lon="2.4806083"><ele>336.0</ele><time>2026-03-30T08:00:26.685Z</time></trkpt><trkpt lat="43.01313" lon="2.480515"><ele>336.0</ele><time>2026-03-30T08:00:27.686Z</time></trkpt><trkpt lat="43.0131283" lon="2.4803867"><ele>336.0</ele><time>2026-03-30T08:00:29.687Z</time></trkpt><trkpt lat="43.0130717" lon="2.4803367"><ele>336.0</ele><time>2026-03-30T08:00:30.686Z</time></trkpt><trkpt lat="43.012995" lon="2.4803183"><ele>336.0</ele><time>2026-03-30T08:00:31.686Z</time></trkpt><trkpt lat="43.0129217" lon="2.4803433"><ele>336.0</ele><time>2026-03-30T08:00:32.687Z</time></trkpt><trkpt lat="43.012855" lon="2.4804083"><ele>336.0</ele><time>2026-03-30T08:00:33.685Z</time></trkpt><trkpt lat="43.0127367" lon="2.4805283"><ele>336.0</ele><time>2026-03-30T08:00:34.687Z</time></trkpt><trkpt lat="43.0126533" lon="2.4806367"><ele>336.0</ele><time>2026-03-30T08:00:35.685Z</time></trkpt><trkpt lat="43.0125617" lon="2.480755"><ele>335.5</ele><time>2026-03-30T08:00:36.688Z</time></trkpt><trkpt lat="43.01247" lon="2.4808983"><ele>335.0</ele><time>2026-03-30T08:00:37.687Z</time></trkpt><trkpt lat="43.0123717" lon="2.4810667"><ele>334.5</ele><time>2026-03-30T08:00:38.686Z</time></trkpt><trkpt lat="43.0122817" lon="2.4812333"><ele>334.0</ele><time>2026-03-30T08:00:39.687Z</time></trkpt><trkpt lat="43.0122" lon="2.48142"><ele>331.3333333333333</ele><time>2026-03-30T08:00:40.686Z</time></trkpt><trkpt lat="43.01211" lon="2.48161"><ele>328.6666666666667</ele><time>2026-03-30T08:00:41.686Z</time></trkpt><trkpt lat="43.0120333" lon="2.4818367"><ele>326.0</ele><time>2026-03-30T08:00:42.686Z</time></trkpt><trkpt lat="43.01196" lon="2.482035"><ele>323.6666666666667</ele><time>2026-03-30T08:00:43.688Z</time></trkpt><trkpt lat="43.0118983" lon="2.4822483"><ele>321.3333333333333</ele><time>2026-03-30T08:00:44.685Z</time></trkpt><trkpt lat="43.0118433" lon="2.4824817"><ele>319.0</ele><time>2026-03-30T08:00:45.686Z</time></trkpt><trkpt lat="43.0117983" lon="2.4826867"><ele>319.0</ele><time>2026-03-30T08:00:46.686Z</time></trkpt><trkpt lat="43.0117467" lon="2.4828883"><ele>319.0</ele><time>2026-03-30T08:00:47.687Z</time></trkpt><trkpt lat="43.0116933" lon="2.4830983"><ele>319.0</ele><time>2026-03-30T08:00:48.686Z</time></trkpt><trkpt lat="43.0116433" lon="2.4833067"><ele>315.3333333333333</ele><time>2026-03-30T08:00:49.685Z</time></trkpt><trkpt lat="43.01159" lon="2.4835167"><ele>311.6666666666667</ele><time>2026-03-30T08:00:50.686Z</time></trkpt><trkpt lat="43.0115383" lon="2.4837183"><ele>308.0</ele><time>2026-03-30T08:00:51.686Z</time></trkpt><trkpt lat="43.0114917" lon="2.48391"><ele>307.0</ele><time>2026-03-30T08:00:52.687Z</time></trkpt><trkpt lat="43.011445" lon="2.4840967"><ele>306.0</ele><time>2026-03-30T08:00:53.687Z</time></trkpt><trkpt lat="43.0114" lon="2.48428"><ele>305.0</ele><time>2026-03-30T08:00:54.685Z</time></trkpt><trkpt lat="43.011355" lon="2.484455"><ele>304.0</ele><time>2026-03-30T08:00:55.685Z</time></trkpt><trkpt lat="43.01132" lon="2.4846233"><ele>303.25</ele><time>2026-03-30T08:00:56.685Z</time></trkpt><trkpt lat="43.011305" lon="2.4847883"><ele>302.5</ele><time>2026-03-30T08:00:57.687Z</time></trkpt><trkpt lat="43.0113133" lon="2.48496"><ele>301.75</ele><time>2026-03-30T08:00:58.685Z</time></trkpt><trkpt lat="43.0113383" lon="2.48513"><ele>301.0</ele><time>2026-03-30T08:00:59.686Z</time></trkpt><trkpt lat="43.01136" lon="2.4853017"><ele>300.75</ele><time>2026-03-30T08:01:00.684Z</time></trkpt><trkpt lat="43.0113633" lon="2.485475"><ele>300.5</ele><time>2026-03-30T08:01:01.685Z</time></trkpt><trkpt lat="43.0113533" lon="2.4856383"><ele>300.25</ele><time>2026-03-30T08:01:02.686Z</time></trkpt><trkpt lat="43.011345" lon="2.485805"><ele>300.0</ele><time>2026-03-30T08:01:03.685Z</time></trkpt><trkpt lat="43.011365" lon="2.48597"><ele>300.0</ele><time>2026-03-30T08:01:04.685Z</time></trkpt><trkpt lat="43.0114183" lon="2.4861367"><ele>300.0</ele><time>2026-03-30T08:01:05.686Z</time></trkpt><trkpt lat="43.01149" lon="2.486305"><ele>300.0</ele><time>2026-03-30T08:01:06.688Z</time></trkpt><trkpt lat="43.01156" lon="2.4864717"><ele>300.0</ele><time>2026-03-30T08:01:07.688Z</time></trkpt><trkpt lat="43.01162" lon="2.4866433"><ele>299.5</ele><time>2026-03-30T08:01:08.686Z</time></trkpt><trkpt lat="43.01166" lon="2.486825"><ele>299.0</ele><time>2026-03-30T08:01:09.687Z</time></trkpt><trkpt lat="43.0116767" lon="2.4870167"><ele>298.5</ele><time>2026-03-30T08:01:10.686Z</time></trkpt><trkpt lat="43.011685" lon="2.487215"><ele>298.0</ele><time>2026-03-30T08:01:11.687Z</time></trkpt><trkpt lat="43.0116817" lon="2.4874217"><ele>297.5</ele><time>2026-03-30T08:01:12.686Z</time></trkpt><trkpt lat="43.0116883" lon="2.4876167"><ele>297.0</ele><time>2026-03-30T08:01:13.685Z</time></trkpt><trkpt lat="43.0117133" lon="2.4878167"><ele>296.5</ele><time>2026-03-30T08:01:14.687Z</time></trkpt><trkpt lat="43.0117383" lon="2.4880183"><ele>296.0</ele><time>2026-03-30T08:01:15.687Z</time></trkpt><trkpt lat="43.011755" lon="2.4882033"><ele>295.75</ele><time>2026-03-30T08:01:16.686Z</time></trkpt><trkpt lat="43.0117633" lon="2.48839"><ele>295.5</ele><time>2026-03-30T08:01:17.686Z</time></trkpt><trkpt lat="43.0117667" lon="2.4885733"><ele>295.25</ele><time>2026-03-30T08:01:18.687Z</time></trkpt><trkpt lat="43.0117467" lon="2.4887567"><ele>295.0</ele><time>2026-03-30T08:01:19.687Z</time></trkpt><trkpt lat="43.0117167" lon="2.4889483"><ele>295.75</ele><time>2026-03-30T08:01:20.69Z</time></trkpt><trkpt lat="43.0116817" lon="2.4891417"><ele>296.5</ele><time>2026-03-30T08:01:21.686Z</time></trkpt><trkpt lat="43.011635" lon="2.4893383"><ele>297.25</ele><time>2026-03-30T08:01:22.685Z</time></trkpt><trkpt lat="43.0116" lon="2.4895283"><ele>298.0</ele><time>2026-03-30T08:01:23.689Z</time></trkpt><trkpt lat="43.0115833" lon="2.4897117"><ele>298.25</ele><time>2026-03-30T08:01:24.687Z</time></trkpt><trkpt lat="43.01159" lon="2.4898817"><ele>298.5</ele><time>2026-03-30T08:01:25.686Z</time></trkpt><trkpt lat="43.0116" lon="2.4900417"><ele>298.75</ele><time>2026-03-30T08:01:26.686Z</time></trkpt><trkpt lat="43.0115833" lon="2.4902"><ele>299.0</ele><time>2026-03-30T08:01:27.686Z</time></trkpt><trkpt lat="43.0115467" lon="2.4903583"><ele>297.5</ele><time>2026-03-30T08:01:28.687Z</time></trkpt><trkpt lat="43.0114967" lon="2.490505"><ele>296.0</ele><time>2026-03-30T08:01:29.687Z</time></trkpt><trkpt lat="43.011445" lon="2.490645"><ele>294.5</ele><time>2026-03-30T08:01:30.687Z</time></trkpt><trkpt lat="43.0113917" lon="2.4907867"><ele>293.0</ele><time>2026-03-30T08:01:31.686Z</time></trkpt><trkpt lat="43.011345" lon="2.4909333"><ele>293.0</ele><time>2026-03-30T08:01:32.687Z</time></trkpt><trkpt lat="43.0113083" lon="2.4910817"><ele>293.0</ele><time>2026-03-30T08:01:33.686Z</time></trkpt><trkpt lat="43.01128" lon="2.4912267"><ele>293.0</ele><time>2026-03-30T08:01:34.687Z</time></trkpt><trkpt lat="43.0112817" lon="2.49138"><ele>293.0</ele><time>2026-03-30T08:01:35.687Z</time></trkpt><trkpt lat="43.01131" lon="2.491545"><ele>293.2</ele><time>2026-03-30T08:01:36.686Z</time></trkpt><trkpt lat="43.011355" lon="2.4917"><ele>293.4</ele><time>2026-03-30T08:01:37.688Z</time></trkpt><trkpt lat="43.0114017" lon="2.4918483"><ele>293.59999999999997</ele><time>2026-03-30T08:01:38.688Z</time></trkpt><trkpt lat="43.011425" lon="2.4919867"><ele>293.8</ele><time>2026-03-30T08:01:39.686Z</time></trkpt><trkpt lat="43.0114233" lon="2.4921233"><ele>294.0</ele><time>2026-03-30T08:01:40.687Z</time></trkpt><trkpt lat="43.0113783" lon="2.4922433"><ele>294.2</ele><time>2026-03-30T08:01:41.688Z</time></trkpt><trkpt lat="43.0113167" lon="2.4923517"><ele>294.4</ele><time>2026-03-30T08:01:42.686Z</time></trkpt><trkpt lat="43.011245" lon="2.492465"><ele>294.6</ele><time>2026-03-30T08:01:43.685Z</time></trkpt><trkpt lat="43.0111917" lon="2.492605"><ele>294.8</ele><time>2026-03-30T08:01:44.685Z</time></trkpt><trkpt lat="43.0111717" lon="2.49277"><ele>295.0</ele><time>2026-03-30T08:01:45.686Z</time></trkpt><trkpt lat="43.0111783" lon="2.4929417"><ele>295.0</ele><time>2026-03-30T08:01:46.685Z</time></trkpt><trkpt lat="43.011195" lon="2.49312"><ele>295.0</ele><time>2026-03-30T08:01:47.685Z</time></trkpt><trkpt lat="43.0112233" lon="2.4932983"><ele>295.0</ele><time>2026-03-30T08:01:48.686Z</time></trkpt><trkpt lat="43.01125" lon="2.493475"><ele>295.0</ele><time>2026-03-30T08:01:49.688Z</time></trkpt><trkpt lat="43.0112833" lon="2.4936567"><ele>296.0</ele><time>2026-03-30T08:01:50.687Z</time></trkpt><trkpt lat="43.011305" lon="2.4938417"><ele>297.0</ele><time>2026-03-30T08:01:51.684Z</time></trkpt><trkpt lat="43.011335" lon="2.49403"><ele>298.0</ele><time>2026-03-30T08:01:52.686Z</time></trkpt><trkpt lat="43.0113617" lon="2.4942217"><ele>299.0</ele><time>2026-03-30T08:01:53.684Z</time></trkpt><trkpt lat="43.0113883" lon="2.4944117"><ele>298.25</ele><time>2026-03-30T08:01:54.687Z</time></trkpt><trkpt lat="43.0114167" lon="2.4946017"><ele>297.5</ele><time>2026-03-30T08:01:55.685Z</time></trkpt><trkpt lat="43.01143" lon="2.49478"><ele>296.75</ele><time>2026-03-30T08:01:56.685Z</time></trkpt><trkpt lat="43.0114517" lon="2.494955"><ele>296.0</ele><time>2026-03-30T08:01:57.685Z</time></trkpt><trkpt lat="43.0114667" lon="2.4951233"><ele>296.0</ele><time>2026-03-30T08:01:58.686Z</time></trkpt><trkpt lat="43.0114667" lon="2.4952917"><ele>296.0</ele><time>2026-03-30T08:01:59.686Z</time></trkpt><trkpt lat="43.011445" lon="2.49546"><ele>296.0</ele><time>2026-03-30T08:02:00.687Z</time></trkpt><trkpt lat="43.011415" lon="2.49563"><ele>296.0</ele><time>2026-03-30T08:02:01.686Z</time></trkpt><trkpt lat="43.011375" lon="2.495805"><ele>294.25</ele><time>2026-03-30T08:02:02.688Z</time></trkpt><trkpt lat="43.0113267" lon="2.4959817"><ele>292.5</ele><time>2026-03-30T08:02:03.687Z</time></trkpt><trkpt lat="43.0112717" lon="2.4961583"><ele>290.75</ele><time>2026-03-30T08:02:04.691Z</time></trkpt><trkpt lat="43.01121" lon="2.496335"><ele>289.0</ele><time>2026-03-30T08:02:05.686Z</time></trkpt><trkpt lat="43.011145" lon="2.496515"><ele>285.0</ele><time>2026-03-30T08:02:06.686Z</time></trkpt><trkpt lat="43.0110783" lon="2.4967"><ele>281.0</ele><time>2026-03-30T08:02:07.686Z</time></trkpt><trkpt lat="43.0110117" lon="2.4968917"><ele>277.0</ele><time>2026-03-30T08:02:08.687Z</time></trkpt><trkpt lat="43.010935" lon="2.4970833"><ele>272.66666666666663</ele><time>2026-03-30T08:02:09.686Z</time></trkpt><trkpt lat="43.0108567" lon="2.4972783"><ele>268.3333333333333</ele><time>2026-03-30T08:02:10.687Z</time></trkpt><trkpt lat="43.0107783" lon="2.49747"><ele>264.0</ele><time>2026-03-30T08:02:11.686Z</time></trkpt><trkpt lat="43.010705" lon="2.497665"><ele>270.0</ele><time>2026-03-30T08:02:12.684Z</time></trkpt><trkpt lat="43.0106317" lon="2.4978633"><ele>276.0</ele><time>2026-03-30T08:02:13.687Z</time></trkpt><trkpt lat="43.0105467" lon="2.4980583"><ele>282.0</ele><time>2026-03-30T08:02:14.689Z</time></trkpt><trkpt lat="43.0104633" lon="2.4982533"><ele>282.0</ele><time>2026-03-30T08:02:15.688Z</time></trkpt><trkpt lat="43.0103783" lon="2.4984467"><ele>282.0</ele><time>2026-03-30T08:02:16.684Z</time></trkpt><trkpt lat="43.0102933" lon="2.4986383"><ele>282.0</ele><time>2026-03-30T08:02:17.685Z</time></trkpt><trkpt lat="43.0102017" lon="2.49883"><ele>278.3333333333333</ele><time>2026-03-30T08:02:18.687Z</time></trkpt><trkpt lat="43.0101283" lon="2.4990283"><ele>274.66666666666663</ele><time>2026-03-30T08:02:19.686Z</time></trkpt><trkpt lat="43.0100633" lon="2.4992217"><ele>271.0</ele><time>2026-03-30T08:02:20.685Z</time></trkpt><trkpt lat="43.0100083" lon="2.499405"><ele>271.5</ele><time>2026-03-30T08:02:21.686Z</time></trkpt><trkpt lat="43.0099567" lon="2.49958"><ele>272.0</ele><time>2026-03-30T08:02:22.685Z</time></trkpt><trkpt lat="43.0098983" lon="2.4997533"><ele>272.5</ele><time>2026-03-30T08:02:23.686Z</time></trkpt><trkpt lat="43.00984" lon="2.4999183"><ele>273.0</ele><time>2026-03-30T08:02:24.684Z</time></trkpt><trkpt lat="43.0097717" lon="2.5000783"><ele>273.0</ele><time>2026-03-30T08:02:25.686Z</time></trkpt><trkpt lat="43.0096933" lon="2.5002183"><ele>273.0</ele><time>2026-03-30T08:02:26.685Z</time></trkpt><trkpt lat="43.0096117" lon="2.500345"><ele>273.0</ele><time>2026-03-30T08:02:27.687Z</time></trkpt><trkpt lat="43.0095317" lon="2.5004667"><ele>273.0</ele><time>2026-03-30T08:02:28.685Z</time></trkpt><trkpt lat="43.0094533" lon="2.500585"><ele>269.6</ele><time>2026-03-30T08:02:29.686Z</time></trkpt><trkpt lat="43.00938" lon="2.500705"><ele>266.20000000000005</ele><time>2026-03-30T08:02:30.685Z</time></trkpt><trkpt lat="43.00931" lon="2.500815"><ele>262.8</ele><time>2026-03-30T08:02:31.685Z</time></trkpt><trkpt lat="43.0092333" lon="2.5009133"><ele>259.40000000000003</ele><time>2026-03-30T08:02:32.686Z</time></trkpt><trkpt lat="43.0091533" lon="2.5009967"><ele>256.0</ele><time>2026-03-30T08:02:33.687Z</time></trkpt><trkpt lat="43.0090733" lon="2.5010683"><ele>255.66666666666666</ele><time>2026-03-30T08:02:34.685Z</time></trkpt><trkpt lat="43.0090017" lon="2.5011383"><ele>255.33333333333331</ele><time>2026-03-30T08:02:35.685Z</time></trkpt><trkpt lat="43.0089283" lon="2.5012033"><ele>255.0</ele><time>2026-03-30T08:02:36.686Z</time></trkpt><trkpt lat="43.0088583" lon="2.501255"><ele>254.66666666666669</ele><time>2026-03-30T08:02:37.687Z</time></trkpt><trkpt lat="43.0087967" lon="2.5013083"><ele>254.33333333333334</ele><time>2026-03-30T08:02:38.686Z</time></trkpt><trkpt lat="43.0087" lon="2.5013767"><ele>254.0</ele><time>2026-03-30T08:02:40.685Z</time></trkpt><trkpt lat="43.008635" lon="2.5014033"><ele>253.39999999999998</ele><time>2026-03-30T08:02:42.686Z</time></trkpt><trkpt lat="43.00859" lon="2.501495"><ele>252.79999999999998</ele><time>2026-03-30T08:02:46.688Z</time></trkpt><trkpt lat="43.0086117" lon="2.5016567"><ele>252.20000000000002</ele><time>2026-03-30T08:02:48.687Z</time></trkpt><trkpt lat="43.0086317" lon="2.5017683"><ele>251.60000000000002</ele><time>2026-03-30T08:02:49.687Z</time></trkpt><trkpt lat="43.0086517" lon="2.5018933"><ele>251.0</ele><time>2026-03-30T08:02:50.685Z</time></trkpt><trkpt lat="43.0086767" lon="2.50203"><ele>251.0</ele><time>2026-03-30T08:02:51.686Z</time></trkpt><trkpt lat="43.0087067" lon="2.5021717"><ele>251.00000000000003</ele><time>2026-03-30T08:02:52.686Z</time></trkpt><trkpt lat="43.0087367" lon="2.5023117"><ele>251.00000000000003</ele><time>2026-03-30T08:02:53.686Z</time></trkpt><trkpt lat="43.0087317" lon="2.5024533"><ele>251.0</ele><time>2026-03-30T08:02:54.686Z</time></trkpt><trkpt lat="43.0086883" lon="2.5025917"><ele>251.0</ele><time>2026-03-30T08:02:55.685Z</time></trkpt><trkpt lat="43.0086133" lon="2.5027183"><ele>251.0</ele><time>2026-03-30T08:02:56.687Z</time></trkpt><trkpt lat="43.0085317" lon="2.50284"><ele>251.0</ele><time>2026-03-30T08:02:57.686Z</time></trkpt><trkpt lat="43.0084517" lon="2.502975"><ele>251.0</ele><time>2026-03-30T08:02:58.688Z</time></trkpt><trkpt lat="43.0083917" lon="2.5031267"><ele>251.0</ele><time>2026-03-30T08:02:59.687Z</time></trkpt><trkpt lat="43.00836" lon="2.5033017"><ele>251.0</ele><time>2026-03-30T08:03:00.687Z</time></trkpt><trkpt lat="43.00835" lon="2.503485"><ele>251.0</ele><time>2026-03-30T08:03:01.688Z</time></trkpt><trkpt lat="43.0083533" lon="2.5036733"><ele>251.0</ele><time>2026-03-30T08:03:02.687Z</time></trkpt><trkpt lat="43.00837" lon="2.503865"><ele>251.0</ele><time>2026-03-30T08:03:03.685Z</time></trkpt><trkpt lat="43.00839" lon="2.504065"><ele>251.0</ele><time>2026-03-30T08:03:04.685Z</time></trkpt><trkpt lat="43.008415" lon="2.50427"><ele>251.0</ele><time>2026-03-30T08:03:05.689Z</time></trkpt><trkpt lat="43.0084433" lon="2.5044733"><ele>251.0</ele><time>2026-03-30T08:03:06.686Z</time></trkpt><trkpt lat="43.0084717" lon="2.5046717"><ele>250.0</ele><time>2026-03-30T08:03:07.685Z</time></trkpt><trkpt lat="43.0085" lon="2.5048733"><ele>249.0</ele><time>2026-03-30T08:03:08.687Z</time></trkpt><trkpt lat="43.00852" lon="2.5050783"><ele>248.0</ele><time>2026-03-30T08:03:09.686Z</time></trkpt><trkpt lat="43.008515" lon="2.5052883"><ele>248.0</ele><time>2026-03-30T08:03:10.686Z</time></trkpt><trkpt lat="43.008485" lon="2.5054933"><ele>248.0</ele><time>2026-03-30T08:03:11.687Z</time></trkpt><trkpt lat="43.0084433" lon="2.5056917"><ele>248.0</ele><time>2026-03-30T08:03:12.695Z</time></trkpt><trkpt lat="43.0083883" lon="2.505885"><ele>248.0</ele><time>2026-03-30T08:03:13.686Z</time></trkpt><trkpt lat="43.0083367" lon="2.5060817"><ele>248.0</ele><time>2026-03-30T08:03:14.687Z</time></trkpt><trkpt lat="43.008315" lon="2.5062883"><ele>248.0</ele><time>2026-03-30T08:03:15.686Z</time></trkpt><trkpt lat="43.0083017" lon="2.5065"><ele>248.0</ele><time>2026-03-30T08:03:16.686Z</time></trkpt><trkpt lat="43.00829" lon="2.5067183"><ele>248.0</ele><time>2026-03-30T08:03:17.686Z</time></trkpt><trkpt lat="43.0082783" lon="2.5069417"><ele>248.0</ele><time>2026-03-30T08:03:18.687Z</time></trkpt><trkpt lat="43.0082583" lon="2.5071617"><ele>247.33333333333334</ele><time>2026-03-30T08:03:19.685Z</time></trkpt><trkpt lat="43.00823" lon="2.5073817"><ele>246.66666666666669</ele><time>2026-03-30T08:03:20.685Z</time></trkpt><trkpt lat="43.0082033" lon="2.5076017"><ele>246.0</ele><time>2026-03-30T08:03:21.688Z</time></trkpt><trkpt lat="43.008185" lon="2.50782"><ele>246.0</ele><time>2026-03-30T08:03:22.686Z</time></trkpt><trkpt lat="43.0081733" lon="2.50804"><ele>246.0</ele><time>2026-03-30T08:03:23.696Z</time></trkpt><trkpt lat="43.0081633" lon="2.5082533"><ele>246.0</ele><time>2026-03-30T08:03:24.686Z</time></trkpt><trkpt lat="43.0081433" lon="2.50847"><ele>246.0</ele><time>2026-03-30T08:03:25.689Z</time></trkpt><trkpt lat="43.0081133" lon="2.5086883"><ele>246.0</ele><time>2026-03-30T08:03:26.687Z</time></trkpt><trkpt lat="43.0080733" lon="2.5089067"><ele>246.0</ele><time>2026-03-30T08:03:27.687Z</time></trkpt><trkpt lat="43.0080283" lon="2.5091217"><ele>245.0</ele><time>2026-03-30T08:03:28.686Z</time></trkpt><trkpt lat="43.0079867" lon="2.5093383"><ele>244.0</ele><time>2026-03-30T08:03:29.686Z</time></trkpt><trkpt lat="43.0079517" lon="2.5095567"><ele>243.0</ele><time>2026-03-30T08:03:30.687Z</time></trkpt><trkpt lat="43.0079183" lon="2.5097767"><ele>242.66666666666669</ele><time>2026-03-30T08:03:31.686Z</time></trkpt><trkpt lat="43.0078883" lon="2.5099967"><ele>242.33333333333334</ele><time>2026-03-30T08:03:32.687Z</time></trkpt><trkpt lat="43.0078633" lon="2.5102233"><ele>242.0</ele><time>2026-03-30T08:03:33.686Z</time></trkpt><trkpt lat="43.0078367" lon="2.5104467"><ele>242.0</ele><time>2026-03-30T08:03:34.689Z</time></trkpt><trkpt lat="43.00781" lon="2.51067"><ele>242.0</ele><time>2026-03-30T08:03:35.687Z</time></trkpt><trkpt lat="43.0077833" lon="2.51089"><ele>242.0</ele><time>2026-03-30T08:03:36.688Z</time></trkpt><trkpt lat="43.0077583" lon="2.5111017"><ele>242.75</ele><time>2026-03-30T08:03:37.687Z</time></trkpt><trkpt lat="43.007735" lon="2.5113033"><ele>243.5</ele><time>2026-03-30T08:03:38.686Z</time></trkpt><trkpt lat="43.0077117" lon="2.5115017"><ele>244.25</ele><time>2026-03-30T08:03:39.69Z</time></trkpt><trkpt lat="43.0076817" lon="2.5116983"><ele>245.0</ele><time>2026-03-30T08:03:40.686Z</time></trkpt><trkpt lat="43.00764" lon="2.5118917"><ele>245.0</ele><time>2026-03-30T08:03:41.684Z</time></trkpt><trkpt lat="43.007585" lon="2.512075"><ele>245.0</ele><time>2026-03-30T08:03:42.686Z</time></trkpt><trkpt lat="43.0075283" lon="2.512255"><ele>245.0</ele><time>2026-03-30T08:03:43.686Z</time></trkpt><trkpt lat="43.0074817" lon="2.512435"><ele>245.0</ele><time>2026-03-30T08:03:44.685Z</time></trkpt><trkpt lat="43.0074517" lon="2.5126217"><ele>245.0</ele><time>2026-03-30T08:03:45.689Z</time></trkpt><trkpt lat="43.007435" lon="2.512815"><ele>245.0</ele><time>2026-03-30T08:03:46.685Z</time></trkpt><trkpt lat="43.0074233" lon="2.513015"><ele>245.0</ele><time>2026-03-30T08:03:47.685Z</time></trkpt><trkpt lat="43.0074067" lon="2.513215"><ele>245.0</ele><time>2026-03-30T08:03:48.685Z</time></trkpt><trkpt lat="43.007385" lon="2.51341"><ele>244.25</ele><time>2026-03-30T08:03:49.684Z</time></trkpt><trkpt lat="43.0073533" lon="2.513595"><ele>243.5</ele><time>2026-03-30T08:03:50.685Z</time></trkpt><trkpt lat="43.007315" lon="2.5137633"><ele>242.75</ele><time>2026-03-30T08:03:51.687Z</time></trkpt><trkpt lat="43.007275" lon="2.5139233"><ele>242.0</ele><time>2026-03-30T08:03:52.684Z</time></trkpt><trkpt lat="43.0072333" lon="2.5140767"><ele>241.83333333333334</ele><time>2026-03-30T08:03:53.685Z</time></trkpt><trkpt lat="43.0071917" lon="2.5142167"><ele>241.66666666666669</ele><time>2026-03-30T08:03:54.686Z</time></trkpt><trkpt lat="43.0071567" lon="2.51434"><ele>241.5</ele><time>2026-03-30T08:03:55.685Z</time></trkpt><trkpt lat="43.0071233" lon="2.5144483"><ele>241.33333333333331</ele><time>2026-03-30T08:03:56.686Z</time></trkpt><trkpt lat="43.0070917" lon="2.5145433"><ele>241.16666666666666</ele><time>2026-03-30T08:03:57.688Z</time></trkpt><trkpt lat="43.0070633" lon="2.5146267"><ele>241.0</ele><time>2026-03-30T08:03:58.685Z</time></trkpt><trkpt lat="43.0070367" lon="2.514745"><ele>240.99999999999997</ele><time>2026-03-30T08:04:00.685Z</time></trkpt><trkpt lat="43.0071133" lon="2.5147383"><ele>241.0</ele><time>2026-03-30T08:04:03.685Z</time></trkpt><trkpt lat="43.0071867" lon="2.5146317"><ele>241.0</ele><time>2026-03-30T08:04:05.686Z</time></trkpt><trkpt lat="43.0072117" lon="2.5145367"><ele>241.0</ele><time>2026-03-30T08:04:06.686Z</time></trkpt><trkpt lat="43.007245" lon="2.5144367"><ele>240.99999999999997</ele><time>2026-03-30T08:04:07.687Z</time></trkpt><trkpt lat="43.0072917" lon="2.5143267"><ele>241.0</ele><time>2026-03-30T08:04:08.687Z</time></trkpt><trkpt lat="43.0073517" lon="2.51422"><ele>240.75</ele><time>2026-03-30T08:04:09.687Z</time></trkpt><trkpt lat="43.0074267" lon="2.5141083"><ele>240.5</ele><time>2026-03-30T08:04:10.686Z</time></trkpt><trkpt lat="43.0074983" lon="2.51398"><ele>240.25</ele><time>2026-03-30T08:04:11.686Z</time></trkpt><trkpt lat="43.0075633" lon="2.5138467"><ele>240.0</ele><time>2026-03-30T08:04:12.687Z</time></trkpt><trkpt lat="43.0076233" lon="2.51371"><ele>242.0</ele><time>2026-03-30T08:04:13.689Z</time></trkpt><trkpt lat="43.0076683" lon="2.5135767"><ele>244.0</ele><time>2026-03-30T08:04:14.688Z</time></trkpt><trkpt lat="43.0076883" lon="2.513435"><ele>246.0</ele><time>2026-03-30T08:04:15.685Z</time></trkpt><trkpt lat="43.0076967" lon="2.5133"><ele>248.0</ele><time>2026-03-30T08:04:16.688Z</time></trkpt><trkpt lat="43.0077133" lon="2.513165"><ele>250.0</ele><time>2026-03-30T08:04:17.687Z</time></trkpt><trkpt lat="43.0077533" lon="2.513025"><ele>249.8</ele><time>2026-03-30T08:04:18.687Z</time></trkpt><trkpt lat="43.0078083" lon="2.5128767"><ele>249.6</ele><time>2026-03-30T08:04:19.686Z</time></trkpt><trkpt lat="43.0078633" lon="2.5127333"><ele>249.39999999999998</ele><time>2026-03-30T08:04:20.686Z</time></trkpt><trkpt lat="43.007915" lon="2.5125983"><ele>249.2</ele><time>2026-03-30T08:04:21.689Z</time></trkpt><trkpt lat="43.0079583" lon="2.5124817"><ele>249.0</ele><time>2026-03-30T08:04:22.686Z</time></trkpt><trkpt lat="43.008005" lon="2.5123617"><ele>249.0</ele><time>2026-03-30T08:04:23.687Z</time></trkpt><trkpt lat="43.0080617" lon="2.512255"><ele>249.0</ele><time>2026-03-30T08:04:24.688Z</time></trkpt><trkpt lat="43.0081317" lon="2.5121517"><ele>249.0</ele><time>2026-03-30T08:04:25.686Z</time></trkpt><trkpt lat="43.0082033" lon="2.5120667"><ele>249.0</ele><time>2026-03-30T08:04:26.689Z</time></trkpt><trkpt lat="43.008265" lon="2.5120033"><ele>249.0</ele><time>2026-03-30T08:04:27.686Z</time></trkpt><trkpt lat="43.0083217" lon="2.5119633"><ele>249.0</ele><time>2026-03-30T08:04:28.686Z</time></trkpt><trkpt lat="43.008405" lon="2.5120267"><ele>252.0</ele><time>2026-03-30T08:04:30.687Z</time></trkpt><trkpt lat="43.0084017" lon="2.512115"><ele>255.0</ele><time>2026-03-30T08:04:31.686Z</time></trkpt><trkpt lat="43.00838" lon="2.5122167"><ele>258.0</ele><time>2026-03-30T08:04:32.686Z</time></trkpt><trkpt lat="43.0083517" lon="2.5123317"><ele>261.0</ele><time>2026-03-30T08:04:33.686Z</time></trkpt><trkpt lat="43.0083383" lon="2.5124583"><ele>264.0</ele><time>2026-03-30T08:04:34.687Z</time></trkpt><trkpt lat="43.008345" lon="2.5125983"><ele>267.0</ele><time>2026-03-30T08:04:35.688Z</time></trkpt><trkpt lat="43.008365" lon="2.5127467"><ele>267.0</ele><time>2026-03-30T08:04:36.687Z</time></trkpt><trkpt lat="43.0083833" lon="2.5128917"><ele>267.0</ele><time>2026-03-30T08:04:37.688Z</time></trkpt><trkpt lat="43.0083883" lon="2.513035"><ele>267.0</ele><time>2026-03-30T08:04:38.687Z</time></trkpt><trkpt lat="43.0083783" lon="2.5131817"><ele>267.0</ele><time>2026-03-30T08:04:39.687Z</time></trkpt><trkpt lat="43.0083617" lon="2.513335"><ele>267.0</ele><time>2026-03-30T08:04:40.687Z</time></trkpt><trkpt lat="43.00834" lon="2.5134983"><ele>263.75</ele><time>2026-03-30T08:04:41.685Z</time></trkpt><trkpt lat="43.0083183" lon="2.513675"><ele>260.5</ele><time>2026-03-30T08:04:42.686Z</time></trkpt><trkpt lat="43.0082983" lon="2.5138583"><ele>257.25</ele><time>2026-03-30T08:04:43.686Z</time></trkpt><trkpt lat="43.00828" lon="2.5140433"><ele>254.0</ele><time>2026-03-30T08:04:44.687Z</time></trkpt><trkpt lat="43.00827" lon="2.5142267"><ele>254.0</ele><time>2026-03-30T08:04:45.685Z</time></trkpt><trkpt lat="43.0082617" lon="2.514405"><ele>254.0</ele><time>2026-03-30T08:04:46.685Z</time></trkpt><trkpt lat="43.008245" lon="2.5145683"><ele>254.0</ele><time>2026-03-30T08:04:47.686Z</time></trkpt><trkpt lat="43.00822" lon="2.5147167"><ele>254.0</ele><time>2026-03-30T08:04:48.687Z</time></trkpt><trkpt lat="43.0081917" lon="2.5148583"><ele>255.2</ele><time>2026-03-30T08:04:49.685Z</time></trkpt><trkpt lat="43.0081783" lon="2.515005"><ele>256.4</ele><time>2026-03-30T08:04:50.687Z</time></trkpt><trkpt lat="43.008175" lon="2.515155"><ele>257.6</ele><time>2026-03-30T08:04:51.686Z</time></trkpt><trkpt lat="43.0081633" lon="2.51529"><ele>258.8</ele><time>2026-03-30T08:04:52.687Z</time></trkpt><trkpt lat="43.00813" lon="2.5154117"><ele>260.0</ele><time>2026-03-30T08:04:53.686Z</time></trkpt><trkpt lat="43.0080733" lon="2.5155167"><ele>262.4</ele><time>2026-03-30T08:04:54.686Z</time></trkpt><trkpt lat="43.0079983" lon="2.5155983"><ele>264.8</ele><time>2026-03-30T08:04:55.687Z</time></trkpt><trkpt lat="43.0079267" lon="2.51568"><ele>267.2</ele><time>2026-03-30T08:04:56.688Z</time></trkpt><trkpt lat="43.0078517" lon="2.51579"><ele>269.6</ele><time>2026-03-30T08:04:57.685Z</time></trkpt><trkpt lat="43.0077883" lon="2.515915"><ele>272.0</ele><time>2026-03-30T08:04:58.685Z</time></trkpt><trkpt lat="43.007725" lon="2.5160317"><ele>272.0</ele><time>2026-03-30T08:04:59.685Z</time></trkpt><trkpt lat="43.0076683" lon="2.51615"><ele>272.0</ele><time>2026-03-30T08:05:00.689Z</time></trkpt><trkpt lat="43.0076267" lon="2.5162667"><ele>272.0</ele><time>2026-03-30T08:05:01.686Z</time></trkpt><trkpt lat="43.0076017" lon="2.5163833"><ele>272.0</ele><time>2026-03-30T08:05:02.686Z</time></trkpt><trkpt lat="43.0075983" lon="2.5164833"><ele>272.0</ele><time>2026-03-30T08:05:03.686Z</time></trkpt><trkpt lat="43.007625" lon="2.5166033"><ele>273.2</ele><time>2026-03-30T08:05:04.687Z</time></trkpt><trkpt lat="43.0076717" lon="2.5167183"><ele>274.4</ele><time>2026-03-30T08:05:05.687Z</time></trkpt><trkpt lat="43.00774" lon="2.5168333"><ele>275.6</ele><time>2026-03-30T08:05:06.686Z</time></trkpt><trkpt lat="43.00781" lon="2.51693"><ele>276.8</ele><time>2026-03-30T08:05:07.689Z</time></trkpt><trkpt lat="43.007875" lon="2.5170283"><ele>278.0</ele><time>2026-03-30T08:05:08.685Z</time></trkpt><trkpt lat="43.0079233" lon="2.5171383"><ele>278.1666666666667</ele><time>2026-03-30T08:05:09.686Z</time></trkpt><trkpt lat="43.007955" lon="2.5172533"><ele>278.33333333333337</ele><time>2026-03-30T08:05:10.686Z</time></trkpt><trkpt lat="43.007985" lon="2.5173667"><ele>278.5</ele><time>2026-03-30T08:05:11.686Z</time></trkpt><trkpt lat="43.0080167" lon="2.517465"><ele>278.6666666666667</ele><time>2026-03-30T08:05:12.686Z</time></trkpt><trkpt lat="43.008065" lon="2.5175467"><ele>278.8333333333333</ele><time>2026-03-30T08:05:13.685Z</time></trkpt><trkpt lat="43.0081133" lon="2.5176283"><ele>279.0</ele><time>2026-03-30T08:05:14.687Z</time></trkpt><trkpt lat="43.0081517" lon="2.5177183"><ele>279.0</ele><time>2026-03-30T08:05:15.688Z</time></trkpt><trkpt lat="43.0081917" lon="2.51782"><ele>279.0</ele><time>2026-03-30T08:05:16.686Z</time></trkpt><trkpt lat="43.0082267" lon="2.5179233"><ele>279.0</ele><time>2026-03-30T08:05:17.687Z</time></trkpt><trkpt lat="43.0082617" lon="2.5180267"><ele>279.0</ele><time>2026-03-30T08:05:18.686Z</time></trkpt><trkpt lat="43.00829" lon="2.518135"><ele>279.0</ele><time>2026-03-30T08:05:19.686Z</time></trkpt><trkpt lat="43.0083017" lon="2.5182483"><ele>279.0</ele><time>2026-03-30T08:05:20.686Z</time></trkpt><trkpt lat="43.0083117" lon="2.5183767"><ele>281.4</ele><time>2026-03-30T08:05:21.687Z</time></trkpt><trkpt lat="43.0083267" lon="2.51851"><ele>283.79999999999995</ele><time>2026-03-30T08:05:22.686Z</time></trkpt><trkpt lat="43.0083517" lon="2.5186417"><ele>286.20000000000005</ele><time>2026-03-30T08:05:23.688Z</time></trkpt><trkpt lat="43.00837" lon="2.51878"><ele>288.6</ele><time>2026-03-30T08:05:24.689Z</time></trkpt><trkpt lat="43.0083783" lon="2.51892"><ele>291.0</ele><time>2026-03-30T08:05:25.691Z</time></trkpt><trkpt lat="43.0083733" lon="2.5190667"><ele>291.2</ele><time>2026-03-30T08:05:26.687Z</time></trkpt><trkpt lat="43.0083583" lon="2.51922"><ele>291.40000000000003</ele><time>2026-03-30T08:05:27.686Z</time></trkpt><trkpt lat="43.008345" lon="2.5193733"><ele>291.6</ele><time>2026-03-30T08:05:28.688Z</time></trkpt><trkpt lat="43.0083333" lon="2.5195217"><ele>291.8</ele><time>2026-03-30T08:05:29.686Z</time></trkpt><trkpt lat="43.0083283" lon="2.5196567"><ele>292.0</ele><time>2026-03-30T08:05:30.687Z</time></trkpt><trkpt lat="43.0083383" lon="2.5197833"><ele>292.0</ele><time>2026-03-30T08:05:31.689Z</time></trkpt><trkpt lat="43.0083667" lon="2.51992"><ele>292.0</ele><time>2026-03-30T08:05:32.689Z</time></trkpt><trkpt lat="43.0083967" lon="2.52006"><ele>292.0</ele><time>2026-03-30T08:05:33.687Z</time></trkpt><trkpt lat="43.008425" lon="2.5202067"><ele>292.0</ele><time>2026-03-30T08:05:34.685Z</time></trkpt><trkpt lat="43.0084483" lon="2.52036"><ele>292.0</ele><time>2026-03-30T08:05:35.687Z</time></trkpt><trkpt lat="43.0084733" lon="2.5205033"><ele>291.6</ele><time>2026-03-30T08:05:36.687Z</time></trkpt><trkpt lat="43.008505" lon="2.5206383"><ele>291.2</ele><time>2026-03-30T08:05:37.686Z</time></trkpt><trkpt lat="43.0085367" lon="2.520765"><ele>290.8</ele><time>2026-03-30T08:05:38.688Z</time></trkpt><trkpt lat="43.0085633" lon="2.5208717"><ele>290.4</ele><time>2026-03-30T08:05:39.685Z</time></trkpt><trkpt lat="43.00859" lon="2.520965"><ele>290.0</ele><time>2026-03-30T08:05:40.685Z</time></trkpt><trkpt lat="43.0086767" lon="2.52107"><ele>290.0</ele><time>2026-03-30T08:05:42.687Z</time></trkpt><trkpt lat="43.00874" lon="2.5210817"><ele>290.0</ele><time>2026-03-30T08:05:43.688Z</time></trkpt><trkpt lat="43.00883" lon="2.5210517"><ele>290.0</ele><time>2026-03-30T08:05:44.687Z</time></trkpt><trkpt lat="43.0089183" lon="2.52102"><ele>290.0</ele><time>2026-03-30T08:05:45.687Z</time></trkpt><trkpt lat="43.0090033" lon="2.5209983"><ele>290.0</ele><time>2026-03-30T08:05:46.687Z</time></trkpt><trkpt lat="43.0090883" lon="2.52097"><ele>290.0</ele><time>2026-03-30T08:05:47.687Z</time></trkpt><trkpt lat="43.00917" lon="2.520935"><ele>292.33333333333337</ele><time>2026-03-30T08:05:48.688Z</time></trkpt><trkpt lat="43.009255" lon="2.5208917"><ele>294.6666666666667</ele><time>2026-03-30T08:05:49.687Z</time></trkpt><trkpt lat="43.0093433" lon="2.5208367"><ele>297.0</ele><time>2026-03-30T08:05:50.687Z</time></trkpt><trkpt lat="43.009415" lon="2.520785"><ele>299.3333333333333</ele><time>2026-03-30T08:05:51.689Z</time></trkpt><trkpt lat="43.009485" lon="2.5207167"><ele>301.66666666666663</ele><time>2026-03-30T08:05:52.688Z</time></trkpt><trkpt lat="43.0095467" lon="2.5206417"><ele>304.0</ele><time>2026-03-30T08:05:53.688Z</time></trkpt><trkpt lat="43.0096017" lon="2.5205483"><ele>304.0</ele><time>2026-03-30T08:05:54.686Z</time></trkpt><trkpt lat="43.0096333" lon="2.5204483"><ele>304.0</ele><time>2026-03-30T08:05:55.686Z</time></trkpt><trkpt lat="43.0096533" lon="2.520345"><ele>304.0</ele><time>2026-03-30T08:05:56.688Z</time></trkpt><trkpt lat="43.0096733" lon="2.5202533"><ele>304.0</ele><time>2026-03-30T08:05:57.685Z</time></trkpt><trkpt lat="43.00969" lon="2.520165"><ele>304.0</ele><time>2026-03-30T08:05:58.687Z</time></trkpt><trkpt lat="43.0097033" lon="2.520075"><ele>304.0</ele><time>2026-03-30T08:05:59.685Z</time></trkpt><trkpt lat="43.00972" lon="2.51999"><ele>304.0</ele><time>2026-03-30T08:06:00.687Z</time></trkpt><trkpt lat="43.0097767" lon="2.5198217"><ele>305.0</ele><time>2026-03-30T08:06:02.685Z</time></trkpt><trkpt lat="43.009815" lon="2.519735"><ele>306.0</ele><time>2026-03-30T08:06:03.686Z</time></trkpt><trkpt lat="43.0098533" lon="2.5196433"><ele>307.0</ele><time>2026-03-30T08:06:04.686Z</time></trkpt><trkpt lat="43.009895" lon="2.5195517"><ele>308.0</ele><time>2026-03-30T08:06:05.685Z</time></trkpt><trkpt lat="43.0099383" lon="2.5194683"><ele>309.0</ele><time>2026-03-30T08:06:06.686Z</time></trkpt><trkpt lat="43.0099767" lon="2.5193867"><ele>310.0</ele><time>2026-03-30T08:06:07.685Z</time></trkpt><trkpt lat="43.0100317" lon="2.519325"><ele>311.0</ele><time>2026-03-30T08:06:08.689Z</time></trkpt><trkpt lat="43.01011" lon="2.519275"><ele>311.0</ele><time>2026-03-30T08:06:09.686Z</time></trkpt><trkpt lat="43.0101983" lon="2.5192317"><ele>311.0</ele><time>2026-03-30T08:06:10.688Z</time></trkpt><trkpt lat="43.010285" lon="2.5191733"><ele>311.0</ele><time>2026-03-30T08:06:11.685Z</time></trkpt><trkpt lat="43.010365" lon="2.51911"><ele>311.0</ele><time>2026-03-30T08:06:12.686Z</time></trkpt><trkpt lat="43.0104467" lon="2.5190417"><ele>311.0</ele><time>2026-03-30T08:06:13.686Z</time></trkpt><trkpt lat="43.0105233" lon="2.5189717"><ele>311.0</ele><time>2026-03-30T08:06:14.686Z</time></trkpt><trkpt lat="43.0105917" lon="2.5189117"><ele>311.0</ele><time>2026-03-30T08:06:15.685Z</time></trkpt><trkpt lat="43.010655" lon="2.5188567"><ele>311.0</ele><time>2026-03-30T08:06:16.685Z</time></trkpt><trkpt lat="43.0107667" lon="2.518825"><ele>311.0</ele><time>2026-03-30T08:06:18.685Z</time></trkpt><trkpt lat="43.0108867" lon="2.5188083"><ele>311.0</ele><time>2026-03-30T08:06:20.686Z</time></trkpt><trkpt lat="43.01094" lon="2.51876"><ele>311.83333333333337</ele><time>2026-03-30T08:06:21.685Z</time></trkpt><trkpt lat="43.01099" lon="2.5186883"><ele>312.6666666666667</ele><time>2026-03-30T08:06:22.686Z</time></trkpt><trkpt lat="43.011035" lon="2.5186083"><ele>313.5</ele><time>2026-03-30T08:06:23.686Z</time></trkpt><trkpt lat="43.01108" lon="2.5185083"><ele>314.3333333333333</ele><time>2026-03-30T08:06:24.687Z</time></trkpt><trkpt lat="43.0111333" lon="2.5184233"><ele>315.16666666666663</ele><time>2026-03-30T08:06:25.685Z</time></trkpt><trkpt lat="43.01119" lon="2.5183367"><ele>316.0</ele><time>2026-03-30T08:06:26.688Z</time></trkpt><trkpt lat="43.0112583" lon="2.5182567"><ele>316.0</ele><time>2026-03-30T08:06:27.686Z</time></trkpt><trkpt lat="43.0113183" lon="2.5181883"><ele>316.0</ele><time>2026-03-30T08:06:28.686Z</time></trkpt><trkpt lat="43.011385" lon="2.5181017"><ele>316.0</ele><time>2026-03-30T08:06:29.686Z</time></trkpt><trkpt lat="43.0114483" lon="2.5180017"><ele>316.0</ele><time>2026-03-30T08:06:30.685Z</time></trkpt><trkpt lat="43.0115083" lon="2.5178967"><ele>316.0</ele><time>2026-03-30T08:06:31.689Z</time></trkpt><trkpt lat="43.0115733" lon="2.51779"><ele>316.0</ele><time>2026-03-30T08:06:32.686Z</time></trkpt><trkpt lat="43.0116367" lon="2.5176933"><ele>316.0</ele><time>2026-03-30T08:06:33.686Z</time></trkpt><trkpt lat="43.0117" lon="2.517605"><ele>316.0</ele><time>2026-03-30T08:06:34.685Z</time></trkpt><trkpt lat="43.0117617" lon="2.5175183"><ele>316.0</ele><time>2026-03-30T08:06:35.688Z</time></trkpt><trkpt lat="43.011815" lon="2.5174333"><ele>316.0</ele><time>2026-03-30T08:06:36.687Z</time></trkpt><trkpt lat="43.0118517" lon="2.5173533"><ele>316.0</ele><time>2026-03-30T08:06:37.686Z</time></trkpt><trkpt lat="43.0118833" lon="2.5172683"><ele>316.0</ele><time>2026-03-30T08:06:38.69Z</time></trkpt><trkpt lat="43.0119083" lon="2.5171767"><ele>316.0</ele><time>2026-03-30T08:06:39.687Z</time></trkpt><trkpt lat="43.0119267" lon="2.5170833"><ele>316.0</ele><time>2026-03-30T08:06:40.687Z</time></trkpt><trkpt lat="43.0119433" lon="2.5169833"><ele>316.0</ele><time>2026-03-30T08:06:41.686Z</time></trkpt><trkpt lat="43.0119583" lon="2.5168733"><ele>316.0</ele><time>2026-03-30T08:06:42.685Z</time></trkpt><trkpt lat="43.011975" lon="2.5167483"><ele>316.0</ele><time>2026-03-30T08:06:43.687Z</time></trkpt><trkpt lat="43.0119933" lon="2.5166167"><ele>316.40000000000003</ele><time>2026-03-30T08:06:44.686Z</time></trkpt><trkpt lat="43.0120183" lon="2.5164833"><ele>316.8</ele><time>2026-03-30T08:06:45.686Z</time></trkpt><trkpt lat="43.0120517" lon="2.51634"><ele>317.20000000000005</ele><time>2026-03-30T08:06:46.686Z</time></trkpt><trkpt lat="43.012085" lon="2.5161967"><ele>317.6</ele><time>2026-03-30T08:06:47.687Z</time></trkpt><trkpt lat="43.012135" lon="2.5160567"><ele>318.0</ele><time>2026-03-30T08:06:48.688Z</time></trkpt><trkpt lat="43.0121933" lon="2.515925"><ele>319.0</ele><time>2026-03-30T08:06:49.687Z</time></trkpt><trkpt lat="43.0122567" lon="2.5158067"><ele>320.0</ele><time>2026-03-30T08:06:50.687Z</time></trkpt><trkpt lat="43.0123283" lon="2.5156983"><ele>321.0</ele><time>2026-03-30T08:06:51.686Z</time></trkpt><trkpt lat="43.0124033" lon="2.5156067"><ele>322.0</ele><time>2026-03-30T08:06:52.686Z</time></trkpt><trkpt lat="43.01249" lon="2.5155283"><ele>323.0</ele><time>2026-03-30T08:06:53.685Z</time></trkpt><trkpt lat="43.012585" lon="2.515445"><ele>321.4</ele><time>2026-03-30T08:06:54.688Z</time></trkpt><trkpt lat="43.01268" lon="2.5153667"><ele>319.79999999999995</ele><time>2026-03-30T08:06:55.689Z</time></trkpt><trkpt lat="43.01276" lon="2.5152883"><ele>318.2</ele><time>2026-03-30T08:06:56.686Z</time></trkpt><trkpt lat="43.0128267" lon="2.5152117"><ele>316.6</ele><time>2026-03-30T08:06:57.685Z</time></trkpt><trkpt lat="43.012885" lon="2.5151383"><ele>315.0</ele><time>2026-03-30T08:06:58.688Z</time></trkpt><trkpt lat="43.0129533" lon="2.5150767"><ele>315.0</ele><time>2026-03-30T08:06:59.687Z</time></trkpt><trkpt lat="43.0130333" lon="2.515035"><ele>315.0</ele><time>2026-03-30T08:07:00.687Z</time></trkpt><trkpt lat="43.0131317" lon="2.515005"><ele>315.0</ele><time>2026-03-30T08:07:01.687Z</time></trkpt><trkpt lat="43.013235" lon="2.51497"><ele>315.0</ele><time>2026-03-30T08:07:02.688Z</time></trkpt><trkpt lat="43.013335" lon="2.5149133"><ele>315.0</ele><time>2026-03-30T08:07:03.687Z</time></trkpt><trkpt lat="43.013425" lon="2.514835"><ele>315.2</ele><time>2026-03-30T08:07:04.688Z</time></trkpt><trkpt lat="43.013505" lon="2.5147433"><ele>315.4</ele><time>2026-03-30T08:07:05.688Z</time></trkpt><trkpt lat="43.0135783" lon="2.5146483"><ele>315.6</ele><time>2026-03-30T08:07:06.69Z</time></trkpt><trkpt lat="43.0136617" lon="2.5145633"><ele>315.8</ele><time>2026-03-30T08:07:07.687Z</time></trkpt><trkpt lat="43.0137517" lon="2.5145033"><ele>316.0</ele><time>2026-03-30T08:07:08.688Z</time></trkpt><trkpt lat="43.01385" lon="2.51447"><ele>316.0</ele><time>2026-03-30T08:07:09.687Z</time></trkpt><trkpt lat="43.013945" lon="2.514455"><ele>316.0</ele><time>2026-03-30T08:07:10.686Z</time></trkpt><trkpt lat="43.0140283" lon="2.514445"><ele>316.0</ele><time>2026-03-30T08:07:11.686Z</time></trkpt><trkpt lat="43.014115" lon="2.5144"><ele>316.0</ele><time>2026-03-30T08:07:12.686Z</time></trkpt><trkpt lat="43.0141933" lon="2.5143267"><ele>316.0</ele><time>2026-03-30T08:07:13.686Z</time></trkpt><trkpt lat="43.0142567" lon="2.51423"><ele>318.4</ele><time>2026-03-30T08:07:14.687Z</time></trkpt><trkpt lat="43.0143033" lon="2.51412"><ele>320.8</ele><time>2026-03-30T08:07:15.687Z</time></trkpt><trkpt lat="43.0143417" lon="2.513995"><ele>323.2</ele><time>2026-03-30T08:07:16.687Z</time></trkpt><trkpt lat="43.01437" lon="2.51386"><ele>325.59999999999997</ele><time>2026-03-30T08:07:17.686Z</time></trkpt><trkpt lat="43.0144017" lon="2.5137267"><ele>328.0</ele><time>2026-03-30T08:07:18.687Z</time></trkpt><trkpt lat="43.0144467" lon="2.513595"><ele>329.4</ele><time>2026-03-30T08:07:19.688Z</time></trkpt><trkpt lat="43.0145033" lon="2.5134767"><ele>330.79999999999995</ele><time>2026-03-30T08:07:20.685Z</time></trkpt><trkpt lat="43.0145683" lon="2.513385"><ele>332.2</ele><time>2026-03-30T08:07:21.686Z</time></trkpt><trkpt lat="43.014645" lon="2.5133133"><ele>333.6</ele><time>2026-03-30T08:07:22.685Z</time></trkpt><trkpt lat="43.014725" lon="2.5132367"><ele>335.0</ele><time>2026-03-30T08:07:23.687Z</time></trkpt><trkpt lat="43.0147933" lon="2.5131533"><ele>335.0</ele><time>2026-03-30T08:07:24.687Z</time></trkpt><trkpt lat="43.0148533" lon="2.5130733"><ele>335.0</ele><time>2026-03-30T08:07:25.686Z</time></trkpt><trkpt lat="43.0149083" lon="2.5130167"><ele>335.0</ele><time>2026-03-30T08:07:26.686Z</time></trkpt><trkpt lat="43.0149883" lon="2.5130117"><ele>335.0</ele><time>2026-03-30T08:07:27.686Z</time></trkpt><trkpt lat="43.01506" lon="2.513045"><ele>335.0</ele><time>2026-03-30T08:07:28.687Z</time></trkpt><trkpt lat="43.0151167" lon="2.5131267"><ele>335.0</ele><time>2026-03-30T08:07:29.686Z</time></trkpt><trkpt lat="43.015175" lon="2.5131917"><ele>335.4</ele><time>2026-03-30T08:07:30.686Z</time></trkpt><trkpt lat="43.0152817" lon="2.5131733"><ele>335.8</ele><time>2026-03-30T08:07:32.688Z</time></trkpt><trkpt lat="43.015335" lon="2.5131067"><ele>336.20000000000005</ele><time>2026-03-30T08:07:33.688Z</time></trkpt><trkpt lat="43.015375" lon="2.51299"><ele>336.6</ele><time>2026-03-30T08:07:34.687Z</time></trkpt><trkpt lat="43.0154067" lon="2.512855"><ele>337.0</ele><time>2026-03-30T08:07:35.687Z</time></trkpt><trkpt lat="43.015445" lon="2.5127033"><ele>340.75</ele><time>2026-03-30T08:07:36.688Z</time></trkpt><trkpt lat="43.0154817" lon="2.51255"><ele>344.5</ele><time>2026-03-30T08:07:37.686Z</time></trkpt><trkpt lat="43.015515" lon="2.5124017"><ele>348.25</ele><time>2026-03-30T08:07:38.69Z</time></trkpt><trkpt lat="43.015545" lon="2.51225"><ele>352.0</ele><time>2026-03-30T08:07:39.687Z</time></trkpt><trkpt lat="43.0155667" lon="2.5120967"><ele>352.0</ele><time>2026-03-30T08:07:40.688Z</time></trkpt><trkpt lat="43.0155833" lon="2.5119567"><ele>352.0</ele><time>2026-03-30T08:07:41.687Z</time></trkpt><trkpt lat="43.01561" lon="2.5118317"><ele>352.0</ele><time>2026-03-30T08:07:42.685Z</time></trkpt><trkpt lat="43.015655" lon="2.5117167"><ele>352.0</ele><time>2026-03-30T08:07:43.686Z</time></trkpt><trkpt lat="43.015715" lon="2.511605"><ele>352.0</ele><time>2026-03-30T08:07:44.686Z</time></trkpt><trkpt lat="43.0157733" lon="2.5114983"><ele>351.5</ele><time>2026-03-30T08:07:45.685Z</time></trkpt><trkpt lat="43.0158333" lon="2.5114133"><ele>351.0</ele><time>2026-03-30T08:07:46.686Z</time></trkpt><trkpt lat="43.0158967" lon="2.5113433"><ele>350.5</ele><time>2026-03-30T08:07:47.685Z</time></trkpt><trkpt lat="43.015965" lon="2.5113267"><ele>350.0</ele><time>2026-03-30T08:07:48.687Z</time></trkpt><trkpt lat="43.0160283" lon="2.511345"><ele>349.5</ele><time>2026-03-30T08:07:49.685Z</time></trkpt><trkpt lat="43.016075" lon="2.5114117"><ele>349.0</ele><time>2026-03-30T08:07:50.688Z</time></trkpt><trkpt lat="43.0161183" lon="2.511505"><ele>349.0</ele><time>2026-03-30T08:07:51.685Z</time></trkpt><trkpt lat="43.0161517" lon="2.5116283"><ele>349.0</ele><time>2026-03-30T08:07:52.686Z</time></trkpt><trkpt lat="43.0161933" lon="2.5117533"><ele>349.0</ele><time>2026-03-30T08:07:53.685Z</time></trkpt><trkpt lat="43.0162533" lon="2.5118583"><ele>349.0</ele><time>2026-03-30T08:07:54.685Z</time></trkpt><trkpt lat="43.0163233" lon="2.5119517"><ele>349.0</ele><time>2026-03-30T08:07:55.685Z</time></trkpt><trkpt lat="43.016395" lon="2.5120367"><ele>347.6</ele><time>2026-03-30T08:07:56.686Z</time></trkpt><trkpt lat="43.01646" lon="2.5121183"><ele>346.2</ele><time>2026-03-30T08:07:57.686Z</time></trkpt><trkpt lat="43.0165133" lon="2.5122033"><ele>344.8</ele><time>2026-03-30T08:07:58.686Z</time></trkpt><trkpt lat="43.0165467" lon="2.51231"><ele>343.40000000000003</ele><time>2026-03-30T08:07:59.686Z</time></trkpt><trkpt lat="43.0165733" lon="2.5124367"><ele>342.0</ele><time>2026-03-30T08:08:00.685Z</time></trkpt><trkpt lat="43.016605" lon="2.51257"><ele>342.0</ele><time>2026-03-30T08:08:01.686Z</time></trkpt><trkpt lat="43.016645" lon="2.512695"><ele>342.0</ele><time>2026-03-30T08:08:02.685Z</time></trkpt><trkpt lat="43.0166817" lon="2.5128033"><ele>342.0</ele><time>2026-03-30T08:08:03.684Z</time></trkpt><trkpt lat="43.016715" lon="2.5128883"><ele>342.0</ele><time>2026-03-30T08:08:04.685Z</time></trkpt><trkpt lat="43.0168" lon="2.512945"><ele>342.0</ele><time>2026-03-30T08:08:06.689Z</time></trkpt><trkpt lat="43.0169083" lon="2.5128467"><ele>343.3333333333333</ele><time>2026-03-30T08:08:08.689Z</time></trkpt><trkpt lat="43.0169833" lon="2.512795"><ele>344.6666666666667</ele><time>2026-03-30T08:08:09.687Z</time></trkpt><trkpt lat="43.01705" lon="2.5127317"><ele>346.0</ele><time>2026-03-30T08:08:10.686Z</time></trkpt><trkpt lat="43.0171283" lon="2.5126733"><ele>347.33333333333337</ele><time>2026-03-30T08:08:11.685Z</time></trkpt><trkpt lat="43.0171967" lon="2.51263"><ele>348.6666666666667</ele><time>2026-03-30T08:08:12.686Z</time></trkpt><trkpt lat="43.0172833" lon="2.5126283"><ele>350.0</ele><time>2026-03-30T08:08:13.685Z</time></trkpt><trkpt lat="43.017365" lon="2.5126467"><ele>350.0</ele><time>2026-03-30T08:08:14.686Z</time></trkpt><trkpt lat="43.0174583" lon="2.5126967"><ele>350.0</ele><time>2026-03-30T08:08:15.686Z</time></trkpt><trkpt lat="43.0175517" lon="2.5127633"><ele>350.0</ele><time>2026-03-30T08:08:16.685Z</time></trkpt><trkpt lat="43.0176333" lon="2.5128367"><ele>350.0</ele><time>2026-03-30T08:08:17.685Z</time></trkpt><trkpt lat="43.0177083" lon="2.512925"><ele>350.0</ele><time>2026-03-30T08:08:18.685Z</time></trkpt><trkpt lat="43.0177817" lon="2.5130017"><ele>348.5</ele><time>2026-03-30T08:08:19.685Z</time></trkpt><trkpt lat="43.0178517" lon="2.5130567"><ele>347.0</ele><time>2026-03-30T08:08:20.687Z</time></trkpt><trkpt lat="43.0179217" lon="2.5130733"><ele>345.5</ele><time>2026-03-30T08:08:21.685Z</time></trkpt><trkpt lat="43.0180017" lon="2.513045"><ele>344.0</ele><time>2026-03-30T08:08:22.686Z</time></trkpt><trkpt lat="43.0180967" lon="2.5130117"><ele>342.5</ele><time>2026-03-30T08:08:23.685Z</time></trkpt><trkpt lat="43.0181867" lon="2.5129783"><ele>341.0</ele><time>2026-03-30T08:08:24.686Z</time></trkpt><trkpt lat="43.0182867" lon="2.5129383"><ele>341.0</ele><time>2026-03-30T08:08:25.686Z</time></trkpt><trkpt lat="43.01836" lon="2.5128917"><ele>341.0</ele><time>2026-03-30T08:08:26.685Z</time></trkpt><trkpt lat="43.0184367" lon="2.5128817"><ele>341.0</ele><time>2026-03-30T08:08:27.685Z</time></trkpt><trkpt lat="43.01854" lon="2.5130017"><ele>341.0</ele><time>2026-03-30T08:08:29.687Z</time></trkpt><trkpt lat="43.018585" lon="2.5131017"><ele>341.0</ele><time>2026-03-30T08:08:30.686Z</time></trkpt><trkpt lat="43.01863" lon="2.5132083"><ele>341.0</ele><time>2026-03-30T08:08:31.686Z</time></trkpt><trkpt lat="43.0186833" lon="2.5133083"><ele>341.0</ele><time>2026-03-30T08:08:32.686Z</time></trkpt><trkpt lat="43.01874" lon="2.5133883"><ele>341.0</ele><time>2026-03-30T08:08:33.686Z</time></trkpt><trkpt lat="43.0188333" lon="2.5134317"><ele>341.0</ele><time>2026-03-30T08:08:35.688Z</time></trkpt><trkpt lat="43.018935" lon="2.5132967"><ele>341.0</ele><time>2026-03-30T08:08:37.686Z</time></trkpt><trkpt lat="43.0189933" lon="2.5131967"><ele>341.0</ele><time>2026-03-30T08:08:38.686Z</time></trkpt><trkpt lat="43.0190467" lon="2.513095"><ele>341.0</ele><time>2026-03-30T08:08:39.686Z</time></trkpt><trkpt lat="43.0191" lon="2.5129967"><ele>341.0</ele><time>2026-03-30T08:08:40.686Z</time></trkpt><trkpt lat="43.0191383" lon="2.5129133"><ele>341.0</ele><time>2026-03-30T08:08:41.685Z</time></trkpt><trkpt lat="43.0192133" lon="2.5128533"><ele>341.0</ele><time>2026-03-30T08:08:43.685Z</time></trkpt><trkpt lat="43.01931" lon="2.5128867"><ele>341.0</ele><time>2026-03-30T08:08:45.685Z</time></trkpt><trkpt lat="43.0194" lon="2.5130833"><ele>341.0</ele><time>2026-03-30T08:08:47.685Z</time></trkpt><trkpt lat="43.019445" lon="2.5132217"><ele>341.0</ele><time>2026-03-30T08:08:48.686Z</time></trkpt><trkpt lat="43.0194783" lon="2.5133533"><ele>341.0</ele><time>2026-03-30T08:08:49.686Z</time></trkpt><trkpt lat="43.0195333" lon="2.51345"><ele>341.0</ele><time>2026-03-30T08:08:50.685Z</time></trkpt><trkpt lat="43.0196" lon="2.5135033"><ele>341.0</ele><time>2026-03-30T08:08:51.687Z</time></trkpt><trkpt lat="43.0196783" lon="2.51356"><ele>341.0</ele><time>2026-03-30T08:08:52.686Z</time></trkpt><trkpt lat="43.0197567" lon="2.5136233"><ele>341.0</ele><time>2026-03-30T08:08:53.684Z</time></trkpt><trkpt lat="43.0198483" lon="2.513695"><ele>341.0</ele><time>2026-03-30T08:08:54.684Z</time></trkpt><trkpt lat="43.01994" lon="2.51377"><ele>341.0</ele><time>2026-03-30T08:08:55.684Z</time></trkpt><trkpt lat="43.0200367" lon="2.5138367"><ele>341.0</ele><time>2026-03-30T08:08:56.685Z</time></trkpt><trkpt lat="43.0201233" lon="2.5138983"><ele>337.6</ele><time>2026-03-30T08:08:57.685Z</time></trkpt><trkpt lat="43.0202117" lon="2.51397"><ele>334.20000000000005</ele><time>2026-03-30T08:08:58.686Z</time></trkpt><trkpt lat="43.0202917" lon="2.51405"><ele>330.79999999999995</ele><time>2026-03-30T08:08:59.684Z</time></trkpt><trkpt lat="43.0203683" lon="2.5141417"><ele>327.4</ele><time>2026-03-30T08:09:00.686Z</time></trkpt><trkpt lat="43.020435" lon="2.51423"><ele>324.0</ele><time>2026-03-30T08:09:01.685Z</time></trkpt><trkpt lat="43.0204933" lon="2.5143183"><ele>324.0</ele><time>2026-03-30T08:09:02.686Z</time></trkpt><trkpt lat="43.0205433" lon="2.5143917"><ele>324.0</ele><time>2026-03-30T08:09:03.685Z</time></trkpt><trkpt lat="43.02066" lon="2.5144633"><ele>324.0</ele><time>2026-03-30T08:09:05.685Z</time></trkpt><trkpt lat="43.0207233" lon="2.5144817"><ele>324.0</ele><time>2026-03-30T08:09:06.686Z</time></trkpt><trkpt lat="43.0207883" lon="2.5144717"><ele>324.0</ele><time>2026-03-30T08:09:07.686Z</time></trkpt><trkpt lat="43.0208617" lon="2.5144467"><ele>324.0</ele><time>2026-03-30T08:09:08.69Z</time></trkpt><trkpt lat="43.0209267" lon="2.5144017"><ele>325.79999999999995</ele><time>2026-03-30T08:09:09.687Z</time></trkpt><trkpt lat="43.0210017" lon="2.5143383"><ele>327.59999999999997</ele><time>2026-03-30T08:09:10.686Z</time></trkpt><trkpt lat="43.0210833" lon="2.5142867"><ele>329.4</ele><time>2026-03-30T08:09:11.686Z</time></trkpt><trkpt lat="43.02117" lon="2.5142317"><ele>331.2</ele><time>2026-03-30T08:09:12.685Z</time></trkpt><trkpt lat="43.021255" lon="2.5141767"><ele>333.0</ele><time>2026-03-30T08:09:13.685Z</time></trkpt><trkpt lat="43.0213433" lon="2.5141167"><ele>333.0</ele><time>2026-03-30T08:09:14.684Z</time></trkpt><trkpt lat="43.0214333" lon="2.5140483"><ele>333.0</ele><time>2026-03-30T08:09:15.686Z</time></trkpt><trkpt lat="43.02152" lon="2.5139817"><ele>333.0</ele><time>2026-03-30T08:09:16.685Z</time></trkpt><trkpt lat="43.0216083" lon="2.5139167"><ele>333.0</ele><time>2026-03-30T08:09:17.685Z</time></trkpt><trkpt lat="43.0217017" lon="2.5138633"><ele>333.0</ele><time>2026-03-30T08:09:18.685Z</time></trkpt><trkpt lat="43.0217967" lon="2.513815"><ele>332.5</ele><time>2026-03-30T08:09:19.685Z</time></trkpt><trkpt lat="43.0218733" lon="2.5137833"><ele>332.0</ele><time>2026-03-30T08:09:20.69Z</time></trkpt><trkpt lat="43.0219483" lon="2.5137583"><ele>331.5</ele><time>2026-03-30T08:09:21.687Z</time></trkpt><trkpt lat="43.0220167" lon="2.5138017"><ele>331.0</ele><time>2026-03-30T08:09:23.688Z</time></trkpt><trkpt lat="43.0220317" lon="2.5139183"><ele>330.5</ele><time>2026-03-30T08:09:25.685Z</time></trkpt><trkpt lat="43.0219683" lon="2.5140383"><ele>330.0</ele><time>2026-03-30T08:09:27.684Z</time></trkpt><trkpt lat="43.0219267" lon="2.5141083"><ele>330.0</ele><time>2026-03-30T08:09:28.685Z</time></trkpt><trkpt lat="43.02189" lon="2.5141967"><ele>330.0</ele><time>2026-03-30T08:09:29.688Z</time></trkpt><trkpt lat="43.021865" lon="2.5142967"><ele>330.0</ele><time>2026-03-30T08:09:30.684Z</time></trkpt><trkpt lat="43.02184" lon="2.5144067"><ele>330.0</ele><time>2026-03-30T08:09:31.686Z</time></trkpt><trkpt lat="43.0218083" lon="2.5145283"><ele>330.0</ele><time>2026-03-30T08:09:32.686Z</time></trkpt><trkpt lat="43.021775" lon="2.51465"><ele>330.0</ele><time>2026-03-30T08:09:33.686Z</time></trkpt><trkpt lat="43.021745" lon="2.5147583"><ele>330.0</ele><time>2026-03-30T08:09:34.688Z</time></trkpt><trkpt lat="43.0217233" lon="2.51486"><ele>330.0</ele><time>2026-03-30T08:09:35.686Z</time></trkpt><trkpt lat="43.0217217" lon="2.5149567"><ele>330.0</ele><time>2026-03-30T08:09:36.685Z</time></trkpt><trkpt lat="43.0217333" lon="2.51507"><ele>330.0</ele><time>2026-03-30T08:09:37.687Z</time></trkpt><trkpt lat="43.0217517" lon="2.5151833"><ele>330.0</ele><time>2026-03-30T08:09:38.685Z</time></trkpt><trkpt lat="43.0217717" lon="2.5152917"><ele>330.0</ele><time>2026-03-30T08:09:39.685Z</time></trkpt><trkpt lat="43.02179" lon="2.5153933"><ele>330.6666666666667</ele><time>2026-03-30T08:09:40.686Z</time></trkpt><trkpt lat="43.0217467" lon="2.5155083"><ele>331.3333333333333</ele><time>2026-03-30T08:09:42.686Z</time></trkpt><trkpt lat="43.0216833" lon="2.5155183"><ele>332.0</ele><time>2026-03-30T08:09:43.687Z</time></trkpt><trkpt lat="43.0216133" lon="2.51552"><ele>332.66666666666663</ele><time>2026-03-30T08:09:44.686Z</time></trkpt><trkpt lat="43.0215383" lon="2.5155333"><ele>333.3333333333333</ele><time>2026-03-30T08:09:45.685Z</time></trkpt><trkpt lat="43.0214717" lon="2.5155667"><ele>334.0</ele><time>2026-03-30T08:09:46.684Z</time></trkpt><trkpt lat="43.0214033" lon="2.5156283"><ele>334.0</ele><time>2026-03-30T08:09:47.687Z</time></trkpt><trkpt lat="43.0213283" lon="2.5157183"><ele>334.0</ele><time>2026-03-30T08:09:48.686Z</time></trkpt><trkpt lat="43.021265" lon="2.51582"><ele>334.0</ele><time>2026-03-30T08:09:49.686Z</time></trkpt><trkpt lat="43.021205" lon="2.51594"><ele>334.0</ele><time>2026-03-30T08:09:50.689Z</time></trkpt><trkpt lat="43.02115" lon="2.5160617"><ele>334.0</ele><time>2026-03-30T08:09:51.685Z</time></trkpt><trkpt lat="43.0211033" lon="2.5161767"><ele>336.0</ele><time>2026-03-30T08:09:52.689Z</time></trkpt><trkpt lat="43.02106" lon="2.5162717"><ele>338.0</ele><time>2026-03-30T08:09:53.687Z</time></trkpt><trkpt lat="43.0210167" lon="2.516345"><ele>340.0</ele><time>2026-03-30T08:09:54.687Z</time></trkpt><trkpt lat="43.0209383" lon="2.5163933"><ele>342.0</ele><time>2026-03-30T08:09:56.687Z</time></trkpt><trkpt lat="43.0208433" lon="2.516265"><ele>344.0</ele><time>2026-03-30T08:09:58.685Z</time></trkpt><trkpt lat="43.02079" lon="2.5161833"><ele>344.0</ele><time>2026-03-30T08:09:59.687Z</time></trkpt><trkpt lat="43.0207267" lon="2.5161033"><ele>344.0</ele><time>2026-03-30T08:10:00.688Z</time></trkpt><trkpt lat="43.02066" lon="2.51603"><ele>344.0</ele><time>2026-03-30T08:10:01.689Z</time></trkpt><trkpt lat="43.0205667" lon="2.5159783"><ele>344.0</ele><time>2026-03-30T08:10:02.685Z</time></trkpt><trkpt lat="43.0204733" lon="2.5159333"><ele>344.0</ele><time>2026-03-30T08:10:03.685Z</time></trkpt><trkpt lat="43.0203833" lon="2.5158833"><ele>344.0</ele><time>2026-03-30T08:10:04.687Z</time></trkpt><trkpt lat="43.0202983" lon="2.515835"><ele>344.0</ele><time>2026-03-30T08:10:05.687Z</time></trkpt><trkpt lat="43.02021" lon="2.5158033"><ele>344.0</ele><time>2026-03-30T08:10:06.687Z</time></trkpt><trkpt lat="43.0201167" lon="2.5158083"><ele>344.0</ele><time>2026-03-30T08:10:07.691Z</time></trkpt><trkpt lat="43.0200317" lon="2.5158217"><ele>344.0</ele><time>2026-03-30T08:10:08.685Z</time></trkpt><trkpt lat="43.0199583" lon="2.5158267"><ele>344.0</ele><time>2026-03-30T08:10:09.685Z</time></trkpt><trkpt lat="43.0198817" lon="2.5158317"><ele>341.4</ele><time>2026-03-30T08:10:10.684Z</time></trkpt><trkpt lat="43.0198" lon="2.5158417"><ele>338.79999999999995</ele><time>2026-03-30T08:10:11.684Z</time></trkpt><trkpt lat="43.0197183" lon="2.5158817"><ele>336.20000000000005</ele><time>2026-03-30T08:10:12.685Z</time></trkpt><trkpt lat="43.0196417" lon="2.5159567"><ele>333.6</ele><time>2026-03-30T08:10:13.685Z</time></trkpt><trkpt lat="43.019565" lon="2.51604"><ele>331.0</ele><time>2026-03-30T08:10:14.685Z</time></trkpt><trkpt lat="43.0194883" lon="2.51613"><ele>331.0</ele><time>2026-03-30T08:10:15.686Z</time></trkpt><trkpt lat="43.01941" lon="2.5162233"><ele>331.0</ele><time>2026-03-30T08:10:16.685Z</time></trkpt><trkpt lat="43.0193217" lon="2.5163167"><ele>331.0</ele><time>2026-03-30T08:10:17.684Z</time></trkpt><trkpt lat="43.01922" lon="2.5164033"><ele>331.0</ele><time>2026-03-30T08:10:18.687Z</time></trkpt><trkpt lat="43.019125" lon="2.51648"><ele>331.0</ele><time>2026-03-30T08:10:19.686Z</time></trkpt><trkpt lat="43.0190383" lon="2.5165583"><ele>334.6</ele><time>2026-03-30T08:10:20.685Z</time></trkpt><trkpt lat="43.018955" lon="2.5166367"><ele>338.20000000000005</ele><time>2026-03-30T08:10:21.684Z</time></trkpt><trkpt lat="43.018875" lon="2.516705"><ele>341.79999999999995</ele><time>2026-03-30T08:10:22.687Z</time></trkpt><trkpt lat="43.0188067" lon="2.516765"><ele>345.4</ele><time>2026-03-30T08:10:23.691Z</time></trkpt><trkpt lat="43.018745" lon="2.516815"><ele>349.0</ele><time>2026-03-30T08:10:24.686Z</time></trkpt><trkpt lat="43.0186717" lon="2.5169567"><ele>349.0</ele><time>2026-03-30T08:10:26.686Z</time></trkpt><trkpt lat="43.0186533" lon="2.5170483"><ele>349.0</ele><time>2026-03-30T08:10:27.684Z</time></trkpt><trkpt lat="43.0185583" lon="2.5171367"><ele>349.0</ele><time>2026-03-30T08:10:29.685Z</time></trkpt><trkpt lat="43.0184917" lon="2.5171533"><ele>349.0</ele><time>2026-03-30T08:10:30.685Z</time></trkpt><trkpt lat="43.018405" lon="2.517165"><ele>349.0</ele><time>2026-03-30T08:10:31.685Z</time></trkpt><trkpt lat="43.0182983" lon="2.5172033"><ele>349.0</ele><time>2026-03-30T08:10:32.685Z</time></trkpt><trkpt lat="43.0181883" lon="2.5172533"><ele>350.8333333333333</ele><time>2026-03-30T08:10:33.686Z</time></trkpt><trkpt lat="43.0180883" lon="2.5173083"><ele>352.66666666666663</ele><time>2026-03-30T08:10:34.687Z</time></trkpt><trkpt lat="43.0180033" lon="2.5173267"><ele>354.5</ele><time>2026-03-30T08:10:35.684Z</time></trkpt><trkpt lat="43.0179367" lon="2.5173083"><ele>356.3333333333333</ele><time>2026-03-30T08:10:36.687Z</time></trkpt><trkpt lat="43.0178683" lon="2.5173067"><ele>358.1666666666667</ele><time>2026-03-30T08:10:37.684Z</time></trkpt><trkpt lat="43.017805" lon="2.51736"><ele>360.0</ele><time>2026-03-30T08:10:38.688Z</time></trkpt><trkpt lat="43.0177383" lon="2.517435"><ele>360.0</ele><time>2026-03-30T08:10:39.686Z</time></trkpt><trkpt lat="43.017675" lon="2.517545"><ele>360.0</ele><time>2026-03-30T08:10:40.684Z</time></trkpt><trkpt lat="43.017615" lon="2.5176533"><ele>360.0</ele><time>2026-03-30T08:10:41.684Z</time></trkpt><trkpt lat="43.0175483" lon="2.5177667"><ele>360.0</ele><time>2026-03-30T08:10:42.687Z</time></trkpt><trkpt lat="43.0174867" lon="2.51789"><ele>360.0</ele><time>2026-03-30T08:10:43.684Z</time></trkpt><trkpt lat="43.017425" lon="2.518025"><ele>357.5</ele><time>2026-03-30T08:10:44.684Z</time></trkpt><trkpt lat="43.0173767" lon="2.5181633"><ele>355.0</ele><time>2026-03-30T08:10:45.684Z</time></trkpt><trkpt lat="43.0173267" lon="2.51831"><ele>352.5</ele><time>2026-03-30T08:10:46.685Z</time></trkpt><trkpt lat="43.0172767" lon="2.5184683"><ele>350.0</ele><time>2026-03-30T08:10:47.688Z</time></trkpt><trkpt lat="43.017235" lon="2.5186217"><ele>354.0</ele><time>2026-03-30T08:10:48.686Z</time></trkpt><trkpt lat="43.0171917" lon="2.51876"><ele>358.0</ele><time>2026-03-30T08:10:49.685Z</time></trkpt><trkpt lat="43.0171383" lon="2.5188917"><ele>362.0</ele><time>2026-03-30T08:10:50.689Z</time></trkpt><trkpt lat="43.0170917" lon="2.5190333"><ele>366.0</ele><time>2026-03-30T08:10:51.686Z</time></trkpt><trkpt lat="43.017045" lon="2.5191933"><ele>366.0</ele><time>2026-03-30T08:10:52.684Z</time></trkpt><trkpt lat="43.017" lon="2.519355"><ele>366.0</ele><time>2026-03-30T08:10:53.686Z</time></trkpt><trkpt lat="43.0169667" lon="2.5195233"><ele>366.0</ele><time>2026-03-30T08:10:54.685Z</time></trkpt><trkpt lat="43.0169383" lon="2.5196983"><ele>366.0</ele><time>2026-03-30T08:10:55.685Z</time></trkpt><trkpt lat="43.0169083" lon="2.51988"><ele>369.25</ele><time>2026-03-30T08:10:56.686Z</time></trkpt><trkpt lat="43.01688" lon="2.520055"><ele>372.5</ele><time>2026-03-30T08:10:57.686Z</time></trkpt><trkpt lat="43.016855" lon="2.520235"><ele>375.75</ele><time>2026-03-30T08:10:58.684Z</time></trkpt><trkpt lat="43.0168383" lon="2.5204133"><ele>379.0</ele><time>2026-03-30T08:10:59.686Z</time></trkpt><trkpt lat="43.0168217" lon="2.5205867"><ele>380.75</ele><time>2026-03-30T08:11:00.687Z</time></trkpt><trkpt lat="43.016805" lon="2.5207533"><ele>382.5</ele><time>2026-03-30T08:11:01.687Z</time></trkpt><trkpt lat="43.0167933" lon="2.520905"><ele>384.25</ele><time>2026-03-30T08:11:02.687Z</time></trkpt><trkpt lat="43.0167933" lon="2.5210617"><ele>386.0</ele><time>2026-03-30T08:11:03.686Z</time></trkpt><trkpt lat="43.0168017" lon="2.5212283"><ele>387.0</ele><time>2026-03-30T08:11:04.686Z</time></trkpt><trkpt lat="43.0168083" lon="2.5214"><ele>388.0</ele><time>2026-03-30T08:11:05.686Z</time></trkpt><trkpt lat="43.0168233" lon="2.5215683"><ele>389.0</ele><time>2026-03-30T08:11:06.688Z</time></trkpt><trkpt lat="43.0168417" lon="2.5217333"><ele>390.0</ele><time>2026-03-30T08:11:07.684Z</time></trkpt><trkpt lat="43.0168517" lon="2.5218783"><ele>390.0</ele><time>2026-03-30T08:11:08.687Z</time></trkpt><trkpt lat="43.0168383" lon="2.5220183"><ele>390.0</ele><time>2026-03-30T08:11:09.686Z</time></trkpt><trkpt lat="43.0168167" lon="2.5221433"><ele>390.0</ele><time>2026-03-30T08:11:10.688Z</time></trkpt><trkpt lat="43.0168017" lon="2.522245"><ele>390.0</ele><time>2026-03-30T08:11:11.685Z</time></trkpt><trkpt lat="43.0168017" lon="2.5223417"><ele>390.0</ele><time>2026-03-30T08:11:12.685Z</time></trkpt><trkpt lat="43.01682" lon="2.5224367"><ele>390.0</ele><time>2026-03-30T08:11:13.688Z</time></trkpt><trkpt lat="43.0168417" lon="2.5225367"><ele>391.0</ele><time>2026-03-30T08:11:14.687Z</time></trkpt><trkpt lat="43.01685" lon="2.522645"><ele>392.0</ele><time>2026-03-30T08:11:15.686Z</time></trkpt><trkpt lat="43.0168467" lon="2.5227817"><ele>393.0</ele><time>2026-03-30T08:11:16.686Z</time></trkpt><trkpt lat="43.0168283" lon="2.5229367"><ele>394.0</ele><time>2026-03-30T08:11:17.686Z</time></trkpt><trkpt lat="43.0168017" lon="2.5231033"><ele>395.0</ele><time>2026-03-30T08:11:18.688Z</time></trkpt><trkpt lat="43.0167783" lon="2.5232717"><ele>396.0</ele><time>2026-03-30T08:11:19.688Z</time></trkpt><trkpt lat="43.0167717" lon="2.52344"><ele>397.0</ele><time>2026-03-30T08:11:20.687Z</time></trkpt><trkpt lat="43.0167817" lon="2.523605"><ele>398.0</ele><time>2026-03-30T08:11:21.686Z</time></trkpt><trkpt lat="43.0168" lon="2.5237533"><ele>399.0</ele><time>2026-03-30T08:11:22.685Z</time></trkpt><trkpt lat="43.01683" lon="2.523875"><ele>400.0</ele><time>2026-03-30T08:11:23.686Z</time></trkpt><trkpt lat="43.0168633" lon="2.5239717"><ele>400.33333333333337</ele><time>2026-03-30T08:11:24.686Z</time></trkpt><trkpt lat="43.0169083" lon="2.52404"><ele>400.6666666666667</ele><time>2026-03-30T08:11:25.684Z</time></trkpt><trkpt lat="43.01698" lon="2.5240733"><ele>401.0</ele><time>2026-03-30T08:11:26.686Z</time></trkpt><trkpt lat="43.01707" lon="2.5240833"><ele>401.33333333333337</ele><time>2026-03-30T08:11:27.686Z</time></trkpt><trkpt lat="43.01716" lon="2.5241017"><ele>401.6666666666667</ele><time>2026-03-30T08:11:28.684Z</time></trkpt><trkpt lat="43.01725" lon="2.5241433"><ele>402.0</ele><time>2026-03-30T08:11:29.685Z</time></trkpt><trkpt lat="43.01734" lon="2.5241933"><ele>402.0</ele><time>2026-03-30T08:11:30.686Z</time></trkpt><trkpt lat="43.0174167" lon="2.5242483"><ele>402.0</ele><time>2026-03-30T08:11:31.687Z</time></trkpt><trkpt lat="43.0175" lon="2.5242967"><ele>402.0</ele><time>2026-03-30T08:11:32.687Z</time></trkpt><trkpt lat="43.01758" lon="2.5243417"><ele>402.0</ele><time>2026-03-30T08:11:33.685Z</time></trkpt><trkpt lat="43.0176683" lon="2.52437"><ele>402.0</ele><time>2026-03-30T08:11:34.687Z</time></trkpt><trkpt lat="43.0177717" lon="2.5243667"><ele>405.25</ele><time>2026-03-30T08:11:35.685Z</time></trkpt><trkpt lat="43.0178783" lon="2.52435"><ele>408.5</ele><time>2026-03-30T08:11:36.686Z</time></trkpt><trkpt lat="43.017995" lon="2.52431"><ele>411.75</ele><time>2026-03-30T08:11:37.685Z</time></trkpt><trkpt lat="43.0181067" lon="2.5242717"><ele>415.0</ele><time>2026-03-30T08:11:38.685Z</time></trkpt><trkpt lat="43.0182117" lon="2.5242433"><ele>415.0</ele><time>2026-03-30T08:11:39.686Z</time></trkpt><trkpt lat="43.0183133" lon="2.5242233"><ele>415.0</ele><time>2026-03-30T08:11:40.685Z</time></trkpt><trkpt lat="43.018405" lon="2.5242133"><ele>415.0</ele><time>2026-03-30T08:11:41.686Z</time></trkpt><trkpt lat="43.0184983" lon="2.5241883"><ele>415.0</ele><time>2026-03-30T08:11:42.685Z</time></trkpt><trkpt lat="43.0185817" lon="2.524145"><ele>415.0</ele><time>2026-03-30T08:11:43.687Z</time></trkpt><trkpt lat="43.0186517" lon="2.524075"><ele>416.83333333333337</ele><time>2026-03-30T08:11:44.688Z</time></trkpt><trkpt lat="43.01872" lon="2.5239917"><ele>418.6666666666667</ele><time>2026-03-30T08:11:45.685Z</time></trkpt><trkpt lat="43.01879" lon="2.5239033"><ele>420.5</ele><time>2026-03-30T08:11:46.686Z</time></trkpt><trkpt lat="43.0188583" lon="2.523825"><ele>422.33333333333337</ele><time>2026-03-30T08:11:47.688Z</time></trkpt><trkpt lat="43.0189267" lon="2.523765"><ele>424.1666666666667</ele><time>2026-03-30T08:11:48.685Z</time></trkpt><trkpt lat="43.01898" lon="2.523715"><ele>426.0</ele><time>2026-03-30T08:11:49.685Z</time></trkpt><trkpt lat="43.0190917" lon="2.52372"><ele>425.20000000000005</ele><time>2026-03-30T08:11:51.687Z</time></trkpt><trkpt lat="43.0192167" lon="2.52376"><ele>424.40000000000003</ele><time>2026-03-30T08:11:53.686Z</time></trkpt><trkpt lat="43.0192833" lon="2.523755"><ele>423.6</ele><time>2026-03-30T08:11:54.685Z</time></trkpt><trkpt lat="43.019355" lon="2.5237317"><ele>422.8</ele><time>2026-03-30T08:11:55.685Z</time></trkpt><trkpt lat="43.0194283" lon="2.5236767"><ele>422.0</ele><time>2026-03-30T08:11:56.686Z</time></trkpt><trkpt lat="43.01951" lon="2.5235967"><ele>426.6</ele><time>2026-03-30T08:11:57.686Z</time></trkpt><trkpt lat="43.0195917" lon="2.5235"><ele>431.20000000000005</ele><time>2026-03-30T08:11:58.684Z</time></trkpt><trkpt lat="43.0196833" lon="2.5233983"><ele>435.8</ele><time>2026-03-30T08:11:59.684Z</time></trkpt><trkpt lat="43.0197717" lon="2.5232933"><ele>440.4</ele><time>2026-03-30T08:12:00.685Z</time></trkpt><trkpt lat="43.0198567" lon="2.5232083"><ele>445.0</ele><time>2026-03-30T08:12:01.685Z</time></trkpt><trkpt lat="43.0199333" lon="2.5231417"><ele>444.2</ele><time>2026-03-30T08:12:02.685Z</time></trkpt><trkpt lat="43.0200167" lon="2.5230917"><ele>443.4</ele><time>2026-03-30T08:12:03.686Z</time></trkpt><trkpt lat="43.0201" lon="2.523055"><ele>442.6</ele><time>2026-03-30T08:12:04.686Z</time></trkpt><trkpt lat="43.0201967" lon="2.5230383"><ele>441.8</ele><time>2026-03-30T08:12:05.686Z</time></trkpt><trkpt lat="43.0202933" lon="2.523045"><ele>441.0</ele><time>2026-03-30T08:12:06.686Z</time></trkpt><trkpt lat="43.0203817" lon="2.5230617"><ele>441.0</ele><time>2026-03-30T08:12:07.685Z</time></trkpt><trkpt lat="43.0204733" lon="2.523125"><ele>441.0</ele><time>2026-03-30T08:12:08.685Z</time></trkpt><trkpt lat="43.0205767" lon="2.5231783"><ele>441.0</ele><time>2026-03-30T08:12:09.685Z</time></trkpt><trkpt lat="43.02068" lon="2.5232483"><ele>441.0</ele><time>2026-03-30T08:12:10.689Z</time></trkpt><trkpt lat="43.020775" lon="2.5233233"><ele>441.0</ele><time>2026-03-30T08:12:11.688Z</time></trkpt><trkpt lat="43.0208583" lon="2.5233917"><ele>442.3333333333333</ele><time>2026-03-30T08:12:12.686Z</time></trkpt><trkpt lat="43.0209383" lon="2.5234533"><ele>443.66666666666663</ele><time>2026-03-30T08:12:13.688Z</time></trkpt><trkpt lat="43.0210167" lon="2.5235083"><ele>445.0</ele><time>2026-03-30T08:12:14.687Z</time></trkpt><trkpt lat="43.0210933" lon="2.5235517"><ele>446.3333333333333</ele><time>2026-03-30T08:12:15.687Z</time></trkpt><trkpt lat="43.0211783" lon="2.5235183"><ele>447.66666666666663</ele><time>2026-03-30T08:12:16.685Z</time></trkpt><trkpt lat="43.0212583" lon="2.5234667"><ele>449.0</ele><time>2026-03-30T08:12:17.687Z</time></trkpt><trkpt lat="43.02133" lon="2.5234167"><ele>448.99999999999994</ele><time>2026-03-30T08:12:18.686Z</time></trkpt><trkpt lat="43.0213983" lon="2.523365"><ele>449.0</ele><time>2026-03-30T08:12:19.687Z</time></trkpt><trkpt lat="43.021465" lon="2.5233617"><ele>449.0</ele><time>2026-03-30T08:12:20.689Z</time></trkpt><trkpt lat="43.0215333" lon="2.523405"><ele>449.0</ele><time>2026-03-30T08:12:21.688Z</time></trkpt><trkpt lat="43.0216033" lon="2.5234267"><ele>448.99999999999994</ele><time>2026-03-30T08:12:22.687Z</time></trkpt><trkpt lat="43.0216717" lon="2.5234283"><ele>449.0</ele><time>2026-03-30T08:12:23.686Z</time></trkpt><trkpt lat="43.0217683" lon="2.523285"><ele>449.6</ele><time>2026-03-30T08:12:25.686Z</time></trkpt><trkpt lat="43.0218067" lon="2.5231567"><ele>450.2</ele><time>2026-03-30T08:12:26.689Z</time></trkpt><trkpt lat="43.0218433" lon="2.5230267"><ele>450.80000000000007</ele><time>2026-03-30T08:12:27.686Z</time></trkpt><trkpt lat="43.021885" lon="2.522905"><ele>451.40000000000003</ele><time>2026-03-30T08:12:28.687Z</time></trkpt><trkpt lat="43.02194" lon="2.52279"><ele>452.0</ele><time>2026-03-30T08:12:29.685Z</time></trkpt><trkpt lat="43.0220117" lon="2.52268"><ele>453.8</ele><time>2026-03-30T08:12:30.688Z</time></trkpt><trkpt lat="43.02208" lon="2.5225683"><ele>455.6</ele><time>2026-03-30T08:12:31.687Z</time></trkpt><trkpt lat="43.02215" lon="2.5224517"><ele>457.40000000000003</ele><time>2026-03-30T08:12:32.687Z</time></trkpt><trkpt lat="43.022225" lon="2.5223283"><ele>459.20000000000005</ele><time>2026-03-30T08:12:33.689Z</time></trkpt><trkpt lat="43.0222883" lon="2.5222067"><ele>461.0</ele><time>2026-03-30T08:12:34.689Z</time></trkpt><trkpt lat="43.0223433" lon="2.522085"><ele>460.6</ele><time>2026-03-30T08:12:35.69Z</time></trkpt><trkpt lat="43.0223817" lon="2.521955"><ele>460.20000000000005</ele><time>2026-03-30T08:12:36.69Z</time></trkpt><trkpt lat="43.0224467" lon="2.5218667"><ele>459.79999999999995</ele><time>2026-03-30T08:12:37.686Z</time></trkpt><trkpt lat="43.0225233" lon="2.521785"><ele>459.4</ele><time>2026-03-30T08:12:38.687Z</time></trkpt><trkpt lat="43.0226" lon="2.52169"><ele>459.0</ele><time>2026-03-30T08:12:39.687Z</time></trkpt><trkpt lat="43.022675" lon="2.521585"><ele>459.0</ele><time>2026-03-30T08:12:40.685Z</time></trkpt><trkpt lat="43.02274" lon="2.5214633"><ele>459.0</ele><time>2026-03-30T08:12:41.688Z</time></trkpt><trkpt lat="43.02281" lon="2.5213417"><ele>459.0</ele><time>2026-03-30T08:12:42.688Z</time></trkpt><trkpt lat="43.0228783" lon="2.5212317"><ele>459.0</ele><time>2026-03-30T08:12:43.685Z</time></trkpt><trkpt lat="43.022945" lon="2.521115"><ele>459.0</ele><time>2026-03-30T08:12:44.686Z</time></trkpt><trkpt lat="43.0229983" lon="2.5209833"><ele>459.4</ele><time>2026-03-30T08:12:45.686Z</time></trkpt><trkpt lat="43.0230433" lon="2.5208517"><ele>459.79999999999995</ele><time>2026-03-30T08:12:46.686Z</time></trkpt><trkpt lat="43.023075" lon="2.5207283"><ele>460.20000000000005</ele><time>2026-03-30T08:12:47.689Z</time></trkpt><trkpt lat="43.0231133" lon="2.5206067"><ele>460.6</ele><time>2026-03-30T08:12:48.686Z</time></trkpt><trkpt lat="43.0231583" lon="2.520495"><ele>461.0</ele><time>2026-03-30T08:12:49.686Z</time></trkpt><trkpt lat="43.02321" lon="2.5203767"><ele>460.99999999999994</ele><time>2026-03-30T08:12:50.686Z</time></trkpt><trkpt lat="43.02326" lon="2.5202617"><ele>461.0</ele><time>2026-03-30T08:12:51.686Z</time></trkpt><trkpt lat="43.0233017" lon="2.5201533"><ele>461.0</ele><time>2026-03-30T08:12:52.686Z</time></trkpt><trkpt lat="43.023335" lon="2.520045"><ele>461.0</ele><time>2026-03-30T08:12:53.686Z</time></trkpt><trkpt lat="43.0233767" lon="2.5199383"><ele>460.99999999999994</ele><time>2026-03-30T08:12:54.688Z</time></trkpt><trkpt lat="43.0234233" lon="2.5198383"><ele>461.0</ele><time>2026-03-30T08:12:55.685Z</time></trkpt><trkpt lat="43.0234817" lon="2.5197533"><ele>459.6</ele><time>2026-03-30T08:12:56.689Z</time></trkpt><trkpt lat="43.0235533" lon="2.5196767"><ele>458.20000000000005</ele><time>2026-03-30T08:12:57.687Z</time></trkpt><trkpt lat="43.023635" lon="2.5196"><ele>456.79999999999995</ele><time>2026-03-30T08:12:58.686Z</time></trkpt><trkpt lat="43.0237183" lon="2.5195167"><ele>455.4</ele><time>2026-03-30T08:12:59.687Z</time></trkpt><trkpt lat="43.0237933" lon="2.5194133"><ele>454.0</ele><time>2026-03-30T08:13:00.687Z</time></trkpt><trkpt lat="43.023865" lon="2.519295"><ele>453.6666666666667</ele><time>2026-03-30T08:13:01.689Z</time></trkpt><trkpt lat="43.0239183" lon="2.5191833"><ele>453.33333333333337</ele><time>2026-03-30T08:13:02.687Z</time></trkpt><trkpt lat="43.023965" lon="2.519085"><ele>453.0</ele><time>2026-03-30T08:13:03.686Z</time></trkpt><trkpt lat="43.02402" lon="2.5190033"><ele>452.66666666666663</ele><time>2026-03-30T08:13:04.687Z</time></trkpt><trkpt lat="43.0240783" lon="2.5189417"><ele>452.3333333333333</ele><time>2026-03-30T08:13:05.686Z</time></trkpt><trkpt lat="43.024135" lon="2.5188917"><ele>452.0</ele><time>2026-03-30T08:13:06.686Z</time></trkpt><trkpt lat="43.024225" lon="2.51889"><ele>452.0</ele><time>2026-03-30T08:13:07.686Z</time></trkpt><trkpt lat="43.024325" lon="2.5188983"><ele>452.00000000000006</ele><time>2026-03-30T08:13:08.687Z</time></trkpt><trkpt lat="43.0244367" lon="2.5189083"><ele>452.00000000000006</ele><time>2026-03-30T08:13:09.685Z</time></trkpt><trkpt lat="43.0245533" lon="2.5189317"><ele>452.0</ele><time>2026-03-30T08:13:10.686Z</time></trkpt><trkpt lat="43.0246533" lon="2.5189617"><ele>452.0</ele><time>2026-03-30T08:13:11.688Z</time></trkpt><trkpt lat="43.0247383" lon="2.5189867"><ele>451.99999999999994</ele><time>2026-03-30T08:13:12.686Z</time></trkpt><trkpt lat="43.02482" lon="2.5189833"><ele>452.0</ele><time>2026-03-30T08:13:13.686Z</time></trkpt><trkpt lat="43.0249" lon="2.518955"><ele>452.0</ele><time>2026-03-30T08:13:14.687Z</time></trkpt><trkpt lat="43.0249683" lon="2.518905"><ele>452.0</ele><time>2026-03-30T08:13:15.686Z</time></trkpt><trkpt lat="43.025045" lon="2.51883"><ele>451.99999999999994</ele><time>2026-03-30T08:13:16.688Z</time></trkpt><trkpt lat="43.02512" lon="2.5187383"><ele>452.0</ele><time>2026-03-30T08:13:17.686Z</time></trkpt><trkpt lat="43.0251917" lon="2.51862"><ele>454.0</ele><time>2026-03-30T08:13:18.688Z</time></trkpt><trkpt lat="43.0252467" lon="2.518485"><ele>456.0</ele><time>2026-03-30T08:13:19.686Z</time></trkpt><trkpt lat="43.0252883" lon="2.518335"><ele>458.0</ele><time>2026-03-30T08:13:20.687Z</time></trkpt><trkpt lat="43.0253217" lon="2.518185"><ele>460.0</ele><time>2026-03-30T08:13:21.691Z</time></trkpt><trkpt lat="43.025345" lon="2.51804"><ele>460.0</ele><time>2026-03-30T08:13:22.685Z</time></trkpt><trkpt lat="43.025355" lon="2.5179033"><ele>460.0</ele><time>2026-03-30T08:13:23.686Z</time></trkpt><trkpt lat="43.02537" lon="2.5177733"><ele>460.0</ele><time>2026-03-30T08:13:24.686Z</time></trkpt><trkpt lat="43.0253817" lon="2.51765"><ele>460.0</ele><time>2026-03-30T08:13:25.686Z</time></trkpt><trkpt lat="43.0254017" lon="2.517515"><ele>460.0</ele><time>2026-03-30T08:13:26.686Z</time></trkpt><trkpt lat="43.025435" lon="2.5173667"><ele>460.6</ele><time>2026-03-30T08:13:27.688Z</time></trkpt><trkpt lat="43.0254683" lon="2.517215"><ele>461.2</ele><time>2026-03-30T08:13:28.685Z</time></trkpt><trkpt lat="43.0255033" lon="2.5170683"><ele>461.79999999999995</ele><time>2026-03-30T08:13:29.687Z</time></trkpt><trkpt lat="43.02554" lon="2.51693"><ele>462.4</ele><time>2026-03-30T08:13:30.685Z</time></trkpt><trkpt lat="43.0255767" lon="2.5168067"><ele>463.0</ele><time>2026-03-30T08:13:31.687Z</time></trkpt><trkpt lat="43.0256183" lon="2.5167067"><ele>463.33333333333337</ele><time>2026-03-30T08:13:32.686Z</time></trkpt><trkpt lat="43.025665" lon="2.5166167"><ele>463.6666666666667</ele><time>2026-03-30T08:13:33.687Z</time></trkpt><trkpt lat="43.0257167" lon="2.516535"><ele>464.0</ele><time>2026-03-30T08:13:34.685Z</time></trkpt><trkpt lat="43.025785" lon="2.5164783"><ele>464.33333333333337</ele><time>2026-03-30T08:13:35.685Z</time></trkpt><trkpt lat="43.0258617" lon="2.51644"><ele>464.6666666666667</ele><time>2026-03-30T08:13:36.685Z</time></trkpt><trkpt lat="43.0259433" lon="2.5164217"><ele>465.0</ele><time>2026-03-30T08:13:37.686Z</time></trkpt><trkpt lat="43.0260167" lon="2.51641"><ele>462.0</ele><time>2026-03-30T08:13:38.686Z</time></trkpt><trkpt lat="43.0260917" lon="2.51642"><ele>459.0</ele><time>2026-03-30T08:13:39.685Z</time></trkpt><trkpt lat="43.02616" lon="2.51642"><ele>456.0</ele><time>2026-03-30T08:13:40.685Z</time></trkpt><trkpt lat="43.0262517" lon="2.5163017"><ele>453.0</ele><time>2026-03-30T08:13:42.684Z</time></trkpt><trkpt lat="43.0262733" lon="2.5161883"><ele>450.0</ele><time>2026-03-30T08:13:43.685Z</time></trkpt><trkpt lat="43.026285" lon="2.5160817"><ele>447.0</ele><time>2026-03-30T08:13:44.686Z</time></trkpt><trkpt lat="43.0262983" lon="2.5159917"><ele>447.0</ele><time>2026-03-30T08:13:45.684Z</time></trkpt><trkpt lat="43.0263483" lon="2.51588"><ele>447.0</ele><time>2026-03-30T08:13:47.688Z</time></trkpt><trkpt lat="43.02643" lon="2.5158367"><ele>447.0</ele><time>2026-03-30T08:13:49.685Z</time></trkpt><trkpt lat="43.026505" lon="2.5159067"><ele>447.0</ele><time>2026-03-30T08:13:51.686Z</time></trkpt><trkpt lat="43.02652" lon="2.5160033"><ele>447.0</ele><time>2026-03-30T08:13:52.687Z</time></trkpt><trkpt lat="43.0265283" lon="2.5161117"><ele>447.0</ele><time>2026-03-30T08:13:53.685Z</time></trkpt><trkpt lat="43.0265583" lon="2.5162567"><ele>445.5</ele><time>2026-03-30T08:13:55.685Z</time></trkpt><trkpt lat="43.0266683" lon="2.5163717"><ele>444.0</ele><time>2026-03-30T08:13:57.686Z</time></trkpt><trkpt lat="43.0267567" lon="2.5164317"><ele>442.5</ele><time>2026-03-30T08:13:58.685Z</time></trkpt><trkpt lat="43.0268633" lon="2.5164917"><ele>441.0</ele><time>2026-03-30T08:13:59.689Z</time></trkpt><trkpt lat="43.0269683" lon="2.5165467"><ele>441.0</ele><time>2026-03-30T08:14:00.686Z</time></trkpt><trkpt lat="43.0270767" lon="2.5166033"><ele>441.0</ele><time>2026-03-30T08:14:01.689Z</time></trkpt><trkpt lat="43.0271967" lon="2.5166617"><ele>441.0</ele><time>2026-03-30T08:14:02.687Z</time></trkpt><trkpt lat="43.0273133" lon="2.516705"><ele>441.0</ele><time>2026-03-30T08:14:03.686Z</time></trkpt><trkpt lat="43.0274317" lon="2.5167467"><ele>443.75</ele><time>2026-03-30T08:14:04.686Z</time></trkpt><trkpt lat="43.0275467" lon="2.5167833"><ele>446.5</ele><time>2026-03-30T08:14:05.686Z</time></trkpt><trkpt lat="43.027655" lon="2.51682"><ele>449.25</ele><time>2026-03-30T08:14:06.686Z</time></trkpt><trkpt lat="43.02777" lon="2.5168617"><ele>452.0</ele><time>2026-03-30T08:14:07.686Z</time></trkpt><trkpt lat="43.0278617" lon="2.51692"><ele>452.0</ele><time>2026-03-30T08:14:08.687Z</time></trkpt><trkpt lat="43.02795" lon="2.5170067"><ele>452.0</ele><time>2026-03-30T08:14:09.686Z</time></trkpt><trkpt lat="43.02804" lon="2.5171033"><ele>452.0</ele><time>2026-03-30T08:14:10.686Z</time></trkpt><trkpt lat="43.0281217" lon="2.5172233"><ele>452.0</ele><time>2026-03-30T08:14:11.687Z</time></trkpt><trkpt lat="43.02821" lon="2.5173683"><ele>451.5</ele><time>2026-03-30T08:14:12.686Z</time></trkpt><trkpt lat="43.0283017" lon="2.5175133"><ele>451.0</ele><time>2026-03-30T08:14:13.685Z</time></trkpt><trkpt lat="43.0283833" lon="2.5176583"><ele>450.5</ele><time>2026-03-30T08:14:14.688Z</time></trkpt><trkpt lat="43.0284617" lon="2.5178117"><ele>450.0</ele><time>2026-03-30T08:14:15.686Z</time></trkpt><trkpt lat="43.02853" lon="2.5179633"><ele>450.0</ele><time>2026-03-30T08:14:16.685Z</time></trkpt><trkpt lat="43.0285883" lon="2.5180883"><ele>450.0</ele><time>2026-03-30T08:14:17.687Z</time></trkpt><trkpt lat="43.0286217" lon="2.518205"><ele>450.0</ele><time>2026-03-30T08:14:18.686Z</time></trkpt><trkpt lat="43.0286333" lon="2.5183283"><ele>450.0</ele><time>2026-03-30T08:14:19.685Z</time></trkpt><trkpt lat="43.0286283" lon="2.5184483"><ele>450.0</ele><time>2026-03-30T08:14:20.685Z</time></trkpt><trkpt lat="43.0286267" lon="2.51856"><ele>450.0</ele><time>2026-03-30T08:14:21.686Z</time></trkpt><trkpt lat="43.0286467" lon="2.5186567"><ele>450.0</ele><time>2026-03-30T08:14:22.686Z</time></trkpt><trkpt lat="43.0286867" lon="2.5187367"><ele>450.0</ele><time>2026-03-30T08:14:23.685Z</time></trkpt><trkpt lat="43.0287483" lon="2.518785"><ele>450.0</ele><time>2026-03-30T08:14:24.686Z</time></trkpt><trkpt lat="43.0288283" lon="2.5188033"><ele>450.0</ele><time>2026-03-30T08:14:25.685Z</time></trkpt><trkpt lat="43.0289117" lon="2.5188083"><ele>450.0</ele><time>2026-03-30T08:14:26.685Z</time></trkpt><trkpt lat="43.0289983" lon="2.518825"><ele>448.8</ele><time>2026-03-30T08:14:27.684Z</time></trkpt><trkpt lat="43.0290883" lon="2.5188833"><ele>447.6</ele><time>2026-03-30T08:14:28.686Z</time></trkpt><trkpt lat="43.0291683" lon="2.518985"><ele>446.4</ele><time>2026-03-30T08:14:29.684Z</time></trkpt><trkpt lat="43.029255" lon="2.5190817"><ele>445.2</ele><time>2026-03-30T08:14:30.686Z</time></trkpt><trkpt lat="43.029345" lon="2.5191767"><ele>444.0</ele><time>2026-03-30T08:14:31.684Z</time></trkpt><trkpt lat="43.02942" lon="2.51926"><ele>445.4</ele><time>2026-03-30T08:14:32.686Z</time></trkpt><trkpt lat="43.02948" lon="2.5193217"><ele>446.79999999999995</ele><time>2026-03-30T08:14:33.686Z</time></trkpt><trkpt lat="43.0295367" lon="2.519375"><ele>448.20000000000005</ele><time>2026-03-30T08:14:34.685Z</time></trkpt><trkpt lat="43.0296067" lon="2.5194867"><ele>449.6</ele><time>2026-03-30T08:14:36.686Z</time></trkpt><trkpt lat="43.0296" lon="2.5196533"><ele>451.0</ele><time>2026-03-30T08:14:38.685Z</time></trkpt><trkpt lat="43.02957" lon="2.5197667"><ele>451.0</ele><time>2026-03-30T08:14:39.685Z</time></trkpt><trkpt lat="43.0295283" lon="2.5198783"><ele>451.0</ele><time>2026-03-30T08:14:40.686Z</time></trkpt><trkpt lat="43.029485" lon="2.519995"><ele>451.0</ele><time>2026-03-30T08:14:41.686Z</time></trkpt><trkpt lat="43.0294433" lon="2.520115"><ele>451.0</ele><time>2026-03-30T08:14:42.684Z</time></trkpt><trkpt lat="43.0294167" lon="2.5202383"><ele>451.0</ele><time>2026-03-30T08:14:43.686Z</time></trkpt><trkpt lat="43.0294217" lon="2.52036"><ele>448.8</ele><time>2026-03-30T08:14:44.687Z</time></trkpt><trkpt lat="43.0294617" lon="2.5204683"><ele>446.6</ele><time>2026-03-30T08:14:45.685Z</time></trkpt><trkpt lat="43.0295417" lon="2.5205717"><ele>444.4</ele><time>2026-03-30T08:14:46.685Z</time></trkpt><trkpt lat="43.02963" lon="2.5206417"><ele>442.2</ele><time>2026-03-30T08:14:47.684Z</time></trkpt><trkpt lat="43.0297217" lon="2.5207017"><ele>440.0</ele><time>2026-03-30T08:14:48.688Z</time></trkpt><trkpt lat="43.0298117" lon="2.5207633"><ele>440.0</ele><time>2026-03-30T08:14:49.686Z</time></trkpt><trkpt lat="43.0298933" lon="2.52083"><ele>440.0</ele><time>2026-03-30T08:14:50.687Z</time></trkpt><trkpt lat="43.029975" lon="2.5209067"><ele>440.0</ele><time>2026-03-30T08:14:51.685Z</time></trkpt><trkpt lat="43.0300467" lon="2.52101"><ele>440.0</ele><time>2026-03-30T08:14:52.685Z</time></trkpt><trkpt lat="43.0301083" lon="2.5211417"><ele>440.0</ele><time>2026-03-30T08:14:53.688Z</time></trkpt><trkpt lat="43.0301533" lon="2.5212817"><ele>443.6</ele><time>2026-03-30T08:14:54.686Z</time></trkpt><trkpt lat="43.0301867" lon="2.5214233"><ele>447.2</ele><time>2026-03-30T08:14:55.686Z</time></trkpt><trkpt lat="43.0302033" lon="2.5215583"><ele>450.79999999999995</ele><time>2026-03-30T08:14:56.687Z</time></trkpt><trkpt lat="43.0301967" lon="2.5216933"><ele>454.4</ele><time>2026-03-30T08:14:57.685Z</time></trkpt><trkpt lat="43.0301617" lon="2.5218333"><ele>458.0</ele><time>2026-03-30T08:14:58.686Z</time></trkpt><trkpt lat="43.03012" lon="2.52199"><ele>457.5</ele><time>2026-03-30T08:14:59.685Z</time></trkpt><trkpt lat="43.030075" lon="2.5221567"><ele>457.0</ele><time>2026-03-30T08:15:00.687Z</time></trkpt><trkpt lat="43.0300317" lon="2.5223367"><ele>456.5</ele><time>2026-03-30T08:15:01.687Z</time></trkpt><trkpt lat="43.0299817" lon="2.5225217"><ele>456.0</ele><time>2026-03-30T08:15:02.686Z</time></trkpt><trkpt lat="43.029915" lon="2.5226833"><ele>450.75</ele><time>2026-03-30T08:15:03.685Z</time></trkpt><trkpt lat="43.0298533" lon="2.5228367"><ele>445.5</ele><time>2026-03-30T08:15:04.687Z</time></trkpt><trkpt lat="43.029805" lon="2.5229917"><ele>440.25</ele><time>2026-03-30T08:15:05.688Z</time></trkpt><trkpt lat="43.0297733" lon="2.5231517"><ele>435.0</ele><time>2026-03-30T08:15:06.686Z</time></trkpt><trkpt lat="43.02977" lon="2.5233133"><ele>435.0</ele><time>2026-03-30T08:15:07.685Z</time></trkpt><trkpt lat="43.0298" lon="2.5234733"><ele>435.0</ele><time>2026-03-30T08:15:08.688Z</time></trkpt><trkpt lat="43.0298617" lon="2.523625"><ele>435.0</ele><time>2026-03-30T08:15:09.686Z</time></trkpt><trkpt lat="43.0299517" lon="2.523765"><ele>435.0</ele><time>2026-03-30T08:15:10.686Z</time></trkpt><trkpt lat="43.030055" lon="2.523895"><ele>439.0</ele><time>2026-03-30T08:15:11.69Z</time></trkpt><trkpt lat="43.03015" lon="2.52404"><ele>443.0</ele><time>2026-03-30T08:15:12.689Z</time></trkpt><trkpt lat="43.0302467" lon="2.5242117"><ele>447.0</ele><time>2026-03-30T08:15:13.685Z</time></trkpt><trkpt lat="43.0303483" lon="2.5243783"><ele>447.0</ele><time>2026-03-30T08:15:14.688Z</time></trkpt><trkpt lat="43.0304567" lon="2.5245267"><ele>447.0</ele><time>2026-03-30T08:15:15.688Z</time></trkpt><trkpt lat="43.0305633" lon="2.5246517"><ele>447.0</ele><time>2026-03-30T08:15:16.687Z</time></trkpt><trkpt lat="43.0306583" lon="2.52477"><ele>447.0</ele><time>2026-03-30T08:15:17.688Z</time></trkpt><trkpt lat="43.0307983" lon="2.5250383"><ele>449.75</ele><time>2026-03-30T08:15:19.694Z</time></trkpt><trkpt lat="43.030845" lon="2.5251767"><ele>452.5</ele><time>2026-03-30T08:15:20.686Z</time></trkpt><trkpt lat="43.030865" lon="2.5253317"><ele>455.25</ele><time>2026-03-30T08:15:21.685Z</time></trkpt><trkpt lat="43.03087" lon="2.5255117"><ele>458.0</ele><time>2026-03-30T08:15:22.685Z</time></trkpt><trkpt lat="43.0308683" lon="2.52571"><ele>458.0</ele><time>2026-03-30T08:15:23.687Z</time></trkpt><trkpt lat="43.030855" lon="2.5259067"><ele>458.0</ele><time>2026-03-30T08:15:24.686Z</time></trkpt><trkpt lat="43.03084" lon="2.5261133"><ele>458.0</ele><time>2026-03-30T08:15:25.688Z</time></trkpt><trkpt lat="43.0308317" lon="2.5263233"><ele>458.25</ele><time>2026-03-30T08:15:26.685Z</time></trkpt><trkpt lat="43.0308317" lon="2.5265167"><ele>458.5</ele><time>2026-03-30T08:15:27.685Z</time></trkpt><trkpt lat="43.030825" lon="2.526695"><ele>458.75</ele><time>2026-03-30T08:15:28.686Z</time></trkpt><trkpt lat="43.030815" lon="2.526855"><ele>459.0</ele><time>2026-03-30T08:15:29.685Z</time></trkpt><trkpt lat="43.03082" lon="2.5270117"><ele>458.5</ele><time>2026-03-30T08:15:30.685Z</time></trkpt><trkpt lat="43.0308233" lon="2.5271783"><ele>458.0</ele><time>2026-03-30T08:15:31.685Z</time></trkpt><trkpt lat="43.03084" lon="2.5273517"><ele>457.5</ele><time>2026-03-30T08:15:32.686Z</time></trkpt><trkpt lat="43.0308833" lon="2.5275183"><ele>457.0</ele><time>2026-03-30T08:15:33.686Z</time></trkpt><trkpt lat="43.0309467" lon="2.5276717"><ele>457.0</ele><time>2026-03-30T08:15:34.685Z</time></trkpt><trkpt lat="43.0310283" lon="2.5278017"><ele>457.0</ele><time>2026-03-30T08:15:35.686Z</time></trkpt><trkpt lat="43.0311167" lon="2.527925"><ele>457.0</ele><time>2026-03-30T08:15:36.686Z</time></trkpt><trkpt lat="43.0312133" lon="2.5280517"><ele>457.0</ele><time>2026-03-30T08:15:37.686Z</time></trkpt><trkpt lat="43.0313083" lon="2.528175"><ele>452.5</ele><time>2026-03-30T08:15:38.688Z</time></trkpt><trkpt lat="43.0314" lon="2.5283117"><ele>448.0</ele><time>2026-03-30T08:15:39.686Z</time></trkpt><trkpt lat="43.0314833" lon="2.5284567"><ele>443.5</ele><time>2026-03-30T08:15:40.687Z</time></trkpt><trkpt lat="43.0315417" lon="2.5286133"><ele>439.0</ele><time>2026-03-30T08:15:41.686Z</time></trkpt><trkpt lat="43.03158" lon="2.5287867"><ele>435.75</ele><time>2026-03-30T08:15:42.687Z</time></trkpt><trkpt lat="43.0316133" lon="2.5289683"><ele>432.5</ele><time>2026-03-30T08:15:43.689Z</time></trkpt><trkpt lat="43.03164" lon="2.52914"><ele>429.25</ele><time>2026-03-30T08:15:44.687Z</time></trkpt><trkpt lat="43.0316517" lon="2.5293"><ele>426.0</ele><time>2026-03-30T08:15:45.686Z</time></trkpt><trkpt lat="43.0316483" lon="2.5294567"><ele>426.75</ele><time>2026-03-30T08:15:46.686Z</time></trkpt><trkpt lat="43.0316217" lon="2.52961"><ele>427.5</ele><time>2026-03-30T08:15:47.684Z</time></trkpt><trkpt lat="43.0315767" lon="2.5297567"><ele>428.25</ele><time>2026-03-30T08:15:48.688Z</time></trkpt><trkpt lat="43.0315317" lon="2.5299083"><ele>429.0</ele><time>2026-03-30T08:15:49.685Z</time></trkpt><trkpt lat="43.031495" lon="2.53008"><ele>429.0</ele><time>2026-03-30T08:15:50.688Z</time></trkpt><trkpt lat="43.0314767" lon="2.5302533"><ele>429.0</ele><time>2026-03-30T08:15:51.685Z</time></trkpt><trkpt lat="43.0314733" lon="2.5304183"><ele>429.0</ele><time>2026-03-30T08:15:52.685Z</time></trkpt><trkpt lat="43.0314983" lon="2.53057"><ele>429.0</ele><time>2026-03-30T08:15:53.686Z</time></trkpt><trkpt lat="43.0315533" lon="2.530725"><ele>427.5</ele><time>2026-03-30T08:15:54.686Z</time></trkpt><trkpt lat="43.03162" lon="2.5308783"><ele>426.0</ele><time>2026-03-30T08:15:55.692Z</time></trkpt><trkpt lat="43.0317067" lon="2.5310167"><ele>424.5</ele><time>2026-03-30T08:15:56.686Z</time></trkpt><trkpt lat="43.0317983" lon="2.5311483"><ele>423.0</ele><time>2026-03-30T08:15:57.686Z</time></trkpt><trkpt lat="43.0318783" lon="2.5312767"><ele>426.25</ele><time>2026-03-30T08:15:58.685Z</time></trkpt><trkpt lat="43.0319383" lon="2.5314067"><ele>429.5</ele><time>2026-03-30T08:15:59.686Z</time></trkpt><trkpt lat="43.031975" lon="2.5315533"><ele>432.75</ele><time>2026-03-30T08:16:00.687Z</time></trkpt><trkpt lat="43.0319917" lon="2.5317117"><ele>436.0</ele><time>2026-03-30T08:16:01.687Z</time></trkpt><trkpt lat="43.0319933" lon="2.531865"><ele>436.0</ele><time>2026-03-30T08:16:02.685Z</time></trkpt><trkpt lat="43.0320083" lon="2.5320167"><ele>436.0</ele><time>2026-03-30T08:16:03.685Z</time></trkpt><trkpt lat="43.03205" lon="2.5321517"><ele>436.0</ele><time>2026-03-30T08:16:04.686Z</time></trkpt><trkpt lat="43.03212" lon="2.532285"><ele>436.0</ele><time>2026-03-30T08:16:05.687Z</time></trkpt><trkpt lat="43.03219" lon="2.5324083"><ele>433.8</ele><time>2026-03-30T08:16:06.686Z</time></trkpt><trkpt lat="43.0322583" lon="2.5325317"><ele>431.6</ele><time>2026-03-30T08:16:07.686Z</time></trkpt><trkpt lat="43.0323083" lon="2.5326483"><ele>429.4</ele><time>2026-03-30T08:16:08.685Z</time></trkpt><trkpt lat="43.03232" lon="2.532765"><ele>427.2</ele><time>2026-03-30T08:16:09.687Z</time></trkpt><trkpt lat="43.03229" lon="2.5328933"><ele>425.0</ele><time>2026-03-30T08:16:10.685Z</time></trkpt><trkpt lat="43.03224" lon="2.53303"><ele>424.75</ele><time>2026-03-30T08:16:11.685Z</time></trkpt><trkpt lat="43.0322133" lon="2.5331717"><ele>424.5</ele><time>2026-03-30T08:16:12.686Z</time></trkpt><trkpt lat="43.0322017" lon="2.533325"><ele>424.25</ele><time>2026-03-30T08:16:13.685Z</time></trkpt><trkpt lat="43.0322017" lon="2.53349"><ele>424.0</ele><time>2026-03-30T08:16:14.685Z</time></trkpt><trkpt lat="43.0322017" lon="2.5336567"><ele>425.2</ele><time>2026-03-30T08:16:15.685Z</time></trkpt><trkpt lat="43.032215" lon="2.53382"><ele>426.4</ele><time>2026-03-30T08:16:16.686Z</time></trkpt><trkpt lat="43.0322483" lon="2.5339683"><ele>427.6</ele><time>2026-03-30T08:16:17.686Z</time></trkpt><trkpt lat="43.03228" lon="2.5341033"><ele>428.8</ele><time>2026-03-30T08:16:18.685Z</time></trkpt><trkpt lat="43.0323133" lon="2.5342117"><ele>430.0</ele><time>2026-03-30T08:16:19.686Z</time></trkpt><trkpt lat="43.0323317" lon="2.5342983"><ele>430.0</ele><time>2026-03-30T08:16:20.685Z</time></trkpt><trkpt lat="43.0323183" lon="2.53443"><ele>430.0</ele><time>2026-03-30T08:16:22.69Z</time></trkpt><trkpt lat="43.0322583" lon="2.534485"><ele>430.0</ele><time>2026-03-30T08:16:23.686Z</time></trkpt><trkpt lat="43.03217" lon="2.5345317"><ele>430.0</ele><time>2026-03-30T08:16:24.689Z</time></trkpt><trkpt lat="43.03207" lon="2.534555"><ele>430.0</ele><time>2026-03-30T08:16:25.686Z</time></trkpt><trkpt lat="43.0319367" lon="2.5345817"><ele>429.75</ele><time>2026-03-30T08:16:26.686Z</time></trkpt><trkpt lat="43.0318217" lon="2.5346067"><ele>429.5</ele><time>2026-03-30T08:16:27.685Z</time></trkpt><trkpt lat="43.0316983" lon="2.534655"><ele>429.25</ele><time>2026-03-30T08:16:28.688Z</time></trkpt><trkpt lat="43.0315833" lon="2.5346867"><ele>429.0</ele><time>2026-03-30T08:16:29.684Z</time></trkpt><trkpt lat="43.0314667" lon="2.5347117"><ele>429.0</ele><time>2026-03-30T08:16:30.685Z</time></trkpt><trkpt lat="43.0313483" lon="2.5347233"><ele>429.0</ele><time>2026-03-30T08:16:31.686Z</time></trkpt><trkpt lat="43.0312267" lon="2.5347433"><ele>429.0</ele><time>2026-03-30T08:16:32.687Z</time></trkpt><trkpt lat="43.03111" lon="2.53478"><ele>429.0</ele><time>2026-03-30T08:16:33.685Z</time></trkpt><trkpt lat="43.0309967" lon="2.5348383"><ele>429.0</ele><time>2026-03-30T08:16:34.685Z</time></trkpt><trkpt lat="43.030885" lon="2.5349"><ele>429.0</ele><time>2026-03-30T08:16:35.685Z</time></trkpt><trkpt lat="43.0307733" lon="2.5349583"><ele>429.0</ele><time>2026-03-30T08:16:36.686Z</time></trkpt><trkpt lat="43.0306767" lon="2.534995"><ele>429.0</ele><time>2026-03-30T08:16:37.685Z</time></trkpt><trkpt lat="43.0305933" lon="2.5349983"><ele>429.0</ele><time>2026-03-30T08:16:38.685Z</time></trkpt><trkpt lat="43.0305017" lon="2.5349833"><ele>429.4</ele><time>2026-03-30T08:16:39.685Z</time></trkpt><trkpt lat="43.0304133" lon="2.53492"><ele>429.79999999999995</ele><time>2026-03-30T08:16:40.689Z</time></trkpt><trkpt lat="43.0303283" lon="2.5348333"><ele>430.20000000000005</ele><time>2026-03-30T08:16:41.686Z</time></trkpt><trkpt lat="43.0302417" lon="2.5347417"><ele>430.6</ele><time>2026-03-30T08:16:42.686Z</time></trkpt><trkpt lat="43.0301533" lon="2.5346617"><ele>431.0</ele><time>2026-03-30T08:16:43.686Z</time></trkpt><trkpt lat="43.0300517" lon="2.5346083"><ele>429.5</ele><time>2026-03-30T08:16:44.686Z</time></trkpt><trkpt lat="43.029935" lon="2.5345717"><ele>428.0</ele><time>2026-03-30T08:16:45.686Z</time></trkpt><trkpt lat="43.0298133" lon="2.5345367"><ele>426.5</ele><time>2026-03-30T08:16:46.685Z</time></trkpt><trkpt lat="43.0296933" lon="2.5345067"><ele>425.0</ele><time>2026-03-30T08:16:47.689Z</time></trkpt><trkpt lat="43.02957" lon="2.5344917"><ele>418.25</ele><time>2026-03-30T08:16:48.686Z</time></trkpt><trkpt lat="43.0294433" lon="2.5344883"><ele>411.5</ele><time>2026-03-30T08:16:49.686Z</time></trkpt><trkpt lat="43.0293183" lon="2.53449"><ele>404.75</ele><time>2026-03-30T08:16:50.687Z</time></trkpt><trkpt lat="43.0292033" lon="2.5344983"><ele>398.0</ele><time>2026-03-30T08:16:51.686Z</time></trkpt><trkpt lat="43.0290917" lon="2.53452"><ele>396.0</ele><time>2026-03-30T08:16:52.688Z</time></trkpt><trkpt lat="43.0289833" lon="2.5345633"><ele>394.0</ele><time>2026-03-30T08:16:53.686Z</time></trkpt><trkpt lat="43.02888" lon="2.534635"><ele>392.0</ele><time>2026-03-30T08:16:54.688Z</time></trkpt><trkpt lat="43.028785" lon="2.534735"><ele>390.0</ele><time>2026-03-30T08:16:55.686Z</time></trkpt><trkpt lat="43.02869" lon="2.5348517"><ele>390.0</ele><time>2026-03-30T08:16:56.687Z</time></trkpt><trkpt lat="43.0286017" lon="2.5349767"><ele>390.0</ele><time>2026-03-30T08:16:57.686Z</time></trkpt><trkpt lat="43.02852" lon="2.5351117"><ele>390.0</ele><time>2026-03-30T08:16:58.685Z</time></trkpt><trkpt lat="43.028445" lon="2.5352533"><ele>390.0</ele><time>2026-03-30T08:16:59.688Z</time></trkpt><trkpt lat="43.02838" lon="2.5354083"><ele>392.25</ele><time>2026-03-30T08:17:00.687Z</time></trkpt><trkpt lat="43.028335" lon="2.5355783"><ele>394.5</ele><time>2026-03-30T08:17:01.687Z</time></trkpt><trkpt lat="43.0283133" lon="2.5357667"><ele>396.75</ele><time>2026-03-30T08:17:02.689Z</time></trkpt><trkpt lat="43.0283083" lon="2.53596"><ele>399.0</ele><time>2026-03-30T08:17:03.685Z</time></trkpt><trkpt lat="43.0283017" lon="2.5361517"><ele>387.5</ele><time>2026-03-30T08:17:04.687Z</time></trkpt><trkpt lat="43.0282917" lon="2.5363417"><ele>376.0</ele><time>2026-03-30T08:17:05.688Z</time></trkpt><trkpt lat="43.0282783" lon="2.5365383"><ele>364.5</ele><time>2026-03-30T08:17:06.69Z</time></trkpt><trkpt lat="43.0282417" lon="2.5367467"><ele>353.0</ele><time>2026-03-30T08:17:07.685Z</time></trkpt><trkpt lat="43.0281933" lon="2.5369483"><ele>356.0</ele><time>2026-03-30T08:17:08.688Z</time></trkpt><trkpt lat="43.0281467" lon="2.5371517"><ele>359.0</ele><time>2026-03-30T08:17:09.685Z</time></trkpt><trkpt lat="43.0281133" lon="2.5373567"><ele>362.0</ele><time>2026-03-30T08:17:10.688Z</time></trkpt><trkpt lat="43.0280833" lon="2.5375567"><ele>362.0</ele><time>2026-03-30T08:17:11.687Z</time></trkpt><trkpt lat="43.0280433" lon="2.537755"><ele>362.0</ele><time>2026-03-30T08:17:12.688Z</time></trkpt><trkpt lat="43.0279817" lon="2.5379467"><ele>362.0</ele><time>2026-03-30T08:17:13.687Z</time></trkpt><trkpt lat="43.0279117" lon="2.538125"><ele>364.25</ele><time>2026-03-30T08:17:14.687Z</time></trkpt><trkpt lat="43.0278433" lon="2.5382917"><ele>366.5</ele><time>2026-03-30T08:17:15.685Z</time></trkpt><trkpt lat="43.02779" lon="2.5384517"><ele>368.75</ele><time>2026-03-30T08:17:16.684Z</time></trkpt><trkpt lat="43.027755" lon="2.5386067"><ele>371.0</ele><time>2026-03-30T08:17:17.685Z</time></trkpt><trkpt lat="43.027735" lon="2.5387517"><ele>372.20000000000005</ele><time>2026-03-30T08:17:18.685Z</time></trkpt><trkpt lat="43.0277283" lon="2.5388883"><ele>373.40000000000003</ele><time>2026-03-30T08:17:19.686Z</time></trkpt><trkpt lat="43.0277367" lon="2.5390183"><ele>374.6</ele><time>2026-03-30T08:17:20.685Z</time></trkpt><trkpt lat="43.02777" lon="2.5391483"><ele>375.8</ele><time>2026-03-30T08:17:21.685Z</time></trkpt><trkpt lat="43.0278533" lon="2.5392567"><ele>377.0</ele><time>2026-03-30T08:17:22.689Z</time></trkpt><trkpt lat="43.027945" lon="2.5393517"><ele>377.0</ele><time>2026-03-30T08:17:23.685Z</time></trkpt><trkpt lat="43.0280433" lon="2.5394183"><ele>377.0</ele><time>2026-03-30T08:17:24.686Z</time></trkpt><trkpt lat="43.0281533" lon="2.5394483"><ele>377.0</ele><time>2026-03-30T08:17:25.686Z</time></trkpt><trkpt lat="43.02827" lon="2.539445"><ele>377.0</ele><time>2026-03-30T08:17:26.685Z</time></trkpt><trkpt lat="43.02838" lon="2.5394233"><ele>376.8</ele><time>2026-03-30T08:17:27.689Z</time></trkpt><trkpt lat="43.0284833" lon="2.539405"><ele>376.6</ele><time>2026-03-30T08:17:28.684Z</time></trkpt><trkpt lat="43.0285717" lon="2.5394117"><ele>376.40000000000003</ele><time>2026-03-30T08:17:29.686Z</time></trkpt><trkpt lat="43.028665" lon="2.5394717"><ele>376.20000000000005</ele><time>2026-03-30T08:17:30.686Z</time></trkpt><trkpt lat="43.0287567" lon="2.5395617"><ele>376.0</ele><time>2026-03-30T08:17:31.685Z</time></trkpt><trkpt lat="43.02885" lon="2.539685"><ele>376.0</ele><time>2026-03-30T08:17:32.685Z</time></trkpt><trkpt lat="43.028945" lon="2.5398"><ele>376.0</ele><time>2026-03-30T08:17:33.691Z</time></trkpt><trkpt lat="43.0290383" lon="2.539905"><ele>376.0</ele><time>2026-03-30T08:17:34.686Z</time></trkpt><trkpt lat="43.0291183" lon="2.5400133"><ele>376.0</ele><time>2026-03-30T08:17:35.686Z</time></trkpt><trkpt lat="43.02919" lon="2.5401467"><ele>375.5</ele><time>2026-03-30T08:17:36.686Z</time></trkpt><trkpt lat="43.0292433" lon="2.5403133"><ele>375.0</ele><time>2026-03-30T08:17:37.684Z</time></trkpt><trkpt lat="43.02929" lon="2.5405"><ele>374.5</ele><time>2026-03-30T08:17:38.685Z</time></trkpt><trkpt lat="43.0293467" lon="2.54068"><ele>374.0</ele><time>2026-03-30T08:17:39.686Z</time></trkpt><trkpt lat="43.0294167" lon="2.540845"><ele>374.0</ele><time>2026-03-30T08:17:40.685Z</time></trkpt><trkpt lat="43.0294867" lon="2.5410017"><ele>374.0</ele><time>2026-03-30T08:17:41.686Z</time></trkpt><trkpt lat="43.029555" lon="2.5411617"><ele>374.0</ele><time>2026-03-30T08:17:42.684Z</time></trkpt><trkpt lat="43.02963" lon="2.5413267"><ele>374.0</ele><time>2026-03-30T08:17:43.684Z</time></trkpt><trkpt lat="43.0297167" lon="2.54149"><ele>376.0</ele><time>2026-03-30T08:17:44.685Z</time></trkpt><trkpt lat="43.0298117" lon="2.5416467"><ele>378.0</ele><time>2026-03-30T08:17:45.684Z</time></trkpt><trkpt lat="43.0299167" lon="2.5417883"><ele>380.0</ele><time>2026-03-30T08:17:46.685Z</time></trkpt><trkpt lat="43.0300267" lon="2.5419117"><ele>382.0</ele><time>2026-03-30T08:17:47.685Z</time></trkpt><trkpt lat="43.0301333" lon="2.5420383"><ele>377.25</ele><time>2026-03-30T08:17:48.685Z</time></trkpt><trkpt lat="43.03024" lon="2.5421583"><ele>372.5</ele><time>2026-03-30T08:17:49.691Z</time></trkpt><trkpt lat="43.0303467" lon="2.5422783"><ele>367.75</ele><time>2026-03-30T08:17:50.689Z</time></trkpt><trkpt lat="43.0304467" lon="2.5423983"><ele>363.0</ele><time>2026-03-30T08:17:51.686Z</time></trkpt><trkpt lat="43.0305267" lon="2.54251"><ele>363.0</ele><time>2026-03-30T08:17:52.685Z</time></trkpt><trkpt lat="43.03058" lon="2.54263"><ele>363.0</ele><time>2026-03-30T08:17:53.684Z</time></trkpt><trkpt lat="43.030615" lon="2.5427517"><ele>363.0</ele><time>2026-03-30T08:17:54.685Z</time></trkpt><trkpt lat="43.0306333" lon="2.5428667"><ele>363.0</ele><time>2026-03-30T08:17:55.685Z</time></trkpt><trkpt lat="43.0306467" lon="2.5429667"><ele>363.0</ele><time>2026-03-30T08:17:56.687Z</time></trkpt><trkpt lat="43.0306767" lon="2.5430517"><ele>363.0</ele><time>2026-03-30T08:17:57.685Z</time></trkpt><trkpt lat="43.0307917" lon="2.5431367"><ele>362.0</ele><time>2026-03-30T08:17:59.685Z</time></trkpt><trkpt lat="43.0309033" lon="2.54307"><ele>361.0</ele><time>2026-03-30T08:18:00.685Z</time></trkpt><trkpt lat="43.0310167" lon="2.5430033"><ele>360.0</ele><time>2026-03-30T08:18:01.686Z</time></trkpt><trkpt lat="43.0311217" lon="2.5429367"><ele>359.0</ele><time>2026-03-30T08:18:02.688Z</time></trkpt><trkpt lat="43.031215" lon="2.54285"><ele>360.6666666666667</ele><time>2026-03-30T08:18:03.685Z</time></trkpt><trkpt lat="43.0312933" lon="2.5427383"><ele>362.33333333333337</ele><time>2026-03-30T08:18:04.686Z</time></trkpt><trkpt lat="43.0313517" lon="2.5426333"><ele>364.0</ele><time>2026-03-30T08:18:05.685Z</time></trkpt><trkpt lat="43.0314033" lon="2.5425367"><ele>365.6666666666667</ele><time>2026-03-30T08:18:06.686Z</time></trkpt><trkpt lat="43.0314417" lon="2.5424517"><ele>367.3333333333333</ele><time>2026-03-30T08:18:07.685Z</time></trkpt><trkpt lat="43.0314883" lon="2.5423917"><ele>369.0</ele><time>2026-03-30T08:18:08.685Z</time></trkpt><trkpt lat="43.03153" lon="2.5425183"><ele>369.0</ele><time>2026-03-30T08:18:10.686Z</time></trkpt><trkpt lat="43.0315233" lon="2.5426183"><ele>369.0</ele><time>2026-03-30T08:18:11.685Z</time></trkpt><trkpt lat="43.0315067" lon="2.5427233"><ele>369.0</ele><time>2026-03-30T08:18:12.686Z</time></trkpt><trkpt lat="43.03146" lon="2.5428583"><ele>369.0</ele><time>2026-03-30T08:18:13.685Z</time></trkpt><trkpt lat="43.03141" lon="2.5430133"><ele>369.0</ele><time>2026-03-30T08:18:14.69Z</time></trkpt><trkpt lat="43.031365" lon="2.5431533"><ele>367.0</ele><time>2026-03-30T08:18:15.687Z</time></trkpt><trkpt lat="43.031325" lon="2.5432917"><ele>365.0</ele><time>2026-03-30T08:18:16.685Z</time></trkpt><trkpt lat="43.031295" lon="2.5434417"><ele>363.0</ele><time>2026-03-30T08:18:17.684Z</time></trkpt><trkpt lat="43.0312717" lon="2.5435867"><ele>361.0</ele><time>2026-03-30T08:18:18.685Z</time></trkpt><trkpt lat="43.0312667" lon="2.5437333"><ele>359.0</ele><time>2026-03-30T08:18:19.685Z</time></trkpt><trkpt lat="43.0312817" lon="2.5438733"><ele>357.25</ele><time>2026-03-30T08:18:20.685Z</time></trkpt><trkpt lat="43.0313317" lon="2.5440167"><ele>355.5</ele><time>2026-03-30T08:18:21.686Z</time></trkpt><trkpt lat="43.0313867" lon="2.54415"><ele>353.75</ele><time>2026-03-30T08:18:22.686Z</time></trkpt><trkpt lat="43.0314617" lon="2.5442833"><ele>352.0</ele><time>2026-03-30T08:18:23.685Z</time></trkpt><trkpt lat="43.031535" lon="2.5444067"><ele>352.0</ele><time>2026-03-30T08:18:24.686Z</time></trkpt><trkpt lat="43.0315833" lon="2.544515"><ele>352.0</ele><time>2026-03-30T08:18:25.686Z</time></trkpt><trkpt lat="43.03162" lon="2.5446167"><ele>352.0</ele><time>2026-03-30T08:18:26.685Z</time></trkpt><trkpt lat="43.0316383" lon="2.5447017"><ele>352.0</ele><time>2026-03-30T08:18:27.685Z</time></trkpt><trkpt lat="43.0316267" lon="2.5448133"><ele>352.0</ele><time>2026-03-30T08:18:29.687Z</time></trkpt><trkpt lat="43.0315533" lon="2.544835"><ele>352.0</ele><time>2026-03-30T08:18:32.686Z</time></trkpt><trkpt lat="43.0314817" lon="2.5448283"><ele>349.40000000000003</ele><time>2026-03-30T08:18:40.686Z</time></trkpt><trkpt lat="43.03134" lon="2.5448317"><ele>346.8</ele><time>2026-03-30T08:18:42.685Z</time></trkpt><trkpt lat="43.0312567" lon="2.544845"><ele>344.2</ele><time>2026-03-30T08:18:43.686Z</time></trkpt><trkpt lat="43.031165" lon="2.5448967"><ele>341.6</ele><time>2026-03-30T08:18:44.686Z</time></trkpt><trkpt lat="43.031065" lon="2.544975"><ele>339.0</ele><time>2026-03-30T08:18:45.688Z</time></trkpt><trkpt lat="43.0309633" lon="2.545055"><ele>339.0</ele><time>2026-03-30T08:18:46.685Z</time></trkpt><trkpt lat="43.0308617" lon="2.5451183"><ele>339.0</ele><time>2026-03-30T08:18:47.686Z</time></trkpt><trkpt lat="43.0307667" lon="2.54516"><ele>339.0</ele><time>2026-03-30T08:18:48.685Z</time></trkpt><trkpt lat="43.03068" lon="2.5451833"><ele>339.0</ele><time>2026-03-30T08:18:49.687Z</time></trkpt><trkpt lat="43.0306" lon="2.5451833"><ele>339.0</ele><time>2026-03-30T08:18:50.686Z</time></trkpt><trkpt lat="43.0305133" lon="2.545145"><ele>334.0</ele><time>2026-03-30T08:18:51.685Z</time></trkpt><trkpt lat="43.030425" lon="2.5450667"><ele>329.0</ele><time>2026-03-30T08:18:52.686Z</time></trkpt><trkpt lat="43.0303433" lon="2.5449517"><ele>324.0</ele><time>2026-03-30T08:18:53.686Z</time></trkpt><trkpt lat="43.030255" lon="2.54483"><ele>319.0</ele><time>2026-03-30T08:18:54.687Z</time></trkpt><trkpt lat="43.03016" lon="2.5446967"><ele>319.0</ele><time>2026-03-30T08:18:55.691Z</time></trkpt><trkpt lat="43.0300633" lon="2.5445517"><ele>319.0</ele><time>2026-03-30T08:18:56.688Z</time></trkpt><trkpt lat="43.02997" lon="2.5443967"><ele>319.0</ele><time>2026-03-30T08:18:57.69Z</time></trkpt><trkpt lat="43.02989" lon="2.544255"><ele>319.0</ele><time>2026-03-30T08:18:58.688Z</time></trkpt><trkpt lat="43.0298067" lon="2.5441267"><ele>318.5</ele><time>2026-03-30T08:18:59.687Z</time></trkpt><trkpt lat="43.0297267" lon="2.5440033"><ele>318.0</ele><time>2026-03-30T08:19:00.687Z</time></trkpt><trkpt lat="43.029655" lon="2.5438783"><ele>317.5</ele><time>2026-03-30T08:19:01.689Z</time></trkpt><trkpt lat="43.02958" lon="2.5437667"><ele>317.0</ele><time>2026-03-30T08:19:02.686Z</time></trkpt><trkpt lat="43.0294983" lon="2.543665"><ele>319.4</ele><time>2026-03-30T08:19:03.688Z</time></trkpt><trkpt lat="43.0294" lon="2.5435817"><ele>321.79999999999995</ele><time>2026-03-30T08:19:04.689Z</time></trkpt><trkpt lat="43.0292967" lon="2.5435117"><ele>324.2</ele><time>2026-03-30T08:19:05.685Z</time></trkpt><trkpt lat="43.0291983" lon="2.543455"><ele>326.59999999999997</ele><time>2026-03-30T08:19:06.688Z</time></trkpt><trkpt lat="43.0291117" lon="2.5434117"><ele>329.0</ele><time>2026-03-30T08:19:07.688Z</time></trkpt><trkpt lat="43.0290333" lon="2.5433867"><ele>329.0</ele><time>2026-03-30T08:19:08.689Z</time></trkpt><trkpt lat="43.028955" lon="2.543375"><ele>329.0</ele><time>2026-03-30T08:19:09.686Z</time></trkpt><trkpt lat="43.0288833" lon="2.5434033"><ele>329.0</ele><time>2026-03-30T08:19:10.688Z</time></trkpt><trkpt lat="43.0288183" lon="2.5434733"><ele>329.0</ele><time>2026-03-30T08:19:11.685Z</time></trkpt><trkpt lat="43.0287717" lon="2.54358"><ele>329.0</ele><time>2026-03-30T08:19:12.686Z</time></trkpt><trkpt lat="43.0287267" lon="2.54368"><ele>329.0</ele><time>2026-03-30T08:19:13.687Z</time></trkpt><trkpt lat="43.02867" lon="2.5437633"><ele>326.33333333333337</ele><time>2026-03-30T08:19:14.687Z</time></trkpt><trkpt lat="43.028605" lon="2.5438233"><ele>323.6666666666667</ele><time>2026-03-30T08:19:15.687Z</time></trkpt><trkpt lat="43.02853" lon="2.5438533"><ele>321.0</ele><time>2026-03-30T08:19:16.689Z</time></trkpt><trkpt lat="43.0284433" lon="2.5438383"><ele>318.3333333333333</ele><time>2026-03-30T08:19:17.688Z</time></trkpt><trkpt lat="43.02836" lon="2.5437867"><ele>315.66666666666663</ele><time>2026-03-30T08:19:18.687Z</time></trkpt><trkpt lat="43.0282767" lon="2.543705"><ele>313.0</ele><time>2026-03-30T08:19:19.686Z</time></trkpt><trkpt lat="43.0281917" lon="2.54362"><ele>313.0</ele><time>2026-03-30T08:19:20.688Z</time></trkpt><trkpt lat="43.0281067" lon="2.5435633"><ele>313.0</ele><time>2026-03-30T08:19:21.685Z</time></trkpt><trkpt lat="43.0280167" lon="2.5435317"><ele>313.0</ele><time>2026-03-30T08:19:22.686Z</time></trkpt><trkpt lat="43.0279317" lon="2.5435"><ele>313.0</ele><time>2026-03-30T08:19:23.685Z</time></trkpt><trkpt lat="43.0278417" lon="2.5434567"><ele>313.0</ele><time>2026-03-30T08:19:24.687Z</time></trkpt><trkpt lat="43.0277483" lon="2.543395"><ele>313.0</ele><time>2026-03-30T08:19:25.686Z</time></trkpt><trkpt lat="43.0276533" lon="2.5433133"><ele>313.0</ele><time>2026-03-30T08:19:26.685Z</time></trkpt><trkpt lat="43.0275583" lon="2.54323"><ele>313.0</ele><time>2026-03-30T08:19:27.687Z</time></trkpt><trkpt lat="43.0274533" lon="2.5431583"><ele>313.0</ele><time>2026-03-30T08:19:28.687Z</time></trkpt><trkpt lat="43.027345" lon="2.5431"><ele>309.2</ele><time>2026-03-30T08:19:29.686Z</time></trkpt><trkpt lat="43.0272367" lon="2.5430533"><ele>305.4</ele><time>2026-03-30T08:19:30.685Z</time></trkpt><trkpt lat="43.0271317" lon="2.5430117"><ele>301.59999999999997</ele><time>2026-03-30T08:19:31.686Z</time></trkpt><trkpt lat="43.0270267" lon="2.54298"><ele>297.8</ele><time>2026-03-30T08:19:32.687Z</time></trkpt><trkpt lat="43.02692" lon="2.5429633"><ele>294.0</ele><time>2026-03-30T08:19:33.688Z</time></trkpt><trkpt lat="43.0268133" lon="2.5429533"><ele>294.0</ele><time>2026-03-30T08:19:34.686Z</time></trkpt><trkpt lat="43.0267017" lon="2.5429417"><ele>294.0</ele><time>2026-03-30T08:19:35.686Z</time></trkpt><trkpt lat="43.026585" lon="2.54292"><ele>294.0</ele><time>2026-03-30T08:19:36.687Z</time></trkpt><trkpt lat="43.0264717" lon="2.5428867"><ele>294.0</ele><time>2026-03-30T08:19:37.687Z</time></trkpt><trkpt lat="43.0263617" lon="2.542845"><ele>299.5</ele><time>2026-03-30T08:19:38.686Z</time></trkpt><trkpt lat="43.0262533" lon="2.5427983"><ele>305.0</ele><time>2026-03-30T08:19:39.688Z</time></trkpt><trkpt lat="43.02614" lon="2.5427517"><ele>310.5</ele><time>2026-03-30T08:19:40.686Z</time></trkpt><trkpt lat="43.0260267" lon="2.5427117"><ele>316.0</ele><time>2026-03-30T08:19:41.688Z</time></trkpt><trkpt lat="43.025915" lon="2.5426967"><ele>311.2</ele><time>2026-03-30T08:19:42.687Z</time></trkpt><trkpt lat="43.0258083" lon="2.5426917"><ele>306.40000000000003</ele><time>2026-03-30T08:19:43.686Z</time></trkpt><trkpt lat="43.025705" lon="2.5426733"><ele>301.6</ele><time>2026-03-30T08:19:44.688Z</time></trkpt><trkpt lat="43.0255983" lon="2.542625"><ele>296.8</ele><time>2026-03-30T08:19:45.685Z</time></trkpt><trkpt lat="43.0254933" lon="2.5425567"><ele>292.0</ele><time>2026-03-30T08:19:46.686Z</time></trkpt><trkpt lat="43.0253883" lon="2.5424767"><ele>292.0</ele><time>2026-03-30T08:19:47.686Z</time></trkpt><trkpt lat="43.0252867" lon="2.5423767"><ele>292.0</ele><time>2026-03-30T08:19:48.686Z</time></trkpt><trkpt lat="43.0251917" lon="2.5422717"><ele>292.0</ele><time>2026-03-30T08:19:49.686Z</time></trkpt><trkpt lat="43.0251" lon="2.542175"><ele>292.0</ele><time>2026-03-30T08:19:50.686Z</time></trkpt><trkpt lat="43.0250033" lon="2.5421"><ele>293.0</ele><time>2026-03-30T08:19:51.689Z</time></trkpt><trkpt lat="43.0249083" lon="2.54203"><ele>294.0</ele><time>2026-03-30T08:19:52.686Z</time></trkpt><trkpt lat="43.0248317" lon="2.5419483"><ele>295.0</ele><time>2026-03-30T08:19:53.685Z</time></trkpt><trkpt lat="43.0247633" lon="2.5418567"><ele>296.0</ele><time>2026-03-30T08:19:54.685Z</time></trkpt><trkpt lat="43.0247017" lon="2.54174"><ele>297.0</ele><time>2026-03-30T08:19:55.686Z</time></trkpt><trkpt lat="43.0246283" lon="2.5416217"><ele>297.0</ele><time>2026-03-30T08:19:56.686Z</time></trkpt><trkpt lat="43.024555" lon="2.5415333"><ele>297.0</ele><time>2026-03-30T08:19:57.686Z</time></trkpt><trkpt lat="43.0244883" lon="2.5414617"><ele>297.0</ele><time>2026-03-30T08:19:58.686Z</time></trkpt><trkpt lat="43.024435" lon="2.5413883"><ele>297.0</ele><time>2026-03-30T08:19:59.686Z</time></trkpt><trkpt lat="43.0244017" lon="2.5412933"><ele>297.0</ele><time>2026-03-30T08:20:00.686Z</time></trkpt><trkpt lat="43.0244" lon="2.5411833"><ele>297.0</ele><time>2026-03-30T08:20:01.686Z</time></trkpt><trkpt lat="43.0244133" lon="2.5410683"><ele>296.6</ele><time>2026-03-30T08:20:02.686Z</time></trkpt><trkpt lat="43.02445" lon="2.54095"><ele>296.2</ele><time>2026-03-30T08:20:03.687Z</time></trkpt><trkpt lat="43.0245033" lon="2.5408267"><ele>295.8</ele><time>2026-03-30T08:20:04.687Z</time></trkpt><trkpt lat="43.024545" lon="2.5406867"><ele>295.4</ele><time>2026-03-30T08:20:05.685Z</time></trkpt><trkpt lat="43.0245717" lon="2.54054"><ele>295.0</ele><time>2026-03-30T08:20:06.686Z</time></trkpt><trkpt lat="43.0245733" lon="2.5403883"><ele>292.8</ele><time>2026-03-30T08:20:07.685Z</time></trkpt><trkpt lat="43.024555" lon="2.5402417"><ele>290.6</ele><time>2026-03-30T08:20:08.685Z</time></trkpt><trkpt lat="43.024535" lon="2.5401067"><ele>288.4</ele><time>2026-03-30T08:20:09.685Z</time></trkpt><trkpt lat="43.024525" lon="2.539965"><ele>286.2</ele><time>2026-03-30T08:20:10.686Z</time></trkpt><trkpt lat="43.0245333" lon="2.539825"><ele>284.0</ele><time>2026-03-30T08:20:11.687Z</time></trkpt><trkpt lat="43.0245417" lon="2.5397"><ele>284.0</ele><time>2026-03-30T08:20:12.685Z</time></trkpt><trkpt lat="43.0245417" lon="2.5395867"><ele>284.0</ele><time>2026-03-30T08:20:13.686Z</time></trkpt><trkpt lat="43.0245067" lon="2.5394767"><ele>284.0</ele><time>2026-03-30T08:20:14.686Z</time></trkpt><trkpt lat="43.0244433" lon="2.53937"><ele>284.0</ele><time>2026-03-30T08:20:15.688Z</time></trkpt><trkpt lat="43.0243667" lon="2.5392667"><ele>284.0</ele><time>2026-03-30T08:20:16.685Z</time></trkpt><trkpt lat="43.0242883" lon="2.5391733"><ele>283.2</ele><time>2026-03-30T08:20:17.685Z</time></trkpt><trkpt lat="43.0242217" lon="2.5390833"><ele>282.4</ele><time>2026-03-30T08:20:18.685Z</time></trkpt><trkpt lat="43.0241733" lon="2.5389883"><ele>281.6</ele><time>2026-03-30T08:20:19.686Z</time></trkpt><trkpt lat="43.0241417" lon="2.5388817"><ele>280.8</ele><time>2026-03-30T08:20:20.685Z</time></trkpt><trkpt lat="43.0241267" lon="2.5387533"><ele>280.0</ele><time>2026-03-30T08:20:21.685Z</time></trkpt><trkpt lat="43.0241167" lon="2.5386033"><ele>279.4</ele><time>2026-03-30T08:20:22.689Z</time></trkpt><trkpt lat="43.0241133" lon="2.5384533"><ele>278.8</ele><time>2026-03-30T08:20:23.686Z</time></trkpt><trkpt lat="43.0241233" lon="2.5383133"><ele>278.2</ele><time>2026-03-30T08:20:24.685Z</time></trkpt><trkpt lat="43.0241483" lon="2.538185"><ele>277.6</ele><time>2026-03-30T08:20:25.685Z</time></trkpt><trkpt lat="43.02419" lon="2.538065"><ele>277.0</ele><time>2026-03-30T08:20:26.691Z</time></trkpt><trkpt lat="43.0242533" lon="2.5379533"><ele>274.25</ele><time>2026-03-30T08:20:27.686Z</time></trkpt><trkpt lat="43.024335" lon="2.5378517"><ele>271.5</ele><time>2026-03-30T08:20:28.685Z</time></trkpt><trkpt lat="43.0244317" lon="2.5377633"><ele>268.75</ele><time>2026-03-30T08:20:29.685Z</time></trkpt><trkpt lat="43.0245317" lon="2.5376817"><ele>266.0</ele><time>2026-03-30T08:20:30.687Z</time></trkpt><trkpt lat="43.024625" lon="2.53761"><ele>266.0</ele><time>2026-03-30T08:20:31.688Z</time></trkpt><trkpt lat="43.0247133" lon="2.5375533"><ele>266.0</ele><time>2026-03-30T08:20:32.686Z</time></trkpt><trkpt lat="43.0247967" lon="2.5375167"><ele>266.0</ele><time>2026-03-30T08:20:33.686Z</time></trkpt><trkpt lat="43.0248667" lon="2.5374867"><ele>266.0</ele><time>2026-03-30T08:20:34.688Z</time></trkpt><trkpt lat="43.0249567" lon="2.53741"><ele>266.0</ele><time>2026-03-30T08:20:36.689Z</time></trkpt><trkpt lat="43.0249233" lon="2.53727"><ele>266.0</ele><time>2026-03-30T08:20:38.687Z</time></trkpt><trkpt lat="43.0248617" lon="2.5371867"><ele>266.0</ele><time>2026-03-30T08:20:39.687Z</time></trkpt><trkpt lat="43.024805" lon="2.5370917"><ele>266.0</ele><time>2026-03-30T08:20:40.685Z</time></trkpt><trkpt lat="43.02476" lon="2.5369917"><ele>266.0</ele><time>2026-03-30T08:20:41.687Z</time></trkpt><trkpt lat="43.0247267" lon="2.536885"><ele>266.0</ele><time>2026-03-30T08:20:42.687Z</time></trkpt><trkpt lat="43.024715" lon="2.5367783"><ele>266.0</ele><time>2026-03-30T08:20:43.688Z</time></trkpt><trkpt lat="43.0247267" lon="2.5366633"><ele>264.25</ele><time>2026-03-30T08:20:44.687Z</time></trkpt><trkpt lat="43.0247733" lon="2.536535"><ele>262.5</ele><time>2026-03-30T08:20:45.687Z</time></trkpt><trkpt lat="43.0248533" lon="2.5363783"><ele>260.75</ele><time>2026-03-30T08:20:46.685Z</time></trkpt><trkpt lat="43.02492" lon="2.5362267"><ele>259.0</ele><time>2026-03-30T08:20:47.685Z</time></trkpt><trkpt lat="43.0249783" lon="2.5360733"><ele>260.8</ele><time>2026-03-30T08:20:48.687Z</time></trkpt><trkpt lat="43.0250267" lon="2.53593"><ele>262.59999999999997</ele><time>2026-03-30T08:20:49.685Z</time></trkpt><trkpt lat="43.0250683" lon="2.535795"><ele>264.4</ele><time>2026-03-30T08:20:50.688Z</time></trkpt><trkpt lat="43.0251067" lon="2.5356667"><ele>266.2</ele><time>2026-03-30T08:20:51.688Z</time></trkpt><trkpt lat="43.0251383" lon="2.5355583"><ele>268.0</ele><time>2026-03-30T08:20:52.685Z</time></trkpt><trkpt lat="43.02516" lon="2.5354633"><ele>269.0</ele><time>2026-03-30T08:20:53.685Z</time></trkpt><trkpt lat="43.0251533" lon="2.535315"><ele>270.0</ele><time>2026-03-30T08:20:55.686Z</time></trkpt><trkpt lat="43.0250733" lon="2.5352867"><ele>271.0</ele><time>2026-03-30T08:20:57.685Z</time></trkpt><trkpt lat="43.0250083" lon="2.5353767"><ele>272.0</ele><time>2026-03-30T08:20:58.686Z</time></trkpt><trkpt lat="43.02496" lon="2.5354617"><ele>273.0</ele><time>2026-03-30T08:20:59.687Z</time></trkpt><trkpt lat="43.0249117" lon="2.535575"><ele>269.5</ele><time>2026-03-30T08:21:00.685Z</time></trkpt><trkpt lat="43.0248467" lon="2.5356817"><ele>266.0</ele><time>2026-03-30T08:21:01.685Z</time></trkpt><trkpt lat="43.024755" lon="2.53577"><ele>262.5</ele><time>2026-03-30T08:21:02.686Z</time></trkpt><trkpt lat="43.0246567" lon="2.5358533"><ele>259.0</ele><time>2026-03-30T08:21:03.685Z</time></trkpt><trkpt lat="43.0245567" lon="2.535945"><ele>259.0</ele><time>2026-03-30T08:21:04.685Z</time></trkpt><trkpt lat="43.0244617" lon="2.536035"><ele>259.0</ele><time>2026-03-30T08:21:05.685Z</time></trkpt><trkpt lat="43.024365" lon="2.5361267"><ele>259.0</ele><time>2026-03-30T08:21:06.686Z</time></trkpt><trkpt lat="43.0242667" lon="2.536195"><ele>259.0</ele><time>2026-03-30T08:21:07.686Z</time></trkpt><trkpt lat="43.024175" lon="2.536245"><ele>259.0</ele><time>2026-03-30T08:21:08.686Z</time></trkpt><trkpt lat="43.024085" lon="2.5363083"><ele>259.4</ele><time>2026-03-30T08:21:09.686Z</time></trkpt><trkpt lat="43.024005" lon="2.5363883"><ele>259.79999999999995</ele><time>2026-03-30T08:21:10.685Z</time></trkpt><trkpt lat="43.0239383" lon="2.53649"><ele>260.20000000000005</ele><time>2026-03-30T08:21:11.686Z</time></trkpt><trkpt lat="43.0238783" lon="2.5366183"><ele>260.6</ele><time>2026-03-30T08:21:12.687Z</time></trkpt><trkpt lat="43.02382" lon="2.536765"><ele>261.0</ele><time>2026-03-30T08:21:13.685Z</time></trkpt><trkpt lat="43.0237583" lon="2.5369167"><ele>259.75</ele><time>2026-03-30T08:21:14.688Z</time></trkpt><trkpt lat="43.0237" lon="2.53706"><ele>258.5</ele><time>2026-03-30T08:21:15.686Z</time></trkpt><trkpt lat="43.0236467" lon="2.5372083"><ele>257.25</ele><time>2026-03-30T08:21:16.686Z</time></trkpt><trkpt lat="43.0235917" lon="2.5373633"><ele>256.0</ele><time>2026-03-30T08:21:17.685Z</time></trkpt><trkpt lat="43.023545" lon="2.53753"><ele>256.0</ele><time>2026-03-30T08:21:18.686Z</time></trkpt><trkpt lat="43.0235067" lon="2.5377133"><ele>256.0</ele><time>2026-03-30T08:21:19.685Z</time></trkpt><trkpt lat="43.0234667" lon="2.537895"><ele>256.0</ele><time>2026-03-30T08:21:20.688Z</time></trkpt><trkpt lat="43.02343" lon="2.538065"><ele>256.0</ele><time>2026-03-30T08:21:21.686Z</time></trkpt><trkpt lat="43.0234033" lon="2.5382417"><ele>255.25</ele><time>2026-03-30T08:21:22.686Z</time></trkpt><trkpt lat="43.023385" lon="2.5384117"><ele>254.5</ele><time>2026-03-30T08:21:23.686Z</time></trkpt><trkpt lat="43.0233683" lon="2.5385717"><ele>253.75</ele><time>2026-03-30T08:21:24.686Z</time></trkpt><trkpt lat="43.0233483" lon="2.5387233"><ele>253.0</ele><time>2026-03-30T08:21:25.686Z</time></trkpt><trkpt lat="43.02332" lon="2.5388733"><ele>252.4</ele><time>2026-03-30T08:21:26.687Z</time></trkpt><trkpt lat="43.0232783" lon="2.53902"><ele>251.8</ele><time>2026-03-30T08:21:27.69Z</time></trkpt><trkpt lat="43.023225" lon="2.5391583"><ele>251.2</ele><time>2026-03-30T08:21:28.685Z</time></trkpt><trkpt lat="43.0231617" lon="2.5392817"><ele>250.6</ele><time>2026-03-30T08:21:29.686Z</time></trkpt><trkpt lat="43.023095" lon="2.5393833"><ele>250.0</ele><time>2026-03-30T08:21:30.685Z</time></trkpt><trkpt lat="43.0230433" lon="2.5394583"><ele>249.99999999999997</ele><time>2026-03-30T08:21:31.684Z</time></trkpt><trkpt lat="43.0229533" lon="2.5395133"><ele>250.0</ele><time>2026-03-30T08:21:33.688Z</time></trkpt><trkpt lat="43.0228533" lon="2.53949"><ele>250.0</ele><time>2026-03-30T08:21:35.686Z</time></trkpt><trkpt lat="43.02279" lon="2.5394783"><ele>250.0</ele><time>2026-03-30T08:21:36.687Z</time></trkpt><trkpt lat="43.022725" lon="2.5394617"><ele>249.99999999999997</ele><time>2026-03-30T08:21:37.688Z</time></trkpt><trkpt lat="43.02265" lon="2.53948"><ele>250.0</ele><time>2026-03-30T08:21:38.686Z</time></trkpt><trkpt lat="43.022555" lon="2.5395333"><ele>247.75</ele><time>2026-03-30T08:21:39.684Z</time></trkpt><trkpt lat="43.0224583" lon="2.5396167"><ele>245.5</ele><time>2026-03-30T08:21:40.685Z</time></trkpt><trkpt lat="43.02236" lon="2.5397283"><ele>243.25</ele><time>2026-03-30T08:21:41.686Z</time></trkpt><trkpt lat="43.0222483" lon="2.53983"><ele>241.0</ele><time>2026-03-30T08:21:42.686Z</time></trkpt><trkpt lat="43.0221333" lon="2.539945"><ele>241.0</ele><time>2026-03-30T08:21:43.686Z</time></trkpt><trkpt lat="43.0220217" lon="2.540045"><ele>241.0</ele><time>2026-03-30T08:21:44.685Z</time></trkpt><trkpt lat="43.0219233" lon="2.5401567"><ele>241.0</ele><time>2026-03-30T08:21:45.686Z</time></trkpt><trkpt lat="43.0218167" lon="2.5402717"><ele>241.0</ele><time>2026-03-30T08:21:46.686Z</time></trkpt><trkpt lat="43.0217217" lon="2.5404117"><ele>246.5</ele><time>2026-03-30T08:21:47.689Z</time></trkpt><trkpt lat="43.0216233" lon="2.540565"><ele>252.0</ele><time>2026-03-30T08:21:48.685Z</time></trkpt><trkpt lat="43.02155" lon="2.54072"><ele>257.5</ele><time>2026-03-30T08:21:49.686Z</time></trkpt><trkpt lat="43.0214833" lon="2.5408633"><ele>263.0</ele><time>2026-03-30T08:21:50.687Z</time></trkpt><trkpt lat="43.0214383" lon="2.5410217"><ele>263.0</ele><time>2026-03-30T08:21:51.685Z</time></trkpt><trkpt lat="43.0214067" lon="2.541205"><ele>263.0</ele><time>2026-03-30T08:21:52.685Z</time></trkpt><trkpt lat="43.0213883" lon="2.541395"><ele>263.0</ele><time>2026-03-30T08:21:53.686Z</time></trkpt><trkpt lat="43.0213783" lon="2.5415783"><ele>263.0</ele><time>2026-03-30T08:21:54.686Z</time></trkpt><trkpt lat="43.0213683" lon="2.54176"><ele>260.25</ele><time>2026-03-30T08:21:55.686Z</time></trkpt><trkpt lat="43.02135" lon="2.541955"><ele>257.5</ele><time>2026-03-30T08:21:56.686Z</time></trkpt><trkpt lat="43.0213167" lon="2.5421417"><ele>254.75</ele><time>2026-03-30T08:21:57.685Z</time></trkpt><trkpt lat="43.021275" lon="2.54232"><ele>252.0</ele><time>2026-03-30T08:21:58.686Z</time></trkpt><trkpt lat="43.0212233" lon="2.5424917"><ele>249.25</ele><time>2026-03-30T08:21:59.687Z</time></trkpt><trkpt lat="43.0211583" lon="2.5426433"><ele>246.5</ele><time>2026-03-30T08:22:00.685Z</time></trkpt><trkpt lat="43.0210933" lon="2.5427917"><ele>243.75</ele><time>2026-03-30T08:22:01.688Z</time></trkpt><trkpt lat="43.021025" lon="2.54294"><ele>241.0</ele><time>2026-03-30T08:22:02.685Z</time></trkpt><trkpt lat="43.0209517" lon="2.5430783"><ele>240.0</ele><time>2026-03-30T08:22:03.686Z</time></trkpt><trkpt lat="43.020865" lon="2.543195"><ele>239.00000000000003</ele><time>2026-03-30T08:22:04.684Z</time></trkpt><trkpt lat="43.0207783" lon="2.5433083"><ele>238.00000000000003</ele><time>2026-03-30T08:22:05.685Z</time></trkpt><trkpt lat="43.02071" lon="2.54342"><ele>237.0</ele><time>2026-03-30T08:22:06.685Z</time></trkpt><trkpt lat="43.0206617" lon="2.5435317"><ele>236.0</ele><time>2026-03-30T08:22:07.688Z</time></trkpt><trkpt lat="43.0206233" lon="2.5436333"><ele>234.00000000000003</ele><time>2026-03-30T08:22:08.687Z</time></trkpt><trkpt lat="43.0205933" lon="2.5437183"><ele>232.0</ele><time>2026-03-30T08:22:09.686Z</time></trkpt><trkpt lat="43.0205433" lon="2.54384"><ele>230.0</ele><time>2026-03-30T08:22:11.685Z</time></trkpt><trkpt lat="43.0206017" lon="2.5439317"><ele>228.0</ele><time>2026-03-30T08:22:57.686Z</time></trkpt><trkpt lat="43.0206533" lon="2.5439817"><ele>226.00000000000003</ele><time>2026-03-30T08:22:58.685Z</time></trkpt><trkpt lat="43.0207267" lon="2.5440617"><ele>224.0</ele><time>2026-03-30T08:22:59.685Z</time></trkpt><trkpt lat="43.0207817" lon="2.5441867"><ele>224.39999999999998</ele><time>2026-03-30T08:23:00.684Z</time></trkpt><trkpt lat="43.02083" lon="2.54431"><ele>224.79999999999998</ele><time>2026-03-30T08:23:01.685Z</time></trkpt><trkpt lat="43.0208317" lon="2.54446"><ele>225.20000000000002</ele><time>2026-03-30T08:23:02.688Z</time></trkpt><trkpt lat="43.0208033" lon="2.5446017"><ele>225.60000000000002</ele><time>2026-03-30T08:23:03.686Z</time></trkpt><trkpt lat="43.0207517" lon="2.5447317"><ele>226.0</ele><time>2026-03-30T08:23:04.685Z</time></trkpt><trkpt lat="43.02068" lon="2.544845"><ele>224.75</ele><time>2026-03-30T08:23:05.685Z</time></trkpt><trkpt lat="43.0205583" lon="2.544895"><ele>223.5</ele><time>2026-03-30T08:23:06.686Z</time></trkpt><trkpt lat="43.0204433" lon="2.544935"><ele>222.25</ele><time>2026-03-30T08:23:07.686Z</time></trkpt><trkpt lat="43.0203217" lon="2.54495"><ele>221.0</ele><time>2026-03-30T08:23:08.689Z</time></trkpt><trkpt lat="43.0202067" lon="2.54496"><ele>221.0</ele><time>2026-03-30T08:23:09.688Z</time></trkpt><trkpt lat="43.0200967" lon="2.5449917"><ele>221.0</ele><time>2026-03-30T08:23:10.685Z</time></trkpt><trkpt lat="43.0199783" lon="2.5450283"><ele>221.0</ele><time>2026-03-30T08:23:11.686Z</time></trkpt><trkpt lat="43.0198717" lon="2.5450833"><ele>221.0</ele><time>2026-03-30T08:23:12.686Z</time></trkpt><trkpt lat="43.019775" lon="2.5451767"><ele>219.75</ele><time>2026-03-30T08:23:13.685Z</time></trkpt><trkpt lat="43.019705" lon="2.545315"><ele>218.5</ele><time>2026-03-30T08:23:14.686Z</time></trkpt><trkpt lat="43.0196717" lon="2.5454783"><ele>217.25</ele><time>2026-03-30T08:23:15.685Z</time></trkpt><trkpt lat="43.01969" lon="2.5456683"><ele>216.0</ele><time>2026-03-30T08:23:16.686Z</time></trkpt><trkpt lat="43.0197083" lon="2.5458533"><ele>215.75</ele><time>2026-03-30T08:23:17.685Z</time></trkpt><trkpt lat="43.0197183" lon="2.5460333"><ele>215.5</ele><time>2026-03-30T08:23:18.686Z</time></trkpt><trkpt lat="43.019725" lon="2.5462167"><ele>215.25</ele><time>2026-03-30T08:23:19.685Z</time></trkpt><trkpt lat="43.01972" lon="2.5463983"><ele>215.0</ele><time>2026-03-30T08:23:20.689Z</time></trkpt><trkpt lat="43.01969" lon="2.5465767"><ele>215.0</ele><time>2026-03-30T08:23:21.687Z</time></trkpt><trkpt lat="43.0196383" lon="2.546745"><ele>215.0</ele><time>2026-03-30T08:23:22.685Z</time></trkpt><trkpt lat="43.0195717" lon="2.5469033"><ele>215.0</ele><time>2026-03-30T08:23:23.688Z</time></trkpt><trkpt lat="43.0194983" lon="2.547055"><ele>215.0</ele><time>2026-03-30T08:23:24.689Z</time></trkpt><trkpt lat="43.0194233" lon="2.547205"><ele>217.5</ele><time>2026-03-30T08:23:25.687Z</time></trkpt><trkpt lat="43.019355" lon="2.5473533"><ele>220.0</ele><time>2026-03-30T08:23:26.686Z</time></trkpt><trkpt lat="43.0192883" lon="2.5474983"><ele>222.5</ele><time>2026-03-30T08:23:27.686Z</time></trkpt><trkpt lat="43.01922" lon="2.5476367"><ele>225.0</ele><time>2026-03-30T08:23:28.686Z</time></trkpt><trkpt lat="43.0191567" lon="2.5477683"><ele>223.6</ele><time>2026-03-30T08:23:29.686Z</time></trkpt><trkpt lat="43.019105" lon="2.5478917"><ele>222.2</ele><time>2026-03-30T08:23:30.685Z</time></trkpt><trkpt lat="43.0190733" lon="2.5480183"><ele>220.8</ele><time>2026-03-30T08:23:31.688Z</time></trkpt><trkpt lat="43.0190683" lon="2.5481483"><ele>219.4</ele><time>2026-03-30T08:23:32.687Z</time></trkpt><trkpt lat="43.019085" lon="2.54828"><ele>218.0</ele><time>2026-03-30T08:23:33.69Z</time></trkpt><trkpt lat="43.0191167" lon="2.5484233"><ele>217.60000000000002</ele><time>2026-03-30T08:23:34.687Z</time></trkpt><trkpt lat="43.0191617" lon="2.5485617"><ele>217.20000000000002</ele><time>2026-03-30T08:23:35.686Z</time></trkpt><trkpt lat="43.019205" lon="2.5487033"><ele>216.8</ele><time>2026-03-30T08:23:36.685Z</time></trkpt><trkpt lat="43.0192583" lon="2.54883"><ele>216.4</ele><time>2026-03-30T08:23:37.686Z</time></trkpt><trkpt lat="43.0193033" lon="2.5489517"><ele>216.0</ele><time>2026-03-30T08:23:38.686Z</time></trkpt><trkpt lat="43.0193433" lon="2.549065"><ele>216.0</ele><time>2026-03-30T08:23:39.685Z</time></trkpt><trkpt lat="43.01938" lon="2.5491683"><ele>216.0</ele><time>2026-03-30T08:23:40.685Z</time></trkpt><trkpt lat="43.0194183" lon="2.5492583"><ele>216.0</ele><time>2026-03-30T08:23:41.686Z</time></trkpt><trkpt lat="43.0194767" lon="2.54934"><ele>216.0</ele><time>2026-03-30T08:23:42.687Z</time></trkpt><trkpt lat="43.0195617" lon="2.5494017"><ele>216.0</ele><time>2026-03-30T08:23:43.688Z</time></trkpt><trkpt lat="43.0196617" lon="2.5494317"><ele>216.0</ele><time>2026-03-30T08:23:44.689Z</time></trkpt><trkpt lat="43.0197733" lon="2.5494383"><ele>216.0</ele><time>2026-03-30T08:23:45.685Z</time></trkpt><trkpt lat="43.0198917" lon="2.5493583"><ele>216.0</ele><time>2026-03-30T08:23:46.687Z</time></trkpt><trkpt lat="43.0200067" lon="2.5492433"><ele>216.0</ele><time>2026-03-30T08:23:47.685Z</time></trkpt><trkpt lat="43.020115" lon="2.5491283"><ele>216.0</ele><time>2026-03-30T08:23:48.687Z</time></trkpt><trkpt lat="43.0202433" lon="2.5490467"><ele>217.75</ele><time>2026-03-30T08:23:49.686Z</time></trkpt><trkpt lat="43.0203767" lon="2.5489733"><ele>219.5</ele><time>2026-03-30T08:23:50.686Z</time></trkpt><trkpt lat="43.020495" lon="2.5488867"><ele>221.25</ele><time>2026-03-30T08:23:51.687Z</time></trkpt><trkpt lat="43.0205917" lon="2.5487783"><ele>223.0</ele><time>2026-03-30T08:23:52.686Z</time></trkpt><trkpt lat="43.0206933" lon="2.5487033"><ele>220.0</ele><time>2026-03-30T08:23:53.685Z</time></trkpt><trkpt lat="43.0208067" lon="2.548685"><ele>217.0</ele><time>2026-03-30T08:23:54.686Z</time></trkpt><trkpt lat="43.0209283" lon="2.5487167"><ele>214.0</ele><time>2026-03-30T08:23:55.686Z</time></trkpt><trkpt lat="43.0210617" lon="2.548765"><ele>211.0</ele><time>2026-03-30T08:23:56.686Z</time></trkpt><trkpt lat="43.0212017" lon="2.5488"><ele>211.0</ele><time>2026-03-30T08:23:57.686Z</time></trkpt><trkpt lat="43.0213483" lon="2.5487967"><ele>211.0</ele><time>2026-03-30T08:23:58.686Z</time></trkpt><trkpt lat="43.0214983" lon="2.54876"><ele>211.0</ele><time>2026-03-30T08:23:59.685Z</time></trkpt><trkpt lat="43.021655" lon="2.5487267"><ele>217.66666666666666</ele><time>2026-03-30T08:24:00.686Z</time></trkpt><trkpt lat="43.0218167" lon="2.5487"><ele>224.33333333333331</ele><time>2026-03-30T08:24:01.687Z</time></trkpt><trkpt lat="43.02197" lon="2.548685"><ele>231.0</ele><time>2026-03-30T08:24:02.686Z</time></trkpt><trkpt lat="43.0221217" lon="2.5486833"><ele>231.0</ele><time>2026-03-30T08:24:03.685Z</time></trkpt><trkpt lat="43.0222633" lon="2.54868"><ele>231.0</ele><time>2026-03-30T08:24:04.685Z</time></trkpt><trkpt lat="43.022405" lon="2.5486767"><ele>231.0</ele><time>2026-03-30T08:24:05.685Z</time></trkpt><trkpt lat="43.0225417" lon="2.5486683"><ele>231.0</ele><time>2026-03-30T08:24:06.688Z</time></trkpt><trkpt lat="43.0226683" lon="2.5486483"><ele>228.25</ele><time>2026-03-30T08:24:07.685Z</time></trkpt><trkpt lat="43.0227883" lon="2.5486067"><ele>225.5</ele><time>2026-03-30T08:24:08.686Z</time></trkpt><trkpt lat="43.0229" lon="2.548525"><ele>222.75</ele><time>2026-03-30T08:24:09.686Z</time></trkpt><trkpt lat="43.0229817" lon="2.548385"><ele>220.0</ele><time>2026-03-30T08:24:10.685Z</time></trkpt><trkpt lat="43.0230483" lon="2.5482333"><ele>220.0</ele><time>2026-03-30T08:24:11.685Z</time></trkpt><trkpt lat="43.02309" lon="2.548055"><ele>220.0</ele><time>2026-03-30T08:24:12.688Z</time></trkpt><trkpt lat="43.0231417" lon="2.5478783"><ele>220.0</ele><time>2026-03-30T08:24:13.684Z</time></trkpt><trkpt lat="43.0232" lon="2.5477067"><ele>220.0</ele><time>2026-03-30T08:24:14.686Z</time></trkpt><trkpt lat="43.0232683" lon="2.54754"><ele>218.75</ele><time>2026-03-30T08:24:15.685Z</time></trkpt><trkpt lat="43.0233467" lon="2.547375"><ele>217.5</ele><time>2026-03-30T08:24:16.684Z</time></trkpt><trkpt lat="43.023435" lon="2.54722"><ele>216.25</ele><time>2026-03-30T08:24:17.685Z</time></trkpt><trkpt lat="43.023535" lon="2.5470833"><ele>215.0</ele><time>2026-03-30T08:24:18.685Z</time></trkpt><trkpt lat="43.023645" lon="2.5469467"><ele>213.25</ele><time>2026-03-30T08:24:19.685Z</time></trkpt><trkpt lat="43.0237667" lon="2.5468"><ele>211.5</ele><time>2026-03-30T08:24:20.685Z</time></trkpt><trkpt lat="43.023875" lon="2.5466767"><ele>209.75</ele><time>2026-03-30T08:24:21.685Z</time></trkpt><trkpt lat="43.0240017" lon="2.54658"><ele>208.0</ele><time>2026-03-30T08:24:22.685Z</time></trkpt><trkpt lat="43.0241533" lon="2.5465033"><ele>208.0</ele><time>2026-03-30T08:24:23.687Z</time></trkpt><trkpt lat="43.0242967" lon="2.546425"><ele>208.0</ele><time>2026-03-30T08:24:24.685Z</time></trkpt><trkpt lat="43.0244333" lon="2.5463567"><ele>208.0</ele><time>2026-03-30T08:24:25.687Z</time></trkpt><trkpt lat="43.0245817" lon="2.5462983"><ele>208.0</ele><time>2026-03-30T08:24:26.685Z</time></trkpt><trkpt lat="43.0247333" lon="2.5462367"><ele>208.0</ele><time>2026-03-30T08:24:27.684Z</time></trkpt><trkpt lat="43.02489" lon="2.5461967"><ele>208.0</ele><time>2026-03-30T08:24:28.685Z</time></trkpt><trkpt lat="43.025055" lon="2.54618"><ele>210.66666666666666</ele><time>2026-03-30T08:24:29.685Z</time></trkpt><trkpt lat="43.0252233" lon="2.5461617"><ele>213.33333333333331</ele><time>2026-03-30T08:24:30.685Z</time></trkpt><trkpt lat="43.0253867" lon="2.5461333"><ele>216.0</ele><time>2026-03-30T08:24:31.684Z</time></trkpt><trkpt lat="43.02555" lon="2.5461067"><ele>216.0</ele><time>2026-03-30T08:24:32.685Z</time></trkpt><trkpt lat="43.025705" lon="2.5460733"><ele>216.0</ele><time>2026-03-30T08:24:33.685Z</time></trkpt><trkpt lat="43.0258517" lon="2.54604"><ele>216.0</ele><time>2026-03-30T08:24:34.688Z</time></trkpt><trkpt lat="43.0260017" lon="2.5459983"><ele>215.0</ele><time>2026-03-30T08:24:35.684Z</time></trkpt><trkpt lat="43.0261417" lon="2.5459617"><ele>214.0</ele><time>2026-03-30T08:24:36.685Z</time></trkpt><trkpt lat="43.0262767" lon="2.5459183"><ele>213.0</ele><time>2026-03-30T08:24:37.685Z</time></trkpt><trkpt lat="43.0264033" lon="2.5458767"><ele>212.0</ele><time>2026-03-30T08:24:38.689Z</time></trkpt><trkpt lat="43.0265233" lon="2.5458583"><ele>212.0</ele><time>2026-03-30T08:24:39.685Z</time></trkpt><trkpt lat="43.0266233" lon="2.545865"><ele>212.0</ele><time>2026-03-30T08:24:40.687Z</time></trkpt><trkpt lat="43.0267167" lon="2.5458983"><ele>212.0</ele><time>2026-03-30T08:24:41.684Z</time></trkpt><trkpt lat="43.0267767" lon="2.5460017"><ele>212.0</ele><time>2026-03-30T08:24:42.684Z</time></trkpt><trkpt lat="43.0268067" lon="2.5461283"><ele>212.0</ele><time>2026-03-30T08:24:43.684Z</time></trkpt><trkpt lat="43.0268183" lon="2.5462667"><ele>210.50000000000003</ele><time>2026-03-30T08:24:44.685Z</time></trkpt><trkpt lat="43.0268383" lon="2.54638"><ele>209.0</ele><time>2026-03-30T08:24:45.686Z</time></trkpt><trkpt lat="43.0268583" lon="2.546495"><ele>207.5</ele><time>2026-03-30T08:24:46.687Z</time></trkpt><trkpt lat="43.0268867" lon="2.54662"><ele>206.0</ele><time>2026-03-30T08:24:48.687Z</time></trkpt><trkpt lat="43.02685" lon="2.5467067"><ele>204.50000000000003</ele><time>2026-03-30T08:24:51.686Z</time></trkpt><trkpt lat="43.0267667" lon="2.5466533"><ele>203.0</ele><time>2026-03-30T08:24:54.687Z</time></trkpt><trkpt lat="43.0267033" lon="2.5466383"><ele>203.0</ele><time>2026-03-30T08:24:56.686Z</time></trkpt><trkpt lat="43.0267133" lon="2.5467317"><ele>203.0</ele><time>2026-03-30T08:41:51.686Z</time></trkpt><trkpt lat="43.0268017" lon="2.5467983"><ele>203.0</ele><time>2026-03-30T08:41:53.685Z</time></trkpt><trkpt lat="43.02689" lon="2.5468517"><ele>203.0</ele><time>2026-03-30T08:41:55.686Z</time></trkpt><trkpt lat="43.0269733" lon="2.5468967"><ele>203.0</ele><time>2026-03-30T08:41:57.686Z</time></trkpt><trkpt lat="43.02706" lon="2.5469483"><ele>203.0</ele><time>2026-03-30T08:41:59.686Z</time></trkpt><trkpt lat="43.0271417" lon="2.54699"><ele>203.0</ele><time>2026-03-30T08:42:01.686Z</time></trkpt><trkpt lat="43.0272517" lon="2.5470183"><ele>203.0</ele><time>2026-03-30T08:42:03.687Z</time></trkpt><trkpt lat="43.0273433" lon="2.547055"><ele>203.0</ele><time>2026-03-30T08:42:05.688Z</time></trkpt><trkpt lat="43.0274583" lon="2.5471183"><ele>203.0</ele><time>2026-03-30T08:42:07.686Z</time></trkpt><trkpt lat="43.02758" lon="2.54717"><ele>206.16666666666669</ele><time>2026-03-30T08:42:09.688Z</time></trkpt><trkpt lat="43.0276367" lon="2.5472083"><ele>209.33333333333334</ele><time>2026-03-30T08:42:10.689Z</time></trkpt><trkpt lat="43.0277383" lon="2.5472767"><ele>212.5</ele><time>2026-03-30T08:42:12.688Z</time></trkpt><trkpt lat="43.0277967" lon="2.54733"><ele>215.66666666666669</ele><time>2026-03-30T08:42:14.688Z</time></trkpt><trkpt lat="43.0278583" lon="2.547385"><ele>218.83333333333334</ele><time>2026-03-30T08:42:17.687Z</time></trkpt><trkpt lat="43.0278267" lon="2.547475"><ele>222.0</ele><time>2026-03-30T08:42:20.686Z</time></trkpt><trkpt lat="43.0277567" lon="2.547415"><ele>222.0</ele><time>2026-03-30T08:42:48.687Z</time></trkpt><trkpt lat="43.0276517" lon="2.547375"><ele>222.0</ele><time>2026-03-30T08:42:50.685Z</time></trkpt><trkpt lat="43.027585" lon="2.5473517"><ele>222.0</ele><time>2026-03-30T08:42:51.686Z</time></trkpt><trkpt lat="43.0275167" lon="2.547335"><ele>222.0</ele><time>2026-03-30T08:42:52.685Z</time></trkpt><trkpt lat="43.0274467" lon="2.5473233"><ele>222.0</ele><time>2026-03-30T08:42:53.686Z</time></trkpt><trkpt lat="43.0273683" lon="2.5473083"><ele>222.0</ele><time>2026-03-30T08:42:54.692Z</time></trkpt><trkpt lat="43.0272883" lon="2.5472967"><ele>222.83333333333334</ele><time>2026-03-30T08:42:55.684Z</time></trkpt><trkpt lat="43.0272067" lon="2.547285"><ele>223.66666666666669</ele><time>2026-03-30T08:42:56.686Z</time></trkpt><trkpt lat="43.0271217" lon="2.5472733"><ele>224.5</ele><time>2026-03-30T08:42:57.685Z</time></trkpt><trkpt lat="43.0270317" lon="2.5472583"><ele>225.33333333333334</ele><time>2026-03-30T08:42:58.686Z</time></trkpt><trkpt lat="43.0269417" lon="2.5472417"><ele>226.16666666666669</ele><time>2026-03-30T08:42:59.685Z</time></trkpt><trkpt lat="43.0268467" lon="2.5472183"><ele>227.0</ele><time>2026-03-30T08:43:00.685Z</time></trkpt><trkpt lat="43.0267533" lon="2.5471983"><ele>227.00000000000003</ele><time>2026-03-30T08:43:01.685Z</time></trkpt><trkpt lat="43.0266667" lon="2.5471917"><ele>227.0</ele><time>2026-03-30T08:43:02.685Z</time></trkpt><trkpt lat="43.0265867" lon="2.5471983"><ele>227.0</ele><time>2026-03-30T08:43:03.685Z</time></trkpt><trkpt lat="43.0265133" lon="2.5472083"><ele>227.0</ele><time>2026-03-30T08:43:04.686Z</time></trkpt><trkpt lat="43.0264433" lon="2.5472267"><ele>227.00000000000003</ele><time>2026-03-30T08:43:05.686Z</time></trkpt><trkpt lat="43.0263733" lon="2.5472617"><ele>227.0</ele><time>2026-03-30T08:43:06.686Z</time></trkpt><trkpt lat="43.0263017" lon="2.54732"><ele>225.66666666666669</ele><time>2026-03-30T08:43:07.686Z</time></trkpt><trkpt lat="43.026235" lon="2.547395"><ele>224.33333333333334</ele><time>2026-03-30T08:43:08.685Z</time></trkpt><trkpt lat="43.0261733" lon="2.54748"><ele>223.0</ele><time>2026-03-30T08:43:09.685Z</time></trkpt><trkpt lat="43.026105" lon="2.5475617"><ele>221.66666666666669</ele><time>2026-03-30T08:43:10.685Z</time></trkpt><trkpt lat="43.026035" lon="2.5476433"><ele>220.33333333333334</ele><time>2026-03-30T08:43:11.685Z</time></trkpt><trkpt lat="43.0259617" lon="2.54772"><ele>219.0</ele><time>2026-03-30T08:43:12.686Z</time></trkpt><trkpt lat="43.02589" lon="2.5478017"><ele>220.0</ele><time>2026-03-30T08:43:13.685Z</time></trkpt><trkpt lat="43.02582" lon="2.54789"><ele>220.99999999999997</ele><time>2026-03-30T08:43:14.685Z</time></trkpt><trkpt lat="43.025755" lon="2.5479883"><ele>221.99999999999997</ele><time>2026-03-30T08:43:15.686Z</time></trkpt><trkpt lat="43.02569" lon="2.5480967"><ele>223.0</ele><time>2026-03-30T08:43:16.685Z</time></trkpt><trkpt lat="43.0256267" lon="2.548205"><ele>224.0</ele><time>2026-03-30T08:43:17.685Z</time></trkpt><trkpt lat="43.0255567" lon="2.5483117"><ele>224.0</ele><time>2026-03-30T08:43:18.685Z</time></trkpt><trkpt lat="43.0254917" lon="2.5484133"><ele>223.99999999999997</ele><time>2026-03-30T08:43:19.686Z</time></trkpt><trkpt lat="43.0254217" lon="2.5485167"><ele>223.99999999999997</ele><time>2026-03-30T08:43:20.685Z</time></trkpt><trkpt lat="43.0253533" lon="2.5486183"><ele>224.0</ele><time>2026-03-30T08:43:21.687Z</time></trkpt><trkpt lat="43.02528" lon="2.5487283"><ele>224.0</ele><time>2026-03-30T08:43:22.687Z</time></trkpt><trkpt lat="43.02521" lon="2.5488417"><ele>222.0</ele><time>2026-03-30T08:43:23.688Z</time></trkpt><trkpt lat="43.0251367" lon="2.548965"><ele>219.99999999999997</ele><time>2026-03-30T08:43:24.686Z</time></trkpt><trkpt lat="43.0250617" lon="2.5490917"><ele>217.99999999999997</ele><time>2026-03-30T08:43:25.684Z</time></trkpt><trkpt lat="43.025" lon="2.5492167"><ele>216.0</ele><time>2026-03-30T08:43:26.685Z</time></trkpt><trkpt lat="43.0249467" lon="2.5493333"><ele>214.0</ele><time>2026-03-30T08:43:27.689Z</time></trkpt><trkpt lat="43.0249033" lon="2.54945"><ele>213.79999999999998</ele><time>2026-03-30T08:43:28.686Z</time></trkpt><trkpt lat="43.0248917" lon="2.5496367"><ele>213.59999999999997</ele><time>2026-03-30T08:43:30.684Z</time></trkpt><trkpt lat="43.0248883" lon="2.549745"><ele>213.4</ele><time>2026-03-30T08:43:31.688Z</time></trkpt><trkpt lat="43.0249033" lon="2.5498533"><ele>213.2</ele><time>2026-03-30T08:43:32.685Z</time></trkpt><trkpt lat="43.0249217" lon="2.5499633"><ele>213.0</ele><time>2026-03-30T08:43:33.688Z</time></trkpt><trkpt lat="43.0249383" lon="2.55006"><ele>213.0</ele><time>2026-03-30T08:43:34.685Z</time></trkpt><trkpt lat="43.0249667" lon="2.5501467"><ele>213.0</ele><time>2026-03-30T08:43:35.687Z</time></trkpt><trkpt lat="43.0250117" lon="2.550225"><ele>213.0</ele><time>2026-03-30T08:43:36.685Z</time></trkpt><trkpt lat="43.0250783" lon="2.5502867"><ele>213.0</ele><time>2026-03-30T08:43:37.688Z</time></trkpt><trkpt lat="43.02515" lon="2.5503483"><ele>213.0</ele><time>2026-03-30T08:43:38.685Z</time></trkpt><trkpt lat="43.0252217" lon="2.5504283"><ele>213.0</ele><time>2026-03-30T08:43:39.685Z</time></trkpt><trkpt lat="43.0252817" lon="2.5505267"><ele>218.5</ele><time>2026-03-30T08:43:40.686Z</time></trkpt><trkpt lat="43.0253217" lon="2.55065"><ele>224.0</ele><time>2026-03-30T08:43:41.686Z</time></trkpt><trkpt lat="43.0253483" lon="2.5507833"><ele>229.5</ele><time>2026-03-30T08:43:42.686Z</time></trkpt><trkpt lat="43.0253783" lon="2.5509133"><ele>235.0</ele><time>2026-03-30T08:43:43.684Z</time></trkpt><trkpt lat="43.0254117" lon="2.5510183"><ele>240.5</ele><time>2026-03-30T08:43:44.686Z</time></trkpt><trkpt lat="43.02544" lon="2.5510983"><ele>246.0</ele><time>2026-03-30T08:43:45.686Z</time></trkpt><trkpt lat="43.0254383" lon="2.5512217"><ele>248.5</ele><time>2026-03-30T08:43:47.685Z</time></trkpt><trkpt lat="43.0253467" lon="2.5513033"><ele>251.0</ele><time>2026-03-30T08:43:49.686Z</time></trkpt><trkpt lat="43.025285" lon="2.5513217"><ele>253.5</ele><time>2026-03-30T08:43:50.686Z</time></trkpt><trkpt lat="43.0252167" lon="2.5512967"><ele>256.0</ele><time>2026-03-30T08:43:51.687Z</time></trkpt><trkpt lat="43.0251283" lon="2.5512467"><ele>258.5</ele><time>2026-03-30T08:43:52.685Z</time></trkpt><trkpt lat="43.0250483" lon="2.5512217"><ele>261.0</ele><time>2026-03-30T08:43:53.685Z</time></trkpt><trkpt lat="43.02497" lon="2.551215"><ele>255.83333333333334</ele><time>2026-03-30T08:43:54.685Z</time></trkpt><trkpt lat="43.024905" lon="2.5512517"><ele>250.66666666666669</ele><time>2026-03-30T08:43:55.69Z</time></trkpt><trkpt lat="43.0248517" lon="2.551325"><ele>245.5</ele><time>2026-03-30T08:43:56.685Z</time></trkpt><trkpt lat="43.0248" lon="2.5514233"><ele>240.33333333333334</ele><time>2026-03-30T08:43:57.684Z</time></trkpt><trkpt lat="43.02475" lon="2.551535"><ele>235.16666666666669</ele><time>2026-03-30T08:43:58.686Z</time></trkpt><trkpt lat="43.02469" lon="2.5516683"><ele>230.0</ele><time>2026-03-30T08:43:59.686Z</time></trkpt><trkpt lat="43.0246333" lon="2.5518067"><ele>230.0</ele><time>2026-03-30T08:44:00.689Z</time></trkpt><trkpt lat="43.0245767" lon="2.5519467"><ele>230.0</ele><time>2026-03-30T08:44:01.685Z</time></trkpt><trkpt lat="43.0245183" lon="2.5520883"><ele>230.0</ele><time>2026-03-30T08:44:02.687Z</time></trkpt><trkpt lat="43.0244583" lon="2.5522283"><ele>230.0</ele><time>2026-03-30T08:44:03.686Z</time></trkpt><trkpt lat="43.02439" lon="2.5523717"><ele>234.75</ele><time>2026-03-30T08:44:04.686Z</time></trkpt><trkpt lat="43.02432" lon="2.5525133"><ele>239.5</ele><time>2026-03-30T08:44:05.685Z</time></trkpt><trkpt lat="43.0242433" lon="2.55266"><ele>244.25</ele><time>2026-03-30T08:44:06.685Z</time></trkpt><trkpt lat="43.0241717" lon="2.552805"><ele>249.0</ele><time>2026-03-30T08:44:07.687Z</time></trkpt><trkpt lat="43.0241067" lon="2.5529417"><ele>249.0</ele><time>2026-03-30T08:44:08.684Z</time></trkpt><trkpt lat="43.0240517" lon="2.5530683"><ele>248.99999999999997</ele><time>2026-03-30T08:44:09.686Z</time></trkpt><trkpt lat="43.024" lon="2.5531817"><ele>248.99999999999997</ele><time>2026-03-30T08:44:10.685Z</time></trkpt><trkpt lat="43.0239383" lon="2.5532767"><ele>249.0</ele><time>2026-03-30T08:44:11.685Z</time></trkpt><trkpt lat="43.02386" lon="2.5533517"><ele>249.0</ele><time>2026-03-30T08:44:12.685Z</time></trkpt><trkpt lat="43.0237683" lon="2.55342"><ele>249.0</ele><time>2026-03-30T08:44:13.685Z</time></trkpt><trkpt lat="43.023675" lon="2.5534717"><ele>248.99999999999997</ele><time>2026-03-30T08:44:14.686Z</time></trkpt><trkpt lat="43.0235783" lon="2.5535067"><ele>248.99999999999997</ele><time>2026-03-30T08:44:15.685Z</time></trkpt><trkpt lat="43.02348" lon="2.55353"><ele>249.0</ele><time>2026-03-30T08:44:16.685Z</time></trkpt><trkpt lat="43.0233917" lon="2.5535567"><ele>249.0</ele><time>2026-03-30T08:44:17.685Z</time></trkpt><trkpt lat="43.0233233" lon="2.5536067"><ele>247.39999999999998</ele><time>2026-03-30T08:44:18.685Z</time></trkpt><trkpt lat="43.02327" lon="2.553705"><ele>245.79999999999998</ele><time>2026-03-30T08:44:19.687Z</time></trkpt><trkpt lat="43.0232267" lon="2.5538233"><ele>244.20000000000002</ele><time>2026-03-30T08:44:20.685Z</time></trkpt><trkpt lat="43.02319" lon="2.55396"><ele>242.60000000000002</ele><time>2026-03-30T08:44:21.685Z</time></trkpt><trkpt lat="43.023165" lon="2.5541017"><ele>241.0</ele><time>2026-03-30T08:44:22.685Z</time></trkpt><trkpt lat="43.0231467" lon="2.5542467"><ele>241.0</ele><time>2026-03-30T08:44:23.687Z</time></trkpt><trkpt lat="43.02313" lon="2.55439"><ele>241.00000000000003</ele><time>2026-03-30T08:44:24.685Z</time></trkpt><trkpt lat="43.023095" lon="2.55453"><ele>241.00000000000003</ele><time>2026-03-30T08:44:25.684Z</time></trkpt><trkpt lat="43.0230467" lon="2.55466"><ele>241.0</ele><time>2026-03-30T08:44:26.684Z</time></trkpt><trkpt lat="43.0230067" lon="2.5547883"><ele>241.0</ele><time>2026-03-30T08:44:27.687Z</time></trkpt><trkpt lat="43.0229833" lon="2.5549183"><ele>243.33333333333331</ele><time>2026-03-30T08:44:28.687Z</time></trkpt><trkpt lat="43.0229567" lon="2.555045"><ele>245.66666666666666</ele><time>2026-03-30T08:44:29.685Z</time></trkpt><trkpt lat="43.0229317" lon="2.555155"><ele>248.0</ele><time>2026-03-30T08:44:30.686Z</time></trkpt><trkpt lat="43.0228967" lon="2.5552433"><ele>250.33333333333331</ele><time>2026-03-30T08:44:31.685Z</time></trkpt><trkpt lat="43.0228267" lon="2.5553217"><ele>252.66666666666666</ele><time>2026-03-30T08:44:32.686Z</time></trkpt><trkpt lat="43.0227467" lon="2.5554017"><ele>255.0</ele><time>2026-03-30T08:44:33.685Z</time></trkpt><trkpt lat="43.022665" lon="2.5554983"><ele>256.0</ele><time>2026-03-30T08:44:34.684Z</time></trkpt><trkpt lat="43.0225817" lon="2.5556083"><ele>257.0</ele><time>2026-03-30T08:44:35.685Z</time></trkpt><trkpt lat="43.0225017" lon="2.5557333"><ele>258.0</ele><time>2026-03-30T08:44:36.686Z</time></trkpt><trkpt lat="43.02242" lon="2.5558717"><ele>259.0</ele><time>2026-03-30T08:44:37.686Z</time></trkpt><trkpt lat="43.0223467" lon="2.5560117"><ele>259.0</ele><time>2026-03-30T08:44:38.685Z</time></trkpt><trkpt lat="43.02228" lon="2.5561483"><ele>259.0</ele><time>2026-03-30T08:44:39.685Z</time></trkpt><trkpt lat="43.0222133" lon="2.5562817"><ele>259.0</ele><time>2026-03-30T08:44:40.687Z</time></trkpt><trkpt lat="43.0221417" lon="2.5563983"><ele>259.0</ele><time>2026-03-30T08:44:41.688Z</time></trkpt><trkpt lat="43.02206" lon="2.556505"><ele>260.8</ele><time>2026-03-30T08:44:42.685Z</time></trkpt><trkpt lat="43.02199" lon="2.5566033"><ele>262.59999999999997</ele><time>2026-03-30T08:44:43.687Z</time></trkpt><trkpt lat="43.0219317" lon="2.55671"><ele>264.4</ele><time>2026-03-30T08:44:44.686Z</time></trkpt><trkpt lat="43.021885" lon="2.55682"><ele>266.2</ele><time>2026-03-30T08:44:45.696Z</time></trkpt><trkpt lat="43.021855" lon="2.5569317"><ele>268.0</ele><time>2026-03-30T08:44:46.686Z</time></trkpt><trkpt lat="43.021835" lon="2.55705"><ele>268.4</ele><time>2026-03-30T08:44:47.686Z</time></trkpt><trkpt lat="43.021825" lon="2.5571733"><ele>268.8</ele><time>2026-03-30T08:44:48.685Z</time></trkpt><trkpt lat="43.0218233" lon="2.5572983"><ele>269.2</ele><time>2026-03-30T08:44:49.685Z</time></trkpt><trkpt lat="43.0218267" lon="2.5574233"><ele>269.6</ele><time>2026-03-30T08:44:50.687Z</time></trkpt><trkpt lat="43.0218333" lon="2.55755"><ele>270.0</ele><time>2026-03-30T08:44:51.685Z</time></trkpt><trkpt lat="43.0218133" lon="2.55768"><ele>270.0</ele><time>2026-03-30T08:44:52.685Z</time></trkpt><trkpt lat="43.02179" lon="2.55781"><ele>270.0</ele><time>2026-03-30T08:44:53.688Z</time></trkpt><trkpt lat="43.02176" lon="2.5579567"><ele>270.0</ele><time>2026-03-30T08:44:54.686Z</time></trkpt><trkpt lat="43.0217433" lon="2.5580933"><ele>270.0</ele><time>2026-03-30T08:44:55.688Z</time></trkpt><trkpt lat="43.0217317" lon="2.558215"><ele>270.0</ele><time>2026-03-30T08:44:56.688Z</time></trkpt><trkpt lat="43.0217317" lon="2.5583267"><ele>270.4</ele><time>2026-03-30T08:44:57.687Z</time></trkpt><trkpt lat="43.0217617" lon="2.5584433"><ele>270.8</ele><time>2026-03-30T08:44:58.685Z</time></trkpt><trkpt lat="43.0218133" lon="2.5585483"><ele>271.2</ele><time>2026-03-30T08:44:59.685Z</time></trkpt><trkpt lat="43.0218767" lon="2.558645"><ele>271.6</ele><time>2026-03-30T08:45:00.687Z</time></trkpt><trkpt lat="43.0219367" lon="2.5587367"><ele>272.0</ele><time>2026-03-30T08:45:01.686Z</time></trkpt><trkpt lat="43.0219767" lon="2.558845"><ele>272.0</ele><time>2026-03-30T08:45:02.685Z</time></trkpt><trkpt lat="43.022005" lon="2.5589583"><ele>272.0</ele><time>2026-03-30T08:45:03.686Z</time></trkpt><trkpt lat="43.02202" lon="2.55908"><ele>272.0</ele><time>2026-03-30T08:45:04.688Z</time></trkpt><trkpt lat="43.022025" lon="2.5592117"><ele>272.0</ele><time>2026-03-30T08:45:05.685Z</time></trkpt><trkpt lat="43.0220017" lon="2.55935"><ele>272.0</ele><time>2026-03-30T08:45:06.686Z</time></trkpt><trkpt lat="43.0219667" lon="2.5594883"><ele>273.6</ele><time>2026-03-30T08:45:07.685Z</time></trkpt><trkpt lat="43.0219233" lon="2.5596183"><ele>275.2</ele><time>2026-03-30T08:45:08.685Z</time></trkpt><trkpt lat="43.0218767" lon="2.5597483"><ele>276.8</ele><time>2026-03-30T08:45:09.684Z</time></trkpt><trkpt lat="43.0218333" lon="2.5598833"><ele>278.4</ele><time>2026-03-30T08:45:10.686Z</time></trkpt><trkpt lat="43.0217983" lon="2.56001"><ele>280.0</ele><time>2026-03-30T08:45:11.686Z</time></trkpt><trkpt lat="43.021785" lon="2.56012"><ele>280.0</ele><time>2026-03-30T08:45:12.687Z</time></trkpt><trkpt lat="43.0217683" lon="2.56022"><ele>280.0</ele><time>2026-03-30T08:45:13.686Z</time></trkpt><trkpt lat="43.0217483" lon="2.560315"><ele>280.0</ele><time>2026-03-30T08:45:14.688Z</time></trkpt><trkpt lat="43.02171" lon="2.5603883"><ele>280.0</ele><time>2026-03-30T08:45:15.684Z</time></trkpt><trkpt lat="43.0216467" lon="2.5604383"><ele>280.0</ele><time>2026-03-30T08:45:16.686Z</time></trkpt><trkpt lat="43.0215767" lon="2.5604633"><ele>280.0</ele><time>2026-03-30T08:45:17.687Z</time></trkpt><trkpt lat="43.0214967" lon="2.5604417"><ele>280.0</ele><time>2026-03-30T08:45:18.685Z</time></trkpt><trkpt lat="43.021425" lon="2.5603783"><ele>280.16666666666663</ele><time>2026-03-30T08:45:19.687Z</time></trkpt><trkpt lat="43.0213683" lon="2.560295"><ele>280.3333333333333</ele><time>2026-03-30T08:45:20.685Z</time></trkpt><trkpt lat="43.0213067" lon="2.5602283"><ele>280.5</ele><time>2026-03-30T08:45:21.687Z</time></trkpt><trkpt lat="43.0212433" lon="2.560215"><ele>280.6666666666667</ele><time>2026-03-30T08:45:22.686Z</time></trkpt><trkpt lat="43.0211833" lon="2.5602417"><ele>280.83333333333337</ele><time>2026-03-30T08:45:23.689Z</time></trkpt><trkpt lat="43.0211067" lon="2.5603917"><ele>281.0</ele><time>2026-03-30T08:45:25.686Z</time></trkpt><trkpt lat="43.0210783" lon="2.5605017"><ele>281.0</ele><time>2026-03-30T08:45:26.686Z</time></trkpt><trkpt lat="43.021065" lon="2.5606283"><ele>281.0</ele><time>2026-03-30T08:45:27.687Z</time></trkpt><trkpt lat="43.02105" lon="2.5607617"><ele>281.0</ele><time>2026-03-30T08:45:28.685Z</time></trkpt><trkpt lat="43.021025" lon="2.560895"><ele>281.0</ele><time>2026-03-30T08:45:29.686Z</time></trkpt><trkpt lat="43.020985" lon="2.5610233"><ele>281.0</ele><time>2026-03-30T08:45:30.685Z</time></trkpt><trkpt lat="43.0209367" lon="2.56116"><ele>283.0</ele><time>2026-03-30T08:45:31.69Z</time></trkpt><trkpt lat="43.02089" lon="2.5613033"><ele>285.0</ele><time>2026-03-30T08:45:32.687Z</time></trkpt><trkpt lat="43.0208417" lon="2.5614517"><ele>287.0</ele><time>2026-03-30T08:45:33.684Z</time></trkpt><trkpt lat="43.02079" lon="2.5615967"><ele>289.0</ele><time>2026-03-30T08:45:34.687Z</time></trkpt><trkpt lat="43.020735" lon="2.56175"><ele>286.8</ele><time>2026-03-30T08:45:35.686Z</time></trkpt><trkpt lat="43.0206783" lon="2.5618983"><ele>284.59999999999997</ele><time>2026-03-30T08:45:36.686Z</time></trkpt><trkpt lat="43.0206317" lon="2.5620267"><ele>282.4</ele><time>2026-03-30T08:45:37.685Z</time></trkpt><trkpt lat="43.0205917" lon="2.56214"><ele>280.2</ele><time>2026-03-30T08:45:38.686Z</time></trkpt><trkpt lat="43.02056" lon="2.56224"><ele>278.0</ele><time>2026-03-30T08:45:39.688Z</time></trkpt><trkpt lat="43.0205467" lon="2.562345"><ele>278.0</ele><time>2026-03-30T08:45:40.684Z</time></trkpt><trkpt lat="43.0205483" lon="2.5624567"><ele>278.0</ele><time>2026-03-30T08:45:41.685Z</time></trkpt><trkpt lat="43.020575" lon="2.5625767"><ele>278.0</ele><time>2026-03-30T08:45:42.685Z</time></trkpt><trkpt lat="43.020625" lon="2.562695"><ele>278.0</ele><time>2026-03-30T08:45:43.686Z</time></trkpt><trkpt lat="43.02068" lon="2.5627967"><ele>278.0</ele><time>2026-03-30T08:45:44.688Z</time></trkpt><trkpt lat="43.0207417" lon="2.5628817"><ele>280.8</ele><time>2026-03-30T08:45:45.684Z</time></trkpt><trkpt lat="43.0207733" lon="2.5629883"><ele>283.6</ele><time>2026-03-30T08:45:46.686Z</time></trkpt><trkpt lat="43.0207667" lon="2.56311"><ele>286.4</ele><time>2026-03-30T08:45:47.685Z</time></trkpt><trkpt lat="43.0207367" lon="2.5632367"><ele>289.2</ele><time>2026-03-30T08:45:48.686Z</time></trkpt><trkpt lat="43.0207083" lon="2.5633733"><ele>292.0</ele><time>2026-03-30T08:45:49.686Z</time></trkpt><trkpt lat="43.02068" lon="2.5635117"><ele>292.0</ele><time>2026-03-30T08:45:50.686Z</time></trkpt><trkpt lat="43.0206533" lon="2.5636383"><ele>292.0</ele><time>2026-03-30T08:45:51.685Z</time></trkpt><trkpt lat="43.020625" lon="2.563745"><ele>292.0</ele><time>2026-03-30T08:45:52.687Z</time></trkpt><trkpt lat="43.0205967" lon="2.5638233"><ele>292.0</ele><time>2026-03-30T08:45:53.685Z</time></trkpt><trkpt lat="43.0205183" lon="2.56381"><ele>292.0</ele><time>2026-03-30T08:45:55.687Z</time></trkpt><trkpt lat="43.020485" lon="2.563685"><ele>292.0</ele><time>2026-03-30T08:45:58.685Z</time></trkpt><trkpt lat="43.0204883" lon="2.563585"><ele>292.0</ele><time>2026-03-30T08:46:00.684Z</time></trkpt><trkpt lat="43.0204683" lon="2.5634483"><ele>292.0</ele><time>2026-03-30T08:46:02.686Z</time></trkpt><trkpt lat="43.0204033" lon="2.5633267"><ele>292.0</ele><time>2026-03-30T08:46:04.685Z</time></trkpt><trkpt lat="43.0203417" lon="2.5632967"><ele>292.0</ele><time>2026-03-30T08:46:05.687Z</time></trkpt><trkpt lat="43.0202683" lon="2.56328"><ele>292.0</ele><time>2026-03-30T08:46:06.686Z</time></trkpt><trkpt lat="43.0201883" lon="2.5632967"><ele>292.0</ele><time>2026-03-30T08:46:07.685Z</time></trkpt><trkpt lat="43.020105" lon="2.5633383"><ele>292.0</ele><time>2026-03-30T08:46:08.685Z</time></trkpt><trkpt lat="43.020025" lon="2.5634083"><ele>292.0</ele><time>2026-03-30T08:46:09.684Z</time></trkpt><trkpt lat="43.01995" lon="2.56351"><ele>292.0</ele><time>2026-03-30T08:46:10.686Z</time></trkpt><trkpt lat="43.0198783" lon="2.5636317"><ele>292.0</ele><time>2026-03-30T08:46:11.686Z</time></trkpt><trkpt lat="43.0198133" lon="2.563755"><ele>292.0</ele><time>2026-03-30T08:46:12.689Z</time></trkpt><trkpt lat="43.0197483" lon="2.56388"><ele>291.4</ele><time>2026-03-30T08:46:13.685Z</time></trkpt><trkpt lat="43.01969" lon="2.5640017"><ele>290.79999999999995</ele><time>2026-03-30T08:46:14.69Z</time></trkpt><trkpt lat="43.01963" lon="2.5641217"><ele>290.2</ele><time>2026-03-30T08:46:15.687Z</time></trkpt><trkpt lat="43.01956" lon="2.564225"><ele>289.59999999999997</ele><time>2026-03-30T08:46:16.686Z</time></trkpt><trkpt lat="43.0194833" lon="2.5643167"><ele>289.0</ele><time>2026-03-30T08:46:17.686Z</time></trkpt><trkpt lat="43.0194033" lon="2.564415"><ele>289.0</ele><time>2026-03-30T08:46:18.687Z</time></trkpt><trkpt lat="43.0193233" lon="2.5645167"><ele>289.0</ele><time>2026-03-30T08:46:19.685Z</time></trkpt><trkpt lat="43.01924" lon="2.5646183"><ele>289.0</ele><time>2026-03-30T08:46:20.687Z</time></trkpt><trkpt lat="43.0191583" lon="2.5647083"><ele>289.0</ele><time>2026-03-30T08:46:21.685Z</time></trkpt><trkpt lat="43.019075" lon="2.5647917"><ele>289.0</ele><time>2026-03-30T08:46:22.685Z</time></trkpt><trkpt lat="43.0189983" lon="2.5648817"><ele>288.4</ele><time>2026-03-30T08:46:23.685Z</time></trkpt><trkpt lat="43.0189317" lon="2.56499"><ele>287.79999999999995</ele><time>2026-03-30T08:46:24.688Z</time></trkpt><trkpt lat="43.0188667" lon="2.5651133"><ele>287.20000000000005</ele><time>2026-03-30T08:46:25.685Z</time></trkpt><trkpt lat="43.0188" lon="2.5652433"><ele>286.6</ele><time>2026-03-30T08:46:26.686Z</time></trkpt><trkpt lat="43.0187467" lon="2.5653783"><ele>286.0</ele><time>2026-03-30T08:46:27.687Z</time></trkpt><trkpt lat="43.01871" lon="2.56552"><ele>289.40000000000003</ele><time>2026-03-30T08:46:28.684Z</time></trkpt><trkpt lat="43.0186717" lon="2.5656617"><ele>292.8</ele><time>2026-03-30T08:46:29.686Z</time></trkpt><trkpt lat="43.0186217" lon="2.5657883"><ele>296.20000000000005</ele><time>2026-03-30T08:46:30.685Z</time></trkpt><trkpt lat="43.0185633" lon="2.5658967"><ele>299.6</ele><time>2026-03-30T08:46:31.685Z</time></trkpt><trkpt lat="43.0185" lon="2.5659983"><ele>303.0</ele><time>2026-03-30T08:46:32.687Z</time></trkpt><trkpt lat="43.0184333" lon="2.5660983"><ele>303.0</ele><time>2026-03-30T08:46:33.687Z</time></trkpt><trkpt lat="43.018365" lon="2.566185"><ele>303.0</ele><time>2026-03-30T08:46:34.686Z</time></trkpt><trkpt lat="43.0182967" lon="2.5662633"><ele>303.0</ele><time>2026-03-30T08:46:35.685Z</time></trkpt><trkpt lat="43.0182333" lon="2.5663517"><ele>303.0</ele><time>2026-03-30T08:46:36.686Z</time></trkpt><trkpt lat="43.0181833" lon="2.566455"><ele>303.0</ele><time>2026-03-30T08:46:37.687Z</time></trkpt><trkpt lat="43.018145" lon="2.566565"><ele>300.2</ele><time>2026-03-30T08:46:38.688Z</time></trkpt><trkpt lat="43.018125" lon="2.56667"><ele>297.4</ele><time>2026-03-30T08:46:39.686Z</time></trkpt><trkpt lat="43.0181233" lon="2.56679"><ele>294.59999999999997</ele><time>2026-03-30T08:46:40.688Z</time></trkpt><trkpt lat="43.018145" lon="2.566915"><ele>291.8</ele><time>2026-03-30T08:46:41.686Z</time></trkpt><trkpt lat="43.0181717" lon="2.5670517"><ele>289.0</ele><time>2026-03-30T08:46:42.688Z</time></trkpt><trkpt lat="43.0181933" lon="2.5671967"><ele>289.0</ele><time>2026-03-30T08:46:43.687Z</time></trkpt><trkpt lat="43.01822" lon="2.5673583"><ele>289.0</ele><time>2026-03-30T08:46:44.688Z</time></trkpt><trkpt lat="43.0182483" lon="2.5675183"><ele>289.0</ele><time>2026-03-30T08:46:45.687Z</time></trkpt><trkpt lat="43.0182783" lon="2.5676683"><ele>289.0</ele><time>2026-03-30T08:46:46.685Z</time></trkpt><trkpt lat="43.0182967" lon="2.567815"><ele>292.3333333333333</ele><time>2026-03-30T08:46:47.685Z</time></trkpt><trkpt lat="43.0182983" lon="2.5679517"><ele>295.66666666666663</ele><time>2026-03-30T08:46:48.687Z</time></trkpt><trkpt lat="43.01829" lon="2.56807"><ele>299.0</ele><time>2026-03-30T08:46:49.688Z</time></trkpt><trkpt lat="43.0182717" lon="2.5681717"><ele>302.3333333333333</ele><time>2026-03-30T08:46:50.686Z</time></trkpt><trkpt lat="43.0182433" lon="2.5682567"><ele>305.6666666666667</ele><time>2026-03-30T08:46:51.687Z</time></trkpt><trkpt lat="43.0182033" lon="2.5683233"><ele>309.0</ele><time>2026-03-30T08:46:52.686Z</time></trkpt><trkpt lat="43.0181033" lon="2.5682667"><ele>309.0</ele><time>2026-03-30T08:46:54.685Z</time></trkpt><trkpt lat="43.0180367" lon="2.5682183"><ele>309.0</ele><time>2026-03-30T08:46:55.685Z</time></trkpt><trkpt lat="43.0179683" lon="2.5682"><ele>309.0</ele><time>2026-03-30T08:46:56.685Z</time></trkpt><trkpt lat="43.0179033" lon="2.5682283"><ele>309.0</ele><time>2026-03-30T08:46:57.686Z</time></trkpt><trkpt lat="43.0178517" lon="2.5683233"><ele>309.0</ele><time>2026-03-30T08:46:58.685Z</time></trkpt><trkpt lat="43.0178083" lon="2.568445"><ele>309.0</ele><time>2026-03-30T08:46:59.686Z</time></trkpt><trkpt lat="43.0177767" lon="2.5686017"><ele>312.5</ele><time>2026-03-30T08:47:00.687Z</time></trkpt><trkpt lat="43.0177483" lon="2.56876"><ele>316.0</ele><time>2026-03-30T08:47:01.685Z</time></trkpt><trkpt lat="43.0177167" lon="2.56891"><ele>319.5</ele><time>2026-03-30T08:47:02.685Z</time></trkpt><trkpt lat="43.017675" lon="2.569045"><ele>323.0</ele><time>2026-03-30T08:47:03.687Z</time></trkpt><trkpt lat="43.0176183" lon="2.5691783"><ele>323.0</ele><time>2026-03-30T08:47:04.687Z</time></trkpt><trkpt lat="43.0175483" lon="2.5693067"><ele>323.0</ele><time>2026-03-30T08:47:05.685Z</time></trkpt><trkpt lat="43.01748" lon="2.56944"><ele>323.0</ele><time>2026-03-30T08:47:06.687Z</time></trkpt><trkpt lat="43.0174317" lon="2.5695917"><ele>323.0</ele><time>2026-03-30T08:47:07.686Z</time></trkpt><trkpt lat="43.017405" lon="2.5697483"><ele>320.0</ele><time>2026-03-30T08:47:08.686Z</time></trkpt><trkpt lat="43.01739" lon="2.569915"><ele>317.0</ele><time>2026-03-30T08:47:09.687Z</time></trkpt><trkpt lat="43.0173817" lon="2.5700883"><ele>314.0</ele><time>2026-03-30T08:47:10.686Z</time></trkpt><trkpt lat="43.0173733" lon="2.5702533"><ele>311.0</ele><time>2026-03-30T08:47:11.686Z</time></trkpt><trkpt lat="43.0173533" lon="2.5704033"><ele>311.0</ele><time>2026-03-30T08:47:12.685Z</time></trkpt><trkpt lat="43.01733" lon="2.5705383"><ele>311.0</ele><time>2026-03-30T08:47:13.684Z</time></trkpt><trkpt lat="43.0173183" lon="2.5706717"><ele>311.0</ele><time>2026-03-30T08:47:14.685Z</time></trkpt><trkpt lat="43.0173217" lon="2.5708083"><ele>311.0</ele><time>2026-03-30T08:47:15.686Z</time></trkpt><trkpt lat="43.017325" lon="2.570935"><ele>311.0</ele><time>2026-03-30T08:47:16.685Z</time></trkpt><trkpt lat="43.0173167" lon="2.5710583"><ele>311.0</ele><time>2026-03-30T08:47:17.685Z</time></trkpt><trkpt lat="43.0172767" lon="2.5711767"><ele>311.0</ele><time>2026-03-30T08:47:18.687Z</time></trkpt><trkpt lat="43.017245" lon="2.5713"><ele>311.0</ele><time>2026-03-30T08:47:19.686Z</time></trkpt><trkpt lat="43.0172133" lon="2.5714417"><ele>311.0</ele><time>2026-03-30T08:47:20.685Z</time></trkpt><trkpt lat="43.0171917" lon="2.5715867"><ele>311.0</ele><time>2026-03-30T08:47:21.686Z</time></trkpt><trkpt lat="43.01718" lon="2.5717267"><ele>311.6666666666667</ele><time>2026-03-30T08:47:22.684Z</time></trkpt><trkpt lat="43.017185" lon="2.5718533"><ele>312.33333333333337</ele><time>2026-03-30T08:47:23.687Z</time></trkpt><trkpt lat="43.017205" lon="2.5719717"><ele>313.0</ele><time>2026-03-30T08:47:24.69Z</time></trkpt><trkpt lat="43.017235" lon="2.57208"><ele>313.6666666666667</ele><time>2026-03-30T08:47:25.686Z</time></trkpt><trkpt lat="43.0172583" lon="2.5721867"><ele>314.3333333333333</ele><time>2026-03-30T08:47:26.686Z</time></trkpt><trkpt lat="43.0172633" lon="2.5722967"><ele>315.0</ele><time>2026-03-30T08:47:27.686Z</time></trkpt><trkpt lat="43.01725" lon="2.5724117"><ele>316.4</ele><time>2026-03-30T08:47:28.686Z</time></trkpt><trkpt lat="43.0172233" lon="2.57253"><ele>317.8</ele><time>2026-03-30T08:47:29.686Z</time></trkpt><trkpt lat="43.0171917" lon="2.5726717"><ele>319.20000000000005</ele><time>2026-03-30T08:47:30.685Z</time></trkpt><trkpt lat="43.0171683" lon="2.5728117"><ele>320.6</ele><time>2026-03-30T08:47:31.687Z</time></trkpt><trkpt lat="43.0171467" lon="2.5729533"><ele>322.0</ele><time>2026-03-30T08:47:32.685Z</time></trkpt><trkpt lat="43.0171467" lon="2.5731"><ele>322.0</ele><time>2026-03-30T08:47:33.685Z</time></trkpt><trkpt lat="43.0171717" lon="2.5732467"><ele>322.0</ele><time>2026-03-30T08:47:34.685Z</time></trkpt><trkpt lat="43.0172033" lon="2.573395"><ele>322.0</ele><time>2026-03-30T08:47:35.686Z</time></trkpt><trkpt lat="43.017235" lon="2.573555"><ele>322.0</ele><time>2026-03-30T08:47:36.685Z</time></trkpt><trkpt lat="43.0172567" lon="2.5737133"><ele>322.8</ele><time>2026-03-30T08:47:37.685Z</time></trkpt><trkpt lat="43.0172717" lon="2.573865"><ele>323.6</ele><time>2026-03-30T08:47:38.684Z</time></trkpt><trkpt lat="43.0172933" lon="2.57401"><ele>324.40000000000003</ele><time>2026-03-30T08:47:39.687Z</time></trkpt><trkpt lat="43.0173283" lon="2.574115"><ele>325.20000000000005</ele><time>2026-03-30T08:47:40.685Z</time></trkpt><trkpt lat="43.0173683" lon="2.5742083"><ele>326.0</ele><time>2026-03-30T08:47:41.685Z</time></trkpt><trkpt lat="43.017425" lon="2.5742717"><ele>325.8</ele><time>2026-03-30T08:47:42.686Z</time></trkpt><trkpt lat="43.0175017" lon="2.5743667"><ele>325.6</ele><time>2026-03-30T08:47:44.685Z</time></trkpt><trkpt lat="43.0174967" lon="2.574495"><ele>325.4</ele><time>2026-03-30T08:47:46.685Z</time></trkpt><trkpt lat="43.0174333" lon="2.5746617"><ele>325.2</ele><time>2026-03-30T08:47:48.685Z</time></trkpt><trkpt lat="43.0173967" lon="2.5747717"><ele>325.0</ele><time>2026-03-30T08:47:49.685Z</time></trkpt><trkpt lat="43.0173683" lon="2.5749067"><ele>325.0</ele><time>2026-03-30T08:47:50.685Z</time></trkpt><trkpt lat="43.0173433" lon="2.57503"><ele>325.0</ele><time>2026-03-30T08:47:51.686Z</time></trkpt><trkpt lat="43.0173183" lon="2.5751333"><ele>325.0</ele><time>2026-03-30T08:47:52.689Z</time></trkpt><trkpt lat="43.0172817" lon="2.5752217"><ele>325.0</ele><time>2026-03-30T08:47:53.689Z</time></trkpt><trkpt lat="43.01723" lon="2.575285"><ele>325.0</ele><time>2026-03-30T08:47:54.687Z</time></trkpt><trkpt lat="43.0171667" lon="2.5753333"><ele>325.0</ele><time>2026-03-30T08:47:55.686Z</time></trkpt><trkpt lat="43.0171117" lon="2.5754083"><ele>325.0</ele><time>2026-03-30T08:47:56.688Z</time></trkpt><trkpt lat="43.0170517" lon="2.575505"><ele>325.0</ele><time>2026-03-30T08:47:57.686Z</time></trkpt><trkpt lat="43.0170083" lon="2.5756067"><ele>325.0</ele><time>2026-03-30T08:47:58.686Z</time></trkpt><trkpt lat="43.0169567" lon="2.5757267"><ele>325.0</ele><time>2026-03-30T08:47:59.688Z</time></trkpt><trkpt lat="43.0169183" lon="2.5758467"><ele>325.0</ele><time>2026-03-30T08:48:00.687Z</time></trkpt><trkpt lat="43.0169233" lon="2.5759533"><ele>325.0</ele><time>2026-03-30T08:48:01.686Z</time></trkpt><trkpt lat="43.0169317" lon="2.5760567"><ele>325.0</ele><time>2026-03-30T08:48:02.687Z</time></trkpt><trkpt lat="43.0169333" lon="2.5761533"><ele>325.0</ele><time>2026-03-30T08:48:03.687Z</time></trkpt><trkpt lat="43.016905" lon="2.57631"><ele>325.0</ele><time>2026-03-30T08:48:05.685Z</time></trkpt><trkpt lat="43.016865" lon="2.5764533"><ele>325.0</ele><time>2026-03-30T08:48:07.685Z</time></trkpt><trkpt lat="43.0168133" lon="2.5765983"><ele>325.8333333333333</ele><time>2026-03-30T08:48:09.686Z</time></trkpt><trkpt lat="43.01678" lon="2.5766833"><ele>326.66666666666663</ele><time>2026-03-30T08:48:10.685Z</time></trkpt><trkpt lat="43.0167467" lon="2.57678"><ele>327.5</ele><time>2026-03-30T08:48:11.687Z</time></trkpt><trkpt lat="43.0167133" lon="2.5768833"><ele>328.3333333333333</ele><time>2026-03-30T08:48:12.685Z</time></trkpt><trkpt lat="43.0166817" lon="2.5769867"><ele>329.1666666666667</ele><time>2026-03-30T08:48:13.687Z</time></trkpt><trkpt lat="43.0166483" lon="2.5770917"><ele>330.0</ele><time>2026-03-30T08:48:14.686Z</time></trkpt><trkpt lat="43.01662" lon="2.577205"><ele>326.2</ele><time>2026-03-30T08:48:15.685Z</time></trkpt><trkpt lat="43.0166017" lon="2.5773333"><ele>322.4</ele><time>2026-03-30T08:48:16.687Z</time></trkpt><trkpt lat="43.0166033" lon="2.5774683"><ele>318.6</ele><time>2026-03-30T08:48:17.686Z</time></trkpt><trkpt lat="43.01661" lon="2.57762"><ele>314.8</ele><time>2026-03-30T08:48:18.69Z</time></trkpt><trkpt lat="43.01662" lon="2.5777667"><ele>311.0</ele><time>2026-03-30T08:48:19.687Z</time></trkpt><trkpt lat="43.0166283" lon="2.57791"><ele>311.0</ele><time>2026-03-30T08:48:20.686Z</time></trkpt><trkpt lat="43.0166083" lon="2.5780533"><ele>311.0</ele><time>2026-03-30T08:48:21.687Z</time></trkpt><trkpt lat="43.0165767" lon="2.5781967"><ele>311.0</ele><time>2026-03-30T08:48:22.687Z</time></trkpt><trkpt lat="43.0165467" lon="2.5783367"><ele>311.0</ele><time>2026-03-30T08:48:23.685Z</time></trkpt><trkpt lat="43.0165217" lon="2.5784733"><ele>311.0</ele><time>2026-03-30T08:48:24.686Z</time></trkpt><trkpt lat="43.0164983" lon="2.5785983"><ele>312.2</ele><time>2026-03-30T08:48:25.685Z</time></trkpt><trkpt lat="43.0164633" lon="2.578695"><ele>313.40000000000003</ele><time>2026-03-30T08:48:26.685Z</time></trkpt><trkpt lat="43.0164083" lon="2.578835"><ele>314.6</ele><time>2026-03-30T08:48:28.685Z</time></trkpt><trkpt lat="43.01631" lon="2.5789433"><ele>315.8</ele><time>2026-03-30T08:48:30.686Z</time></trkpt><trkpt lat="43.0162383" lon="2.5789767"><ele>317.0</ele><time>2026-03-30T08:48:31.685Z</time></trkpt><trkpt lat="43.01616" lon="2.57898"><ele>317.0</ele><time>2026-03-30T08:48:32.688Z</time></trkpt><trkpt lat="43.01609" lon="2.5789567"><ele>317.0</ele><time>2026-03-30T08:48:33.685Z</time></trkpt><trkpt lat="43.016025" lon="2.5789483"><ele>317.0</ele><time>2026-03-30T08:48:34.686Z</time></trkpt><trkpt lat="43.0159617" lon="2.5789583"><ele>317.0</ele><time>2026-03-30T08:48:35.688Z</time></trkpt><trkpt lat="43.01588" lon="2.5790783"><ele>317.0</ele><time>2026-03-30T08:48:37.685Z</time></trkpt><trkpt lat="43.0158267" lon="2.5791283"><ele>317.0</ele><time>2026-03-30T08:48:38.689Z</time></trkpt><trkpt lat="43.0157617" lon="2.5791217"><ele>315.0</ele><time>2026-03-30T08:48:39.687Z</time></trkpt><trkpt lat="43.0156917" lon="2.5790883"><ele>313.0</ele><time>2026-03-30T08:48:40.689Z</time></trkpt><trkpt lat="43.0156133" lon="2.5790183"><ele>311.0</ele><time>2026-03-30T08:48:41.685Z</time></trkpt><trkpt lat="43.01552" lon="2.5789333"><ele>309.0</ele><time>2026-03-30T08:48:42.685Z</time></trkpt><trkpt lat="43.0154267" lon="2.5788433"><ele>307.0</ele><time>2026-03-30T08:48:43.686Z</time></trkpt><trkpt lat="43.01533" lon="2.5787483"><ele>307.0</ele><time>2026-03-30T08:48:44.686Z</time></trkpt><trkpt lat="43.01525" lon="2.5786583"><ele>307.0</ele><time>2026-03-30T08:48:45.693Z</time></trkpt><trkpt lat="43.0151767" lon="2.5785783"><ele>307.0</ele><time>2026-03-30T08:48:46.685Z</time></trkpt><trkpt lat="43.0151033" lon="2.5785033"><ele>307.0</ele><time>2026-03-30T08:48:47.685Z</time></trkpt><trkpt lat="43.0150367" lon="2.5784283"><ele>307.0</ele><time>2026-03-30T08:48:48.686Z</time></trkpt><trkpt lat="43.01497" lon="2.5783683"><ele>307.6</ele><time>2026-03-30T08:48:49.687Z</time></trkpt><trkpt lat="43.014895" lon="2.578325"><ele>308.2</ele><time>2026-03-30T08:48:50.691Z</time></trkpt><trkpt lat="43.0148017" lon="2.5783217"><ele>308.8</ele><time>2026-03-30T08:48:51.687Z</time></trkpt><trkpt lat="43.0147" lon="2.57832"><ele>309.4</ele><time>2026-03-30T08:48:52.689Z</time></trkpt><trkpt lat="43.0145933" lon="2.57831"><ele>310.0</ele><time>2026-03-30T08:48:53.691Z</time></trkpt><trkpt lat="43.014475" lon="2.5782817"><ele>310.0</ele><time>2026-03-30T08:48:54.686Z</time></trkpt><trkpt lat="43.0143617" lon="2.5782383"><ele>310.0</ele><time>2026-03-30T08:48:55.689Z</time></trkpt><trkpt lat="43.01426" lon="2.5781817"><ele>310.0</ele><time>2026-03-30T08:48:56.688Z</time></trkpt><trkpt lat="43.0141767" lon="2.5781183"><ele>310.0</ele><time>2026-03-30T08:48:57.686Z</time></trkpt><trkpt lat="43.0140967" lon="2.5780767"><ele>310.0</ele><time>2026-03-30T08:48:58.69Z</time></trkpt><trkpt lat="43.01402" lon="2.578065"><ele>308.3333333333333</ele><time>2026-03-30T08:48:59.687Z</time></trkpt><trkpt lat="43.0139567" lon="2.578085"><ele>306.66666666666663</ele><time>2026-03-30T08:49:00.686Z</time></trkpt><trkpt lat="43.0139083" lon="2.578155"><ele>305.0</ele><time>2026-03-30T08:49:01.688Z</time></trkpt><trkpt lat="43.0138717" lon="2.578255"><ele>303.3333333333333</ele><time>2026-03-30T08:49:02.691Z</time></trkpt><trkpt lat="43.0138433" lon="2.5783633"><ele>301.6666666666667</ele><time>2026-03-30T08:49:03.686Z</time></trkpt><trkpt lat="43.013815" lon="2.5784683"><ele>300.0</ele><time>2026-03-30T08:49:04.688Z</time></trkpt><trkpt lat="43.01378" lon="2.5785583"><ele>300.0</ele><time>2026-03-30T08:49:05.686Z</time></trkpt><trkpt lat="43.01373" lon="2.57863"><ele>300.0</ele><time>2026-03-30T08:49:06.687Z</time></trkpt><trkpt lat="43.0136667" lon="2.57868"><ele>300.0</ele><time>2026-03-30T08:49:07.687Z</time></trkpt><trkpt lat="43.013595" lon="2.5787167"><ele>300.0</ele><time>2026-03-30T08:49:08.687Z</time></trkpt><trkpt lat="43.0135283" lon="2.5787683"><ele>300.0</ele><time>2026-03-30T08:49:09.686Z</time></trkpt><trkpt lat="43.0134633" lon="2.5788467"><ele>300.0</ele><time>2026-03-30T08:49:10.687Z</time></trkpt><trkpt lat="43.0133967" lon="2.5789467"><ele>300.2</ele><time>2026-03-30T08:49:11.687Z</time></trkpt><trkpt lat="43.0133217" lon="2.5790467"><ele>300.4</ele><time>2026-03-30T08:49:12.687Z</time></trkpt><trkpt lat="43.01324" lon="2.57914"><ele>300.6</ele><time>2026-03-30T08:49:13.686Z</time></trkpt><trkpt lat="43.0131517" lon="2.5792117"><ele>300.8</ele><time>2026-03-30T08:49:14.686Z</time></trkpt><trkpt lat="43.0130683" lon="2.579275"><ele>301.0</ele><time>2026-03-30T08:49:15.685Z</time></trkpt><trkpt lat="43.0129983" lon="2.57935"><ele>301.0</ele><time>2026-03-30T08:49:16.687Z</time></trkpt><trkpt lat="43.0129483" lon="2.5794383"><ele>301.0</ele><time>2026-03-30T08:49:17.687Z</time></trkpt><trkpt lat="43.0129167" lon="2.5795333"><ele>301.0</ele><time>2026-03-30T08:49:18.687Z</time></trkpt><trkpt lat="43.0128867" lon="2.5796167"><ele>301.0</ele><time>2026-03-30T08:49:19.687Z</time></trkpt><trkpt lat="43.0127983" lon="2.5797167"><ele>301.0</ele><time>2026-03-30T08:49:21.688Z</time></trkpt><trkpt lat="43.01268" lon="2.5797317"><ele>300.8</ele><time>2026-03-30T08:49:23.687Z</time></trkpt><trkpt lat="43.0126167" lon="2.5797083"><ele>300.6</ele><time>2026-03-30T08:49:24.687Z</time></trkpt><trkpt lat="43.012555" lon="2.57967"><ele>300.4</ele><time>2026-03-30T08:49:25.69Z</time></trkpt><trkpt lat="43.012445" lon="2.5796033"><ele>300.2</ele><time>2026-03-30T08:49:27.689Z</time></trkpt><trkpt lat="43.0123583" lon="2.5795217"><ele>300.0</ele><time>2026-03-30T08:49:29.686Z</time></trkpt><trkpt lat="43.0123317" lon="2.5793533"><ele>300.8</ele><time>2026-03-30T08:49:31.686Z</time></trkpt><trkpt lat="43.0123367" lon="2.5792483"><ele>301.6</ele><time>2026-03-30T08:49:32.686Z</time></trkpt><trkpt lat="43.0123467" lon="2.57913"><ele>302.4</ele><time>2026-03-30T08:49:33.688Z</time></trkpt><trkpt lat="43.0123583" lon="2.5789933"><ele>303.2</ele><time>2026-03-30T08:49:34.686Z</time></trkpt><trkpt lat="43.0123717" lon="2.5788483"><ele>304.0</ele><time>2026-03-30T08:49:35.687Z</time></trkpt><trkpt lat="43.0123767" lon="2.5787033"><ele>304.59999999999997</ele><time>2026-03-30T08:49:36.687Z</time></trkpt><trkpt lat="43.012365" lon="2.578565"><ele>305.2</ele><time>2026-03-30T08:49:37.686Z</time></trkpt><trkpt lat="43.0123433" lon="2.57844"><ele>305.79999999999995</ele><time>2026-03-30T08:49:38.688Z</time></trkpt><trkpt lat="43.012305" lon="2.578335"><ele>306.4</ele><time>2026-03-30T08:49:39.685Z</time></trkpt><trkpt lat="43.0122467" lon="2.5782567"><ele>307.0</ele><time>2026-03-30T08:49:40.687Z</time></trkpt><trkpt lat="43.0121667" lon="2.5782117"><ele>307.0</ele><time>2026-03-30T08:49:41.686Z</time></trkpt><trkpt lat="43.0120633" lon="2.578215"><ele>307.0</ele><time>2026-03-30T08:49:42.685Z</time></trkpt><trkpt lat="43.0119667" lon="2.57822"><ele>307.0</ele><time>2026-03-30T08:49:43.688Z</time></trkpt><trkpt lat="43.0118817" lon="2.5782083"><ele>307.0</ele><time>2026-03-30T08:49:44.686Z</time></trkpt><trkpt lat="43.0118" lon="2.57817"><ele>307.0</ele><time>2026-03-30T08:49:45.686Z</time></trkpt><trkpt lat="43.011725" lon="2.57812"><ele>307.0</ele><time>2026-03-30T08:49:46.687Z</time></trkpt><trkpt lat="43.0116683" lon="2.5780533"><ele>307.0</ele><time>2026-03-30T08:49:47.687Z</time></trkpt><trkpt lat="43.0116383" lon="2.5779667"><ele>307.0</ele><time>2026-03-30T08:49:48.686Z</time></trkpt><trkpt lat="43.011635" lon="2.577865"><ele>307.0</ele><time>2026-03-30T08:49:49.686Z</time></trkpt><trkpt lat="43.01164" lon="2.5777483"><ele>307.0</ele><time>2026-03-30T08:49:50.687Z</time></trkpt><trkpt lat="43.0116367" lon="2.577615"><ele>307.0</ele><time>2026-03-30T08:49:51.685Z</time></trkpt><trkpt lat="43.0116217" lon="2.57748"><ele>307.6</ele><time>2026-03-30T08:49:52.685Z</time></trkpt><trkpt lat="43.011605" lon="2.5773533"><ele>308.2</ele><time>2026-03-30T08:49:53.687Z</time></trkpt><trkpt lat="43.0115983" lon="2.57724"><ele>308.8</ele><time>2026-03-30T08:49:54.687Z</time></trkpt><trkpt lat="43.0116117" lon="2.5771483"><ele>309.4</ele><time>2026-03-30T08:49:55.688Z</time></trkpt><trkpt lat="43.011705" lon="2.5770467"><ele>310.0</ele><time>2026-03-30T08:49:57.686Z</time></trkpt><trkpt lat="43.0117883" lon="2.5769083"><ele>310.66666666666663</ele><time>2026-03-30T08:49:59.686Z</time></trkpt><trkpt lat="43.0118083" lon="2.576805"><ele>311.3333333333333</ele><time>2026-03-30T08:50:00.688Z</time></trkpt><trkpt lat="43.0118317" lon="2.5767"><ele>312.0</ele><time>2026-03-30T08:50:01.686Z</time></trkpt><trkpt lat="43.0118817" lon="2.57661"><ele>312.6666666666667</ele><time>2026-03-30T08:50:02.691Z</time></trkpt><trkpt lat="43.0119317" lon="2.576515"><ele>313.33333333333337</ele><time>2026-03-30T08:50:03.687Z</time></trkpt><trkpt lat="43.0119817" lon="2.576405"><ele>314.0</ele><time>2026-03-30T08:50:04.686Z</time></trkpt><trkpt lat="43.0120083" lon="2.5762833"><ele>316.0</ele><time>2026-03-30T08:50:05.687Z</time></trkpt><trkpt lat="43.01201" lon="2.5761433"><ele>318.0</ele><time>2026-03-30T08:50:06.696Z</time></trkpt><trkpt lat="43.01198" lon="2.5759967"><ele>320.0</ele><time>2026-03-30T08:50:07.686Z</time></trkpt><trkpt lat="43.0119417" lon="2.5758417"><ele>322.0</ele><time>2026-03-30T08:50:08.688Z</time></trkpt><trkpt lat="43.0119133" lon="2.575675"><ele>322.0</ele><time>2026-03-30T08:50:09.687Z</time></trkpt><trkpt lat="43.0118967" lon="2.5754967"><ele>322.0</ele><time>2026-03-30T08:50:10.685Z</time></trkpt><trkpt lat="43.0119" lon="2.575315"><ele>322.0</ele><time>2026-03-30T08:50:11.686Z</time></trkpt><trkpt lat="43.011915" lon="2.5751233"><ele>322.0</ele><time>2026-03-30T08:50:12.686Z</time></trkpt><trkpt lat="43.011935" lon="2.574935"><ele>323.25</ele><time>2026-03-30T08:50:13.686Z</time></trkpt><trkpt lat="43.0119667" lon="2.574755"><ele>324.5</ele><time>2026-03-30T08:50:14.687Z</time></trkpt><trkpt lat="43.0120083" lon="2.5745867"><ele>325.75</ele><time>2026-03-30T08:50:15.689Z</time></trkpt><trkpt lat="43.01206" lon="2.57442"><ele>327.0</ele><time>2026-03-30T08:50:16.685Z</time></trkpt><trkpt lat="43.0121133" lon="2.5742617"><ele>328.25</ele><time>2026-03-30T08:50:17.687Z</time></trkpt><trkpt lat="43.0121617" lon="2.57411"><ele>329.5</ele><time>2026-03-30T08:50:18.688Z</time></trkpt><trkpt lat="43.0121883" lon="2.5739617"><ele>330.75</ele><time>2026-03-30T08:50:19.686Z</time></trkpt><trkpt lat="43.0121983" lon="2.5738083"><ele>332.0</ele><time>2026-03-30T08:50:20.687Z</time></trkpt><trkpt lat="43.0121917" lon="2.573665"><ele>332.33333333333337</ele><time>2026-03-30T08:50:21.687Z</time></trkpt><trkpt lat="43.0121883" lon="2.5735383"><ele>332.6666666666667</ele><time>2026-03-30T08:50:22.687Z</time></trkpt><trkpt lat="43.0122033" lon="2.573425"><ele>333.0</ele><time>2026-03-30T08:50:23.689Z</time></trkpt><trkpt lat="43.0122183" lon="2.5733283"><ele>333.3333333333333</ele><time>2026-03-30T08:50:24.687Z</time></trkpt><trkpt lat="43.0122267" lon="2.57324"><ele>333.66666666666663</ele><time>2026-03-30T08:50:25.687Z</time></trkpt><trkpt lat="43.0121733" lon="2.5731767"><ele>334.0</ele><time>2026-03-30T08:50:27.687Z</time></trkpt><trkpt lat="43.012125" lon="2.573285"><ele>334.0</ele><time>2026-03-30T08:50:29.687Z</time></trkpt><trkpt lat="43.0121067" lon="2.5733767"><ele>334.0</ele><time>2026-03-30T08:50:30.688Z</time></trkpt><trkpt lat="43.0120917" lon="2.5735117"><ele>334.0</ele><time>2026-03-30T08:50:31.686Z</time></trkpt><trkpt lat="43.0120733" lon="2.5736517"><ele>334.0</ele><time>2026-03-30T08:50:32.686Z</time></trkpt><trkpt lat="43.0120467" lon="2.5737917"><ele>334.0</ele><time>2026-03-30T08:50:33.688Z</time></trkpt><trkpt lat="43.012005" lon="2.5739367"><ele>333.5</ele><time>2026-03-30T08:50:34.686Z</time></trkpt><trkpt lat="43.011945" lon="2.5740783"><ele>333.0</ele><time>2026-03-30T08:50:35.685Z</time></trkpt><trkpt lat="43.0118867" lon="2.5742183"><ele>332.5</ele><time>2026-03-30T08:50:36.687Z</time></trkpt><trkpt lat="43.0118367" lon="2.574355"><ele>332.0</ele><time>2026-03-30T08:50:37.687Z</time></trkpt><trkpt lat="43.0117833" lon="2.574495"><ele>330.33333333333337</ele><time>2026-03-30T08:50:38.687Z</time></trkpt><trkpt lat="43.0117167" lon="2.574625"><ele>328.6666666666667</ele><time>2026-03-30T08:50:39.686Z</time></trkpt><trkpt lat="43.01163" lon="2.57474"><ele>327.0</ele><time>2026-03-30T08:50:40.687Z</time></trkpt><trkpt lat="43.0119133" lon="2.575675"><ele>327.0</ele><time>2026-03-30T08:50:09.687Z</time></trkpt><trkpt lat="43.0118967" lon="2.5754967"><ele>327.0</ele><time>2026-03-30T08:50:10.685Z</time></trkpt><trkpt lat="43.0119" lon="2.575315"><ele>327.0</ele><time>2026-03-30T08:50:11.686Z</time></trkpt><trkpt lat="43.011915" lon="2.5751233"><ele>327.0</ele><time>2026-03-30T08:50:12.686Z</time></trkpt><trkpt lat="43.011935" lon="2.574935"><ele>327.0</ele><time>2026-03-30T08:50:13.686Z</time></trkpt><trkpt lat="43.0119667" lon="2.574755"><ele>327.0</ele><time>2026-03-30T08:50:14.687Z</time></trkpt><trkpt lat="43.0120083" lon="2.5745867"><ele>327.0</ele><time>2026-03-30T08:50:15.689Z</time></trkpt><trkpt lat="43.01206" lon="2.57442"><ele>327.0</ele><time>2026-03-30T08:50:16.685Z</time></trkpt><trkpt lat="43.0121133" lon="2.5742617"><ele>328.25</ele><time>2026-03-30T08:50:17.687Z</time></trkpt><trkpt lat="43.0121617" lon="2.57411"><ele>329.5</ele><time>2026-03-30T08:50:18.688Z</time></trkpt><trkpt lat="43.0121883" lon="2.5739617"><ele>330.75</ele><time>2026-03-30T08:50:19.686Z</time></trkpt><trkpt lat="43.0121983" lon="2.5738083"><ele>332.0</ele><time>2026-03-30T08:50:20.687Z</time></trkpt><trkpt lat="43.0121917" lon="2.573665"><ele>332.33333333333337</ele><time>2026-03-30T08:50:21.687Z</time></trkpt><trkpt lat="43.0121883" lon="2.5735383"><ele>332.6666666666667</ele><time>2026-03-30T08:50:22.687Z</time></trkpt><trkpt lat="43.0122033" lon="2.573425"><ele>333.0</ele><time>2026-03-30T08:50:23.689Z</time></trkpt><trkpt lat="43.0122183" lon="2.5733283"><ele>333.3333333333333</ele><time>2026-03-30T08:50:24.687Z</time></trkpt><trkpt lat="43.0122267" lon="2.57324"><ele>333.66666666666663</ele><time>2026-03-30T08:50:25.687Z</time></trkpt><trkpt lat="43.0121733" lon="2.5731767"><ele>334.0</ele><time>2026-03-30T08:50:27.687Z</time></trkpt><trkpt lat="43.012125" lon="2.573285"><ele>334.0</ele><time>2026-03-30T08:50:29.687Z</time></trkpt><trkpt lat="43.0121067" lon="2.5733767"><ele>334.0</ele><time>2026-03-30T08:50:30.688Z</time></trkpt><trkpt lat="43.0120917" lon="2.5735117"><ele>334.0</ele><time>2026-03-30T08:50:31.686Z</time></trkpt><trkpt lat="43.0120733" lon="2.5736517"><ele>334.0</ele><time>2026-03-30T08:50:32.686Z</time></trkpt><trkpt lat="43.0120467" lon="2.5737917"><ele>334.0</ele><time>2026-03-30T08:50:33.688Z</time></trkpt><trkpt lat="43.012005" lon="2.5739367"><ele>333.5</ele><time>2026-03-30T08:50:34.686Z</time></trkpt><trkpt lat="43.011945" lon="2.5740783"><ele>333.0</ele><time>2026-03-30T08:50:35.685Z</time></trkpt><trkpt lat="43.0118867" lon="2.5742183"><ele>332.5</ele><time>2026-03-30T08:50:36.687Z</time></trkpt><trkpt lat="43.0118367" lon="2.574355"><ele>332.0</ele><time>2026-03-30T08:50:37.687Z</time></trkpt><trkpt lat="43.0117833" lon="2.574495"><ele>330.75</ele><time>2026-03-30T08:50:38.687Z</time></trkpt><trkpt lat="43.0117167" lon="2.574625"><ele>329.5</ele><time>2026-03-30T08:50:39.686Z</time></trkpt><trkpt lat="43.01163" lon="2.57474"><ele>328.25</ele><time>2026-03-30T08:50:40.687Z</time></trkpt><trkpt lat="43.0115267" lon="2.5748317"><ele>327.0</ele><time>2026-03-30T08:50:41.688Z</time></trkpt><trkpt lat="43.0114233" lon="2.57491"><ele>329.6</ele><time>2026-03-30T08:50:42.686Z</time></trkpt><trkpt lat="43.01133" lon="2.57499"><ele>332.20000000000005</ele><time>2026-03-30T08:50:43.686Z</time></trkpt><trkpt lat="43.0112667" lon="2.5750983"><ele>334.8</ele><time>2026-03-30T08:50:44.688Z</time></trkpt><trkpt lat="43.011225" lon="2.575235"><ele>337.4</ele><time>2026-03-30T08:50:45.687Z</time></trkpt><trkpt lat="43.0111867" lon="2.5753817"><ele>340.0</ele><time>2026-03-30T08:50:46.686Z</time></trkpt><trkpt lat="43.011145" lon="2.5755267"><ele>340.0</ele><time>2026-03-30T08:50:47.693Z</time></trkpt><trkpt lat="43.0110967" lon="2.5756717"><ele>340.0</ele><time>2026-03-30T08:50:48.686Z</time></trkpt><trkpt lat="43.01104" lon="2.575825"><ele>340.0</ele><time>2026-03-30T08:50:49.688Z</time></trkpt><trkpt lat="43.0109733" lon="2.5759783"><ele>340.0</ele><time>2026-03-30T08:50:50.687Z</time></trkpt><trkpt lat="43.0108933" lon="2.5761233"><ele>345.0</ele><time>2026-03-30T08:50:51.688Z</time></trkpt><trkpt lat="43.0108183" lon="2.5762617"><ele>350.0</ele><time>2026-03-30T08:50:52.685Z</time></trkpt><trkpt lat="43.0107583" lon="2.57638"><ele>355.0</ele><time>2026-03-30T08:50:53.686Z</time></trkpt><trkpt lat="43.0107133" lon="2.5764833"><ele>360.0</ele><time>2026-03-30T08:50:54.687Z</time></trkpt><trkpt lat="43.0106783" lon="2.5765767"><ele>365.0</ele><time>2026-03-30T08:50:55.686Z</time></trkpt><trkpt lat="43.0106417" lon="2.57665"><ele>365.0</ele><time>2026-03-30T08:50:56.686Z</time></trkpt><trkpt lat="43.010565" lon="2.57662"><ele>365.0</ele><time>2026-03-30T08:50:58.688Z</time></trkpt><trkpt lat="43.0105617" lon="2.576455"><ele>365.0</ele><time>2026-03-30T08:51:00.688Z</time></trkpt><trkpt lat="43.0105683" lon="2.576335"><ele>365.0</ele><time>2026-03-30T08:51:01.688Z</time></trkpt><trkpt lat="43.0105633" lon="2.5761967"><ele>365.0</ele><time>2026-03-30T08:51:02.687Z</time></trkpt><trkpt lat="43.0105533" lon="2.576045"><ele>367.0</ele><time>2026-03-30T08:51:03.689Z</time></trkpt><trkpt lat="43.0105417" lon="2.5758883"><ele>369.0</ele><time>2026-03-30T08:51:04.686Z</time></trkpt><trkpt lat="43.0105267" lon="2.5757267"><ele>371.0</ele><time>2026-03-30T08:51:05.688Z</time></trkpt><trkpt lat="43.0105083" lon="2.57557"><ele>373.0</ele><time>2026-03-30T08:51:06.688Z</time></trkpt><trkpt lat="43.010485" lon="2.5754217"><ele>373.0</ele><time>2026-03-30T08:51:07.687Z</time></trkpt><trkpt lat="43.0104483" lon="2.5752717"><ele>373.0</ele><time>2026-03-30T08:51:08.686Z</time></trkpt><trkpt lat="43.0104" lon="2.5751183"><ele>373.0</ele><time>2026-03-30T08:51:09.687Z</time></trkpt><trkpt lat="43.01036" lon="2.5749517"><ele>373.0</ele><time>2026-03-30T08:51:10.687Z</time></trkpt><trkpt lat="43.0103283" lon="2.5747783"><ele>373.0</ele><time>2026-03-30T08:51:11.686Z</time></trkpt><trkpt lat="43.0103067" lon="2.5746117"><ele>373.0</ele><time>2026-03-30T08:51:12.687Z</time></trkpt><trkpt lat="43.010285" lon="2.5744517"><ele>373.0</ele><time>2026-03-30T08:51:13.686Z</time></trkpt><trkpt lat="43.0102867" lon="2.5743117"><ele>373.0</ele><time>2026-03-30T08:51:14.686Z</time></trkpt><trkpt lat="43.0103" lon="2.574175"><ele>373.0</ele><time>2026-03-30T08:51:15.687Z</time></trkpt><trkpt lat="43.0103317" lon="2.574055"><ele>373.0</ele><time>2026-03-30T08:51:16.685Z</time></trkpt><trkpt lat="43.010345" lon="2.5739267"><ele>373.0</ele><time>2026-03-30T08:51:17.688Z</time></trkpt><trkpt lat="43.0103517" lon="2.5738033"><ele>373.0</ele><time>2026-03-30T08:51:18.686Z</time></trkpt><trkpt lat="43.0103433" lon="2.5736717"><ele>373.0</ele><time>2026-03-30T08:51:19.689Z</time></trkpt><trkpt lat="43.0103167" lon="2.5735333"><ele>373.0</ele><time>2026-03-30T08:51:20.687Z</time></trkpt><trkpt lat="43.01029" lon="2.5733983"><ele>373.79999999999995</ele><time>2026-03-30T08:51:21.689Z</time></trkpt><trkpt lat="43.0102717" lon="2.573265"><ele>374.6</ele><time>2026-03-30T08:51:22.686Z</time></trkpt><trkpt lat="43.010275" lon="2.57313"><ele>375.4</ele><time>2026-03-30T08:51:23.686Z</time></trkpt><trkpt lat="43.01029" lon="2.572985"><ele>376.20000000000005</ele><time>2026-03-30T08:51:24.688Z</time></trkpt><trkpt lat="43.0102933" lon="2.5728267"><ele>377.0</ele><time>2026-03-30T08:51:25.687Z</time></trkpt><trkpt lat="43.010305" lon="2.5726717"><ele>378.6</ele><time>2026-03-30T08:51:26.688Z</time></trkpt><trkpt lat="43.0103167" lon="2.57252"><ele>380.20000000000005</ele><time>2026-03-30T08:51:27.688Z</time></trkpt><trkpt lat="43.0103217" lon="2.5723667"><ele>381.8</ele><time>2026-03-30T08:51:28.688Z</time></trkpt><trkpt lat="43.010355" lon="2.5722417"><ele>383.4</ele><time>2026-03-30T08:51:29.686Z</time></trkpt><trkpt lat="43.0103983" lon="2.5721333"><ele>385.0</ele><time>2026-03-30T08:51:30.686Z</time></trkpt><trkpt lat="43.01044" lon="2.5720283"><ele>386.4</ele><time>2026-03-30T08:51:31.686Z</time></trkpt><trkpt lat="43.0104683" lon="2.5719117"><ele>387.8</ele><time>2026-03-30T08:51:32.687Z</time></trkpt><trkpt lat="43.01047" lon="2.5717783"><ele>389.20000000000005</ele><time>2026-03-30T08:51:33.686Z</time></trkpt><trkpt lat="43.0104567" lon="2.57164"><ele>390.6</ele><time>2026-03-30T08:51:34.687Z</time></trkpt><trkpt lat="43.0104333" lon="2.5715033"><ele>392.0</ele><time>2026-03-30T08:51:35.687Z</time></trkpt><trkpt lat="43.0104033" lon="2.57138"><ele>392.0</ele><time>2026-03-30T08:51:36.689Z</time></trkpt><trkpt lat="43.0103917" lon="2.5712617"><ele>392.0</ele><time>2026-03-30T08:51:37.686Z</time></trkpt><trkpt lat="43.010395" lon="2.5711317"><ele>392.0</ele><time>2026-03-30T08:51:38.688Z</time></trkpt><trkpt lat="43.0104017" lon="2.571"><ele>392.0</ele><time>2026-03-30T08:51:39.686Z</time></trkpt><trkpt lat="43.0103917" lon="2.57086"><ele>392.0</ele><time>2026-03-30T08:51:40.686Z</time></trkpt><trkpt lat="43.0103733" lon="2.5707117"><ele>393.0</ele><time>2026-03-30T08:51:41.688Z</time></trkpt><trkpt lat="43.010345" lon="2.5705483"><ele>394.0</ele><time>2026-03-30T08:51:42.687Z</time></trkpt><trkpt lat="43.0103183" lon="2.57039"><ele>395.0</ele><time>2026-03-30T08:51:43.688Z</time></trkpt><trkpt lat="43.0102867" lon="2.570235"><ele>396.0</ele><time>2026-03-30T08:51:44.686Z</time></trkpt><trkpt lat="43.0102617" lon="2.5700817"><ele>396.0</ele><time>2026-03-30T08:51:45.688Z</time></trkpt><trkpt lat="43.01026" lon="2.5699283"><ele>396.0</ele><time>2026-03-30T08:51:46.686Z</time></trkpt><trkpt lat="43.0102767" lon="2.5697833"><ele>396.0</ele><time>2026-03-30T08:51:47.687Z</time></trkpt><trkpt lat="43.010295" lon="2.5696467"><ele>396.0</ele><time>2026-03-30T08:51:48.688Z</time></trkpt><trkpt lat="43.0103183" lon="2.56952"><ele>396.0</ele><time>2026-03-30T08:51:49.688Z</time></trkpt><trkpt lat="43.0103433" lon="2.56941"><ele>396.0</ele><time>2026-03-30T08:51:50.689Z</time></trkpt><trkpt lat="43.01036" lon="2.56931"><ele>396.0</ele><time>2026-03-30T08:51:51.692Z</time></trkpt><trkpt lat="43.0103417" lon="2.5691867"><ele>396.0</ele><time>2026-03-30T08:51:52.686Z</time></trkpt><trkpt lat="43.0103033" lon="2.5690767"><ele>396.0</ele><time>2026-03-30T08:51:53.686Z</time></trkpt><trkpt lat="43.0102617" lon="2.5689583"><ele>396.0</ele><time>2026-03-30T08:51:54.687Z</time></trkpt><trkpt lat="43.0102267" lon="2.5688267"><ele>397.20000000000005</ele><time>2026-03-30T08:51:55.687Z</time></trkpt><trkpt lat="43.010205" lon="2.56868"><ele>398.40000000000003</ele><time>2026-03-30T08:51:56.688Z</time></trkpt><trkpt lat="43.0101983" lon="2.5685317"><ele>399.6</ele><time>2026-03-30T08:51:57.687Z</time></trkpt><trkpt lat="43.0102167" lon="2.568385"><ele>400.8</ele><time>2026-03-30T08:51:58.686Z</time></trkpt><trkpt lat="43.0102517" lon="2.56825"><ele>402.0</ele><time>2026-03-30T08:51:59.687Z</time></trkpt><trkpt lat="43.0102817" lon="2.5681167"><ele>402.0</ele><time>2026-03-30T08:52:00.688Z</time></trkpt><trkpt lat="43.0103167" lon="2.5679733"><ele>402.0</ele><time>2026-03-30T08:52:01.685Z</time></trkpt><trkpt lat="43.0103383" lon="2.567825"><ele>402.0</ele><time>2026-03-30T08:52:02.688Z</time></trkpt><trkpt lat="43.0103583" lon="2.5676617"><ele>402.0</ele><time>2026-03-30T08:52:03.687Z</time></trkpt><trkpt lat="43.01038" lon="2.5674917"><ele>404.5</ele><time>2026-03-30T08:52:04.686Z</time></trkpt><trkpt lat="43.0104" lon="2.5673183"><ele>407.0</ele><time>2026-03-30T08:52:05.685Z</time></trkpt><trkpt lat="43.0104217" lon="2.5671367"><ele>409.5</ele><time>2026-03-30T08:52:06.687Z</time></trkpt><trkpt lat="43.0104383" lon="2.5669467"><ele>412.0</ele><time>2026-03-30T08:52:07.687Z</time></trkpt><trkpt lat="43.010465" lon="2.5667683"><ele>412.6</ele><time>2026-03-30T08:52:08.687Z</time></trkpt><trkpt lat="43.01049" lon="2.566615"><ele>413.20000000000005</ele><time>2026-03-30T08:52:09.688Z</time></trkpt><trkpt lat="43.010515" lon="2.5664783"><ele>413.8</ele><time>2026-03-30T08:52:10.686Z</time></trkpt><trkpt lat="43.010525" lon="2.56635"><ele>414.4</ele><time>2026-03-30T08:52:11.687Z</time></trkpt><trkpt lat="43.0105183" lon="2.5662333"><ele>415.0</ele><time>2026-03-30T08:52:12.685Z</time></trkpt><trkpt lat="43.0105067" lon="2.566115"><ele>415.25</ele><time>2026-03-30T08:52:13.685Z</time></trkpt><trkpt lat="43.0104883" lon="2.5659817"><ele>415.5</ele><time>2026-03-30T08:52:14.688Z</time></trkpt><trkpt lat="43.0104883" lon="2.56581"><ele>415.75</ele><time>2026-03-30T08:52:15.688Z</time></trkpt><trkpt lat="43.0105033" lon="2.56565"><ele>416.0</ele><time>2026-03-30T08:52:16.685Z</time></trkpt><trkpt lat="43.0105333" lon="2.5655067"><ele>416.0</ele><time>2026-03-30T08:52:17.685Z</time></trkpt><trkpt lat="43.0105933" lon="2.5653833"><ele>416.0</ele><time>2026-03-30T08:52:18.689Z</time></trkpt><trkpt lat="43.010665" lon="2.5652717"><ele>416.0</ele><time>2026-03-30T08:52:19.687Z</time></trkpt><trkpt lat="43.01073" lon="2.5651633"><ele>416.0</ele><time>2026-03-30T08:52:20.686Z</time></trkpt><trkpt lat="43.0107817" lon="2.56506"><ele>416.0</ele><time>2026-03-30T08:52:21.688Z</time></trkpt><trkpt lat="43.0108167" lon="2.5649583"><ele>416.49999999999994</ele><time>2026-03-30T08:52:22.687Z</time></trkpt><trkpt lat="43.0108317" lon="2.5648633"><ele>417.0</ele><time>2026-03-30T08:52:23.687Z</time></trkpt><trkpt lat="43.01084" lon="2.5647733"><ele>417.5</ele><time>2026-03-30T08:52:24.686Z</time></trkpt><trkpt lat="43.010745" lon="2.56472"><ele>418.0</ele><time>2026-03-30T08:52:25.686Z</time></trkpt><trkpt lat="43.01065" lon="2.5646817"><ele>418.49999999999994</ele><time>2026-03-30T08:52:26.689Z</time></trkpt><trkpt lat="43.0105483" lon="2.564705"><ele>419.0</ele><time>2026-03-30T08:52:27.685Z</time></trkpt><trkpt lat="43.0104533" lon="2.5647767"><ele>419.0</ele><time>2026-03-30T08:52:28.685Z</time></trkpt><trkpt lat="43.0103667" lon="2.564895"><ele>419.0</ele><time>2026-03-30T08:52:29.689Z</time></trkpt><trkpt lat="43.0102933" lon="2.565045"><ele>419.0</ele><time>2026-03-30T08:52:30.685Z</time></trkpt><trkpt lat="43.0102333" lon="2.56521"><ele>419.0</ele><time>2026-03-30T08:52:31.687Z</time></trkpt><trkpt lat="43.010185" lon="2.565385"><ele>418.25</ele><time>2026-03-30T08:52:32.688Z</time></trkpt><trkpt lat="43.0101583" lon="2.5655567"><ele>417.5</ele><time>2026-03-30T08:52:33.689Z</time></trkpt><trkpt lat="43.01015" lon="2.5657383"><ele>416.75</ele><time>2026-03-30T08:52:34.686Z</time></trkpt><trkpt lat="43.0101683" lon="2.5659183"><ele>416.0</ele><time>2026-03-30T08:52:35.686Z</time></trkpt><trkpt lat="43.0102033" lon="2.5660783"><ele>415.8</ele><time>2026-03-30T08:52:36.686Z</time></trkpt><trkpt lat="43.0102317" lon="2.5662167"><ele>415.6</ele><time>2026-03-30T08:52:37.688Z</time></trkpt><trkpt lat="43.01024" lon="2.5663317"><ele>415.4</ele><time>2026-03-30T08:52:38.687Z</time></trkpt><trkpt lat="43.0102333" lon="2.5664467"><ele>415.2</ele><time>2026-03-30T08:52:39.687Z</time></trkpt><trkpt lat="43.010205" lon="2.5665683"><ele>415.0</ele><time>2026-03-30T08:52:40.689Z</time></trkpt><trkpt lat="43.0101633" lon="2.5667"><ele>415.0</ele><time>2026-03-30T08:52:41.688Z</time></trkpt><trkpt lat="43.01013" lon="2.5668417"><ele>415.0</ele><time>2026-03-30T08:52:42.686Z</time></trkpt><trkpt lat="43.0101" lon="2.5669933"><ele>415.0</ele><time>2026-03-30T08:52:43.686Z</time></trkpt><trkpt lat="43.0100617" lon="2.5671517"><ele>415.0</ele><time>2026-03-30T08:52:44.688Z</time></trkpt><trkpt lat="43.0100033" lon="2.5673183"><ele>426.33333333333337</ele><time>2026-03-30T08:52:45.686Z</time></trkpt><trkpt lat="43.009935" lon="2.5674967"><ele>437.66666666666663</ele><time>2026-03-30T08:52:46.687Z</time></trkpt><trkpt lat="43.0098583" lon="2.5676783"><ele>449.0</ele><time>2026-03-30T08:52:47.687Z</time></trkpt><trkpt lat="43.0097817" lon="2.5678633"><ele>449.0</ele><time>2026-03-30T08:52:48.688Z</time></trkpt><trkpt lat="43.009715" lon="2.5680517"><ele>449.0</ele><time>2026-03-30T08:52:49.688Z</time></trkpt><trkpt lat="43.0096633" lon="2.5682567"><ele>449.0</ele><time>2026-03-30T08:52:50.686Z</time></trkpt><trkpt lat="43.00962" lon="2.5684733"><ele>447.0</ele><time>2026-03-30T08:52:51.687Z</time></trkpt><trkpt lat="43.0095883" lon="2.5686967"><ele>445.0</ele><time>2026-03-30T08:52:52.688Z</time></trkpt><trkpt lat="43.009565" lon="2.56891"><ele>443.0</ele><time>2026-03-30T08:52:53.691Z</time></trkpt><trkpt lat="43.0095517" lon="2.5691567"><ele>443.0</ele><time>2026-03-30T08:52:54.688Z</time></trkpt><trkpt lat="43.009545" lon="2.5693783"><ele>443.0</ele><time>2026-03-30T08:52:55.689Z</time></trkpt><trkpt lat="43.0095483" lon="2.56962"><ele>443.0</ele><time>2026-03-30T08:52:56.686Z</time></trkpt><trkpt lat="43.0095333" lon="2.5698667"><ele>442.66666666666663</ele><time>2026-03-30T08:52:57.686Z</time></trkpt><trkpt lat="43.0095067" lon="2.5700917"><ele>442.33333333333337</ele><time>2026-03-30T08:52:58.688Z</time></trkpt><trkpt lat="43.0094717" lon="2.57032"><ele>442.0</ele><time>2026-03-30T08:52:59.688Z</time></trkpt><trkpt lat="43.00945" lon="2.5705483"><ele>441.6666666666667</ele><time>2026-03-30T08:53:00.687Z</time></trkpt><trkpt lat="43.0094433" lon="2.57078"><ele>441.33333333333337</ele><time>2026-03-30T08:53:01.687Z</time></trkpt><trkpt lat="43.009445" lon="2.5710067"><ele>441.0</ele><time>2026-03-30T08:53:02.69Z</time></trkpt><trkpt lat="43.00944" lon="2.5712283"><ele>441.0</ele><time>2026-03-30T08:53:03.686Z</time></trkpt><trkpt lat="43.00943" lon="2.5714533"><ele>441.0</ele><time>2026-03-30T08:53:04.687Z</time></trkpt><trkpt lat="43.00941" lon="2.5716817"><ele>441.0</ele><time>2026-03-30T08:53:05.686Z</time></trkpt><trkpt lat="43.009395" lon="2.571905"><ele>439.75</ele><time>2026-03-30T08:53:06.689Z</time></trkpt><trkpt lat="43.00937" lon="2.5721083"><ele>438.5</ele><time>2026-03-30T08:53:07.687Z</time></trkpt><trkpt lat="43.0093367" lon="2.57229"><ele>437.25</ele><time>2026-03-30T08:53:08.686Z</time></trkpt><trkpt lat="43.009305" lon="2.572455"><ele>436.0</ele><time>2026-03-30T08:53:09.688Z</time></trkpt><trkpt lat="43.0092883" lon="2.57261"><ele>436.0</ele><time>2026-03-30T08:53:10.686Z</time></trkpt><trkpt lat="43.0092767" lon="2.5727517"><ele>436.0</ele><time>2026-03-30T08:53:11.685Z</time></trkpt><trkpt lat="43.0092533" lon="2.5728733"><ele>436.0</ele><time>2026-03-30T08:53:12.687Z</time></trkpt><trkpt lat="43.0092117" lon="2.5729917"><ele>436.0</ele><time>2026-03-30T08:53:13.686Z</time></trkpt><trkpt lat="43.009155" lon="2.57312"><ele>436.0</ele><time>2026-03-30T08:53:14.687Z</time></trkpt><trkpt lat="43.0091" lon="2.57325"><ele>437.6</ele><time>2026-03-30T08:53:15.687Z</time></trkpt><trkpt lat="43.0090617" lon="2.5733867"><ele>439.20000000000005</ele><time>2026-03-30T08:53:16.686Z</time></trkpt><trkpt lat="43.00905" lon="2.573535"><ele>440.79999999999995</ele><time>2026-03-30T08:53:17.686Z</time></trkpt><trkpt lat="43.00905" lon="2.5736733"><ele>442.4</ele><time>2026-03-30T08:53:18.688Z</time></trkpt><trkpt lat="43.0090433" lon="2.5738017"><ele>444.0</ele><time>2026-03-30T08:53:19.686Z</time></trkpt><trkpt lat="43.0090183" lon="2.573935"><ele>444.0</ele><time>2026-03-30T08:53:20.687Z</time></trkpt><trkpt lat="43.0089767" lon="2.57408"><ele>444.0</ele><time>2026-03-30T08:53:21.687Z</time></trkpt><trkpt lat="43.00893" lon="2.574235"><ele>444.0</ele><time>2026-03-30T08:53:22.687Z</time></trkpt><trkpt lat="43.008885" lon="2.5743933"><ele>444.0</ele><time>2026-03-30T08:53:23.688Z</time></trkpt><trkpt lat="43.0088467" lon="2.5745533"><ele>441.79999999999995</ele><time>2026-03-30T08:53:24.685Z</time></trkpt><trkpt lat="43.0088067" lon="2.5746883"><ele>439.59999999999997</ele><time>2026-03-30T08:53:25.692Z</time></trkpt><trkpt lat="43.0087683" lon="2.5748117"><ele>437.4</ele><time>2026-03-30T08:53:26.69Z</time></trkpt><trkpt lat="43.00872" lon="2.5749117"><ele>435.2</ele><time>2026-03-30T08:53:27.686Z</time></trkpt><trkpt lat="43.008665" lon="2.5749967"><ele>433.0</ele><time>2026-03-30T08:53:28.687Z</time></trkpt><trkpt lat="43.0086017" lon="2.5750567"><ele>433.00000000000006</ele><time>2026-03-30T08:53:29.687Z</time></trkpt><trkpt lat="43.008525" lon="2.5750633"><ele>433.0</ele><time>2026-03-30T08:53:30.687Z</time></trkpt><trkpt lat="43.0084483" lon="2.575045"><ele>433.0</ele><time>2026-03-30T08:53:31.686Z</time></trkpt><trkpt lat="43.008375" lon="2.5749917"><ele>433.0</ele><time>2026-03-30T08:53:32.685Z</time></trkpt><trkpt lat="43.0083133" lon="2.5749017"><ele>433.00000000000006</ele><time>2026-03-30T08:53:33.689Z</time></trkpt><trkpt lat="43.0082567" lon="2.5747883"><ele>433.0</ele><time>2026-03-30T08:53:34.687Z</time></trkpt><trkpt lat="43.0082" lon="2.5746483"><ele>436.25</ele><time>2026-03-30T08:53:35.686Z</time></trkpt><trkpt lat="43.0081333" lon="2.5744983"><ele>439.5</ele><time>2026-03-30T08:53:36.687Z</time></trkpt><trkpt lat="43.008065" lon="2.5743483"><ele>442.75</ele><time>2026-03-30T08:53:37.685Z</time></trkpt><trkpt lat="43.008" lon="2.5742133"><ele>446.0</ele><time>2026-03-30T08:53:38.686Z</time></trkpt><trkpt lat="43.00794" lon="2.5740967"><ele>445.99999999999994</ele><time>2026-03-30T08:53:39.686Z</time></trkpt><trkpt lat="43.0078833" lon="2.5740017"><ele>446.0</ele><time>2026-03-30T08:53:40.685Z</time></trkpt><trkpt lat="43.00782" lon="2.5739267"><ele>446.0</ele><time>2026-03-30T08:53:41.685Z</time></trkpt><trkpt lat="43.0077517" lon="2.5738933"><ele>446.0</ele><time>2026-03-30T08:53:42.686Z</time></trkpt><trkpt lat="43.0076883" lon="2.573925"><ele>445.99999999999994</ele><time>2026-03-30T08:53:43.686Z</time></trkpt><trkpt lat="43.00764" lon="2.5739933"><ele>446.0</ele><time>2026-03-30T08:53:44.685Z</time></trkpt><trkpt lat="43.00761" lon="2.5741117"><ele>445.99999999999994</ele><time>2026-03-30T08:53:45.688Z</time></trkpt><trkpt lat="43.0075833" lon="2.574235"><ele>446.0</ele><time>2026-03-30T08:53:46.685Z</time></trkpt><trkpt lat="43.0075783" lon="2.5743617"><ele>446.0</ele><time>2026-03-30T08:53:47.688Z</time></trkpt><trkpt lat="43.0075583" lon="2.574465"><ele>446.0</ele><time>2026-03-30T08:53:48.688Z</time></trkpt><trkpt lat="43.0074617" lon="2.5745183"><ele>445.99999999999994</ele><time>2026-03-30T08:53:50.687Z</time></trkpt><trkpt lat="43.0073933" lon="2.5744867"><ele>446.0</ele><time>2026-03-30T08:53:51.688Z</time></trkpt><trkpt lat="43.0073117" lon="2.5744317"><ele>447.20000000000005</ele><time>2026-03-30T08:53:52.688Z</time></trkpt><trkpt lat="43.0072117" lon="2.574365"><ele>448.40000000000003</ele><time>2026-03-30T08:53:53.688Z</time></trkpt><trkpt lat="43.00711" lon="2.5743"><ele>449.6</ele><time>2026-03-30T08:53:54.686Z</time></trkpt><trkpt lat="43.0070167" lon="2.5742367"><ele>450.8</ele><time>2026-03-30T08:53:55.685Z</time></trkpt><trkpt lat="43.0069333" lon="2.5742033"><ele>452.0</ele><time>2026-03-30T08:53:56.687Z</time></trkpt><trkpt lat="43.00685" lon="2.5741933"><ele>451.99999999999994</ele><time>2026-03-30T08:53:57.689Z</time></trkpt><trkpt lat="43.0067717" lon="2.5742267"><ele>452.0</ele><time>2026-03-30T08:53:58.686Z</time></trkpt><trkpt lat="43.006695" lon="2.5742667"><ele>452.0</ele><time>2026-03-30T08:53:59.686Z</time></trkpt><trkpt lat="43.0066183" lon="2.57429"><ele>452.0</ele><time>2026-03-30T08:54:00.689Z</time></trkpt><trkpt lat="43.006535" lon="2.5742717"><ele>451.99999999999994</ele><time>2026-03-30T08:54:01.687Z</time></trkpt><trkpt lat="43.006435" lon="2.574215"><ele>452.0</ele><time>2026-03-30T08:54:02.687Z</time></trkpt><trkpt lat="43.0063267" lon="2.57415"><ele>450.0</ele><time>2026-03-30T08:54:03.687Z</time></trkpt><trkpt lat="43.006215" lon="2.5740967"><ele>448.00000000000006</ele><time>2026-03-30T08:54:04.687Z</time></trkpt><trkpt lat="43.0061117" lon="2.57405"><ele>446.00000000000006</ele><time>2026-03-30T08:54:05.685Z</time></trkpt><trkpt lat="43.00603" lon="2.57398"><ele>444.0</ele><time>2026-03-30T08:54:06.687Z</time></trkpt><trkpt lat="43.0059617" lon="2.5738917"><ele>442.0</ele><time>2026-03-30T08:54:07.686Z</time></trkpt><trkpt lat="43.0059133" lon="2.5737767"><ele>445.8</ele><time>2026-03-30T08:54:08.686Z</time></trkpt><trkpt lat="43.005875" lon="2.5736533"><ele>449.6</ele><time>2026-03-30T08:54:09.686Z</time></trkpt><trkpt lat="43.0058367" lon="2.573525"><ele>453.40000000000003</ele><time>2026-03-30T08:54:10.685Z</time></trkpt><trkpt lat="43.0057867" lon="2.5734083"><ele>457.20000000000005</ele><time>2026-03-30T08:54:11.686Z</time></trkpt><trkpt lat="43.0057267" lon="2.57329"><ele>461.0</ele><time>2026-03-30T08:54:12.688Z</time></trkpt><trkpt lat="43.0056567" lon="2.5731817"><ele>461.25</ele><time>2026-03-30T08:54:13.686Z</time></trkpt><trkpt lat="43.0055733" lon="2.5731"><ele>461.5</ele><time>2026-03-30T08:54:14.687Z</time></trkpt><trkpt lat="43.0054667" lon="2.5730617"><ele>461.75</ele><time>2026-03-30T08:54:15.685Z</time></trkpt><trkpt lat="43.0053483" lon="2.5730583"><ele>462.0</ele><time>2026-03-30T08:54:16.687Z</time></trkpt><trkpt lat="43.0052317" lon="2.5731033"><ele>462.0</ele><time>2026-03-30T08:54:17.686Z</time></trkpt><trkpt lat="43.00511" lon="2.5731667"><ele>462.0</ele><time>2026-03-30T08:54:18.687Z</time></trkpt><trkpt lat="43.0049867" lon="2.5732283"><ele>462.0</ele><time>2026-03-30T08:54:19.688Z</time></trkpt><trkpt lat="43.0048617" lon="2.573315"><ele>462.0</ele><time>2026-03-30T08:54:20.687Z</time></trkpt><trkpt lat="43.0047417" lon="2.573425"><ele>462.75</ele><time>2026-03-30T08:54:21.687Z</time></trkpt><trkpt lat="43.0046267" lon="2.573545"><ele>463.5</ele><time>2026-03-30T08:54:22.687Z</time></trkpt><trkpt lat="43.0045233" lon="2.5736817"><ele>464.25</ele><time>2026-03-30T08:54:23.687Z</time></trkpt><trkpt lat="43.0044217" lon="2.573805"><ele>465.0</ele><time>2026-03-30T08:54:24.686Z</time></trkpt><trkpt lat="43.00432" lon="2.5739217"><ele>465.0</ele><time>2026-03-30T08:54:25.686Z</time></trkpt><trkpt lat="43.0042183" lon="2.5740117"><ele>465.0</ele><time>2026-03-30T08:54:26.688Z</time></trkpt><trkpt lat="43.0041" lon="2.5740733"><ele>465.0</ele><time>2026-03-30T08:54:27.688Z</time></trkpt><trkpt lat="43.003965" lon="2.57412"><ele>465.0</ele><time>2026-03-30T08:54:28.688Z</time></trkpt><trkpt lat="43.003835" lon="2.574175"><ele>466.5</ele><time>2026-03-30T08:54:29.688Z</time></trkpt><trkpt lat="43.003705" lon="2.5742483"><ele>468.0</ele><time>2026-03-30T08:54:30.687Z</time></trkpt><trkpt lat="43.0035933" lon="2.5742983"><ele>469.5</ele><time>2026-03-30T08:54:31.687Z</time></trkpt><trkpt lat="43.0034933" lon="2.57434"><ele>471.0</ele><time>2026-03-30T08:54:32.689Z</time></trkpt><trkpt lat="43.0033967" lon="2.5743683"><ele>471.0</ele><time>2026-03-30T08:54:33.688Z</time></trkpt><trkpt lat="43.0033133" lon="2.5743617"><ele>471.0</ele><time>2026-03-30T08:54:34.687Z</time></trkpt><trkpt lat="43.003235" lon="2.57436"><ele>471.0</ele><time>2026-03-30T08:54:35.687Z</time></trkpt><trkpt lat="43.00317" lon="2.57434"><ele>471.0</ele><time>2026-03-30T08:54:36.689Z</time></trkpt><trkpt lat="43.0030733" lon="2.574305"><ele>471.0</ele><time>2026-03-30T08:54:38.688Z</time></trkpt><trkpt lat="43.0029983" lon="2.5743817"><ele>471.0</ele><time>2026-03-30T08:54:40.685Z</time></trkpt><trkpt lat="43.0029617" lon="2.5744533"><ele>472.1666666666667</ele><time>2026-03-30T08:54:41.689Z</time></trkpt><trkpt lat="43.002925" lon="2.5745367"><ele>473.33333333333337</ele><time>2026-03-30T08:54:42.686Z</time></trkpt><trkpt lat="43.0028867" lon="2.5746233"><ele>474.5</ele><time>2026-03-30T08:54:43.688Z</time></trkpt><trkpt lat="43.0028417" lon="2.5747183"><ele>475.6666666666667</ele><time>2026-03-30T08:54:44.688Z</time></trkpt><trkpt lat="43.0027833" lon="2.57482"><ele>476.83333333333337</ele><time>2026-03-30T08:54:45.686Z</time></trkpt><trkpt lat="43.002715" lon="2.574915"><ele>478.0</ele><time>2026-03-30T08:54:46.688Z</time></trkpt><trkpt lat="43.00264" lon="2.5750083"><ele>478.0</ele><time>2026-03-30T08:54:47.686Z</time></trkpt><trkpt lat="43.0025483" lon="2.5750717"><ele>478.0</ele><time>2026-03-30T08:54:48.686Z</time></trkpt><trkpt lat="43.0024367" lon="2.5751067"><ele>478.0</ele><time>2026-03-30T08:54:49.687Z</time></trkpt><trkpt lat="43.0023167" lon="2.57512"><ele>478.0</ele><time>2026-03-30T08:54:50.687Z</time></trkpt><trkpt lat="43.0021917" lon="2.5751233"><ele>478.0</ele><time>2026-03-30T08:54:51.689Z</time></trkpt><trkpt lat="43.0020767" lon="2.57513"><ele>478.0</ele><time>2026-03-30T08:54:52.686Z</time></trkpt><trkpt lat="43.0019717" lon="2.575175"><ele>478.0</ele><time>2026-03-30T08:54:53.685Z</time></trkpt><trkpt lat="43.00188" lon="2.57527"><ele>478.0</ele><time>2026-03-30T08:54:54.686Z</time></trkpt><trkpt lat="43.0018" lon="2.5753933"><ele>478.0</ele><time>2026-03-30T08:54:55.685Z</time></trkpt><trkpt lat="43.001735" lon="2.57553"><ele>478.0</ele><time>2026-03-30T08:54:56.688Z</time></trkpt><trkpt lat="43.0016817" lon="2.5756983"><ele>478.0</ele><time>2026-03-30T08:54:57.686Z</time></trkpt><trkpt lat="43.0016383" lon="2.5758783"><ele>478.0</ele><time>2026-03-30T08:54:58.686Z</time></trkpt><trkpt lat="43.0015967" lon="2.57606"><ele>474.25</ele><time>2026-03-30T08:54:59.688Z</time></trkpt><trkpt lat="43.0015533" lon="2.5762417"><ele>470.5</ele><time>2026-03-30T08:55:00.688Z</time></trkpt><trkpt lat="43.001505" lon="2.576425"><ele>466.75</ele><time>2026-03-30T08:55:01.687Z</time></trkpt><trkpt lat="43.00145" lon="2.5766083"><ele>463.0</ele><time>2026-03-30T08:55:02.688Z</time></trkpt><trkpt lat="43.0013933" lon="2.576795"><ele>463.0</ele><time>2026-03-30T08:55:03.686Z</time></trkpt><trkpt lat="43.001335" lon="2.576985"><ele>463.0</ele><time>2026-03-30T08:55:04.685Z</time></trkpt><trkpt lat="43.0012767" lon="2.5771767"><ele>463.0</ele><time>2026-03-30T08:55:05.687Z</time></trkpt><trkpt lat="43.001215" lon="2.5773667"><ele>466.0</ele><time>2026-03-30T08:55:06.686Z</time></trkpt><trkpt lat="43.0011467" lon="2.57756"><ele>469.0</ele><time>2026-03-30T08:55:07.686Z</time></trkpt><trkpt lat="43.00107" lon="2.5777433"><ele>472.0</ele><time>2026-03-30T08:55:08.69Z</time></trkpt><trkpt lat="43.0009833" lon="2.57791"><ele>476.25</ele><time>2026-03-30T08:55:09.687Z</time></trkpt><trkpt lat="43.0008917" lon="2.5780683"><ele>480.5</ele><time>2026-03-30T08:55:10.689Z</time></trkpt><trkpt lat="43.000795" lon="2.5782167"><ele>484.75</ele><time>2026-03-30T08:55:11.686Z</time></trkpt><trkpt lat="43.0006967" lon="2.57836"><ele>489.0</ele><time>2026-03-30T08:55:12.685Z</time></trkpt><trkpt lat="43.000605" lon="2.57849"><ele>489.0</ele><time>2026-03-30T08:55:13.685Z</time></trkpt><trkpt lat="43.00052" lon="2.5786033"><ele>489.0</ele><time>2026-03-30T08:55:14.686Z</time></trkpt><trkpt lat="43.0004367" lon="2.578685"><ele>489.0</ele><time>2026-03-30T08:55:15.686Z</time></trkpt><trkpt lat="43.0003383" lon="2.5787183"><ele>489.0</ele><time>2026-03-30T08:55:16.685Z</time></trkpt><trkpt lat="43.0002367" lon="2.5786867"><ele>489.0</ele><time>2026-03-30T08:55:17.686Z</time></trkpt><trkpt lat="43.0001567" lon="2.5786"><ele>489.0</ele><time>2026-03-30T08:55:18.685Z</time></trkpt><trkpt lat="43.0000917" lon="2.578465"><ele>489.0</ele><time>2026-03-30T08:55:19.685Z</time></trkpt><trkpt lat="43.0000283" lon="2.5783283"><ele>489.0</ele><time>2026-03-30T08:55:20.685Z</time></trkpt><trkpt lat="42.9999483" lon="2.5782183"><ele>489.0</ele><time>2026-03-30T08:55:21.689Z</time></trkpt><trkpt lat="42.9998483" lon="2.578155"><ele>489.0</ele><time>2026-03-30T08:55:22.685Z</time></trkpt><trkpt lat="42.99973" lon="2.578155"><ele>489.0</ele><time>2026-03-30T08:55:23.687Z</time></trkpt><trkpt lat="42.9996117" lon="2.578205"><ele>489.0</ele><time>2026-03-30T08:55:24.687Z</time></trkpt><trkpt lat="42.9995033" lon="2.5782917"><ele>489.0</ele><time>2026-03-30T08:55:25.685Z</time></trkpt><trkpt lat="42.999405" lon="2.57841"><ele>489.0</ele><time>2026-03-30T08:55:26.687Z</time></trkpt><trkpt lat="42.9993183" lon="2.5785567"><ele>489.0</ele><time>2026-03-30T08:55:27.685Z</time></trkpt><trkpt lat="42.999235" lon="2.5787067"><ele>489.0</ele><time>2026-03-30T08:55:28.688Z</time></trkpt><trkpt lat="42.9991517" lon="2.5788567"><ele>489.0</ele><time>2026-03-30T08:55:29.686Z</time></trkpt><trkpt lat="42.999055" lon="2.5789883"><ele>492.5</ele><time>2026-03-30T08:55:30.686Z</time></trkpt><trkpt lat="42.9989433" lon="2.5790967"><ele>496.0</ele><time>2026-03-30T08:55:31.686Z</time></trkpt><trkpt lat="42.9988333" lon="2.5792083"><ele>499.5</ele><time>2026-03-30T08:55:32.686Z</time></trkpt><trkpt lat="42.9987383" lon="2.579345"><ele>503.0</ele><time>2026-03-30T08:55:33.687Z</time></trkpt><trkpt lat="42.9986717" lon="2.5795033"><ele>502.25</ele><time>2026-03-30T08:55:34.686Z</time></trkpt><trkpt lat="42.9986133" lon="2.579675"><ele>501.5</ele><time>2026-03-30T08:55:35.685Z</time></trkpt><trkpt lat="42.99854" lon="2.5798317"><ele>500.75</ele><time>2026-03-30T08:55:36.686Z</time></trkpt><trkpt lat="42.998435" lon="2.5799483"><ele>500.0</ele><time>2026-03-30T08:55:37.686Z</time></trkpt><trkpt lat="42.99831" lon="2.580035"><ele>500.0</ele><time>2026-03-30T08:55:38.686Z</time></trkpt><trkpt lat="42.9981917" lon="2.5801317"><ele>500.0</ele><time>2026-03-30T08:55:39.685Z</time></trkpt><trkpt lat="42.9980767" lon="2.58025"><ele>500.0</ele><time>2026-03-30T08:55:40.687Z</time></trkpt><trkpt lat="42.997965" lon="2.58038"><ele>500.0</ele><time>2026-03-30T08:55:41.685Z</time></trkpt><trkpt lat="42.997865" lon="2.58052"><ele>504.0</ele><time>2026-03-30T08:55:42.687Z</time></trkpt><trkpt lat="42.9977983" lon="2.5806867"><ele>508.0</ele><time>2026-03-30T08:55:43.687Z</time></trkpt><trkpt lat="42.99777" lon="2.58086"><ele>512.0</ele><time>2026-03-30T08:55:44.688Z</time></trkpt><trkpt lat="42.9977783" lon="2.5810333"><ele>516.0</ele><time>2026-03-30T08:55:45.686Z</time></trkpt><trkpt lat="42.997775" lon="2.5811917"><ele>516.2</ele><time>2026-03-30T08:55:46.687Z</time></trkpt><trkpt lat="42.9977333" lon="2.5813267"><ele>516.4000000000001</ele><time>2026-03-30T08:55:47.688Z</time></trkpt><trkpt lat="42.9976567" lon="2.5814183"><ele>516.6</ele><time>2026-03-30T08:55:48.689Z</time></trkpt><trkpt lat="42.997545" lon="2.5814417"><ele>516.8000000000001</ele><time>2026-03-30T08:55:49.686Z</time></trkpt><trkpt lat="42.9974233" lon="2.58141"><ele>517.0</ele><time>2026-03-30T08:55:50.687Z</time></trkpt><trkpt lat="42.9973" lon="2.5813467"><ele>517.0</ele><time>2026-03-30T08:55:51.686Z</time></trkpt><trkpt lat="42.9971767" lon="2.5812683"><ele>517.0</ele><time>2026-03-30T08:55:52.687Z</time></trkpt><trkpt lat="42.9970533" lon="2.581195"><ele>517.0</ele><time>2026-03-30T08:55:53.685Z</time></trkpt><trkpt lat="42.99693" lon="2.5811517"><ele>517.0</ele><time>2026-03-30T08:55:54.685Z</time></trkpt><trkpt lat="42.9968017" lon="2.581155"><ele>517.0</ele><time>2026-03-30T08:55:55.685Z</time></trkpt><trkpt lat="42.9966767" lon="2.581205"><ele>517.0</ele><time>2026-03-30T08:55:56.686Z</time></trkpt><trkpt lat="42.996565" lon="2.5812933"><ele>517.0</ele><time>2026-03-30T08:55:57.685Z</time></trkpt><trkpt lat="42.9964633" lon="2.5814033"><ele>517.0</ele><time>2026-03-30T08:55:58.685Z</time></trkpt><trkpt lat="42.9963683" lon="2.58152"><ele>516.25</ele><time>2026-03-30T08:55:59.685Z</time></trkpt><trkpt lat="42.9962733" lon="2.5816317"><ele>515.5</ele><time>2026-03-30T08:56:00.687Z</time></trkpt><trkpt lat="42.9961717" lon="2.581735"><ele>514.75</ele><time>2026-03-30T08:56:01.686Z</time></trkpt><trkpt lat="42.9960617" lon="2.5818217"><ele>514.0</ele><time>2026-03-30T08:56:02.687Z</time></trkpt><trkpt lat="42.995945" lon="2.5818933"><ele>513.5</ele><time>2026-03-30T08:56:03.685Z</time></trkpt><trkpt lat="42.9958267" lon="2.5819517"><ele>513.0</ele><time>2026-03-30T08:56:04.685Z</time></trkpt><trkpt lat="42.995705" lon="2.58199"><ele>512.5</ele><time>2026-03-30T08:56:05.686Z</time></trkpt><trkpt lat="42.9955833" lon="2.582005"><ele>512.0</ele><time>2026-03-30T08:56:06.685Z</time></trkpt><trkpt lat="42.9954633" lon="2.5819917"><ele>512.0</ele><time>2026-03-30T08:56:07.685Z</time></trkpt><trkpt lat="42.9953467" lon="2.58195"><ele>512.0</ele><time>2026-03-30T08:56:08.687Z</time></trkpt><trkpt lat="42.9952367" lon="2.5818783"><ele>512.0</ele><time>2026-03-30T08:56:09.689Z</time></trkpt><trkpt lat="42.9951383" lon="2.5817817"><ele>512.0</ele><time>2026-03-30T08:56:10.686Z</time></trkpt><trkpt lat="42.99505" lon="2.5816633"><ele>513.0</ele><time>2026-03-30T08:56:11.685Z</time></trkpt><trkpt lat="42.9949717" lon="2.5815317"><ele>514.0</ele><time>2026-03-30T08:56:12.686Z</time></trkpt><trkpt lat="42.9948917" lon="2.5813983"><ele>515.0</ele><time>2026-03-30T08:56:13.687Z</time></trkpt><trkpt lat="42.99481" lon="2.5812667"><ele>516.0</ele><time>2026-03-30T08:56:14.686Z</time></trkpt><trkpt lat="42.9947283" lon="2.581135"><ele>516.5</ele><time>2026-03-30T08:56:15.687Z</time></trkpt><trkpt lat="42.9946433" lon="2.5809983"><ele>517.0</ele><time>2026-03-30T08:56:16.687Z</time></trkpt><trkpt lat="42.9945567" lon="2.5808617"><ele>517.5</ele><time>2026-03-30T08:56:17.686Z</time></trkpt><trkpt lat="42.9944667" lon="2.580725"><ele>518.0</ele><time>2026-03-30T08:56:18.685Z</time></trkpt><trkpt lat="42.9943733" lon="2.58059"><ele>518.0</ele><time>2026-03-30T08:56:19.686Z</time></trkpt><trkpt lat="42.9942717" lon="2.5804617"><ele>518.0</ele><time>2026-03-30T08:56:20.687Z</time></trkpt><trkpt lat="42.9941633" lon="2.5803483"><ele>518.0</ele><time>2026-03-30T08:56:21.689Z</time></trkpt><trkpt lat="42.994055" lon="2.580245"><ele>518.0</ele><time>2026-03-30T08:56:22.686Z</time></trkpt><trkpt lat="42.993945" lon="2.5801433"><ele>519.0</ele><time>2026-03-30T08:56:23.686Z</time></trkpt><trkpt lat="42.9938233" lon="2.5800533"><ele>520.0</ele><time>2026-03-30T08:56:24.687Z</time></trkpt><trkpt lat="42.9936933" lon="2.5799783"><ele>521.0</ele><time>2026-03-30T08:56:25.686Z</time></trkpt><trkpt lat="42.9935567" lon="2.5799067"><ele>522.0</ele><time>2026-03-30T08:56:26.688Z</time></trkpt><trkpt lat="42.99342" lon="2.57983"><ele>518.25</ele><time>2026-03-30T08:56:27.689Z</time></trkpt><trkpt lat="42.9932883" lon="2.5797483"><ele>514.5</ele><time>2026-03-30T08:56:28.686Z</time></trkpt><trkpt lat="42.9931617" lon="2.5796633"><ele>510.75</ele><time>2026-03-30T08:56:29.686Z</time></trkpt><trkpt lat="42.9930367" lon="2.57959"><ele>507.0</ele><time>2026-03-30T08:56:30.687Z</time></trkpt><trkpt lat="42.9929167" lon="2.5795317"><ele>507.0</ele><time>2026-03-30T08:56:31.686Z</time></trkpt><trkpt lat="42.9927967" lon="2.5794833"><ele>507.0</ele><time>2026-03-30T08:56:32.687Z</time></trkpt><trkpt lat="42.9926817" lon="2.57943"><ele>507.0</ele><time>2026-03-30T08:56:33.685Z</time></trkpt><trkpt lat="42.992565" lon="2.5793633"><ele>507.0</ele><time>2026-03-30T08:56:34.687Z</time></trkpt><trkpt lat="42.9924617" lon="2.5792483"><ele>507.0</ele><time>2026-03-30T08:56:35.686Z</time></trkpt><trkpt lat="42.9923717" lon="2.5791183"><ele>507.0</ele><time>2026-03-30T08:56:36.686Z</time></trkpt><trkpt lat="42.992295" lon="2.578975"><ele>507.0</ele><time>2026-03-30T08:56:37.685Z</time></trkpt><trkpt lat="42.9922317" lon="2.57883"><ele>507.0</ele><time>2026-03-30T08:56:38.687Z</time></trkpt><trkpt lat="42.9921867" lon="2.5786817"><ele>509.0</ele><time>2026-03-30T08:56:39.685Z</time></trkpt><trkpt lat="42.9921467" lon="2.578545"><ele>511.00000000000006</ele><time>2026-03-30T08:56:40.686Z</time></trkpt><trkpt lat="42.992095" lon="2.5784433"><ele>513.0</ele><time>2026-03-30T08:56:41.686Z</time></trkpt><trkpt lat="42.992025" lon="2.5783817"><ele>515.0</ele><time>2026-03-30T08:56:42.687Z</time></trkpt><trkpt lat="42.991925" lon="2.5783967"><ele>517.0</ele><time>2026-03-30T08:56:43.686Z</time></trkpt><trkpt lat="42.9918317" lon="2.5784667"><ele>517.0</ele><time>2026-03-30T08:56:44.687Z</time></trkpt><trkpt lat="42.9917333" lon="2.5785367"><ele>517.0</ele><time>2026-03-30T08:56:45.685Z</time></trkpt><trkpt lat="42.991625" lon="2.5785867"><ele>517.0</ele><time>2026-03-30T08:56:46.686Z</time></trkpt><trkpt lat="42.99151" lon="2.57859"><ele>517.0</ele><time>2026-03-30T08:56:47.689Z</time></trkpt><trkpt lat="42.9913967" lon="2.5785467"><ele>513.5</ele><time>2026-03-30T08:56:48.686Z</time></trkpt><trkpt lat="42.9912883" lon="2.5784717"><ele>510.0</ele><time>2026-03-30T08:56:49.687Z</time></trkpt><trkpt lat="42.9911833" lon="2.5783833"><ele>506.5</ele><time>2026-03-30T08:56:50.687Z</time></trkpt><trkpt lat="42.99108" lon="2.5782783"><ele>503.0</ele><time>2026-03-30T08:56:51.685Z</time></trkpt><trkpt lat="42.9909783" lon="2.5781667"><ele>503.0</ele><time>2026-03-30T08:56:52.687Z</time></trkpt><trkpt lat="42.9908867" lon="2.5780333"><ele>503.0</ele><time>2026-03-30T08:56:53.686Z</time></trkpt><trkpt lat="42.990815" lon="2.57788"><ele>503.0</ele><time>2026-03-30T08:56:54.686Z</time></trkpt><trkpt lat="42.990755" lon="2.577705"><ele>503.0</ele><time>2026-03-30T08:56:55.687Z</time></trkpt><trkpt lat="42.9907" lon="2.5775183"><ele>502.5</ele><time>2026-03-30T08:56:56.687Z</time></trkpt><trkpt lat="42.9906383" lon="2.5773367"><ele>502.0</ele><time>2026-03-30T08:56:57.686Z</time></trkpt><trkpt lat="42.9905733" lon="2.577165"><ele>501.5</ele><time>2026-03-30T08:56:58.686Z</time></trkpt><trkpt lat="42.99051" lon="2.576995"><ele>501.0</ele><time>2026-03-30T08:56:59.684Z</time></trkpt><trkpt lat="42.9904317" lon="2.5768433"><ele>504.0</ele><time>2026-03-30T08:57:00.685Z</time></trkpt><trkpt lat="42.99033" lon="2.5767233"><ele>507.0</ele><time>2026-03-30T08:57:01.687Z</time></trkpt><trkpt lat="42.99022" lon="2.5766367"><ele>510.0</ele><time>2026-03-30T08:57:02.685Z</time></trkpt><trkpt lat="42.9900917" lon="2.5765933"><ele>513.0</ele><time>2026-03-30T08:57:03.688Z</time></trkpt><trkpt lat="42.9899583" lon="2.5765683"><ele>505.75</ele><time>2026-03-30T08:57:04.688Z</time></trkpt><trkpt lat="42.9898217" lon="2.5765417"><ele>498.5</ele><time>2026-03-30T08:57:05.685Z</time></trkpt><trkpt lat="42.9896817" lon="2.5765133"><ele>491.25</ele><time>2026-03-30T08:57:06.685Z</time></trkpt><trkpt lat="42.9895467" lon="2.5764633"><ele>484.0</ele><time>2026-03-30T08:57:07.685Z</time></trkpt><trkpt lat="42.9894183" lon="2.5763833"><ele>484.0</ele><time>2026-03-30T08:57:08.687Z</time></trkpt><trkpt lat="42.9892933" lon="2.5762767"><ele>484.0</ele><time>2026-03-30T08:57:09.686Z</time></trkpt><trkpt lat="42.98917" lon="2.5761617"><ele>484.0</ele><time>2026-03-30T08:57:10.685Z</time></trkpt><trkpt lat="42.9890383" lon="2.57606"><ele>484.0</ele><time>2026-03-30T08:57:11.685Z</time></trkpt><trkpt lat="42.9888933" lon="2.5759883"><ele>486.33333333333337</ele><time>2026-03-30T08:57:12.684Z</time></trkpt><trkpt lat="42.9887383" lon="2.5759417"><ele>488.66666666666663</ele><time>2026-03-30T08:57:13.685Z</time></trkpt><trkpt lat="42.988585" lon="2.5759033"><ele>491.0</ele><time>2026-03-30T08:57:14.686Z</time></trkpt><trkpt lat="42.9884383" lon="2.5758683"><ele>486.25</ele><time>2026-03-30T08:57:15.686Z</time></trkpt><trkpt lat="42.9882967" lon="2.57583"><ele>481.5</ele><time>2026-03-30T08:57:16.685Z</time></trkpt><trkpt lat="42.988155" lon="2.575785"><ele>476.75</ele><time>2026-03-30T08:57:17.693Z</time></trkpt><trkpt lat="42.9880183" lon="2.5757267"><ele>472.0</ele><time>2026-03-30T08:57:18.685Z</time></trkpt><trkpt lat="42.9878883" lon="2.57565"><ele>472.0</ele><time>2026-03-30T08:57:19.686Z</time></trkpt><trkpt lat="42.9877633" lon="2.575555"><ele>472.0</ele><time>2026-03-30T08:57:20.688Z</time></trkpt><trkpt lat="42.9876433" lon="2.5754417"><ele>472.0</ele><time>2026-03-30T08:57:21.685Z</time></trkpt><trkpt lat="42.9875333" lon="2.57531"><ele>472.0</ele><time>2026-03-30T08:57:22.688Z</time></trkpt><trkpt lat="42.9874267" lon="2.575165"><ele>471.33333333333337</ele><time>2026-03-30T08:57:23.685Z</time></trkpt><trkpt lat="42.9873183" lon="2.5750167"><ele>470.66666666666663</ele><time>2026-03-30T08:57:24.686Z</time></trkpt><trkpt lat="42.9872083" lon="2.5748717"><ele>470.0</ele><time>2026-03-30T08:57:25.685Z</time></trkpt><trkpt lat="42.9871033" lon="2.5747317"><ele>470.0</ele><time>2026-03-30T08:57:26.686Z</time></trkpt><trkpt lat="42.987" lon="2.5745983"><ele>470.0</ele><time>2026-03-30T08:57:27.69Z</time></trkpt><trkpt lat="42.986895" lon="2.5744833"><ele>470.0</ele><time>2026-03-30T08:57:28.685Z</time></trkpt><trkpt lat="42.9867867" lon="2.5743833"><ele>470.0</ele><time>2026-03-30T08:57:29.688Z</time></trkpt><trkpt lat="42.986675" lon="2.574295"><ele>468.0</ele><time>2026-03-30T08:57:30.685Z</time></trkpt><trkpt lat="42.986565" lon="2.5742317"><ele>466.0</ele><time>2026-03-30T08:57:31.688Z</time></trkpt><trkpt lat="42.986445" lon="2.5742117"><ele>464.0</ele><time>2026-03-30T08:57:32.687Z</time></trkpt><trkpt lat="42.9863217" lon="2.5742417"><ele>462.0</ele><time>2026-03-30T08:57:33.686Z</time></trkpt><trkpt lat="42.9862167" lon="2.5743267"><ele>462.0</ele><time>2026-03-30T08:57:34.685Z</time></trkpt><trkpt lat="42.9861417" lon="2.574455"><ele>462.0</ele><time>2026-03-30T08:57:35.684Z</time></trkpt><trkpt lat="42.9860833" lon="2.5746083"><ele>462.0</ele><time>2026-03-30T08:57:36.689Z</time></trkpt><trkpt lat="42.9860167" lon="2.574755"><ele>462.0</ele><time>2026-03-30T08:57:37.688Z</time></trkpt><trkpt lat="42.985935" lon="2.574885"><ele>459.5</ele><time>2026-03-30T08:57:38.686Z</time></trkpt><trkpt lat="42.9858483" lon="2.574995"><ele>457.0</ele><time>2026-03-30T08:57:39.685Z</time></trkpt><trkpt lat="42.9857583" lon="2.5750967"><ele>454.5</ele><time>2026-03-30T08:57:40.689Z</time></trkpt><trkpt lat="42.9856583" lon="2.575175"><ele>452.0</ele><time>2026-03-30T08:57:41.686Z</time></trkpt><trkpt lat="42.9855467" lon="2.5752133"><ele>452.0</ele><time>2026-03-30T08:57:42.687Z</time></trkpt><trkpt lat="42.9854217" lon="2.57521"><ele>452.0</ele><time>2026-03-30T08:57:43.687Z</time></trkpt><trkpt lat="42.9852933" lon="2.575175"><ele>452.0</ele><time>2026-03-30T08:57:44.685Z</time></trkpt><trkpt lat="42.98517" lon="2.5751267"><ele>452.0</ele><time>2026-03-30T08:57:45.687Z</time></trkpt><trkpt lat="42.9850517" lon="2.5750633"><ele>451.0</ele><time>2026-03-30T08:57:46.686Z</time></trkpt><trkpt lat="42.9849517" lon="2.5749583"><ele>450.0</ele><time>2026-03-30T08:57:47.686Z</time></trkpt><trkpt lat="42.9848667" lon="2.5748267"><ele>449.0</ele><time>2026-03-30T08:57:48.689Z</time></trkpt><trkpt lat="42.9847867" lon="2.574685"><ele>448.0</ele><time>2026-03-30T08:57:49.689Z</time></trkpt><trkpt lat="42.9847017" lon="2.5745417"><ele>450.25</ele><time>2026-03-30T08:57:50.689Z</time></trkpt><trkpt lat="42.9846067" lon="2.5744083"><ele>452.5</ele><time>2026-03-30T08:57:51.689Z</time></trkpt><trkpt lat="42.9845017" lon="2.5742817"><ele>454.75</ele><time>2026-03-30T08:57:52.686Z</time></trkpt><trkpt lat="42.98439" lon="2.5741683"><ele>457.0</ele><time>2026-03-30T08:57:53.687Z</time></trkpt><trkpt lat="42.9842667" lon="2.57408"><ele>454.0</ele><time>2026-03-30T08:57:54.686Z</time></trkpt><trkpt lat="42.984135" lon="2.5740083"><ele>451.0</ele><time>2026-03-30T08:57:55.685Z</time></trkpt><trkpt lat="42.984" lon="2.5739583"><ele>448.0</ele><time>2026-03-30T08:57:56.685Z</time></trkpt><trkpt lat="42.9838617" lon="2.57393"><ele>445.0</ele><time>2026-03-30T08:57:57.69Z</time></trkpt><trkpt lat="42.9837267" lon="2.57393"><ele>445.0</ele><time>2026-03-30T08:57:58.687Z</time></trkpt><trkpt lat="42.9835983" lon="2.573955"><ele>445.0</ele><time>2026-03-30T08:57:59.686Z</time></trkpt><trkpt lat="42.9834783" lon="2.5740133"><ele>445.0</ele><time>2026-03-30T08:58:00.685Z</time></trkpt><trkpt lat="42.9833683" lon="2.57411"><ele>445.0</ele><time>2026-03-30T08:58:01.685Z</time></trkpt><trkpt lat="42.98327" lon="2.5742317"><ele>444.75</ele><time>2026-03-30T08:58:02.686Z</time></trkpt><trkpt lat="42.9831683" lon="2.5743533"><ele>444.5</ele><time>2026-03-30T08:58:03.684Z</time></trkpt><trkpt lat="42.9830567" lon="2.5744633"><ele>444.25</ele><time>2026-03-30T08:58:04.685Z</time></trkpt><trkpt lat="42.9829383" lon="2.5745567"><ele>444.0</ele><time>2026-03-30T08:58:05.685Z</time></trkpt><trkpt lat="42.9828217" lon="2.5746467"><ele>443.75</ele><time>2026-03-30T08:58:06.686Z</time></trkpt><trkpt lat="42.9827133" lon="2.5747517"><ele>443.5</ele><time>2026-03-30T08:58:07.687Z</time></trkpt><trkpt lat="42.9826217" lon="2.574885"><ele>443.25</ele><time>2026-03-30T08:58:08.686Z</time></trkpt><trkpt lat="42.9825417" lon="2.5750467"><ele>443.0</ele><time>2026-03-30T08:58:09.688Z</time></trkpt><trkpt lat="42.9824633" lon="2.5752133"><ele>439.5</ele><time>2026-03-30T08:58:10.687Z</time></trkpt><trkpt lat="42.982385" lon="2.575375"><ele>436.0</ele><time>2026-03-30T08:58:11.684Z</time></trkpt><trkpt lat="42.982305" lon="2.5755183"><ele>432.5</ele><time>2026-03-30T08:58:12.686Z</time></trkpt><trkpt lat="42.982225" lon="2.57565"><ele>429.0</ele><time>2026-03-30T08:58:13.686Z</time></trkpt><trkpt lat="42.9821483" lon="2.5757717"><ele>429.0</ele><time>2026-03-30T08:58:14.685Z</time></trkpt><trkpt lat="42.9820783" lon="2.5758767"><ele>429.0</ele><time>2026-03-30T08:58:15.685Z</time></trkpt><trkpt lat="42.982" lon="2.5759583"><ele>429.0</ele><time>2026-03-30T08:58:16.686Z</time></trkpt><trkpt lat="42.98191" lon="2.57601"><ele>429.0</ele><time>2026-03-30T08:58:17.686Z</time></trkpt><trkpt lat="42.981815" lon="2.5760317"><ele>429.0</ele><time>2026-03-30T08:58:18.687Z</time></trkpt><trkpt lat="42.98171" lon="2.5760333"><ele>430.3333333333333</ele><time>2026-03-30T08:58:19.685Z</time></trkpt><trkpt lat="42.9816083" lon="2.57605"><ele>431.66666666666663</ele><time>2026-03-30T08:58:20.687Z</time></trkpt><trkpt lat="42.9815183" lon="2.5760717"><ele>433.0</ele><time>2026-03-30T08:58:21.685Z</time></trkpt><trkpt lat="42.98144" lon="2.5761017"><ele>434.3333333333333</ele><time>2026-03-30T08:58:22.685Z</time></trkpt><trkpt lat="42.981375" lon="2.5761183"><ele>435.66666666666663</ele><time>2026-03-30T08:58:23.685Z</time></trkpt><trkpt lat="42.98128" lon="2.5760767"><ele>437.0</ele><time>2026-03-30T08:58:25.686Z</time></trkpt><trkpt lat="42.9811917" lon="2.5759417"><ele>437.0</ele><time>2026-03-30T08:58:27.688Z</time></trkpt><trkpt lat="42.981145" lon="2.5758617"><ele>437.0</ele><time>2026-03-30T08:58:28.685Z</time></trkpt><trkpt lat="42.9810983" lon="2.57579"><ele>437.0</ele><time>2026-03-30T08:58:29.685Z</time></trkpt><trkpt lat="42.981055" lon="2.5757217"><ele>437.0</ele><time>2026-03-30T08:58:30.685Z</time></trkpt><trkpt lat="42.9810117" lon="2.575655"><ele>437.0</ele><time>2026-03-30T08:58:31.684Z</time></trkpt><trkpt lat="42.9809683" lon="2.5755817"><ele>437.0</ele><time>2026-03-30T08:58:32.686Z</time></trkpt><trkpt lat="42.9809367" lon="2.575485"><ele>437.0</ele><time>2026-03-30T08:58:33.685Z</time></trkpt><trkpt lat="42.9809233" lon="2.5753733"><ele>438.66666666666663</ele><time>2026-03-30T08:58:34.685Z</time></trkpt><trkpt lat="42.98092" lon="2.575255"><ele>440.3333333333333</ele><time>2026-03-30T08:58:35.686Z</time></trkpt><trkpt lat="42.980925" lon="2.575135"><ele>442.0</ele><time>2026-03-30T08:58:36.687Z</time></trkpt><trkpt lat="42.980935" lon="2.5750267"><ele>443.66666666666663</ele><time>2026-03-30T08:58:37.688Z</time></trkpt><trkpt lat="42.980955" lon="2.5749267"><ele>445.3333333333333</ele><time>2026-03-30T08:58:38.685Z</time></trkpt><trkpt lat="42.980975" lon="2.57483"><ele>447.0</ele><time>2026-03-30T08:58:39.684Z</time></trkpt><trkpt lat="42.980995" lon="2.574725"><ele>447.0</ele><time>2026-03-30T08:58:40.685Z</time></trkpt><trkpt lat="42.9810133" lon="2.5746167"><ele>447.00000000000006</ele><time>2026-03-30T08:58:41.685Z</time></trkpt><trkpt lat="42.9810317" lon="2.57449"><ele>447.00000000000006</ele><time>2026-03-30T08:58:42.686Z</time></trkpt><trkpt lat="42.9810483" lon="2.5743533"><ele>447.0</ele><time>2026-03-30T08:58:43.685Z</time></trkpt><trkpt lat="42.98106" lon="2.5742183"><ele>447.0</ele><time>2026-03-30T08:58:44.686Z</time></trkpt><trkpt lat="42.9810767" lon="2.574095"><ele>445.1666666666667</ele><time>2026-03-30T08:58:45.686Z</time></trkpt><trkpt lat="42.9810967" lon="2.5739767"><ele>443.33333333333337</ele><time>2026-03-30T08:58:46.684Z</time></trkpt><trkpt lat="42.9811233" lon="2.57387"><ele>441.5</ele><time>2026-03-30T08:58:47.688Z</time></trkpt><trkpt lat="42.98115" lon="2.5737767"><ele>439.6666666666667</ele><time>2026-03-30T08:58:48.687Z</time></trkpt><trkpt lat="42.981175" lon="2.5736867"><ele>437.83333333333337</ele><time>2026-03-30T08:58:49.689Z</time></trkpt><trkpt lat="42.9812033" lon="2.5736017"><ele>436.0</ele><time>2026-03-30T08:58:50.688Z</time></trkpt><trkpt lat="42.9812467" lon="2.5735217"><ele>432.4</ele><time>2026-03-30T08:58:51.688Z</time></trkpt><trkpt lat="42.98131" lon="2.5734383"><ele>428.8</ele><time>2026-03-30T08:58:52.689Z</time></trkpt><trkpt lat="42.9813867" lon="2.573355"><ele>425.2</ele><time>2026-03-30T08:58:53.691Z</time></trkpt><trkpt lat="42.9814733" lon="2.5732683"><ele>421.59999999999997</ele><time>2026-03-30T08:58:54.686Z</time></trkpt><trkpt lat="42.9815667" lon="2.5731717"><ele>418.0</ele><time>2026-03-30T08:58:55.686Z</time></trkpt><trkpt lat="42.9816617" lon="2.5730667"><ele>418.5</ele><time>2026-03-30T08:58:56.685Z</time></trkpt><trkpt lat="42.9817533" lon="2.572965"><ele>419.0</ele><time>2026-03-30T08:58:57.686Z</time></trkpt><trkpt lat="42.9818433" lon="2.5728583"><ele>419.5</ele><time>2026-03-30T08:58:58.686Z</time></trkpt><trkpt lat="42.981935" lon="2.5727567"><ele>420.0</ele><time>2026-03-30T08:58:59.686Z</time></trkpt><trkpt lat="42.9820283" lon="2.5726483"><ele>420.0</ele><time>2026-03-30T08:59:00.685Z</time></trkpt><trkpt lat="42.9821183" lon="2.5725367"><ele>420.0</ele><time>2026-03-30T08:59:01.685Z</time></trkpt><trkpt lat="42.9821983" lon="2.5724267"><ele>420.0</ele><time>2026-03-30T08:59:02.685Z</time></trkpt><trkpt lat="42.9822733" lon="2.5723167"><ele>420.0</ele><time>2026-03-30T08:59:03.686Z</time></trkpt><trkpt lat="42.9823467" lon="2.5722083"><ele>420.0</ele><time>2026-03-30T08:59:04.688Z</time></trkpt><trkpt lat="42.9824183" lon="2.5721017"><ele>420.0</ele><time>2026-03-30T08:59:05.686Z</time></trkpt><trkpt lat="42.9824983" lon="2.57201"><ele>420.0</ele><time>2026-03-30T08:59:06.686Z</time></trkpt><trkpt lat="42.9825883" lon="2.5719283"><ele>420.0</ele><time>2026-03-30T08:59:07.686Z</time></trkpt><trkpt lat="42.982685" lon="2.571835"><ele>420.0</ele><time>2026-03-30T08:59:08.688Z</time></trkpt><trkpt lat="42.9827917" lon="2.5717467"><ele>419.0</ele><time>2026-03-30T08:59:09.686Z</time></trkpt><trkpt lat="42.9828983" lon="2.571665"><ele>418.0</ele><time>2026-03-30T08:59:10.684Z</time></trkpt><trkpt lat="42.9829933" lon="2.57159"><ele>417.0</ele><time>2026-03-30T08:59:11.686Z</time></trkpt><trkpt lat="42.9830833" lon="2.57152"><ele>416.0</ele><time>2026-03-30T08:59:12.686Z</time></trkpt><trkpt lat="42.9831667" lon="2.5714567"><ele>415.0</ele><time>2026-03-30T08:59:13.685Z</time></trkpt><trkpt lat="42.9832517" lon="2.5714217"><ele>415.0</ele><time>2026-03-30T08:59:14.685Z</time></trkpt><trkpt lat="42.9833383" lon="2.5714"><ele>415.0</ele><time>2026-03-30T08:59:15.685Z</time></trkpt><trkpt lat="42.98342" lon="2.57141"><ele>415.0</ele><time>2026-03-30T08:59:16.684Z</time></trkpt><trkpt lat="42.98351" lon="2.571435"><ele>415.0</ele><time>2026-03-30T08:59:17.685Z</time></trkpt><trkpt lat="42.9836083" lon="2.5714717"><ele>415.0</ele><time>2026-03-30T08:59:18.686Z</time></trkpt><trkpt lat="42.9837117" lon="2.5714967"><ele>415.0</ele><time>2026-03-30T08:59:19.684Z</time></trkpt><trkpt lat="42.98382" lon="2.57152"><ele>415.0</ele><time>2026-03-30T08:59:20.69Z</time></trkpt><trkpt lat="42.9839367" lon="2.57154"><ele>415.0</ele><time>2026-03-30T08:59:21.686Z</time></trkpt><trkpt lat="42.98406" lon="2.571555"><ele>415.0</ele><time>2026-03-30T08:59:22.687Z</time></trkpt><trkpt lat="42.9841867" lon="2.5715583"><ele>415.83333333333337</ele><time>2026-03-30T08:59:23.689Z</time></trkpt><trkpt lat="42.9843" lon="2.5715483"><ele>416.6666666666667</ele><time>2026-03-30T08:59:24.685Z</time></trkpt><trkpt lat="42.9844083" lon="2.5715317"><ele>417.5</ele><time>2026-03-30T08:59:25.684Z</time></trkpt><trkpt lat="42.9844833" lon="2.5715083"><ele>418.33333333333337</ele><time>2026-03-30T08:59:26.686Z</time></trkpt><trkpt lat="42.9845417" lon="2.5714667"><ele>419.1666666666667</ele><time>2026-03-30T08:59:27.685Z</time></trkpt><trkpt lat="42.9845883" lon="2.571405"><ele>420.0</ele><time>2026-03-30T08:59:28.687Z</time></trkpt><trkpt lat="42.9846283" lon="2.5713333"><ele>420.0</ele><time>2026-03-30T08:59:29.685Z</time></trkpt><trkpt lat="42.98465" lon="2.5712433"><ele>420.0</ele><time>2026-03-30T08:59:30.684Z</time></trkpt><trkpt lat="42.98465" lon="2.5711283"><ele>420.0</ele><time>2026-03-30T08:59:31.684Z</time></trkpt><trkpt lat="42.98466" lon="2.5710133"><ele>420.0</ele><time>2026-03-30T08:59:32.686Z</time></trkpt><trkpt lat="42.9846933" lon="2.5709117"><ele>420.0</ele><time>2026-03-30T08:59:33.685Z</time></trkpt><trkpt lat="42.9847383" lon="2.5708267"><ele>420.0</ele><time>2026-03-30T08:59:34.685Z</time></trkpt><trkpt lat="42.9847783" lon="2.570755"><ele>418.5</ele><time>2026-03-30T08:59:35.684Z</time></trkpt><trkpt lat="42.9848383" lon="2.5706417"><ele>417.0</ele><time>2026-03-30T08:59:37.687Z</time></trkpt><trkpt lat="42.9848117" lon="2.5705583"><ele>415.5</ele><time>2026-03-30T08:59:41.685Z</time></trkpt><trkpt lat="42.9847517" lon="2.5704633"><ele>414.0</ele><time>2026-03-30T08:59:44.688Z</time></trkpt><trkpt lat="42.9846967" lon="2.57042"><ele>412.5</ele><time>2026-03-30T08:59:46.686Z</time></trkpt><trkpt lat="42.984605" lon="2.5704767"><ele>411.0</ele><time>2026-03-30T09:01:23.687Z</time></trkpt><trkpt lat="42.9845433" lon="2.570515"><ele>411.0</ele><time>2026-03-30T09:01:24.686Z</time></trkpt><trkpt lat="42.9844733" lon="2.5705483"><ele>411.0</ele><time>2026-03-30T09:01:25.686Z</time></trkpt><trkpt lat="42.984405" lon="2.57058"><ele>411.0</ele><time>2026-03-30T09:01:26.684Z</time></trkpt><trkpt lat="42.98433" lon="2.5705983"><ele>411.0</ele><time>2026-03-30T09:01:27.686Z</time></trkpt><trkpt lat="42.9842433" lon="2.5705967"><ele>411.0</ele><time>2026-03-30T09:01:28.685Z</time></trkpt><trkpt lat="42.9841467" lon="2.5705783"><ele>411.0</ele><time>2026-03-30T09:01:29.686Z</time></trkpt><trkpt lat="42.98404" lon="2.570555"><ele>410.75</ele><time>2026-03-30T09:01:30.685Z</time></trkpt><trkpt lat="42.9839333" lon="2.57054"><ele>410.5</ele><time>2026-03-30T09:01:31.684Z</time></trkpt><trkpt lat="42.98382" lon="2.5705333"><ele>410.25</ele><time>2026-03-30T09:01:32.686Z</time></trkpt><trkpt lat="42.983705" lon="2.5705267"><ele>410.0</ele><time>2026-03-30T09:01:33.685Z</time></trkpt><trkpt lat="42.98359" lon="2.5705167"><ele>410.0</ele><time>2026-03-30T09:01:34.685Z</time></trkpt><trkpt lat="42.983475" lon="2.5705"><ele>410.0</ele><time>2026-03-30T09:01:35.684Z</time></trkpt><trkpt lat="42.9833583" lon="2.5704883"><ele>410.0</ele><time>2026-03-30T09:01:36.687Z</time></trkpt><trkpt lat="42.98324" lon="2.57049"><ele>410.0</ele><time>2026-03-30T09:01:37.687Z</time></trkpt><trkpt lat="42.9831167" lon="2.570505"><ele>410.0</ele><time>2026-03-30T09:01:38.686Z</time></trkpt><trkpt lat="42.9829917" lon="2.5705167"><ele>410.0</ele><time>2026-03-30T09:01:39.684Z</time></trkpt><trkpt lat="42.9828617" lon="2.5705167"><ele>410.0</ele><time>2026-03-30T09:01:40.686Z</time></trkpt><trkpt lat="42.98273" lon="2.570505"><ele>410.0</ele><time>2026-03-30T09:01:41.685Z</time></trkpt><trkpt lat="42.9826" lon="2.5705"><ele>412.25</ele><time>2026-03-30T09:01:42.687Z</time></trkpt><trkpt lat="42.98247" lon="2.5705033"><ele>414.5</ele><time>2026-03-30T09:01:43.685Z</time></trkpt><trkpt lat="42.9823417" lon="2.5705217"><ele>416.75</ele><time>2026-03-30T09:01:44.688Z</time></trkpt><trkpt lat="42.9822167" lon="2.57054"><ele>419.0</ele><time>2026-03-30T09:01:45.685Z</time></trkpt><trkpt lat="42.9821" lon="2.57055"><ele>419.0</ele><time>2026-03-30T09:01:46.687Z</time></trkpt><trkpt lat="42.981995" lon="2.5705667"><ele>419.0</ele><time>2026-03-30T09:01:47.686Z</time></trkpt><trkpt lat="42.9818933" lon="2.5705967"><ele>419.0</ele><time>2026-03-30T09:01:48.684Z</time></trkpt><trkpt lat="42.9817917" lon="2.5706267"><ele>419.0</ele><time>2026-03-30T09:01:49.684Z</time></trkpt><trkpt lat="42.9816967" lon="2.570645"><ele>419.0</ele><time>2026-03-30T09:01:50.685Z</time></trkpt><trkpt lat="42.98162" lon="2.5706583"><ele>421.0</ele><time>2026-03-30T09:01:51.687Z</time></trkpt><trkpt lat="42.9815567" lon="2.57067"><ele>423.0</ele><time>2026-03-30T09:01:52.686Z</time></trkpt><trkpt lat="42.981445" lon="2.5706533"><ele>425.0</ele><time>2026-03-30T09:01:54.686Z</time></trkpt><trkpt lat="42.981395" lon="2.5705867"><ele>427.0</ele><time>2026-03-30T09:01:55.684Z</time></trkpt><trkpt lat="42.98136" lon="2.5704317"><ele>429.0</ele><time>2026-03-30T09:01:57.686Z</time></trkpt><trkpt lat="42.981365" lon="2.57025"><ele>431.79999999999995</ele><time>2026-03-30T09:01:59.686Z</time></trkpt><trkpt lat="42.98136" lon="2.5701317"><ele>434.59999999999997</ele><time>2026-03-30T09:02:00.687Z</time></trkpt><trkpt lat="42.9813533" lon="2.5699967"><ele>437.4</ele><time>2026-03-30T09:02:01.69Z</time></trkpt><trkpt lat="42.9813467" lon="2.569855"><ele>440.2</ele><time>2026-03-30T09:02:02.687Z</time></trkpt><trkpt lat="42.9813317" lon="2.56971"><ele>443.0</ele><time>2026-03-30T09:02:03.685Z</time></trkpt><trkpt lat="42.981305" lon="2.5695617"><ele>446.25</ele><time>2026-03-30T09:02:04.686Z</time></trkpt><trkpt lat="42.98126" lon="2.5693983"><ele>449.5</ele><time>2026-03-30T09:02:05.684Z</time></trkpt><trkpt lat="42.9812133" lon="2.5692283"><ele>452.75</ele><time>2026-03-30T09:02:06.687Z</time></trkpt><trkpt lat="42.981175" lon="2.5690583"><ele>456.0</ele><time>2026-03-30T09:02:07.685Z</time></trkpt><trkpt lat="42.9811317" lon="2.5688883"><ele>456.0</ele><time>2026-03-30T09:02:08.685Z</time></trkpt><trkpt lat="42.9810733" lon="2.5687183"><ele>456.0</ele><time>2026-03-30T09:02:09.687Z</time></trkpt><trkpt lat="42.9810133" lon="2.56855"><ele>456.0</ele><time>2026-03-30T09:02:10.685Z</time></trkpt><trkpt lat="42.9809583" lon="2.5683917"><ele>456.0</ele><time>2026-03-30T09:02:11.686Z</time></trkpt><trkpt lat="42.9809083" lon="2.5682367"><ele>454.8</ele><time>2026-03-30T09:02:12.684Z</time></trkpt><trkpt lat="42.9808567" lon="2.568095"><ele>453.6</ele><time>2026-03-30T09:02:13.684Z</time></trkpt><trkpt lat="42.980795" lon="2.5679817"><ele>452.4</ele><time>2026-03-30T09:02:14.686Z</time></trkpt><trkpt lat="42.9807233" lon="2.5678917"><ele>451.2</ele><time>2026-03-30T09:02:15.685Z</time></trkpt><trkpt lat="42.980635" lon="2.56781"><ele>450.0</ele><time>2026-03-30T09:02:16.685Z</time></trkpt><trkpt lat="42.9805383" lon="2.56772"><ele>454.5</ele><time>2026-03-30T09:02:17.684Z</time></trkpt><trkpt lat="42.980435" lon="2.5676183"><ele>459.0</ele><time>2026-03-30T09:02:18.685Z</time></trkpt><trkpt lat="42.9803283" lon="2.5675083"><ele>463.5</ele><time>2026-03-30T09:02:19.684Z</time></trkpt><trkpt lat="42.9802217" lon="2.567395"><ele>468.0</ele><time>2026-03-30T09:02:20.686Z</time></trkpt><trkpt lat="42.9801067" lon="2.5672967"><ele>469.25</ele><time>2026-03-30T09:02:21.684Z</time></trkpt><trkpt lat="42.9799917" lon="2.5672117"><ele>470.5</ele><time>2026-03-30T09:02:22.686Z</time></trkpt><trkpt lat="42.97989" lon="2.5671333"><ele>471.75</ele><time>2026-03-30T09:02:23.685Z</time></trkpt><trkpt lat="42.9798067" lon="2.5670383"><ele>473.0</ele><time>2026-03-30T09:02:24.686Z</time></trkpt><trkpt lat="42.979725" lon="2.566915"><ele>473.0</ele><time>2026-03-30T09:02:25.687Z</time></trkpt><trkpt lat="42.97965" lon="2.5667817"><ele>472.99999999999994</ele><time>2026-03-30T09:02:26.686Z</time></trkpt><trkpt lat="42.9795767" lon="2.5666617"><ele>472.99999999999994</ele><time>2026-03-30T09:02:27.687Z</time></trkpt><trkpt lat="42.9795" lon="2.5665633"><ele>473.0</ele><time>2026-03-30T09:02:28.685Z</time></trkpt><trkpt lat="42.9794233" lon="2.566485"><ele>473.0</ele><time>2026-03-30T09:02:29.686Z</time></trkpt><trkpt lat="42.9793583" lon="2.5664167"><ele>472.99999999999994</ele><time>2026-03-30T09:02:30.686Z</time></trkpt><trkpt lat="42.9793117" lon="2.56633"><ele>473.0</ele><time>2026-03-30T09:02:31.684Z</time></trkpt><trkpt lat="42.9792917" lon="2.5662233"><ele>473.0</ele><time>2026-03-30T09:02:32.689Z</time></trkpt><trkpt lat="42.9792833" lon="2.5660983"><ele>473.0</ele><time>2026-03-30T09:02:33.688Z</time></trkpt><trkpt lat="42.9792717" lon="2.5659833"><ele>472.99999999999994</ele><time>2026-03-30T09:02:34.685Z</time></trkpt><trkpt lat="42.9792383" lon="2.5658917"><ele>473.0</ele><time>2026-03-30T09:02:35.687Z</time></trkpt><trkpt lat="42.9791867" lon="2.56581"><ele>472.4</ele><time>2026-03-30T09:02:36.685Z</time></trkpt><trkpt lat="42.9791217" lon="2.565725"><ele>471.79999999999995</ele><time>2026-03-30T09:02:37.685Z</time></trkpt><trkpt lat="42.9790483" lon="2.5656233"><ele>471.2</ele><time>2026-03-30T09:02:38.686Z</time></trkpt><trkpt lat="42.9789783" lon="2.565515"><ele>470.6</ele><time>2026-03-30T09:02:39.686Z</time></trkpt><trkpt lat="42.9789233" lon="2.5653917"><ele>470.0</ele><time>2026-03-30T09:02:40.686Z</time></trkpt><trkpt lat="42.9788883" lon="2.5652667"><ele>471.16666666666663</ele><time>2026-03-30T09:02:41.686Z</time></trkpt><trkpt lat="42.9788733" lon="2.56515"><ele>472.3333333333333</ele><time>2026-03-30T09:02:42.686Z</time></trkpt><trkpt lat="42.9788783" lon="2.56505"><ele>473.5</ele><time>2026-03-30T09:02:43.687Z</time></trkpt><trkpt lat="42.9789183" lon="2.5649633"><ele>474.66666666666663</ele><time>2026-03-30T09:02:44.689Z</time></trkpt><trkpt lat="42.9789767" lon="2.5648783"><ele>475.8333333333333</ele><time>2026-03-30T09:02:45.686Z</time></trkpt><trkpt lat="42.9790483" lon="2.564805"><ele>477.0</ele><time>2026-03-30T09:02:46.689Z</time></trkpt><trkpt lat="42.9791117" lon="2.5647267"><ele>477.0</ele><time>2026-03-30T09:02:47.687Z</time></trkpt><trkpt lat="42.9791583" lon="2.5646333"><ele>477.00000000000006</ele><time>2026-03-30T09:02:48.686Z</time></trkpt><trkpt lat="42.9791833" lon="2.5645267"><ele>477.00000000000006</ele><time>2026-03-30T09:02:49.686Z</time></trkpt><trkpt lat="42.9791833" lon="2.564395"><ele>477.0</ele><time>2026-03-30T09:02:50.687Z</time></trkpt><trkpt lat="42.9791767" lon="2.56425"><ele>477.0</ele><time>2026-03-30T09:02:51.686Z</time></trkpt><trkpt lat="42.9791667" lon="2.5640967"><ele>477.0</ele><time>2026-03-30T09:02:52.686Z</time></trkpt><trkpt lat="42.9791517" lon="2.5639383"><ele>477.0</ele><time>2026-03-30T09:02:53.685Z</time></trkpt><trkpt lat="42.97913" lon="2.5637833"><ele>477.0</ele><time>2026-03-30T09:02:54.688Z</time></trkpt><trkpt lat="42.9791233" lon="2.5636317"><ele>477.0</ele><time>2026-03-30T09:02:55.687Z</time></trkpt><trkpt lat="42.9791367" lon="2.563485"><ele>477.75</ele><time>2026-03-30T09:02:56.688Z</time></trkpt><trkpt lat="42.9791733" lon="2.5633317"><ele>478.5</ele><time>2026-03-30T09:02:57.686Z</time></trkpt><trkpt lat="42.97921" lon="2.5631667"><ele>479.25</ele><time>2026-03-30T09:02:58.687Z</time></trkpt><trkpt lat="42.9792433" lon="2.5630083"><ele>480.0</ele><time>2026-03-30T09:02:59.688Z</time></trkpt><trkpt lat="42.9792783" lon="2.5628567"><ele>485.8333333333333</ele><time>2026-03-30T09:03:00.688Z</time></trkpt><trkpt lat="42.9793167" lon="2.5627267"><ele>491.66666666666663</ele><time>2026-03-30T09:03:01.688Z</time></trkpt><trkpt lat="42.979355" lon="2.5626183"><ele>497.5</ele><time>2026-03-30T09:03:02.688Z</time></trkpt><trkpt lat="42.979385" lon="2.5625233"><ele>503.3333333333333</ele><time>2026-03-30T09:03:03.687Z</time></trkpt><trkpt lat="42.979385" lon="2.5623733"><ele>509.16666666666663</ele><time>2026-03-30T09:03:05.686Z</time></trkpt><trkpt lat="42.9793267" lon="2.56234"><ele>515.0</ele><time>2026-03-30T09:03:06.686Z</time></trkpt><trkpt lat="42.9792583" lon="2.5623217"><ele>510.0</ele><time>2026-03-30T09:03:07.685Z</time></trkpt><trkpt lat="42.97917" lon="2.562345"><ele>505.0</ele><time>2026-03-30T09:03:08.688Z</time></trkpt><trkpt lat="42.9790583" lon="2.562405"><ele>500.0</ele><time>2026-03-30T09:03:09.687Z</time></trkpt><trkpt lat="42.978945" lon="2.5624517"><ele>495.0</ele><time>2026-03-30T09:03:10.686Z</time></trkpt><trkpt lat="42.9788317" lon="2.5624833"><ele>490.0</ele><time>2026-03-30T09:03:11.685Z</time></trkpt><trkpt lat="42.9787183" lon="2.5624983"><ele>490.0</ele><time>2026-03-30T09:03:12.685Z</time></trkpt><trkpt lat="42.9786083" lon="2.562485"><ele>490.0</ele><time>2026-03-30T09:03:13.689Z</time></trkpt><trkpt lat="42.9785067" lon="2.5624517"><ele>490.0</ele><time>2026-03-30T09:03:14.687Z</time></trkpt><trkpt lat="42.9784167" lon="2.5623967"><ele>490.0</ele><time>2026-03-30T09:03:15.685Z</time></trkpt><trkpt lat="42.978335" lon="2.56231"><ele>490.0</ele><time>2026-03-30T09:03:16.686Z</time></trkpt><trkpt lat="42.97827" lon="2.562205"><ele>490.8</ele><time>2026-03-30T09:03:17.688Z</time></trkpt><trkpt lat="42.97822" lon="2.5621"><ele>491.6</ele><time>2026-03-30T09:03:18.687Z</time></trkpt><trkpt lat="42.9781917" lon="2.561985"><ele>492.4</ele><time>2026-03-30T09:03:19.687Z</time></trkpt><trkpt lat="42.9781917" lon="2.5618517"><ele>493.2</ele><time>2026-03-30T09:03:20.689Z</time></trkpt><trkpt lat="42.97821" lon="2.561705"><ele>494.0</ele><time>2026-03-30T09:03:21.689Z</time></trkpt><trkpt lat="42.97823" lon="2.561545"><ele>494.0</ele><time>2026-03-30T09:03:22.689Z</time></trkpt><trkpt lat="42.9782517" lon="2.561385"><ele>494.0</ele><time>2026-03-30T09:03:23.688Z</time></trkpt><trkpt lat="42.97828" lon="2.5612367"><ele>494.0</ele><time>2026-03-30T09:03:24.686Z</time></trkpt><trkpt lat="42.9783067" lon="2.5611083"><ele>494.0</ele><time>2026-03-30T09:03:25.689Z</time></trkpt><trkpt lat="42.978325" lon="2.561"><ele>494.0</ele><time>2026-03-30T09:03:26.688Z</time></trkpt><trkpt lat="42.97833" lon="2.5609083"><ele>496.0</ele><time>2026-03-30T09:03:27.689Z</time></trkpt><trkpt lat="42.9782617" lon="2.5607917"><ele>498.0</ele><time>2026-03-30T09:03:29.687Z</time></trkpt><trkpt lat="42.9782033" lon="2.560755"><ele>500.0</ele><time>2026-03-30T09:03:30.686Z</time></trkpt><trkpt lat="42.9780917" lon="2.5607417"><ele>502.0</ele><time>2026-03-30T09:03:31.686Z</time></trkpt><trkpt lat="42.9779767" lon="2.560735"><ele>504.0</ele><time>2026-03-30T09:03:32.686Z</time></trkpt><trkpt lat="42.9778667" lon="2.5607133"><ele>504.0</ele><time>2026-03-30T09:03:33.688Z</time></trkpt><trkpt lat="42.97776" lon="2.5606867"><ele>504.0</ele><time>2026-03-30T09:03:34.687Z</time></trkpt><trkpt lat="42.9776633" lon="2.56064"><ele>504.0</ele><time>2026-03-30T09:03:35.687Z</time></trkpt><trkpt lat="42.9775617" lon="2.560575"><ele>504.0</ele><time>2026-03-30T09:03:36.688Z</time></trkpt><trkpt lat="42.9774767" lon="2.5604767"><ele>504.0</ele><time>2026-03-30T09:03:37.686Z</time></trkpt><trkpt lat="42.9774183" lon="2.5603333"><ele>505.25</ele><time>2026-03-30T09:03:38.687Z</time></trkpt><trkpt lat="42.977365" lon="2.5601617"><ele>506.5</ele><time>2026-03-30T09:03:39.688Z</time></trkpt><trkpt lat="42.9773133" lon="2.5599917"><ele>507.75</ele><time>2026-03-30T09:03:40.688Z</time></trkpt><trkpt lat="42.9772633" lon="2.5598283"><ele>509.0</ele><time>2026-03-30T09:03:41.687Z</time></trkpt><trkpt lat="42.977215" lon="2.55968"><ele>509.0</ele><time>2026-03-30T09:03:42.686Z</time></trkpt><trkpt lat="42.9771817" lon="2.5595533"><ele>509.0</ele><time>2026-03-30T09:03:43.69Z</time></trkpt><trkpt lat="42.977155" lon="2.5594417"><ele>509.0</ele><time>2026-03-30T09:03:44.686Z</time></trkpt><trkpt lat="42.9771317" lon="2.5593417"><ele>509.0</ele><time>2026-03-30T09:03:45.686Z</time></trkpt><trkpt lat="42.977105" lon="2.559255"><ele>509.0</ele><time>2026-03-30T09:03:46.687Z</time></trkpt><trkpt lat="42.9770367" lon="2.5591183"><ele>511.2</ele><time>2026-03-30T09:03:48.687Z</time></trkpt><trkpt lat="42.9769567" lon="2.558985"><ele>513.4</ele><time>2026-03-30T09:03:50.688Z</time></trkpt><trkpt lat="42.9769033" lon="2.5589083"><ele>515.6</ele><time>2026-03-30T09:03:51.686Z</time></trkpt><trkpt lat="42.9768567" lon="2.558805"><ele>517.8</ele><time>2026-03-30T09:03:52.688Z</time></trkpt><trkpt lat="42.976815" lon="2.5586783"><ele>520.0</ele><time>2026-03-30T09:03:53.688Z</time></trkpt><trkpt lat="42.9767817" lon="2.55854"><ele>522.6</ele><time>2026-03-30T09:03:54.688Z</time></trkpt><trkpt lat="42.9767467" lon="2.55839"><ele>525.2</ele><time>2026-03-30T09:03:55.688Z</time></trkpt><trkpt lat="42.9767167" lon="2.5582467"><ele>527.8</ele><time>2026-03-30T09:03:56.689Z</time></trkpt><trkpt lat="42.9766867" lon="2.5581183"><ele>530.4</ele><time>2026-03-30T09:03:57.69Z</time></trkpt><trkpt lat="42.9766467" lon="2.558005"><ele>533.0</ele><time>2026-03-30T09:03:58.687Z</time></trkpt><trkpt lat="42.9766033" lon="2.5579167"><ele>531.0</ele><time>2026-03-30T09:03:59.686Z</time></trkpt><trkpt lat="42.9765483" lon="2.5578667"><ele>529.0</ele><time>2026-03-30T09:04:00.689Z</time></trkpt><trkpt lat="42.97648" lon="2.5578283"><ele>527.0</ele><time>2026-03-30T09:04:01.686Z</time></trkpt><trkpt lat="42.9763883" lon="2.5578267"><ele>525.0</ele><time>2026-03-30T09:04:02.689Z</time></trkpt><trkpt lat="42.9762983" lon="2.55781"><ele>523.0</ele><time>2026-03-30T09:04:03.689Z</time></trkpt><trkpt lat="42.9762033" lon="2.5577717"><ele>521.0</ele><time>2026-03-30T09:04:04.686Z</time></trkpt><trkpt lat="42.9761083" lon="2.557715"><ele>521.0</ele><time>2026-03-30T09:04:05.687Z</time></trkpt><trkpt lat="42.9760167" lon="2.5576367"><ele>521.0</ele><time>2026-03-30T09:04:06.687Z</time></trkpt><trkpt lat="42.9759317" lon="2.557525"><ele>521.0</ele><time>2026-03-30T09:04:07.687Z</time></trkpt><trkpt lat="42.9758533" lon="2.5573933"><ele>521.0</ele><time>2026-03-30T09:04:08.69Z</time></trkpt><trkpt lat="42.9757717" lon="2.5572533"><ele>519.25</ele><time>2026-03-30T09:04:09.687Z</time></trkpt><trkpt lat="42.9756867" lon="2.5571117"><ele>517.5</ele><time>2026-03-30T09:04:10.687Z</time></trkpt><trkpt lat="42.9756" lon="2.5569717"><ele>515.75</ele><time>2026-03-30T09:04:11.691Z</time></trkpt><trkpt lat="42.9755233" lon="2.5568217"><ele>514.0</ele><time>2026-03-30T09:04:12.689Z</time></trkpt><trkpt lat="42.975455" lon="2.55666"><ele>514.0</ele><time>2026-03-30T09:04:13.688Z</time></trkpt><trkpt lat="42.9753783" lon="2.5565"><ele>514.0</ele><time>2026-03-30T09:04:14.687Z</time></trkpt><trkpt lat="42.97529" lon="2.5563433"><ele>514.0</ele><time>2026-03-30T09:04:15.687Z</time></trkpt><trkpt lat="42.9752033" lon="2.55619"><ele>514.0</ele><time>2026-03-30T09:04:16.688Z</time></trkpt><trkpt lat="42.9751267" lon="2.5560383"><ele>515.75</ele><time>2026-03-30T09:04:17.689Z</time></trkpt><trkpt lat="42.9750567" lon="2.555885"><ele>517.5</ele><time>2026-03-30T09:04:18.686Z</time></trkpt><trkpt lat="42.97499" lon="2.5557417"><ele>519.25</ele><time>2026-03-30T09:04:19.687Z</time></trkpt><trkpt lat="42.974935" lon="2.5556117"><ele>521.0</ele><time>2026-03-30T09:04:20.687Z</time></trkpt><trkpt lat="42.9748833" lon="2.5554917"><ele>518.5</ele><time>2026-03-30T09:04:21.687Z</time></trkpt><trkpt lat="42.97483" lon="2.555395"><ele>516.0</ele><time>2026-03-30T09:04:22.688Z</time></trkpt><trkpt lat="42.974775" lon="2.5553133"><ele>513.5</ele><time>2026-03-30T09:04:23.687Z</time></trkpt><trkpt lat="42.9747283" lon="2.5552417"><ele>511.0</ele><time>2026-03-30T09:04:24.689Z</time></trkpt><trkpt lat="42.9746467" lon="2.55514"><ele>508.49999999999994</ele><time>2026-03-30T09:04:26.686Z</time></trkpt><trkpt lat="42.974575" lon="2.555095"><ele>506.0</ele><time>2026-03-30T09:04:28.687Z</time></trkpt><trkpt lat="42.9745" lon="2.555055"><ele>506.0</ele><time>2026-03-30T09:04:30.688Z</time></trkpt><trkpt lat="42.9743867" lon="2.5549967"><ele>506.0</ele><time>2026-03-30T09:04:32.688Z</time></trkpt><trkpt lat="42.9743067" lon="2.5549583"><ele>506.0</ele><time>2026-03-30T09:04:33.686Z</time></trkpt><trkpt lat="42.9742133" lon="2.554905"><ele>506.0</ele><time>2026-03-30T09:04:34.687Z</time></trkpt><trkpt lat="42.9741167" lon="2.554845"><ele>506.0</ele><time>2026-03-30T09:04:35.688Z</time></trkpt><trkpt lat="42.9740133" lon="2.5547783"><ele>505.5</ele><time>2026-03-30T09:04:36.687Z</time></trkpt><trkpt lat="42.9739017" lon="2.55471"><ele>505.0</ele><time>2026-03-30T09:04:37.688Z</time></trkpt><trkpt lat="42.9737917" lon="2.5546383"><ele>504.5</ele><time>2026-03-30T09:04:38.69Z</time></trkpt><trkpt lat="42.9736833" lon="2.55455"><ele>504.0</ele><time>2026-03-30T09:04:39.686Z</time></trkpt><trkpt lat="42.9735767" lon="2.5544433"><ele>504.0</ele><time>2026-03-30T09:04:40.688Z</time></trkpt><trkpt lat="42.973475" lon="2.554325"><ele>504.0</ele><time>2026-03-30T09:04:41.686Z</time></trkpt><trkpt lat="42.9733683" lon="2.55422"><ele>504.0</ele><time>2026-03-30T09:04:42.687Z</time></trkpt><trkpt lat="42.9732533" lon="2.5541283"><ele>504.0</ele><time>2026-03-30T09:04:43.687Z</time></trkpt><trkpt lat="42.97313" lon="2.554045"><ele>505.0</ele><time>2026-03-30T09:04:44.689Z</time></trkpt><trkpt lat="42.973" lon="2.5539717"><ele>506.0</ele><time>2026-03-30T09:04:45.687Z</time></trkpt><trkpt lat="42.9728633" lon="2.55391"><ele>507.0</ele><time>2026-03-30T09:04:46.692Z</time></trkpt><trkpt lat="42.9727283" lon="2.553855"><ele>508.0</ele><time>2026-03-30T09:04:47.688Z</time></trkpt><trkpt lat="42.9726" lon="2.553805"><ele>508.75</ele><time>2026-03-30T09:04:48.686Z</time></trkpt><trkpt lat="42.972485" lon="2.5537617"><ele>509.5</ele><time>2026-03-30T09:04:49.688Z</time></trkpt><trkpt lat="42.9723767" lon="2.553735"><ele>510.25</ele><time>2026-03-30T09:04:50.688Z</time></trkpt><trkpt lat="42.972265" lon="2.5537417"><ele>511.0</ele><time>2026-03-30T09:04:51.689Z</time></trkpt><trkpt lat="42.9721517" lon="2.55377"><ele>511.0</ele><time>2026-03-30T09:04:52.685Z</time></trkpt><trkpt lat="42.9720433" lon="2.5538067"><ele>511.0</ele><time>2026-03-30T09:04:53.688Z</time></trkpt><trkpt lat="42.97194" lon="2.5538383"><ele>511.0</ele><time>2026-03-30T09:04:54.686Z</time></trkpt><trkpt lat="42.9718417" lon="2.5538667"><ele>511.0</ele><time>2026-03-30T09:04:55.687Z</time></trkpt><trkpt lat="42.9717517" lon="2.5538867"><ele>511.0</ele><time>2026-03-30T09:04:56.688Z</time></trkpt><trkpt lat="42.9716667" lon="2.55389"><ele>510.4</ele><time>2026-03-30T09:04:57.687Z</time></trkpt><trkpt lat="42.97158" lon="2.5538717"><ele>509.8</ele><time>2026-03-30T09:04:58.687Z</time></trkpt><trkpt lat="42.971495" lon="2.5538333"><ele>509.19999999999993</ele><time>2026-03-30T09:04:59.689Z</time></trkpt><trkpt lat="42.9714167" lon="2.55378"><ele>508.59999999999997</ele><time>2026-03-30T09:05:00.69Z</time></trkpt><trkpt lat="42.9713433" lon="2.5536967"><ele>508.0</ele><time>2026-03-30T09:05:01.685Z</time></trkpt><trkpt lat="42.9712717" lon="2.5535917"><ele>510.75</ele><time>2026-03-30T09:05:02.688Z</time></trkpt><trkpt lat="42.9712067" lon="2.5534633"><ele>513.5</ele><time>2026-03-30T09:05:03.688Z</time></trkpt><trkpt lat="42.9711433" lon="2.5533233"><ele>516.25</ele><time>2026-03-30T09:05:04.687Z</time></trkpt><trkpt lat="42.9710783" lon="2.5531733"><ele>519.0</ele><time>2026-03-30T09:05:05.686Z</time></trkpt><trkpt lat="42.9710117" lon="2.5530267"><ele>519.0</ele><time>2026-03-30T09:05:06.686Z</time></trkpt><trkpt lat="42.97095" lon="2.552895"><ele>519.0</ele><time>2026-03-30T09:05:07.688Z</time></trkpt><trkpt lat="42.9708867" lon="2.552775"><ele>519.0</ele><time>2026-03-30T09:05:08.687Z</time></trkpt><trkpt lat="42.9708267" lon="2.5526733"><ele>519.0</ele><time>2026-03-30T09:05:09.689Z</time></trkpt><trkpt lat="42.9707717" lon="2.5525933"><ele>519.0</ele><time>2026-03-30T09:05:10.688Z</time></trkpt><trkpt lat="42.9707133" lon="2.5525417"><ele>518.6666666666666</ele><time>2026-03-30T09:05:11.687Z</time></trkpt><trkpt lat="42.9706467" lon="2.5525167"><ele>518.3333333333334</ele><time>2026-03-30T09:05:12.685Z</time></trkpt><trkpt lat="42.9705733" lon="2.5525167"><ele>518.0</ele><time>2026-03-30T09:05:13.687Z</time></trkpt><trkpt lat="42.9705017" lon="2.55254"><ele>517.6666666666667</ele><time>2026-03-30T09:05:14.687Z</time></trkpt><trkpt lat="42.970425" lon="2.552585"><ele>517.3333333333334</ele><time>2026-03-30T09:05:15.686Z</time></trkpt><trkpt lat="42.970335" lon="2.5526233"><ele>517.0</ele><time>2026-03-30T09:05:16.688Z</time></trkpt><trkpt lat="42.9702333" lon="2.5526467"><ele>517.0</ele><time>2026-03-30T09:05:17.686Z</time></trkpt><trkpt lat="42.97012" lon="2.55267"><ele>517.0</ele><time>2026-03-30T09:05:18.687Z</time></trkpt><trkpt lat="42.9700017" lon="2.5526883"><ele>517.0</ele><time>2026-03-30T09:05:19.689Z</time></trkpt><trkpt lat="42.9698767" lon="2.55269"><ele>517.0</ele><time>2026-03-30T09:05:20.687Z</time></trkpt><trkpt lat="42.969745" lon="2.5526733"><ele>517.5</ele><time>2026-03-30T09:05:21.686Z</time></trkpt><trkpt lat="42.969615" lon="2.55265"><ele>518.0</ele><time>2026-03-30T09:05:22.686Z</time></trkpt><trkpt lat="42.9694933" lon="2.5526267"><ele>518.5</ele><time>2026-03-30T09:05:23.686Z</time></trkpt><trkpt lat="42.9693767" lon="2.5525917"><ele>519.0</ele><time>2026-03-30T09:05:24.686Z</time></trkpt><trkpt lat="42.96926" lon="2.5525433"><ele>519.2</ele><time>2026-03-30T09:05:25.689Z</time></trkpt><trkpt lat="42.9691417" lon="2.552515"><ele>519.4</ele><time>2026-03-30T09:05:26.688Z</time></trkpt><trkpt lat="42.9690317" lon="2.5524983"><ele>519.6</ele><time>2026-03-30T09:05:27.686Z</time></trkpt><trkpt lat="42.96892" lon="2.5524833"><ele>519.8</ele><time>2026-03-30T09:05:28.69Z</time></trkpt><trkpt lat="42.9688167" lon="2.5524667"><ele>520.0</ele><time>2026-03-30T09:05:29.685Z</time></trkpt><trkpt lat="42.96872" lon="2.5524567"><ele>520.0</ele><time>2026-03-30T09:05:30.687Z</time></trkpt><trkpt lat="42.96863" lon="2.5524583"><ele>520.0</ele><time>2026-03-30T09:05:31.686Z</time></trkpt><trkpt lat="42.9685467" lon="2.5524683"><ele>520.0</ele><time>2026-03-30T09:05:32.687Z</time></trkpt><trkpt lat="42.96846" lon="2.5524883"><ele>520.0</ele><time>2026-03-30T09:05:33.686Z</time></trkpt><trkpt lat="42.9683933" lon="2.552555"><ele>520.0</ele><time>2026-03-30T09:05:34.687Z</time></trkpt><trkpt lat="42.9683467" lon="2.55264"><ele>520.0</ele><time>2026-03-30T09:05:35.685Z</time></trkpt><trkpt lat="42.96832" lon="2.55274"><ele>520.4</ele><time>2026-03-30T09:05:36.686Z</time></trkpt><trkpt lat="42.9683067" lon="2.5528383"><ele>520.8</ele><time>2026-03-30T09:05:37.686Z</time></trkpt><trkpt lat="42.9683083" lon="2.5529533"><ele>521.2</ele><time>2026-03-30T09:05:38.689Z</time></trkpt><trkpt lat="42.968335" lon="2.5530783"><ele>521.6</ele><time>2026-03-30T09:05:39.686Z</time></trkpt><trkpt lat="42.968375" lon="2.5532183"><ele>522.0</ele><time>2026-03-30T09:05:40.685Z</time></trkpt><trkpt lat="42.968415" lon="2.553365"><ele>519.75</ele><time>2026-03-30T09:05:41.687Z</time></trkpt><trkpt lat="42.9684617" lon="2.55352"><ele>517.5</ele><time>2026-03-30T09:05:42.685Z</time></trkpt><trkpt lat="42.968505" lon="2.5536817"><ele>515.25</ele><time>2026-03-30T09:05:43.687Z</time></trkpt><trkpt lat="42.96854" lon="2.5538517"><ele>513.0</ele><time>2026-03-30T09:05:44.687Z</time></trkpt><trkpt lat="42.9685683" lon="2.5540117"><ele>513.0</ele><time>2026-03-30T09:05:45.688Z</time></trkpt><trkpt lat="42.968605" lon="2.55417"><ele>513.0</ele><time>2026-03-30T09:05:46.685Z</time></trkpt><trkpt lat="42.9686583" lon="2.55433"><ele>513.0</ele><time>2026-03-30T09:05:47.688Z</time></trkpt><trkpt lat="42.968725" lon="2.5544767"><ele>513.0</ele><time>2026-03-30T09:05:48.689Z</time></trkpt><trkpt lat="42.968785" lon="2.5546183"><ele>515.1999999999999</ele><time>2026-03-30T09:05:49.687Z</time></trkpt><trkpt lat="42.9688317" lon="2.5547533"><ele>517.4</ele><time>2026-03-30T09:05:50.687Z</time></trkpt><trkpt lat="42.9688617" lon="2.5548733"><ele>519.5999999999999</ele><time>2026-03-30T09:05:51.689Z</time></trkpt><trkpt lat="42.9688733" lon="2.5549783"><ele>521.8</ele><time>2026-03-30T09:05:52.686Z</time></trkpt><trkpt lat="42.9688267" lon="2.55511"><ele>524.0</ele><time>2026-03-30T09:05:54.686Z</time></trkpt><trkpt lat="42.96876" lon="2.5551217"><ele>524.0</ele><time>2026-03-30T09:05:55.686Z</time></trkpt><trkpt lat="42.9686867" lon="2.5550633"><ele>524.0</ele><time>2026-03-30T09:05:56.687Z</time></trkpt><trkpt lat="42.9686117" lon="2.5549817"><ele>524.0</ele><time>2026-03-30T09:05:57.687Z</time></trkpt><trkpt lat="42.9685183" lon="2.5548833"><ele>524.0</ele><time>2026-03-30T09:05:58.688Z</time></trkpt><trkpt lat="42.9684267" lon="2.5547867"><ele>524.0</ele><time>2026-03-30T09:05:59.685Z</time></trkpt><trkpt lat="42.9683317" lon="2.5546683"><ele>524.5</ele><time>2026-03-30T09:06:00.685Z</time></trkpt><trkpt lat="42.968245" lon="2.5545317"><ele>525.0</ele><time>2026-03-30T09:06:01.686Z</time></trkpt><trkpt lat="42.9681667" lon="2.5543833"><ele>525.5</ele><time>2026-03-30T09:06:02.69Z</time></trkpt><trkpt lat="42.9680933" lon="2.55423"><ele>526.0</ele><time>2026-03-30T09:06:03.689Z</time></trkpt><trkpt lat="42.9680333" lon="2.5540783"><ele>526.0</ele><time>2026-03-30T09:06:04.687Z</time></trkpt><trkpt lat="42.9679917" lon="2.553925"><ele>526.0</ele><time>2026-03-30T09:06:05.688Z</time></trkpt><trkpt lat="42.9679683" lon="2.5537717"><ele>526.0</ele><time>2026-03-30T09:06:06.686Z</time></trkpt><trkpt lat="42.9679533" lon="2.55363"><ele>526.0</ele><time>2026-03-30T09:06:07.686Z</time></trkpt><trkpt lat="42.9679233" lon="2.55351"><ele>526.0</ele><time>2026-03-30T09:06:08.69Z</time></trkpt><trkpt lat="42.9678683" lon="2.5534183"><ele>525.0</ele><time>2026-03-30T09:06:09.687Z</time></trkpt><trkpt lat="42.967785" lon="2.5533367"><ele>524.0</ele><time>2026-03-30T09:06:10.688Z</time></trkpt><trkpt lat="42.9676867" lon="2.5532483"><ele>523.0</ele><time>2026-03-30T09:06:11.686Z</time></trkpt><trkpt lat="42.9675883" lon="2.55314"><ele>522.0</ele><time>2026-03-30T09:06:12.689Z</time></trkpt><trkpt lat="42.967495" lon="2.5530117"><ele>526.5</ele><time>2026-03-30T09:06:13.688Z</time></trkpt><trkpt lat="42.9674" lon="2.55288"><ele>531.0</ele><time>2026-03-30T09:06:14.688Z</time></trkpt><trkpt lat="42.96729" lon="2.5527583"><ele>535.5</ele><time>2026-03-30T09:06:15.687Z</time></trkpt><trkpt lat="42.9671717" lon="2.5526533"><ele>540.0</ele><time>2026-03-30T09:06:16.689Z</time></trkpt><trkpt lat="42.96704" lon="2.552565"><ele>540.0</ele><time>2026-03-30T09:06:17.686Z</time></trkpt><trkpt lat="42.966905" lon="2.5524833"><ele>540.0</ele><time>2026-03-30T09:06:18.687Z</time></trkpt><trkpt lat="42.9667767" lon="2.55239"><ele>540.0</ele><time>2026-03-30T09:06:19.686Z</time></trkpt><trkpt lat="42.9666567" lon="2.552285"><ele>540.0</ele><time>2026-03-30T09:06:20.686Z</time></trkpt><trkpt lat="42.96655" lon="2.5521867"><ele>541.75</ele><time>2026-03-30T09:06:21.686Z</time></trkpt><trkpt lat="42.9664433" lon="2.552115"><ele>543.5</ele><time>2026-03-30T09:06:22.687Z</time></trkpt><trkpt lat="42.9663333" lon="2.5520717"><ele>545.25</ele><time>2026-03-30T09:06:23.687Z</time></trkpt><trkpt lat="42.966215" lon="2.5520733"><ele>547.0</ele><time>2026-03-30T09:06:24.687Z</time></trkpt><trkpt lat="42.9661" lon="2.5520917"><ele>547.0</ele><time>2026-03-30T09:06:25.685Z</time></trkpt><trkpt lat="42.9659983" lon="2.5521117"><ele>547.0</ele><time>2026-03-30T09:06:26.687Z</time></trkpt><trkpt lat="42.965905" lon="2.552115"><ele>547.0</ele><time>2026-03-30T09:06:27.685Z</time></trkpt><trkpt lat="42.9658167" lon="2.5521117"><ele>547.0</ele><time>2026-03-30T09:06:28.686Z</time></trkpt><trkpt lat="42.9657517" lon="2.5520733"><ele>547.0</ele><time>2026-03-30T09:06:29.686Z</time></trkpt><trkpt lat="42.9657" lon="2.55197"><ele>547.0</ele><time>2026-03-30T09:06:30.688Z</time></trkpt><trkpt lat="42.9656517" lon="2.5518567"><ele>548.75</ele><time>2026-03-30T09:06:31.686Z</time></trkpt><trkpt lat="42.9656033" lon="2.5516867"><ele>550.5</ele><time>2026-03-30T09:06:32.686Z</time></trkpt><trkpt lat="42.9655533" lon="2.5515133"><ele>552.25</ele><time>2026-03-30T09:06:33.687Z</time></trkpt><trkpt lat="42.9655117" lon="2.5513367"><ele>554.0</ele><time>2026-03-30T09:06:34.686Z</time></trkpt><trkpt lat="42.9654717" lon="2.55116"><ele>556.25</ele><time>2026-03-30T09:06:35.685Z</time></trkpt><trkpt lat="42.9654183" lon="2.551"><ele>558.5</ele><time>2026-03-30T09:06:36.688Z</time></trkpt><trkpt lat="42.9653667" lon="2.55086"><ele>560.75</ele><time>2026-03-30T09:06:37.686Z</time></trkpt><trkpt lat="42.96532" lon="2.5507267"><ele>563.0</ele><time>2026-03-30T09:06:38.686Z</time></trkpt><trkpt lat="42.9652817" lon="2.5505967"><ele>563.0</ele><time>2026-03-30T09:06:39.685Z</time></trkpt><trkpt lat="42.96523" lon="2.5504817"><ele>563.0</ele><time>2026-03-30T09:06:40.687Z</time></trkpt><trkpt lat="42.9651617" lon="2.5504"><ele>563.0</ele><time>2026-03-30T09:06:41.686Z</time></trkpt><trkpt lat="42.96508" lon="2.5503517"><ele>563.0</ele><time>2026-03-30T09:06:42.685Z</time></trkpt><trkpt lat="42.9649867" lon="2.55033"><ele>563.0</ele><time>2026-03-30T09:06:43.687Z</time></trkpt><trkpt lat="42.9648817" lon="2.5503283"><ele>562.0</ele><time>2026-03-30T09:06:44.689Z</time></trkpt><trkpt lat="42.96477" lon="2.5503183"><ele>561.0</ele><time>2026-03-30T09:06:45.686Z</time></trkpt><trkpt lat="42.9646667" lon="2.55028"><ele>560.0</ele><time>2026-03-30T09:06:46.685Z</time></trkpt><trkpt lat="42.964575" lon="2.5502083"><ele>559.0</ele><time>2026-03-30T09:06:47.685Z</time></trkpt><trkpt lat="42.9644983" lon="2.5501033"><ele>558.0</ele><time>2026-03-30T09:06:48.685Z</time></trkpt><trkpt lat="42.96444" lon="2.5499633"><ele>558.0</ele><time>2026-03-30T09:06:49.686Z</time></trkpt><trkpt lat="42.964385" lon="2.5498033"><ele>558.0</ele><time>2026-03-30T09:06:50.687Z</time></trkpt><trkpt lat="42.96432" lon="2.54965"><ele>558.0</ele><time>2026-03-30T09:06:51.687Z</time></trkpt><trkpt lat="42.96425" lon="2.5495133"><ele>558.0</ele><time>2026-03-30T09:06:52.687Z</time></trkpt><trkpt lat="42.9641867" lon="2.5493867"><ele>556.8</ele><time>2026-03-30T09:06:53.687Z</time></trkpt><trkpt lat="42.9641317" lon="2.5492717"><ele>555.5999999999999</ele><time>2026-03-30T09:06:54.685Z</time></trkpt><trkpt lat="42.964075" lon="2.5491733"><ele>554.4000000000001</ele><time>2026-03-30T09:06:55.686Z</time></trkpt><trkpt lat="42.9640183" lon="2.5490933"><ele>553.2</ele><time>2026-03-30T09:06:56.687Z</time></trkpt><trkpt lat="42.96394" lon="2.5490383"><ele>552.0</ele><time>2026-03-30T09:06:57.689Z</time></trkpt><trkpt lat="42.96385" lon="2.5490183"><ele>552.0</ele><time>2026-03-30T09:06:58.687Z</time></trkpt><trkpt lat="42.9637517" lon="2.549015"><ele>552.0</ele><time>2026-03-30T09:06:59.686Z</time></trkpt><trkpt lat="42.9636517" lon="2.5490467"><ele>552.0</ele><time>2026-03-30T09:07:00.689Z</time></trkpt><trkpt lat="42.96356" lon="2.5491167"><ele>552.0</ele><time>2026-03-30T09:07:01.687Z</time></trkpt><trkpt lat="42.9634717" lon="2.549215"><ele>552.0</ele><time>2026-03-30T09:07:02.687Z</time></trkpt><trkpt lat="42.963385" lon="2.5493167"><ele>551.4</ele><time>2026-03-30T09:07:03.687Z</time></trkpt><trkpt lat="42.9632917" lon="2.5494033"><ele>550.8000000000001</ele><time>2026-03-30T09:07:04.687Z</time></trkpt><trkpt lat="42.963195" lon="2.5494783"><ele>550.2</ele><time>2026-03-30T09:07:05.688Z</time></trkpt><trkpt lat="42.9630967" lon="2.54954"><ele>549.6</ele><time>2026-03-30T09:07:06.686Z</time></trkpt><trkpt lat="42.9630033" lon="2.5495783"><ele>549.0</ele><time>2026-03-30T09:07:07.687Z</time></trkpt><trkpt lat="42.962915" lon="2.5495867"><ele>549.0</ele><time>2026-03-30T09:07:08.686Z</time></trkpt><trkpt lat="42.9628333" lon="2.5495667"><ele>549.0</ele><time>2026-03-30T09:07:09.685Z</time></trkpt><trkpt lat="42.9627533" lon="2.549515"><ele>549.0</ele><time>2026-03-30T09:07:10.687Z</time></trkpt><trkpt lat="42.96268" lon="2.5494217"><ele>549.0</ele><time>2026-03-30T09:07:11.686Z</time></trkpt><trkpt lat="42.9626033" lon="2.54931"><ele>549.0</ele><time>2026-03-30T09:07:12.686Z</time></trkpt><trkpt lat="42.9625067" lon="2.5492083"><ele>548.5</ele><time>2026-03-30T09:07:13.685Z</time></trkpt><trkpt lat="42.96239" lon="2.549115"><ele>548.0</ele><time>2026-03-30T09:07:14.687Z</time></trkpt><trkpt lat="42.9622667" lon="2.549025"><ele>547.5</ele><time>2026-03-30T09:07:15.686Z</time></trkpt><trkpt lat="42.9621517" lon="2.5489383"><ele>547.0</ele><time>2026-03-30T09:07:16.688Z</time></trkpt><trkpt lat="42.962045" lon="2.5488533"><ele>547.0</ele><time>2026-03-30T09:07:17.686Z</time></trkpt><trkpt lat="42.9619467" lon="2.5487733"><ele>547.0</ele><time>2026-03-30T09:07:18.685Z</time></trkpt><trkpt lat="42.9618583" lon="2.54873"><ele>547.0</ele><time>2026-03-30T09:07:19.687Z</time></trkpt><trkpt lat="42.96177" lon="2.5487183"><ele>547.0</ele><time>2026-03-30T09:07:20.687Z</time></trkpt><trkpt lat="42.9616983" lon="2.5487017"><ele>547.0</ele><time>2026-03-30T09:07:21.686Z</time></trkpt><trkpt lat="42.9616" lon="2.5486583"><ele>545.4</ele><time>2026-03-30T09:07:23.686Z</time></trkpt><trkpt lat="42.96155" lon="2.548795"><ele>543.8000000000001</ele><time>2026-03-30T09:07:58.687Z</time></trkpt><trkpt lat="42.961555" lon="2.548885"><ele>542.2</ele><time>2026-03-30T09:07:59.685Z</time></trkpt><trkpt lat="42.9615733" lon="2.5489967"><ele>540.6</ele><time>2026-03-30T09:08:00.686Z</time></trkpt><trkpt lat="42.9616" lon="2.5491183"><ele>539.0</ele><time>2026-03-30T09:08:01.688Z</time></trkpt><trkpt lat="42.9616267" lon="2.549255"><ele>539.0</ele><time>2026-03-30T09:08:02.685Z</time></trkpt><trkpt lat="42.9616483" lon="2.5494067"><ele>539.0</ele><time>2026-03-30T09:08:03.685Z</time></trkpt><trkpt lat="42.9616667" lon="2.5495717"><ele>539.0</ele><time>2026-03-30T09:08:04.686Z</time></trkpt><trkpt lat="42.96168" lon="2.5497467"><ele>539.0</ele><time>2026-03-30T09:08:05.688Z</time></trkpt><trkpt lat="42.9616917" lon="2.5499283"><ele>540.5</ele><time>2026-03-30T09:08:06.685Z</time></trkpt><trkpt lat="42.9617117" lon="2.550115"><ele>542.0</ele><time>2026-03-30T09:08:07.686Z</time></trkpt><trkpt lat="42.9617533" lon="2.5502983"><ele>543.5</ele><time>2026-03-30T09:08:08.687Z</time></trkpt><trkpt lat="42.9618117" lon="2.5504717"><ele>545.0</ele><time>2026-03-30T09:08:09.685Z</time></trkpt><trkpt lat="42.9618833" lon="2.55064"><ele>545.0</ele><time>2026-03-30T09:08:10.685Z</time></trkpt><trkpt lat="42.9619567" lon="2.5508183"><ele>545.0</ele><time>2026-03-30T09:08:11.686Z</time></trkpt><trkpt lat="42.96202" lon="2.5510017"><ele>545.0</ele><time>2026-03-30T09:08:12.685Z</time></trkpt><trkpt lat="42.96207" lon="2.5511983"><ele>543.0</ele><time>2026-03-30T09:08:13.685Z</time></trkpt><trkpt lat="42.96211" lon="2.5513983"><ele>541.0</ele><time>2026-03-30T09:08:14.686Z</time></trkpt><trkpt lat="42.962155" lon="2.5515967"><ele>539.0</ele><time>2026-03-30T09:08:15.686Z</time></trkpt><trkpt lat="42.962205" lon="2.5517967"><ele>539.0</ele><time>2026-03-30T09:08:16.689Z</time></trkpt><trkpt lat="42.9622617" lon="2.552"><ele>539.0</ele><time>2026-03-30T09:08:17.685Z</time></trkpt><trkpt lat="42.9623167" lon="2.5522"><ele>539.0</ele><time>2026-03-30T09:08:18.686Z</time></trkpt><trkpt lat="42.9623683" lon="2.5524033"><ele>535.6666666666666</ele><time>2026-03-30T09:08:19.685Z</time></trkpt><trkpt lat="42.962405" lon="2.552615"><ele>532.3333333333334</ele><time>2026-03-30T09:08:20.686Z</time></trkpt><trkpt lat="42.96242" lon="2.552825"><ele>529.0</ele><time>2026-03-30T09:08:21.685Z</time></trkpt><trkpt lat="42.9624133" lon="2.553035"><ele>528.6666666666667</ele><time>2026-03-30T09:08:22.685Z</time></trkpt><trkpt lat="42.9623883" lon="2.5532433"><ele>528.3333333333334</ele><time>2026-03-30T09:08:23.687Z</time></trkpt><trkpt lat="42.9623517" lon="2.5534483"><ele>528.0</ele><time>2026-03-30T09:08:24.687Z</time></trkpt><trkpt lat="42.962315" lon="2.5536533"><ele>528.0</ele><time>2026-03-30T09:08:25.686Z</time></trkpt><trkpt lat="42.96228" lon="2.553855"><ele>528.0</ele><time>2026-03-30T09:08:26.688Z</time></trkpt><trkpt lat="42.9622567" lon="2.5540567"><ele>528.0</ele><time>2026-03-30T09:08:27.686Z</time></trkpt><trkpt lat="42.96225" lon="2.5542617"><ele>528.0</ele><time>2026-03-30T09:08:28.685Z</time></trkpt><trkpt lat="42.9622617" lon="2.5544733"><ele>528.0</ele><time>2026-03-30T09:08:29.687Z</time></trkpt><trkpt lat="42.9622883" lon="2.5546883"><ele>528.0</ele><time>2026-03-30T09:08:30.685Z</time></trkpt><trkpt lat="42.9623217" lon="2.5549033"><ele>526.3333333333334</ele><time>2026-03-30T09:08:31.687Z</time></trkpt><trkpt lat="42.9623467" lon="2.5551167"><ele>524.6666666666667</ele><time>2026-03-30T09:08:32.687Z</time></trkpt><trkpt lat="42.9623567" lon="2.55533"><ele>523.0</ele><time>2026-03-30T09:08:33.686Z</time></trkpt><trkpt lat="42.9623417" lon="2.55554"><ele>523.0</ele><time>2026-03-30T09:08:34.686Z</time></trkpt><trkpt lat="42.9622967" lon="2.555745"><ele>523.0</ele><time>2026-03-30T09:08:35.686Z</time></trkpt><trkpt lat="42.9622367" lon="2.5559467"><ele>523.0</ele><time>2026-03-30T09:08:36.688Z</time></trkpt><trkpt lat="42.96217" lon="2.55615"><ele>523.3333333333334</ele><time>2026-03-30T09:08:37.686Z</time></trkpt><trkpt lat="42.9621017" lon="2.5563567"><ele>523.6666666666666</ele><time>2026-03-30T09:08:38.686Z</time></trkpt><trkpt lat="42.9620317" lon="2.556565"><ele>524.0</ele><time>2026-03-30T09:08:39.685Z</time></trkpt><trkpt lat="42.96196" lon="2.556775"><ele>524.0</ele><time>2026-03-30T09:08:40.685Z</time></trkpt><trkpt lat="42.96189" lon="2.5569817"><ele>524.0</ele><time>2026-03-30T09:08:41.685Z</time></trkpt><trkpt lat="42.9618267" lon="2.55718"><ele>524.0</ele><time>2026-03-30T09:08:42.687Z</time></trkpt><trkpt lat="42.9617633" lon="2.5573717"><ele>520.3333333333333</ele><time>2026-03-30T09:08:43.689Z</time></trkpt><trkpt lat="42.9616983" lon="2.5575583"><ele>516.6666666666666</ele><time>2026-03-30T09:08:44.686Z</time></trkpt><trkpt lat="42.9616317" lon="2.5577433"><ele>513.0</ele><time>2026-03-30T09:08:45.688Z</time></trkpt><trkpt lat="42.9615633" lon="2.55793"><ele>513.0</ele><time>2026-03-30T09:08:46.686Z</time></trkpt><trkpt lat="42.96149" lon="2.5581117"><ele>513.0</ele><time>2026-03-30T09:08:47.688Z</time></trkpt><trkpt lat="42.9614083" lon="2.5582883"><ele>513.0</ele><time>2026-03-30T09:08:48.688Z</time></trkpt><trkpt lat="42.9613183" lon="2.5584483"><ele>513.0</ele><time>2026-03-30T09:08:49.686Z</time></trkpt><trkpt lat="42.9612233" lon="2.5585983"><ele>513.0</ele><time>2026-03-30T09:08:50.687Z</time></trkpt><trkpt lat="42.9611317" lon="2.5587433"><ele>513.0</ele><time>2026-03-30T09:08:51.686Z</time></trkpt><trkpt lat="42.9610583" lon="2.5589017"><ele>513.0</ele><time>2026-03-30T09:08:52.686Z</time></trkpt><trkpt lat="42.9610133" lon="2.5590817"><ele>512.0</ele><time>2026-03-30T09:08:53.687Z</time></trkpt><trkpt lat="42.961" lon="2.55928"><ele>511.0</ele><time>2026-03-30T09:08:54.686Z</time></trkpt><trkpt lat="42.9610117" lon="2.559485"><ele>510.0</ele><time>2026-03-30T09:08:55.686Z</time></trkpt><trkpt lat="42.961035" lon="2.559695"><ele>510.0</ele><time>2026-03-30T09:08:56.688Z</time></trkpt><trkpt lat="42.9610483" lon="2.5599083"><ele>510.0</ele><time>2026-03-30T09:08:57.685Z</time></trkpt><trkpt lat="42.9610433" lon="2.5601267"><ele>510.0</ele><time>2026-03-30T09:08:58.687Z</time></trkpt><trkpt lat="42.9610267" lon="2.5603467"><ele>505.33333333333337</ele><time>2026-03-30T09:08:59.685Z</time></trkpt><trkpt lat="42.9610083" lon="2.560565"><ele>500.6666666666667</ele><time>2026-03-30T09:09:00.687Z</time></trkpt><trkpt lat="42.9610033" lon="2.56078"><ele>496.0</ele><time>2026-03-30T09:09:01.685Z</time></trkpt><trkpt lat="42.9610117" lon="2.5609883"><ele>496.0</ele><time>2026-03-30T09:09:02.685Z</time></trkpt><trkpt lat="42.9610183" lon="2.56119"><ele>496.0</ele><time>2026-03-30T09:09:03.686Z</time></trkpt><trkpt lat="42.96101" lon="2.561385"><ele>496.0</ele><time>2026-03-30T09:09:04.688Z</time></trkpt><trkpt lat="42.96097" lon="2.5615683"><ele>496.0</ele><time>2026-03-30T09:09:05.685Z</time></trkpt><trkpt lat="42.9608983" lon="2.5617283"><ele>492.0</ele><time>2026-03-30T09:09:06.685Z</time></trkpt><trkpt lat="42.9608033" lon="2.5618683"><ele>488.0</ele><time>2026-03-30T09:09:07.688Z</time></trkpt><trkpt lat="42.960695" lon="2.5619917"><ele>484.0</ele><time>2026-03-30T09:09:08.688Z</time></trkpt><trkpt lat="42.9605767" lon="2.5621"><ele>480.0</ele><time>2026-03-30T09:09:09.687Z</time></trkpt><trkpt lat="42.9604533" lon="2.562205"><ele>479.0</ele><time>2026-03-30T09:09:10.685Z</time></trkpt><trkpt lat="42.9603267" lon="2.5623067"><ele>478.0</ele><time>2026-03-30T09:09:11.685Z</time></trkpt><trkpt lat="42.960195" lon="2.5624"><ele>477.0</ele><time>2026-03-30T09:09:12.686Z</time></trkpt><trkpt lat="42.9600583" lon="2.5624767"><ele>476.0</ele><time>2026-03-30T09:09:13.689Z</time></trkpt><trkpt lat="42.9599183" lon="2.5625367"><ele>474.5</ele><time>2026-03-30T09:09:14.686Z</time></trkpt><trkpt lat="42.9597733" lon="2.5625783"><ele>473.0</ele><time>2026-03-30T09:09:15.685Z</time></trkpt><trkpt lat="42.9596267" lon="2.5626067"><ele>471.5</ele><time>2026-03-30T09:09:16.686Z</time></trkpt><trkpt lat="42.9594767" lon="2.562625"><ele>470.0</ele><time>2026-03-30T09:09:17.685Z</time></trkpt><trkpt lat="42.9593267" lon="2.5626317"><ele>469.5</ele><time>2026-03-30T09:09:18.685Z</time></trkpt><trkpt lat="42.959175" lon="2.5626367"><ele>469.0</ele><time>2026-03-30T09:09:19.686Z</time></trkpt><trkpt lat="42.959025" lon="2.56265"><ele>468.5</ele><time>2026-03-30T09:09:20.688Z</time></trkpt><trkpt lat="42.9588833" lon="2.5626633"><ele>468.0</ele><time>2026-03-30T09:09:21.684Z</time></trkpt><trkpt lat="42.9587517" lon="2.5626767"><ele>468.0</ele><time>2026-03-30T09:09:22.686Z</time></trkpt><trkpt lat="42.9586233" lon="2.5626833"><ele>468.0</ele><time>2026-03-30T09:09:23.686Z</time></trkpt><trkpt lat="42.9584983" lon="2.5627"><ele>468.0</ele><time>2026-03-30T09:09:24.686Z</time></trkpt><trkpt lat="42.9583717" lon="2.5627233"><ele>468.0</ele><time>2026-03-30T09:09:25.687Z</time></trkpt><trkpt lat="42.9582433" lon="2.5627467"><ele>467.75</ele><time>2026-03-30T09:09:26.687Z</time></trkpt><trkpt lat="42.95811" lon="2.5627833"><ele>467.5</ele><time>2026-03-30T09:09:27.685Z</time></trkpt><trkpt lat="42.9579733" lon="2.5628183"><ele>467.25</ele><time>2026-03-30T09:09:28.685Z</time></trkpt><trkpt lat="42.9578333" lon="2.5628617"><ele>467.0</ele><time>2026-03-30T09:09:29.686Z</time></trkpt><trkpt lat="42.95769" lon="2.5629083"><ele>466.5</ele><time>2026-03-30T09:09:30.685Z</time></trkpt><trkpt lat="42.9575483" lon="2.5629633"><ele>466.0</ele><time>2026-03-30T09:09:31.686Z</time></trkpt><trkpt lat="42.9574167" lon="2.563015"><ele>465.5</ele><time>2026-03-30T09:09:32.687Z</time></trkpt><trkpt lat="42.9572833" lon="2.563065"><ele>465.0</ele><time>2026-03-30T09:09:33.685Z</time></trkpt><trkpt lat="42.9571517" lon="2.56311"><ele>464.5</ele><time>2026-03-30T09:09:34.688Z</time></trkpt><trkpt lat="42.9570217" lon="2.5631617"><ele>464.0</ele><time>2026-03-30T09:09:35.687Z</time></trkpt><trkpt lat="42.9569033" lon="2.5632033"><ele>463.5</ele><time>2026-03-30T09:09:36.687Z</time></trkpt><trkpt lat="42.9567917" lon="2.5632417"><ele>463.0</ele><time>2026-03-30T09:09:37.688Z</time></trkpt><trkpt lat="42.9566867" lon="2.5632767"><ele>462.59999999999997</ele><time>2026-03-30T09:09:38.685Z</time></trkpt><trkpt lat="42.956585" lon="2.5633133"><ele>462.19999999999993</ele><time>2026-03-30T09:09:39.685Z</time></trkpt><trkpt lat="42.9564833" lon="2.5633517"><ele>461.8</ele><time>2026-03-30T09:09:40.686Z</time></trkpt><trkpt lat="42.95638" lon="2.563395"><ele>461.4</ele><time>2026-03-30T09:09:41.685Z</time></trkpt><trkpt lat="42.95628" lon="2.5634417"><ele>461.0</ele><time>2026-03-30T09:09:42.686Z</time></trkpt><trkpt lat="42.9561883" lon="2.5634917"><ele>461.0</ele><time>2026-03-30T09:09:43.687Z</time></trkpt><trkpt lat="42.9561" lon="2.5635433"><ele>461.0</ele><time>2026-03-30T09:09:44.686Z</time></trkpt><trkpt lat="42.956015" lon="2.56361"><ele>461.0</ele><time>2026-03-30T09:09:45.687Z</time></trkpt><trkpt lat="42.955935" lon="2.56369"><ele>461.0</ele><time>2026-03-30T09:09:46.685Z</time></trkpt><trkpt lat="42.955865" lon="2.56379"><ele>461.0</ele><time>2026-03-30T09:09:47.689Z</time></trkpt><trkpt lat="42.95581" lon="2.5638967"><ele>460.6</ele><time>2026-03-30T09:09:48.686Z</time></trkpt><trkpt lat="42.9557667" lon="2.5640033"><ele>460.20000000000005</ele><time>2026-03-30T09:09:49.687Z</time></trkpt><trkpt lat="42.9557317" lon="2.5641017"><ele>459.79999999999995</ele><time>2026-03-30T09:09:50.686Z</time></trkpt><trkpt lat="42.9557033" lon="2.5641867"><ele>459.4</ele><time>2026-03-30T09:09:51.685Z</time></trkpt><trkpt lat="42.9556233" lon="2.5642983"><ele>459.0</ele><time>2026-03-30T09:09:53.686Z</time></trkpt><trkpt lat="42.9555183" lon="2.56425"><ele>459.0</ele><time>2026-03-30T09:09:55.687Z</time></trkpt><trkpt lat="42.9554633" lon="2.56418"><ele>459.0</ele><time>2026-03-30T09:09:56.686Z</time></trkpt><trkpt lat="42.9553917" lon="2.5641183"><ele>459.0</ele><time>2026-03-30T09:09:57.687Z</time></trkpt><trkpt lat="42.955315" lon="2.5640583"><ele>459.0</ele><time>2026-03-30T09:09:58.686Z</time></trkpt><trkpt lat="42.9552317" lon="2.563995"><ele>459.0</ele><time>2026-03-30T09:09:59.685Z</time></trkpt><trkpt lat="42.95514" lon="2.5639483"><ele>459.0</ele><time>2026-03-30T09:10:00.686Z</time></trkpt><trkpt lat="42.955035" lon="2.5639217"><ele>459.6</ele><time>2026-03-30T09:10:01.685Z</time></trkpt><trkpt lat="42.95493" lon="2.5639167"><ele>460.2</ele><time>2026-03-30T09:10:02.686Z</time></trkpt><trkpt lat="42.954825" lon="2.56392"><ele>460.80000000000007</ele><time>2026-03-30T09:10:03.685Z</time></trkpt><trkpt lat="42.9547183" lon="2.563915"><ele>461.40000000000003</ele><time>2026-03-30T09:10:04.686Z</time></trkpt><trkpt lat="42.9546083" lon="2.5638817"><ele>462.0</ele><time>2026-03-30T09:10:05.685Z</time></trkpt><trkpt lat="42.954505" lon="2.5638117"><ele>462.0</ele><time>2026-03-30T09:10:06.686Z</time></trkpt><trkpt lat="42.9544167" lon="2.563705"><ele>462.0</ele><time>2026-03-30T09:10:07.687Z</time></trkpt><trkpt lat="42.9543417" lon="2.5635783"><ele>462.0</ele><time>2026-03-30T09:10:08.687Z</time></trkpt><trkpt lat="42.954275" lon="2.5634367"><ele>462.0</ele><time>2026-03-30T09:10:09.687Z</time></trkpt><trkpt lat="42.954205" lon="2.5633017"><ele>461.0</ele><time>2026-03-30T09:10:10.685Z</time></trkpt><trkpt lat="42.954125" lon="2.56318"><ele>460.0</ele><time>2026-03-30T09:10:11.688Z</time></trkpt><trkpt lat="42.9540283" lon="2.5630667"><ele>459.0</ele><time>2026-03-30T09:10:12.686Z</time></trkpt><trkpt lat="42.9539267" lon="2.5629533"><ele>458.0</ele><time>2026-03-30T09:10:13.688Z</time></trkpt><trkpt lat="42.9538233" lon="2.5628417"><ele>458.0</ele><time>2026-03-30T09:10:14.685Z</time></trkpt><trkpt lat="42.953715" lon="2.5627483"><ele>458.0</ele><time>2026-03-30T09:10:15.689Z</time></trkpt><trkpt lat="42.9536017" lon="2.5626867"><ele>458.0</ele><time>2026-03-30T09:10:16.685Z</time></trkpt><trkpt lat="42.953485" lon="2.5626683"><ele>458.0</ele><time>2026-03-30T09:10:17.687Z</time></trkpt><trkpt lat="42.9533667" lon="2.56269"><ele>458.0</ele><time>2026-03-30T09:10:18.686Z</time></trkpt><trkpt lat="42.953255" lon="2.5627483"><ele>458.0</ele><time>2026-03-30T09:10:19.687Z</time></trkpt><trkpt lat="42.9531517" lon="2.56284"><ele>458.0</ele><time>2026-03-30T09:10:20.687Z</time></trkpt><trkpt lat="42.95305" lon="2.5629467"><ele>458.0</ele><time>2026-03-30T09:10:21.686Z</time></trkpt><trkpt lat="42.952945" lon="2.5630583"><ele>460.25</ele><time>2026-03-30T09:10:22.685Z</time></trkpt><trkpt lat="42.9528367" lon="2.5631617"><ele>462.5</ele><time>2026-03-30T09:10:23.686Z</time></trkpt><trkpt lat="42.95272" lon="2.56325"><ele>464.75</ele><time>2026-03-30T09:10:24.685Z</time></trkpt><trkpt lat="42.9526" lon="2.5633283"><ele>467.0</ele><time>2026-03-30T09:10:25.685Z</time></trkpt><trkpt lat="42.9524833" lon="2.5634217"><ele>467.0</ele><time>2026-03-30T09:10:26.687Z</time></trkpt><trkpt lat="42.952385" lon="2.5635383"><ele>467.0</ele><time>2026-03-30T09:10:27.685Z</time></trkpt><trkpt lat="42.9522983" lon="2.56368"><ele>467.0</ele><time>2026-03-30T09:10:28.685Z</time></trkpt><trkpt lat="42.9522117" lon="2.5638233"><ele>467.0</ele><time>2026-03-30T09:10:29.686Z</time></trkpt><trkpt lat="42.9521167" lon="2.56396"><ele>467.25</ele><time>2026-03-30T09:10:30.687Z</time></trkpt><trkpt lat="42.9520167" lon="2.5640783"><ele>467.5</ele><time>2026-03-30T09:10:31.684Z</time></trkpt><trkpt lat="42.951915" lon="2.5641783"><ele>467.75</ele><time>2026-03-30T09:10:32.687Z</time></trkpt><trkpt lat="42.951805" lon="2.5642567"><ele>468.0</ele><time>2026-03-30T09:10:33.684Z</time></trkpt><trkpt lat="42.9516917" lon="2.56431"><ele>468.0</ele><time>2026-03-30T09:10:34.685Z</time></trkpt><trkpt lat="42.951575" lon="2.5642967"><ele>468.0</ele><time>2026-03-30T09:10:35.684Z</time></trkpt><trkpt lat="42.95146" lon="2.5642483"><ele>468.0</ele><time>2026-03-30T09:10:36.686Z</time></trkpt><trkpt lat="42.951345" lon="2.5641867"><ele>468.0</ele><time>2026-03-30T09:10:37.686Z</time></trkpt><trkpt lat="42.9512333" lon="2.5641433"><ele>468.0</ele><time>2026-03-30T09:10:38.687Z</time></trkpt><trkpt lat="42.9511233" lon="2.564115"><ele>467.99999999999994</ele><time>2026-03-30T09:10:39.688Z</time></trkpt><trkpt lat="42.95102" lon="2.5641033"><ele>467.99999999999994</ele><time>2026-03-30T09:10:40.688Z</time></trkpt><trkpt lat="42.9509167" lon="2.5641117"><ele>468.0</ele><time>2026-03-30T09:10:41.685Z</time></trkpt><trkpt lat="42.9508183" lon="2.5641467"><ele>468.0</ele><time>2026-03-30T09:10:42.685Z</time></trkpt><trkpt lat="42.950725" lon="2.564195"><ele>469.0</ele><time>2026-03-30T09:10:43.686Z</time></trkpt><trkpt lat="42.9506433" lon="2.5642783"><ele>470.0</ele><time>2026-03-30T09:10:44.687Z</time></trkpt><trkpt lat="42.95057" lon="2.5643617"><ele>471.0</ele><time>2026-03-30T09:10:45.684Z</time></trkpt><trkpt lat="42.9505033" lon="2.5644267"><ele>472.0</ele><time>2026-03-30T09:10:46.684Z</time></trkpt><trkpt lat="42.9504417" lon="2.5644883"><ele>473.0</ele><time>2026-03-30T09:10:47.687Z</time></trkpt><trkpt lat="42.9503817" lon="2.5645333"><ele>474.0</ele><time>2026-03-30T09:10:48.687Z</time></trkpt><trkpt lat="42.95032" lon="2.5645733"><ele>476.1666666666667</ele><time>2026-03-30T09:10:49.686Z</time></trkpt><trkpt lat="42.9502283" lon="2.5646717"><ele>478.33333333333337</ele><time>2026-03-30T09:10:51.688Z</time></trkpt><trkpt lat="42.9501917" lon="2.5647433"><ele>480.5</ele><time>2026-03-30T09:10:52.686Z</time></trkpt><trkpt lat="42.950175" lon="2.564835"><ele>482.6666666666667</ele><time>2026-03-30T09:10:53.687Z</time></trkpt><trkpt lat="42.9502" lon="2.5649517"><ele>484.83333333333337</ele><time>2026-03-30T09:10:54.686Z</time></trkpt><trkpt lat="42.95023" lon="2.5650717"><ele>487.0</ele><time>2026-03-30T09:10:55.686Z</time></trkpt><trkpt lat="42.9502517" lon="2.565195"><ele>487.00000000000006</ele><time>2026-03-30T09:10:56.685Z</time></trkpt><trkpt lat="42.950255" lon="2.5653183"><ele>487.0</ele><time>2026-03-30T09:10:57.687Z</time></trkpt><trkpt lat="42.9502467" lon="2.56544"><ele>487.0</ele><time>2026-03-30T09:10:58.686Z</time></trkpt><trkpt lat="42.95023" lon="2.5655583"><ele>487.0</ele><time>2026-03-30T09:10:59.685Z</time></trkpt><trkpt lat="42.9502083" lon="2.565655"><ele>487.00000000000006</ele><time>2026-03-30T09:11:00.684Z</time></trkpt><trkpt lat="42.9501783" lon="2.5657667"><ele>487.0</ele><time>2026-03-30T09:11:01.688Z</time></trkpt><trkpt lat="42.95014" lon="2.5658733"><ele>487.6</ele><time>2026-03-30T09:11:02.685Z</time></trkpt><trkpt lat="42.9500917" lon="2.5659783"><ele>488.20000000000005</ele><time>2026-03-30T09:11:03.686Z</time></trkpt><trkpt lat="42.9500317" lon="2.566075"><ele>488.8</ele><time>2026-03-30T09:11:04.686Z</time></trkpt><trkpt lat="42.9499517" lon="2.5661483"><ele>489.4</ele><time>2026-03-30T09:11:05.688Z</time></trkpt><trkpt lat="42.949865" lon="2.5662217"><ele>490.0</ele><time>2026-03-30T09:11:06.687Z</time></trkpt><trkpt lat="42.9497667" lon="2.5662967"><ele>492.4</ele><time>2026-03-30T09:11:07.687Z</time></trkpt><trkpt lat="42.949665" lon="2.5663667"><ele>494.8</ele><time>2026-03-30T09:11:08.687Z</time></trkpt><trkpt lat="42.9495633" lon="2.5664383"><ele>497.20000000000005</ele><time>2026-03-30T09:11:09.685Z</time></trkpt><trkpt lat="42.9494717" lon="2.5665083"><ele>499.6</ele><time>2026-03-30T09:11:10.686Z</time></trkpt><trkpt lat="42.949395" lon="2.5665683"><ele>502.0</ele><time>2026-03-30T09:11:11.685Z</time></trkpt><trkpt lat="42.949325" lon="2.5666333"><ele>502.0</ele><time>2026-03-30T09:11:12.685Z</time></trkpt><trkpt lat="42.9492633" lon="2.5667033"><ele>502.00000000000006</ele><time>2026-03-30T09:11:13.685Z</time></trkpt><trkpt lat="42.9492233" lon="2.5667733"><ele>502.00000000000006</ele><time>2026-03-30T09:11:14.687Z</time></trkpt><trkpt lat="42.9492267" lon="2.56693"><ele>502.0</ele><time>2026-03-30T09:11:16.686Z</time></trkpt><trkpt lat="42.9492933" lon="2.5670917"><ele>502.0</ele><time>2026-03-30T09:11:18.685Z</time></trkpt><trkpt lat="42.9493483" lon="2.5671617"><ele>504.1666666666667</ele><time>2026-03-30T09:11:19.686Z</time></trkpt><trkpt lat="42.9494133" lon="2.5672083"><ele>506.33333333333337</ele><time>2026-03-30T09:11:20.69Z</time></trkpt><trkpt lat="42.94948" lon="2.56723"><ele>508.5</ele><time>2026-03-30T09:11:21.686Z</time></trkpt><trkpt lat="42.94955" lon="2.5672267"><ele>510.66666666666663</ele><time>2026-03-30T09:11:22.685Z</time></trkpt><trkpt lat="42.949625" lon="2.5672033"><ele>512.8333333333333</ele><time>2026-03-30T09:11:23.686Z</time></trkpt><trkpt lat="42.949695" lon="2.567195"><ele>515.0</ele><time>2026-03-30T09:11:24.685Z</time></trkpt><trkpt lat="42.949795" lon="2.5672917"><ele>515.0</ele><time>2026-03-30T09:11:26.685Z</time></trkpt><trkpt lat="42.9498383" lon="2.5673933"><ele>515.0</ele><time>2026-03-30T09:11:27.686Z</time></trkpt><trkpt lat="42.949885" lon="2.5675117"><ele>515.0</ele><time>2026-03-30T09:11:28.685Z</time></trkpt><trkpt lat="42.949935" lon="2.567635"><ele>515.0</ele><time>2026-03-30T09:11:29.684Z</time></trkpt><trkpt lat="42.9499917" lon="2.5677617"><ele>515.0</ele><time>2026-03-30T09:11:30.686Z</time></trkpt><trkpt lat="42.9500433" lon="2.5678867"><ele>516.8</ele><time>2026-03-30T09:11:31.685Z</time></trkpt><trkpt lat="42.9500883" lon="2.568015"><ele>518.6</ele><time>2026-03-30T09:11:32.685Z</time></trkpt><trkpt lat="42.9501367" lon="2.56813"><ele>520.4</ele><time>2026-03-30T09:11:33.685Z</time></trkpt><trkpt lat="42.950185" lon="2.56824"><ele>522.2</ele><time>2026-03-30T09:11:34.684Z</time></trkpt><trkpt lat="42.9502167" lon="2.5683533"><ele>524.0</ele><time>2026-03-30T09:11:35.686Z</time></trkpt><trkpt lat="42.9502383" lon="2.5684767"><ele>524.0</ele><time>2026-03-30T09:11:36.685Z</time></trkpt><trkpt lat="42.9502533" lon="2.56861"><ele>524.0</ele><time>2026-03-30T09:11:37.685Z</time></trkpt><trkpt lat="42.950265" lon="2.5687417"><ele>524.0</ele><time>2026-03-30T09:11:38.686Z</time></trkpt><trkpt lat="42.9502683" lon="2.5688717"><ele>524.0</ele><time>2026-03-30T09:11:39.686Z</time></trkpt><trkpt lat="42.9502567" lon="2.5690067"><ele>524.0</ele><time>2026-03-30T09:11:40.686Z</time></trkpt><trkpt lat="42.9502367" lon="2.5691517"><ele>525.4</ele><time>2026-03-30T09:11:41.686Z</time></trkpt><trkpt lat="42.950215" lon="2.5692983"><ele>526.8</ele><time>2026-03-30T09:11:42.687Z</time></trkpt><trkpt lat="42.950195" lon="2.569445"><ele>528.2</ele><time>2026-03-30T09:11:43.69Z</time></trkpt><trkpt lat="42.9501683" lon="2.56958"><ele>529.6</ele><time>2026-03-30T09:11:44.685Z</time></trkpt><trkpt lat="42.9501317" lon="2.5696917"><ele>531.0</ele><time>2026-03-30T09:11:45.686Z</time></trkpt><trkpt lat="42.9500867" lon="2.5697933"><ele>530.6666666666666</ele><time>2026-03-30T09:11:46.684Z</time></trkpt><trkpt lat="42.95004" lon="2.569895"><ele>530.3333333333334</ele><time>2026-03-30T09:11:47.687Z</time></trkpt><trkpt lat="42.949995" lon="2.57"><ele>530.0</ele><time>2026-03-30T09:11:48.687Z</time></trkpt><trkpt lat="42.9499483" lon="2.5700933"><ele>529.6666666666667</ele><time>2026-03-30T09:11:49.686Z</time></trkpt><trkpt lat="42.9499067" lon="2.5701817"><ele>529.3333333333334</ele><time>2026-03-30T09:11:50.689Z</time></trkpt><trkpt lat="42.9498617" lon="2.5702733"><ele>529.0</ele><time>2026-03-30T09:11:51.686Z</time></trkpt><trkpt lat="42.9498183" lon="2.570375"><ele>529.0</ele><time>2026-03-30T09:11:52.685Z</time></trkpt><trkpt lat="42.9497833" lon="2.570485"><ele>529.0</ele><time>2026-03-30T09:11:53.686Z</time></trkpt><trkpt lat="42.9497633" lon="2.5706167"><ele>529.0</ele><time>2026-03-30T09:11:54.686Z</time></trkpt><trkpt lat="42.94974" lon="2.5707567"><ele>529.0</ele><time>2026-03-30T09:11:55.688Z</time></trkpt><trkpt lat="42.9497233" lon="2.570905"><ele>529.0</ele><time>2026-03-30T09:11:56.685Z</time></trkpt><trkpt lat="42.949715" lon="2.5710583"><ele>529.4</ele><time>2026-03-30T09:11:57.686Z</time></trkpt><trkpt lat="42.9497117" lon="2.5712083"><ele>529.8</ele><time>2026-03-30T09:11:58.684Z</time></trkpt><trkpt lat="42.9497167" lon="2.5713533"><ele>530.2</ele><time>2026-03-30T09:11:59.685Z</time></trkpt><trkpt lat="42.9497267" lon="2.5714983"><ele>530.6</ele><time>2026-03-30T09:12:00.686Z</time></trkpt><trkpt lat="42.9497267" lon="2.5716417"><ele>531.0</ele><time>2026-03-30T09:12:01.686Z</time></trkpt><trkpt lat="42.9497233" lon="2.5717767"><ele>531.0</ele><time>2026-03-30T09:12:02.687Z</time></trkpt><trkpt lat="42.949725" lon="2.571905"><ele>531.0</ele><time>2026-03-30T09:12:03.685Z</time></trkpt><trkpt lat="42.9497117" lon="2.5720333"><ele>531.0</ele><time>2026-03-30T09:12:04.689Z</time></trkpt><trkpt lat="42.949675" lon="2.5721517"><ele>531.0</ele><time>2026-03-30T09:12:05.685Z</time></trkpt><trkpt lat="42.949635" lon="2.5722683"><ele>531.0</ele><time>2026-03-30T09:12:06.684Z</time></trkpt><trkpt lat="42.9495967" lon="2.5723667"><ele>531.8333333333334</ele><time>2026-03-30T09:12:07.691Z</time></trkpt><trkpt lat="42.9495567" lon="2.572465"><ele>532.6666666666666</ele><time>2026-03-30T09:12:08.686Z</time></trkpt><trkpt lat="42.94951" lon="2.5725583"><ele>533.5</ele><time>2026-03-30T09:12:09.685Z</time></trkpt><trkpt lat="42.9494617" lon="2.5726417"><ele>534.3333333333333</ele><time>2026-03-30T09:12:10.686Z</time></trkpt><trkpt lat="42.949415" lon="2.57273"><ele>535.1666666666666</ele><time>2026-03-30T09:12:11.687Z</time></trkpt><trkpt lat="42.9493683" lon="2.5728283"><ele>536.0</ele><time>2026-03-30T09:12:12.687Z</time></trkpt><trkpt lat="42.9493167" lon="2.5729033"><ele>538.6</ele><time>2026-03-30T09:12:13.686Z</time></trkpt><trkpt lat="42.9492067" lon="2.57289"><ele>541.2</ele><time>2026-03-30T09:12:15.686Z</time></trkpt><trkpt lat="42.949165" lon="2.5727367"><ele>543.8</ele><time>2026-03-30T09:12:17.69Z</time></trkpt><trkpt lat="42.9491733" lon="2.5726317"><ele>546.4</ele><time>2026-03-30T09:12:18.689Z</time></trkpt><trkpt lat="42.949135" lon="2.5725067"><ele>549.0</ele><time>2026-03-30T09:12:20.688Z</time></trkpt><trkpt lat="42.9490367" lon="2.5725383"><ele>549.0</ele><time>2026-03-30T09:12:22.686Z</time></trkpt><trkpt lat="42.9489933" lon="2.5726183"><ele>549.0</ele><time>2026-03-30T09:12:23.688Z</time></trkpt><trkpt lat="42.948965" lon="2.5727133"><ele>549.0</ele><time>2026-03-30T09:12:24.686Z</time></trkpt><trkpt lat="42.9489517" lon="2.572805"><ele>549.0</ele><time>2026-03-30T09:12:25.686Z</time></trkpt><trkpt lat="42.9489033" lon="2.5729333"><ele>549.0</ele><time>2026-03-30T09:12:27.687Z</time></trkpt><trkpt lat="42.9488483" lon="2.5728333"><ele>549.0</ele><time>2026-03-30T09:12:29.685Z</time></trkpt><trkpt lat="42.94885" lon="2.57273"><ele>549.0</ele><time>2026-03-30T09:12:30.687Z</time></trkpt><trkpt lat="42.9488717" lon="2.5726133"><ele>549.0</ele><time>2026-03-30T09:12:31.685Z</time></trkpt><trkpt lat="42.948895" lon="2.5724867"><ele>549.0</ele><time>2026-03-30T09:12:32.688Z</time></trkpt><trkpt lat="42.9489133" lon="2.5723683"><ele>549.0</ele><time>2026-03-30T09:12:33.686Z</time></trkpt><trkpt lat="42.94892" lon="2.5722733"><ele>549.0</ele><time>2026-03-30T09:12:34.685Z</time></trkpt><trkpt lat="42.9488817" lon="2.5721683"><ele>549.0</ele><time>2026-03-30T09:12:36.687Z</time></trkpt><trkpt lat="42.9487733" lon="2.57223"><ele>549.0</ele><time>2026-03-30T09:12:38.686Z</time></trkpt><trkpt lat="42.948715" lon="2.57231"><ele>549.0</ele><time>2026-03-30T09:12:39.688Z</time></trkpt><trkpt lat="42.9486583" lon="2.57241"><ele>549.0</ele><time>2026-03-30T09:12:40.685Z</time></trkpt><trkpt lat="42.9485933" lon="2.5725117"><ele>549.0</ele><time>2026-03-30T09:12:41.685Z</time></trkpt><trkpt lat="42.9485183" lon="2.5726117"><ele>549.0</ele><time>2026-03-30T09:12:42.685Z</time></trkpt><trkpt lat="42.9484367" lon="2.572715"><ele>549.0</ele><time>2026-03-30T09:12:43.686Z</time></trkpt><trkpt lat="42.9483767" lon="2.5728183"><ele>549.0</ele><time>2026-03-30T09:12:44.687Z</time></trkpt><trkpt lat="42.9483433" lon="2.5729217"><ele>549.0</ele><time>2026-03-30T09:12:45.686Z</time></trkpt><trkpt lat="42.94835" lon="2.5731033"><ele>549.0</ele><time>2026-03-30T09:12:47.686Z</time></trkpt><trkpt lat="42.9483933" lon="2.573205"><ele>549.0</ele><time>2026-03-30T09:12:48.688Z</time></trkpt><trkpt lat="42.9484333" lon="2.573315"><ele>550.1666666666666</ele><time>2026-03-30T09:12:49.686Z</time></trkpt><trkpt lat="42.9484567" lon="2.5734333"><ele>551.3333333333334</ele><time>2026-03-30T09:12:50.686Z</time></trkpt><trkpt lat="42.94846" lon="2.573555"><ele>552.5</ele><time>2026-03-30T09:12:51.687Z</time></trkpt><trkpt lat="42.9484383" lon="2.57366"><ele>553.6666666666667</ele><time>2026-03-30T09:12:52.687Z</time></trkpt><trkpt lat="42.948395" lon="2.57376"><ele>554.8333333333334</ele><time>2026-03-30T09:12:53.687Z</time></trkpt><trkpt lat="42.9483267" lon="2.5738517"><ele>556.0</ele><time>2026-03-30T09:12:54.685Z</time></trkpt><trkpt lat="42.9482333" lon="2.5739333"><ele>559.75</ele><time>2026-03-30T09:12:55.685Z</time></trkpt><trkpt lat="42.9481433" lon="2.5740333"><ele>563.5</ele><time>2026-03-30T09:12:56.685Z</time></trkpt><trkpt lat="42.9480567" lon="2.57415"><ele>567.25</ele><time>2026-03-30T09:12:57.685Z</time></trkpt><trkpt lat="42.9479867" lon="2.5742933"><ele>571.0</ele><time>2026-03-30T09:12:58.684Z</time></trkpt><trkpt lat="42.94793" lon="2.5744467"><ele>573.25</ele><time>2026-03-30T09:12:59.684Z</time></trkpt><trkpt lat="42.9478667" lon="2.5746083"><ele>575.5</ele><time>2026-03-30T09:13:00.685Z</time></trkpt><trkpt lat="42.9478067" lon="2.5747683"><ele>577.75</ele><time>2026-03-30T09:13:01.684Z</time></trkpt><trkpt lat="42.947755" lon="2.57493"><ele>580.0</ele><time>2026-03-30T09:13:02.685Z</time></trkpt><trkpt lat="42.9477017" lon="2.5750667"><ele>580.0</ele><time>2026-03-30T09:13:03.685Z</time></trkpt><trkpt lat="42.9476517" lon="2.5751883"><ele>580.0</ele><time>2026-03-30T09:13:04.686Z</time></trkpt><trkpt lat="42.94759" lon="2.5753"><ele>580.0</ele><time>2026-03-30T09:13:05.686Z</time></trkpt><trkpt lat="42.9475217" lon="2.57539"><ele>580.0</ele><time>2026-03-30T09:13:06.684Z</time></trkpt><trkpt lat="42.94745" lon="2.5754733"><ele>580.0</ele><time>2026-03-30T09:13:07.684Z</time></trkpt><trkpt lat="42.9473783" lon="2.5755483"><ele>580.6</ele><time>2026-03-30T09:13:08.686Z</time></trkpt><trkpt lat="42.947305" lon="2.5756217"><ele>581.2</ele><time>2026-03-30T09:13:09.685Z</time></trkpt><trkpt lat="42.94723" lon="2.575695"><ele>581.8</ele><time>2026-03-30T09:13:10.685Z</time></trkpt><trkpt lat="42.9471533" lon="2.5757717"><ele>582.4</ele><time>2026-03-30T09:13:11.686Z</time></trkpt><trkpt lat="42.9470733" lon="2.5758467"><ele>583.0</ele><time>2026-03-30T09:13:12.685Z</time></trkpt><trkpt lat="42.946995" lon="2.5759167"><ele>583.0</ele><time>2026-03-30T09:13:13.687Z</time></trkpt><trkpt lat="42.94692" lon="2.57599"><ele>583.0</ele><time>2026-03-30T09:13:14.688Z</time></trkpt><trkpt lat="42.9468517" lon="2.57607"><ele>583.0</ele><time>2026-03-30T09:13:15.686Z</time></trkpt><trkpt lat="42.9468033" lon="2.5761567"><ele>583.0</ele><time>2026-03-30T09:13:16.684Z</time></trkpt><trkpt lat="42.94677" lon="2.576255"><ele>583.0</ele><time>2026-03-30T09:13:17.689Z</time></trkpt><trkpt lat="42.94673" lon="2.57636"><ele>583.0</ele><time>2026-03-30T09:13:18.686Z</time></trkpt><trkpt lat="42.946685" lon="2.57645"><ele>584.5</ele><time>2026-03-30T09:13:19.687Z</time></trkpt><trkpt lat="42.946615" lon="2.5765017"><ele>586.0</ele><time>2026-03-30T09:13:20.688Z</time></trkpt><trkpt lat="42.9465417" lon="2.5765267"><ele>587.5</ele><time>2026-03-30T09:13:21.686Z</time></trkpt><trkpt lat="42.9464783" lon="2.5765533"><ele>589.0</ele><time>2026-03-30T09:13:22.686Z</time></trkpt><trkpt lat="42.9463683" lon="2.576605"><ele>590.5</ele><time>2026-03-30T09:13:24.685Z</time></trkpt><trkpt lat="42.946315" lon="2.5766567"><ele>592.0</ele><time>2026-03-30T09:13:25.687Z</time></trkpt><trkpt lat="42.9462067" lon="2.5767433"><ele>592.0</ele><time>2026-03-30T09:13:27.684Z</time></trkpt><trkpt lat="42.9461367" lon="2.5767617"><ele>592.0</ele><time>2026-03-30T09:13:28.687Z</time></trkpt><trkpt lat="42.94606" lon="2.5767367"><ele>592.0</ele><time>2026-03-30T09:13:29.686Z</time></trkpt><trkpt lat="42.9459883" lon="2.5766967"><ele>592.0</ele><time>2026-03-30T09:13:30.686Z</time></trkpt><trkpt lat="42.9459167" lon="2.5766233"><ele>592.0</ele><time>2026-03-30T09:13:31.686Z</time></trkpt><trkpt lat="42.9458483" lon="2.5765267"><ele>592.0</ele><time>2026-03-30T09:13:32.688Z</time></trkpt><trkpt lat="42.945765" lon="2.5764133"><ele>592.25</ele><time>2026-03-30T09:13:33.686Z</time></trkpt><trkpt lat="42.9456667" lon="2.5762983"><ele>592.5</ele><time>2026-03-30T09:13:34.686Z</time></trkpt><trkpt lat="42.945565" lon="2.5761867"><ele>592.75</ele><time>2026-03-30T09:13:35.687Z</time></trkpt><trkpt lat="42.9454567" lon="2.57607"><ele>593.0</ele><time>2026-03-30T09:13:36.687Z</time></trkpt><trkpt lat="42.9453517" lon="2.575965"><ele>593.75</ele><time>2026-03-30T09:13:37.688Z</time></trkpt><trkpt lat="42.9452583" lon="2.5758567"><ele>594.5</ele><time>2026-03-30T09:13:38.685Z</time></trkpt><trkpt lat="42.9451683" lon="2.5757383"><ele>595.25</ele><time>2026-03-30T09:13:39.687Z</time></trkpt><trkpt lat="42.94507" lon="2.57563"><ele>596.0</ele><time>2026-03-30T09:13:40.687Z</time></trkpt><trkpt lat="42.9449667" lon="2.5755217"><ele>596.0</ele><time>2026-03-30T09:13:41.685Z</time></trkpt><trkpt lat="42.9448783" lon="2.5754067"><ele>596.0</ele><time>2026-03-30T09:13:42.686Z</time></trkpt><trkpt lat="42.9447933" lon="2.57529"><ele>596.0</ele><time>2026-03-30T09:13:43.684Z</time></trkpt><trkpt lat="42.9447033" lon="2.5751767"><ele>596.0</ele><time>2026-03-30T09:13:44.685Z</time></trkpt><trkpt lat="42.944605" lon="2.57508"><ele>598.0</ele><time>2026-03-30T09:13:45.687Z</time></trkpt><trkpt lat="42.944495" lon="2.5750067"><ele>600.0</ele><time>2026-03-30T09:13:46.686Z</time></trkpt><trkpt lat="42.94437" lon="2.574955"><ele>602.0</ele><time>2026-03-30T09:13:47.686Z</time></trkpt><trkpt lat="42.944235" lon="2.57492"><ele>604.0</ele><time>2026-03-30T09:13:48.686Z</time></trkpt><trkpt lat="42.9441017" lon="2.5748917"><ele>604.25</ele><time>2026-03-30T09:13:49.684Z</time></trkpt><trkpt lat="42.943965" lon="2.5748767"><ele>604.5</ele><time>2026-03-30T09:13:50.689Z</time></trkpt><trkpt lat="42.943825" lon="2.574865"><ele>604.75</ele><time>2026-03-30T09:13:51.687Z</time></trkpt><trkpt lat="42.943685" lon="2.5748583"><ele>605.0</ele><time>2026-03-30T09:13:52.685Z</time></trkpt><trkpt lat="42.94354" lon="2.5748483"><ele>605.0</ele><time>2026-03-30T09:13:53.687Z</time></trkpt><trkpt lat="42.9433917" lon="2.5748317"><ele>605.0</ele><time>2026-03-30T09:13:54.685Z</time></trkpt><trkpt lat="42.9432383" lon="2.5748117"><ele>605.0</ele><time>2026-03-30T09:13:55.685Z</time></trkpt><trkpt lat="42.9430917" lon="2.574795"><ele>605.25</ele><time>2026-03-30T09:13:56.686Z</time></trkpt><trkpt lat="42.9429567" lon="2.5747767"><ele>605.5</ele><time>2026-03-30T09:13:57.684Z</time></trkpt><trkpt lat="42.9428283" lon="2.5747583"><ele>605.75</ele><time>2026-03-30T09:13:58.686Z</time></trkpt><trkpt lat="42.9427117" lon="2.5747283"><ele>606.0</ele><time>2026-03-30T09:13:59.685Z</time></trkpt><trkpt lat="42.9426133" lon="2.5746867"><ele>606.0</ele><time>2026-03-30T09:14:00.685Z</time></trkpt><trkpt lat="42.94252" lon="2.5746283"><ele>606.0</ele><time>2026-03-30T09:14:01.686Z</time></trkpt><trkpt lat="42.94243" lon="2.57455"><ele>606.0</ele><time>2026-03-30T09:14:02.686Z</time></trkpt><trkpt lat="42.9423483" lon="2.57445"><ele>606.0</ele><time>2026-03-30T09:14:03.684Z</time></trkpt><trkpt lat="42.94227" lon="2.5743383"><ele>606.0</ele><time>2026-03-30T09:14:04.685Z</time></trkpt><trkpt lat="42.9422033" lon="2.5742283"><ele>607.0</ele><time>2026-03-30T09:14:05.684Z</time></trkpt><trkpt lat="42.9421367" lon="2.574135"><ele>608.0</ele><time>2026-03-30T09:14:06.684Z</time></trkpt><trkpt lat="42.9420567" lon="2.5740717"><ele>609.0</ele><time>2026-03-30T09:14:07.687Z</time></trkpt><trkpt lat="42.9419617" lon="2.5740333"><ele>610.0</ele><time>2026-03-30T09:14:08.686Z</time></trkpt><trkpt lat="42.941855" lon="2.5740067"><ele>611.0</ele><time>2026-03-30T09:14:09.686Z</time></trkpt><trkpt lat="42.94174" lon="2.5739817"><ele>611.0</ele><time>2026-03-30T09:14:10.684Z</time></trkpt><trkpt lat="42.941615" lon="2.5739733"><ele>611.0</ele><time>2026-03-30T09:14:11.686Z</time></trkpt><trkpt lat="42.9414833" lon="2.5739767"><ele>611.0</ele><time>2026-03-30T09:14:12.686Z</time></trkpt><trkpt lat="42.9413583" lon="2.5739717"><ele>611.0</ele><time>2026-03-30T09:14:13.689Z</time></trkpt><trkpt lat="42.941235" lon="2.5739467"><ele>611.0</ele><time>2026-03-30T09:14:14.685Z</time></trkpt><trkpt lat="42.9411083" lon="2.57391"><ele>611.0</ele><time>2026-03-30T09:14:15.686Z</time></trkpt><trkpt lat="42.940985" lon="2.5738733"><ele>611.0</ele><time>2026-03-30T09:14:16.686Z</time></trkpt><trkpt lat="42.9408717" lon="2.57383"><ele>611.0</ele><time>2026-03-30T09:14:17.686Z</time></trkpt><trkpt lat="42.9407733" lon="2.5737833"><ele>611.1666666666666</ele><time>2026-03-30T09:14:18.686Z</time></trkpt><trkpt lat="42.9406917" lon="2.5737167"><ele>611.3333333333333</ele><time>2026-03-30T09:14:19.685Z</time></trkpt><trkpt lat="42.9406283" lon="2.5736267"><ele>611.5</ele><time>2026-03-30T09:14:20.686Z</time></trkpt><trkpt lat="42.94058" lon="2.5735267"><ele>611.6666666666666</ele><time>2026-03-30T09:14:21.685Z</time></trkpt><trkpt lat="42.9405367" lon="2.5734267"><ele>611.8333333333334</ele><time>2026-03-30T09:14:22.684Z</time></trkpt><trkpt lat="42.9404917" lon="2.5733383"><ele>612.0</ele><time>2026-03-30T09:14:23.685Z</time></trkpt><trkpt lat="42.940435" lon="2.5732667"><ele>612.6</ele><time>2026-03-30T09:14:24.685Z</time></trkpt><trkpt lat="42.94036" lon="2.5732517"><ele>613.2</ele><time>2026-03-30T09:14:25.687Z</time></trkpt><trkpt lat="42.94026" lon="2.5732483"><ele>613.8</ele><time>2026-03-30T09:14:26.686Z</time></trkpt><trkpt lat="42.94016" lon="2.5732433"><ele>614.4</ele><time>2026-03-30T09:14:27.686Z</time></trkpt><trkpt lat="42.9400633" lon="2.5732217"><ele>615.0</ele><time>2026-03-30T09:14:28.684Z</time></trkpt><trkpt lat="42.9399583" lon="2.57318"><ele>614.8</ele><time>2026-03-30T09:14:29.685Z</time></trkpt><trkpt lat="42.9398517" lon="2.57311"><ele>614.6</ele><time>2026-03-30T09:14:30.685Z</time></trkpt><trkpt lat="42.9397533" lon="2.5730367"><ele>614.4</ele><time>2026-03-30T09:14:31.685Z</time></trkpt><trkpt lat="42.9396683" lon="2.5729667"><ele>614.2</ele><time>2026-03-30T09:14:32.686Z</time></trkpt><trkpt lat="42.9396017" lon="2.572895"><ele>614.0</ele><time>2026-03-30T09:14:33.685Z</time></trkpt><trkpt lat="42.9395483" lon="2.57282"><ele>614.0</ele><time>2026-03-30T09:14:34.685Z</time></trkpt><trkpt lat="42.939505" lon="2.57274"><ele>614.0</ele><time>2026-03-30T09:14:35.686Z</time></trkpt><trkpt lat="42.9394617" lon="2.57267"><ele>614.0</ele><time>2026-03-30T09:14:36.686Z</time></trkpt><trkpt lat="42.9394" lon="2.5725917"><ele>614.0</ele><time>2026-03-30T09:14:38.686Z</time></trkpt><trkpt lat="42.9393233" lon="2.5725517"><ele>614.0</ele><time>2026-03-30T09:14:40.686Z</time></trkpt><trkpt lat="42.93923" lon="2.5725917"><ele>614.0</ele><time>2026-03-30T09:14:42.688Z</time></trkpt><trkpt lat="42.93914" lon="2.5726933"><ele>614.8333333333333</ele><time>2026-03-30T09:14:44.688Z</time></trkpt><trkpt lat="42.939085" lon="2.57277"><ele>615.6666666666666</ele><time>2026-03-30T09:14:45.688Z</time></trkpt><trkpt lat="42.9390183" lon="2.5728383"><ele>616.5</ele><time>2026-03-30T09:14:46.687Z</time></trkpt><trkpt lat="42.9389433" lon="2.5729"><ele>617.3333333333334</ele><time>2026-03-30T09:14:47.686Z</time></trkpt><trkpt lat="42.9388633" lon="2.5729667"><ele>618.1666666666667</ele><time>2026-03-30T09:14:48.688Z</time></trkpt><trkpt lat="42.9387767" lon="2.573035"><ele>619.0</ele><time>2026-03-30T09:14:49.686Z</time></trkpt><trkpt lat="42.93868" lon="2.5730967"><ele>619.0</ele><time>2026-03-30T09:14:50.686Z</time></trkpt><trkpt lat="42.9385833" lon="2.57316"><ele>619.0</ele><time>2026-03-30T09:14:51.685Z</time></trkpt><trkpt lat="42.9384883" lon="2.57323"><ele>619.0</ele><time>2026-03-30T09:14:52.688Z</time></trkpt><trkpt lat="42.9383933" lon="2.5733133"><ele>619.0</ele><time>2026-03-30T09:14:53.686Z</time></trkpt><trkpt lat="42.9382967" lon="2.5733833"><ele>619.0</ele><time>2026-03-30T09:14:54.69Z</time></trkpt><trkpt lat="42.938195" lon="2.57344"><ele>621.0</ele><time>2026-03-30T09:14:55.686Z</time></trkpt><trkpt lat="42.9380967" lon="2.573495"><ele>623.0</ele><time>2026-03-30T09:14:56.69Z</time></trkpt><trkpt lat="42.938015" lon="2.57352"><ele>625.0</ele><time>2026-03-30T09:14:57.686Z</time></trkpt><trkpt lat="42.9379367" lon="2.5735183"><ele>627.0</ele><time>2026-03-30T09:14:58.686Z</time></trkpt><trkpt lat="42.9378583" lon="2.5734983"><ele>629.0</ele><time>2026-03-30T09:14:59.687Z</time></trkpt><trkpt lat="42.93778" lon="2.5734583"><ele>631.0</ele><time>2026-03-30T09:15:00.686Z</time></trkpt><trkpt lat="42.937695" lon="2.573395"><ele>631.0</ele><time>2026-03-30T09:15:01.686Z</time></trkpt><trkpt lat="42.9376117" lon="2.5733367"><ele>631.0</ele><time>2026-03-30T09:15:02.686Z</time></trkpt><trkpt lat="42.937505" lon="2.573255"><ele>631.0</ele><time>2026-03-30T09:15:03.687Z</time></trkpt><trkpt lat="42.937405" lon="2.5731867"><ele>631.0</ele><time>2026-03-30T09:15:04.686Z</time></trkpt><trkpt lat="42.937315" lon="2.57312"><ele>631.0</ele><time>2026-03-30T09:15:05.685Z</time></trkpt><trkpt lat="42.9372317" lon="2.5730533"><ele>631.6666666666667</ele><time>2026-03-30T09:15:06.686Z</time></trkpt><trkpt lat="42.9371533" lon="2.5729817"><ele>632.3333333333334</ele><time>2026-03-30T09:15:07.685Z</time></trkpt><trkpt lat="42.93708" lon="2.5729117"><ele>633.0</ele><time>2026-03-30T09:15:08.686Z</time></trkpt><trkpt lat="42.9370067" lon="2.57284"><ele>633.6666666666666</ele><time>2026-03-30T09:15:09.687Z</time></trkpt><trkpt lat="42.9369433" lon="2.57277"><ele>634.3333333333333</ele><time>2026-03-30T09:15:10.687Z</time></trkpt><trkpt lat="42.9368867" lon="2.5727033"><ele>635.0</ele><time>2026-03-30T09:15:11.686Z</time></trkpt><trkpt lat="42.9367983" lon="2.5726233"><ele>635.0</ele><time>2026-03-30T09:15:13.685Z</time></trkpt><trkpt lat="42.9367483" lon="2.57256"><ele>635.0</ele><time>2026-03-30T09:15:15.686Z</time></trkpt><trkpt lat="42.9367167" lon="2.5724733"><ele>635.0</ele><time>2026-03-30T09:15:18.688Z</time></trkpt><trkpt lat="42.936675" lon="2.5725533"><ele>635.0</ele><time>2026-03-30T09:15:22.687Z</time></trkpt><trkpt lat="42.93661" lon="2.572635"><ele>635.0</ele><time>2026-03-30T09:15:25.688Z</time></trkpt><trkpt lat="42.9365183" lon="2.5726833"><ele>635.0</ele><time>2026-03-30T09:15:27.688Z</time></trkpt><trkpt lat="42.9364383" lon="2.572735"><ele>634.8333333333333</ele><time>2026-03-30T09:15:29.686Z</time></trkpt><trkpt lat="42.9363817" lon="2.5728133"><ele>634.6666666666666</ele><time>2026-03-30T09:15:31.689Z</time></trkpt><trkpt lat="42.93636" lon="2.57295"><ele>634.5</ele><time>2026-03-30T09:15:33.689Z</time></trkpt><trkpt lat="42.9363733" lon="2.5730533"><ele>634.3333333333334</ele><time>2026-03-30T09:15:34.685Z</time></trkpt><trkpt lat="42.9364033" lon="2.573165"><ele>634.1666666666667</ele><time>2026-03-30T09:15:35.687Z</time></trkpt><trkpt lat="42.936445" lon="2.57329"><ele>634.0</ele><time>2026-03-30T09:15:36.687Z</time></trkpt><trkpt lat="42.936485" lon="2.573425"><ele>634.0</ele><time>2026-03-30T09:15:37.687Z</time></trkpt><trkpt lat="42.9365233" lon="2.57355"><ele>634.0</ele><time>2026-03-30T09:15:38.687Z</time></trkpt><trkpt lat="42.9365567" lon="2.5736633"><ele>634.0</ele><time>2026-03-30T09:15:39.692Z</time></trkpt><trkpt lat="42.9365867" lon="2.573765"><ele>634.0</ele><time>2026-03-30T09:15:40.688Z</time></trkpt><trkpt lat="42.9366167" lon="2.573855"><ele>634.0</ele><time>2026-03-30T09:15:41.688Z</time></trkpt><trkpt lat="42.9366483" lon="2.5739383"><ele>634.0</ele><time>2026-03-30T09:15:42.687Z</time></trkpt><trkpt lat="42.9366833" lon="2.574025"><ele>633.6666666666667</ele><time>2026-03-30T09:15:43.687Z</time></trkpt><trkpt lat="42.936745" lon="2.5741133"><ele>633.3333333333334</ele><time>2026-03-30T09:15:44.689Z</time></trkpt><trkpt lat="42.9367933" lon="2.5742067"><ele>633.0</ele><time>2026-03-30T09:15:45.686Z</time></trkpt><trkpt lat="42.9368483" lon="2.5742883"><ele>632.6666666666666</ele><time>2026-03-30T09:15:46.686Z</time></trkpt><trkpt lat="42.9369117" lon="2.5743667"><ele>632.3333333333333</ele><time>2026-03-30T09:15:47.685Z</time></trkpt><trkpt lat="42.9369733" lon="2.5744217"><ele>632.0</ele><time>2026-03-30T09:15:48.687Z</time></trkpt><trkpt lat="42.937045" lon="2.5744817"><ele>629.8000000000001</ele><time>2026-03-30T09:15:49.689Z</time></trkpt><trkpt lat="42.9371317" lon="2.5745333"><ele>627.6</ele><time>2026-03-30T09:15:50.69Z</time></trkpt><trkpt lat="42.9372183" lon="2.5745833"><ele>625.4000000000001</ele><time>2026-03-30T09:15:51.687Z</time></trkpt><trkpt lat="42.9373083" lon="2.5746367"><ele>623.2</ele><time>2026-03-30T09:15:52.688Z</time></trkpt><trkpt lat="42.937395" lon="2.5746917"><ele>621.0</ele><time>2026-03-30T09:15:53.686Z</time></trkpt><trkpt lat="42.937475" lon="2.5747533"><ele>620.6</ele><time>2026-03-30T09:15:54.687Z</time></trkpt><trkpt lat="42.9375533" lon="2.5748067"><ele>620.2</ele><time>2026-03-30T09:15:55.688Z</time></trkpt><trkpt lat="42.9376383" lon="2.574855"><ele>619.8</ele><time>2026-03-30T09:15:56.689Z</time></trkpt><trkpt lat="42.9377283" lon="2.5748983"><ele>619.4</ele><time>2026-03-30T09:15:57.689Z</time></trkpt><trkpt lat="42.937825" lon="2.5749467"><ele>619.0</ele><time>2026-03-30T09:15:58.69Z</time></trkpt><trkpt lat="42.9379217" lon="2.574985"><ele>619.0</ele><time>2026-03-30T09:15:59.686Z</time></trkpt><trkpt lat="42.9380117" lon="2.5750233"><ele>619.0</ele><time>2026-03-30T09:16:00.686Z</time></trkpt><trkpt lat="42.9381033" lon="2.5750583"><ele>619.0</ele><time>2026-03-30T09:16:01.689Z</time></trkpt><trkpt lat="42.9381933" lon="2.5750983"><ele>619.0</ele><time>2026-03-30T09:16:02.688Z</time></trkpt><trkpt lat="42.9382833" lon="2.57515"><ele>619.0</ele><time>2026-03-30T09:16:03.686Z</time></trkpt><trkpt lat="42.938375" lon="2.57521"><ele>618.8</ele><time>2026-03-30T09:16:04.686Z</time></trkpt><trkpt lat="42.9384667" lon="2.5752667"><ele>618.5999999999999</ele><time>2026-03-30T09:16:05.687Z</time></trkpt><trkpt lat="42.9385583" lon="2.5753217"><ele>618.4</ele><time>2026-03-30T09:16:06.686Z</time></trkpt><trkpt lat="42.9386517" lon="2.5753767"><ele>618.1999999999999</ele><time>2026-03-30T09:16:07.686Z</time></trkpt><trkpt lat="42.93875" lon="2.5754233"><ele>618.0</ele><time>2026-03-30T09:16:08.688Z</time></trkpt><trkpt lat="42.9388517" lon="2.57546"><ele>617.8</ele><time>2026-03-30T09:16:09.686Z</time></trkpt><trkpt lat="42.938955" lon="2.5754933"><ele>617.5999999999999</ele><time>2026-03-30T09:16:10.689Z</time></trkpt><trkpt lat="42.9390533" lon="2.5755333"><ele>617.4000000000001</ele><time>2026-03-30T09:16:11.694Z</time></trkpt><trkpt lat="42.93914" lon="2.57557"><ele>617.2</ele><time>2026-03-30T09:16:12.691Z</time></trkpt><trkpt lat="42.939205" lon="2.5756033"><ele>617.0</ele><time>2026-03-30T09:16:13.69Z</time></trkpt><trkpt lat="42.9392817" lon="2.575645"><ele>616.8000000000001</ele><time>2026-03-30T09:16:15.687Z</time></trkpt><trkpt lat="42.9393783" lon="2.57569"><ele>616.6</ele><time>2026-03-30T09:16:18.686Z</time></trkpt><trkpt lat="42.9394583" lon="2.57576"><ele>616.4000000000001</ele><time>2026-03-30T09:16:20.688Z</time></trkpt><trkpt lat="42.9395633" lon="2.5758767"><ele>616.2</ele><time>2026-03-30T09:16:22.686Z</time></trkpt><trkpt lat="42.9396267" lon="2.5759567"><ele>616.0</ele><time>2026-03-30T09:16:23.688Z</time></trkpt><trkpt lat="42.9396933" lon="2.5760483"><ele>616.0</ele><time>2026-03-30T09:16:24.687Z</time></trkpt><trkpt lat="42.9397767" lon="2.5761367"><ele>616.0</ele><time>2026-03-30T09:16:25.687Z</time></trkpt><trkpt lat="42.9398633" lon="2.5762233"><ele>616.0</ele><time>2026-03-30T09:16:26.687Z</time></trkpt><trkpt lat="42.939945" lon="2.5763017"><ele>616.0</ele><time>2026-03-30T09:16:27.689Z</time></trkpt><trkpt lat="42.9400117" lon="2.5763733"><ele>616.0</ele><time>2026-03-30T09:16:28.686Z</time></trkpt><trkpt lat="42.9400567" lon="2.57644"><ele>615.4</ele><time>2026-03-30T09:16:29.688Z</time></trkpt><trkpt lat="42.9400633" lon="2.5765983"><ele>614.8</ele><time>2026-03-30T09:16:31.685Z</time></trkpt><trkpt lat="42.9400483" lon="2.5767"><ele>614.1999999999999</ele><time>2026-03-30T09:16:32.687Z</time></trkpt><trkpt lat="42.940045" lon="2.576815"><ele>613.6</ele><time>2026-03-30T09:16:33.689Z</time></trkpt><trkpt lat="42.94006" lon="2.576945"><ele>613.0</ele><time>2026-03-30T09:16:34.687Z</time></trkpt><trkpt lat="42.9400933" lon="2.5770833"><ele>612.6</ele><time>2026-03-30T09:16:35.687Z</time></trkpt><trkpt lat="42.94013" lon="2.577215"><ele>612.1999999999999</ele><time>2026-03-30T09:16:36.685Z</time></trkpt><trkpt lat="42.9401717" lon="2.5773433"><ele>611.8</ele><time>2026-03-30T09:16:37.685Z</time></trkpt><trkpt lat="42.9402083" lon="2.57746"><ele>611.4</ele><time>2026-03-30T09:16:38.687Z</time></trkpt><trkpt lat="42.9402267" lon="2.5775783"><ele>611.0</ele><time>2026-03-30T09:16:39.686Z</time></trkpt><trkpt lat="42.94023" lon="2.5776967"><ele>611.0</ele><time>2026-03-30T09:16:40.686Z</time></trkpt><trkpt lat="42.9402217" lon="2.5778133"><ele>611.0</ele><time>2026-03-30T09:16:41.687Z</time></trkpt><trkpt lat="42.9402133" lon="2.5779317"><ele>611.0</ele><time>2026-03-30T09:16:42.687Z</time></trkpt><trkpt lat="42.9402083" lon="2.5780467"><ele>611.0</ele><time>2026-03-30T09:16:43.686Z</time></trkpt><trkpt lat="42.9402117" lon="2.5781567"><ele>611.0</ele><time>2026-03-30T09:16:44.688Z</time></trkpt><trkpt lat="42.9402233" lon="2.57826"><ele>611.0</ele><time>2026-03-30T09:16:45.686Z</time></trkpt><trkpt lat="42.9402433" lon="2.5783683"><ele>610.5</ele><time>2026-03-30T09:16:46.686Z</time></trkpt><trkpt lat="42.9402733" lon="2.578485"><ele>610.0</ele><time>2026-03-30T09:16:47.686Z</time></trkpt><trkpt lat="42.9403083" lon="2.5785917"><ele>609.5</ele><time>2026-03-30T09:16:48.688Z</time></trkpt><trkpt lat="42.9403467" lon="2.5786883"><ele>609.0</ele><time>2026-03-30T09:16:49.688Z</time></trkpt><trkpt lat="42.9403867" lon="2.5787767"><ele>608.5</ele><time>2026-03-30T09:16:50.689Z</time></trkpt><trkpt lat="42.9404267" lon="2.57886"><ele>608.0</ele><time>2026-03-30T09:16:51.687Z</time></trkpt><trkpt lat="42.940465" lon="2.5789333"><ele>606.3333333333333</ele><time>2026-03-30T09:16:52.689Z</time></trkpt><trkpt lat="42.9405" lon="2.5790067"><ele>604.6666666666666</ele><time>2026-03-30T09:16:53.688Z</time></trkpt><trkpt lat="42.9405417" lon="2.57909"><ele>603.0</ele><time>2026-03-30T09:16:54.689Z</time></trkpt><trkpt lat="42.9405883" lon="2.5791867"><ele>601.3333333333334</ele><time>2026-03-30T09:16:55.688Z</time></trkpt><trkpt lat="42.9406383" lon="2.5792883"><ele>599.6666666666667</ele><time>2026-03-30T09:16:56.689Z</time></trkpt><trkpt lat="42.940685" lon="2.579385"><ele>598.0</ele><time>2026-03-30T09:16:57.69Z</time></trkpt><trkpt lat="42.9407283" lon="2.579475"><ele>597.0</ele><time>2026-03-30T09:16:58.689Z</time></trkpt><trkpt lat="42.9407683" lon="2.5795533"><ele>596.0</ele><time>2026-03-30T09:16:59.686Z</time></trkpt><trkpt lat="42.9408683" lon="2.579645"><ele>595.0</ele><time>2026-03-30T09:17:01.685Z</time></trkpt><trkpt lat="42.9409883" lon="2.579655"><ele>594.0</ele><time>2026-03-30T09:17:03.685Z</time></trkpt><trkpt lat="42.9410983" lon="2.5796033"><ele>593.0</ele><time>2026-03-30T09:17:05.69Z</time></trkpt><trkpt lat="42.9412" lon="2.579575"><ele>593.0</ele><time>2026-03-30T09:17:07.687Z</time></trkpt><trkpt lat="42.9412583" lon="2.579695"><ele>593.0</ele><time>2026-03-30T09:17:09.685Z</time></trkpt><trkpt lat="42.941265" lon="2.5797867"><ele>593.0</ele><time>2026-03-30T09:17:10.686Z</time></trkpt><trkpt lat="42.9412617" lon="2.5798917"><ele>593.0</ele><time>2026-03-30T09:17:11.687Z</time></trkpt><trkpt lat="42.94127" lon="2.5799917"><ele>593.0</ele><time>2026-03-30T09:17:12.688Z</time></trkpt><trkpt lat="42.9412783" lon="2.5800817"><ele>593.0</ele><time>2026-03-30T09:17:13.685Z</time></trkpt><trkpt lat="42.9412967" lon="2.5801733"><ele>593.0</ele><time>2026-03-30T09:17:14.688Z</time></trkpt><trkpt lat="42.9413183" lon="2.5802667"><ele>593.0</ele><time>2026-03-30T09:17:15.686Z</time></trkpt><trkpt lat="42.9413367" lon="2.580355"><ele>593.0</ele><time>2026-03-30T09:17:16.686Z</time></trkpt><trkpt lat="42.9413633" lon="2.5805217"><ele>593.0</ele><time>2026-03-30T09:17:18.687Z</time></trkpt><trkpt lat="42.941365" lon="2.580615"><ele>593.0</ele><time>2026-03-30T09:17:19.687Z</time></trkpt><trkpt lat="42.94136" lon="2.58071"><ele>593.0</ele><time>2026-03-30T09:17:20.689Z</time></trkpt><trkpt lat="42.9413533" lon="2.5808017"><ele>592.3333333333333</ele><time>2026-03-30T09:17:21.686Z</time></trkpt><trkpt lat="42.9413467" lon="2.5809617"><ele>591.6666666666666</ele><time>2026-03-30T09:17:23.689Z</time></trkpt><trkpt lat="42.941345" lon="2.58105"><ele>591.0</ele><time>2026-03-30T09:17:24.687Z</time></trkpt><trkpt lat="42.9413517" lon="2.5811367"><ele>590.3333333333334</ele><time>2026-03-30T09:17:25.686Z</time></trkpt><trkpt lat="42.94135" lon="2.5812733"><ele>589.6666666666667</ele><time>2026-03-30T09:17:27.685Z</time></trkpt><trkpt lat="42.94127" lon="2.5813017"><ele>589.0</ele><time>2026-03-30T09:17:29.686Z</time></trkpt><trkpt lat="42.9411967" lon="2.5811817"><ele>589.0</ele><time>2026-03-30T09:17:31.685Z</time></trkpt><trkpt lat="42.9411617" lon="2.5810817"><ele>589.0</ele><time>2026-03-30T09:17:32.686Z</time></trkpt><trkpt lat="42.941125" lon="2.5809867"><ele>589.0</ele><time>2026-03-30T09:17:33.687Z</time></trkpt><trkpt lat="42.94109" lon="2.5808983"><ele>589.0</ele><time>2026-03-30T09:17:34.688Z</time></trkpt><trkpt lat="42.9410583" lon="2.5808117"><ele>589.0</ele><time>2026-03-30T09:17:35.686Z</time></trkpt><trkpt lat="42.9410133" lon="2.5807317"><ele>589.0</ele><time>2026-03-30T09:17:36.686Z</time></trkpt><trkpt lat="42.94096" lon="2.5806617"><ele>589.0</ele><time>2026-03-30T09:17:37.686Z</time></trkpt><trkpt lat="42.9409" lon="2.5806217"><ele>589.0</ele><time>2026-03-30T09:17:38.687Z</time></trkpt><trkpt lat="42.9407717" lon="2.5806167"><ele>589.0</ele><time>2026-03-30T09:17:40.685Z</time></trkpt><trkpt lat="42.94069" lon="2.580645"><ele>589.0</ele><time>2026-03-30T09:17:41.686Z</time></trkpt><trkpt lat="42.94061" lon="2.5806917"><ele>589.0</ele><time>2026-03-30T09:17:42.686Z</time></trkpt><trkpt lat="42.9405367" lon="2.5807517"><ele>587.2</ele><time>2026-03-30T09:17:43.688Z</time></trkpt><trkpt lat="42.9404783" lon="2.5808283"><ele>585.4</ele><time>2026-03-30T09:17:44.689Z</time></trkpt><trkpt lat="42.9404367" lon="2.5809367"><ele>583.6</ele><time>2026-03-30T09:17:45.687Z</time></trkpt><trkpt lat="42.9403967" lon="2.5810483"><ele>581.8</ele><time>2026-03-30T09:17:46.686Z</time></trkpt><trkpt lat="42.94035" lon="2.5811617"><ele>580.0</ele><time>2026-03-30T09:17:47.688Z</time></trkpt><trkpt lat="42.94029" lon="2.58127"><ele>578.4</ele><time>2026-03-30T09:17:48.685Z</time></trkpt><trkpt lat="42.940225" lon="2.5813817"><ele>576.8</ele><time>2026-03-30T09:17:49.686Z</time></trkpt><trkpt lat="42.94016" lon="2.5814917"><ele>575.2</ele><time>2026-03-30T09:17:50.688Z</time></trkpt><trkpt lat="42.9400983" lon="2.5816017"><ele>573.6</ele><time>2026-03-30T09:17:51.687Z</time></trkpt><trkpt lat="42.9400417" lon="2.5816983"><ele>572.0</ele><time>2026-03-30T09:17:52.687Z</time></trkpt><trkpt lat="42.9399883" lon="2.58179"><ele>571.3333333333333</ele><time>2026-03-30T09:17:53.69Z</time></trkpt><trkpt lat="42.9399317" lon="2.58187"><ele>570.6666666666666</ele><time>2026-03-30T09:17:54.685Z</time></trkpt><trkpt lat="42.939865" lon="2.5819333"><ele>570.0</ele><time>2026-03-30T09:17:55.685Z</time></trkpt><trkpt lat="42.93979" lon="2.58197"><ele>569.3333333333334</ele><time>2026-03-30T09:17:56.687Z</time></trkpt><trkpt lat="42.9397167" lon="2.5819933"><ele>568.6666666666667</ele><time>2026-03-30T09:17:57.686Z</time></trkpt><trkpt lat="42.9396517" lon="2.5820167"><ele>568.0</ele><time>2026-03-30T09:17:58.687Z</time></trkpt><trkpt lat="42.9395317" lon="2.582075"><ele>567.5</ele><time>2026-03-30T09:18:00.686Z</time></trkpt><trkpt lat="42.9394583" lon="2.5821267"><ele>567.0</ele><time>2026-03-30T09:18:01.686Z</time></trkpt><trkpt lat="42.9393867" lon="2.5821833"><ele>566.5</ele><time>2026-03-30T09:18:02.687Z</time></trkpt><trkpt lat="42.9393267" lon="2.582235"><ele>566.0</ele><time>2026-03-30T09:18:03.686Z</time></trkpt><trkpt lat="42.9392617" lon="2.58232"><ele>565.5</ele><time>2026-03-30T09:18:05.686Z</time></trkpt><trkpt lat="42.9392483" lon="2.5824333"><ele>565.0</ele><time>2026-03-30T09:18:19.687Z</time></trkpt><trkpt lat="42.9392333" lon="2.5826233"><ele>564.8333333333334</ele><time>2026-03-30T09:18:21.686Z</time></trkpt><trkpt lat="42.9392133" lon="2.582725"><ele>564.6666666666667</ele><time>2026-03-30T09:18:22.686Z</time></trkpt><trkpt lat="42.939155" lon="2.5828483"><ele>564.5</ele><time>2026-03-30T09:18:24.685Z</time></trkpt><trkpt lat="42.9391067" lon="2.582915"><ele>564.3333333333334</ele><time>2026-03-30T09:18:27.686Z</time></trkpt><trkpt lat="42.939065" lon="2.5830117"><ele>564.1666666666666</ele><time>2026-03-30T09:20:22.685Z</time></trkpt><trkpt lat="42.9390283" lon="2.5830983"><ele>564.0</ele><time>2026-03-30T09:20:23.686Z</time></trkpt><trkpt lat="42.93899" lon="2.5831833"><ele>563.6666666666666</ele><time>2026-03-30T09:20:24.685Z</time></trkpt><trkpt lat="42.9389617" lon="2.5832617"><ele>563.3333333333334</ele><time>2026-03-30T09:20:25.685Z</time></trkpt><trkpt lat="42.938945" lon="2.5834083"><ele>563.0</ele><time>2026-03-30T09:20:27.685Z</time></trkpt><trkpt lat="42.9390033" lon="2.5835417"><ele>562.6666666666667</ele><time>2026-03-30T09:20:29.685Z</time></trkpt><trkpt lat="42.9390533" lon="2.5836183"><ele>562.3333333333334</ele><time>2026-03-30T09:20:30.686Z</time></trkpt><trkpt lat="42.9391133" lon="2.5836983"><ele>562.0</ele><time>2026-03-30T09:20:31.685Z</time></trkpt><trkpt lat="42.9391783" lon="2.58378"><ele>562.4</ele><time>2026-03-30T09:20:32.685Z</time></trkpt><trkpt lat="42.9392433" lon="2.5838783"><ele>562.8000000000001</ele><time>2026-03-30T09:20:33.685Z</time></trkpt><trkpt lat="42.9393083" lon="2.5839867"><ele>563.2</ele><time>2026-03-30T09:20:34.686Z</time></trkpt><trkpt lat="42.939375" lon="2.5841017"><ele>563.6</ele><time>2026-03-30T09:20:35.686Z</time></trkpt><trkpt lat="42.9394467" lon="2.5842083"><ele>564.0</ele><time>2026-03-30T09:20:36.685Z</time></trkpt><trkpt lat="42.9395217" lon="2.5843033"><ele>564.0</ele><time>2026-03-30T09:20:37.685Z</time></trkpt><trkpt lat="42.9395917" lon="2.5844017"><ele>564.0</ele><time>2026-03-30T09:20:38.686Z</time></trkpt><trkpt lat="42.9396517" lon="2.5845"><ele>564.0</ele><time>2026-03-30T09:20:39.685Z</time></trkpt><trkpt lat="42.9397033" lon="2.58458"><ele>564.0</ele><time>2026-03-30T09:20:40.686Z</time></trkpt><trkpt lat="42.9397533" lon="2.5846333"><ele>564.0</ele><time>2026-03-30T09:20:41.685Z</time></trkpt><trkpt lat="42.9398683" lon="2.5846333"><ele>564.0</ele><time>2026-03-30T09:20:43.685Z</time></trkpt><trkpt lat="42.9399383" lon="2.5845617"><ele>564.0</ele><time>2026-03-30T09:20:45.687Z</time></trkpt><trkpt lat="42.9399733" lon="2.5844867"><ele>564.0</ele><time>2026-03-30T09:20:48.688Z</time></trkpt><trkpt lat="42.9399567" lon="2.5845833"><ele>564.0</ele><time>2026-03-30T09:20:54.686Z</time></trkpt><trkpt lat="42.9398433" lon="2.584645"><ele>564.0</ele><time>2026-03-30T09:20:56.687Z</time></trkpt><trkpt lat="42.939775" lon="2.5847"><ele>564.0</ele><time>2026-03-30T09:20:57.686Z</time></trkpt><trkpt lat="42.9397017" lon="2.5847717"><ele>564.0</ele><time>2026-03-30T09:20:58.685Z</time></trkpt><trkpt lat="42.93962" lon="2.5848483"><ele>564.0</ele><time>2026-03-30T09:20:59.687Z</time></trkpt><trkpt lat="42.9395267" lon="2.58493"><ele>564.0</ele><time>2026-03-30T09:21:00.686Z</time></trkpt><trkpt lat="42.93943" lon="2.585005"><ele>564.0</ele><time>2026-03-30T09:21:01.688Z</time></trkpt><trkpt lat="42.9393317" lon="2.585085"><ele>564.0</ele><time>2026-03-30T09:21:02.687Z</time></trkpt><trkpt lat="42.939235" lon="2.5851617"><ele>563.0</ele><time>2026-03-30T09:21:03.687Z</time></trkpt><trkpt lat="42.9391433" lon="2.585235"><ele>562.0</ele><time>2026-03-30T09:21:04.686Z</time></trkpt><trkpt lat="42.93906" lon="2.5853167"><ele>561.0</ele><time>2026-03-30T09:21:05.687Z</time></trkpt><trkpt lat="42.9389817" lon="2.5854017"><ele>560.0</ele><time>2026-03-30T09:21:06.687Z</time></trkpt><trkpt lat="42.938905" lon="2.5854883"><ele>559.0</ele><time>2026-03-30T09:21:07.688Z</time></trkpt><trkpt lat="42.938835" lon="2.5855717"><ele>558.8333333333334</ele><time>2026-03-30T09:21:08.685Z</time></trkpt><trkpt lat="42.9387717" lon="2.585655"><ele>558.6666666666667</ele><time>2026-03-30T09:21:09.686Z</time></trkpt><trkpt lat="42.93872" lon="2.5857467"><ele>558.5</ele><time>2026-03-30T09:21:10.687Z</time></trkpt><trkpt lat="42.9386833" lon="2.58584"><ele>558.3333333333334</ele><time>2026-03-30T09:21:11.685Z</time></trkpt><trkpt lat="42.9386733" lon="2.5859433"><ele>558.1666666666666</ele><time>2026-03-30T09:21:12.686Z</time></trkpt><trkpt lat="42.9386833" lon="2.586055"><ele>558.0</ele><time>2026-03-30T09:21:13.685Z</time></trkpt><trkpt lat="42.9387083" lon="2.5861817"><ele>558.0</ele><time>2026-03-30T09:21:14.686Z</time></trkpt><trkpt lat="42.9387317" lon="2.5863233"><ele>558.0</ele><time>2026-03-30T09:21:15.685Z</time></trkpt><trkpt lat="42.9387483" lon="2.5864683"><ele>558.0</ele><time>2026-03-30T09:21:16.685Z</time></trkpt><trkpt lat="42.9387717" lon="2.58661"><ele>558.0</ele><time>2026-03-30T09:21:17.686Z</time></trkpt><trkpt lat="42.93882" lon="2.5867467"><ele>558.0</ele><time>2026-03-30T09:21:18.686Z</time></trkpt><trkpt lat="42.93887" lon="2.5868917"><ele>558.0</ele><time>2026-03-30T09:21:19.685Z</time></trkpt><trkpt lat="42.9389133" lon="2.5870417"><ele>558.0</ele><time>2026-03-30T09:21:20.687Z</time></trkpt><trkpt lat="42.9389467" lon="2.5871867"><ele>558.0</ele><time>2026-03-30T09:21:21.686Z</time></trkpt><trkpt lat="42.938975" lon="2.587325"><ele>558.0</ele><time>2026-03-30T09:21:22.686Z</time></trkpt><trkpt lat="42.938995" lon="2.587455"><ele>558.0</ele><time>2026-03-30T09:21:23.685Z</time></trkpt><trkpt lat="42.9390083" lon="2.5875817"><ele>558.0</ele><time>2026-03-30T09:21:24.685Z</time></trkpt><trkpt lat="42.9390167" lon="2.5877083"><ele>558.0</ele><time>2026-03-30T09:21:25.689Z</time></trkpt><trkpt lat="42.939025" lon="2.5878333"><ele>558.0</ele><time>2026-03-30T09:21:26.688Z</time></trkpt><trkpt lat="42.9390433" lon="2.5879533"><ele>558.0</ele><time>2026-03-30T09:21:27.686Z</time></trkpt><trkpt lat="42.9390683" lon="2.58806"><ele>558.0</ele><time>2026-03-30T09:21:28.686Z</time></trkpt><trkpt lat="42.939095" lon="2.5881617"><ele>558.0</ele><time>2026-03-30T09:21:29.687Z</time></trkpt><trkpt lat="42.93912" lon="2.588275"><ele>558.1999999999999</ele><time>2026-03-30T09:21:30.687Z</time></trkpt><trkpt lat="42.9391467" lon="2.588395"><ele>558.4</ele><time>2026-03-30T09:21:31.686Z</time></trkpt><trkpt lat="42.9391717" lon="2.5885167"><ele>558.5999999999999</ele><time>2026-03-30T09:21:32.685Z</time></trkpt><trkpt lat="42.9391983" lon="2.5886367"><ele>558.8</ele><time>2026-03-30T09:21:33.687Z</time></trkpt><trkpt lat="42.9392333" lon="2.588745"><ele>559.0</ele><time>2026-03-30T09:21:34.686Z</time></trkpt><trkpt lat="42.9393033" lon="2.58883"><ele>559.0</ele><time>2026-03-30T09:21:35.691Z</time></trkpt><trkpt lat="42.939375" lon="2.5888917"><ele>559.0</ele><time>2026-03-30T09:21:36.686Z</time></trkpt><trkpt lat="42.93945" lon="2.58896"><ele>559.0</ele><time>2026-03-30T09:21:37.686Z</time></trkpt><trkpt lat="42.939505" lon="2.58905"><ele>559.0</ele><time>2026-03-30T09:21:38.687Z</time></trkpt><trkpt lat="42.9395383" lon="2.5891533"><ele>559.0</ele><time>2026-03-30T09:21:39.686Z</time></trkpt><trkpt lat="42.9395617" lon="2.5892917"><ele>559.0</ele><time>2026-03-30T09:21:40.685Z</time></trkpt><trkpt lat="42.9395617" lon="2.5894317"><ele>556.4</ele><time>2026-03-30T09:21:41.685Z</time></trkpt><trkpt lat="42.9395533" lon="2.589565"><ele>553.8</ele><time>2026-03-30T09:21:42.687Z</time></trkpt><trkpt lat="42.9395433" lon="2.5896983"><ele>551.2</ele><time>2026-03-30T09:21:43.685Z</time></trkpt><trkpt lat="42.939535" lon="2.5898317"><ele>548.6</ele><time>2026-03-30T09:21:44.685Z</time></trkpt><trkpt lat="42.9395333" lon="2.58996"><ele>546.0</ele><time>2026-03-30T09:21:45.686Z</time></trkpt><trkpt lat="42.93955" lon="2.5900867"><ele>546.0</ele><time>2026-03-30T09:21:46.687Z</time></trkpt><trkpt lat="42.93959" lon="2.5902133"><ele>546.0</ele><time>2026-03-30T09:21:47.685Z</time></trkpt><trkpt lat="42.939635" lon="2.59033"><ele>546.0</ele><time>2026-03-30T09:21:48.686Z</time></trkpt><trkpt lat="42.939675" lon="2.5904267"><ele>546.0</ele><time>2026-03-30T09:21:49.689Z</time></trkpt><trkpt lat="42.9397267" lon="2.590505"><ele>546.0</ele><time>2026-03-30T09:21:50.687Z</time></trkpt><trkpt lat="42.939795" lon="2.590545"><ele>546.0</ele><time>2026-03-30T09:21:51.685Z</time></trkpt><trkpt lat="42.9398667" lon="2.5905517"><ele>546.6</ele><time>2026-03-30T09:21:52.688Z</time></trkpt><trkpt lat="42.9399633" lon="2.5905"><ele>547.2</ele><time>2026-03-30T09:21:53.687Z</time></trkpt><trkpt lat="42.9400683" lon="2.5904483"><ele>547.8</ele><time>2026-03-30T09:21:54.685Z</time></trkpt><trkpt lat="42.9401833" lon="2.5904283"><ele>548.4</ele><time>2026-03-30T09:21:55.685Z</time></trkpt><trkpt lat="42.9402983" lon="2.5904233"><ele>549.0</ele><time>2026-03-30T09:21:56.686Z</time></trkpt><trkpt lat="42.9404183" lon="2.590435"><ele>547.5</ele><time>2026-03-30T09:21:57.685Z</time></trkpt><trkpt lat="42.94055" lon="2.59046"><ele>546.0</ele><time>2026-03-30T09:21:58.685Z</time></trkpt><trkpt lat="42.940685" lon="2.590485"><ele>544.5</ele><time>2026-03-30T09:21:59.685Z</time></trkpt><trkpt lat="42.9408217" lon="2.5905083"><ele>543.0</ele><time>2026-03-30T09:22:00.686Z</time></trkpt><trkpt lat="42.940955" lon="2.590535"><ele>541.0</ele><time>2026-03-30T09:22:01.686Z</time></trkpt><trkpt lat="42.9410817" lon="2.590555"><ele>539.0</ele><time>2026-03-30T09:22:02.686Z</time></trkpt><trkpt lat="42.9412083" lon="2.590565"><ele>537.0</ele><time>2026-03-30T09:22:03.686Z</time></trkpt><trkpt lat="42.941325" lon="2.5905717"><ele>535.0</ele><time>2026-03-30T09:22:04.685Z</time></trkpt><trkpt lat="42.9414417" lon="2.5905867"><ele>535.0</ele><time>2026-03-30T09:22:05.685Z</time></trkpt><trkpt lat="42.941555" lon="2.59062"><ele>535.0</ele><time>2026-03-30T09:22:06.686Z</time></trkpt><trkpt lat="42.9416683" lon="2.5906667"><ele>535.0</ele><time>2026-03-30T09:22:07.685Z</time></trkpt><trkpt lat="42.9417817" lon="2.5907217"><ele>535.0</ele><time>2026-03-30T09:22:08.686Z</time></trkpt><trkpt lat="42.9418867" lon="2.590785"><ele>533.4</ele><time>2026-03-30T09:22:09.69Z</time></trkpt><trkpt lat="42.9419867" lon="2.5908483"><ele>531.8</ele><time>2026-03-30T09:22:10.687Z</time></trkpt><trkpt lat="42.9420867" lon="2.59091"><ele>530.2</ele><time>2026-03-30T09:22:11.685Z</time></trkpt><trkpt lat="42.9421817" lon="2.5909567"><ele>528.6</ele><time>2026-03-30T09:22:12.687Z</time></trkpt><trkpt lat="42.94226" lon="2.5909917"><ele>527.0</ele><time>2026-03-30T09:22:13.687Z</time></trkpt><trkpt lat="42.9423283" lon="2.5910133"><ele>527.0</ele><time>2026-03-30T09:22:14.685Z</time></trkpt><trkpt lat="42.9424033" lon="2.5910233"><ele>527.0</ele><time>2026-03-30T09:22:15.686Z</time></trkpt><trkpt lat="42.9424867" lon="2.5910183"><ele>527.0</ele><time>2026-03-30T09:22:16.686Z</time></trkpt><trkpt lat="42.9425767" lon="2.591"><ele>527.0</ele><time>2026-03-30T09:22:17.688Z</time></trkpt><trkpt lat="42.9426683" lon="2.590975"><ele>527.0</ele><time>2026-03-30T09:22:18.686Z</time></trkpt><trkpt lat="42.9427667" lon="2.590945"><ele>527.0</ele><time>2026-03-30T09:22:19.687Z</time></trkpt><trkpt lat="42.9428633" lon="2.5909133"><ele>527.3333333333333</ele><time>2026-03-30T09:22:20.686Z</time></trkpt><trkpt lat="42.9429483" lon="2.590885"><ele>527.6666666666666</ele><time>2026-03-30T09:22:21.685Z</time></trkpt><trkpt lat="42.94302" lon="2.59086"><ele>528.0</ele><time>2026-03-30T09:22:22.687Z</time></trkpt><trkpt lat="42.9430833" lon="2.590845"><ele>528.3333333333334</ele><time>2026-03-30T09:22:23.685Z</time></trkpt><trkpt lat="42.943205" lon="2.5908567"><ele>528.6666666666667</ele><time>2026-03-30T09:22:25.685Z</time></trkpt><trkpt lat="42.9432767" lon="2.5908733"><ele>529.0</ele><time>2026-03-30T09:22:26.687Z</time></trkpt><trkpt lat="42.94335" lon="2.5909067"><ele>529.2</ele><time>2026-03-30T09:22:27.685Z</time></trkpt><trkpt lat="42.943425" lon="2.5909483"><ele>529.4</ele><time>2026-03-30T09:22:28.685Z</time></trkpt><trkpt lat="42.9435067" lon="2.5909867"><ele>529.6</ele><time>2026-03-30T09:22:29.685Z</time></trkpt><trkpt lat="42.9435917" lon="2.5910233"><ele>529.8</ele><time>2026-03-30T09:22:30.687Z</time></trkpt><trkpt lat="42.943685" lon="2.5910583"><ele>530.0</ele><time>2026-03-30T09:22:31.684Z</time></trkpt><trkpt lat="42.9437883" lon="2.5910883"><ele>530.0</ele><time>2026-03-30T09:22:32.686Z</time></trkpt><trkpt lat="42.9438917" lon="2.59111"><ele>530.0</ele><time>2026-03-30T09:22:33.685Z</time></trkpt><trkpt lat="42.94399" lon="2.5911267"><ele>530.0</ele><time>2026-03-30T09:22:34.685Z</time></trkpt><trkpt lat="42.9440817" lon="2.5911483"><ele>530.0</ele><time>2026-03-30T09:22:35.685Z</time></trkpt><trkpt lat="42.94417" lon="2.5911733"><ele>530.0</ele><time>2026-03-30T09:22:36.685Z</time></trkpt><trkpt lat="42.94425" lon="2.5912167"><ele>530.0</ele><time>2026-03-30T09:22:37.686Z</time></trkpt><trkpt lat="42.9443183" lon="2.5912867"><ele>530.0</ele><time>2026-03-30T09:22:38.686Z</time></trkpt><trkpt lat="42.9443833" lon="2.5913783"><ele>530.0</ele><time>2026-03-30T09:22:39.685Z</time></trkpt><trkpt lat="42.9444483" lon="2.5914783"><ele>530.0</ele><time>2026-03-30T09:22:40.686Z</time></trkpt><trkpt lat="42.94451" lon="2.5915767"><ele>530.0</ele><time>2026-03-30T09:22:41.686Z</time></trkpt><trkpt lat="42.944575" lon="2.591665"><ele>530.0</ele><time>2026-03-30T09:22:42.686Z</time></trkpt><trkpt lat="42.94464" lon="2.5917417"><ele>530.0</ele><time>2026-03-30T09:22:43.685Z</time></trkpt><trkpt lat="42.9447" lon="2.5918117"><ele>530.0</ele><time>2026-03-30T09:22:44.687Z</time></trkpt><trkpt lat="42.944755" lon="2.5918767"><ele>530.0</ele><time>2026-03-30T09:22:45.686Z</time></trkpt><trkpt lat="42.9448317" lon="2.5919867"><ele>530.0</ele><time>2026-03-30T09:22:47.685Z</time></trkpt><trkpt lat="42.9448817" lon="2.5920867"><ele>530.0</ele><time>2026-03-30T09:22:49.686Z</time></trkpt><trkpt lat="42.9449283" lon="2.5922333"><ele>528.8333333333333</ele><time>2026-03-30T09:22:51.686Z</time></trkpt><trkpt lat="42.9449517" lon="2.5923283"><ele>527.6666666666666</ele><time>2026-03-30T09:22:52.685Z</time></trkpt><trkpt lat="42.9449683" lon="2.592435"><ele>526.5</ele><time>2026-03-30T09:22:53.688Z</time></trkpt><trkpt lat="42.9449683" lon="2.592555"><ele>525.3333333333334</ele><time>2026-03-30T09:22:54.687Z</time></trkpt><trkpt lat="42.9449567" lon="2.5926833"><ele>524.1666666666667</ele><time>2026-03-30T09:22:55.687Z</time></trkpt><trkpt lat="42.9449367" lon="2.5928217"><ele>523.0</ele><time>2026-03-30T09:22:56.687Z</time></trkpt><trkpt lat="42.9449167" lon="2.59296"><ele>522.4</ele><time>2026-03-30T09:22:57.686Z</time></trkpt><trkpt lat="42.9449017" lon="2.5931083"><ele>521.8</ele><time>2026-03-30T09:22:58.689Z</time></trkpt><trkpt lat="42.9448967" lon="2.5932617"><ele>521.2</ele><time>2026-03-30T09:22:59.688Z</time></trkpt><trkpt lat="42.9448983" lon="2.593415"><ele>520.6</ele><time>2026-03-30T09:23:00.685Z</time></trkpt><trkpt lat="42.9449033" lon="2.59357"><ele>520.0</ele><time>2026-03-30T09:23:01.684Z</time></trkpt><trkpt lat="42.9449117" lon="2.593715"><ele>519.0</ele><time>2026-03-30T09:23:02.685Z</time></trkpt><trkpt lat="42.9449267" lon="2.5938617"><ele>518.0</ele><time>2026-03-30T09:23:03.687Z</time></trkpt><trkpt lat="42.9449567" lon="2.59401"><ele>517.0</ele><time>2026-03-30T09:23:04.684Z</time></trkpt><trkpt lat="42.9449917" lon="2.5941583"><ele>516.0</ele><time>2026-03-30T09:23:05.686Z</time></trkpt><trkpt lat="42.9450333" lon="2.5943133"><ele>516.0</ele><time>2026-03-30T09:23:06.686Z</time></trkpt><trkpt lat="42.945075" lon="2.5944633"><ele>516.0</ele><time>2026-03-30T09:23:07.685Z</time></trkpt><trkpt lat="42.9451183" lon="2.59461"><ele>516.0</ele><time>2026-03-30T09:23:08.685Z</time></trkpt><trkpt lat="42.9451633" lon="2.5947517"><ele>516.0</ele><time>2026-03-30T09:23:09.685Z</time></trkpt><trkpt lat="42.9452083" lon="2.594885"><ele>516.0</ele><time>2026-03-30T09:23:10.685Z</time></trkpt><trkpt lat="42.9452467" lon="2.59501"><ele>516.0</ele><time>2026-03-30T09:23:11.685Z</time></trkpt><trkpt lat="42.9452767" lon="2.5951267"><ele>516.0</ele><time>2026-03-30T09:23:12.686Z</time></trkpt><trkpt lat="42.945315" lon="2.595235"><ele>516.0</ele><time>2026-03-30T09:23:13.685Z</time></trkpt><trkpt lat="42.9453617" lon="2.5953317"><ele>516.0</ele><time>2026-03-30T09:23:14.685Z</time></trkpt><trkpt lat="42.9454233" lon="2.595425"><ele>514.6</ele><time>2026-03-30T09:23:15.687Z</time></trkpt><trkpt lat="42.9454783" lon="2.5955283"><ele>513.2</ele><time>2026-03-30T09:23:16.687Z</time></trkpt><trkpt lat="42.945515" lon="2.5956533"><ele>511.79999999999995</ele><time>2026-03-30T09:23:17.686Z</time></trkpt><trkpt lat="42.9455317" lon="2.5957867"><ele>510.4</ele><time>2026-03-30T09:23:18.685Z</time></trkpt><trkpt lat="42.9455367" lon="2.59591"><ele>509.0</ele><time>2026-03-30T09:23:19.686Z</time></trkpt><trkpt lat="42.94554" lon="2.5960267"><ele>508.99999999999994</ele><time>2026-03-30T09:23:20.687Z</time></trkpt><trkpt lat="42.9455533" lon="2.5961467"><ele>509.0</ele><time>2026-03-30T09:23:21.689Z</time></trkpt><trkpt lat="42.9455783" lon="2.5962617"><ele>509.0</ele><time>2026-03-30T09:23:22.685Z</time></trkpt><trkpt lat="42.9456133" lon="2.5963667"><ele>509.0</ele><time>2026-03-30T09:23:23.688Z</time></trkpt><trkpt lat="42.94566" lon="2.5964583"><ele>508.99999999999994</ele><time>2026-03-30T09:23:24.685Z</time></trkpt><trkpt lat="42.9457133" lon="2.5965433"><ele>509.0</ele><time>2026-03-30T09:23:25.686Z</time></trkpt><trkpt lat="42.9457867" lon="2.596605"><ele>508.3333333333333</ele><time>2026-03-30T09:23:26.687Z</time></trkpt><trkpt lat="42.945865" lon="2.5966367"><ele>507.66666666666663</ele><time>2026-03-30T09:23:27.686Z</time></trkpt><trkpt lat="42.9459283" lon="2.5966717"><ele>507.0</ele><time>2026-03-30T09:23:28.687Z</time></trkpt><trkpt lat="42.9459833" lon="2.59672"><ele>506.33333333333337</ele><time>2026-03-30T09:23:29.686Z</time></trkpt><trkpt lat="42.9460367" lon="2.5968783"><ele>505.6666666666667</ele><time>2026-03-30T09:23:31.687Z</time></trkpt><trkpt lat="42.9460467" lon="2.5969817"><ele>505.0</ele><time>2026-03-30T09:23:32.687Z</time></trkpt><trkpt lat="42.9460467" lon="2.5971"><ele>508.1666666666667</ele><time>2026-03-30T09:23:33.684Z</time></trkpt><trkpt lat="42.9460417" lon="2.59722"><ele>511.33333333333337</ele><time>2026-03-30T09:23:34.686Z</time></trkpt><trkpt lat="42.9460367" lon="2.5973233"><ele>514.5</ele><time>2026-03-30T09:23:35.685Z</time></trkpt><trkpt lat="42.9460117" lon="2.5974483"><ele>517.6666666666666</ele><time>2026-03-30T09:23:37.686Z</time></trkpt><trkpt lat="42.9459667" lon="2.5975717"><ele>520.8333333333333</ele><time>2026-03-30T09:30:20.687Z</time></trkpt><trkpt lat="42.94599" lon="2.59767"><ele>524.0</ele><time>2026-03-30T09:30:22.688Z</time></trkpt><trkpt lat="42.9459917" lon="2.597825"><ele>524.1666666666666</ele><time>2026-03-30T09:30:24.685Z</time></trkpt><trkpt lat="42.94597" lon="2.597995"><ele>524.3333333333333</ele><time>2026-03-30T09:30:26.686Z</time></trkpt><trkpt lat="42.945955" lon="2.5980933"><ele>524.5</ele><time>2026-03-30T09:30:27.686Z</time></trkpt><trkpt lat="42.9459383" lon="2.5982"><ele>524.6666666666666</ele><time>2026-03-30T09:30:28.687Z</time></trkpt><trkpt lat="42.9459167" lon="2.59831"><ele>524.8333333333334</ele><time>2026-03-30T09:30:29.687Z</time></trkpt><trkpt lat="42.9458967" lon="2.5984233"><ele>525.0</ele><time>2026-03-30T09:30:30.687Z</time></trkpt><trkpt lat="42.94588" lon="2.59855"><ele>521.4</ele><time>2026-03-30T09:30:31.687Z</time></trkpt><trkpt lat="42.9458617" lon="2.5986783"><ele>517.8</ele><time>2026-03-30T09:30:32.687Z</time></trkpt><trkpt lat="42.9458467" lon="2.5988083"><ele>514.2</ele><time>2026-03-30T09:30:33.686Z</time></trkpt><trkpt lat="42.9458367" lon="2.5989383"><ele>510.6</ele><time>2026-03-30T09:30:34.687Z</time></trkpt><trkpt lat="42.94583" lon="2.5990717"><ele>507.0</ele><time>2026-03-30T09:30:35.686Z</time></trkpt><trkpt lat="42.945815" lon="2.5991983"><ele>507.0</ele><time>2026-03-30T09:30:36.688Z</time></trkpt><trkpt lat="42.94579" lon="2.5993183"><ele>507.0</ele><time>2026-03-30T09:30:37.687Z</time></trkpt><trkpt lat="42.9457633" lon="2.59942"><ele>507.0</ele><time>2026-03-30T09:30:38.687Z</time></trkpt><trkpt lat="42.9457567" lon="2.5995233"><ele>507.0</ele><time>2026-03-30T09:30:39.687Z</time></trkpt><trkpt lat="42.9457583" lon="2.59963"><ele>507.0</ele><time>2026-03-30T09:30:40.686Z</time></trkpt><trkpt lat="42.94577" lon="2.5997267"><ele>507.0</ele><time>2026-03-30T09:30:41.686Z</time></trkpt><trkpt lat="42.9457967" lon="2.5998083"><ele>506.1666666666667</ele><time>2026-03-30T09:30:42.686Z</time></trkpt><trkpt lat="42.9458467" lon="2.59988"><ele>505.33333333333337</ele><time>2026-03-30T09:30:43.685Z</time></trkpt><trkpt lat="42.9459117" lon="2.5999417"><ele>504.5</ele><time>2026-03-30T09:30:44.686Z</time></trkpt><trkpt lat="42.94598" lon="2.599995"><ele>503.6666666666667</ele><time>2026-03-30T09:30:45.686Z</time></trkpt><trkpt lat="42.9460583" lon="2.60004"><ele>502.83333333333337</ele><time>2026-03-30T09:30:46.687Z</time></trkpt><trkpt lat="42.9461417" lon="2.6000567"><ele>502.0</ele><time>2026-03-30T09:30:47.686Z</time></trkpt><trkpt lat="42.9462217" lon="2.600055"><ele>506.20000000000005</ele><time>2026-03-30T09:30:48.686Z</time></trkpt><trkpt lat="42.9462917" lon="2.6000233"><ele>510.40000000000003</ele><time>2026-03-30T09:30:49.685Z</time></trkpt><trkpt lat="42.9463933" lon="2.5999867"><ele>514.5999999999999</ele><time>2026-03-30T09:30:51.685Z</time></trkpt><trkpt lat="42.946455" lon="2.6000217"><ele>518.8</ele><time>2026-03-30T09:30:53.687Z</time></trkpt><trkpt lat="42.94646" lon="2.6001483"><ele>523.0</ele><time>2026-03-30T09:30:55.685Z</time></trkpt><trkpt lat="42.9464283" lon="2.6003183"><ele>521.8333333333334</ele><time>2026-03-30T09:30:57.685Z</time></trkpt><trkpt lat="42.9464267" lon="2.6004117"><ele>520.6666666666667</ele><time>2026-03-30T09:30:58.687Z</time></trkpt><trkpt lat="42.94644" lon="2.6005017"><ele>519.5</ele><time>2026-03-30T09:30:59.686Z</time></trkpt><trkpt lat="42.94647" lon="2.60059"><ele>518.3333333333334</ele><time>2026-03-30T09:31:00.686Z</time></trkpt><trkpt lat="42.94651" lon="2.60068"><ele>517.1666666666666</ele><time>2026-03-30T09:31:01.686Z</time></trkpt><trkpt lat="42.9465533" lon="2.600775"><ele>516.0</ele><time>2026-03-30T09:31:02.689Z</time></trkpt><trkpt lat="42.9465983" lon="2.6008717"><ele>516.0</ele><time>2026-03-30T09:31:03.687Z</time></trkpt><trkpt lat="42.9466383" lon="2.60097"><ele>516.0</ele><time>2026-03-30T09:31:04.686Z</time></trkpt><trkpt lat="42.94668" lon="2.6010567"><ele>516.0</ele><time>2026-03-30T09:31:05.686Z</time></trkpt><trkpt lat="42.9467283" lon="2.601145"><ele>516.0</ele><time>2026-03-30T09:31:06.686Z</time></trkpt><trkpt lat="42.94678" lon="2.601235"><ele>516.0</ele><time>2026-03-30T09:31:07.691Z</time></trkpt><trkpt lat="42.9468367" lon="2.601325"><ele>516.0</ele><time>2026-03-30T09:31:08.687Z</time></trkpt><trkpt lat="42.9469" lon="2.6014217"><ele>518.8</ele><time>2026-03-30T09:31:09.687Z</time></trkpt><trkpt lat="42.94696" lon="2.6015283"><ele>521.6</ele><time>2026-03-30T09:31:10.686Z</time></trkpt><trkpt lat="42.9470183" lon="2.6016383"><ele>524.4</ele><time>2026-03-30T09:31:11.686Z</time></trkpt><trkpt lat="42.9470783" lon="2.601735"><ele>527.2</ele><time>2026-03-30T09:31:12.686Z</time></trkpt><trkpt lat="42.947145" lon="2.60182"><ele>530.0</ele><time>2026-03-30T09:31:13.687Z</time></trkpt><trkpt lat="42.9472183" lon="2.6018833"><ele>530.0</ele><time>2026-03-30T09:31:14.686Z</time></trkpt><trkpt lat="42.9472917" lon="2.60192"><ele>530.0</ele><time>2026-03-30T09:31:15.685Z</time></trkpt><trkpt lat="42.947375" lon="2.6019283"><ele>530.0</ele><time>2026-03-30T09:31:16.686Z</time></trkpt><trkpt lat="42.9474617" lon="2.6019167"><ele>530.0</ele><time>2026-03-30T09:31:17.686Z</time></trkpt><trkpt lat="42.9475467" lon="2.60189"><ele>530.0</ele><time>2026-03-30T09:31:18.686Z</time></trkpt><trkpt lat="42.947625" lon="2.60186"><ele>530.0</ele><time>2026-03-30T09:31:19.687Z</time></trkpt><trkpt lat="42.9476933" lon="2.6018333"><ele>529.0</ele><time>2026-03-30T09:31:20.688Z</time></trkpt><trkpt lat="42.9477883" lon="2.6018733"><ele>528.0</ele><time>2026-03-30T09:31:22.686Z</time></trkpt><trkpt lat="42.9478017" lon="2.6020167"><ele>527.0</ele><time>2026-03-30T09:31:24.686Z</time></trkpt><trkpt lat="42.947795" lon="2.6021067"><ele>526.0</ele><time>2026-03-30T09:31:25.685Z</time></trkpt><trkpt lat="42.94781" lon="2.6021983"><ele>525.0</ele><time>2026-03-30T09:31:26.69Z</time></trkpt><trkpt lat="42.9478467" lon="2.602275"><ele>524.0</ele><time>2026-03-30T09:31:27.686Z</time></trkpt><trkpt lat="42.947905" lon="2.60232"><ele>524.0</ele><time>2026-03-30T09:31:28.685Z</time></trkpt><trkpt lat="42.94798" lon="2.60234"><ele>524.0</ele><time>2026-03-30T09:31:29.686Z</time></trkpt><trkpt lat="42.94806" lon="2.6023333"><ele>524.0</ele><time>2026-03-30T09:31:30.686Z</time></trkpt><trkpt lat="42.94814" lon="2.60231"><ele>524.0</ele><time>2026-03-30T09:31:31.686Z</time></trkpt><trkpt lat="42.9482133" lon="2.6022617"><ele>524.0</ele><time>2026-03-30T09:31:32.687Z</time></trkpt><trkpt lat="42.9482917" lon="2.6021967"><ele>524.0</ele><time>2026-03-30T09:31:33.687Z</time></trkpt><trkpt lat="42.9483717" lon="2.60213"><ele>526.8</ele><time>2026-03-30T09:31:34.685Z</time></trkpt><trkpt lat="42.948455" lon="2.6020683"><ele>529.5999999999999</ele><time>2026-03-30T09:31:35.687Z</time></trkpt><trkpt lat="42.9485433" lon="2.6020033"><ele>532.4</ele><time>2026-03-30T09:31:36.686Z</time></trkpt><trkpt lat="42.9486317" lon="2.6019467"><ele>535.1999999999999</ele><time>2026-03-30T09:31:37.689Z</time></trkpt><trkpt lat="42.9487133" lon="2.6018967"><ele>538.0</ele><time>2026-03-30T09:31:38.686Z</time></trkpt><trkpt lat="42.9487883" lon="2.6018583"><ele>538.0</ele><time>2026-03-30T09:31:39.686Z</time></trkpt><trkpt lat="42.9488567" lon="2.6018517"><ele>538.0</ele><time>2026-03-30T09:31:40.687Z</time></trkpt><trkpt lat="42.9489217" lon="2.6018833"><ele>538.0</ele><time>2026-03-30T09:31:41.688Z</time></trkpt><trkpt lat="42.9489767" lon="2.60195"><ele>538.0</ele><time>2026-03-30T09:31:42.686Z</time></trkpt><trkpt lat="42.949015" lon="2.6020317"><ele>538.0</ele><time>2026-03-30T09:31:43.688Z</time></trkpt><trkpt lat="42.9490317" lon="2.6021283"><ele>538.0</ele><time>2026-03-30T09:31:44.687Z</time></trkpt><trkpt lat="42.9490517" lon="2.6022283"><ele>538.0</ele><time>2026-03-30T09:31:45.687Z</time></trkpt><trkpt lat="42.94908" lon="2.60234"><ele>538.0</ele><time>2026-03-30T09:31:46.687Z</time></trkpt><trkpt lat="42.9491067" lon="2.602455"><ele>538.0</ele><time>2026-03-30T09:31:47.686Z</time></trkpt><trkpt lat="42.9491383" lon="2.6025717"><ele>538.0</ele><time>2026-03-30T09:31:48.688Z</time></trkpt><trkpt lat="42.9491683" lon="2.6026817"><ele>538.0</ele><time>2026-03-30T09:31:49.687Z</time></trkpt><trkpt lat="42.9491917" lon="2.6027817"><ele>538.0</ele><time>2026-03-30T09:31:50.689Z</time></trkpt><trkpt lat="42.94919" lon="2.6029417"><ele>536.4</ele><time>2026-03-30T09:31:52.687Z</time></trkpt><trkpt lat="42.9491783" lon="2.6030517"><ele>534.8</ele><time>2026-03-30T09:31:54.686Z</time></trkpt><trkpt lat="42.94916" lon="2.6031783"><ele>533.2</ele><time>2026-03-30T09:32:13.687Z</time></trkpt><trkpt lat="42.9491567" lon="2.6033283"><ele>531.6</ele><time>2026-03-30T09:32:15.693Z</time></trkpt><trkpt lat="42.9491867" lon="2.6034717"><ele>530.0</ele><time>2026-03-30T09:32:17.686Z</time></trkpt><trkpt lat="42.94922" lon="2.6035483"><ele>529.3333333333333</ele><time>2026-03-30T09:32:18.685Z</time></trkpt><trkpt lat="42.9492533" lon="2.60364"><ele>528.6666666666666</ele><time>2026-03-30T09:32:19.685Z</time></trkpt><trkpt lat="42.949295" lon="2.6037283"><ele>528.0</ele><time>2026-03-30T09:32:20.688Z</time></trkpt><trkpt lat="42.9493467" lon="2.603815"><ele>527.3333333333334</ele><time>2026-03-30T09:32:21.688Z</time></trkpt><trkpt lat="42.9493933" lon="2.6039017"><ele>526.6666666666667</ele><time>2026-03-30T09:32:22.685Z</time></trkpt><trkpt lat="42.9494517" lon="2.6039917"><ele>526.0</ele><time>2026-03-30T09:32:23.686Z</time></trkpt><trkpt lat="42.94951" lon="2.6040817"><ele>526.0</ele><time>2026-03-30T09:32:24.685Z</time></trkpt><trkpt lat="42.9495667" lon="2.6041733"><ele>526.0</ele><time>2026-03-30T09:32:25.686Z</time></trkpt><trkpt lat="42.9496267" lon="2.604265"><ele>526.0</ele><time>2026-03-30T09:32:26.688Z</time></trkpt><trkpt lat="42.949685" lon="2.60437"><ele>526.0</ele><time>2026-03-30T09:32:27.686Z</time></trkpt><trkpt lat="42.9497317" lon="2.6044783"><ele>526.0</ele><time>2026-03-30T09:32:28.687Z</time></trkpt><trkpt lat="42.94977" lon="2.6046"><ele>527.4</ele><time>2026-03-30T09:32:29.688Z</time></trkpt><trkpt lat="42.9497883" lon="2.6047467"><ele>528.8</ele><time>2026-03-30T09:32:30.687Z</time></trkpt><trkpt lat="42.9498033" lon="2.6049"><ele>530.1999999999999</ele><time>2026-03-30T09:32:31.687Z</time></trkpt><trkpt lat="42.9498217" lon="2.6050467"><ele>531.6</ele><time>2026-03-30T09:32:32.691Z</time></trkpt><trkpt lat="42.9498417" lon="2.6051833"><ele>533.0</ele><time>2026-03-30T09:32:33.686Z</time></trkpt><trkpt lat="42.9498617" lon="2.6053133"><ele>532.3333333333333</ele><time>2026-03-30T09:32:34.687Z</time></trkpt><trkpt lat="42.94987" lon="2.6054283"><ele>531.6666666666666</ele><time>2026-03-30T09:32:35.686Z</time></trkpt><trkpt lat="42.94986" lon="2.6055317"><ele>531.0</ele><time>2026-03-30T09:32:36.686Z</time></trkpt><trkpt lat="42.9498367" lon="2.6056283"><ele>530.3333333333334</ele><time>2026-03-30T09:32:37.687Z</time></trkpt><trkpt lat="42.9498033" lon="2.6057083"><ele>529.6666666666667</ele><time>2026-03-30T09:32:38.689Z</time></trkpt><trkpt lat="42.9497733" lon="2.60579"><ele>529.0</ele><time>2026-03-30T09:32:39.692Z</time></trkpt><trkpt lat="42.949765" lon="2.60594"><ele>529.0</ele><time>2026-03-30T09:32:41.685Z</time></trkpt><trkpt lat="42.9497967" lon="2.606015"><ele>529.0</ele><time>2026-03-30T09:32:42.686Z</time></trkpt><trkpt lat="42.9498483" lon="2.6060783"><ele>529.0</ele><time>2026-03-30T09:32:43.686Z</time></trkpt><trkpt lat="42.9499317" lon="2.6061383"><ele>529.0</ele><time>2026-03-30T09:32:44.687Z</time></trkpt><trkpt lat="42.9500183" lon="2.6062083"><ele>529.0</ele><time>2026-03-30T09:32:45.686Z</time></trkpt><trkpt lat="42.950115" lon="2.6062867"><ele>529.0</ele><time>2026-03-30T09:32:46.685Z</time></trkpt><trkpt lat="42.95022" lon="2.6063667"><ele>528.8</ele><time>2026-03-30T09:32:47.687Z</time></trkpt><trkpt lat="42.9503217" lon="2.6064333"><ele>528.5999999999999</ele><time>2026-03-30T09:32:48.685Z</time></trkpt><trkpt lat="42.9504217" lon="2.6064933"><ele>528.4</ele><time>2026-03-30T09:32:49.686Z</time></trkpt><trkpt lat="42.9505283" lon="2.6065383"><ele>528.1999999999999</ele><time>2026-03-30T09:32:50.686Z</time></trkpt><trkpt lat="42.9506333" lon="2.606555"><ele>528.0</ele><time>2026-03-30T09:32:51.689Z</time></trkpt><trkpt lat="42.9507433" lon="2.606555"><ele>528.0</ele><time>2026-03-30T09:32:52.685Z</time></trkpt><trkpt lat="42.95085" lon="2.6065433"><ele>528.0</ele><time>2026-03-30T09:32:53.687Z</time></trkpt><trkpt lat="42.9509517" lon="2.6065217"><ele>528.0</ele><time>2026-03-30T09:32:54.685Z</time></trkpt><trkpt lat="42.9510433" lon="2.6065"><ele>528.0</ele><time>2026-03-30T09:32:55.686Z</time></trkpt><trkpt lat="42.95112" lon="2.6064783"><ele>528.0</ele><time>2026-03-30T09:32:56.685Z</time></trkpt><trkpt lat="42.9511817" lon="2.6064567"><ele>528.0</ele><time>2026-03-30T09:32:57.686Z</time></trkpt><trkpt lat="42.9512667" lon="2.6064483"><ele>528.0</ele><time>2026-03-30T09:32:59.686Z</time></trkpt><trkpt lat="42.9511483" lon="2.606455"><ele>528.0</ele><time>2026-03-30T09:33:23.686Z</time></trkpt><trkpt lat="42.951015" lon="2.6064917"><ele>528.0</ele><time>2026-03-30T09:33:25.69Z</time></trkpt><trkpt lat="42.9509417" lon="2.6065067"><ele>528.0</ele><time>2026-03-30T09:33:26.686Z</time></trkpt><trkpt lat="42.9508683" lon="2.6065217"><ele>528.0</ele><time>2026-03-30T09:33:27.685Z</time></trkpt><trkpt lat="42.9507917" lon="2.6065417"><ele>528.0</ele><time>2026-03-30T09:33:28.688Z</time></trkpt><trkpt lat="42.95069" lon="2.606555"><ele>528.0</ele><time>2026-03-30T09:33:30.686Z</time></trkpt><trkpt lat="42.9506167" lon="2.6065767"><ele>528.0</ele><time>2026-03-30T09:33:32.687Z</time></trkpt><trkpt lat="42.9506833" lon="2.60649"><ele>528.0</ele><time>2026-03-30T09:33:43.685Z</time></trkpt><trkpt lat="42.950755" lon="2.6064233"><ele>528.0</ele><time>2026-03-30T09:33:45.685Z</time></trkpt><trkpt lat="42.9508483" lon="2.606345"><ele>527.6</ele><time>2026-03-30T09:33:47.687Z</time></trkpt><trkpt lat="42.9509717" lon="2.6062983"><ele>527.1999999999999</ele><time>2026-03-30T09:33:49.687Z</time></trkpt><trkpt lat="42.9510967" lon="2.6062667"><ele>526.8</ele><time>2026-03-30T09:33:51.687Z</time></trkpt><trkpt lat="42.95116" lon="2.60626"><ele>526.4</ele><time>2026-03-30T09:33:52.686Z</time></trkpt><trkpt lat="42.9512883" lon="2.60626"><ele>526.0</ele><time>2026-03-30T09:33:54.687Z</time></trkpt><trkpt lat="42.951405" lon="2.6062333"><ele>526.0</ele><time>2026-03-30T09:33:56.687Z</time></trkpt><trkpt lat="42.9514683" lon="2.6062217"><ele>526.0</ele><time>2026-03-30T09:33:57.686Z</time></trkpt><trkpt lat="42.9515783" lon="2.606185"><ele>526.0</ele><time>2026-03-30T09:33:59.687Z</time></trkpt><trkpt lat="42.9516767" lon="2.606165"><ele>526.0</ele><time>2026-03-30T09:34:01.685Z</time></trkpt><trkpt lat="42.9517833" lon="2.6061317"><ele>526.0</ele><time>2026-03-30T09:34:03.688Z</time></trkpt><trkpt lat="42.9518467" lon="2.60611"><ele>521.1666666666667</ele><time>2026-03-30T09:34:04.689Z</time></trkpt><trkpt lat="42.95191" lon="2.6060867"><ele>516.3333333333334</ele><time>2026-03-30T09:34:05.686Z</time></trkpt><trkpt lat="42.9519767" lon="2.6060683"><ele>511.5</ele><time>2026-03-30T09:34:06.686Z</time></trkpt><trkpt lat="42.9520417" lon="2.6060633"><ele>506.66666666666663</ele><time>2026-03-30T09:34:07.688Z</time></trkpt><trkpt lat="42.95215" lon="2.60606"><ele>501.8333333333333</ele><time>2026-03-30T09:34:09.686Z</time></trkpt><trkpt lat="42.9522283" lon="2.6060467"><ele>497.0</ele><time>2026-03-30T09:34:12.685Z</time></trkpt><trkpt lat="42.9522883" lon="2.6060133"><ele>497.0</ele><time>2026-03-30T09:45:43.685Z</time></trkpt><trkpt lat="42.9523733" lon="2.60599"><ele>497.00000000000006</ele><time>2026-03-30T09:45:45.684Z</time></trkpt><trkpt lat="42.9524967" lon="2.6059267"><ele>497.00000000000006</ele><time>2026-03-30T09:45:47.685Z</time></trkpt><trkpt lat="42.95257" lon="2.6058917"><ele>497.0</ele><time>2026-03-30T09:45:48.685Z</time></trkpt><trkpt lat="42.9526883" lon="2.605855"><ele>497.0</ele><time>2026-03-30T09:45:50.686Z</time></trkpt><trkpt lat="42.9527617" lon="2.6058567"><ele>496.1428571428571</ele><time>2026-03-30T09:45:51.686Z</time></trkpt><trkpt lat="42.952825" lon="2.6058483"><ele>495.2857142857143</ele><time>2026-03-30T09:45:52.684Z</time></trkpt><trkpt lat="42.9529017" lon="2.6058517"><ele>494.42857142857144</ele><time>2026-03-30T09:45:53.686Z</time></trkpt><trkpt lat="42.9529817" lon="2.6058517"><ele>493.57142857142856</ele><time>2026-03-30T09:45:54.764Z</time></trkpt><trkpt lat="42.9530583" lon="2.6058483"><ele>492.71428571428567</ele><time>2026-03-30T09:45:55.689Z</time></trkpt><trkpt lat="42.9531317" lon="2.6058417"><ele>491.85714285714283</ele><time>2026-03-30T09:45:56.685Z</time></trkpt><trkpt lat="42.9532" lon="2.60584"><ele>491.0</ele><time>2026-03-30T09:45:57.686Z</time></trkpt><trkpt lat="42.953265" lon="2.6058267"><ele>490.0</ele><time>2026-03-30T09:45:58.685Z</time></trkpt><trkpt lat="42.9533767" lon="2.6058283"><ele>489.0</ele><time>2026-03-30T09:46:00.685Z</time></trkpt><trkpt lat="42.9534967" lon="2.6058517"><ele>488.0</ele><time>2026-03-30T09:46:02.686Z</time></trkpt><trkpt lat="42.9535633" lon="2.6058717"><ele>487.0</ele><time>2026-03-30T09:46:03.686Z</time></trkpt><trkpt lat="42.9536867" lon="2.6058683"><ele>486.0</ele><time>2026-03-30T09:46:05.686Z</time></trkpt><trkpt lat="42.953795" lon="2.605855"><ele>486.0</ele><time>2026-03-30T09:46:07.689Z</time></trkpt><trkpt lat="42.9539183" lon="2.60585"><ele>486.0</ele><time>2026-03-30T09:46:09.685Z</time></trkpt><trkpt lat="42.9540283" lon="2.6058517"><ele>486.0</ele><time>2026-03-30T09:46:11.686Z</time></trkpt><trkpt lat="42.9541583" lon="2.605875"><ele>486.0</ele><time>2026-03-30T09:46:13.686Z</time></trkpt><trkpt lat="42.9542317" lon="2.6058817"><ele>486.0</ele><time>2026-03-30T09:46:14.687Z</time></trkpt><trkpt lat="42.95434" lon="2.6059083"><ele>483.4</ele><time>2026-03-30T09:46:16.69Z</time></trkpt><trkpt lat="42.9544083" lon="2.6059333"><ele>480.8</ele><time>2026-03-30T09:46:18.687Z</time></trkpt><trkpt lat="42.95449" lon="2.6059483"><ele>478.19999999999993</ele><time>2026-03-30T09:46:20.687Z</time></trkpt><trkpt lat="42.954595" lon="2.6059883"><ele>475.59999999999997</ele><time>2026-03-30T09:46:22.688Z</time></trkpt><trkpt lat="42.9547167" lon="2.6060117"><ele>473.0</ele><time>2026-03-30T09:46:24.688Z</time></trkpt><trkpt lat="42.9547867" lon="2.60602"><ele>473.0</ele><time>2026-03-30T09:46:25.687Z</time></trkpt><trkpt lat="42.9548567" lon="2.60602"><ele>472.99999999999994</ele><time>2026-03-30T09:46:26.687Z</time></trkpt><trkpt lat="42.9549217" lon="2.6060283"><ele>472.99999999999994</ele><time>2026-03-30T09:46:27.686Z</time></trkpt><trkpt lat="42.9550317" lon="2.6060517"><ele>473.0</ele><time>2026-03-30T09:46:29.687Z</time></trkpt><trkpt lat="42.9551467" lon="2.6060867"><ele>473.0</ele><time>2026-03-30T09:46:31.686Z</time></trkpt><trkpt lat="42.9552683" lon="2.6061383"><ele>471.79999999999995</ele><time>2026-03-30T09:46:33.686Z</time></trkpt><trkpt lat="42.9553717" lon="2.606195"><ele>470.59999999999997</ele><time>2026-03-30T09:46:35.685Z</time></trkpt><trkpt lat="42.95546" lon="2.606255"><ele>469.40000000000003</ele><time>2026-03-30T09:46:37.688Z</time></trkpt><trkpt lat="42.9555583" lon="2.60633"><ele>468.20000000000005</ele><time>2026-03-30T09:46:39.685Z</time></trkpt><trkpt lat="42.9556567" lon="2.6064317"><ele>467.0</ele><time>2026-03-30T09:46:41.686Z</time></trkpt><trkpt lat="42.955745" lon="2.60653"><ele>467.0</ele><time>2026-03-30T09:46:43.686Z</time></trkpt><trkpt lat="42.95585" lon="2.606625"><ele>467.00000000000006</ele><time>2026-03-30T09:46:45.688Z</time></trkpt><trkpt lat="42.9559317" lon="2.606705"><ele>467.00000000000006</ele><time>2026-03-30T09:46:47.686Z</time></trkpt><trkpt lat="42.9560033" lon="2.606795"><ele>467.0</ele><time>2026-03-30T09:46:49.687Z</time></trkpt><trkpt lat="42.9560717" lon="2.60688"><ele>467.0</ele><time>2026-03-30T09:46:51.687Z</time></trkpt><trkpt lat="42.95614" lon="2.607"><ele>462.40000000000003</ele><time>2026-03-30T09:46:53.687Z</time></trkpt><trkpt lat="42.95619" lon="2.6071383"><ele>457.80000000000007</ele><time>2026-03-30T09:46:55.685Z</time></trkpt><trkpt lat="42.9562317" lon="2.6073067"><ele>453.2</ele><time>2026-03-30T09:46:57.686Z</time></trkpt><trkpt lat="42.9562567" lon="2.6074067"><ele>448.6</ele><time>2026-03-30T09:46:58.687Z</time></trkpt><trkpt lat="42.95628" lon="2.6075033"><ele>444.0</ele><time>2026-03-30T09:46:59.687Z</time></trkpt><trkpt lat="42.9562967" lon="2.6076"><ele>444.0</ele><time>2026-03-30T09:47:00.687Z</time></trkpt><trkpt lat="42.95631" lon="2.6076933"><ele>444.0</ele><time>2026-03-30T09:47:01.686Z</time></trkpt><trkpt lat="42.9563183" lon="2.607785"><ele>444.0</ele><time>2026-03-30T09:47:02.688Z</time></trkpt><trkpt lat="42.9563317" lon="2.6078767"><ele>444.0</ele><time>2026-03-30T09:47:03.686Z</time></trkpt><trkpt lat="42.9563533" lon="2.607965"><ele>444.0</ele><time>2026-03-30T09:47:04.686Z</time></trkpt><trkpt lat="42.9563783" lon="2.608045"><ele>444.0</ele><time>2026-03-30T09:47:05.685Z</time></trkpt><trkpt lat="42.9564017" lon="2.6081267"><ele>444.0</ele><time>2026-03-30T09:47:06.687Z</time></trkpt><trkpt lat="42.95642" lon="2.6082733"><ele>444.0</ele><time>2026-03-30T09:47:08.687Z</time></trkpt><trkpt lat="42.9564283" lon="2.6084133"><ele>444.0</ele><time>2026-03-30T09:47:10.687Z</time></trkpt><trkpt lat="42.9564383" lon="2.608565"><ele>444.0</ele><time>2026-03-30T09:47:12.689Z</time></trkpt><trkpt lat="42.9564367" lon="2.6086683"><ele>444.0</ele><time>2026-03-30T09:47:14.687Z</time></trkpt><trkpt lat="42.9565033" lon="2.6086933"><ele>444.0</ele><time>2026-03-30T09:47:17.687Z</time></trkpt><trkpt lat="42.9565717" lon="2.6086217"><ele>444.0</ele><time>2026-03-30T09:47:19.691Z</time></trkpt><trkpt lat="42.9566533" lon="2.6085083"><ele>444.0</ele><time>2026-03-30T09:47:21.686Z</time></trkpt><trkpt lat="42.956695" lon="2.6084367"><ele>444.0</ele><time>2026-03-30T09:47:22.686Z</time></trkpt><trkpt lat="42.956735" lon="2.6083617"><ele>444.0</ele><time>2026-03-30T09:47:23.688Z</time></trkpt><trkpt lat="42.95678" lon="2.6082917"><ele>444.0</ele><time>2026-03-30T09:47:24.688Z</time></trkpt><trkpt lat="42.956825" lon="2.6082233"><ele>444.0</ele><time>2026-03-30T09:47:25.686Z</time></trkpt><trkpt lat="42.9568717" lon="2.6081567"><ele>444.0</ele><time>2026-03-30T09:47:26.686Z</time></trkpt><trkpt lat="42.9569133" lon="2.6080883"><ele>444.0</ele><time>2026-03-30T09:47:27.688Z</time></trkpt><trkpt lat="42.9569933" lon="2.6079517"><ele>440.8333333333333</ele><time>2026-03-30T09:47:29.686Z</time></trkpt><trkpt lat="42.9570383" lon="2.607865"><ele>437.66666666666663</ele><time>2026-03-30T09:47:30.686Z</time></trkpt><trkpt lat="42.9570817" lon="2.6077683"><ele>434.5</ele><time>2026-03-30T09:47:31.687Z</time></trkpt><trkpt lat="42.9571233" lon="2.607675"><ele>431.3333333333333</ele><time>2026-03-30T09:47:32.688Z</time></trkpt><trkpt lat="42.957165" lon="2.6075833"><ele>428.16666666666663</ele><time>2026-03-30T09:47:33.686Z</time></trkpt><trkpt lat="42.9572083" lon="2.6074917"><ele>425.0</ele><time>2026-03-30T09:47:34.685Z</time></trkpt><trkpt lat="42.9572517" lon="2.6074033"><ele>424.66666666666663</ele><time>2026-03-30T09:47:35.687Z</time></trkpt><trkpt lat="42.9572967" lon="2.6073183"><ele>424.3333333333333</ele><time>2026-03-30T09:47:36.686Z</time></trkpt><trkpt lat="42.9573367" lon="2.6072383"><ele>424.0</ele><time>2026-03-30T09:47:37.685Z</time></trkpt><trkpt lat="42.9573733" lon="2.60716"><ele>423.66666666666663</ele><time>2026-03-30T09:47:38.686Z</time></trkpt><trkpt lat="42.9574067" lon="2.607085"><ele>423.3333333333333</ele><time>2026-03-30T09:47:39.685Z</time></trkpt><trkpt lat="42.95747" lon="2.6069533"><ele>423.0</ele><time>2026-03-30T09:47:41.685Z</time></trkpt><trkpt lat="42.95752" lon="2.606865"><ele>420.8333333333333</ele><time>2026-03-30T09:47:43.688Z</time></trkpt><trkpt lat="42.957575" lon="2.606815"><ele>418.66666666666663</ele><time>2026-03-30T09:47:48.686Z</time></trkpt><trkpt lat="42.9576" lon="2.6067283"><ele>416.5</ele><time>2026-03-30T09:47:55.686Z</time></trkpt><trkpt lat="42.9576117" lon="2.6066367"><ele>414.3333333333333</ele><time>2026-03-30T09:48:01.686Z</time></trkpt><trkpt lat="42.9576267" lon="2.6065333"><ele>412.16666666666663</ele><time>2026-03-30T09:48:04.686Z</time></trkpt><trkpt lat="42.9576767" lon="2.60632"><ele>410.0</ele><time>2026-03-30T09:49:35.686Z</time></trkpt><trkpt lat="42.95768" lon="2.6062067"><ele>409.4</ele><time>2026-03-30T09:49:36.686Z</time></trkpt><trkpt lat="42.9576783" lon="2.6060883"><ele>408.8</ele><time>2026-03-30T09:49:37.687Z</time></trkpt><trkpt lat="42.957675" lon="2.6059783"><ele>408.20000000000005</ele><time>2026-03-30T09:49:38.688Z</time></trkpt><trkpt lat="42.9576717" lon="2.6058717"><ele>407.6</ele><time>2026-03-30T09:49:39.687Z</time></trkpt><trkpt lat="42.9576733" lon="2.6057133"><ele>407.0</ele><time>2026-03-30T09:49:41.686Z</time></trkpt><trkpt lat="42.9576433" lon="2.6055883"><ele>409.40000000000003</ele><time>2026-03-30T09:49:43.688Z</time></trkpt><trkpt lat="42.95753" lon="2.60551"><ele>411.8</ele><time>2026-03-30T09:49:45.684Z</time></trkpt><trkpt lat="42.957455" lon="2.6054883"><ele>414.2</ele><time>2026-03-30T09:49:46.686Z</time></trkpt><trkpt lat="42.9573833" lon="2.6054867"><ele>416.6</ele><time>2026-03-30T09:49:47.685Z</time></trkpt><trkpt lat="42.9572867" lon="2.6054967"><ele>419.0</ele><time>2026-03-30T09:49:49.685Z</time></trkpt><trkpt lat="42.9571917" lon="2.6054483"><ele>418.99999999999994</ele><time>2026-03-30T09:56:13.688Z</time></trkpt><trkpt lat="42.9571417" lon="2.60533"><ele>419.0</ele><time>2026-03-30T09:56:15.686Z</time></trkpt><trkpt lat="42.9570983" lon="2.6052533"><ele>419.0</ele><time>2026-03-30T09:56:16.686Z</time></trkpt><trkpt lat="42.9570467" lon="2.6051883"><ele>419.0</ele><time>2026-03-30T09:56:17.69Z</time></trkpt><trkpt lat="42.95699" lon="2.6051283"><ele>418.99999999999994</ele><time>2026-03-30T09:56:18.685Z</time></trkpt><trkpt lat="42.95692" lon="2.6050833"><ele>419.0</ele><time>2026-03-30T09:56:19.685Z</time></trkpt><trkpt lat="42.9568383" lon="2.6050517"><ele>417.79999999999995</ele><time>2026-03-30T09:56:20.687Z</time></trkpt><trkpt lat="42.956745" lon="2.605035"><ele>416.59999999999997</ele><time>2026-03-30T09:56:21.686Z</time></trkpt><trkpt lat="42.9566533" lon="2.6050133"><ele>415.4</ele><time>2026-03-30T09:56:22.685Z</time></trkpt><trkpt lat="42.95656" lon="2.604985"><ele>414.2</ele><time>2026-03-30T09:56:23.685Z</time></trkpt><trkpt lat="42.9564617" lon="2.6049483"><ele>413.0</ele><time>2026-03-30T09:56:24.685Z</time></trkpt><trkpt lat="42.9563583" lon="2.6049017"><ele>416.0</ele><time>2026-03-30T09:56:25.685Z</time></trkpt><trkpt lat="42.9562533" lon="2.6048483"><ele>419.0</ele><time>2026-03-30T09:56:26.687Z</time></trkpt><trkpt lat="42.9561517" lon="2.60478"><ele>422.0</ele><time>2026-03-30T09:56:27.686Z</time></trkpt><trkpt lat="42.9560483" lon="2.60472"><ele>425.0</ele><time>2026-03-30T09:56:28.685Z</time></trkpt><trkpt lat="42.95594" lon="2.60467"><ele>424.6</ele><time>2026-03-30T09:56:29.685Z</time></trkpt><trkpt lat="42.9558283" lon="2.6046367"><ele>424.2</ele><time>2026-03-30T09:56:30.686Z</time></trkpt><trkpt lat="42.95572" lon="2.6045967"><ele>423.79999999999995</ele><time>2026-03-30T09:56:31.685Z</time></trkpt><trkpt lat="42.9556233" lon="2.604535"><ele>423.4</ele><time>2026-03-30T09:56:32.686Z</time></trkpt><trkpt lat="42.9555233" lon="2.6044817"><ele>423.0</ele><time>2026-03-30T09:56:33.688Z</time></trkpt><trkpt lat="42.9554217" lon="2.6044417"><ele>423.0</ele><time>2026-03-30T09:56:34.688Z</time></trkpt><trkpt lat="42.95532" lon="2.6044183"><ele>423.0</ele><time>2026-03-30T09:56:35.686Z</time></trkpt><trkpt lat="42.955215" lon="2.6044283"><ele>423.0</ele><time>2026-03-30T09:56:36.685Z</time></trkpt><trkpt lat="42.9551067" lon="2.6044583"><ele>423.0</ele><time>2026-03-30T09:56:37.687Z</time></trkpt><trkpt lat="42.9549933" lon="2.6044933"><ele>423.0</ele><time>2026-03-30T09:56:38.687Z</time></trkpt><trkpt lat="42.954875" lon="2.6045333"><ele>430.0</ele><time>2026-03-30T09:56:39.687Z</time></trkpt><trkpt lat="42.9547583" lon="2.604575"><ele>437.0</ele><time>2026-03-30T09:56:40.686Z</time></trkpt><trkpt lat="42.9546467" lon="2.6046083"><ele>444.0</ele><time>2026-03-30T09:56:41.689Z</time></trkpt><trkpt lat="42.954535" lon="2.604645"><ele>451.0</ele><time>2026-03-30T09:56:42.686Z</time></trkpt><trkpt lat="42.95443" lon="2.604655"><ele>451.0</ele><time>2026-03-30T09:56:43.686Z</time></trkpt><trkpt lat="42.9543167" lon="2.6046483"><ele>451.0</ele><time>2026-03-30T09:56:44.687Z</time></trkpt><trkpt lat="42.9542083" lon="2.604615"><ele>451.0</ele><time>2026-03-30T09:56:45.685Z</time></trkpt><trkpt lat="42.9541067" lon="2.60457"><ele>451.0</ele><time>2026-03-30T09:56:46.687Z</time></trkpt><trkpt lat="42.95401" lon="2.604515"><ele>451.0</ele><time>2026-03-30T09:56:47.686Z</time></trkpt><trkpt lat="42.9539083" lon="2.6044767"><ele>449.0</ele><time>2026-03-30T09:56:48.685Z</time></trkpt><trkpt lat="42.9538067" lon="2.6044483"><ele>447.0</ele><time>2026-03-30T09:56:49.685Z</time></trkpt><trkpt lat="42.9537133" lon="2.6044133"><ele>445.0</ele><time>2026-03-30T09:56:50.686Z</time></trkpt><trkpt lat="42.9536267" lon="2.6043867"><ele>443.0</ele><time>2026-03-30T09:56:51.685Z</time></trkpt><trkpt lat="42.9535333" lon="2.6043917"><ele>441.0</ele><time>2026-03-30T09:56:52.685Z</time></trkpt><trkpt lat="42.95344" lon="2.6044317"><ele>442.1666666666667</ele><time>2026-03-30T09:56:53.688Z</time></trkpt><trkpt lat="42.9533567" lon="2.6044783"><ele>443.33333333333337</ele><time>2026-03-30T09:56:54.688Z</time></trkpt><trkpt lat="42.9532783" lon="2.604515"><ele>444.5</ele><time>2026-03-30T09:56:55.687Z</time></trkpt><trkpt lat="42.9531967" lon="2.604535"><ele>445.6666666666667</ele><time>2026-03-30T09:56:56.688Z</time></trkpt><trkpt lat="42.9531067" lon="2.6045417"><ele>446.83333333333337</ele><time>2026-03-30T09:56:57.686Z</time></trkpt><trkpt lat="42.9530067" lon="2.6045267"><ele>448.0</ele><time>2026-03-30T09:56:58.688Z</time></trkpt><trkpt lat="42.9529033" lon="2.6045233"><ele>451.79999999999995</ele><time>2026-03-30T09:56:59.687Z</time></trkpt><trkpt lat="42.952795" lon="2.6045283"><ele>455.59999999999997</ele><time>2026-03-30T09:57:00.687Z</time></trkpt><trkpt lat="42.9526917" lon="2.6045383"><ele>459.40000000000003</ele><time>2026-03-30T09:57:01.688Z</time></trkpt><trkpt lat="42.9525917" lon="2.604555"><ele>463.20000000000005</ele><time>2026-03-30T09:57:02.686Z</time></trkpt><trkpt lat="42.9525067" lon="2.6045633"><ele>467.0</ele><time>2026-03-30T09:57:03.687Z</time></trkpt><trkpt lat="42.9524283" lon="2.6045717"><ele>467.71428571428567</ele><time>2026-03-30T09:57:04.686Z</time></trkpt><trkpt lat="42.9523533" lon="2.60458"><ele>468.42857142857144</ele><time>2026-03-30T09:57:05.686Z</time></trkpt><trkpt lat="42.9522867" lon="2.6045833"><ele>469.1428571428571</ele><time>2026-03-30T09:57:06.687Z</time></trkpt><trkpt lat="42.95222" lon="2.604595"><ele>469.85714285714283</ele><time>2026-03-30T09:57:07.687Z</time></trkpt><trkpt lat="42.952115" lon="2.6046033"><ele>470.57142857142856</ele><time>2026-03-30T09:57:09.688Z</time></trkpt><trkpt lat="42.9520483" lon="2.6045833"><ele>471.2857142857143</ele><time>2026-03-30T09:57:12.689Z</time></trkpt><trkpt lat="42.951995" lon="2.6045317"><ele>472.0</ele><time>2026-03-30T09:57:15.687Z</time></trkpt><trkpt lat="42.951935" lon="2.6044533"><ele>470.8</ele><time>2026-03-30T09:57:17.686Z</time></trkpt><trkpt lat="42.9518483" lon="2.6043667"><ele>469.6</ele><time>2026-03-30T09:57:19.688Z</time></trkpt><trkpt lat="42.9517883" lon="2.604325"><ele>468.40000000000003</ele><time>2026-03-30T09:57:20.687Z</time></trkpt><trkpt lat="42.951725" lon="2.6042767"><ele>467.20000000000005</ele><time>2026-03-30T09:57:21.686Z</time></trkpt><trkpt lat="42.951665" lon="2.6042083"><ele>466.0</ele><time>2026-03-30T09:57:22.685Z</time></trkpt><trkpt lat="42.9515533" lon="2.6040233"><ele>466.00000000000006</ele><time>2026-03-30T09:57:24.687Z</time></trkpt><trkpt lat="42.9515033" lon="2.6039267"><ele>466.0</ele><time>2026-03-30T09:57:25.685Z</time></trkpt><trkpt lat="42.951465" lon="2.6038317"><ele>466.0</ele><time>2026-03-30T09:57:26.686Z</time></trkpt><trkpt lat="42.95144" lon="2.6037417"><ele>466.0</ele><time>2026-03-30T09:57:27.686Z</time></trkpt><trkpt lat="42.951435" lon="2.6036517"><ele>466.00000000000006</ele><time>2026-03-30T09:57:28.685Z</time></trkpt><trkpt lat="42.9514333" lon="2.6034917"><ele>466.0</ele><time>2026-03-30T09:57:30.686Z</time></trkpt><trkpt lat="42.95149" lon="2.60342"><ele>466.0</ele><time>2026-03-30T09:57:32.686Z</time></trkpt><trkpt lat="42.95146" lon="2.6035283"><ele>466.0</ele><time>2026-03-30T09:57:54.686Z</time></trkpt><trkpt lat="42.9514383" lon="2.60366"><ele>466.0</ele><time>2026-03-30T09:57:56.685Z</time></trkpt><trkpt lat="42.951475" lon="2.6038283"><ele>466.0</ele><time>2026-03-30T09:57:58.685Z</time></trkpt><trkpt lat="42.9515017" lon="2.603915"><ele>466.0</ele><time>2026-03-30T09:57:59.689Z</time></trkpt><trkpt lat="42.9515483" lon="2.6040117"><ele>466.0</ele><time>2026-03-30T09:58:00.685Z</time></trkpt><trkpt lat="42.9516017" lon="2.60411"><ele>466.0</ele><time>2026-03-30T09:58:01.685Z</time></trkpt><trkpt lat="42.9516617" lon="2.6042033"><ele>466.0</ele><time>2026-03-30T09:58:02.687Z</time></trkpt><trkpt lat="42.95173" lon="2.604285"><ele>466.0</ele><time>2026-03-30T09:58:03.686Z</time></trkpt><trkpt lat="42.9518117" lon="2.6043483"><ele>466.0</ele><time>2026-03-30T09:58:04.687Z</time></trkpt><trkpt lat="42.9518883" lon="2.6044167"><ele>467.00000000000006</ele><time>2026-03-30T09:58:05.686Z</time></trkpt><trkpt lat="42.951945" lon="2.60449"><ele>468.0</ele><time>2026-03-30T09:58:06.685Z</time></trkpt><trkpt lat="42.9519933" lon="2.6045517"><ele>469.0</ele><time>2026-03-30T09:58:07.686Z</time></trkpt><trkpt lat="42.9521" lon="2.6046283"><ele>470.0</ele><time>2026-03-30T09:58:09.687Z</time></trkpt><trkpt lat="42.95218" lon="2.6046317"><ele>471.00000000000006</ele><time>2026-03-30T09:58:10.687Z</time></trkpt><trkpt lat="42.9522667" lon="2.60463"><ele>472.0</ele><time>2026-03-30T09:58:11.686Z</time></trkpt><trkpt lat="42.9523633" lon="2.6046117"><ele>472.0</ele><time>2026-03-30T09:58:12.686Z</time></trkpt><trkpt lat="42.9524567" lon="2.6045983"><ele>472.00000000000006</ele><time>2026-03-30T09:58:13.685Z</time></trkpt><trkpt lat="42.9525533" lon="2.6045783"><ele>472.00000000000006</ele><time>2026-03-30T09:58:14.685Z</time></trkpt><trkpt lat="42.952655" lon="2.6045567"><ele>472.0</ele><time>2026-03-30T09:58:15.686Z</time></trkpt><trkpt lat="42.952755" lon="2.60454"><ele>472.0</ele><time>2026-03-30T09:58:16.685Z</time></trkpt><trkpt lat="42.9528617" lon="2.6045267"><ele>471.0</ele><time>2026-03-30T09:58:17.686Z</time></trkpt><trkpt lat="42.952965" lon="2.604525"><ele>470.00000000000006</ele><time>2026-03-30T09:58:18.688Z</time></trkpt><trkpt lat="42.9530683" lon="2.604535"><ele>469.00000000000006</ele><time>2026-03-30T09:58:19.686Z</time></trkpt><trkpt lat="42.953165" lon="2.6045517"><ele>468.0</ele><time>2026-03-30T09:58:20.688Z</time></trkpt><trkpt lat="42.9532583" lon="2.6045417"><ele>467.0</ele><time>2026-03-30T09:58:21.688Z</time></trkpt><trkpt lat="42.95335" lon="2.6045067"><ele>461.8</ele><time>2026-03-30T09:58:22.687Z</time></trkpt><trkpt lat="42.9534467" lon="2.6044583"><ele>456.6</ele><time>2026-03-30T09:58:23.688Z</time></trkpt><trkpt lat="42.9535417" lon="2.6044233"><ele>451.40000000000003</ele><time>2026-03-30T09:58:24.686Z</time></trkpt><trkpt lat="42.9536367" lon="2.604415"><ele>446.20000000000005</ele><time>2026-03-30T09:58:25.685Z</time></trkpt><trkpt lat="42.9537333" lon="2.6044317"><ele>441.0</ele><time>2026-03-30T09:58:26.686Z</time></trkpt><trkpt lat="42.9538267" lon="2.6044533"><ele>441.0</ele><time>2026-03-30T09:58:27.687Z</time></trkpt><trkpt lat="42.9539217" lon="2.6044817"><ele>441.0</ele><time>2026-03-30T09:58:28.688Z</time></trkpt><trkpt lat="42.9540167" lon="2.6045183"><ele>441.0</ele><time>2026-03-30T09:58:29.688Z</time></trkpt><trkpt lat="42.9541083" lon="2.60457"><ele>441.0</ele><time>2026-03-30T09:58:30.686Z</time></trkpt><trkpt lat="42.9542017" lon="2.604615"><ele>441.0</ele><time>2026-03-30T09:58:31.687Z</time></trkpt><trkpt lat="42.9543033" lon="2.6046483"><ele>443.0</ele><time>2026-03-30T09:58:32.688Z</time></trkpt><trkpt lat="42.9544067" lon="2.60466"><ele>445.0</ele><time>2026-03-30T09:58:33.685Z</time></trkpt><trkpt lat="42.9545067" lon="2.60465"><ele>447.0</ele><time>2026-03-30T09:58:34.685Z</time></trkpt><trkpt lat="42.95461" lon="2.6046183"><ele>449.0</ele><time>2026-03-30T09:58:35.689Z</time></trkpt><trkpt lat="42.9547133" lon="2.6045817"><ele>451.0</ele><time>2026-03-30T09:58:36.686Z</time></trkpt><trkpt lat="42.95482" lon="2.6045433"><ele>451.0</ele><time>2026-03-30T09:58:37.688Z</time></trkpt><trkpt lat="42.9549233" lon="2.6045083"><ele>451.0</ele><time>2026-03-30T09:58:38.687Z</time></trkpt><trkpt lat="42.9550233" lon="2.6044733"><ele>451.0</ele><time>2026-03-30T09:58:39.685Z</time></trkpt><trkpt lat="42.95512" lon="2.6044467"><ele>451.0</ele><time>2026-03-30T09:58:40.685Z</time></trkpt><trkpt lat="42.9552133" lon="2.604425"><ele>451.0</ele><time>2026-03-30T09:58:41.685Z</time></trkpt><trkpt lat="42.9553033" lon="2.6044167"><ele>448.4</ele><time>2026-03-30T09:58:42.687Z</time></trkpt><trkpt lat="42.9554" lon="2.6044367"><ele>445.8</ele><time>2026-03-30T09:58:43.688Z</time></trkpt><trkpt lat="42.955495" lon="2.6044733"><ele>443.19999999999993</ele><time>2026-03-30T09:58:44.687Z</time></trkpt><trkpt lat="42.95559" lon="2.6045233"><ele>440.59999999999997</ele><time>2026-03-30T09:58:45.688Z</time></trkpt><trkpt lat="42.955685" lon="2.6045833"><ele>438.0</ele><time>2026-03-30T09:58:46.685Z</time></trkpt><trkpt lat="42.9557783" lon="2.60464"><ele>435.4</ele><time>2026-03-30T09:58:47.686Z</time></trkpt><trkpt lat="42.9558783" lon="2.604675"><ele>432.79999999999995</ele><time>2026-03-30T09:58:48.688Z</time></trkpt><trkpt lat="42.9559717" lon="2.6047167"><ele>430.2</ele><time>2026-03-30T09:58:49.688Z</time></trkpt><trkpt lat="42.9560733" lon="2.6047683"><ele>427.6</ele><time>2026-03-30T09:58:50.686Z</time></trkpt><trkpt lat="42.9561783" lon="2.6048267"><ele>425.0</ele><time>2026-03-30T09:58:51.688Z</time></trkpt><trkpt lat="42.9562833" lon="2.6048883"><ele>425.0</ele><time>2026-03-30T09:58:52.687Z</time></trkpt><trkpt lat="42.9563917" lon="2.6049483"><ele>425.0</ele><time>2026-03-30T09:58:53.688Z</time></trkpt><trkpt lat="42.9565017" lon="2.604995"><ele>425.0</ele><time>2026-03-30T09:58:54.685Z</time></trkpt><trkpt lat="42.95661" lon="2.6050267"><ele>425.0</ele><time>2026-03-30T09:58:55.685Z</time></trkpt><trkpt lat="42.956715" lon="2.6050517"><ele>425.0</ele><time>2026-03-30T09:58:56.687Z</time></trkpt><trkpt lat="42.9568083" lon="2.6050733"><ele>423.99999999999994</ele><time>2026-03-30T09:58:57.687Z</time></trkpt><trkpt lat="42.9568983" lon="2.605095"><ele>423.0</ele><time>2026-03-30T09:58:58.686Z</time></trkpt><trkpt lat="42.95698" lon="2.6051217"><ele>422.0</ele><time>2026-03-30T09:58:59.685Z</time></trkpt><trkpt lat="42.9570533" lon="2.605185"><ele>421.0</ele><time>2026-03-30T09:59:00.686Z</time></trkpt><trkpt lat="42.9571183" lon="2.60527"><ele>419.99999999999994</ele><time>2026-03-30T09:59:01.686Z</time></trkpt><trkpt lat="42.95718" lon="2.605365"><ele>419.0</ele><time>2026-03-30T09:59:02.685Z</time></trkpt><trkpt lat="42.95725" lon="2.60543"><ele>419.0</ele><time>2026-03-30T09:59:03.687Z</time></trkpt><trkpt lat="42.9573267" lon="2.60548"><ele>419.0</ele><time>2026-03-30T09:59:04.687Z</time></trkpt><trkpt lat="42.9574" lon="2.6055167"><ele>419.0</ele><time>2026-03-30T09:59:05.686Z</time></trkpt><trkpt lat="42.9574717" lon="2.6055333"><ele>419.0</ele><time>2026-03-30T09:59:06.685Z</time></trkpt><trkpt lat="42.95759" lon="2.6055617"><ele>419.0</ele><time>2026-03-30T09:59:08.685Z</time></trkpt><trkpt lat="42.957695" lon="2.6055933"><ele>416.99999999999994</ele><time>2026-03-30T09:59:10.686Z</time></trkpt><trkpt lat="42.9577583" lon="2.6056167"><ele>415.0</ele><time>2026-03-30T09:59:11.686Z</time></trkpt><trkpt lat="42.9578267" lon="2.6056483"><ele>413.0</ele><time>2026-03-30T09:59:12.686Z</time></trkpt><trkpt lat="42.9579017" lon="2.6057017"><ele>411.0</ele><time>2026-03-30T09:59:13.685Z</time></trkpt><trkpt lat="42.9579567" lon="2.60579"><ele>408.99999999999994</ele><time>2026-03-30T09:59:14.685Z</time></trkpt><trkpt lat="42.95799" lon="2.6059083"><ele>407.0</ele><time>2026-03-30T09:59:15.686Z</time></trkpt><trkpt lat="42.9580117" lon="2.60605"><ele>407.6</ele><time>2026-03-30T09:59:16.685Z</time></trkpt><trkpt lat="42.95804" lon="2.6061883"><ele>408.20000000000005</ele><time>2026-03-30T09:59:17.686Z</time></trkpt><trkpt lat="42.95807" lon="2.6063183"><ele>408.8</ele><time>2026-03-30T09:59:18.688Z</time></trkpt><trkpt lat="42.9581017" lon="2.6064483"><ele>409.4</ele><time>2026-03-30T09:59:19.686Z</time></trkpt><trkpt lat="42.95814" lon="2.606575"><ele>410.0</ele><time>2026-03-30T09:59:20.688Z</time></trkpt><trkpt lat="42.9581883" lon="2.6066933"><ele>410.0</ele><time>2026-03-30T09:59:21.688Z</time></trkpt><trkpt lat="42.9582467" lon="2.6068017"><ele>410.0</ele><time>2026-03-30T09:59:22.687Z</time></trkpt><trkpt lat="42.9583117" lon="2.6068983"><ele>410.0</ele><time>2026-03-30T09:59:23.688Z</time></trkpt><trkpt lat="42.9583867" lon="2.6069767"><ele>410.0</ele><time>2026-03-30T09:59:24.686Z</time></trkpt><trkpt lat="42.9584683" lon="2.6070433"><ele>410.0</ele><time>2026-03-30T09:59:25.685Z</time></trkpt><trkpt lat="42.9585583" lon="2.607095"><ele>408.6</ele><time>2026-03-30T09:59:26.689Z</time></trkpt><trkpt lat="42.9586567" lon="2.6071267"><ele>407.2</ele><time>2026-03-30T09:59:27.686Z</time></trkpt><trkpt lat="42.9587567" lon="2.607125"><ele>405.79999999999995</ele><time>2026-03-30T09:59:28.685Z</time></trkpt><trkpt lat="42.9588517" lon="2.6071033"><ele>404.4</ele><time>2026-03-30T09:59:29.688Z</time></trkpt><trkpt lat="42.9589383" lon="2.6070783"><ele>403.0</ele><time>2026-03-30T09:59:30.685Z</time></trkpt><trkpt lat="42.95902" lon="2.6070533"><ele>403.00000000000006</ele><time>2026-03-30T09:59:31.686Z</time></trkpt><trkpt lat="42.959095" lon="2.6070333"><ele>403.0</ele><time>2026-03-30T09:59:32.686Z</time></trkpt><trkpt lat="42.9591683" lon="2.6070133"><ele>403.0</ele><time>2026-03-30T09:59:33.686Z</time></trkpt><trkpt lat="42.9592367" lon="2.60699"><ele>403.0</ele><time>2026-03-30T09:59:34.686Z</time></trkpt><trkpt lat="42.9593" lon="2.6069667"><ele>403.00000000000006</ele><time>2026-03-30T09:59:35.687Z</time></trkpt><trkpt lat="42.9593617" lon="2.6069467"><ele>403.0</ele><time>2026-03-30T09:59:36.686Z</time></trkpt><trkpt lat="42.959465" lon="2.6069017"><ele>403.0</ele><time>2026-03-30T09:59:38.686Z</time></trkpt><trkpt lat="42.959565" lon="2.6068517"><ele>403.0</ele><time>2026-03-30T09:59:40.686Z</time></trkpt><trkpt lat="42.9596633" lon="2.60677"><ele>403.0</ele><time>2026-03-30T09:59:42.685Z</time></trkpt><trkpt lat="42.9597633" lon="2.6066833"><ele>403.0</ele><time>2026-03-30T09:59:44.689Z</time></trkpt><trkpt lat="42.9598183" lon="2.606635"><ele>403.0</ele><time>2026-03-30T09:59:45.689Z</time></trkpt><trkpt lat="42.959875" lon="2.606585"><ele>403.0</ele><time>2026-03-30T09:59:46.685Z</time></trkpt><trkpt lat="42.95993" lon="2.6065317"><ele>403.0</ele><time>2026-03-30T09:59:47.688Z</time></trkpt><trkpt lat="42.9599767" lon="2.6064683"><ele>403.0</ele><time>2026-03-30T09:59:48.689Z</time></trkpt><trkpt lat="42.96003" lon="2.606395"><ele>403.0</ele><time>2026-03-30T09:59:49.689Z</time></trkpt><trkpt lat="42.96009" lon="2.606345"><ele>403.0</ele><time>2026-03-30T09:59:50.686Z</time></trkpt><trkpt lat="42.9601533" lon="2.606295"><ele>403.0</ele><time>2026-03-30T09:59:51.687Z</time></trkpt><trkpt lat="42.960215" lon="2.6062567"><ele>403.0</ele><time>2026-03-30T09:59:52.689Z</time></trkpt><trkpt lat="42.9603267" lon="2.6061867"><ele>403.14285714285717</ele><time>2026-03-30T09:59:54.688Z</time></trkpt><trkpt lat="42.9603783" lon="2.6061367"><ele>403.2857142857143</ele><time>2026-03-30T09:59:55.688Z</time></trkpt><trkpt lat="42.960435" lon="2.606095"><ele>403.42857142857144</ele><time>2026-03-30T09:59:56.686Z</time></trkpt><trkpt lat="42.9604817" lon="2.6060333"><ele>403.57142857142856</ele><time>2026-03-30T09:59:57.686Z</time></trkpt><trkpt lat="42.960535" lon="2.60598"><ele>403.71428571428567</ele><time>2026-03-30T09:59:58.687Z</time></trkpt><trkpt lat="42.9605917" lon="2.605935"><ele>403.85714285714283</ele><time>2026-03-30T09:59:59.686Z</time></trkpt><trkpt lat="42.9606517" lon="2.6059"><ele>404.0</ele><time>2026-03-30T10:00:00.685Z</time></trkpt><trkpt lat="42.9607617" lon="2.6058317"><ele>404.0</ele><time>2026-03-30T10:00:02.686Z</time></trkpt><trkpt lat="42.9608583" lon="2.605815"><ele>404.0</ele><time>2026-03-30T10:00:04.69Z</time></trkpt><trkpt lat="42.9609717" lon="2.60581"><ele>404.0</ele><time>2026-03-30T10:00:06.686Z</time></trkpt><trkpt lat="42.9610767" lon="2.6058733"><ele>404.0</ele><time>2026-03-30T10:00:08.686Z</time></trkpt><trkpt lat="42.9611767" lon="2.6059367"><ele>404.0</ele><time>2026-03-30T10:00:10.686Z</time></trkpt><trkpt lat="42.9612717" lon="2.6059333"><ele>402.0</ele><time>2026-03-30T10:00:12.687Z</time></trkpt><trkpt lat="42.9614" lon="2.605925"><ele>400.0</ele><time>2026-03-30T10:00:14.688Z</time></trkpt><trkpt lat="42.961475" lon="2.6059067"><ele>398.0</ele><time>2026-03-30T10:00:15.686Z</time></trkpt><trkpt lat="42.9615667" lon="2.6058667"><ele>396.0</ele><time>2026-03-30T10:00:16.686Z</time></trkpt><trkpt lat="42.96166" lon="2.6058183"><ele>394.0</ele><time>2026-03-30T10:00:17.685Z</time></trkpt><trkpt lat="42.9617517" lon="2.605765"><ele>392.79999999999995</ele><time>2026-03-30T10:00:18.686Z</time></trkpt><trkpt lat="42.96184" lon="2.6057083"><ele>391.59999999999997</ele><time>2026-03-30T10:00:19.685Z</time></trkpt><trkpt lat="42.9619183" lon="2.6056467"><ele>390.4</ele><time>2026-03-30T10:00:20.685Z</time></trkpt><trkpt lat="42.9619933" lon="2.6055767"><ele>389.2</ele><time>2026-03-30T10:00:21.686Z</time></trkpt><trkpt lat="42.96206" lon="2.6054933"><ele>388.0</ele><time>2026-03-30T10:00:22.688Z</time></trkpt><trkpt lat="42.9621117" lon="2.6054"><ele>387.00000000000006</ele><time>2026-03-30T10:00:23.691Z</time></trkpt><trkpt lat="42.9621717" lon="2.6053117"><ele>386.0</ele><time>2026-03-30T10:00:24.687Z</time></trkpt><trkpt lat="42.9622317" lon="2.6052317"><ele>385.0</ele><time>2026-03-30T10:00:25.687Z</time></trkpt><trkpt lat="42.9622917" lon="2.6051517"><ele>384.0</ele><time>2026-03-30T10:00:26.688Z</time></trkpt><trkpt lat="42.9623433" lon="2.6050817"><ele>383.0</ele><time>2026-03-30T10:00:27.686Z</time></trkpt><trkpt lat="42.9623967" lon="2.6050217"><ele>382.0</ele><time>2026-03-30T10:00:28.685Z</time></trkpt><trkpt lat="42.9624433" lon="2.6049617"><ele>382.0</ele><time>2026-03-30T10:00:29.686Z</time></trkpt><trkpt lat="42.962485" lon="2.60488"><ele>382.0</ele><time>2026-03-30T10:00:30.687Z</time></trkpt><trkpt lat="42.9625183" lon="2.6047917"><ele>382.0</ele><time>2026-03-30T10:00:31.687Z</time></trkpt><trkpt lat="42.9625167" lon="2.6047017"><ele>382.0</ele><time>2026-03-30T10:00:32.685Z</time></trkpt><trkpt lat="42.9625383" lon="2.6045783"><ele>382.0</ele><time>2026-03-30T10:00:33.688Z</time></trkpt><trkpt lat="42.9626017" lon="2.60451"><ele>382.0</ele><time>2026-03-30T10:00:35.686Z</time></trkpt><trkpt lat="42.962705" lon="2.6045467"><ele>381.20000000000005</ele><time>2026-03-30T10:00:37.687Z</time></trkpt><trkpt lat="42.962775" lon="2.6046117"><ele>380.4</ele><time>2026-03-30T10:00:38.686Z</time></trkpt><trkpt lat="42.9628617" lon="2.6046783"><ele>379.6</ele><time>2026-03-30T10:00:39.689Z</time></trkpt><trkpt lat="42.96295" lon="2.604725"><ele>378.79999999999995</ele><time>2026-03-30T10:00:40.687Z</time></trkpt><trkpt lat="42.9630417" lon="2.60477"><ele>378.0</ele><time>2026-03-30T10:00:41.685Z</time></trkpt><trkpt lat="42.963145" lon="2.60482"><ele>378.0</ele><time>2026-03-30T10:00:42.686Z</time></trkpt><trkpt lat="42.9632433" lon="2.6048933"><ele>378.0</ele><time>2026-03-30T10:00:43.686Z</time></trkpt><trkpt lat="42.9633283" lon="2.60497"><ele>378.0</ele><time>2026-03-30T10:00:44.69Z</time></trkpt><trkpt lat="42.9634033" lon="2.6050417"><ele>378.0</ele><time>2026-03-30T10:00:45.689Z</time></trkpt><trkpt lat="42.9634783" lon="2.6051033"><ele>378.0</ele><time>2026-03-30T10:00:46.687Z</time></trkpt><trkpt lat="42.9635733" lon="2.60512"><ele>377.59999999999997</ele><time>2026-03-30T10:00:47.69Z</time></trkpt><trkpt lat="42.96367" lon="2.60511"><ele>377.2</ele><time>2026-03-30T10:00:48.686Z</time></trkpt><trkpt lat="42.96377" lon="2.6050633"><ele>376.8</ele><time>2026-03-30T10:00:49.686Z</time></trkpt><trkpt lat="42.9638683" lon="2.6049967"><ele>376.4</ele><time>2026-03-30T10:00:50.688Z</time></trkpt><trkpt lat="42.9639633" lon="2.6049333"><ele>376.0</ele><time>2026-03-30T10:00:51.689Z</time></trkpt><trkpt lat="42.9640517" lon="2.6048717"><ele>376.0</ele><time>2026-03-30T10:00:52.688Z</time></trkpt><trkpt lat="42.96413" lon="2.6048183"><ele>376.0</ele><time>2026-03-30T10:00:53.686Z</time></trkpt><trkpt lat="42.9642" lon="2.604775"><ele>376.0</ele><time>2026-03-30T10:00:54.688Z</time></trkpt><trkpt lat="42.96427" lon="2.6047417"><ele>376.0</ele><time>2026-03-30T10:00:55.691Z</time></trkpt><trkpt lat="42.96434" lon="2.6047383"><ele>376.0</ele><time>2026-03-30T10:00:56.688Z</time></trkpt><trkpt lat="42.9644117" lon="2.6047667"><ele>376.0</ele><time>2026-03-30T10:00:57.691Z</time></trkpt><trkpt lat="42.964515" lon="2.6048133"><ele>376.5</ele><time>2026-03-30T10:00:58.688Z</time></trkpt><trkpt lat="42.9646333" lon="2.6048583"><ele>377.0</ele><time>2026-03-30T10:00:59.69Z</time></trkpt><trkpt lat="42.9647567" lon="2.6048967"><ele>377.5</ele><time>2026-03-30T10:01:00.686Z</time></trkpt><trkpt lat="42.96488" lon="2.6049217"><ele>378.0</ele><time>2026-03-30T10:01:01.686Z</time></trkpt><trkpt lat="42.965005" lon="2.6049417"><ele>378.0</ele><time>2026-03-30T10:01:02.69Z</time></trkpt><trkpt lat="42.96513" lon="2.6049483"><ele>378.0</ele><time>2026-03-30T10:01:03.688Z</time></trkpt><trkpt lat="42.9652533" lon="2.60494"><ele>378.0</ele><time>2026-03-30T10:01:04.687Z</time></trkpt><trkpt lat="42.9653717" lon="2.6049167"><ele>378.0</ele><time>2026-03-30T10:01:05.688Z</time></trkpt><trkpt lat="42.9654817" lon="2.60489"><ele>378.0</ele><time>2026-03-30T10:01:06.687Z</time></trkpt><trkpt lat="42.96559" lon="2.604865"><ele>378.0</ele><time>2026-03-30T10:01:07.686Z</time></trkpt><trkpt lat="42.9657" lon="2.6048517"><ele>378.0</ele><time>2026-03-30T10:01:08.692Z</time></trkpt><trkpt lat="42.9658083" lon="2.6048533"><ele>378.0</ele><time>2026-03-30T10:01:09.686Z</time></trkpt><trkpt lat="42.965915" lon="2.6048583"><ele>378.0</ele><time>2026-03-30T10:01:10.687Z</time></trkpt><trkpt lat="42.9660067" lon="2.6048567"><ele>376.8333333333333</ele><time>2026-03-30T10:01:11.686Z</time></trkpt><trkpt lat="42.9660867" lon="2.604865"><ele>375.6666666666667</ele><time>2026-03-30T10:01:12.688Z</time></trkpt><trkpt lat="42.96615" lon="2.6048767"><ele>374.5</ele><time>2026-03-30T10:01:13.686Z</time></trkpt><trkpt lat="42.9662117" lon="2.6049017"><ele>373.33333333333337</ele><time>2026-03-30T10:01:14.769Z</time></trkpt><trkpt lat="42.9662667" lon="2.6049633"><ele>372.1666666666667</ele><time>2026-03-30T10:01:15.685Z</time></trkpt><trkpt lat="42.9663117" lon="2.6050567"><ele>371.0</ele><time>2026-03-30T10:01:16.687Z</time></trkpt><trkpt lat="42.9663367" lon="2.6051883"><ele>372.20000000000005</ele><time>2026-03-30T10:01:17.686Z</time></trkpt><trkpt lat="42.9663467" lon="2.6053333"><ele>373.40000000000003</ele><time>2026-03-30T10:01:18.687Z</time></trkpt><trkpt lat="42.966355" lon="2.60548"><ele>374.6</ele><time>2026-03-30T10:01:19.686Z</time></trkpt><trkpt lat="42.9663583" lon="2.60563"><ele>375.8</ele><time>2026-03-30T10:01:20.686Z</time></trkpt><trkpt lat="42.9663583" lon="2.60578"><ele>377.0</ele><time>2026-03-30T10:01:21.686Z</time></trkpt><trkpt lat="42.966355" lon="2.60593"><ele>377.0</ele><time>2026-03-30T10:01:22.688Z</time></trkpt><trkpt lat="42.9663533" lon="2.6060783"><ele>377.0</ele><time>2026-03-30T10:01:23.692Z</time></trkpt><trkpt lat="42.96636" lon="2.60622"><ele>377.0</ele><time>2026-03-30T10:01:24.687Z</time></trkpt><trkpt lat="42.966365" lon="2.60635"><ele>377.0</ele><time>2026-03-30T10:01:25.686Z</time></trkpt><trkpt lat="42.9663683" lon="2.6064783"><ele>377.0</ele><time>2026-03-30T10:01:26.686Z</time></trkpt><trkpt lat="42.9663567" lon="2.6066117"><ele>377.40000000000003</ele><time>2026-03-30T10:01:27.686Z</time></trkpt><trkpt lat="42.9663283" lon="2.6067533"><ele>377.8</ele><time>2026-03-30T10:01:28.687Z</time></trkpt><trkpt lat="42.96629" lon="2.6069"><ele>378.2</ele><time>2026-03-30T10:01:29.687Z</time></trkpt><trkpt lat="42.9662583" lon="2.60703"><ele>378.6</ele><time>2026-03-30T10:01:30.688Z</time></trkpt><trkpt lat="42.96623" lon="2.607155"><ele>379.0</ele><time>2026-03-30T10:01:31.687Z</time></trkpt><trkpt lat="42.9661983" lon="2.6072767"><ele>379.6</ele><time>2026-03-30T10:01:32.688Z</time></trkpt><trkpt lat="42.9661517" lon="2.60739"><ele>380.2</ele><time>2026-03-30T10:01:33.686Z</time></trkpt><trkpt lat="42.966105" lon="2.6074933"><ele>380.8</ele><time>2026-03-30T10:01:34.687Z</time></trkpt><trkpt lat="42.9660683" lon="2.607615"><ele>381.40000000000003</ele><time>2026-03-30T10:01:35.689Z</time></trkpt><trkpt lat="42.966045" lon="2.607755"><ele>382.0</ele><time>2026-03-30T10:01:36.688Z</time></trkpt><trkpt lat="42.9660333" lon="2.607885"><ele>383.14285714285717</ele><time>2026-03-30T10:01:37.686Z</time></trkpt><trkpt lat="42.9660317" lon="2.607995"><ele>384.2857142857143</ele><time>2026-03-30T10:01:38.688Z</time></trkpt><trkpt lat="42.9660433" lon="2.608095"><ele>385.42857142857144</ele><time>2026-03-30T10:01:39.687Z</time></trkpt><trkpt lat="42.9660783" lon="2.60818"><ele>386.57142857142856</ele><time>2026-03-30T10:01:40.688Z</time></trkpt><trkpt lat="42.96613" lon="2.6082483"><ele>387.71428571428567</ele><time>2026-03-30T10:01:41.688Z</time></trkpt><trkpt lat="42.9661767" lon="2.608325"><ele>388.85714285714283</ele><time>2026-03-30T10:01:42.689Z</time></trkpt><trkpt lat="42.9662217" lon="2.6084067"><ele>390.0</ele><time>2026-03-30T10:01:43.688Z</time></trkpt><trkpt lat="42.966265" lon="2.608505"><ele>390.0</ele><time>2026-03-30T10:01:44.688Z</time></trkpt><trkpt lat="42.9663067" lon="2.6086183"><ele>390.0</ele><time>2026-03-30T10:01:45.686Z</time></trkpt><trkpt lat="42.966335" lon="2.6087417"><ele>390.0</ele><time>2026-03-30T10:01:46.686Z</time></trkpt><trkpt lat="42.9663733" lon="2.6088617"><ele>390.0</ele><time>2026-03-30T10:01:47.688Z</time></trkpt><trkpt lat="42.9664183" lon="2.60897"><ele>390.0</ele><time>2026-03-30T10:01:48.69Z</time></trkpt><trkpt lat="42.9664683" lon="2.609075"><ele>391.6</ele><time>2026-03-30T10:01:49.686Z</time></trkpt><trkpt lat="42.96653" lon="2.6091817"><ele>393.2</ele><time>2026-03-30T10:01:50.686Z</time></trkpt><trkpt lat="42.9666033" lon="2.6092783"><ele>394.79999999999995</ele><time>2026-03-30T10:01:51.685Z</time></trkpt><trkpt lat="42.9666817" lon="2.6093667"><ele>396.4</ele><time>2026-03-30T10:01:52.689Z</time></trkpt><trkpt lat="42.9667667" lon="2.6094633"><ele>398.0</ele><time>2026-03-30T10:01:53.687Z</time></trkpt><trkpt lat="42.9668483" lon="2.60955"><ele>399.99999999999994</ele><time>2026-03-30T10:01:54.686Z</time></trkpt><trkpt lat="42.9669183" lon="2.6096317"><ele>402.0</ele><time>2026-03-30T10:01:55.691Z</time></trkpt><trkpt lat="42.9669733" lon="2.6097183"><ele>404.0</ele><time>2026-03-30T10:01:56.69Z</time></trkpt><trkpt lat="42.9670233" lon="2.6098133"><ele>406.0</ele><time>2026-03-30T10:01:57.686Z</time></trkpt><trkpt lat="42.96707" lon="2.6099167"><ele>407.99999999999994</ele><time>2026-03-30T10:01:58.686Z</time></trkpt><trkpt lat="42.9671217" lon="2.6100167"><ele>410.0</ele><time>2026-03-30T10:01:59.689Z</time></trkpt><trkpt lat="42.9671833" lon="2.6101167"><ele>409.99999999999994</ele><time>2026-03-30T10:02:00.688Z</time></trkpt><trkpt lat="42.967235" lon="2.6102067"><ele>410.0</ele><time>2026-03-30T10:02:01.69Z</time></trkpt><trkpt lat="42.967275" lon="2.6102733"><ele>410.0</ele><time>2026-03-30T10:02:02.69Z</time></trkpt><trkpt lat="42.9673083" lon="2.6103733"><ele>410.0</ele><time>2026-03-30T10:02:04.687Z</time></trkpt><trkpt lat="42.9672967" lon="2.6104817"><ele>409.99999999999994</ele><time>2026-03-30T10:02:06.687Z</time></trkpt><trkpt lat="42.9672817" lon="2.61058"><ele>410.0</ele><time>2026-03-30T10:02:07.687Z</time></trkpt><trkpt lat="42.967255" lon="2.6106983"><ele>410.2</ele><time>2026-03-30T10:02:08.69Z</time></trkpt><trkpt lat="42.9672217" lon="2.6108217"><ele>410.4</ele><time>2026-03-30T10:02:09.687Z</time></trkpt><trkpt lat="42.967185" lon="2.6109333"><ele>410.6</ele><time>2026-03-30T10:02:10.687Z</time></trkpt><trkpt lat="42.96714" lon="2.611045"><ele>410.8</ele><time>2026-03-30T10:02:11.689Z</time></trkpt><trkpt lat="42.96711" lon="2.6111683"><ele>411.0</ele><time>2026-03-30T10:02:12.687Z</time></trkpt><trkpt lat="42.9670917" lon="2.611295"><ele>411.0</ele><time>2026-03-30T10:02:13.688Z</time></trkpt><trkpt lat="42.9670717" lon="2.6114183"><ele>411.0</ele><time>2026-03-30T10:02:14.688Z</time></trkpt><trkpt lat="42.96706" lon="2.6115383"><ele>411.0</ele><time>2026-03-30T10:02:15.688Z</time></trkpt><trkpt lat="42.9670533" lon="2.6116517"><ele>411.0</ele><time>2026-03-30T10:02:16.687Z</time></trkpt><trkpt lat="42.9670617" lon="2.6117583"><ele>411.0</ele><time>2026-03-30T10:02:17.686Z</time></trkpt><trkpt lat="42.9670883" lon="2.6118683"><ele>411.0</ele><time>2026-03-30T10:02:18.689Z</time></trkpt><trkpt lat="42.9671167" lon="2.611985"><ele>410.1666666666667</ele><time>2026-03-30T10:02:19.685Z</time></trkpt><trkpt lat="42.9671483" lon="2.6121067"><ele>409.33333333333337</ele><time>2026-03-30T10:02:20.687Z</time></trkpt><trkpt lat="42.9671733" lon="2.6122317"><ele>408.5</ele><time>2026-03-30T10:02:21.688Z</time></trkpt><trkpt lat="42.9672033" lon="2.6123533"><ele>407.6666666666667</ele><time>2026-03-30T10:02:22.687Z</time></trkpt><trkpt lat="42.96723" lon="2.612465"><ele>406.83333333333337</ele><time>2026-03-30T10:02:23.687Z</time></trkpt><trkpt lat="42.9672583" lon="2.6125667"><ele>406.0</ele><time>2026-03-30T10:02:24.687Z</time></trkpt><trkpt lat="42.96729" lon="2.6126567"><ele>406.00000000000006</ele><time>2026-03-30T10:02:25.687Z</time></trkpt><trkpt lat="42.96731" lon="2.6127417"><ele>406.0</ele><time>2026-03-30T10:02:26.687Z</time></trkpt><trkpt lat="42.9673183" lon="2.61283"><ele>406.0</ele><time>2026-03-30T10:02:27.688Z</time></trkpt><trkpt lat="42.9673083" lon="2.6129367"><ele>406.0</ele><time>2026-03-30T10:02:28.689Z</time></trkpt><trkpt lat="42.9672783" lon="2.613045"><ele>406.00000000000006</ele><time>2026-03-30T10:02:29.687Z</time></trkpt><trkpt lat="42.9672467" lon="2.6131533"><ele>406.0</ele><time>2026-03-30T10:02:30.688Z</time></trkpt><trkpt lat="42.9672217" lon="2.6132633"><ele>403.83333333333337</ele><time>2026-03-30T10:02:31.689Z</time></trkpt><trkpt lat="42.9672" lon="2.6133667"><ele>401.6666666666667</ele><time>2026-03-30T10:02:32.691Z</time></trkpt><trkpt lat="42.967175" lon="2.6134783"><ele>399.5</ele><time>2026-03-30T10:02:33.687Z</time></trkpt><trkpt lat="42.96716" lon="2.6136017"><ele>397.33333333333337</ele><time>2026-03-30T10:02:34.688Z</time></trkpt><trkpt lat="42.9671433" lon="2.6137233"><ele>395.1666666666667</ele><time>2026-03-30T10:02:35.686Z</time></trkpt><trkpt lat="42.9671183" lon="2.6138383"><ele>393.0</ele><time>2026-03-30T10:02:36.687Z</time></trkpt><trkpt lat="42.9670833" lon="2.6139533"><ele>390.8333333333333</ele><time>2026-03-30T10:02:37.686Z</time></trkpt><trkpt lat="42.9670417" lon="2.61406"><ele>388.6666666666667</ele><time>2026-03-30T10:02:38.689Z</time></trkpt><trkpt lat="42.966995" lon="2.61415"><ele>386.5</ele><time>2026-03-30T10:02:39.685Z</time></trkpt><trkpt lat="42.966945" lon="2.61422"><ele>384.33333333333337</ele><time>2026-03-30T10:02:40.688Z</time></trkpt><trkpt lat="42.9668933" lon="2.61428"><ele>382.1666666666667</ele><time>2026-03-30T10:02:41.686Z</time></trkpt><trkpt lat="42.96682" lon="2.6143817"><ele>380.0</ele><time>2026-03-30T10:02:43.688Z</time></trkpt><trkpt lat="42.9667967" lon="2.6144917"><ele>378.6</ele><time>2026-03-30T10:02:45.689Z</time></trkpt><trkpt lat="42.966825" lon="2.6146233"><ele>377.2</ele><time>2026-03-30T10:02:47.686Z</time></trkpt><trkpt lat="42.9668017" lon="2.6147367"><ele>375.79999999999995</ele><time>2026-03-30T10:02:49.686Z</time></trkpt><trkpt lat="42.9667083" lon="2.6148133"><ele>374.4</ele><time>2026-03-30T10:02:51.686Z</time></trkpt><trkpt lat="42.9666117" lon="2.6149067"><ele>373.0</ele><time>2026-03-30T10:02:53.686Z</time></trkpt><trkpt lat="42.9665633" lon="2.61497"><ele>373.0</ele><time>2026-03-30T10:02:54.686Z</time></trkpt><trkpt lat="42.9665117" lon="2.615085"><ele>373.0</ele><time>2026-03-30T10:02:56.687Z</time></trkpt><trkpt lat="42.9665383" lon="2.6151633"><ele>373.0</ele><time>2026-03-30T10:02:59.686Z</time></trkpt><trkpt lat="42.9666167" lon="2.61516"><ele>373.0</ele><time>2026-03-30T10:03:05.687Z</time></trkpt><trkpt lat="42.9667417" lon="2.615165"><ele>373.0</ele><time>2026-03-30T10:03:07.687Z</time></trkpt><trkpt lat="42.966815" lon="2.6152083"><ele>373.0</ele><time>2026-03-30T10:03:08.686Z</time></trkpt><trkpt lat="42.9668883" lon="2.61528"><ele>372.59999999999997</ele><time>2026-03-30T10:03:09.685Z</time></trkpt><trkpt lat="42.966955" lon="2.6153783"><ele>372.2</ele><time>2026-03-30T10:03:10.687Z</time></trkpt><trkpt lat="42.9670117" lon="2.6154983"><ele>371.8</ele><time>2026-03-30T10:03:11.688Z</time></trkpt><trkpt lat="42.9670683" lon="2.61563"><ele>371.4</ele><time>2026-03-30T10:03:12.686Z</time></trkpt><trkpt lat="42.967125" lon="2.6157667"><ele>371.0</ele><time>2026-03-30T10:03:13.686Z</time></trkpt><trkpt lat="42.9671767" lon="2.6159"><ele>371.0</ele><time>2026-03-30T10:03:14.685Z</time></trkpt><trkpt lat="42.9672317" lon="2.61603"><ele>371.0</ele><time>2026-03-30T10:03:15.691Z</time></trkpt><trkpt lat="42.9672967" lon="2.6161567"><ele>371.0</ele><time>2026-03-30T10:03:16.688Z</time></trkpt><trkpt lat="42.96735" lon="2.6162817"><ele>371.0</ele><time>2026-03-30T10:03:17.685Z</time></trkpt><trkpt lat="42.9673817" lon="2.6164067"><ele>371.0</ele><time>2026-03-30T10:03:18.685Z</time></trkpt><trkpt lat="42.967375" lon="2.6165317"><ele>372.8</ele><time>2026-03-30T10:03:19.687Z</time></trkpt><trkpt lat="42.9673333" lon="2.616645"><ele>374.6</ele><time>2026-03-30T10:03:20.686Z</time></trkpt><trkpt lat="42.967255" lon="2.6167333"><ele>376.4</ele><time>2026-03-30T10:03:21.686Z</time></trkpt><trkpt lat="42.9671567" lon="2.6168183"><ele>378.2</ele><time>2026-03-30T10:03:22.686Z</time></trkpt><trkpt lat="42.9670583" lon="2.6169233"><ele>380.0</ele><time>2026-03-30T10:03:23.687Z</time></trkpt><trkpt lat="42.9669733" lon="2.6170483"><ele>384.75</ele><time>2026-03-30T10:03:24.689Z</time></trkpt><trkpt lat="42.9669" lon="2.61719"><ele>389.5</ele><time>2026-03-30T10:03:25.687Z</time></trkpt><trkpt lat="42.96683" lon="2.617345"><ele>394.25</ele><time>2026-03-30T10:03:26.686Z</time></trkpt><trkpt lat="42.9667633" lon="2.6175067"><ele>399.0</ele><time>2026-03-30T10:03:27.687Z</time></trkpt><trkpt lat="42.966695" lon="2.617675"><ele>396.0</ele><time>2026-03-30T10:03:28.687Z</time></trkpt><trkpt lat="42.9666317" lon="2.6178483"><ele>393.0</ele><time>2026-03-30T10:03:29.691Z</time></trkpt><trkpt lat="42.9665717" lon="2.618025"><ele>390.0</ele><time>2026-03-30T10:03:30.692Z</time></trkpt><trkpt lat="42.9665067" lon="2.6181983"><ele>387.0</ele><time>2026-03-30T10:03:31.688Z</time></trkpt><trkpt lat="42.966425" lon="2.6183667"><ele>387.0</ele><time>2026-03-30T10:03:32.687Z</time></trkpt><trkpt lat="42.9663417" lon="2.61853"><ele>387.0</ele><time>2026-03-30T10:03:33.687Z</time></trkpt><trkpt lat="42.9662583" lon="2.618705"><ele>387.0</ele><time>2026-03-30T10:03:34.687Z</time></trkpt><trkpt lat="42.966175" lon="2.6188817"><ele>390.5</ele><time>2026-03-30T10:03:35.687Z</time></trkpt><trkpt lat="42.9660883" lon="2.619065"><ele>394.0</ele><time>2026-03-30T10:03:36.689Z</time></trkpt><trkpt lat="42.9660167" lon="2.6192383"><ele>397.5</ele><time>2026-03-30T10:03:37.694Z</time></trkpt><trkpt lat="42.96596" lon="2.6193983"><ele>401.0</ele><time>2026-03-30T10:03:38.687Z</time></trkpt><trkpt lat="42.9659067" lon="2.6195667"><ele>398.0</ele><time>2026-03-30T10:03:39.686Z</time></trkpt><trkpt lat="42.9658317" lon="2.6197183"><ele>395.0</ele><time>2026-03-30T10:03:40.687Z</time></trkpt><trkpt lat="42.9657367" lon="2.619855"><ele>392.0</ele><time>2026-03-30T10:03:41.687Z</time></trkpt><trkpt lat="42.9656417" lon="2.6199967"><ele>389.0</ele><time>2026-03-30T10:03:42.686Z</time></trkpt><trkpt lat="42.9655617" lon="2.620155"><ele>391.25</ele><time>2026-03-30T10:03:43.687Z</time></trkpt><trkpt lat="42.96549" lon="2.62032"><ele>393.5</ele><time>2026-03-30T10:03:44.686Z</time></trkpt><trkpt lat="42.965415" lon="2.6204883"><ele>395.75</ele><time>2026-03-30T10:03:45.689Z</time></trkpt><trkpt lat="42.965335" lon="2.6206533"><ele>398.0</ele><time>2026-03-30T10:03:46.687Z</time></trkpt><trkpt lat="42.9652567" lon="2.6208183"><ele>398.0</ele><time>2026-03-30T10:03:47.688Z</time></trkpt><trkpt lat="42.9651817" lon="2.6209817"><ele>398.0</ele><time>2026-03-30T10:03:48.688Z</time></trkpt><trkpt lat="42.9650983" lon="2.6211367"><ele>398.0</ele><time>2026-03-30T10:03:49.687Z</time></trkpt><trkpt lat="42.9650033" lon="2.6212733"><ele>398.0</ele><time>2026-03-30T10:03:50.69Z</time></trkpt><trkpt lat="42.9648967" lon="2.6213917"><ele>396.25</ele><time>2026-03-30T10:03:51.687Z</time></trkpt><trkpt lat="42.9647933" lon="2.621515"><ele>394.5</ele><time>2026-03-30T10:03:52.688Z</time></trkpt><trkpt lat="42.96471" lon="2.62166"><ele>392.75</ele><time>2026-03-30T10:03:53.687Z</time></trkpt><trkpt lat="42.9646333" lon="2.62182"><ele>391.0</ele><time>2026-03-30T10:03:54.687Z</time></trkpt><trkpt lat="42.9645483" lon="2.6219783"><ele>391.0</ele><time>2026-03-30T10:03:55.687Z</time></trkpt><trkpt lat="42.9644417" lon="2.6221083"><ele>391.0</ele><time>2026-03-30T10:03:56.689Z</time></trkpt><trkpt lat="42.9643233" lon="2.6222167"><ele>391.0</ele><time>2026-03-30T10:03:57.688Z</time></trkpt><trkpt lat="42.9642067" lon="2.6223283"><ele>391.0</ele><time>2026-03-30T10:03:58.687Z</time></trkpt><trkpt lat="42.964095" lon="2.6224517"><ele>391.0</ele><time>2026-03-30T10:03:59.688Z</time></trkpt><trkpt lat="42.96398" lon="2.6225733"><ele>391.0</ele><time>2026-03-30T10:04:00.688Z</time></trkpt><trkpt lat="42.9638567" lon="2.6226817"><ele>391.0</ele><time>2026-03-30T10:04:01.693Z</time></trkpt><trkpt lat="42.9637283" lon="2.622775"><ele>391.0</ele><time>2026-03-30T10:04:02.688Z</time></trkpt><trkpt lat="42.9635967" lon="2.6228633"><ele>393.25</ele><time>2026-03-30T10:04:03.688Z</time></trkpt><trkpt lat="42.9634617" lon="2.622955"><ele>395.5</ele><time>2026-03-30T10:04:04.687Z</time></trkpt><trkpt lat="42.96333" lon="2.6230383"><ele>397.75</ele><time>2026-03-30T10:04:05.687Z</time></trkpt><trkpt lat="42.9632017" lon="2.623135"><ele>400.0</ele><time>2026-03-30T10:04:06.689Z</time></trkpt><trkpt lat="42.9630783" lon="2.62326"><ele>400.0</ele><time>2026-03-30T10:04:07.688Z</time></trkpt><trkpt lat="42.9629667" lon="2.6233733"><ele>400.0</ele><time>2026-03-30T10:04:08.687Z</time></trkpt><trkpt lat="42.962855" lon="2.6234917"><ele>400.0</ele><time>2026-03-30T10:04:09.69Z</time></trkpt><trkpt lat="42.9627417" lon="2.623605"><ele>400.0</ele><time>2026-03-30T10:04:10.687Z</time></trkpt><trkpt lat="42.962635" lon="2.6237217"><ele>402.25</ele><time>2026-03-30T10:04:11.687Z</time></trkpt><trkpt lat="42.962535" lon="2.6238383"><ele>404.5</ele><time>2026-03-30T10:04:12.688Z</time></trkpt><trkpt lat="42.9624417" lon="2.62396"><ele>406.75</ele><time>2026-03-30T10:04:13.686Z</time></trkpt><trkpt lat="42.9623483" lon="2.624085"><ele>409.0</ele><time>2026-03-30T10:04:14.689Z</time></trkpt><trkpt lat="42.9622783" lon="2.624225"><ele>409.0</ele><time>2026-03-30T10:04:15.686Z</time></trkpt><trkpt lat="42.9622117" lon="2.6243817"><ele>409.0</ele><time>2026-03-30T10:04:16.686Z</time></trkpt><trkpt lat="42.9621467" lon="2.6245417"><ele>409.0</ele><time>2026-03-30T10:04:17.686Z</time></trkpt><trkpt lat="42.9620683" lon="2.6246917"><ele>409.0</ele><time>2026-03-30T10:04:18.686Z</time></trkpt><trkpt lat="42.9619683" lon="2.62482"><ele>409.25</ele><time>2026-03-30T10:04:19.692Z</time></trkpt><trkpt lat="42.9618533" lon="2.6249233"><ele>409.5</ele><time>2026-03-30T10:04:20.686Z</time></trkpt><trkpt lat="42.96173" lon="2.6250183"><ele>409.75</ele><time>2026-03-30T10:04:21.685Z</time></trkpt><trkpt lat="42.96161" lon="2.62512"><ele>410.0</ele><time>2026-03-30T10:04:22.686Z</time></trkpt><trkpt lat="42.9614933" lon="2.625225"><ele>410.75</ele><time>2026-03-30T10:04:23.686Z</time></trkpt><trkpt lat="42.9613867" lon="2.6253367"><ele>411.5</ele><time>2026-03-30T10:04:24.688Z</time></trkpt><trkpt lat="42.9612917" lon="2.62545"><ele>412.25</ele><time>2026-03-30T10:04:25.687Z</time></trkpt><trkpt lat="42.9612217" lon="2.625595"><ele>413.0</ele><time>2026-03-30T10:04:26.687Z</time></trkpt><trkpt lat="42.9611583" lon="2.6257517"><ele>413.0</ele><time>2026-03-30T10:04:27.687Z</time></trkpt><trkpt lat="42.9610867" lon="2.625905"><ele>413.0</ele><time>2026-03-30T10:04:28.689Z</time></trkpt><trkpt lat="42.9610067" lon="2.6260567"><ele>413.0</ele><time>2026-03-30T10:04:29.687Z</time></trkpt><trkpt lat="42.960915" lon="2.6261933"><ele>413.0</ele><time>2026-03-30T10:04:30.69Z</time></trkpt><trkpt lat="42.9608033" lon="2.6263033"><ele>415.0</ele><time>2026-03-30T10:04:31.686Z</time></trkpt><trkpt lat="42.9606817" lon="2.626395"><ele>417.0</ele><time>2026-03-30T10:04:32.687Z</time></trkpt><trkpt lat="42.96055" lon="2.6264683"><ele>419.0</ele><time>2026-03-30T10:04:33.685Z</time></trkpt><trkpt lat="42.9604117" lon="2.6265417"><ele>421.0</ele><time>2026-03-30T10:04:34.687Z</time></trkpt><trkpt lat="42.9602767" lon="2.6266083"><ele>421.0</ele><time>2026-03-30T10:04:35.686Z</time></trkpt><trkpt lat="42.9601417" lon="2.6266783"><ele>421.0</ele><time>2026-03-30T10:04:36.688Z</time></trkpt><trkpt lat="42.9600117" lon="2.626755"><ele>421.0</ele><time>2026-03-30T10:04:37.69Z</time></trkpt><trkpt lat="42.9598917" lon="2.6268567"><ele>421.0</ele><time>2026-03-30T10:04:38.686Z</time></trkpt><trkpt lat="42.9597883" lon="2.62698"><ele>422.5</ele><time>2026-03-30T10:04:39.686Z</time></trkpt><trkpt lat="42.9596917" lon="2.6271183"><ele>424.0</ele><time>2026-03-30T10:04:40.687Z</time></trkpt><trkpt lat="42.9595967" lon="2.6272533"><ele>425.5</ele><time>2026-03-30T10:04:41.686Z</time></trkpt><trkpt lat="42.959495" lon="2.6273783"><ele>427.0</ele><time>2026-03-30T10:04:42.688Z</time></trkpt><trkpt lat="42.9593883" lon="2.627495"><ele>427.0</ele><time>2026-03-30T10:04:43.687Z</time></trkpt><trkpt lat="42.9592883" lon="2.6276167"><ele>427.0</ele><time>2026-03-30T10:04:44.689Z</time></trkpt><trkpt lat="42.9592033" lon="2.627745"><ele>427.0</ele><time>2026-03-30T10:04:45.686Z</time></trkpt><trkpt lat="42.9591333" lon="2.627885"><ele>427.0</ele><time>2026-03-30T10:04:46.688Z</time></trkpt><trkpt lat="42.959085" lon="2.62805"><ele>427.0</ele><time>2026-03-30T10:04:47.687Z</time></trkpt><trkpt lat="42.9590567" lon="2.6282167"><ele>427.0</ele><time>2026-03-30T10:04:48.686Z</time></trkpt><trkpt lat="42.9590417" lon="2.6283817"><ele>427.0</ele><time>2026-03-30T10:04:49.688Z</time></trkpt><trkpt lat="42.9590283" lon="2.62854"><ele>427.0</ele><time>2026-03-30T10:04:50.689Z</time></trkpt><trkpt lat="42.95901" lon="2.62869"><ele>429.00000000000006</ele><time>2026-03-30T10:04:51.687Z</time></trkpt><trkpt lat="42.9589867" lon="2.62883"><ele>431.0</ele><time>2026-03-30T10:04:52.687Z</time></trkpt><trkpt lat="42.958955" lon="2.62895"><ele>433.0</ele><time>2026-03-30T10:04:53.688Z</time></trkpt><trkpt lat="42.9589133" lon="2.6290467"><ele>435.0</ele><time>2026-03-30T10:04:54.689Z</time></trkpt><trkpt lat="42.9588317" lon="2.629065"><ele>437.00000000000006</ele><time>2026-03-30T10:04:55.686Z</time></trkpt><trkpt lat="42.9587483" lon="2.6290417"><ele>439.0</ele><time>2026-03-30T10:04:56.688Z</time></trkpt><trkpt lat="42.95868" lon="2.6289367"><ele>439.0</ele><time>2026-03-30T10:04:57.687Z</time></trkpt><trkpt lat="42.9586083" lon="2.6288217"><ele>439.0</ele><time>2026-03-30T10:04:58.686Z</time></trkpt><trkpt lat="42.9585333" lon="2.6287167"><ele>439.0</ele><time>2026-03-30T10:04:59.688Z</time></trkpt><trkpt lat="42.958455" lon="2.6286233"><ele>439.0</ele><time>2026-03-30T10:05:00.687Z</time></trkpt><trkpt lat="42.9583683" lon="2.6285433"><ele>439.0</ele><time>2026-03-30T10:05:01.686Z</time></trkpt><trkpt lat="42.9582633" lon="2.6284883"><ele>436.5</ele><time>2026-03-30T10:05:02.687Z</time></trkpt><trkpt lat="42.9581483" lon="2.6284667"><ele>434.0</ele><time>2026-03-30T10:05:03.687Z</time></trkpt><trkpt lat="42.95803" lon="2.6284683"><ele>431.5</ele><time>2026-03-30T10:05:04.688Z</time></trkpt><trkpt lat="42.9579117" lon="2.628485"><ele>429.0</ele><time>2026-03-30T10:05:05.688Z</time></trkpt><trkpt lat="42.9577933" lon="2.6285133"><ele>429.0</ele><time>2026-03-30T10:05:06.688Z</time></trkpt><trkpt lat="42.9576733" lon="2.62856"><ele>429.0</ele><time>2026-03-30T10:05:07.687Z</time></trkpt><trkpt lat="42.9575517" lon="2.6286067"><ele>429.0</ele><time>2026-03-30T10:05:08.688Z</time></trkpt><trkpt lat="42.9574333" lon="2.6286533"><ele>429.0</ele><time>2026-03-30T10:05:09.689Z</time></trkpt><trkpt lat="42.957315" lon="2.6287117"><ele>434.0</ele><time>2026-03-30T10:05:10.686Z</time></trkpt><trkpt lat="42.9572" lon="2.6287817"><ele>439.0</ele><time>2026-03-30T10:05:11.688Z</time></trkpt><trkpt lat="42.95709" lon="2.628875"><ele>444.0</ele><time>2026-03-30T10:05:12.687Z</time></trkpt><trkpt lat="42.9569867" lon="2.62898"><ele>449.0</ele><time>2026-03-30T10:05:13.687Z</time></trkpt><trkpt lat="42.956895" lon="2.62909"><ele>449.0</ele><time>2026-03-30T10:05:14.69Z</time></trkpt><trkpt lat="42.9568117" lon="2.629215"><ele>449.0</ele><time>2026-03-30T10:05:15.688Z</time></trkpt><trkpt lat="42.9567317" lon="2.629345"><ele>449.0</ele><time>2026-03-30T10:05:16.688Z</time></trkpt><trkpt lat="42.9566533" lon="2.6294833"><ele>449.0</ele><time>2026-03-30T10:05:17.687Z</time></trkpt><trkpt lat="42.956575" lon="2.6296267"><ele>448.75</ele><time>2026-03-30T10:05:18.688Z</time></trkpt><trkpt lat="42.9565" lon="2.629775"><ele>448.5</ele><time>2026-03-30T10:05:19.688Z</time></trkpt><trkpt lat="42.9564283" lon="2.6299283"><ele>448.25</ele><time>2026-03-30T10:05:20.687Z</time></trkpt><trkpt lat="42.9563617" lon="2.63009"><ele>448.0</ele><time>2026-03-30T10:05:21.687Z</time></trkpt><trkpt lat="42.9562983" lon="2.630255"><ele>451.75</ele><time>2026-03-30T10:05:22.687Z</time></trkpt><trkpt lat="42.9562383" lon="2.6304217"><ele>455.5</ele><time>2026-03-30T10:05:23.687Z</time></trkpt><trkpt lat="42.9561733" lon="2.6305983"><ele>459.25</ele><time>2026-03-30T10:05:24.689Z</time></trkpt><trkpt lat="42.9561083" lon="2.6307583"><ele>463.0</ele><time>2026-03-30T10:05:25.687Z</time></trkpt><trkpt lat="42.9560083" lon="2.6308883"><ele>463.0</ele><time>2026-03-30T10:05:26.687Z</time></trkpt><trkpt lat="42.9558917" lon="2.63099"><ele>463.0</ele><time>2026-03-30T10:05:27.687Z</time></trkpt><trkpt lat="42.9557667" lon="2.6310783"><ele>463.0</ele><time>2026-03-30T10:05:28.686Z</time></trkpt><trkpt lat="42.955635" lon="2.6311517"><ele>463.0</ele><time>2026-03-30T10:05:29.692Z</time></trkpt><trkpt lat="42.955505" lon="2.6312217"><ele>462.75</ele><time>2026-03-30T10:05:30.686Z</time></trkpt><trkpt lat="42.95538" lon="2.631305"><ele>462.5</ele><time>2026-03-30T10:05:31.685Z</time></trkpt><trkpt lat="42.9552633" lon="2.6314017"><ele>462.25</ele><time>2026-03-30T10:05:32.692Z</time></trkpt><trkpt lat="42.9551533" lon="2.6315067"><ele>462.0</ele><time>2026-03-30T10:05:33.687Z</time></trkpt><trkpt lat="42.955045" lon="2.6316183"><ele>461.75</ele><time>2026-03-30T10:05:34.687Z</time></trkpt><trkpt lat="42.9549433" lon="2.6317383"><ele>461.5</ele><time>2026-03-30T10:05:35.686Z</time></trkpt><trkpt lat="42.9548567" lon="2.6318683"><ele>461.25</ele><time>2026-03-30T10:05:36.686Z</time></trkpt><trkpt lat="42.9547967" lon="2.6320017"><ele>461.0</ele><time>2026-03-30T10:05:37.687Z</time></trkpt><trkpt lat="42.954775" lon="2.63213"><ele>460.99999999999994</ele><time>2026-03-30T10:05:38.686Z</time></trkpt><trkpt lat="42.954795" lon="2.6322383"><ele>461.0</ele><time>2026-03-30T10:05:39.685Z</time></trkpt><trkpt lat="42.9548417" lon="2.63232"><ele>461.0</ele><time>2026-03-30T10:05:40.685Z</time></trkpt><trkpt lat="42.9549167" lon="2.6323617"><ele>461.0</ele><time>2026-03-30T10:05:41.686Z</time></trkpt><trkpt lat="42.9549867" lon="2.6324117"><ele>460.99999999999994</ele><time>2026-03-30T10:05:42.685Z</time></trkpt><trkpt lat="42.9550383" lon="2.6324867"><ele>461.0</ele><time>2026-03-30T10:05:43.686Z</time></trkpt><trkpt lat="42.9550667" lon="2.63258"><ele>462.8333333333333</ele><time>2026-03-30T10:05:44.687Z</time></trkpt><trkpt lat="42.95507" lon="2.63268"><ele>464.66666666666663</ele><time>2026-03-30T10:05:45.687Z</time></trkpt><trkpt lat="42.9550433" lon="2.6327767"><ele>466.5</ele><time>2026-03-30T10:05:46.687Z</time></trkpt><trkpt lat="42.9550183" lon="2.632875"><ele>468.33333333333337</ele><time>2026-03-30T10:05:47.687Z</time></trkpt><trkpt lat="42.95498" lon="2.6329733"><ele>470.1666666666667</ele><time>2026-03-30T10:05:48.686Z</time></trkpt><trkpt lat="42.9549083" lon="2.6330517"><ele>472.0</ele><time>2026-03-30T10:05:49.688Z</time></trkpt><trkpt lat="42.9548217" lon="2.63309"><ele>472.00000000000006</ele><time>2026-03-30T10:05:50.686Z</time></trkpt><trkpt lat="42.954735" lon="2.6331183"><ele>472.0</ele><time>2026-03-30T10:05:51.686Z</time></trkpt><trkpt lat="42.9546583" lon="2.63316"><ele>472.0</ele><time>2026-03-30T10:05:52.686Z</time></trkpt><trkpt lat="42.95459" lon="2.6332183"><ele>472.0</ele><time>2026-03-30T10:05:53.686Z</time></trkpt><trkpt lat="42.9545367" lon="2.6332883"><ele>472.00000000000006</ele><time>2026-03-30T10:05:54.686Z</time></trkpt><trkpt lat="42.9545083" lon="2.633425"><ele>472.0</ele><time>2026-03-30T10:05:56.687Z</time></trkpt><trkpt lat="42.954565" lon="2.6335233"><ele>472.00000000000006</ele><time>2026-03-30T10:05:58.686Z</time></trkpt><trkpt lat="42.95468" lon="2.63358"><ele>472.0</ele><time>2026-03-30T10:06:00.693Z</time></trkpt><trkpt lat="42.9547567" lon="2.6335917"><ele>472.0</ele><time>2026-03-30T10:06:01.688Z</time></trkpt><trkpt lat="42.9548333" lon="2.6336017"><ele>472.0</ele><time>2026-03-30T10:06:02.688Z</time></trkpt><trkpt lat="42.9549117" lon="2.6336167"><ele>472.00000000000006</ele><time>2026-03-30T10:06:03.689Z</time></trkpt><trkpt lat="42.955" lon="2.6336417"><ele>472.0</ele><time>2026-03-30T10:06:04.686Z</time></trkpt><trkpt lat="42.9550967" lon="2.6336717"><ele>475.20000000000005</ele><time>2026-03-30T10:06:05.687Z</time></trkpt><trkpt lat="42.9551967" lon="2.6337033"><ele>478.40000000000003</ele><time>2026-03-30T10:06:06.686Z</time></trkpt><trkpt lat="42.9552833" lon="2.63374"><ele>481.59999999999997</ele><time>2026-03-30T10:06:07.688Z</time></trkpt><trkpt lat="42.9553883" lon="2.633805"><ele>484.79999999999995</ele><time>2026-03-30T10:06:08.688Z</time></trkpt><trkpt lat="42.955495" lon="2.6338667"><ele>488.0</ele><time>2026-03-30T10:06:09.687Z</time></trkpt><trkpt lat="42.9556033" lon="2.633915"><ele>487.99999999999994</ele><time>2026-03-30T10:06:10.688Z</time></trkpt><trkpt lat="42.9556867" lon="2.6339633"><ele>488.0</ele><time>2026-03-30T10:06:11.687Z</time></trkpt><trkpt lat="42.955745" lon="2.6340333"><ele>488.0</ele><time>2026-03-30T10:06:12.686Z</time></trkpt><trkpt lat="42.9557917" lon="2.63411"><ele>488.0</ele><time>2026-03-30T10:06:13.686Z</time></trkpt><trkpt lat="42.9558317" lon="2.6342067"><ele>487.99999999999994</ele><time>2026-03-30T10:06:14.687Z</time></trkpt><trkpt lat="42.9558817" lon="2.6343183"><ele>488.0</ele><time>2026-03-30T10:06:15.69Z</time></trkpt><trkpt lat="42.955935" lon="2.6344533"><ele>486.79999999999995</ele><time>2026-03-30T10:06:16.685Z</time></trkpt><trkpt lat="42.95598" lon="2.63458"><ele>485.59999999999997</ele><time>2026-03-30T10:06:17.688Z</time></trkpt><trkpt lat="42.956025" lon="2.634705"><ele>484.40000000000003</ele><time>2026-03-30T10:06:18.689Z</time></trkpt><trkpt lat="42.9560683" lon="2.63483"><ele>483.20000000000005</ele><time>2026-03-30T10:06:19.685Z</time></trkpt><trkpt lat="42.95609" lon="2.6349717"><ele>482.0</ele><time>2026-03-30T10:06:20.689Z</time></trkpt><trkpt lat="42.9561117" lon="2.63509"><ele>481.99999999999994</ele><time>2026-03-30T10:06:21.688Z</time></trkpt><trkpt lat="42.956135" lon="2.6351967"><ele>482.0</ele><time>2026-03-30T10:06:22.687Z</time></trkpt><trkpt lat="42.9561733" lon="2.6352917"><ele>482.0</ele><time>2026-03-30T10:06:23.685Z</time></trkpt><trkpt lat="42.956225" lon="2.6353417"><ele>482.0</ele><time>2026-03-30T10:06:24.686Z</time></trkpt><trkpt lat="42.9562967" lon="2.63537"><ele>481.99999999999994</ele><time>2026-03-30T10:06:25.686Z</time></trkpt><trkpt lat="42.95638" lon="2.6353817"><ele>482.0</ele><time>2026-03-30T10:06:26.688Z</time></trkpt><trkpt lat="42.9564717" lon="2.6353767"><ele>484.20000000000005</ele><time>2026-03-30T10:06:27.685Z</time></trkpt><trkpt lat="42.9565517" lon="2.6353817"><ele>486.40000000000003</ele><time>2026-03-30T10:06:28.689Z</time></trkpt><trkpt lat="42.9566183" lon="2.6354117"><ele>488.59999999999997</ele><time>2026-03-30T10:06:29.688Z</time></trkpt><trkpt lat="42.9566817" lon="2.635535"><ele>490.79999999999995</ele><time>2026-03-30T10:06:31.687Z</time></trkpt><trkpt lat="42.9566717" lon="2.63571"><ele>493.0</ele><time>2026-03-30T10:06:33.687Z</time></trkpt><trkpt lat="42.95665" lon="2.6358217"><ele>493.0</ele><time>2026-03-30T10:06:34.686Z</time></trkpt><trkpt lat="42.956625" lon="2.6359517"><ele>492.99999999999994</ele><time>2026-03-30T10:06:35.685Z</time></trkpt><trkpt lat="42.9566033" lon="2.6361017"><ele>492.99999999999994</ele><time>2026-03-30T10:06:36.688Z</time></trkpt><trkpt lat="42.956585" lon="2.6362583"><ele>493.0</ele><time>2026-03-30T10:06:37.691Z</time></trkpt><trkpt lat="42.9565617" lon="2.6364"><ele>493.0</ele><time>2026-03-30T10:06:38.688Z</time></trkpt><trkpt lat="42.9565383" lon="2.6365283"><ele>493.0</ele><time>2026-03-30T10:06:39.689Z</time></trkpt><trkpt lat="42.9565033" lon="2.6366483"><ele>492.99999999999994</ele><time>2026-03-30T10:06:40.688Z</time></trkpt><trkpt lat="42.9564633" lon="2.63676"><ele>492.99999999999994</ele><time>2026-03-30T10:06:41.688Z</time></trkpt><trkpt lat="42.956415" lon="2.6368733"><ele>493.0</ele><time>2026-03-30T10:06:42.686Z</time></trkpt><trkpt lat="42.9563667" lon="2.6369717"><ele>493.0</ele><time>2026-03-30T10:06:43.685Z</time></trkpt><trkpt lat="42.9563133" lon="2.6370667"><ele>494.83333333333337</ele><time>2026-03-30T10:06:44.689Z</time></trkpt><trkpt lat="42.956255" lon="2.6371517"><ele>496.6666666666667</ele><time>2026-03-30T10:06:45.686Z</time></trkpt><trkpt lat="42.956195" lon="2.6372283"><ele>498.5</ele><time>2026-03-30T10:06:46.686Z</time></trkpt><trkpt lat="42.9561417" lon="2.637295"><ele>500.33333333333337</ele><time>2026-03-30T10:06:47.685Z</time></trkpt><trkpt lat="42.9560967" lon="2.6373717"><ele>502.1666666666667</ele><time>2026-03-30T10:06:48.687Z</time></trkpt><trkpt lat="42.95608" lon="2.6374667"><ele>504.0</ele><time>2026-03-30T10:06:49.688Z</time></trkpt><trkpt lat="42.95607" lon="2.6375683"><ele>504.0</ele><time>2026-03-30T10:06:50.685Z</time></trkpt><trkpt lat="42.9560967" lon="2.6376517"><ele>504.0</ele><time>2026-03-30T10:06:51.687Z</time></trkpt><trkpt lat="42.9561383" lon="2.63772"><ele>504.0</ele><time>2026-03-30T10:06:52.685Z</time></trkpt><trkpt lat="42.956205" lon="2.6377667"><ele>504.0</ele><time>2026-03-30T10:06:53.685Z</time></trkpt><trkpt lat="42.9562883" lon="2.63779"><ele>504.0</ele><time>2026-03-30T10:06:54.687Z</time></trkpt><trkpt lat="42.9563983" lon="2.6377833"><ele>504.0</ele><time>2026-03-30T10:06:55.685Z</time></trkpt><trkpt lat="42.9564967" lon="2.637775"><ele>504.0</ele><time>2026-03-30T10:06:56.686Z</time></trkpt><trkpt lat="42.9565867" lon="2.637775"><ele>504.0</ele><time>2026-03-30T10:06:57.685Z</time></trkpt><trkpt lat="42.95667" lon="2.6377867"><ele>504.0</ele><time>2026-03-30T10:06:58.686Z</time></trkpt><trkpt lat="42.9567483" lon="2.6377883"><ele>504.0</ele><time>2026-03-30T10:06:59.687Z</time></trkpt><trkpt lat="42.9568167" lon="2.63778"><ele>504.0</ele><time>2026-03-30T10:07:00.687Z</time></trkpt><trkpt lat="42.9568583" lon="2.6377117"><ele>504.0</ele><time>2026-03-30T10:07:01.687Z</time></trkpt><trkpt lat="42.9568933" lon="2.6376217"><ele>506.2</ele><time>2026-03-30T10:07:02.687Z</time></trkpt><trkpt lat="42.9569467" lon="2.6375483"><ele>508.4</ele><time>2026-03-30T10:07:03.686Z</time></trkpt><trkpt lat="42.9570183" lon="2.6374833"><ele>510.6</ele><time>2026-03-30T10:07:04.687Z</time></trkpt><trkpt lat="42.9571117" lon="2.637425"><ele>512.8</ele><time>2026-03-30T10:07:05.692Z</time></trkpt><trkpt lat="42.9572167" lon="2.6373683"><ele>515.0</ele><time>2026-03-30T10:07:06.687Z</time></trkpt><trkpt lat="42.957325" lon="2.6373167"><ele>515.0</ele><time>2026-03-30T10:07:07.686Z</time></trkpt><trkpt lat="42.9574333" lon="2.6372683"><ele>515.0</ele><time>2026-03-30T10:07:08.69Z</time></trkpt><trkpt lat="42.9575417" lon="2.6372317"><ele>515.0</ele><time>2026-03-30T10:07:09.688Z</time></trkpt><trkpt lat="42.957655" lon="2.6372117"><ele>515.0</ele><time>2026-03-30T10:07:10.685Z</time></trkpt><trkpt lat="42.95777" lon="2.6372067"><ele>515.5</ele><time>2026-03-30T10:07:11.688Z</time></trkpt><trkpt lat="42.9578917" lon="2.6372133"><ele>516.0</ele><time>2026-03-30T10:07:12.688Z</time></trkpt><trkpt lat="42.9580183" lon="2.63723"><ele>516.5</ele><time>2026-03-30T10:07:13.686Z</time></trkpt><trkpt lat="42.9581533" lon="2.63724"><ele>517.0</ele><time>2026-03-30T10:07:14.687Z</time></trkpt><trkpt lat="42.9582833" lon="2.6372533"><ele>516.4</ele><time>2026-03-30T10:07:15.687Z</time></trkpt><trkpt lat="42.958405" lon="2.6372683"><ele>515.8000000000001</ele><time>2026-03-30T10:07:16.687Z</time></trkpt><trkpt lat="42.9585083" lon="2.6372867"><ele>515.2</ele><time>2026-03-30T10:07:17.689Z</time></trkpt><trkpt lat="42.9586" lon="2.6373033"><ele>514.6</ele><time>2026-03-30T10:07:18.687Z</time></trkpt><trkpt lat="42.95869" lon="2.63731"><ele>514.0</ele><time>2026-03-30T10:07:19.687Z</time></trkpt><trkpt lat="42.9587833" lon="2.6372983"><ele>514.0</ele><time>2026-03-30T10:07:20.687Z</time></trkpt><trkpt lat="42.9588917" lon="2.63726"><ele>514.0</ele><time>2026-03-30T10:07:21.685Z</time></trkpt><trkpt lat="42.9590083" lon="2.63721"><ele>514.0</ele><time>2026-03-30T10:07:22.685Z</time></trkpt><trkpt lat="42.9591267" lon="2.6371583"><ele>514.0</ele><time>2026-03-30T10:07:23.687Z</time></trkpt><trkpt lat="42.9592583" lon="2.6371167"><ele>514.75</ele><time>2026-03-30T10:07:24.686Z</time></trkpt><trkpt lat="42.95939" lon="2.637095"><ele>515.5</ele><time>2026-03-30T10:07:25.688Z</time></trkpt><trkpt lat="42.95952" lon="2.637075"><ele>516.25</ele><time>2026-03-30T10:07:26.686Z</time></trkpt><trkpt lat="42.95964" lon="2.637055"><ele>517.0</ele><time>2026-03-30T10:07:27.692Z</time></trkpt><trkpt lat="42.95975" lon="2.6370267"><ele>517.0</ele><time>2026-03-30T10:07:28.686Z</time></trkpt><trkpt lat="42.9598533" lon="2.6370067"><ele>517.0</ele><time>2026-03-30T10:07:29.687Z</time></trkpt><trkpt lat="42.9599483" lon="2.6370083"><ele>517.0</ele><time>2026-03-30T10:07:30.687Z</time></trkpt><trkpt lat="42.960045" lon="2.637035"><ele>517.0</ele><time>2026-03-30T10:07:31.686Z</time></trkpt><trkpt lat="42.960135" lon="2.63709"><ele>517.0</ele><time>2026-03-30T10:07:32.687Z</time></trkpt><trkpt lat="42.9602133" lon="2.637175"><ele>519.2</ele><time>2026-03-30T10:07:33.686Z</time></trkpt><trkpt lat="42.960275" lon="2.6372867"><ele>521.4000000000001</ele><time>2026-03-30T10:07:34.686Z</time></trkpt><trkpt lat="42.9603217" lon="2.637415"><ele>523.5999999999999</ele><time>2026-03-30T10:07:35.694Z</time></trkpt><trkpt lat="42.9603683" lon="2.63753"><ele>525.8</ele><time>2026-03-30T10:07:36.687Z</time></trkpt><trkpt lat="42.96042" lon="2.63763"><ele>528.0</ele><time>2026-03-30T10:07:37.689Z</time></trkpt><trkpt lat="42.9604817" lon="2.6377233"><ele>528.0</ele><time>2026-03-30T10:07:38.688Z</time></trkpt><trkpt lat="42.9605333" lon="2.6378017"><ele>528.0</ele><time>2026-03-30T10:07:39.686Z</time></trkpt><trkpt lat="42.9605917" lon="2.6378617"><ele>528.0</ele><time>2026-03-30T10:07:40.686Z</time></trkpt><trkpt lat="42.9606567" lon="2.63791"><ele>528.0</ele><time>2026-03-30T10:07:41.688Z</time></trkpt><trkpt lat="42.960725" lon="2.6379367"><ele>528.0</ele><time>2026-03-30T10:07:42.689Z</time></trkpt><trkpt lat="42.9607883" lon="2.6379417"><ele>528.0</ele><time>2026-03-30T10:07:43.686Z</time></trkpt><trkpt lat="42.9609017" lon="2.6378867"><ele>527.8333333333334</ele><time>2026-03-30T10:07:45.685Z</time></trkpt><trkpt lat="42.9609683" lon="2.63776"><ele>527.6666666666666</ele><time>2026-03-30T10:07:47.685Z</time></trkpt><trkpt lat="42.9609967" lon="2.6376"><ele>527.5</ele><time>2026-03-30T10:07:49.686Z</time></trkpt><trkpt lat="42.9610033" lon="2.63751"><ele>527.3333333333333</ele><time>2026-03-30T10:07:50.687Z</time></trkpt><trkpt lat="42.961015" lon="2.63742"><ele>527.1666666666666</ele><time>2026-03-30T10:07:51.686Z</time></trkpt><trkpt lat="42.961035" lon="2.63733"><ele>527.0</ele><time>2026-03-30T10:07:52.687Z</time></trkpt><trkpt lat="42.9610617" lon="2.6372367"><ele>527.0</ele><time>2026-03-30T10:07:53.688Z</time></trkpt><trkpt lat="42.9610917" lon="2.63715"><ele>527.0</ele><time>2026-03-30T10:07:54.689Z</time></trkpt><trkpt lat="42.9611267" lon="2.6370567"><ele>527.0</ele><time>2026-03-30T10:07:55.686Z</time></trkpt><trkpt lat="42.9611717" lon="2.6369583"><ele>527.0</ele><time>2026-03-30T10:07:56.688Z</time></trkpt><trkpt lat="42.9612317" lon="2.6368517"><ele>527.0</ele><time>2026-03-30T10:07:57.687Z</time></trkpt><trkpt lat="42.961295" lon="2.6367567"><ele>527.0</ele><time>2026-03-30T10:07:58.687Z</time></trkpt><trkpt lat="42.961355" lon="2.6366933"><ele>530.75</ele><time>2026-03-30T10:07:59.693Z</time></trkpt><trkpt lat="42.9614967" lon="2.6366667"><ele>534.5</ele><time>2026-03-30T10:08:01.687Z</time></trkpt><trkpt lat="42.9615967" lon="2.6366867"><ele>538.25</ele><time>2026-03-30T10:08:02.687Z</time></trkpt><trkpt lat="42.9617033" lon="2.636705"><ele>542.0</ele><time>2026-03-30T10:08:03.687Z</time></trkpt><trkpt lat="42.9618033" lon="2.6367233"><ele>542.0</ele><time>2026-03-30T10:08:04.688Z</time></trkpt><trkpt lat="42.9618933" lon="2.6367333"><ele>542.0</ele><time>2026-03-30T10:08:05.687Z</time></trkpt><trkpt lat="42.9619767" lon="2.6367317"><ele>542.0</ele><time>2026-03-30T10:08:06.687Z</time></trkpt><trkpt lat="42.96206" lon="2.63672"><ele>542.0</ele><time>2026-03-30T10:08:07.688Z</time></trkpt><trkpt lat="42.962135" lon="2.6367"><ele>542.0</ele><time>2026-03-30T10:08:08.685Z</time></trkpt><trkpt lat="42.96221" lon="2.63667"><ele>542.0</ele><time>2026-03-30T10:08:09.686Z</time></trkpt><trkpt lat="42.9622817" lon="2.6366333"><ele>542.0</ele><time>2026-03-30T10:08:10.685Z</time></trkpt><trkpt lat="42.9623517" lon="2.63658"><ele>542.0</ele><time>2026-03-30T10:08:11.686Z</time></trkpt><trkpt lat="42.9624" lon="2.6364917"><ele>542.0</ele><time>2026-03-30T10:08:12.686Z</time></trkpt><trkpt lat="42.9624417" lon="2.6363917"><ele>542.0</ele><time>2026-03-30T10:08:13.688Z</time></trkpt><trkpt lat="42.9624783" lon="2.636295"><ele>542.0</ele><time>2026-03-30T10:08:14.688Z</time></trkpt><trkpt lat="42.9625083" lon="2.6361833"><ele>542.0</ele><time>2026-03-30T10:08:15.695Z</time></trkpt><trkpt lat="42.9625417" lon="2.6360783"><ele>543.4</ele><time>2026-03-30T10:08:16.687Z</time></trkpt><trkpt lat="42.96259" lon="2.6359733"><ele>544.8000000000001</ele><time>2026-03-30T10:08:17.685Z</time></trkpt><trkpt lat="42.9626517" lon="2.6358583"><ele>546.2</ele><time>2026-03-30T10:08:18.687Z</time></trkpt><trkpt lat="42.9627133" lon="2.6357517"><ele>547.6</ele><time>2026-03-30T10:08:19.691Z</time></trkpt><trkpt lat="42.9627833" lon="2.6356567"><ele>549.0</ele><time>2026-03-30T10:08:20.687Z</time></trkpt><trkpt lat="42.9628533" lon="2.6355833"><ele>549.0</ele><time>2026-03-30T10:08:21.686Z</time></trkpt><trkpt lat="42.962935" lon="2.6355083"><ele>549.0</ele><time>2026-03-30T10:08:22.686Z</time></trkpt><trkpt lat="42.9630183" lon="2.635435"><ele>549.0</ele><time>2026-03-30T10:08:23.686Z</time></trkpt><trkpt lat="42.9631033" lon="2.6353683"><ele>549.0</ele><time>2026-03-30T10:08:24.687Z</time></trkpt><trkpt lat="42.9631833" lon="2.6352983"><ele>549.0</ele><time>2026-03-30T10:08:25.686Z</time></trkpt><trkpt lat="42.9632467" lon="2.6352183"><ele>549.8</ele><time>2026-03-30T10:08:26.69Z</time></trkpt><trkpt lat="42.9633033" lon="2.6351183"><ele>550.5999999999999</ele><time>2026-03-30T10:08:27.689Z</time></trkpt><trkpt lat="42.9633433" lon="2.635"><ele>551.4</ele><time>2026-03-30T10:08:28.688Z</time></trkpt><trkpt lat="42.9633867" lon="2.634865"><ele>552.1999999999999</ele><time>2026-03-30T10:08:29.685Z</time></trkpt><trkpt lat="42.9634233" lon="2.6347217"><ele>553.0</ele><time>2026-03-30T10:08:30.687Z</time></trkpt><trkpt lat="42.9634567" lon="2.6345767"><ele>554.1666666666667</ele><time>2026-03-30T10:08:31.688Z</time></trkpt><trkpt lat="42.9634883" lon="2.6344417"><ele>555.3333333333334</ele><time>2026-03-30T10:08:32.694Z</time></trkpt><trkpt lat="42.96352" lon="2.6343267"><ele>556.5</ele><time>2026-03-30T10:08:33.69Z</time></trkpt><trkpt lat="42.96355" lon="2.63423"><ele>557.6666666666666</ele><time>2026-03-30T10:08:34.686Z</time></trkpt><trkpt lat="42.963595" lon="2.634155"><ele>558.8333333333333</ele><time>2026-03-30T10:08:35.688Z</time></trkpt><trkpt lat="42.9636467" lon="2.6340983"><ele>560.0</ele><time>2026-03-30T10:08:36.686Z</time></trkpt><trkpt lat="42.963715" lon="2.6340483"><ele>560.0</ele><time>2026-03-30T10:08:37.687Z</time></trkpt><trkpt lat="42.9638067" lon="2.6340117"><ele>560.0</ele><time>2026-03-30T10:08:38.687Z</time></trkpt><trkpt lat="42.9639117" lon="2.6339867"><ele>560.0</ele><time>2026-03-30T10:08:39.688Z</time></trkpt><trkpt lat="42.964015" lon="2.6339367"><ele>560.0</ele><time>2026-03-30T10:08:40.685Z</time></trkpt><trkpt lat="42.9641183" lon="2.633875"><ele>560.0</ele><time>2026-03-30T10:08:41.686Z</time></trkpt><trkpt lat="42.96421" lon="2.633825"><ele>560.5</ele><time>2026-03-30T10:08:42.688Z</time></trkpt><trkpt lat="42.9643067" lon="2.6337933"><ele>561.0</ele><time>2026-03-30T10:08:43.687Z</time></trkpt><trkpt lat="42.96442" lon="2.633765"><ele>561.5</ele><time>2026-03-30T10:08:44.69Z</time></trkpt><trkpt lat="42.9645383" lon="2.6337317"><ele>562.0</ele><time>2026-03-30T10:08:45.687Z</time></trkpt><trkpt lat="42.96466" lon="2.6336833"><ele>562.0</ele><time>2026-03-30T10:08:46.686Z</time></trkpt><trkpt lat="42.9647833" lon="2.6336367"><ele>562.0</ele><time>2026-03-30T10:08:47.686Z</time></trkpt><trkpt lat="42.9648983" lon="2.6336033"><ele>562.0</ele><time>2026-03-30T10:08:48.686Z</time></trkpt><trkpt lat="42.965005" lon="2.63357"><ele>562.0</ele><time>2026-03-30T10:08:49.686Z</time></trkpt><trkpt lat="42.9651017" lon="2.63354"><ele>563.0</ele><time>2026-03-30T10:08:50.686Z</time></trkpt><trkpt lat="42.9651883" lon="2.6335267"><ele>564.0</ele><time>2026-03-30T10:08:51.685Z</time></trkpt><trkpt lat="42.9652733" lon="2.6335233"><ele>565.0</ele><time>2026-03-30T10:08:52.687Z</time></trkpt><trkpt lat="42.9653633" lon="2.63355"><ele>566.0</ele><time>2026-03-30T10:08:53.686Z</time></trkpt><trkpt lat="42.965465" lon="2.6336017"><ele>567.0</ele><time>2026-03-30T10:08:54.69Z</time></trkpt><trkpt lat="42.9655733" lon="2.6336633"><ele>567.25</ele><time>2026-03-30T10:08:55.686Z</time></trkpt><trkpt lat="42.9656783" lon="2.6337383"><ele>567.5</ele><time>2026-03-30T10:08:56.688Z</time></trkpt><trkpt lat="42.9657833" lon="2.633845"><ele>567.75</ele><time>2026-03-30T10:08:57.687Z</time></trkpt><trkpt lat="42.965885" lon="2.6339817"><ele>568.0</ele><time>2026-03-30T10:08:58.686Z</time></trkpt><trkpt lat="42.9659867" lon="2.6341217"><ele>570.0</ele><time>2026-03-30T10:08:59.687Z</time></trkpt><trkpt lat="42.96608" lon="2.63425"><ele>572.0</ele><time>2026-03-30T10:09:00.687Z</time></trkpt><trkpt lat="42.966165" lon="2.6343717"><ele>574.0</ele><time>2026-03-30T10:09:01.685Z</time></trkpt><trkpt lat="42.966245" lon="2.6344867"><ele>576.0</ele><time>2026-03-30T10:09:02.688Z</time></trkpt><trkpt lat="42.966325" lon="2.6345917"><ele>576.0</ele><time>2026-03-30T10:09:03.687Z</time></trkpt><trkpt lat="42.9663967" lon="2.634685"><ele>576.0</ele><time>2026-03-30T10:09:04.687Z</time></trkpt><trkpt lat="42.9664683" lon="2.6347667"><ele>576.0</ele><time>2026-03-30T10:09:05.688Z</time></trkpt><trkpt lat="42.9665433" lon="2.6348433"><ele>576.0</ele><time>2026-03-30T10:09:06.687Z</time></trkpt><trkpt lat="42.9666133" lon="2.6349"><ele>576.0</ele><time>2026-03-30T10:09:07.69Z</time></trkpt><trkpt lat="42.966685" lon="2.6349367"><ele>576.0</ele><time>2026-03-30T10:09:08.688Z</time></trkpt><trkpt lat="42.9667617" lon="2.634955"><ele>578.4</ele><time>2026-03-30T10:09:09.689Z</time></trkpt><trkpt lat="42.9668483" lon="2.63495"><ele>580.8</ele><time>2026-03-30T10:09:10.688Z</time></trkpt><trkpt lat="42.9669383" lon="2.634935"><ele>583.1999999999999</ele><time>2026-03-30T10:09:11.687Z</time></trkpt><trkpt lat="42.9670317" lon="2.6348833"><ele>585.6</ele><time>2026-03-30T10:09:12.687Z</time></trkpt><trkpt lat="42.9671133" lon="2.6348117"><ele>588.0</ele><time>2026-03-30T10:09:13.687Z</time></trkpt><trkpt lat="42.9671867" lon="2.6347467"><ele>588.0</ele><time>2026-03-30T10:09:14.689Z</time></trkpt><trkpt lat="42.967265" lon="2.6346967"><ele>588.0</ele><time>2026-03-30T10:09:15.685Z</time></trkpt><trkpt lat="42.9673483" lon="2.6346717"><ele>588.0</ele><time>2026-03-30T10:09:16.685Z</time></trkpt><trkpt lat="42.967445" lon="2.63465"><ele>588.0</ele><time>2026-03-30T10:09:17.686Z</time></trkpt><trkpt lat="42.96755" lon="2.6346067"><ele>588.0</ele><time>2026-03-30T10:09:18.687Z</time></trkpt><trkpt lat="42.9676583" lon="2.6345433"><ele>589.25</ele><time>2026-03-30T10:09:19.686Z</time></trkpt><trkpt lat="42.9677683" lon="2.6344683"><ele>590.5</ele><time>2026-03-30T10:09:20.687Z</time></trkpt><trkpt lat="42.967875" lon="2.6344"><ele>591.75</ele><time>2026-03-30T10:09:21.685Z</time></trkpt><trkpt lat="42.9679783" lon="2.63434"><ele>593.0</ele><time>2026-03-30T10:09:22.687Z</time></trkpt><trkpt lat="42.9680833" lon="2.6342933"><ele>593.0</ele><time>2026-03-30T10:09:23.685Z</time></trkpt><trkpt lat="42.9681917" lon="2.634255"><ele>593.0</ele><time>2026-03-30T10:09:24.688Z</time></trkpt><trkpt lat="42.968295" lon="2.634235"><ele>593.0</ele><time>2026-03-30T10:09:25.686Z</time></trkpt><trkpt lat="42.9684" lon="2.6342167"><ele>593.0</ele><time>2026-03-30T10:09:26.686Z</time></trkpt><trkpt lat="42.96849" lon="2.63419"><ele>593.0</ele><time>2026-03-30T10:09:27.687Z</time></trkpt><trkpt lat="42.9685783" lon="2.63414"><ele>594.0</ele><time>2026-03-30T10:09:28.688Z</time></trkpt><trkpt lat="42.9686617" lon="2.6340767"><ele>595.0</ele><time>2026-03-30T10:09:29.688Z</time></trkpt><trkpt lat="42.9687333" lon="2.6340167"><ele>596.0</ele><time>2026-03-30T10:09:30.688Z</time></trkpt><trkpt lat="42.9687967" lon="2.6339633"><ele>597.0</ele><time>2026-03-30T10:09:31.686Z</time></trkpt><trkpt lat="42.968865" lon="2.6339317"><ele>598.0</ele><time>2026-03-30T10:09:32.687Z</time></trkpt><trkpt lat="42.96894" lon="2.6339317"><ele>599.0</ele><time>2026-03-30T10:09:33.688Z</time></trkpt><trkpt lat="42.96903" lon="2.6339417"><ele>599.0</ele><time>2026-03-30T10:09:34.686Z</time></trkpt><trkpt lat="42.9691183" lon="2.6339517"><ele>599.0</ele><time>2026-03-30T10:09:35.687Z</time></trkpt><trkpt lat="42.9692167" lon="2.6339383"><ele>599.0</ele><time>2026-03-30T10:09:36.688Z</time></trkpt><trkpt lat="42.969315" lon="2.6339017"><ele>599.0</ele><time>2026-03-30T10:09:37.686Z</time></trkpt><trkpt lat="42.969415" lon="2.6338483"><ele>599.0</ele><time>2026-03-30T10:09:38.687Z</time></trkpt><trkpt lat="42.9695267" lon="2.6337833"><ele>599.6</ele><time>2026-03-30T10:09:39.686Z</time></trkpt><trkpt lat="42.9696317" lon="2.6337133"><ele>600.2</ele><time>2026-03-30T10:09:40.686Z</time></trkpt><trkpt lat="42.969725" lon="2.6336517"><ele>600.8000000000001</ele><time>2026-03-30T10:09:41.687Z</time></trkpt><trkpt lat="42.9698167" lon="2.633605"><ele>601.4</ele><time>2026-03-30T10:09:42.691Z</time></trkpt><trkpt lat="42.9699033" lon="2.6335833"><ele>602.0</ele><time>2026-03-30T10:09:43.688Z</time></trkpt><trkpt lat="42.9699933" lon="2.6335833"><ele>601.6</ele><time>2026-03-30T10:09:44.686Z</time></trkpt><trkpt lat="42.9700883" lon="2.63361"><ele>601.2</ele><time>2026-03-30T10:09:45.686Z</time></trkpt><trkpt lat="42.97018" lon="2.6336467"><ele>600.8</ele><time>2026-03-30T10:09:46.687Z</time></trkpt><trkpt lat="42.97027" lon="2.6336717"><ele>600.4</ele><time>2026-03-30T10:09:47.686Z</time></trkpt><trkpt lat="42.97036" lon="2.63368"><ele>600.0</ele><time>2026-03-30T10:09:48.687Z</time></trkpt><trkpt lat="42.9704483" lon="2.6336733"><ele>600.0</ele><time>2026-03-30T10:09:49.688Z</time></trkpt><trkpt lat="42.9705483" lon="2.63365"><ele>600.0</ele><time>2026-03-30T10:09:50.687Z</time></trkpt><trkpt lat="42.97065" lon="2.6336183"><ele>600.0</ele><time>2026-03-30T10:09:51.689Z</time></trkpt><trkpt lat="42.9707617" lon="2.63359"><ele>600.0</ele><time>2026-03-30T10:09:52.686Z</time></trkpt><trkpt lat="42.9708783" lon="2.63356"><ele>600.0</ele><time>2026-03-30T10:09:53.687Z</time></trkpt><trkpt lat="42.9709983" lon="2.6335333"><ele>600.5</ele><time>2026-03-30T10:09:54.686Z</time></trkpt><trkpt lat="42.971115" lon="2.63351"><ele>601.0</ele><time>2026-03-30T10:09:55.687Z</time></trkpt><trkpt lat="42.97124" lon="2.6334867"><ele>601.5</ele><time>2026-03-30T10:09:56.687Z</time></trkpt><trkpt lat="42.9713733" lon="2.6334467"><ele>602.0</ele><time>2026-03-30T10:09:57.687Z</time></trkpt><trkpt lat="42.9715067" lon="2.6333983"><ele>602.0</ele><time>2026-03-30T10:09:58.686Z</time></trkpt><trkpt lat="42.971645" lon="2.6333417"><ele>602.0</ele><time>2026-03-30T10:09:59.686Z</time></trkpt><trkpt lat="42.9717783" lon="2.63329"><ele>602.0</ele><time>2026-03-30T10:10:00.695Z</time></trkpt><trkpt lat="42.9719083" lon="2.6332417"><ele>602.0</ele><time>2026-03-30T10:10:01.688Z</time></trkpt><trkpt lat="42.9720333" lon="2.6331983"><ele>601.25</ele><time>2026-03-30T10:10:02.688Z</time></trkpt><trkpt lat="42.9721567" lon="2.633155"><ele>600.5</ele><time>2026-03-30T10:10:03.689Z</time></trkpt><trkpt lat="42.9722817" lon="2.6331117"><ele>599.75</ele><time>2026-03-30T10:10:04.688Z</time></trkpt><trkpt lat="42.9724067" lon="2.63308"><ele>599.0</ele><time>2026-03-30T10:10:05.692Z</time></trkpt><trkpt lat="42.97253" lon="2.6330533"><ele>597.75</ele><time>2026-03-30T10:10:06.689Z</time></trkpt><trkpt lat="42.97265" lon="2.63303"><ele>596.5</ele><time>2026-03-30T10:10:07.686Z</time></trkpt><trkpt lat="42.972765" lon="2.633005"><ele>595.25</ele><time>2026-03-30T10:10:08.688Z</time></trkpt><trkpt lat="42.9728767" lon="2.6329783"><ele>594.0</ele><time>2026-03-30T10:10:09.689Z</time></trkpt><trkpt lat="42.9729817" lon="2.6329483"><ele>594.0</ele><time>2026-03-30T10:10:10.688Z</time></trkpt><trkpt lat="42.9730833" lon="2.6329333"><ele>594.0</ele><time>2026-03-30T10:10:11.687Z</time></trkpt><trkpt lat="42.9731883" lon="2.6329333"><ele>594.0</ele><time>2026-03-30T10:10:12.687Z</time></trkpt><trkpt lat="42.9732883" lon="2.6329483"><ele>594.0</ele><time>2026-03-30T10:10:13.687Z</time></trkpt><trkpt lat="42.9733917" lon="2.6329767"><ele>594.0</ele><time>2026-03-30T10:10:14.686Z</time></trkpt><trkpt lat="42.9734967" lon="2.6330233"><ele>593.6</ele><time>2026-03-30T10:10:15.687Z</time></trkpt><trkpt lat="42.973595" lon="2.6330833"><ele>593.2</ele><time>2026-03-30T10:10:16.688Z</time></trkpt><trkpt lat="42.9736883" lon="2.633155"><ele>592.8000000000001</ele><time>2026-03-30T10:10:17.686Z</time></trkpt><trkpt lat="42.9737767" lon="2.6332217"><ele>592.4</ele><time>2026-03-30T10:10:18.688Z</time></trkpt><trkpt lat="42.9738767" lon="2.6332717"><ele>592.0</ele><time>2026-03-30T10:10:19.687Z</time></trkpt><trkpt lat="42.9739767" lon="2.633305"><ele>592.0</ele><time>2026-03-30T10:10:20.687Z</time></trkpt><trkpt lat="42.9740717" lon="2.63334"><ele>592.0</ele><time>2026-03-30T10:10:21.687Z</time></trkpt><trkpt lat="42.97416" lon="2.6333967"><ele>592.0</ele><time>2026-03-30T10:10:22.689Z</time></trkpt><trkpt lat="42.97424" lon="2.63348"><ele>592.0</ele><time>2026-03-30T10:10:23.687Z</time></trkpt><trkpt lat="42.9743217" lon="2.6335817"><ele>592.0</ele><time>2026-03-30T10:10:24.689Z</time></trkpt><trkpt lat="42.9744083" lon="2.633685"><ele>592.25</ele><time>2026-03-30T10:10:25.686Z</time></trkpt><trkpt lat="42.9745" lon="2.63379"><ele>592.5</ele><time>2026-03-30T10:10:26.689Z</time></trkpt><trkpt lat="42.974595" lon="2.6338917"><ele>592.75</ele><time>2026-03-30T10:10:27.69Z</time></trkpt><trkpt lat="42.9746933" lon="2.6339817"><ele>593.0</ele><time>2026-03-30T10:10:28.686Z</time></trkpt><trkpt lat="42.974785" lon="2.634065"><ele>593.0</ele><time>2026-03-30T10:10:29.689Z</time></trkpt><trkpt lat="42.9748717" lon="2.63414"><ele>593.0</ele><time>2026-03-30T10:10:30.687Z</time></trkpt><trkpt lat="42.9749567" lon="2.63421"><ele>593.0</ele><time>2026-03-30T10:10:31.689Z</time></trkpt><trkpt lat="42.9750367" lon="2.6342967"><ele>593.0</ele><time>2026-03-30T10:10:32.687Z</time></trkpt><trkpt lat="42.9751267" lon="2.6343967"><ele>593.0</ele><time>2026-03-30T10:10:33.693Z</time></trkpt><trkpt lat="42.9752183" lon="2.6345083"><ele>593.25</ele><time>2026-03-30T10:10:34.686Z</time></trkpt><trkpt lat="42.9753133" lon="2.6346333"><ele>593.5</ele><time>2026-03-30T10:10:35.69Z</time></trkpt><trkpt lat="42.97542" lon="2.6347583"><ele>593.75</ele><time>2026-03-30T10:10:36.686Z</time></trkpt><trkpt lat="42.975525" lon="2.6348717"><ele>594.0</ele><time>2026-03-30T10:10:37.687Z</time></trkpt><trkpt lat="42.97562" lon="2.6349783"><ele>594.0</ele><time>2026-03-30T10:10:38.689Z</time></trkpt><trkpt lat="42.9757167" lon="2.6350817"><ele>594.0</ele><time>2026-03-30T10:10:39.688Z</time></trkpt><trkpt lat="42.9758167" lon="2.6351733"><ele>594.0</ele><time>2026-03-30T10:10:40.686Z</time></trkpt><trkpt lat="42.975905" lon="2.6352567"><ele>594.0</ele><time>2026-03-30T10:10:41.688Z</time></trkpt><trkpt lat="42.9759833" lon="2.63535"><ele>594.75</ele><time>2026-03-30T10:10:42.685Z</time></trkpt><trkpt lat="42.97605" lon="2.6354767"><ele>595.5</ele><time>2026-03-30T10:10:43.686Z</time></trkpt><trkpt lat="42.9761067" lon="2.6356217"><ele>596.25</ele><time>2026-03-30T10:10:44.685Z</time></trkpt><trkpt lat="42.976155" lon="2.6357717"><ele>597.0</ele><time>2026-03-30T10:10:45.689Z</time></trkpt><trkpt lat="42.9762033" lon="2.635905"><ele>597.0</ele><time>2026-03-30T10:10:46.687Z</time></trkpt><trkpt lat="42.9762483" lon="2.636025"><ele>597.0</ele><time>2026-03-30T10:10:47.686Z</time></trkpt><trkpt lat="42.9762967" lon="2.636125"><ele>597.0</ele><time>2026-03-30T10:10:48.686Z</time></trkpt><trkpt lat="42.9763483" lon="2.6362017"><ele>597.0</ele><time>2026-03-30T10:10:49.686Z</time></trkpt><trkpt lat="42.9764167" lon="2.6362717"><ele>597.0</ele><time>2026-03-30T10:10:50.688Z</time></trkpt><trkpt lat="42.9764867" lon="2.6363233"><ele>597.0</ele><time>2026-03-30T10:10:51.688Z</time></trkpt><trkpt lat="42.976545" lon="2.6363767"><ele>596.6</ele><time>2026-03-30T10:10:52.687Z</time></trkpt><trkpt lat="42.9765917" lon="2.6364483"><ele>596.2</ele><time>2026-03-30T10:10:53.689Z</time></trkpt><trkpt lat="42.976615" lon="2.6365517"><ele>595.8</ele><time>2026-03-30T10:10:54.687Z</time></trkpt><trkpt lat="42.9766233" lon="2.636685"><ele>595.4</ele><time>2026-03-30T10:10:55.687Z</time></trkpt><trkpt lat="42.9766183" lon="2.6368267"><ele>595.0</ele><time>2026-03-30T10:10:56.687Z</time></trkpt><trkpt lat="42.9765933" lon="2.6369717"><ele>595.0</ele><time>2026-03-30T10:10:57.686Z</time></trkpt><trkpt lat="42.976555" lon="2.6371067"><ele>595.0</ele><time>2026-03-30T10:10:58.69Z</time></trkpt><trkpt lat="42.976525" lon="2.6372367"><ele>595.0</ele><time>2026-03-30T10:10:59.687Z</time></trkpt><trkpt lat="42.9764867" lon="2.6373583"><ele>595.0</ele><time>2026-03-30T10:11:00.69Z</time></trkpt><trkpt lat="42.9764667" lon="2.6374917"><ele>595.0</ele><time>2026-03-30T10:11:01.689Z</time></trkpt><trkpt lat="42.9764717" lon="2.6376283"><ele>595.0</ele><time>2026-03-30T10:11:02.686Z</time></trkpt><trkpt lat="42.9764867" lon="2.637795"><ele>595.0</ele><time>2026-03-30T10:11:03.686Z</time></trkpt><trkpt lat="42.976495" lon="2.63795"><ele>595.0</ele><time>2026-03-30T10:11:04.687Z</time></trkpt><trkpt lat="42.976485" lon="2.6381267"><ele>595.0</ele><time>2026-03-30T10:11:05.688Z</time></trkpt><trkpt lat="42.976485" lon="2.6383017"><ele>595.2</ele><time>2026-03-30T10:11:06.686Z</time></trkpt><trkpt lat="42.976495" lon="2.6384617"><ele>595.4</ele><time>2026-03-30T10:11:07.687Z</time></trkpt><trkpt lat="42.976505" lon="2.638615"><ele>595.6</ele><time>2026-03-30T10:11:08.687Z</time></trkpt><trkpt lat="42.9765017" lon="2.6387633"><ele>595.8</ele><time>2026-03-30T10:11:09.69Z</time></trkpt><trkpt lat="42.976485" lon="2.6388967"><ele>596.0</ele><time>2026-03-30T10:11:10.686Z</time></trkpt><trkpt lat="42.9764733" lon="2.6390217"><ele>596.0</ele><time>2026-03-30T10:11:11.686Z</time></trkpt><trkpt lat="42.9764683" lon="2.6391433"><ele>596.0</ele><time>2026-03-30T10:11:12.689Z</time></trkpt><trkpt lat="42.97648" lon="2.63925"><ele>596.0</ele><time>2026-03-30T10:11:13.686Z</time></trkpt><trkpt lat="42.9764967" lon="2.6393533"><ele>596.0</ele><time>2026-03-30T10:11:14.687Z</time></trkpt><trkpt lat="42.976505" lon="2.63945"><ele>596.0</ele><time>2026-03-30T10:11:15.688Z</time></trkpt><trkpt lat="42.9765233" lon="2.639535"><ele>596.0</ele><time>2026-03-30T10:11:16.687Z</time></trkpt><trkpt lat="42.9765583" lon="2.63969"><ele>594.4</ele><time>2026-03-30T10:11:18.689Z</time></trkpt><trkpt lat="42.9766133" lon="2.639795"><ele>592.8</ele><time>2026-03-30T10:11:20.689Z</time></trkpt><trkpt lat="42.976725" lon="2.6398933"><ele>591.1999999999999</ele><time>2026-03-30T10:11:22.686Z</time></trkpt><trkpt lat="42.9767833" lon="2.6399533"><ele>589.6</ele><time>2026-03-30T10:11:23.686Z</time></trkpt><trkpt lat="42.976855" lon="2.6400183"><ele>588.0</ele><time>2026-03-30T10:11:24.687Z</time></trkpt><trkpt lat="42.97694" lon="2.640055"><ele>587.6</ele><time>2026-03-30T10:11:25.687Z</time></trkpt><trkpt lat="42.97703" lon="2.640065"><ele>587.1999999999999</ele><time>2026-03-30T10:11:26.688Z</time></trkpt><trkpt lat="42.977125" lon="2.6400733"><ele>586.8</ele><time>2026-03-30T10:11:27.687Z</time></trkpt><trkpt lat="42.977215" lon="2.640085"><ele>586.4</ele><time>2026-03-30T10:11:28.686Z</time></trkpt><trkpt lat="42.977305" lon="2.640105"><ele>586.0</ele><time>2026-03-30T10:11:29.688Z</time></trkpt><trkpt lat="42.977395" lon="2.6401567"><ele>586.0</ele><time>2026-03-30T10:11:30.687Z</time></trkpt><trkpt lat="42.977485" lon="2.64023"><ele>586.0</ele><time>2026-03-30T10:11:31.686Z</time></trkpt><trkpt lat="42.9775733" lon="2.6403083"><ele>586.0</ele><time>2026-03-30T10:11:32.688Z</time></trkpt><trkpt lat="42.9776417" lon="2.6404"><ele>586.0</ele><time>2026-03-30T10:11:33.688Z</time></trkpt><trkpt lat="42.9776817" lon="2.6404933"><ele>586.0</ele><time>2026-03-30T10:11:34.689Z</time></trkpt><trkpt lat="42.97773" lon="2.6405683"><ele>584.6666666666667</ele><time>2026-03-30T10:11:35.687Z</time></trkpt><trkpt lat="42.9777783" lon="2.6406433"><ele>583.3333333333334</ele><time>2026-03-30T10:11:36.688Z</time></trkpt><trkpt lat="42.9778467" lon="2.6407017"><ele>582.0</ele><time>2026-03-30T10:11:37.688Z</time></trkpt><trkpt lat="42.9779167" lon="2.6407583"><ele>580.6666666666666</ele><time>2026-03-30T10:11:38.691Z</time></trkpt><trkpt lat="42.9780033" lon="2.6407783"><ele>579.3333333333333</ele><time>2026-03-30T10:11:39.687Z</time></trkpt><trkpt lat="42.9780833" lon="2.6407967"><ele>578.0</ele><time>2026-03-30T10:11:40.686Z</time></trkpt><trkpt lat="42.9781583" lon="2.6408183"><ele>578.0</ele><time>2026-03-30T10:11:41.686Z</time></trkpt><trkpt lat="42.9782333" lon="2.640855"><ele>578.0</ele><time>2026-03-30T10:11:42.692Z</time></trkpt><trkpt lat="42.9783117" lon="2.6408967"><ele>578.0</ele><time>2026-03-30T10:11:43.687Z</time></trkpt><trkpt lat="42.9783933" lon="2.64096"><ele>578.0</ele><time>2026-03-30T10:11:44.686Z</time></trkpt><trkpt lat="42.9784533" lon="2.6410333"><ele>578.0</ele><time>2026-03-30T10:11:45.687Z</time></trkpt><trkpt lat="42.9785033" lon="2.6411"><ele>578.0</ele><time>2026-03-30T10:11:46.685Z</time></trkpt><trkpt lat="42.9785567" lon="2.6411517"><ele>576.3333333333333</ele><time>2026-03-30T10:11:47.687Z</time></trkpt><trkpt lat="42.9786717" lon="2.6412083"><ele>574.6666666666666</ele><time>2026-03-30T10:11:49.685Z</time></trkpt><trkpt lat="42.978735" lon="2.6412"><ele>573.0</ele><time>2026-03-30T10:11:50.686Z</time></trkpt><trkpt lat="42.9788433" lon="2.6412183"><ele>571.3333333333334</ele><time>2026-03-30T10:11:52.687Z</time></trkpt><trkpt lat="42.9788833" lon="2.6412933"><ele>569.6666666666667</ele><time>2026-03-30T10:11:54.686Z</time></trkpt><trkpt lat="42.978865" lon="2.6413933"><ele>568.0</ele><time>2026-03-30T10:11:56.688Z</time></trkpt><trkpt lat="42.9788483" lon="2.6415"><ele>568.0</ele><time>2026-03-30T10:11:57.685Z</time></trkpt><trkpt lat="42.9788333" lon="2.6416033"><ele>568.0</ele><time>2026-03-30T10:11:58.686Z</time></trkpt><trkpt lat="42.9788267" lon="2.6417133"><ele>568.0</ele><time>2026-03-30T10:11:59.686Z</time></trkpt><trkpt lat="42.978815" lon="2.64182"><ele>568.0</ele><time>2026-03-30T10:12:00.686Z</time></trkpt><trkpt lat="42.97882" lon="2.6419283"><ele>568.0</ele><time>2026-03-30T10:12:01.686Z</time></trkpt><trkpt lat="42.978845" lon="2.6420183"><ele>568.0</ele><time>2026-03-30T10:12:02.686Z</time></trkpt><trkpt lat="42.978875" lon="2.642095"><ele>566.8</ele><time>2026-03-30T10:12:03.686Z</time></trkpt><trkpt lat="42.97892" lon="2.6421867"><ele>565.5999999999999</ele><time>2026-03-30T10:12:05.689Z</time></trkpt><trkpt lat="42.979025" lon="2.6422317"><ele>564.4000000000001</ele><time>2026-03-30T10:12:28.685Z</time></trkpt><trkpt lat="42.9791" lon="2.6422667"><ele>563.2</ele><time>2026-03-30T10:12:30.686Z</time></trkpt><trkpt lat="42.979235" lon="2.64228"><ele>562.0</ele><time>2026-03-30T10:12:32.688Z</time></trkpt><trkpt lat="42.9793167" lon="2.642265"><ele>562.0</ele><time>2026-03-30T10:12:33.686Z</time></trkpt><trkpt lat="42.9793933" lon="2.6422267"><ele>562.0</ele><time>2026-03-30T10:12:34.686Z</time></trkpt><trkpt lat="42.97947" lon="2.6421567"><ele>562.0</ele><time>2026-03-30T10:12:35.687Z</time></trkpt><trkpt lat="42.9795433" lon="2.6420783"><ele>562.0</ele><time>2026-03-30T10:12:36.69Z</time></trkpt><trkpt lat="42.979615" lon="2.6419983"><ele>562.0</ele><time>2026-03-30T10:12:37.688Z</time></trkpt><trkpt lat="42.9796733" lon="2.6419067"><ele>562.0</ele><time>2026-03-30T10:12:38.686Z</time></trkpt><trkpt lat="42.979715" lon="2.6418133"><ele>563.0</ele><time>2026-03-30T10:12:39.688Z</time></trkpt><trkpt lat="42.9797433" lon="2.641705"><ele>564.0</ele><time>2026-03-30T10:12:40.687Z</time></trkpt><trkpt lat="42.9797533" lon="2.6415817"><ele>565.0</ele><time>2026-03-30T10:12:41.688Z</time></trkpt><trkpt lat="42.9797367" lon="2.641445"><ele>566.0</ele><time>2026-03-30T10:12:42.688Z</time></trkpt><trkpt lat="42.9797217" lon="2.64132"><ele>567.0</ele><time>2026-03-30T10:12:43.686Z</time></trkpt><trkpt lat="42.9797067" lon="2.6411967"><ele>566.1666666666666</ele><time>2026-03-30T10:12:44.687Z</time></trkpt><trkpt lat="42.9796883" lon="2.64108"><ele>565.3333333333334</ele><time>2026-03-30T10:12:45.688Z</time></trkpt><trkpt lat="42.9796667" lon="2.6409883"><ele>564.5</ele><time>2026-03-30T10:12:46.688Z</time></trkpt><trkpt lat="42.9796283" lon="2.6408533"><ele>563.6666666666667</ele><time>2026-03-30T10:12:48.688Z</time></trkpt><trkpt lat="42.97965" lon="2.6407667"><ele>562.8333333333334</ele><time>2026-03-30T10:12:50.687Z</time></trkpt><trkpt lat="42.9797333" lon="2.6407267"><ele>562.0</ele><time>2026-03-30T10:12:52.688Z</time></trkpt><trkpt lat="42.97984" lon="2.6406717"><ele>562.0</ele><time>2026-03-30T10:12:54.687Z</time></trkpt><trkpt lat="42.9799017" lon="2.6405867"><ele>562.0</ele><time>2026-03-30T10:12:55.685Z</time></trkpt><trkpt lat="42.97996" lon="2.6404817"><ele>562.0</ele><time>2026-03-30T10:12:56.686Z</time></trkpt><trkpt lat="42.980025" lon="2.64035"><ele>562.0</ele><time>2026-03-30T10:12:57.685Z</time></trkpt><trkpt lat="42.9800933" lon="2.6401967"><ele>562.0</ele><time>2026-03-30T10:12:58.686Z</time></trkpt><trkpt lat="42.9801683" lon="2.6400467"><ele>565.0</ele><time>2026-03-30T10:12:59.69Z</time></trkpt><trkpt lat="42.98025" lon="2.639905"><ele>568.0</ele><time>2026-03-30T10:13:00.686Z</time></trkpt><trkpt lat="42.9803467" lon="2.63978"><ele>571.0</ele><time>2026-03-30T10:13:01.686Z</time></trkpt><trkpt lat="42.9804633" lon="2.63966"><ele>574.0</ele><time>2026-03-30T10:13:02.687Z</time></trkpt><trkpt lat="42.9805983" lon="2.6395467"><ele>573.3333333333334</ele><time>2026-03-30T10:13:03.686Z</time></trkpt><trkpt lat="42.9807417" lon="2.6394383"><ele>572.6666666666666</ele><time>2026-03-30T10:13:04.687Z</time></trkpt><trkpt lat="42.9808783" lon="2.6393283"><ele>572.0</ele><time>2026-03-30T10:13:05.686Z</time></trkpt><trkpt lat="42.9810067" lon="2.6392117"><ele>572.0</ele><time>2026-03-30T10:13:06.686Z</time></trkpt><trkpt lat="42.9811283" lon="2.6390933"><ele>572.0</ele><time>2026-03-30T10:13:07.692Z</time></trkpt><trkpt lat="42.9812483" lon="2.6389717"><ele>572.0</ele><time>2026-03-30T10:13:08.686Z</time></trkpt><trkpt lat="42.9813617" lon="2.6388583"><ele>572.0</ele><time>2026-03-30T10:13:09.685Z</time></trkpt><trkpt lat="42.981465" lon="2.6387417"><ele>572.0</ele><time>2026-03-30T10:13:10.687Z</time></trkpt><trkpt lat="42.9815667" lon="2.638655"><ele>572.0</ele><time>2026-03-30T10:13:11.687Z</time></trkpt><trkpt lat="42.9816633" lon="2.638645"><ele>572.0</ele><time>2026-03-30T10:13:12.686Z</time></trkpt><trkpt lat="42.9817533" lon="2.6386667"><ele>572.0</ele><time>2026-03-30T10:13:13.687Z</time></trkpt><trkpt lat="42.9818367" lon="2.6387067"><ele>572.0</ele><time>2026-03-30T10:13:14.687Z</time></trkpt><trkpt lat="42.9819133" lon="2.63878"><ele>571.5</ele><time>2026-03-30T10:13:15.686Z</time></trkpt><trkpt lat="42.9819733" lon="2.6388883"><ele>571.0</ele><time>2026-03-30T10:13:16.686Z</time></trkpt><trkpt lat="42.982035" lon="2.63902"><ele>570.5</ele><time>2026-03-30T10:13:17.688Z</time></trkpt><trkpt lat="42.9820983" lon="2.6391567"><ele>570.0</ele><time>2026-03-30T10:13:18.687Z</time></trkpt><trkpt lat="42.9821617" lon="2.6393"><ele>570.0</ele><time>2026-03-30T10:13:19.688Z</time></trkpt><trkpt lat="42.9822317" lon="2.6394267"><ele>570.0</ele><time>2026-03-30T10:13:20.688Z</time></trkpt><trkpt lat="42.982305" lon="2.6395217"><ele>570.0</ele><time>2026-03-30T10:13:21.687Z</time></trkpt><trkpt lat="42.98239" lon="2.63958"><ele>570.0</ele><time>2026-03-30T10:13:22.686Z</time></trkpt><trkpt lat="42.982475" lon="2.6396117"><ele>570.0</ele><time>2026-03-30T10:13:23.687Z</time></trkpt><trkpt lat="42.98256" lon="2.6396067"><ele>569.2</ele><time>2026-03-30T10:13:24.688Z</time></trkpt><trkpt lat="42.9826583" lon="2.6395517"><ele>568.4</ele><time>2026-03-30T10:13:25.687Z</time></trkpt><trkpt lat="42.9827617" lon="2.6395"><ele>567.6</ele><time>2026-03-30T10:13:26.688Z</time></trkpt><trkpt lat="42.982865" lon="2.6394683"><ele>566.8</ele><time>2026-03-30T10:13:27.686Z</time></trkpt><trkpt lat="42.9829683" lon="2.6394617"><ele>566.0</ele><time>2026-03-30T10:13:28.685Z</time></trkpt><trkpt lat="42.983065" lon="2.639485"><ele>564.6</ele><time>2026-03-30T10:13:29.688Z</time></trkpt><trkpt lat="42.98315" lon="2.6395333"><ele>563.2</ele><time>2026-03-30T10:13:30.688Z</time></trkpt><trkpt lat="42.98322" lon="2.6396067"><ele>561.8</ele><time>2026-03-30T10:13:31.689Z</time></trkpt><trkpt lat="42.9832767" lon="2.6397167"><ele>560.4</ele><time>2026-03-30T10:13:32.687Z</time></trkpt><trkpt lat="42.9833167" lon="2.6398617"><ele>559.0</ele><time>2026-03-30T10:13:33.686Z</time></trkpt><trkpt lat="42.9833617" lon="2.6400183"><ele>559.0</ele><time>2026-03-30T10:13:34.688Z</time></trkpt><trkpt lat="42.983415" lon="2.6401767"><ele>559.0</ele><time>2026-03-30T10:13:35.689Z</time></trkpt><trkpt lat="42.9834933" lon="2.6403333"><ele>559.0</ele><time>2026-03-30T10:13:36.689Z</time></trkpt><trkpt lat="42.983575" lon="2.6404867"><ele>559.0</ele><time>2026-03-30T10:13:37.686Z</time></trkpt><trkpt lat="42.9836833" lon="2.64064"><ele>565.6666666666667</ele><time>2026-03-30T10:13:38.687Z</time></trkpt><trkpt lat="42.98379" lon="2.6407933"><ele>572.3333333333334</ele><time>2026-03-30T10:13:39.687Z</time></trkpt><trkpt lat="42.983905" lon="2.6409383"><ele>579.0</ele><time>2026-03-30T10:13:40.69Z</time></trkpt><trkpt lat="42.98403" lon="2.641075"><ele>583.0</ele><time>2026-03-30T10:13:41.691Z</time></trkpt><trkpt lat="42.9841567" lon="2.641205"><ele>587.0</ele><time>2026-03-30T10:13:42.687Z</time></trkpt><trkpt lat="42.984275" lon="2.6413333"><ele>591.0</ele><time>2026-03-30T10:13:43.688Z</time></trkpt><trkpt lat="42.9843967" lon="2.641465"><ele>591.0</ele><time>2026-03-30T10:13:44.69Z</time></trkpt><trkpt lat="42.9845083" lon="2.6415917"><ele>591.0</ele><time>2026-03-30T10:13:45.687Z</time></trkpt><trkpt lat="42.9846117" lon="2.6417033"><ele>591.0</ele><time>2026-03-30T10:13:46.685Z</time></trkpt><trkpt lat="42.9847133" lon="2.64179"><ele>591.0</ele><time>2026-03-30T10:13:47.687Z</time></trkpt><trkpt lat="42.98481" lon="2.6418533"><ele>591.0</ele><time>2026-03-30T10:13:48.686Z</time></trkpt><trkpt lat="42.9849183" lon="2.6418883"><ele>591.0</ele><time>2026-03-30T10:13:49.685Z</time></trkpt><trkpt lat="42.9850383" lon="2.6418967"><ele>591.0</ele><time>2026-03-30T10:13:50.686Z</time></trkpt><trkpt lat="42.9851567" lon="2.6418933"><ele>591.0</ele><time>2026-03-30T10:13:51.687Z</time></trkpt><trkpt lat="42.98527" lon="2.64186"><ele>590.25</ele><time>2026-03-30T10:13:52.689Z</time></trkpt><trkpt lat="42.9853817" lon="2.6418"><ele>589.5</ele><time>2026-03-30T10:13:53.687Z</time></trkpt><trkpt lat="42.9854983" lon="2.6417367"><ele>588.75</ele><time>2026-03-30T10:13:54.689Z</time></trkpt><trkpt lat="42.985615" lon="2.6416833"><ele>588.0</ele><time>2026-03-30T10:13:55.686Z</time></trkpt><trkpt lat="42.9857267" lon="2.64166"><ele>588.0</ele><time>2026-03-30T10:13:56.688Z</time></trkpt><trkpt lat="42.9858367" lon="2.64167"><ele>588.0</ele><time>2026-03-30T10:13:57.687Z</time></trkpt><trkpt lat="42.9859433" lon="2.6417183"><ele>588.0</ele><time>2026-03-30T10:13:58.688Z</time></trkpt><trkpt lat="42.98605" lon="2.6418"><ele>588.0</ele><time>2026-03-30T10:13:59.688Z</time></trkpt><trkpt lat="42.9861517" lon="2.64191"><ele>587.5</ele><time>2026-03-30T10:14:00.688Z</time></trkpt><trkpt lat="42.9862483" lon="2.6420333"><ele>587.0</ele><time>2026-03-30T10:14:01.688Z</time></trkpt><trkpt lat="42.9863417" lon="2.642165"><ele>586.5</ele><time>2026-03-30T10:14:02.686Z</time></trkpt><trkpt lat="42.9864283" lon="2.6422983"><ele>586.0</ele><time>2026-03-30T10:14:03.686Z</time></trkpt><trkpt lat="42.9865183" lon="2.64242"><ele>586.0</ele><time>2026-03-30T10:14:04.69Z</time></trkpt><trkpt lat="42.98661" lon="2.6425283"><ele>586.0</ele><time>2026-03-30T10:14:05.685Z</time></trkpt><trkpt lat="42.9867083" lon="2.642625"><ele>586.0</ele><time>2026-03-30T10:14:06.687Z</time></trkpt><trkpt lat="42.9868117" lon="2.6427083"><ele>586.0</ele><time>2026-03-30T10:14:07.687Z</time></trkpt><trkpt lat="42.98693" lon="2.6427667"><ele>587.25</ele><time>2026-03-30T10:14:08.688Z</time></trkpt><trkpt lat="42.9870583" lon="2.6427967"><ele>588.5</ele><time>2026-03-30T10:14:09.688Z</time></trkpt><trkpt lat="42.9871917" lon="2.6428017"><ele>589.75</ele><time>2026-03-30T10:14:10.687Z</time></trkpt><trkpt lat="42.98733" lon="2.6427917"><ele>591.0</ele><time>2026-03-30T10:14:11.688Z</time></trkpt><trkpt lat="42.987465" lon="2.6427767"><ele>584.6</ele><time>2026-03-30T10:14:12.687Z</time></trkpt><trkpt lat="42.9875917" lon="2.642755"><ele>578.2</ele><time>2026-03-30T10:14:13.687Z</time></trkpt><trkpt lat="42.9877067" lon="2.6427217"><ele>571.8</ele><time>2026-03-30T10:14:14.689Z</time></trkpt><trkpt lat="42.9878067" lon="2.6427167"><ele>565.4</ele><time>2026-03-30T10:14:15.689Z</time></trkpt><trkpt lat="42.9878983" lon="2.64274"><ele>559.0</ele><time>2026-03-30T10:14:16.689Z</time></trkpt><trkpt lat="42.9879867" lon="2.642785"><ele>561.4</ele><time>2026-03-30T10:14:17.686Z</time></trkpt><trkpt lat="42.9880717" lon="2.6428583"><ele>563.8</ele><time>2026-03-30T10:14:18.685Z</time></trkpt><trkpt lat="42.9881483" lon="2.6429617"><ele>566.2</ele><time>2026-03-30T10:14:19.687Z</time></trkpt><trkpt lat="42.988225" lon="2.643075"><ele>568.6</ele><time>2026-03-30T10:14:20.685Z</time></trkpt><trkpt lat="42.9882933" lon="2.6432"><ele>571.0</ele><time>2026-03-30T10:14:21.685Z</time></trkpt><trkpt lat="42.988345" lon="2.6433333"><ele>564.0</ele><time>2026-03-30T10:14:22.685Z</time></trkpt><trkpt lat="42.9883817" lon="2.6434783"><ele>557.0</ele><time>2026-03-30T10:14:23.686Z</time></trkpt><trkpt lat="42.9883967" lon="2.64363"><ele>550.0</ele><time>2026-03-30T10:14:24.687Z</time></trkpt><trkpt lat="42.9883983" lon="2.64379"><ele>543.0</ele><time>2026-03-30T10:14:25.686Z</time></trkpt><trkpt lat="42.98838" lon="2.643955"><ele>543.0</ele><time>2026-03-30T10:14:26.687Z</time></trkpt><trkpt lat="42.9883483" lon="2.6441167"><ele>543.0</ele><time>2026-03-30T10:14:27.686Z</time></trkpt><trkpt lat="42.9883117" lon="2.6442733"><ele>543.0</ele><time>2026-03-30T10:14:28.686Z</time></trkpt><trkpt lat="42.9882733" lon="2.644425"><ele>543.0</ele><time>2026-03-30T10:14:29.687Z</time></trkpt><trkpt lat="42.98824" lon="2.6445767"><ele>548.75</ele><time>2026-03-30T10:14:30.688Z</time></trkpt><trkpt lat="42.9882217" lon="2.64472"><ele>554.5</ele><time>2026-03-30T10:14:31.685Z</time></trkpt><trkpt lat="42.98823" lon="2.6448717"><ele>560.25</ele><time>2026-03-30T10:14:32.687Z</time></trkpt><trkpt lat="42.988265" lon="2.6450183"><ele>566.0</ele><time>2026-03-30T10:14:33.685Z</time></trkpt><trkpt lat="42.98832" lon="2.6451717"><ele>561.0</ele><time>2026-03-30T10:14:34.686Z</time></trkpt><trkpt lat="42.9883817" lon="2.645325"><ele>556.0</ele><time>2026-03-30T10:14:35.687Z</time></trkpt><trkpt lat="42.9884517" lon="2.6454783"><ele>551.0</ele><time>2026-03-30T10:14:36.686Z</time></trkpt><trkpt lat="42.9885183" lon="2.645635"><ele>546.0</ele><time>2026-03-30T10:14:37.69Z</time></trkpt><trkpt lat="42.9885717" lon="2.6457883"><ele>546.0</ele><time>2026-03-30T10:14:38.689Z</time></trkpt><trkpt lat="42.9886117" lon="2.6459467"><ele>546.0</ele><time>2026-03-30T10:14:39.685Z</time></trkpt><trkpt lat="42.9886433" lon="2.6461017"><ele>546.0</ele><time>2026-03-30T10:14:40.689Z</time></trkpt><trkpt lat="42.9886717" lon="2.6462483"><ele>546.0</ele><time>2026-03-30T10:14:41.686Z</time></trkpt><trkpt lat="42.9886967" lon="2.646385"><ele>547.4</ele><time>2026-03-30T10:14:42.686Z</time></trkpt><trkpt lat="42.9887183" lon="2.6465067"><ele>548.8</ele><time>2026-03-30T10:14:43.686Z</time></trkpt><trkpt lat="42.98875" lon="2.6466067"><ele>550.1999999999999</ele><time>2026-03-30T10:14:44.689Z</time></trkpt><trkpt lat="42.9888" lon="2.6467267"><ele>551.6</ele><time>2026-03-30T10:14:46.686Z</time></trkpt><trkpt lat="42.98889" lon="2.6467817"><ele>553.0</ele><time>2026-03-30T10:14:48.686Z</time></trkpt><trkpt lat="42.9889817" lon="2.64678"><ele>553.0</ele><time>2026-03-30T10:14:49.687Z</time></trkpt><trkpt lat="42.9890983" lon="2.646775"><ele>553.0</ele><time>2026-03-30T10:14:50.688Z</time></trkpt><trkpt lat="42.98922" lon="2.6467783"><ele>553.0</ele><time>2026-03-30T10:14:51.687Z</time></trkpt><trkpt lat="42.9893433" lon="2.64678"><ele>553.0</ele><time>2026-03-30T10:14:52.687Z</time></trkpt><trkpt lat="42.989475" lon="2.6467783"><ele>552.5</ele><time>2026-03-30T10:14:53.686Z</time></trkpt><trkpt lat="42.9896083" lon="2.6467717"><ele>552.0</ele><time>2026-03-30T10:14:54.69Z</time></trkpt><trkpt lat="42.98974" lon="2.64676"><ele>551.5</ele><time>2026-03-30T10:14:55.685Z</time></trkpt><trkpt lat="42.98987" lon="2.6467467"><ele>551.0</ele><time>2026-03-30T10:14:56.689Z</time></trkpt><trkpt lat="42.989995" lon="2.64674"><ele>550.75</ele><time>2026-03-30T10:14:57.686Z</time></trkpt><trkpt lat="42.9901183" lon="2.6467483"><ele>550.5</ele><time>2026-03-30T10:14:58.688Z</time></trkpt><trkpt lat="42.9902367" lon="2.6467583"><ele>550.25</ele><time>2026-03-30T10:14:59.687Z</time></trkpt><trkpt lat="42.990355" lon="2.6467467"><ele>550.0</ele><time>2026-03-30T10:15:00.687Z</time></trkpt><trkpt lat="42.990475" lon="2.6467117"><ele>550.0</ele><time>2026-03-30T10:15:01.687Z</time></trkpt><trkpt lat="42.9905933" lon="2.6466533"><ele>550.0</ele><time>2026-03-30T10:15:02.686Z</time></trkpt><trkpt lat="42.990715" lon="2.6465833"><ele>550.0</ele><time>2026-03-30T10:15:03.686Z</time></trkpt><trkpt lat="42.99083" lon="2.6465133"><ele>550.0</ele><time>2026-03-30T10:15:04.686Z</time></trkpt><trkpt lat="42.99094" lon="2.646445"><ele>548.1666666666667</ele><time>2026-03-30T10:15:05.687Z</time></trkpt><trkpt lat="42.9910433" lon="2.6463933"><ele>546.3333333333334</ele><time>2026-03-30T10:15:06.687Z</time></trkpt><trkpt lat="42.9911317" lon="2.6463633"><ele>544.5</ele><time>2026-03-30T10:15:07.687Z</time></trkpt><trkpt lat="42.9912133" lon="2.6463483"><ele>542.6666666666666</ele><time>2026-03-30T10:15:08.688Z</time></trkpt><trkpt lat="42.9912867" lon="2.646365"><ele>540.8333333333333</ele><time>2026-03-30T10:15:09.69Z</time></trkpt><trkpt lat="42.9913583" lon="2.6464017"><ele>539.0</ele><time>2026-03-30T10:15:10.688Z</time></trkpt><trkpt lat="42.9914383" lon="2.6464617"><ele>539.0</ele><time>2026-03-30T10:15:11.687Z</time></trkpt><trkpt lat="42.991515" lon="2.646575"><ele>539.0</ele><time>2026-03-30T10:15:12.688Z</time></trkpt><trkpt lat="42.9915933" lon="2.6466933"><ele>539.0</ele><time>2026-03-30T10:15:13.686Z</time></trkpt><trkpt lat="42.99167" lon="2.6468067"><ele>539.0</ele><time>2026-03-30T10:15:14.686Z</time></trkpt><trkpt lat="42.9917467" lon="2.6469083"><ele>539.0</ele><time>2026-03-30T10:15:15.685Z</time></trkpt><trkpt lat="42.9918267" lon="2.6469867"><ele>539.4</ele><time>2026-03-30T10:15:16.685Z</time></trkpt><trkpt lat="42.9919017" lon="2.6470533"><ele>539.8</ele><time>2026-03-30T10:15:17.686Z</time></trkpt><trkpt lat="42.9919767" lon="2.6471067"><ele>540.2</ele><time>2026-03-30T10:15:18.686Z</time></trkpt><trkpt lat="42.9920767" lon="2.6470967"><ele>540.6</ele><time>2026-03-30T10:15:19.687Z</time></trkpt><trkpt lat="42.9921833" lon="2.64706"><ele>541.0</ele><time>2026-03-30T10:15:20.687Z</time></trkpt><trkpt lat="42.9922883" lon="2.64703"><ele>541.0</ele><time>2026-03-30T10:15:21.69Z</time></trkpt><trkpt lat="42.9923917" lon="2.6470033"><ele>541.0</ele><time>2026-03-30T10:15:22.686Z</time></trkpt><trkpt lat="42.9924817" lon="2.646985"><ele>541.0</ele><time>2026-03-30T10:15:23.693Z</time></trkpt><trkpt lat="42.9925633" lon="2.6469833"><ele>541.0</ele><time>2026-03-30T10:15:24.686Z</time></trkpt><trkpt lat="42.9926333" lon="2.6470217"><ele>541.0</ele><time>2026-03-30T10:15:25.685Z</time></trkpt><trkpt lat="42.9926883" lon="2.6470983"><ele>541.0</ele><time>2026-03-30T10:15:26.687Z</time></trkpt><trkpt lat="42.992735" lon="2.6472033"><ele>537.5</ele><time>2026-03-30T10:15:27.689Z</time></trkpt><trkpt lat="42.992765" lon="2.64735"><ele>534.0</ele><time>2026-03-30T10:15:28.69Z</time></trkpt><trkpt lat="42.9927983" lon="2.6474983"><ele>530.5</ele><time>2026-03-30T10:15:29.687Z</time></trkpt><trkpt lat="42.9928367" lon="2.647655"><ele>527.0</ele><time>2026-03-30T10:15:30.686Z</time></trkpt><trkpt lat="42.9928767" lon="2.6478133"><ele>527.0</ele><time>2026-03-30T10:15:31.688Z</time></trkpt><trkpt lat="42.9929333" lon="2.647965"><ele>527.0</ele><time>2026-03-30T10:15:32.688Z</time></trkpt><trkpt lat="42.9930033" lon="2.6480933"><ele>527.0</ele><time>2026-03-30T10:15:33.686Z</time></trkpt><trkpt lat="42.9930967" lon="2.6482033"><ele>527.0</ele><time>2026-03-30T10:15:34.686Z</time></trkpt><trkpt lat="42.9931967" lon="2.6483033"><ele>527.0</ele><time>2026-03-30T10:15:35.687Z</time></trkpt><trkpt lat="42.993325" lon="2.6483883"><ele>527.0</ele><time>2026-03-30T10:15:36.687Z</time></trkpt><trkpt lat="42.9934467" lon="2.6484633"><ele>527.0</ele><time>2026-03-30T10:15:37.685Z</time></trkpt><trkpt lat="42.993555" lon="2.6485417"><ele>527.0</ele><time>2026-03-30T10:15:38.688Z</time></trkpt><trkpt lat="42.9936567" lon="2.6486"><ele>524.0</ele><time>2026-03-30T10:15:39.686Z</time></trkpt><trkpt lat="42.9937617" lon="2.6486017"><ele>521.0</ele><time>2026-03-30T10:15:40.688Z</time></trkpt><trkpt lat="42.9938767" lon="2.648565"><ele>518.0</ele><time>2026-03-30T10:15:41.687Z</time></trkpt><trkpt lat="42.993995" lon="2.6485083"><ele>515.0</ele><time>2026-03-30T10:15:42.694Z</time></trkpt><trkpt lat="42.99411" lon="2.6484567"><ele>513.0</ele><time>2026-03-30T10:15:43.687Z</time></trkpt><trkpt lat="42.994225" lon="2.64843"><ele>511.0</ele><time>2026-03-30T10:15:44.688Z</time></trkpt><trkpt lat="42.99433" lon="2.64843"><ele>509.0</ele><time>2026-03-30T10:15:45.687Z</time></trkpt><trkpt lat="42.9944383" lon="2.6484533"><ele>507.0</ele><time>2026-03-30T10:15:46.687Z</time></trkpt><trkpt lat="42.9945483" lon="2.6485167"><ele>507.0</ele><time>2026-03-30T10:15:47.685Z</time></trkpt><trkpt lat="42.9946633" lon="2.6485883"><ele>507.0</ele><time>2026-03-30T10:15:48.687Z</time></trkpt><trkpt lat="42.9947917" lon="2.6486317"><ele>507.0</ele><time>2026-03-30T10:15:49.686Z</time></trkpt><trkpt lat="42.994925" lon="2.64867"><ele>507.0</ele><time>2026-03-30T10:15:50.688Z</time></trkpt><trkpt lat="42.9950567" lon="2.6487033"><ele>504.75</ele><time>2026-03-30T10:15:51.686Z</time></trkpt><trkpt lat="42.9951817" lon="2.6487317"><ele>502.5</ele><time>2026-03-30T10:15:52.688Z</time></trkpt><trkpt lat="42.995295" lon="2.64876"><ele>500.25</ele><time>2026-03-30T10:15:53.685Z</time></trkpt><trkpt lat="42.9954033" lon="2.648805"><ele>498.0</ele><time>2026-03-30T10:15:54.687Z</time></trkpt><trkpt lat="42.9954967" lon="2.648875"><ele>498.0</ele><time>2026-03-30T10:15:55.685Z</time></trkpt><trkpt lat="42.995575" lon="2.6489733"><ele>497.99999999999994</ele><time>2026-03-30T10:15:56.688Z</time></trkpt><trkpt lat="42.9956383" lon="2.6490967"><ele>497.99999999999994</ele><time>2026-03-30T10:15:57.687Z</time></trkpt><trkpt lat="42.9956867" lon="2.6492317"><ele>498.0</ele><time>2026-03-30T10:15:58.689Z</time></trkpt><trkpt lat="42.9957117" lon="2.6493583"><ele>498.0</ele><time>2026-03-30T10:15:59.687Z</time></trkpt><trkpt lat="42.9957083" lon="2.649475"><ele>496.4</ele><time>2026-03-30T10:16:00.692Z</time></trkpt><trkpt lat="42.9956867" lon="2.6495767"><ele>494.79999999999995</ele><time>2026-03-30T10:16:01.686Z</time></trkpt><trkpt lat="42.9956567" lon="2.6496733"><ele>493.2</ele><time>2026-03-30T10:16:02.685Z</time></trkpt><trkpt lat="42.9955733" lon="2.6497483"><ele>491.6</ele><time>2026-03-30T10:16:03.687Z</time></trkpt><trkpt lat="42.99548" lon="2.64983"><ele>490.0</ele><time>2026-03-30T10:16:04.689Z</time></trkpt><trkpt lat="42.9953883" lon="2.6499283"><ele>490.0</ele><time>2026-03-30T10:16:05.686Z</time></trkpt><trkpt lat="42.995305" lon="2.6500417"><ele>490.0</ele><time>2026-03-30T10:16:06.685Z</time></trkpt><trkpt lat="42.9952317" lon="2.6501783"><ele>490.0</ele><time>2026-03-30T10:16:07.685Z</time></trkpt><trkpt lat="42.9951567" lon="2.650315"><ele>490.0</ele><time>2026-03-30T10:16:08.689Z</time></trkpt><trkpt lat="42.9950983" lon="2.6504567"><ele>492.2</ele><time>2026-03-30T10:16:09.686Z</time></trkpt><trkpt lat="42.99505" lon="2.650595"><ele>494.4</ele><time>2026-03-30T10:16:10.686Z</time></trkpt><trkpt lat="42.9950033" lon="2.650725"><ele>496.6</ele><time>2026-03-30T10:16:11.686Z</time></trkpt><trkpt lat="42.9949783" lon="2.6508617"><ele>498.8</ele><time>2026-03-30T10:16:12.687Z</time></trkpt><trkpt lat="42.99497" lon="2.651"><ele>501.0</ele><time>2026-03-30T10:16:13.686Z</time></trkpt><trkpt lat="42.99499" lon="2.6511517"><ele>492.75</ele><time>2026-03-30T10:16:14.688Z</time></trkpt><trkpt lat="42.9950333" lon="2.6513083"><ele>484.5</ele><time>2026-03-30T10:16:15.687Z</time></trkpt><trkpt lat="42.995095" lon="2.6514667"><ele>476.25</ele><time>2026-03-30T10:16:16.688Z</time></trkpt><trkpt lat="42.995155" lon="2.65162"><ele>468.0</ele><time>2026-03-30T10:16:17.686Z</time></trkpt><trkpt lat="42.9952" lon="2.6517783"><ele>468.0</ele><time>2026-03-30T10:16:18.685Z</time></trkpt><trkpt lat="42.9952467" lon="2.6519333"><ele>467.99999999999994</ele><time>2026-03-30T10:16:19.685Z</time></trkpt><trkpt lat="42.9952867" lon="2.6520767"><ele>467.99999999999994</ele><time>2026-03-30T10:16:20.688Z</time></trkpt><trkpt lat="42.9953033" lon="2.6522017"><ele>468.0</ele><time>2026-03-30T10:16:21.685Z</time></trkpt><trkpt lat="42.9952883" lon="2.652325"><ele>468.0</ele><time>2026-03-30T10:16:22.687Z</time></trkpt><trkpt lat="42.995265" lon="2.652435"><ele>467.79999999999995</ele><time>2026-03-30T10:16:23.688Z</time></trkpt><trkpt lat="42.9952183" lon="2.6525267"><ele>467.59999999999997</ele><time>2026-03-30T10:16:24.688Z</time></trkpt><trkpt lat="42.9951233" lon="2.6525983"><ele>467.40000000000003</ele><time>2026-03-30T10:16:25.686Z</time></trkpt><trkpt lat="42.99502" lon="2.65266"><ele>467.20000000000005</ele><time>2026-03-30T10:16:26.689Z</time></trkpt><trkpt lat="42.9949167" lon="2.6527167"><ele>467.0</ele><time>2026-03-30T10:16:27.691Z</time></trkpt><trkpt lat="42.9948167" lon="2.652775"><ele>466.75</ele><time>2026-03-30T10:16:28.686Z</time></trkpt><trkpt lat="42.9947167" lon="2.6528517"><ele>466.5</ele><time>2026-03-30T10:16:29.687Z</time></trkpt><trkpt lat="42.9946183" lon="2.6529583"><ele>466.25</ele><time>2026-03-30T10:16:30.688Z</time></trkpt><trkpt lat="42.994525" lon="2.6530683"><ele>466.0</ele><time>2026-03-30T10:16:31.692Z</time></trkpt><trkpt lat="42.9944283" lon="2.65318"><ele>466.0</ele><time>2026-03-30T10:16:32.687Z</time></trkpt><trkpt lat="42.9943433" lon="2.6532817"><ele>466.0</ele><time>2026-03-30T10:16:33.685Z</time></trkpt><trkpt lat="42.9942717" lon="2.6533767"><ele>466.0</ele><time>2026-03-30T10:16:34.686Z</time></trkpt><trkpt lat="42.9942183" lon="2.653475"><ele>466.0</ele><time>2026-03-30T10:16:35.686Z</time></trkpt><trkpt lat="42.9941867" lon="2.65359"><ele>466.0</ele><time>2026-03-30T10:16:36.687Z</time></trkpt><trkpt lat="42.9941883" lon="2.65371"><ele>463.5</ele><time>2026-03-30T10:16:37.687Z</time></trkpt><trkpt lat="42.9942283" lon="2.6538483"><ele>461.0</ele><time>2026-03-30T10:16:38.685Z</time></trkpt><trkpt lat="42.99429" lon="2.653995"><ele>458.5</ele><time>2026-03-30T10:16:39.686Z</time></trkpt><trkpt lat="42.99436" lon="2.654145"><ele>456.0</ele><time>2026-03-30T10:16:40.69Z</time></trkpt><trkpt lat="42.9944383" lon="2.6542917"><ele>456.0</ele><time>2026-03-30T10:16:41.688Z</time></trkpt><trkpt lat="42.994505" lon="2.6544283"><ele>456.0</ele><time>2026-03-30T10:16:42.686Z</time></trkpt><trkpt lat="42.9945717" lon="2.6545683"><ele>456.0</ele><time>2026-03-30T10:16:43.687Z</time></trkpt><trkpt lat="42.99462" lon="2.6547067"><ele>456.0</ele><time>2026-03-30T10:16:44.686Z</time></trkpt><trkpt lat="42.994645" lon="2.65486"><ele>457.0</ele><time>2026-03-30T10:16:45.686Z</time></trkpt><trkpt lat="42.9946483" lon="2.655025"><ele>458.0</ele><time>2026-03-30T10:16:46.686Z</time></trkpt><trkpt lat="42.99464" lon="2.6551917"><ele>459.0</ele><time>2026-03-30T10:16:47.687Z</time></trkpt><trkpt lat="42.9946233" lon="2.6553633"><ele>460.0</ele><time>2026-03-30T10:16:48.691Z</time></trkpt><trkpt lat="42.9945783" lon="2.655535"><ele>462.4</ele><time>2026-03-30T10:16:49.686Z</time></trkpt><trkpt lat="42.9945433" lon="2.6556933"><ele>464.8</ele><time>2026-03-30T10:16:50.686Z</time></trkpt><trkpt lat="42.994515" lon="2.6558167"><ele>467.20000000000005</ele><time>2026-03-30T10:16:51.685Z</time></trkpt><trkpt lat="42.99448" lon="2.65595"><ele>469.6</ele><time>2026-03-30T10:16:52.686Z</time></trkpt><trkpt lat="42.9944533" lon="2.656075"><ele>472.0</ele><time>2026-03-30T10:16:53.686Z</time></trkpt><trkpt lat="42.9944667" lon="2.6561933"><ele>473.75</ele><time>2026-03-30T10:16:54.692Z</time></trkpt><trkpt lat="42.9944883" lon="2.6563133"><ele>475.5</ele><time>2026-03-30T10:16:55.688Z</time></trkpt><trkpt lat="42.9945517" lon="2.65646"><ele>477.25</ele><time>2026-03-30T10:16:56.687Z</time></trkpt><trkpt lat="42.99463" lon="2.656605"><ele>479.0</ele><time>2026-03-30T10:16:57.687Z</time></trkpt><trkpt lat="42.9947067" lon="2.6567467"><ele>479.0</ele><time>2026-03-30T10:16:58.689Z</time></trkpt><trkpt lat="42.9947833" lon="2.656885"><ele>479.0</ele><time>2026-03-30T10:16:59.69Z</time></trkpt><trkpt lat="42.99488" lon="2.657015"><ele>479.0</ele><time>2026-03-30T10:17:00.686Z</time></trkpt><trkpt lat="42.9949833" lon="2.65712"><ele>479.0</ele><time>2026-03-30T10:17:01.686Z</time></trkpt><trkpt lat="42.9951" lon="2.65721"><ele>477.5</ele><time>2026-03-30T10:17:02.686Z</time></trkpt><trkpt lat="42.9952333" lon="2.6572767"><ele>476.0</ele><time>2026-03-30T10:17:03.688Z</time></trkpt><trkpt lat="42.995375" lon="2.6573333"><ele>474.5</ele><time>2026-03-30T10:17:04.687Z</time></trkpt><trkpt lat="42.9955183" lon="2.6573833"><ele>473.0</ele><time>2026-03-30T10:17:05.687Z</time></trkpt><trkpt lat="42.9956583" lon="2.6574333"><ele>473.0</ele><time>2026-03-30T10:17:06.686Z</time></trkpt><trkpt lat="42.9958083" lon="2.6574633"><ele>473.0</ele><time>2026-03-30T10:17:07.691Z</time></trkpt><trkpt lat="42.9959667" lon="2.65747"><ele>473.0</ele><time>2026-03-30T10:17:08.69Z</time></trkpt><trkpt lat="42.9961367" lon="2.6574617"><ele>472.0</ele><time>2026-03-30T10:17:09.688Z</time></trkpt><trkpt lat="42.9963067" lon="2.657455"><ele>471.0</ele><time>2026-03-30T10:17:10.688Z</time></trkpt><trkpt lat="42.9964683" lon="2.657455"><ele>470.0</ele><time>2026-03-30T10:17:11.687Z</time></trkpt><trkpt lat="42.9966117" lon="2.6574783"><ele>467.75</ele><time>2026-03-30T10:17:12.687Z</time></trkpt><trkpt lat="42.9967467" lon="2.6575117"><ele>465.5</ele><time>2026-03-30T10:17:13.686Z</time></trkpt><trkpt lat="42.9968717" lon="2.657575"><ele>463.25</ele><time>2026-03-30T10:17:14.688Z</time></trkpt><trkpt lat="42.9969967" lon="2.6576533"><ele>461.0</ele><time>2026-03-30T10:17:15.686Z</time></trkpt><trkpt lat="42.9971133" lon="2.6577283"><ele>464.0</ele><time>2026-03-30T10:17:16.686Z</time></trkpt><trkpt lat="42.9972233" lon="2.657805"><ele>467.0</ele><time>2026-03-30T10:17:17.686Z</time></trkpt><trkpt lat="42.9973267" lon="2.6579017"><ele>470.0</ele><time>2026-03-30T10:17:18.688Z</time></trkpt><trkpt lat="42.99741" lon="2.6580083"><ele>473.0</ele><time>2026-03-30T10:17:19.686Z</time></trkpt><trkpt lat="42.9974983" lon="2.6580933"><ele>471.79999999999995</ele><time>2026-03-30T10:17:20.687Z</time></trkpt><trkpt lat="42.9975917" lon="2.6581433"><ele>470.59999999999997</ele><time>2026-03-30T10:17:21.689Z</time></trkpt><trkpt lat="42.9976933" lon="2.6581383"><ele>469.40000000000003</ele><time>2026-03-30T10:17:22.685Z</time></trkpt><trkpt lat="42.997785" lon="2.6581033"><ele>468.20000000000005</ele><time>2026-03-30T10:17:23.686Z</time></trkpt><trkpt lat="42.997875" lon="2.65804"><ele>467.0</ele><time>2026-03-30T10:17:24.688Z</time></trkpt><trkpt lat="42.99796" lon="2.6579783"><ele>467.0</ele><time>2026-03-30T10:17:25.69Z</time></trkpt><trkpt lat="42.9980283" lon="2.65794"><ele>467.00000000000006</ele><time>2026-03-30T10:17:26.689Z</time></trkpt><trkpt lat="42.9981317" lon="2.6579817"><ele>467.00000000000006</ele><time>2026-03-30T10:17:28.689Z</time></trkpt><trkpt lat="42.9981567" lon="2.6580783"><ele>467.0</ele><time>2026-03-30T10:17:29.686Z</time></trkpt><trkpt lat="42.998135" lon="2.6582267"><ele>467.0</ele><time>2026-03-30T10:17:30.686Z</time></trkpt><trkpt lat="42.9980983" lon="2.65839"><ele>467.0</ele><time>2026-03-30T10:17:31.686Z</time></trkpt><trkpt lat="42.9980667" lon="2.6585483"><ele>467.00000000000006</ele><time>2026-03-30T10:17:32.688Z</time></trkpt><trkpt lat="42.9980567" lon="2.6587133"><ele>467.00000000000006</ele><time>2026-03-30T10:17:33.687Z</time></trkpt><trkpt lat="42.99806" lon="2.658865"><ele>467.0</ele><time>2026-03-30T10:17:34.686Z</time></trkpt><trkpt lat="42.99808" lon="2.658995"><ele>467.0</ele><time>2026-03-30T10:17:35.688Z</time></trkpt><trkpt lat="42.9981317" lon="2.65909"><ele>468.6</ele><time>2026-03-30T10:17:36.687Z</time></trkpt><trkpt lat="42.9981967" lon="2.65916"><ele>470.20000000000005</ele><time>2026-03-30T10:17:37.687Z</time></trkpt><trkpt lat="42.9982817" lon="2.6592"><ele>471.8</ele><time>2026-03-30T10:17:38.687Z</time></trkpt><trkpt lat="42.9983717" lon="2.6591983"><ele>473.4</ele><time>2026-03-30T10:17:39.687Z</time></trkpt><trkpt lat="42.9984617" lon="2.6591717"><ele>475.0</ele><time>2026-03-30T10:17:40.687Z</time></trkpt><trkpt lat="42.998585" lon="2.659045"><ele>476.6666666666667</ele><time>2026-03-30T10:17:41.687Z</time></trkpt><trkpt lat="42.9987133" lon="2.65892"><ele>478.33333333333337</ele><time>2026-03-30T10:17:42.688Z</time></trkpt><trkpt lat="42.9988367" lon="2.6588083"><ele>480.0</ele><time>2026-03-30T10:17:43.686Z</time></trkpt><trkpt lat="42.9989633" lon="2.6586917"><ele>473.5</ele><time>2026-03-30T10:17:44.685Z</time></trkpt><trkpt lat="42.99909" lon="2.6585833"><ele>467.0</ele><time>2026-03-30T10:17:45.686Z</time></trkpt><trkpt lat="42.9992167" lon="2.6584917"><ele>460.5</ele><time>2026-03-30T10:17:46.685Z</time></trkpt><trkpt lat="42.999345" lon="2.6583933"><ele>454.0</ele><time>2026-03-30T10:17:47.686Z</time></trkpt><trkpt lat="42.9994717" lon="2.6582933"><ele>453.25</ele><time>2026-03-30T10:17:48.687Z</time></trkpt><trkpt lat="42.9995983" lon="2.6581883"><ele>452.5</ele><time>2026-03-30T10:17:49.687Z</time></trkpt><trkpt lat="42.9997167" lon="2.6580817"><ele>451.75</ele><time>2026-03-30T10:17:50.686Z</time></trkpt><trkpt lat="42.9998317" lon="2.65797"><ele>451.0</ele><time>2026-03-30T10:17:51.686Z</time></trkpt><trkpt lat="42.9999517" lon="2.6578583"><ele>447.0</ele><time>2026-03-30T10:17:52.686Z</time></trkpt><trkpt lat="43.0000733" lon="2.6577483"><ele>443.0</ele><time>2026-03-30T10:17:53.688Z</time></trkpt><trkpt lat="43.0001883" lon="2.6576417"><ele>439.0</ele><time>2026-03-30T10:17:54.686Z</time></trkpt><trkpt lat="43.000295" lon="2.65754"><ele>435.0</ele><time>2026-03-30T10:17:55.687Z</time></trkpt><trkpt lat="43.000385" lon="2.6574467"><ele>435.0</ele><time>2026-03-30T10:17:56.686Z</time></trkpt><trkpt lat="43.00046" lon="2.657345"><ele>435.0</ele><time>2026-03-30T10:17:57.687Z</time></trkpt><trkpt lat="43.000505" lon="2.6572233"><ele>435.0</ele><time>2026-03-30T10:17:58.686Z</time></trkpt><trkpt lat="43.00053" lon="2.6570967"><ele>435.0</ele><time>2026-03-30T10:17:59.692Z</time></trkpt><trkpt lat="43.0005283" lon="2.6569667"><ele>435.0</ele><time>2026-03-30T10:18:00.688Z</time></trkpt><trkpt lat="43.0005017" lon="2.6568217"><ele>432.25</ele><time>2026-03-30T10:18:01.686Z</time></trkpt><trkpt lat="43.0004733" lon="2.65669"><ele>429.5</ele><time>2026-03-30T10:18:02.686Z</time></trkpt><trkpt lat="43.0004633" lon="2.6565433"><ele>426.75</ele><time>2026-03-30T10:18:03.688Z</time></trkpt><trkpt lat="43.0004767" lon="2.656365"><ele>424.0</ele><time>2026-03-30T10:18:04.688Z</time></trkpt><trkpt lat="43.0004933" lon="2.65616"><ele>422.33333333333337</ele><time>2026-03-30T10:18:05.686Z</time></trkpt><trkpt lat="43.0005117" lon="2.6559483"><ele>420.66666666666663</ele><time>2026-03-30T10:18:06.688Z</time></trkpt><trkpt lat="43.0005217" lon="2.655735"><ele>419.0</ele><time>2026-03-30T10:18:07.687Z</time></trkpt><trkpt lat="43.000525" lon="2.655515"><ele>419.0</ele><time>2026-03-30T10:18:08.687Z</time></trkpt><trkpt lat="43.0005133" lon="2.6552917"><ele>419.0</ele><time>2026-03-30T10:18:09.688Z</time></trkpt><trkpt lat="43.0005067" lon="2.65507"><ele>419.0</ele><time>2026-03-30T10:18:10.689Z</time></trkpt><trkpt lat="43.0005167" lon="2.6548433"><ele>419.3333333333333</ele><time>2026-03-30T10:18:11.688Z</time></trkpt><trkpt lat="43.0005333" lon="2.65462"><ele>419.66666666666663</ele><time>2026-03-30T10:18:12.688Z</time></trkpt><trkpt lat="43.00056" lon="2.6544117"><ele>420.0</ele><time>2026-03-30T10:18:13.687Z</time></trkpt><trkpt lat="43.0005717" lon="2.65422"><ele>421.2</ele><time>2026-03-30T10:18:14.687Z</time></trkpt><trkpt lat="43.0005717" lon="2.6540383"><ele>422.4</ele><time>2026-03-30T10:18:15.685Z</time></trkpt><trkpt lat="43.0005983" lon="2.653905"><ele>423.6</ele><time>2026-03-30T10:18:16.687Z</time></trkpt><trkpt lat="43.0006367" lon="2.653785"><ele>424.8</ele><time>2026-03-30T10:18:17.687Z</time></trkpt><trkpt lat="43.0007017" lon="2.6536617"><ele>426.0</ele><time>2026-03-30T10:18:18.685Z</time></trkpt><trkpt lat="43.0007833" lon="2.6535383"><ele>428.25</ele><time>2026-03-30T10:18:19.686Z</time></trkpt><trkpt lat="43.00086" lon="2.6533883"><ele>430.5</ele><time>2026-03-30T10:18:20.687Z</time></trkpt><trkpt lat="43.00093" lon="2.6532167"><ele>432.75</ele><time>2026-03-30T10:18:21.686Z</time></trkpt><trkpt lat="43.001" lon="2.653035"><ele>435.0</ele><time>2026-03-30T10:18:22.687Z</time></trkpt><trkpt lat="43.0010817" lon="2.65284"><ele>433.33333333333337</ele><time>2026-03-30T10:18:23.686Z</time></trkpt><trkpt lat="43.0011617" lon="2.652645"><ele>431.6666666666667</ele><time>2026-03-30T10:18:24.687Z</time></trkpt><trkpt lat="43.001235" lon="2.6524533"><ele>430.0</ele><time>2026-03-30T10:18:25.687Z</time></trkpt><trkpt lat="43.0013067" lon="2.6522717"><ele>430.0</ele><time>2026-03-30T10:18:26.688Z</time></trkpt><trkpt lat="43.0013883" lon="2.6521117"><ele>430.0</ele><time>2026-03-30T10:18:27.688Z</time></trkpt><trkpt lat="43.0014717" lon="2.6519533"><ele>430.0</ele><time>2026-03-30T10:18:28.687Z</time></trkpt><trkpt lat="43.0015483" lon="2.6517883"><ele>430.0</ele><time>2026-03-30T10:18:29.689Z</time></trkpt><trkpt lat="43.0016183" lon="2.6516183"><ele>426.33333333333337</ele><time>2026-03-30T10:18:30.688Z</time></trkpt><trkpt lat="43.0016817" lon="2.6514333"><ele>422.66666666666663</ele><time>2026-03-30T10:18:31.686Z</time></trkpt><trkpt lat="43.00174" lon="2.6512367"><ele>419.0</ele><time>2026-03-30T10:18:32.687Z</time></trkpt><trkpt lat="43.0017833" lon="2.6510367"><ele>417.75</ele><time>2026-03-30T10:18:33.685Z</time></trkpt><trkpt lat="43.0018233" lon="2.6508417"><ele>416.5</ele><time>2026-03-30T10:18:34.685Z</time></trkpt><trkpt lat="43.0018567" lon="2.6506533"><ele>415.25</ele><time>2026-03-30T10:18:35.686Z</time></trkpt><trkpt lat="43.00189" lon="2.6504617"><ele>414.0</ele><time>2026-03-30T10:18:36.688Z</time></trkpt><trkpt lat="43.00193" lon="2.65027"><ele>411.25</ele><time>2026-03-30T10:18:37.685Z</time></trkpt><trkpt lat="43.0019733" lon="2.65008"><ele>408.5</ele><time>2026-03-30T10:18:38.688Z</time></trkpt><trkpt lat="43.00202" lon="2.6498917"><ele>405.75</ele><time>2026-03-30T10:18:39.686Z</time></trkpt><trkpt lat="43.00208" lon="2.649715"><ele>403.0</ele><time>2026-03-30T10:18:40.686Z</time></trkpt><trkpt lat="43.002145" lon="2.6495467"><ele>402.5</ele><time>2026-03-30T10:18:41.686Z</time></trkpt><trkpt lat="43.00223" lon="2.6493933"><ele>402.0</ele><time>2026-03-30T10:18:42.687Z</time></trkpt><trkpt lat="43.0023333" lon="2.6492467"><ele>401.5</ele><time>2026-03-30T10:18:43.686Z</time></trkpt><trkpt lat="43.0024533" lon="2.6491067"><ele>401.0</ele><time>2026-03-30T10:18:44.69Z</time></trkpt><trkpt lat="43.0025783" lon="2.6489667"><ele>401.0</ele><time>2026-03-30T10:18:45.685Z</time></trkpt><trkpt lat="43.0027017" lon="2.64883"><ele>401.0</ele><time>2026-03-30T10:18:46.687Z</time></trkpt><trkpt lat="43.0028167" lon="2.6486983"><ele>401.0</ele><time>2026-03-30T10:18:47.687Z</time></trkpt><trkpt lat="43.002935" lon="2.6485683"><ele>398.5</ele><time>2026-03-30T10:18:48.686Z</time></trkpt><trkpt lat="43.0030617" lon="2.6484467"><ele>396.0</ele><time>2026-03-30T10:18:49.693Z</time></trkpt><trkpt lat="43.0031833" lon="2.6483367"><ele>393.5</ele><time>2026-03-30T10:18:50.687Z</time></trkpt><trkpt lat="43.0032983" lon="2.648235"><ele>391.0</ele><time>2026-03-30T10:18:51.686Z</time></trkpt><trkpt lat="43.003405" lon="2.6481467"><ele>391.0</ele><time>2026-03-30T10:18:52.686Z</time></trkpt><trkpt lat="43.0035" lon="2.64807"><ele>391.0</ele><time>2026-03-30T10:18:53.685Z</time></trkpt><trkpt lat="43.0035883" lon="2.6479933"><ele>391.0</ele><time>2026-03-30T10:18:54.686Z</time></trkpt><trkpt lat="43.003665" lon="2.6479017"><ele>391.0</ele><time>2026-03-30T10:18:55.688Z</time></trkpt><trkpt lat="43.0037383" lon="2.6478"><ele>391.0</ele><time>2026-03-30T10:18:56.686Z</time></trkpt><trkpt lat="43.0038" lon="2.6476867"><ele>389.25</ele><time>2026-03-30T10:18:57.686Z</time></trkpt><trkpt lat="43.0038517" lon="2.6475483"><ele>387.5</ele><time>2026-03-30T10:18:58.686Z</time></trkpt><trkpt lat="43.00389" lon="2.6473983"><ele>385.75</ele><time>2026-03-30T10:18:59.685Z</time></trkpt><trkpt lat="43.0039217" lon="2.6472383"><ele>384.0</ele><time>2026-03-30T10:19:00.686Z</time></trkpt><trkpt lat="43.0039433" lon="2.6470867"><ele>382.5</ele><time>2026-03-30T10:19:01.687Z</time></trkpt><trkpt lat="43.00397" lon="2.6469433"><ele>381.0</ele><time>2026-03-30T10:19:02.687Z</time></trkpt><trkpt lat="43.0040133" lon="2.6468083"><ele>379.5</ele><time>2026-03-30T10:19:03.686Z</time></trkpt><trkpt lat="43.0040783" lon="2.646675"><ele>378.0</ele><time>2026-03-30T10:19:04.687Z</time></trkpt><trkpt lat="43.0041683" lon="2.646545"><ele>378.0</ele><time>2026-03-30T10:19:05.689Z</time></trkpt><trkpt lat="43.0042717" lon="2.6464117"><ele>378.0</ele><time>2026-03-30T10:19:06.689Z</time></trkpt><trkpt lat="43.004375" lon="2.646255"><ele>378.0</ele><time>2026-03-30T10:19:07.686Z</time></trkpt><trkpt lat="43.004475" lon="2.6460933"><ele>375.75</ele><time>2026-03-30T10:19:08.686Z</time></trkpt><trkpt lat="43.0045717" lon="2.6459417"><ele>373.5</ele><time>2026-03-30T10:19:09.686Z</time></trkpt><trkpt lat="43.00467" lon="2.6458"><ele>371.25</ele><time>2026-03-30T10:19:10.686Z</time></trkpt><trkpt lat="43.0047733" lon="2.6456667"><ele>369.0</ele><time>2026-03-30T10:19:11.688Z</time></trkpt><trkpt lat="43.0048767" lon="2.6455383"><ele>369.0</ele><time>2026-03-30T10:19:12.687Z</time></trkpt><trkpt lat="43.0049767" lon="2.64541"><ele>369.0</ele><time>2026-03-30T10:19:13.693Z</time></trkpt><trkpt lat="43.0050733" lon="2.6452767"><ele>369.0</ele><time>2026-03-30T10:19:14.688Z</time></trkpt><trkpt lat="43.005165" lon="2.6451417"><ele>369.0</ele><time>2026-03-30T10:19:15.686Z</time></trkpt><trkpt lat="43.0052533" lon="2.64501"><ele>368.25</ele><time>2026-03-30T10:19:16.686Z</time></trkpt><trkpt lat="43.00534" lon="2.644875"><ele>367.5</ele><time>2026-03-30T10:19:17.687Z</time></trkpt><trkpt lat="43.00542" lon="2.644735"><ele>366.75</ele><time>2026-03-30T10:19:18.687Z</time></trkpt><trkpt lat="43.005495" lon="2.6445883"><ele>366.0</ele><time>2026-03-30T10:19:19.686Z</time></trkpt><trkpt lat="43.00556" lon="2.64441"><ele>364.5</ele><time>2026-03-30T10:19:20.689Z</time></trkpt><trkpt lat="43.0056133" lon="2.6442233"><ele>363.0</ele><time>2026-03-30T10:19:21.689Z</time></trkpt><trkpt lat="43.0056683" lon="2.6440517"><ele>361.5</ele><time>2026-03-30T10:19:22.685Z</time></trkpt><trkpt lat="43.0057333" lon="2.6438867"><ele>360.0</ele><time>2026-03-30T10:19:23.685Z</time></trkpt><trkpt lat="43.0058133" lon="2.6437167"><ele>358.25</ele><time>2026-03-30T10:19:24.685Z</time></trkpt><trkpt lat="43.0059033" lon="2.6435483"><ele>356.5</ele><time>2026-03-30T10:19:25.689Z</time></trkpt><trkpt lat="43.0059983" lon="2.6433917"><ele>354.75</ele><time>2026-03-30T10:19:26.686Z</time></trkpt><trkpt lat="43.006095" lon="2.6432467"><ele>353.0</ele><time>2026-03-30T10:19:27.686Z</time></trkpt><trkpt lat="43.0061917" lon="2.6430983"><ele>353.0</ele><time>2026-03-30T10:19:28.687Z</time></trkpt><trkpt lat="43.0062833" lon="2.6429483"><ele>353.0</ele><time>2026-03-30T10:19:29.686Z</time></trkpt><trkpt lat="43.00637" lon="2.6427983"><ele>353.0</ele><time>2026-03-30T10:19:30.688Z</time></trkpt><trkpt lat="43.0064567" lon="2.6426533"><ele>353.0</ele><time>2026-03-30T10:19:31.687Z</time></trkpt><trkpt lat="43.006545" lon="2.64252"><ele>353.79999999999995</ele><time>2026-03-30T10:19:32.689Z</time></trkpt><trkpt lat="43.0066283" lon="2.6424017"><ele>354.6</ele><time>2026-03-30T10:19:33.687Z</time></trkpt><trkpt lat="43.0067017" lon="2.6422933"><ele>355.4</ele><time>2026-03-30T10:19:34.692Z</time></trkpt><trkpt lat="43.00677" lon="2.6421933"><ele>356.20000000000005</ele><time>2026-03-30T10:19:35.689Z</time></trkpt><trkpt lat="43.0068183" lon="2.6420767"><ele>357.0</ele><time>2026-03-30T10:19:36.688Z</time></trkpt><trkpt lat="43.0068517" lon="2.6419467"><ele>355.20000000000005</ele><time>2026-03-30T10:19:37.687Z</time></trkpt><trkpt lat="43.0068983" lon="2.6418283"><ele>353.4</ele><time>2026-03-30T10:19:38.687Z</time></trkpt><trkpt lat="43.0069617" lon="2.6417233"><ele>351.6</ele><time>2026-03-30T10:19:39.688Z</time></trkpt><trkpt lat="43.0070217" lon="2.6416233"><ele>349.79999999999995</ele><time>2026-03-30T10:19:40.687Z</time></trkpt><trkpt lat="43.007075" lon="2.6415133"><ele>348.0</ele><time>2026-03-30T10:19:41.686Z</time></trkpt><trkpt lat="43.0070983" lon="2.6413867"><ele>348.0</ele><time>2026-03-30T10:19:42.686Z</time></trkpt><trkpt lat="43.0071" lon="2.64124"><ele>348.0</ele><time>2026-03-30T10:19:43.686Z</time></trkpt><trkpt lat="43.0070733" lon="2.6411017"><ele>348.0</ele><time>2026-03-30T10:19:44.686Z</time></trkpt><trkpt lat="43.0070467" lon="2.6409717"><ele>348.0</ele><time>2026-03-30T10:19:45.686Z</time></trkpt><trkpt lat="43.0070467" lon="2.6408467"><ele>348.0</ele><time>2026-03-30T10:19:46.686Z</time></trkpt><trkpt lat="43.007075" lon="2.6407183"><ele>348.25</ele><time>2026-03-30T10:19:47.685Z</time></trkpt><trkpt lat="43.00712" lon="2.6405733"><ele>348.5</ele><time>2026-03-30T10:19:48.686Z</time></trkpt><trkpt lat="43.0071683" lon="2.640415"><ele>348.75</ele><time>2026-03-30T10:19:49.687Z</time></trkpt><trkpt lat="43.0072067" lon="2.640235"><ele>349.0</ele><time>2026-03-30T10:19:50.688Z</time></trkpt><trkpt lat="43.0072417" lon="2.6400383"><ele>348.75</ele><time>2026-03-30T10:19:51.686Z</time></trkpt><trkpt lat="43.0072733" lon="2.639845"><ele>348.5</ele><time>2026-03-30T10:19:52.685Z</time></trkpt><trkpt lat="43.007305" lon="2.6396767"><ele>348.25</ele><time>2026-03-30T10:19:53.687Z</time></trkpt><trkpt lat="43.0073383" lon="2.6395267"><ele>348.0</ele><time>2026-03-30T10:19:54.687Z</time></trkpt><trkpt lat="43.007375" lon="2.6394017"><ele>348.0</ele><time>2026-03-30T10:19:55.686Z</time></trkpt><trkpt lat="43.00741" lon="2.6393017"><ele>348.0</ele><time>2026-03-30T10:19:56.686Z</time></trkpt><trkpt lat="43.007435" lon="2.63921"><ele>348.0</ele><time>2026-03-30T10:19:57.687Z</time></trkpt><trkpt lat="43.0074567" lon="2.6391167"><ele>348.0</ele><time>2026-03-30T10:19:58.685Z</time></trkpt><trkpt lat="43.0074833" lon="2.63902"><ele>348.0</ele><time>2026-03-30T10:19:59.685Z</time></trkpt><trkpt lat="43.007515" lon="2.63892"><ele>348.0</ele><time>2026-03-30T10:20:00.686Z</time></trkpt><trkpt lat="43.0075483" lon="2.6388067"><ele>348.2</ele><time>2026-03-30T10:20:01.687Z</time></trkpt><trkpt lat="43.0075783" lon="2.6386767"><ele>348.4</ele><time>2026-03-30T10:20:02.695Z</time></trkpt><trkpt lat="43.007605" lon="2.6385417"><ele>348.59999999999997</ele><time>2026-03-30T10:20:03.688Z</time></trkpt><trkpt lat="43.0076367" lon="2.638405"><ele>348.79999999999995</ele><time>2026-03-30T10:20:04.686Z</time></trkpt><trkpt lat="43.007665" lon="2.638265"><ele>349.0</ele><time>2026-03-30T10:20:05.688Z</time></trkpt><trkpt lat="43.007695" lon="2.6381217"><ele>348.0</ele><time>2026-03-30T10:20:06.686Z</time></trkpt><trkpt lat="43.0077317" lon="2.63798"><ele>347.0</ele><time>2026-03-30T10:20:07.685Z</time></trkpt><trkpt lat="43.00778" lon="2.6378417"><ele>346.0</ele><time>2026-03-30T10:20:08.687Z</time></trkpt><trkpt lat="43.0078417" lon="2.6377083"><ele>345.0</ele><time>2026-03-30T10:20:09.687Z</time></trkpt><trkpt lat="43.00791" lon="2.6375817"><ele>345.0</ele><time>2026-03-30T10:20:10.686Z</time></trkpt><trkpt lat="43.0079817" lon="2.6374567"><ele>345.0</ele><time>2026-03-30T10:20:11.688Z</time></trkpt><trkpt lat="43.0080483" lon="2.6373267"><ele>345.0</ele><time>2026-03-30T10:20:12.685Z</time></trkpt><trkpt lat="43.0081117" lon="2.6371917"><ele>345.0</ele><time>2026-03-30T10:20:13.687Z</time></trkpt><trkpt lat="43.0081617" lon="2.6370567"><ele>345.8</ele><time>2026-03-30T10:20:14.686Z</time></trkpt><trkpt lat="43.0081983" lon="2.6369233"><ele>346.6</ele><time>2026-03-30T10:20:15.686Z</time></trkpt><trkpt lat="43.00823" lon="2.6367867"><ele>347.4</ele><time>2026-03-30T10:20:16.687Z</time></trkpt><trkpt lat="43.0082583" lon="2.63666"><ele>348.2</ele><time>2026-03-30T10:20:17.685Z</time></trkpt><trkpt lat="43.0082867" lon="2.6365433"><ele>349.0</ele><time>2026-03-30T10:20:18.686Z</time></trkpt><trkpt lat="43.0083133" lon="2.6364333"><ele>349.4</ele><time>2026-03-30T10:20:19.687Z</time></trkpt><trkpt lat="43.0083367" lon="2.6363383"><ele>349.79999999999995</ele><time>2026-03-30T10:20:20.688Z</time></trkpt><trkpt lat="43.0083683" lon="2.636195"><ele>350.20000000000005</ele><time>2026-03-30T10:20:22.685Z</time></trkpt><trkpt lat="43.0083933" lon="2.6360867"><ele>350.6</ele><time>2026-03-30T10:20:24.689Z</time></trkpt><trkpt lat="43.008385" lon="2.635935"><ele>351.0</ele><time>2026-03-30T10:20:26.687Z</time></trkpt><trkpt lat="43.0083467" lon="2.63585"><ele>351.1666666666667</ele><time>2026-03-30T10:20:27.686Z</time></trkpt><trkpt lat="43.0082917" lon="2.6357567"><ele>351.3333333333333</ele><time>2026-03-30T10:20:28.686Z</time></trkpt><trkpt lat="43.00823" lon="2.63566"><ele>351.5</ele><time>2026-03-30T10:20:29.686Z</time></trkpt><trkpt lat="43.00817" lon="2.6355617"><ele>351.66666666666663</ele><time>2026-03-30T10:20:30.686Z</time></trkpt><trkpt lat="43.00811" lon="2.6354717"><ele>351.8333333333333</ele><time>2026-03-30T10:20:31.687Z</time></trkpt><trkpt lat="43.0080567" lon="2.6354017"><ele>352.0</ele><time>2026-03-30T10:20:32.687Z</time></trkpt><trkpt lat="43.0080183" lon="2.6353133"><ele>352.0</ele><time>2026-03-30T10:20:34.686Z</time></trkpt><trkpt lat="43.0081" lon="2.63529"><ele>352.0</ele><time>2026-03-30T10:20:37.686Z</time></trkpt><trkpt lat="43.0082" lon="2.6353117"><ele>352.0</ele><time>2026-03-30T10:20:39.688Z</time></trkpt><trkpt lat="43.0082733" lon="2.6352017"><ele>352.0</ele><time>2026-03-30T10:20:41.687Z</time></trkpt><trkpt lat="43.00828" lon="2.6350983"><ele>352.0</ele><time>2026-03-30T10:20:42.688Z</time></trkpt><trkpt lat="43.00829" lon="2.6349783"><ele>350.8</ele><time>2026-03-30T10:20:43.688Z</time></trkpt><trkpt lat="43.0082983" lon="2.6348483"><ele>349.6</ele><time>2026-03-30T10:20:44.689Z</time></trkpt><trkpt lat="43.0083133" lon="2.6347133"><ele>348.40000000000003</ele><time>2026-03-30T10:20:45.686Z</time></trkpt><trkpt lat="43.008345" lon="2.6345733"><ele>347.20000000000005</ele><time>2026-03-30T10:20:46.686Z</time></trkpt><trkpt lat="43.0083967" lon="2.6344367"><ele>346.0</ele><time>2026-03-30T10:20:47.686Z</time></trkpt><trkpt lat="43.008455" lon="2.634305"><ele>345.0</ele><time>2026-03-30T10:20:48.687Z</time></trkpt><trkpt lat="43.0085067" lon="2.6341683"><ele>344.0</ele><time>2026-03-30T10:20:49.686Z</time></trkpt><trkpt lat="43.0085517" lon="2.6340367"><ele>343.0</ele><time>2026-03-30T10:20:50.687Z</time></trkpt><trkpt lat="43.008595" lon="2.6339067"><ele>342.0</ele><time>2026-03-30T10:20:51.686Z</time></trkpt><trkpt lat="43.0086367" lon="2.6337867"><ele>341.0</ele><time>2026-03-30T10:20:52.687Z</time></trkpt><trkpt lat="43.0086767" lon="2.6336967"><ele>341.0</ele><time>2026-03-30T10:20:53.688Z</time></trkpt><trkpt lat="43.0087617" lon="2.6336083"><ele>341.0</ele><time>2026-03-30T10:20:55.687Z</time></trkpt><trkpt lat="43.0088317" lon="2.633635"><ele>341.0</ele><time>2026-03-30T10:20:56.688Z</time></trkpt><trkpt lat="43.008905" lon="2.633675"><ele>341.0</ele><time>2026-03-30T10:20:57.687Z</time></trkpt><trkpt lat="43.008985" lon="2.6337467"><ele>341.0</ele><time>2026-03-30T10:20:58.686Z</time></trkpt><trkpt lat="43.0090583" lon="2.6337983"><ele>341.0</ele><time>2026-03-30T10:20:59.686Z</time></trkpt><trkpt lat="43.0091317" lon="2.63384"><ele>341.20000000000005</ele><time>2026-03-30T10:21:00.687Z</time></trkpt><trkpt lat="43.0091967" lon="2.6338567"><ele>341.40000000000003</ele><time>2026-03-30T10:21:01.686Z</time></trkpt><trkpt lat="43.0093133" lon="2.63377"><ele>341.6</ele><time>2026-03-30T10:21:03.687Z</time></trkpt><trkpt lat="43.0093783" lon="2.6336667"><ele>341.8</ele><time>2026-03-30T10:21:04.686Z</time></trkpt><trkpt lat="43.00944" lon="2.6335433"><ele>342.0</ele><time>2026-03-30T10:21:05.687Z</time></trkpt><trkpt lat="43.0095017" lon="2.6334033"><ele>341.20000000000005</ele><time>2026-03-30T10:21:06.686Z</time></trkpt><trkpt lat="43.0095683" lon="2.6332633"><ele>340.4</ele><time>2026-03-30T10:21:07.687Z</time></trkpt><trkpt lat="43.0096317" lon="2.6331367"><ele>339.6</ele><time>2026-03-30T10:21:08.686Z</time></trkpt><trkpt lat="43.009695" lon="2.6330183"><ele>338.79999999999995</ele><time>2026-03-30T10:21:09.685Z</time></trkpt><trkpt lat="43.0097583" lon="2.6329017"><ele>338.0</ele><time>2026-03-30T10:21:10.687Z</time></trkpt><trkpt lat="43.0098233" lon="2.6328"><ele>337.6666666666667</ele><time>2026-03-30T10:21:11.687Z</time></trkpt><trkpt lat="43.0098883" lon="2.63274"><ele>337.33333333333337</ele><time>2026-03-30T10:21:12.687Z</time></trkpt><trkpt lat="43.0099467" lon="2.63268"><ele>337.0</ele><time>2026-03-30T10:21:13.689Z</time></trkpt><trkpt lat="43.01" lon="2.6326233"><ele>336.6666666666667</ele><time>2026-03-30T10:21:14.688Z</time></trkpt><trkpt lat="43.0100517" lon="2.6325717"><ele>336.3333333333333</ele><time>2026-03-30T10:21:15.686Z</time></trkpt><trkpt lat="43.0101367" lon="2.6324433"><ele>336.0</ele><time>2026-03-30T10:21:17.686Z</time></trkpt><trkpt lat="43.0101717" lon="2.632355"><ele>336.6666666666667</ele><time>2026-03-30T10:21:18.686Z</time></trkpt><trkpt lat="43.010205" lon="2.63223"><ele>337.3333333333333</ele><time>2026-03-30T10:21:19.685Z</time></trkpt><trkpt lat="43.01024" lon="2.63211"><ele>338.0</ele><time>2026-03-30T10:21:20.689Z</time></trkpt><trkpt lat="43.010285" lon="2.631995"><ele>338.66666666666663</ele><time>2026-03-30T10:21:21.686Z</time></trkpt><trkpt lat="43.0103033" lon="2.6318983"><ele>339.3333333333333</ele><time>2026-03-30T10:21:22.685Z</time></trkpt><trkpt lat="43.0102983" lon="2.631805"><ele>340.0</ele><time>2026-03-30T10:21:23.688Z</time></trkpt><trkpt lat="43.0102867" lon="2.6317067"><ele>340.5</ele><time>2026-03-30T10:21:24.686Z</time></trkpt><trkpt lat="43.0102783" lon="2.6316033"><ele>341.0</ele><time>2026-03-30T10:21:25.686Z</time></trkpt><trkpt lat="43.0102867" lon="2.6315083"><ele>341.5</ele><time>2026-03-30T10:21:26.69Z</time></trkpt><trkpt lat="43.010315" lon="2.6314233"><ele>342.0</ele><time>2026-03-30T10:21:27.69Z</time></trkpt><trkpt lat="43.010365" lon="2.6312967"><ele>342.5</ele><time>2026-03-30T10:21:29.69Z</time></trkpt><trkpt lat="43.010275" lon="2.6312433"><ele>343.0</ele><time>2026-03-30T10:21:32.69Z</time></trkpt><trkpt lat="43.0102133" lon="2.6312733"><ele>343.0</ele><time>2026-03-30T10:21:33.687Z</time></trkpt><trkpt lat="43.010135" lon="2.6312917"><ele>343.0</ele><time>2026-03-30T10:21:34.686Z</time></trkpt><trkpt lat="43.0100517" lon="2.63128"><ele>343.0</ele><time>2026-03-30T10:21:35.687Z</time></trkpt><trkpt lat="43.00998" lon="2.6312367"><ele>343.0</ele><time>2026-03-30T10:21:36.687Z</time></trkpt><trkpt lat="43.0099233" lon="2.6311667"><ele>343.0</ele><time>2026-03-30T10:21:37.69Z</time></trkpt><trkpt lat="43.0098683" lon="2.631075"><ele>343.0</ele><time>2026-03-30T10:21:38.688Z</time></trkpt><trkpt lat="43.0097933" lon="2.6309867"><ele>342.79999999999995</ele><time>2026-03-30T10:21:39.688Z</time></trkpt><trkpt lat="43.0097117" lon="2.6308867"><ele>342.6</ele><time>2026-03-30T10:21:40.686Z</time></trkpt><trkpt lat="43.0096217" lon="2.6307883"><ele>342.4</ele><time>2026-03-30T10:21:41.687Z</time></trkpt><trkpt lat="43.0095383" lon="2.6306883"><ele>342.20000000000005</ele><time>2026-03-30T10:21:42.686Z</time></trkpt><trkpt lat="43.0094767" lon="2.6305783"><ele>342.0</ele><time>2026-03-30T10:21:43.685Z</time></trkpt><trkpt lat="43.009435" lon="2.6304533"><ele>342.0</ele><time>2026-03-30T10:21:44.687Z</time></trkpt><trkpt lat="43.009415" lon="2.6303267"><ele>342.0</ele><time>2026-03-30T10:21:45.686Z</time></trkpt><trkpt lat="43.0094017" lon="2.6302167"><ele>342.0</ele><time>2026-03-30T10:21:46.686Z</time></trkpt><trkpt lat="43.00939" lon="2.6301267"><ele>342.0</ele><time>2026-03-30T10:21:47.687Z</time></trkpt><trkpt lat="43.0093717" lon="2.63"><ele>342.0</ele><time>2026-03-30T10:21:49.688Z</time></trkpt><trkpt lat="43.0094483" lon="2.6299517"><ele>342.0</ele><time>2026-03-30T10:21:52.687Z</time></trkpt><trkpt lat="43.0095083" lon="2.629995"><ele>342.5</ele><time>2026-03-30T10:21:53.687Z</time></trkpt><trkpt lat="43.009575" lon="2.6300367"><ele>343.0</ele><time>2026-03-30T10:21:54.687Z</time></trkpt><trkpt lat="43.009685" lon="2.6300583"><ele>343.5</ele><time>2026-03-30T10:21:55.686Z</time></trkpt><trkpt lat="43.0098117" lon="2.6300617"><ele>344.0</ele><time>2026-03-30T10:21:56.685Z</time></trkpt><trkpt lat="43.00995" lon="2.6300533"><ele>345.0</ele><time>2026-03-30T10:21:57.687Z</time></trkpt><trkpt lat="43.0100917" lon="2.6300383"><ele>346.0</ele><time>2026-03-30T10:21:58.685Z</time></trkpt><trkpt lat="43.0102333" lon="2.6300083"><ele>347.0</ele><time>2026-03-30T10:21:59.686Z</time></trkpt><trkpt lat="43.0103783" lon="2.6299683"><ele>348.0</ele><time>2026-03-30T10:22:00.687Z</time></trkpt><trkpt lat="43.0105233" lon="2.6299217"><ele>348.0</ele><time>2026-03-30T10:22:01.685Z</time></trkpt><trkpt lat="43.0106733" lon="2.6298867"><ele>348.0</ele><time>2026-03-30T10:22:02.686Z</time></trkpt><trkpt lat="43.01083" lon="2.6298767"><ele>348.0</ele><time>2026-03-30T10:22:03.686Z</time></trkpt><trkpt lat="43.0109967" lon="2.62989"><ele>348.0</ele><time>2026-03-30T10:22:04.687Z</time></trkpt><trkpt lat="43.0111567" lon="2.6299083"><ele>348.0</ele><time>2026-03-30T10:22:05.689Z</time></trkpt><trkpt lat="43.0113" lon="2.6299167"><ele>348.0</ele><time>2026-03-30T10:22:06.686Z</time></trkpt><trkpt lat="43.01142" lon="2.6299217"><ele>348.0</ele><time>2026-03-30T10:22:07.686Z</time></trkpt><trkpt lat="43.01152" lon="2.6299333"><ele>348.0</ele><time>2026-03-30T10:22:08.686Z</time></trkpt><trkpt lat="43.0116117" lon="2.6299633"><ele>348.0</ele><time>2026-03-30T10:22:09.687Z</time></trkpt><trkpt lat="43.0116933" lon="2.6300233"><ele>348.0</ele><time>2026-03-30T10:22:10.687Z</time></trkpt><trkpt lat="43.01177" lon="2.6301067"><ele>348.0</ele><time>2026-03-30T10:22:11.686Z</time></trkpt><trkpt lat="43.01186" lon="2.6302067"><ele>348.0</ele><time>2026-03-30T10:22:12.686Z</time></trkpt><trkpt lat="43.0119617" lon="2.6302933"><ele>349.0</ele><time>2026-03-30T10:22:13.687Z</time></trkpt><trkpt lat="43.0120733" lon="2.6303767"><ele>350.0</ele><time>2026-03-30T10:22:14.687Z</time></trkpt><trkpt lat="43.0121833" lon="2.6304617"><ele>351.0</ele><time>2026-03-30T10:22:15.686Z</time></trkpt><trkpt lat="43.0122883" lon="2.6305617"><ele>352.0</ele><time>2026-03-30T10:22:16.686Z</time></trkpt><trkpt lat="43.01238" lon="2.6306733"><ele>352.0</ele><time>2026-03-30T10:22:17.686Z</time></trkpt><trkpt lat="43.012455" lon="2.6307817"><ele>352.0</ele><time>2026-03-30T10:22:18.686Z</time></trkpt><trkpt lat="43.0125233" lon="2.6308817"><ele>352.0</ele><time>2026-03-30T10:22:19.686Z</time></trkpt><trkpt lat="43.0125967" lon="2.6309583"><ele>352.0</ele><time>2026-03-30T10:22:20.686Z</time></trkpt><trkpt lat="43.012685" lon="2.6310067"><ele>352.0</ele><time>2026-03-30T10:22:21.686Z</time></trkpt><trkpt lat="43.01278" lon="2.6310317"><ele>354.20000000000005</ele><time>2026-03-30T10:22:22.687Z</time></trkpt><trkpt lat="43.0128667" lon="2.6310567"><ele>356.4</ele><time>2026-03-30T10:22:23.685Z</time></trkpt><trkpt lat="43.0129417" lon="2.6311033"><ele>358.6</ele><time>2026-03-30T10:22:24.685Z</time></trkpt><trkpt lat="43.0130017" lon="2.631175"><ele>360.79999999999995</ele><time>2026-03-30T10:22:25.686Z</time></trkpt><trkpt lat="43.013035" lon="2.6313133"><ele>363.0</ele><time>2026-03-30T10:22:26.686Z</time></trkpt><trkpt lat="43.0130667" lon="2.6314733"><ele>363.75</ele><time>2026-03-30T10:22:27.686Z</time></trkpt><trkpt lat="43.013095" lon="2.6316433"><ele>364.5</ele><time>2026-03-30T10:22:28.685Z</time></trkpt><trkpt lat="43.01313" lon="2.6318133"><ele>365.25</ele><time>2026-03-30T10:22:29.689Z</time></trkpt><trkpt lat="43.01316" lon="2.6319733"><ele>366.0</ele><time>2026-03-30T10:22:30.688Z</time></trkpt><trkpt lat="43.01318" lon="2.6321183"><ele>366.20000000000005</ele><time>2026-03-30T10:22:31.687Z</time></trkpt><trkpt lat="43.0132067" lon="2.6322283"><ele>366.40000000000003</ele><time>2026-03-30T10:22:32.687Z</time></trkpt><trkpt lat="43.01324" lon="2.63231"><ele>366.6</ele><time>2026-03-30T10:22:33.687Z</time></trkpt><trkpt lat="43.01336" lon="2.63235"><ele>366.8</ele><time>2026-03-30T10:22:35.686Z</time></trkpt><trkpt lat="43.0134483" lon="2.6323183"><ele>367.0</ele><time>2026-03-30T10:22:36.686Z</time></trkpt><trkpt lat="43.01355" lon="2.632265"><ele>369.25</ele><time>2026-03-30T10:22:37.687Z</time></trkpt><trkpt lat="43.0136633" lon="2.6322183"><ele>371.5</ele><time>2026-03-30T10:22:38.69Z</time></trkpt><trkpt lat="43.01379" lon="2.632205"><ele>373.75</ele><time>2026-03-30T10:22:39.687Z</time></trkpt><trkpt lat="43.0139233" lon="2.63222"><ele>376.0</ele><time>2026-03-30T10:22:40.685Z</time></trkpt><trkpt lat="43.0140533" lon="2.6322467"><ele>379.25</ele><time>2026-03-30T10:22:41.688Z</time></trkpt><trkpt lat="43.0141733" lon="2.6322817"><ele>382.5</ele><time>2026-03-30T10:22:42.688Z</time></trkpt><trkpt lat="43.014275" lon="2.632335"><ele>385.75</ele><time>2026-03-30T10:22:43.687Z</time></trkpt><trkpt lat="43.0143667" lon="2.6324133"><ele>389.0</ele><time>2026-03-30T10:22:44.687Z</time></trkpt><trkpt lat="43.0144517" lon="2.6325233"><ele>389.0</ele><time>2026-03-30T10:22:45.685Z</time></trkpt><trkpt lat="43.01454" lon="2.63264"><ele>389.0</ele><time>2026-03-30T10:22:46.686Z</time></trkpt><trkpt lat="43.0146333" lon="2.6327483"><ele>389.0</ele><time>2026-03-30T10:22:47.688Z</time></trkpt><trkpt lat="43.014735" lon="2.6328517"><ele>389.0</ele><time>2026-03-30T10:22:48.687Z</time></trkpt><trkpt lat="43.0148367" lon="2.6329633"><ele>391.0</ele><time>2026-03-30T10:22:49.686Z</time></trkpt><trkpt lat="43.01492" lon="2.633085"><ele>393.0</ele><time>2026-03-30T10:22:50.689Z</time></trkpt><trkpt lat="43.014995" lon="2.6331983"><ele>395.0</ele><time>2026-03-30T10:22:51.687Z</time></trkpt><trkpt lat="43.0150733" lon="2.633295"><ele>397.0</ele><time>2026-03-30T10:22:52.688Z</time></trkpt><trkpt lat="43.0151683" lon="2.6333617"><ele>399.0</ele><time>2026-03-30T10:22:53.687Z</time></trkpt><trkpt lat="43.01527" lon="2.63341"><ele>399.14285714285717</ele><time>2026-03-30T10:22:54.687Z</time></trkpt><trkpt lat="43.0153583" lon="2.6334517"><ele>399.2857142857143</ele><time>2026-03-30T10:22:55.687Z</time></trkpt><trkpt lat="43.01543" lon="2.6334933"><ele>399.42857142857144</ele><time>2026-03-30T10:22:56.687Z</time></trkpt><trkpt lat="43.0154967" lon="2.6335333"><ele>399.57142857142856</ele><time>2026-03-30T10:22:57.687Z</time></trkpt><trkpt lat="43.0155533" lon="2.6335767"><ele>399.7142857142857</ele><time>2026-03-30T10:22:58.687Z</time></trkpt><trkpt lat="43.015605" lon="2.6336267"><ele>399.8571428571429</ele><time>2026-03-30T10:22:59.687Z</time></trkpt><trkpt lat="43.015665" lon="2.6336817"><ele>400.0</ele><time>2026-03-30T10:23:00.688Z</time></trkpt><trkpt lat="43.015735" lon="2.6337317"><ele>401.75</ele><time>2026-03-30T10:23:01.687Z</time></trkpt><trkpt lat="43.01582" lon="2.6337917"><ele>403.5</ele><time>2026-03-30T10:23:02.688Z</time></trkpt><trkpt lat="43.01591" lon="2.6338833"><ele>405.25</ele><time>2026-03-30T10:23:03.687Z</time></trkpt><trkpt lat="43.016" lon="2.6340183"><ele>407.0</ele><time>2026-03-30T10:23:04.688Z</time></trkpt><trkpt lat="43.01606" lon="2.6341933"><ele>407.0</ele><time>2026-03-30T10:23:05.688Z</time></trkpt><trkpt lat="43.0160883" lon="2.6343967"><ele>407.0</ele><time>2026-03-30T10:23:06.688Z</time></trkpt><trkpt lat="43.0161017" lon="2.634615"><ele>407.0</ele><time>2026-03-30T10:23:07.685Z</time></trkpt><trkpt lat="43.01612" lon="2.6348267"><ele>403.3333333333333</ele><time>2026-03-30T10:23:08.687Z</time></trkpt><trkpt lat="43.016165" lon="2.6350217"><ele>399.66666666666663</ele><time>2026-03-30T10:23:09.685Z</time></trkpt><trkpt lat="43.0162417" lon="2.6352"><ele>396.0</ele><time>2026-03-30T10:23:10.687Z</time></trkpt><trkpt lat="43.016345" lon="2.6353583"><ele>392.66666666666663</ele><time>2026-03-30T10:23:11.686Z</time></trkpt><trkpt lat="43.0164683" lon="2.635485"><ele>389.3333333333333</ele><time>2026-03-30T10:23:12.688Z</time></trkpt><trkpt lat="43.0166083" lon="2.6355767"><ele>386.0</ele><time>2026-03-30T10:23:13.685Z</time></trkpt><trkpt lat="43.01676" lon="2.635625"><ele>386.0</ele><time>2026-03-30T10:23:14.686Z</time></trkpt><trkpt lat="43.0169283" lon="2.63562"><ele>386.0</ele><time>2026-03-30T10:23:15.687Z</time></trkpt><trkpt lat="43.0170883" lon="2.6355867"><ele>386.0</ele><time>2026-03-30T10:23:16.687Z</time></trkpt><trkpt lat="43.0172417" lon="2.6355167"><ele>386.0</ele><time>2026-03-30T10:23:17.686Z</time></trkpt><trkpt lat="43.0173833" lon="2.6354283"><ele>386.0</ele><time>2026-03-30T10:23:18.687Z</time></trkpt><trkpt lat="43.01751" lon="2.6352817"><ele>386.0</ele><time>2026-03-30T10:23:19.686Z</time></trkpt><trkpt lat="43.0176317" lon="2.6351317"><ele>389.3333333333333</ele><time>2026-03-30T10:23:20.686Z</time></trkpt><trkpt lat="43.017755" lon="2.6350033"><ele>392.66666666666663</ele><time>2026-03-30T10:23:21.685Z</time></trkpt><trkpt lat="43.0178883" lon="2.6349067"><ele>396.0</ele><time>2026-03-30T10:23:22.686Z</time></trkpt><trkpt lat="43.018025" lon="2.63483"><ele>396.0</ele><time>2026-03-30T10:23:23.685Z</time></trkpt><trkpt lat="43.0181717" lon="2.634835"><ele>396.0</ele><time>2026-03-30T10:23:24.686Z</time></trkpt><trkpt lat="43.0183017" lon="2.6349083"><ele>396.0</ele><time>2026-03-30T10:23:25.685Z</time></trkpt><trkpt lat="43.018415" lon="2.6350333"><ele>396.0</ele><time>2026-03-30T10:23:26.687Z</time></trkpt><trkpt lat="43.0185167" lon="2.6351817"><ele>389.0</ele><time>2026-03-30T10:23:27.685Z</time></trkpt><trkpt lat="43.01862" lon="2.6353367"><ele>382.0</ele><time>2026-03-30T10:23:28.686Z</time></trkpt><trkpt lat="43.018725" lon="2.6354917"><ele>375.0</ele><time>2026-03-30T10:23:29.687Z</time></trkpt><trkpt lat="43.0188283" lon="2.6356483"><ele>375.0</ele><time>2026-03-30T10:23:30.686Z</time></trkpt><trkpt lat="43.0189233" lon="2.6357983"><ele>375.0</ele><time>2026-03-30T10:23:31.688Z</time></trkpt><trkpt lat="43.0190067" lon="2.6359533"><ele>375.0</ele><time>2026-03-30T10:23:32.686Z</time></trkpt><trkpt lat="43.0190633" lon="2.6361183"><ele>375.0</ele><time>2026-03-30T10:23:33.688Z</time></trkpt><trkpt lat="43.0190883" lon="2.6362967"><ele>374.25</ele><time>2026-03-30T10:23:34.686Z</time></trkpt><trkpt lat="43.0190733" lon="2.636475"><ele>373.5</ele><time>2026-03-30T10:23:35.686Z</time></trkpt><trkpt lat="43.0190317" lon="2.636645"><ele>372.75</ele><time>2026-03-30T10:23:36.688Z</time></trkpt><trkpt lat="43.0189767" lon="2.6367917"><ele>372.0</ele><time>2026-03-30T10:23:37.686Z</time></trkpt><trkpt lat="43.0189117" lon="2.63692"><ele>373.8</ele><time>2026-03-30T10:23:38.688Z</time></trkpt><trkpt lat="43.0188433" lon="2.6370383"><ele>375.6</ele><time>2026-03-30T10:23:39.687Z</time></trkpt><trkpt lat="43.01876" lon="2.6371067"><ele>377.40000000000003</ele><time>2026-03-30T10:23:40.685Z</time></trkpt><trkpt lat="43.01867" lon="2.6371517"><ele>379.20000000000005</ele><time>2026-03-30T10:23:41.687Z</time></trkpt><trkpt lat="43.0185683" lon="2.6371817"><ele>381.0</ele><time>2026-03-30T10:23:42.686Z</time></trkpt><trkpt lat="43.0184667" lon="2.63721"><ele>381.0</ele><time>2026-03-30T10:23:43.685Z</time></trkpt><trkpt lat="43.0183717" lon="2.6372617"><ele>381.0</ele><time>2026-03-30T10:23:44.686Z</time></trkpt><trkpt lat="43.0182967" lon="2.6373617"><ele>381.0</ele><time>2026-03-30T10:23:45.687Z</time></trkpt><trkpt lat="43.0182517" lon="2.637505"><ele>381.0</ele><time>2026-03-30T10:23:46.686Z</time></trkpt><trkpt lat="43.0182317" lon="2.63767"><ele>381.0</ele><time>2026-03-30T10:23:47.687Z</time></trkpt><trkpt lat="43.0182417" lon="2.6378433"><ele>380.4</ele><time>2026-03-30T10:23:48.688Z</time></trkpt><trkpt lat="43.0182717" lon="2.6380167"><ele>379.8</ele><time>2026-03-30T10:23:49.689Z</time></trkpt><trkpt lat="43.0183117" lon="2.6381733"><ele>379.2</ele><time>2026-03-30T10:23:50.687Z</time></trkpt><trkpt lat="43.0183767" lon="2.6382817"><ele>378.59999999999997</ele><time>2026-03-30T10:23:51.688Z</time></trkpt><trkpt lat="43.0184333" lon="2.63837"><ele>378.0</ele><time>2026-03-30T10:23:52.687Z</time></trkpt><trkpt lat="43.018485" lon="2.6384517"><ele>378.0</ele><time>2026-03-30T10:23:53.687Z</time></trkpt><trkpt lat="43.0185283" lon="2.6385183"><ele>378.0</ele><time>2026-03-30T10:23:54.686Z</time></trkpt><trkpt lat="43.01861" lon="2.6386333"><ele>378.0</ele><time>2026-03-30T10:23:56.686Z</time></trkpt><trkpt lat="43.0186867" lon="2.6387517"><ele>378.0</ele><time>2026-03-30T10:23:58.686Z</time></trkpt><trkpt lat="43.0187633" lon="2.6388683"><ele>378.0</ele><time>2026-03-30T10:24:00.685Z</time></trkpt><trkpt lat="43.018805" lon="2.63901"><ele>376.6666666666667</ele><time>2026-03-30T10:24:02.687Z</time></trkpt><trkpt lat="43.0188017" lon="2.6391733"><ele>375.3333333333333</ele><time>2026-03-30T10:24:04.687Z</time></trkpt><trkpt lat="43.0187883" lon="2.63926"><ele>374.0</ele><time>2026-03-30T10:24:05.689Z</time></trkpt><trkpt lat="43.0187617" lon="2.6394217"><ele>372.66666666666663</ele><time>2026-03-30T10:24:07.688Z</time></trkpt><trkpt lat="43.0187483" lon="2.6395117"><ele>371.3333333333333</ele><time>2026-03-30T10:24:08.685Z</time></trkpt><trkpt lat="43.0187367" lon="2.6395967"><ele>370.0</ele><time>2026-03-30T10:24:09.687Z</time></trkpt><trkpt lat="43.0187267" lon="2.6396833"><ele>367.8</ele><time>2026-03-30T10:24:10.686Z</time></trkpt><trkpt lat="43.0187133" lon="2.639845"><ele>365.6</ele><time>2026-03-30T10:24:12.686Z</time></trkpt><trkpt lat="43.0187" lon="2.63998"><ele>363.4</ele><time>2026-03-30T10:24:14.688Z</time></trkpt><trkpt lat="43.0187283" lon="2.640095"><ele>361.2</ele><time>2026-03-30T10:24:16.689Z</time></trkpt><trkpt lat="43.0187983" lon="2.6402"><ele>359.0</ele><time>2026-03-30T10:24:18.688Z</time></trkpt><trkpt lat="43.018865" lon="2.6402433"><ele>359.0</ele><time>2026-03-30T10:24:19.687Z</time></trkpt><trkpt lat="43.0189267" lon="2.6402883"><ele>359.0</ele><time>2026-03-30T10:24:20.687Z</time></trkpt><trkpt lat="43.0189967" lon="2.6403367"><ele>359.0</ele><time>2026-03-30T10:24:21.686Z</time></trkpt><trkpt lat="43.019065" lon="2.6403933"><ele>359.0</ele><time>2026-03-30T10:24:22.686Z</time></trkpt><trkpt lat="43.0191233" lon="2.6404567"><ele>359.0</ele><time>2026-03-30T10:24:23.689Z</time></trkpt><trkpt lat="43.0191683" lon="2.64053"><ele>359.0</ele><time>2026-03-30T10:24:24.691Z</time></trkpt><trkpt lat="43.0192017" lon="2.6406183"><ele>359.0</ele><time>2026-03-30T10:24:25.686Z</time></trkpt><trkpt lat="43.01921" lon="2.640705"><ele>356.25</ele><time>2026-03-30T10:24:26.687Z</time></trkpt><trkpt lat="43.0191583" lon="2.6408433"><ele>353.5</ele><time>2026-03-30T10:24:28.687Z</time></trkpt><trkpt lat="43.019085" lon="2.640965"><ele>350.75</ele><time>2026-03-30T10:24:30.685Z</time></trkpt><trkpt lat="43.0190033" lon="2.6410833"><ele>348.0</ele><time>2026-03-30T10:24:32.689Z</time></trkpt><trkpt lat="43.0189467" lon="2.64124"><ele>345.79999999999995</ele><time>2026-03-30T10:24:34.685Z</time></trkpt><trkpt lat="43.0189233" lon="2.6413883"><ele>343.6</ele><time>2026-03-30T10:24:36.686Z</time></trkpt><trkpt lat="43.018925" lon="2.641555"><ele>341.4</ele><time>2026-03-30T10:24:38.687Z</time></trkpt><trkpt lat="43.018915" lon="2.641645"><ele>339.20000000000005</ele><time>2026-03-30T10:24:39.686Z</time></trkpt><trkpt lat="43.0188967" lon="2.6417433"><ele>337.0</ele><time>2026-03-30T10:24:40.685Z</time></trkpt><trkpt lat="43.0188667" lon="2.6418467"><ele>337.0</ele><time>2026-03-30T10:24:41.686Z</time></trkpt><trkpt lat="43.0188233" lon="2.6419417"><ele>337.0</ele><time>2026-03-30T10:24:42.686Z</time></trkpt><trkpt lat="43.0187717" lon="2.64203"><ele>337.0</ele><time>2026-03-30T10:24:43.686Z</time></trkpt><trkpt lat="43.01872" lon="2.6421267"><ele>337.0</ele><time>2026-03-30T10:24:44.686Z</time></trkpt><trkpt lat="43.0186817" lon="2.6422217"><ele>337.0</ele><time>2026-03-30T10:24:45.685Z</time></trkpt><trkpt lat="43.0186567" lon="2.6423267"><ele>337.0</ele><time>2026-03-30T10:24:46.686Z</time></trkpt><trkpt lat="43.0186433" lon="2.6424367"><ele>336.0</ele><time>2026-03-30T10:24:47.685Z</time></trkpt><trkpt lat="43.01864" lon="2.642545"><ele>335.0</ele><time>2026-03-30T10:24:48.689Z</time></trkpt><trkpt lat="43.0186533" lon="2.642655"><ele>334.0</ele><time>2026-03-30T10:24:49.685Z</time></trkpt><trkpt lat="43.018655" lon="2.6427633"><ele>333.0</ele><time>2026-03-30T10:24:50.687Z</time></trkpt><trkpt lat="43.018645" lon="2.6428633"><ele>332.0</ele><time>2026-03-30T10:24:51.687Z</time></trkpt><trkpt lat="43.018625" lon="2.6429617"><ele>331.0</ele><time>2026-03-30T10:24:52.686Z</time></trkpt><trkpt lat="43.0186067" lon="2.643065"><ele>329.8333333333333</ele><time>2026-03-30T10:24:53.687Z</time></trkpt><trkpt lat="43.0185933" lon="2.64317"><ele>328.66666666666663</ele><time>2026-03-30T10:24:54.687Z</time></trkpt><trkpt lat="43.0185767" lon="2.643275"><ele>327.5</ele><time>2026-03-30T10:24:55.686Z</time></trkpt><trkpt lat="43.0185583" lon="2.6433833"><ele>326.3333333333333</ele><time>2026-03-30T10:24:56.691Z</time></trkpt><trkpt lat="43.01854" lon="2.6434933"><ele>325.1666666666667</ele><time>2026-03-30T10:24:57.685Z</time></trkpt><trkpt lat="43.018525" lon="2.6436"><ele>324.0</ele><time>2026-03-30T10:24:58.685Z</time></trkpt><trkpt lat="43.0185033" lon="2.64371"><ele>323.1666666666667</ele><time>2026-03-30T10:24:59.685Z</time></trkpt><trkpt lat="43.0184833" lon="2.6438267"><ele>322.3333333333333</ele><time>2026-03-30T10:25:00.687Z</time></trkpt><trkpt lat="43.0184583" lon="2.6439317"><ele>321.5</ele><time>2026-03-30T10:25:01.69Z</time></trkpt><trkpt lat="43.01843" lon="2.6440267"><ele>320.66666666666663</ele><time>2026-03-30T10:25:02.688Z</time></trkpt><trkpt lat="43.0183933" lon="2.6441133"><ele>319.8333333333333</ele><time>2026-03-30T10:25:03.688Z</time></trkpt><trkpt lat="43.018355" lon="2.6441983"><ele>319.0</ele><time>2026-03-30T10:25:04.685Z</time></trkpt><trkpt lat="43.018315" lon="2.644295"><ele>318.5</ele><time>2026-03-30T10:25:05.687Z</time></trkpt><trkpt lat="43.0183" lon="2.6443933"><ele>318.0</ele><time>2026-03-30T10:25:06.687Z</time></trkpt><trkpt lat="43.0182933" lon="2.6444817"><ele>317.5</ele><time>2026-03-30T10:25:07.687Z</time></trkpt><trkpt lat="43.0183017" lon="2.6445917"><ele>317.0</ele><time>2026-03-30T10:25:08.687Z</time></trkpt><trkpt lat="43.0183233" lon="2.6447167"><ele>316.5</ele><time>2026-03-30T10:25:09.688Z</time></trkpt><trkpt lat="43.01834" lon="2.644845"><ele>316.0</ele><time>2026-03-30T10:25:10.688Z</time></trkpt><trkpt lat="43.0183583" lon="2.6449617"><ele>316.0</ele><time>2026-03-30T10:25:11.688Z</time></trkpt><trkpt lat="43.0183733" lon="2.64508"><ele>316.0</ele><time>2026-03-30T10:25:12.689Z</time></trkpt><trkpt lat="43.01838" lon="2.645205"><ele>316.0</ele><time>2026-03-30T10:25:13.687Z</time></trkpt><trkpt lat="43.0183783" lon="2.6453233"><ele>316.0</ele><time>2026-03-30T10:25:14.689Z</time></trkpt><trkpt lat="43.01837" lon="2.6454617"><ele>316.0</ele><time>2026-03-30T10:25:15.688Z</time></trkpt><trkpt lat="43.01836" lon="2.6455833"><ele>315.40000000000003</ele><time>2026-03-30T10:25:16.687Z</time></trkpt><trkpt lat="43.01835" lon="2.6456967"><ele>314.8</ele><time>2026-03-30T10:25:17.686Z</time></trkpt><trkpt lat="43.0183367" lon="2.6457983"><ele>314.20000000000005</ele><time>2026-03-30T10:25:18.687Z</time></trkpt><trkpt lat="43.0183317" lon="2.6458967"><ele>313.6</ele><time>2026-03-30T10:25:19.687Z</time></trkpt><trkpt lat="43.01834" lon="2.6460583"><ele>313.0</ele><time>2026-03-30T10:25:21.685Z</time></trkpt><trkpt lat="43.01838" lon="2.6462117"><ele>312.2</ele><time>2026-03-30T10:25:23.687Z</time></trkpt><trkpt lat="43.0184317" lon="2.6463117"><ele>311.4</ele><time>2026-03-30T10:25:25.686Z</time></trkpt><trkpt lat="43.0185017" lon="2.6463317"><ele>310.59999999999997</ele><time>2026-03-30T10:25:27.686Z</time></trkpt><trkpt lat="43.0186133" lon="2.64632"><ele>309.8</ele><time>2026-03-30T10:25:29.688Z</time></trkpt><trkpt lat="43.0187317" lon="2.6463667"><ele>309.0</ele><time>2026-03-30T10:25:31.686Z</time></trkpt><trkpt lat="43.0188233" lon="2.6464483"><ele>309.0</ele><time>2026-03-30T10:25:33.685Z</time></trkpt><trkpt lat="43.0188967" lon="2.6465083"><ele>309.0</ele><time>2026-03-30T10:25:35.687Z</time></trkpt><trkpt lat="43.018985" lon="2.6464567"><ele>309.0</ele><time>2026-03-30T10:25:38.69Z</time></trkpt><trkpt lat="43.019045" lon="2.6463383"><ele>309.0</ele><time>2026-03-30T10:25:40.689Z</time></trkpt><trkpt lat="43.019125" lon="2.646225"><ele>309.0</ele><time>2026-03-30T10:25:42.685Z</time></trkpt><trkpt lat="43.0192383" lon="2.6461817"><ele>308.0</ele><time>2026-03-30T10:25:44.687Z</time></trkpt><trkpt lat="43.019335" lon="2.6460667"><ele>307.0</ele><time>2026-03-30T10:25:46.685Z</time></trkpt><trkpt lat="43.019385" lon="2.6459933"><ele>306.0</ele><time>2026-03-30T10:25:47.687Z</time></trkpt><trkpt lat="43.019475" lon="2.6459067"><ele>305.0</ele><time>2026-03-30T10:25:49.686Z</time></trkpt><trkpt lat="43.0195733" lon="2.6458917"><ele>304.0</ele><time>2026-03-30T10:25:51.685Z</time></trkpt><trkpt lat="43.0196867" lon="2.6458467"><ele>304.0</ele><time>2026-03-30T10:25:53.685Z</time></trkpt><trkpt lat="43.0197383" lon="2.64579"><ele>304.0</ele><time>2026-03-30T10:25:54.688Z</time></trkpt><trkpt lat="43.019795" lon="2.6457167"><ele>304.0</ele><time>2026-03-30T10:25:55.687Z</time></trkpt><trkpt lat="43.01985" lon="2.64565"><ele>304.0</ele><time>2026-03-30T10:25:56.687Z</time></trkpt><trkpt lat="43.019905" lon="2.6455983"><ele>304.0</ele><time>2026-03-30T10:25:57.691Z</time></trkpt><trkpt lat="43.01996" lon="2.6455533"><ele>304.0</ele><time>2026-03-30T10:25:58.69Z</time></trkpt><trkpt lat="43.0200267" lon="2.6455067"><ele>304.0</ele><time>2026-03-30T10:25:59.688Z</time></trkpt><trkpt lat="43.0201067" lon="2.6454483"><ele>303.0</ele><time>2026-03-30T10:26:00.692Z</time></trkpt><trkpt lat="43.0201833" lon="2.64539"><ele>302.0</ele><time>2026-03-30T10:26:01.688Z</time></trkpt><trkpt lat="43.020255" lon="2.6453383"><ele>301.0</ele><time>2026-03-30T10:26:02.685Z</time></trkpt><trkpt lat="43.020325" lon="2.645285"><ele>300.0</ele><time>2026-03-30T10:26:03.685Z</time></trkpt><trkpt lat="43.0204" lon="2.6452233"><ele>299.0</ele><time>2026-03-30T10:26:04.691Z</time></trkpt><trkpt lat="43.020475" lon="2.6451617"><ele>298.0</ele><time>2026-03-30T10:26:05.687Z</time></trkpt><trkpt lat="43.0205567" lon="2.6450983"><ele>298.0</ele><time>2026-03-30T10:26:06.687Z</time></trkpt><trkpt lat="43.0206367" lon="2.6450267"><ele>298.0</ele><time>2026-03-30T10:26:07.686Z</time></trkpt><trkpt lat="43.02071" lon="2.6449483"><ele>298.0</ele><time>2026-03-30T10:26:08.687Z</time></trkpt><trkpt lat="43.0207783" lon="2.6448833"><ele>298.0</ele><time>2026-03-30T10:26:09.685Z</time></trkpt><trkpt lat="43.0208433" lon="2.6448233"><ele>298.0</ele><time>2026-03-30T10:26:10.689Z</time></trkpt><trkpt lat="43.0209117" lon="2.644755"><ele>298.0</ele><time>2026-03-30T10:26:11.685Z</time></trkpt><trkpt lat="43.0209783" lon="2.644685"><ele>297.85714285714283</ele><time>2026-03-30T10:26:12.687Z</time></trkpt><trkpt lat="43.0210467" lon="2.6446233"><ele>297.71428571428567</ele><time>2026-03-30T10:26:13.685Z</time></trkpt><trkpt lat="43.0211033" lon="2.6445667"><ele>297.57142857142856</ele><time>2026-03-30T10:26:14.687Z</time></trkpt><trkpt lat="43.021155" lon="2.6445"><ele>297.42857142857144</ele><time>2026-03-30T10:26:15.687Z</time></trkpt><trkpt lat="43.02118" lon="2.6444183"><ele>297.28571428571433</ele><time>2026-03-30T10:26:16.685Z</time></trkpt><trkpt lat="43.0211967" lon="2.6443333"><ele>297.14285714285717</ele><time>2026-03-30T10:26:17.685Z</time></trkpt><trkpt lat="43.0212283" lon="2.6442467"><ele>297.0</ele><time>2026-03-30T10:26:18.684Z</time></trkpt><trkpt lat="43.0212767" lon="2.6441533"><ele>297.0</ele><time>2026-03-30T10:26:19.686Z</time></trkpt><trkpt lat="43.0213483" lon="2.644065"><ele>297.0</ele><time>2026-03-30T10:26:20.687Z</time></trkpt><trkpt lat="43.02143" lon="2.6439783"><ele>297.0</ele><time>2026-03-30T10:26:21.684Z</time></trkpt><trkpt lat="43.021545" lon="2.6439083"><ele>297.0</ele><time>2026-03-30T10:26:22.687Z</time></trkpt><trkpt lat="43.0216683" lon="2.64385"><ele>296.75</ele><time>2026-03-30T10:26:23.684Z</time></trkpt><trkpt lat="43.021795" lon="2.6437783"><ele>296.5</ele><time>2026-03-30T10:26:24.684Z</time></trkpt><trkpt lat="43.0219233" lon="2.6437083"><ele>296.25</ele><time>2026-03-30T10:26:25.686Z</time></trkpt><trkpt lat="43.02205" lon="2.6436533"><ele>296.0</ele><time>2026-03-30T10:26:26.686Z</time></trkpt><trkpt lat="43.022175" lon="2.6436083"><ele>298.25</ele><time>2026-03-30T10:26:27.686Z</time></trkpt><trkpt lat="43.0223017" lon="2.643565"><ele>300.5</ele><time>2026-03-30T10:26:28.687Z</time></trkpt><trkpt lat="43.0224183" lon="2.643525"><ele>302.75</ele><time>2026-03-30T10:26:29.688Z</time></trkpt><trkpt lat="43.0225233" lon="2.64349"><ele>305.0</ele><time>2026-03-30T10:26:30.685Z</time></trkpt><trkpt lat="43.02262" lon="2.6434567"><ele>305.0</ele><time>2026-03-30T10:26:31.687Z</time></trkpt><trkpt lat="43.0227033" lon="2.6434233"><ele>305.0</ele><time>2026-03-30T10:26:32.686Z</time></trkpt><trkpt lat="43.0227783" lon="2.64338"><ele>305.0</ele><time>2026-03-30T10:26:33.686Z</time></trkpt><trkpt lat="43.02285" lon="2.6433033"><ele>305.0</ele><time>2026-03-30T10:26:34.686Z</time></trkpt><trkpt lat="43.0229133" lon="2.643215"><ele>305.0</ele><time>2026-03-30T10:26:35.685Z</time></trkpt><trkpt lat="43.0229567" lon="2.64314"><ele>305.0</ele><time>2026-03-30T10:26:36.686Z</time></trkpt><trkpt lat="43.022965" lon="2.6430083"><ele>305.0</ele><time>2026-03-30T10:26:38.688Z</time></trkpt><trkpt lat="43.0229267" lon="2.6429383"><ele>305.0</ele><time>2026-03-30T10:26:39.687Z</time></trkpt><trkpt lat="43.02286" lon="2.6428767"><ele>305.0</ele><time>2026-03-30T10:26:40.688Z</time></trkpt><trkpt lat="43.0228" lon="2.6428333"><ele>305.0</ele><time>2026-03-30T10:26:41.687Z</time></trkpt><trkpt lat="43.02274" lon="2.642805"><ele>305.0</ele><time>2026-03-30T10:26:42.686Z</time></trkpt><trkpt lat="43.02266" lon="2.6427583"><ele>305.0</ele><time>2026-03-30T10:26:44.686Z</time></trkpt><trkpt lat="43.022725" lon="2.642765"><ele>305.0</ele><time>2026-03-30T10:26:46.685Z</time></trkpt><trkpt lat="43.0227883" lon="2.64281"><ele>305.0</ele><time>2026-03-30T10:26:47.687Z</time></trkpt><trkpt lat="43.0228567" lon="2.6428683"><ele>305.0</ele><time>2026-03-30T10:26:48.687Z</time></trkpt><trkpt lat="43.0229333" lon="2.64294"><ele>305.0</ele><time>2026-03-30T10:26:49.684Z</time></trkpt><trkpt lat="43.0230183" lon="2.6430183"><ele>305.0</ele><time>2026-03-30T10:26:50.687Z</time></trkpt><trkpt lat="43.0230933" lon="2.643095"><ele>305.0</ele><time>2026-03-30T10:26:51.685Z</time></trkpt><trkpt lat="43.0231683" lon="2.64317"><ele>305.0</ele><time>2026-03-30T10:26:52.685Z</time></trkpt><trkpt lat="43.0232367" lon="2.6432383"><ele>305.0</ele><time>2026-03-30T10:26:53.686Z</time></trkpt><trkpt lat="43.0233" lon="2.643295"><ele>305.0</ele><time>2026-03-30T10:26:54.685Z</time></trkpt><trkpt lat="43.0233733" lon="2.643315"><ele>305.0</ele><time>2026-03-30T10:26:55.684Z</time></trkpt><trkpt lat="43.0234533" lon="2.64332"><ele>305.0</ele><time>2026-03-30T10:26:56.689Z</time></trkpt><trkpt lat="43.02353" lon="2.6433283"><ele>305.0</ele><time>2026-03-30T10:26:57.686Z</time></trkpt><trkpt lat="43.0236367" lon="2.643345"><ele>303.75</ele><time>2026-03-30T10:26:58.688Z</time></trkpt><trkpt lat="43.0237517" lon="2.643395"><ele>302.5</ele><time>2026-03-30T10:26:59.687Z</time></trkpt><trkpt lat="43.0238617" lon="2.6434567"><ele>301.25</ele><time>2026-03-30T10:27:00.687Z</time></trkpt><trkpt lat="43.0239633" lon="2.64353"><ele>300.0</ele><time>2026-03-30T10:27:01.685Z</time></trkpt><trkpt lat="43.024045" lon="2.6436067"><ele>299.1666666666667</ele><time>2026-03-30T10:27:02.685Z</time></trkpt><trkpt lat="43.0241167" lon="2.6436783"><ele>298.3333333333333</ele><time>2026-03-30T10:27:03.686Z</time></trkpt><trkpt lat="43.02419" lon="2.6437367"><ele>297.5</ele><time>2026-03-30T10:27:04.684Z</time></trkpt><trkpt lat="43.0242667" lon="2.6437633"><ele>296.66666666666663</ele><time>2026-03-30T10:27:05.685Z</time></trkpt><trkpt lat="43.0243433" lon="2.6437667"><ele>295.8333333333333</ele><time>2026-03-30T10:27:06.686Z</time></trkpt><trkpt lat="43.0244433" lon="2.6437733"><ele>295.0</ele><time>2026-03-30T10:27:07.685Z</time></trkpt><trkpt lat="43.0245533" lon="2.6437933"><ele>293.0</ele><time>2026-03-30T10:27:08.686Z</time></trkpt><trkpt lat="43.02467" lon="2.643825"><ele>291.0</ele><time>2026-03-30T10:27:09.685Z</time></trkpt><trkpt lat="43.0247883" lon="2.6438683"><ele>289.0</ele><time>2026-03-30T10:27:10.685Z</time></trkpt><trkpt lat="43.024905" lon="2.6439167"><ele>287.0</ele><time>2026-03-30T10:27:11.686Z</time></trkpt><trkpt lat="43.0250133" lon="2.6439767"><ele>286.4</ele><time>2026-03-30T10:27:12.685Z</time></trkpt><trkpt lat="43.0251183" lon="2.64404"><ele>285.79999999999995</ele><time>2026-03-30T10:27:13.684Z</time></trkpt><trkpt lat="43.0252133" lon="2.6440967"><ele>285.2</ele><time>2026-03-30T10:27:14.685Z</time></trkpt><trkpt lat="43.0253033" lon="2.6441467"><ele>284.59999999999997</ele><time>2026-03-30T10:27:15.685Z</time></trkpt><trkpt lat="43.0253867" lon="2.64418"><ele>284.0</ele><time>2026-03-30T10:27:16.685Z</time></trkpt><trkpt lat="43.0254683" lon="2.6442067"><ele>284.0</ele><time>2026-03-30T10:27:17.686Z</time></trkpt><trkpt lat="43.0255467" lon="2.644235"><ele>284.0</ele><time>2026-03-30T10:27:18.685Z</time></trkpt><trkpt lat="43.0256217" lon="2.6442467"><ele>284.0</ele><time>2026-03-30T10:27:19.689Z</time></trkpt><trkpt lat="43.0257117" lon="2.64422"><ele>284.0</ele><time>2026-03-30T10:27:21.686Z</time></trkpt><trkpt lat="43.0257517" lon="2.6441233"><ele>284.0</ele><time>2026-03-30T10:27:23.687Z</time></trkpt><trkpt lat="43.0257483" lon="2.6439967"><ele>284.0</ele><time>2026-03-30T10:27:24.686Z</time></trkpt><trkpt lat="43.025755" lon="2.6438717"><ele>284.0</ele><time>2026-03-30T10:27:25.687Z</time></trkpt><trkpt lat="43.0257667" lon="2.64375"><ele>284.0</ele><time>2026-03-30T10:27:26.685Z</time></trkpt><trkpt lat="43.025775" lon="2.6436367"><ele>284.0</ele><time>2026-03-30T10:27:27.685Z</time></trkpt><trkpt lat="43.02577" lon="2.64352"><ele>284.0</ele><time>2026-03-30T10:27:28.686Z</time></trkpt><trkpt lat="43.0257533" lon="2.6434067"><ele>284.0</ele><time>2026-03-30T10:27:29.687Z</time></trkpt><trkpt lat="43.0257117" lon="2.64329"><ele>284.0</ele><time>2026-03-30T10:27:30.685Z</time></trkpt><trkpt lat="43.02565" lon="2.643175"><ele>284.2</ele><time>2026-03-30T10:27:31.685Z</time></trkpt><trkpt lat="43.0255783" lon="2.6430717"><ele>284.4</ele><time>2026-03-30T10:27:32.685Z</time></trkpt><trkpt lat="43.0254983" lon="2.6429983"><ele>284.6</ele><time>2026-03-30T10:27:33.686Z</time></trkpt><trkpt lat="43.02541" lon="2.6429533"><ele>284.8</ele><time>2026-03-30T10:27:34.687Z</time></trkpt><trkpt lat="43.0253167" lon="2.6429383"><ele>285.0</ele><time>2026-03-30T10:27:35.686Z</time></trkpt><trkpt lat="43.0252367" lon="2.642925"><ele>285.0</ele><time>2026-03-30T10:27:36.685Z</time></trkpt><trkpt lat="43.0251683" lon="2.6428983"><ele>285.0</ele><time>2026-03-30T10:27:37.684Z</time></trkpt><trkpt lat="43.025105" lon="2.6428667"><ele>285.0</ele><time>2026-03-30T10:27:38.687Z</time></trkpt><trkpt lat="43.0250783" lon="2.6427317"><ele>285.0</ele><time>2026-03-30T10:27:40.685Z</time></trkpt><trkpt lat="43.0250967" lon="2.6426267"><ele>285.0</ele><time>2026-03-30T10:27:41.685Z</time></trkpt><trkpt lat="43.0251317" lon="2.6424983"><ele>285.0</ele><time>2026-03-30T10:27:42.685Z</time></trkpt><trkpt lat="43.0251533" lon="2.6423833"><ele>285.0</ele><time>2026-03-30T10:27:43.684Z</time></trkpt><trkpt lat="43.0251683" lon="2.6422783"><ele>285.0</ele><time>2026-03-30T10:27:44.689Z</time></trkpt><trkpt lat="43.025195" lon="2.642195"><ele>285.0</ele><time>2026-03-30T10:27:45.685Z</time></trkpt><trkpt lat="43.0252467" lon="2.6420483"><ele>285.0</ele><time>2026-03-30T10:27:47.685Z</time></trkpt><trkpt lat="43.0252683" lon="2.6419483"><ele>285.0</ele><time>2026-03-30T10:27:48.687Z</time></trkpt><trkpt lat="43.0252833" lon="2.641825"><ele>285.0</ele><time>2026-03-30T10:27:49.685Z</time></trkpt><trkpt lat="43.0253083" lon="2.6417033"><ele>285.0</ele><time>2026-03-30T10:27:50.687Z</time></trkpt><trkpt lat="43.02535" lon="2.6416033"><ele>285.0</ele><time>2026-03-30T10:27:51.686Z</time></trkpt><trkpt lat="43.0254117" lon="2.6415417"><ele>285.0</ele><time>2026-03-30T10:27:52.685Z</time></trkpt><trkpt lat="43.0254883" lon="2.641505"><ele>285.0</ele><time>2026-03-30T10:27:53.686Z</time></trkpt><trkpt lat="43.025575" lon="2.6414917"><ele>285.0</ele><time>2026-03-30T10:27:54.686Z</time></trkpt><trkpt lat="43.02568" lon="2.6415117"><ele>285.0</ele><time>2026-03-30T10:27:55.684Z</time></trkpt><trkpt lat="43.02577" lon="2.6415333"><ele>283.2</ele><time>2026-03-30T10:27:56.685Z</time></trkpt><trkpt lat="43.0258583" lon="2.6415367"><ele>281.4</ele><time>2026-03-30T10:27:57.687Z</time></trkpt><trkpt lat="43.025945" lon="2.6415167"><ele>279.6</ele><time>2026-03-30T10:27:58.685Z</time></trkpt><trkpt lat="43.026025" lon="2.6414733"><ele>277.8</ele><time>2026-03-30T10:27:59.686Z</time></trkpt><trkpt lat="43.026115" lon="2.641405"><ele>276.0</ele><time>2026-03-30T10:28:00.686Z</time></trkpt><trkpt lat="43.0262117" lon="2.6413383"><ele>276.0</ele><time>2026-03-30T10:28:01.685Z</time></trkpt><trkpt lat="43.0263233" lon="2.6412783"><ele>276.0</ele><time>2026-03-30T10:28:02.686Z</time></trkpt><trkpt lat="43.0264267" lon="2.6412317"><ele>276.0</ele><time>2026-03-30T10:28:03.684Z</time></trkpt><trkpt lat="43.02651" lon="2.6412017"><ele>276.0</ele><time>2026-03-30T10:28:04.685Z</time></trkpt><trkpt lat="43.0265817" lon="2.6411983"><ele>276.0</ele><time>2026-03-30T10:28:05.686Z</time></trkpt><trkpt lat="43.026645" lon="2.64123"><ele>275.6666666666667</ele><time>2026-03-30T10:28:06.687Z</time></trkpt><trkpt lat="43.02671" lon="2.6412933"><ele>275.3333333333333</ele><time>2026-03-30T10:28:07.685Z</time></trkpt><trkpt lat="43.02678" lon="2.641365"><ele>275.0</ele><time>2026-03-30T10:28:08.685Z</time></trkpt><trkpt lat="43.0268633" lon="2.641425"><ele>274.66666666666663</ele><time>2026-03-30T10:28:09.685Z</time></trkpt><trkpt lat="43.02695" lon="2.641445"><ele>274.3333333333333</ele><time>2026-03-30T10:28:10.684Z</time></trkpt><trkpt lat="43.0270367" lon="2.6414417"><ele>274.0</ele><time>2026-03-30T10:28:11.684Z</time></trkpt><trkpt lat="43.0271267" lon="2.6413733"><ele>274.0</ele><time>2026-03-30T10:28:12.684Z</time></trkpt><trkpt lat="43.027205" lon="2.6412933"><ele>274.0</ele><time>2026-03-30T10:28:13.685Z</time></trkpt><trkpt lat="43.0272667" lon="2.6412117"><ele>274.0</ele><time>2026-03-30T10:28:14.686Z</time></trkpt><trkpt lat="43.0273183" lon="2.6411417"><ele>274.0</ele><time>2026-03-30T10:28:15.685Z</time></trkpt><trkpt lat="43.0273717" lon="2.64109"><ele>274.0</ele><time>2026-03-30T10:28:16.685Z</time></trkpt><trkpt lat="43.027435" lon="2.641065"><ele>274.0</ele><time>2026-03-30T10:28:17.684Z</time></trkpt><trkpt lat="43.02751" lon="2.6410683"><ele>274.2</ele><time>2026-03-30T10:28:18.686Z</time></trkpt><trkpt lat="43.0275883" lon="2.6411133"><ele>274.4</ele><time>2026-03-30T10:28:19.685Z</time></trkpt><trkpt lat="43.02767" lon="2.641185"><ele>274.6</ele><time>2026-03-30T10:28:20.687Z</time></trkpt><trkpt lat="43.0277533" lon="2.6412717"><ele>274.8</ele><time>2026-03-30T10:28:21.685Z</time></trkpt><trkpt lat="43.0278383" lon="2.6413533"><ele>275.0</ele><time>2026-03-30T10:28:22.685Z</time></trkpt><trkpt lat="43.0279233" lon="2.6414167"><ele>274.33333333333337</ele><time>2026-03-30T10:28:23.688Z</time></trkpt><trkpt lat="43.0279933" lon="2.6414817"><ele>273.6666666666667</ele><time>2026-03-30T10:28:24.685Z</time></trkpt><trkpt lat="43.0280517" lon="2.6415617"><ele>273.0</ele><time>2026-03-30T10:28:25.685Z</time></trkpt><trkpt lat="43.028105" lon="2.6416783"><ele>272.3333333333333</ele><time>2026-03-30T10:28:26.687Z</time></trkpt><trkpt lat="43.0281583" lon="2.6417833"><ele>271.66666666666663</ele><time>2026-03-30T10:28:27.686Z</time></trkpt><trkpt lat="43.0282083" lon="2.6418817"><ele>271.0</ele><time>2026-03-30T10:28:28.684Z</time></trkpt><trkpt lat="43.0282617" lon="2.6419633"><ele>270.8333333333333</ele><time>2026-03-30T10:28:29.69Z</time></trkpt><trkpt lat="43.0283183" lon="2.6420283"><ele>270.66666666666663</ele><time>2026-03-30T10:28:30.684Z</time></trkpt><trkpt lat="43.0284033" lon="2.6421133"><ele>270.5</ele><time>2026-03-30T10:28:32.686Z</time></trkpt><trkpt lat="43.028365" lon="2.642245"><ele>270.3333333333333</ele><time>2026-03-30T10:28:34.684Z</time></trkpt><trkpt lat="43.0283083" lon="2.64231"><ele>270.1666666666667</ele><time>2026-03-30T10:28:35.685Z</time></trkpt><trkpt lat="43.0282517" lon="2.6423783"><ele>270.0</ele><time>2026-03-30T10:28:36.686Z</time></trkpt><trkpt lat="43.0282117" lon="2.64248"><ele>270.0</ele><time>2026-03-30T10:28:37.685Z</time></trkpt><trkpt lat="43.0281817" lon="2.6426017"><ele>270.0</ele><time>2026-03-30T10:28:38.686Z</time></trkpt><trkpt lat="43.028175" lon="2.6427717"><ele>270.0</ele><time>2026-03-30T10:28:39.684Z</time></trkpt><trkpt lat="43.0281583" lon="2.64294"><ele>270.0</ele><time>2026-03-30T10:28:40.686Z</time></trkpt><trkpt lat="43.0281367" lon="2.643095"><ele>269.0</ele><time>2026-03-30T10:28:41.688Z</time></trkpt><trkpt lat="43.0281233" lon="2.6432533"><ele>268.0</ele><time>2026-03-30T10:28:42.686Z</time></trkpt><trkpt lat="43.028125" lon="2.6434083"><ele>267.0</ele><time>2026-03-30T10:28:43.687Z</time></trkpt><trkpt lat="43.02814" lon="2.6435483"><ele>266.0</ele><time>2026-03-30T10:28:44.685Z</time></trkpt><trkpt lat="43.028175" lon="2.6436683"><ele>265.0</ele><time>2026-03-30T10:28:45.684Z</time></trkpt><trkpt lat="43.02824" lon="2.6437833"><ele>265.25</ele><time>2026-03-30T10:28:46.686Z</time></trkpt><trkpt lat="43.02832" lon="2.643905"><ele>265.5</ele><time>2026-03-30T10:28:47.684Z</time></trkpt><trkpt lat="43.028405" lon="2.6440283"><ele>265.75</ele><time>2026-03-30T10:28:48.687Z</time></trkpt><trkpt lat="43.0284817" lon="2.6441483"><ele>266.0</ele><time>2026-03-30T10:28:49.686Z</time></trkpt><trkpt lat="43.028545" lon="2.64427"><ele>266.0</ele><time>2026-03-30T10:28:50.686Z</time></trkpt><trkpt lat="43.0285917" lon="2.6443983"><ele>266.0</ele><time>2026-03-30T10:28:51.686Z</time></trkpt><trkpt lat="43.0286167" lon="2.6445433"><ele>266.0</ele><time>2026-03-30T10:28:52.687Z</time></trkpt><trkpt lat="43.0286233" lon="2.6447033"><ele>266.0</ele><time>2026-03-30T10:28:53.685Z</time></trkpt><trkpt lat="43.02863" lon="2.6448633"><ele>266.0</ele><time>2026-03-30T10:28:54.687Z</time></trkpt><trkpt lat="43.0286317" lon="2.645015"><ele>265.8</ele><time>2026-03-30T10:28:55.693Z</time></trkpt><trkpt lat="43.028615" lon="2.64515"><ele>265.6</ele><time>2026-03-30T10:28:56.685Z</time></trkpt><trkpt lat="43.0286033" lon="2.6452733"><ele>265.4</ele><time>2026-03-30T10:28:57.687Z</time></trkpt><trkpt lat="43.0286017" lon="2.6454"><ele>265.2</ele><time>2026-03-30T10:28:58.684Z</time></trkpt><trkpt lat="43.0286167" lon="2.6455283"><ele>265.0</ele><time>2026-03-30T10:28:59.685Z</time></trkpt><trkpt lat="43.0286433" lon="2.64565"><ele>264.0</ele><time>2026-03-30T10:29:00.684Z</time></trkpt><trkpt lat="43.0286867" lon="2.6457617"><ele>263.0</ele><time>2026-03-30T10:29:01.686Z</time></trkpt><trkpt lat="43.0287533" lon="2.64586"><ele>262.0</ele><time>2026-03-30T10:29:02.684Z</time></trkpt><trkpt lat="43.02883" lon="2.6459483"><ele>261.0</ele><time>2026-03-30T10:29:03.685Z</time></trkpt><trkpt lat="43.0289" lon="2.64604"><ele>260.0</ele><time>2026-03-30T10:29:04.684Z</time></trkpt><trkpt lat="43.02894" lon="2.6461483"><ele>258.8</ele><time>2026-03-30T10:29:05.684Z</time></trkpt><trkpt lat="43.02897" lon="2.6462767"><ele>257.6</ele><time>2026-03-30T10:29:06.686Z</time></trkpt><trkpt lat="43.0289867" lon="2.6464233"><ele>256.4</ele><time>2026-03-30T10:29:07.685Z</time></trkpt><trkpt lat="43.0289883" lon="2.64657"><ele>255.2</ele><time>2026-03-30T10:29:08.687Z</time></trkpt><trkpt lat="43.02899" lon="2.6467083"><ele>254.0</ele><time>2026-03-30T10:29:09.685Z</time></trkpt><trkpt lat="43.0289967" lon="2.6468383"><ele>254.0</ele><time>2026-03-30T10:29:10.685Z</time></trkpt><trkpt lat="43.0290083" lon="2.6469583"><ele>253.99999999999997</ele><time>2026-03-30T10:29:11.686Z</time></trkpt><trkpt lat="43.02901" lon="2.647065"><ele>253.99999999999997</ele><time>2026-03-30T10:29:12.684Z</time></trkpt><trkpt lat="43.0290117" lon="2.647165"><ele>254.0</ele><time>2026-03-30T10:29:13.687Z</time></trkpt><trkpt lat="43.0290167" lon="2.6472767"><ele>254.0</ele><time>2026-03-30T10:29:14.688Z</time></trkpt><trkpt lat="43.0290683" lon="2.647745"><ele>254.5</ele><time>2026-03-30T10:29:17.685Z</time></trkpt><trkpt lat="43.029095" lon="2.6479333"><ele>255.0</ele><time>2026-03-30T10:29:18.689Z</time></trkpt><trkpt lat="43.0291383" lon="2.64812"><ele>255.5</ele><time>2026-03-30T10:29:19.686Z</time></trkpt><trkpt lat="43.0291833" lon="2.6483033"><ele>256.0</ele><time>2026-03-30T10:29:20.687Z</time></trkpt><trkpt lat="43.029215" lon="2.64848"><ele>254.0</ele><time>2026-03-30T10:29:21.686Z</time></trkpt><trkpt lat="43.02923" lon="2.648675"><ele>252.0</ele><time>2026-03-30T10:29:22.685Z</time></trkpt><trkpt lat="43.0292483" lon="2.6488667"><ele>250.0</ele><time>2026-03-30T10:29:23.685Z</time></trkpt><trkpt lat="43.0292733" lon="2.6490567"><ele>248.0</ele><time>2026-03-30T10:29:24.686Z</time></trkpt><trkpt lat="43.0293" lon="2.649235"><ele>248.0</ele><time>2026-03-30T10:29:25.685Z</time></trkpt><trkpt lat="43.02932" lon="2.649405"><ele>248.0</ele><time>2026-03-30T10:29:26.686Z</time></trkpt><trkpt lat="43.0293233" lon="2.64956"><ele>248.0</ele><time>2026-03-30T10:29:27.684Z</time></trkpt><trkpt lat="43.0293167" lon="2.6497"><ele>248.0</ele><time>2026-03-30T10:29:28.685Z</time></trkpt><trkpt lat="43.02931" lon="2.6498283"><ele>248.0</ele><time>2026-03-30T10:29:29.684Z</time></trkpt><trkpt lat="43.0293133" lon="2.6499567"><ele>248.33333333333334</ele><time>2026-03-30T10:29:30.685Z</time></trkpt><trkpt lat="43.0293283" lon="2.6500967"><ele>248.66666666666669</ele><time>2026-03-30T10:29:31.685Z</time></trkpt><trkpt lat="43.0293617" lon="2.65023"><ele>249.0</ele><time>2026-03-30T10:29:32.684Z</time></trkpt><trkpt lat="43.0293917" lon="2.6503533"><ele>249.33333333333331</ele><time>2026-03-30T10:29:33.687Z</time></trkpt><trkpt lat="43.02941" lon="2.6504583"><ele>249.66666666666666</ele><time>2026-03-30T10:29:34.685Z</time></trkpt><trkpt lat="43.0294133" lon="2.650545"><ele>250.0</ele><time>2026-03-30T10:29:35.684Z</time></trkpt><trkpt lat="43.0293267" lon="2.6507033"><ele>250.0</ele><time>2026-03-30T10:29:37.685Z</time></trkpt><trkpt lat="43.0292583" lon="2.6507967"><ele>250.0</ele><time>2026-03-30T10:29:38.685Z</time></trkpt><trkpt lat="43.0291767" lon="2.6509033"><ele>250.0</ele><time>2026-03-30T10:29:39.684Z</time></trkpt><trkpt lat="43.029095" lon="2.6510183"><ele>250.0</ele><time>2026-03-30T10:29:40.685Z</time></trkpt><trkpt lat="43.0290283" lon="2.6511533"><ele>250.0</ele><time>2026-03-30T10:29:41.686Z</time></trkpt><trkpt lat="43.0289667" lon="2.6513067"><ele>246.75</ele><time>2026-03-30T10:29:42.686Z</time></trkpt><trkpt lat="43.0289117" lon="2.651455"><ele>243.5</ele><time>2026-03-30T10:29:43.684Z</time></trkpt><trkpt lat="43.02886" lon="2.6516017"><ele>240.25</ele><time>2026-03-30T10:29:44.689Z</time></trkpt><trkpt lat="43.028805" lon="2.6517367"><ele>237.0</ele><time>2026-03-30T10:29:45.684Z</time></trkpt><trkpt lat="43.0287417" lon="2.6518683"><ele>237.25</ele><time>2026-03-30T10:29:46.685Z</time></trkpt><trkpt lat="43.0286783" lon="2.65201"><ele>237.5</ele><time>2026-03-30T10:29:47.688Z</time></trkpt><trkpt lat="43.0286233" lon="2.65216"><ele>237.75</ele><time>2026-03-30T10:29:48.687Z</time></trkpt><trkpt lat="43.0285767" lon="2.6523133"><ele>238.0</ele><time>2026-03-30T10:29:49.685Z</time></trkpt><trkpt lat="43.0285483" lon="2.652475"><ele>238.0</ele><time>2026-03-30T10:29:50.687Z</time></trkpt><trkpt lat="43.0285283" lon="2.652645"><ele>238.0</ele><time>2026-03-30T10:29:51.685Z</time></trkpt><trkpt lat="43.028515" lon="2.6528217"><ele>238.0</ele><time>2026-03-30T10:29:52.687Z</time></trkpt><trkpt lat="43.0285" lon="2.6529933"><ele>238.0</ele><time>2026-03-30T10:29:53.688Z</time></trkpt><trkpt lat="43.0284817" lon="2.6531567"><ele>238.5</ele><time>2026-03-30T10:29:54.684Z</time></trkpt><trkpt lat="43.0284567" lon="2.6533133"><ele>239.0</ele><time>2026-03-30T10:29:55.686Z</time></trkpt><trkpt lat="43.02842" lon="2.653475"><ele>239.5</ele><time>2026-03-30T10:29:56.685Z</time></trkpt><trkpt lat="43.0283833" lon="2.6536383"><ele>240.0</ele><time>2026-03-30T10:29:57.687Z</time></trkpt><trkpt lat="43.028355" lon="2.6538017"><ele>240.0</ele><time>2026-03-30T10:29:58.685Z</time></trkpt><trkpt lat="43.02833" lon="2.6539567"><ele>240.0</ele><time>2026-03-30T10:29:59.686Z</time></trkpt><trkpt lat="43.0283117" lon="2.65411"><ele>240.0</ele><time>2026-03-30T10:30:00.686Z</time></trkpt><trkpt lat="43.0283067" lon="2.6542633"><ele>240.0</ele><time>2026-03-30T10:30:01.685Z</time></trkpt><trkpt lat="43.0283233" lon="2.6544217"><ele>240.0</ele><time>2026-03-30T10:30:02.687Z</time></trkpt><trkpt lat="43.028355" lon="2.654575"><ele>240.0</ele><time>2026-03-30T10:30:03.687Z</time></trkpt><trkpt lat="43.028395" lon="2.654715"><ele>240.0</ele><time>2026-03-30T10:30:04.686Z</time></trkpt><trkpt lat="43.0284433" lon="2.6548417"><ele>240.0</ele><time>2026-03-30T10:30:05.685Z</time></trkpt><trkpt lat="43.028505" lon="2.6549567"><ele>240.0</ele><time>2026-03-30T10:30:06.686Z</time></trkpt><trkpt lat="43.0285717" lon="2.6550633"><ele>240.0</ele><time>2026-03-30T10:30:07.686Z</time></trkpt><trkpt lat="43.028635" lon="2.655165"><ele>240.0</ele><time>2026-03-30T10:30:08.688Z</time></trkpt><trkpt lat="43.02868" lon="2.655265"><ele>240.0</ele><time>2026-03-30T10:30:09.687Z</time></trkpt><trkpt lat="43.0287033" lon="2.6553683"><ele>240.0</ele><time>2026-03-30T10:30:10.685Z</time></trkpt><trkpt lat="43.0286983" lon="2.6554883"><ele>240.0</ele><time>2026-03-30T10:30:11.684Z</time></trkpt><trkpt lat="43.02867" lon="2.655605"><ele>240.0</ele><time>2026-03-30T10:30:12.687Z</time></trkpt><trkpt lat="43.0286383" lon="2.65571"><ele>238.83333333333334</ele><time>2026-03-30T10:30:13.684Z</time></trkpt><trkpt lat="43.0286233" lon="2.6558067"><ele>237.66666666666669</ele><time>2026-03-30T10:30:14.686Z</time></trkpt><trkpt lat="43.0286217" lon="2.6559483"><ele>236.5</ele><time>2026-03-30T10:30:16.684Z</time></trkpt><trkpt lat="43.0286883" lon="2.656015"><ele>235.33333333333334</ele><time>2026-03-30T10:30:18.684Z</time></trkpt><trkpt lat="43.0287533" lon="2.65602"><ele>234.16666666666669</ele><time>2026-03-30T10:30:19.685Z</time></trkpt><trkpt lat="43.0288233" lon="2.656025"><ele>233.0</ele><time>2026-03-30T10:30:20.686Z</time></trkpt><trkpt lat="43.0289267" lon="2.6560483"><ele>233.0</ele><time>2026-03-30T10:30:21.685Z</time></trkpt><trkpt lat="43.0290367" lon="2.656085"><ele>233.0</ele><time>2026-03-30T10:30:22.686Z</time></trkpt><trkpt lat="43.0291567" lon="2.6561267"><ele>233.0</ele><time>2026-03-30T10:30:23.685Z</time></trkpt><trkpt lat="43.02928" lon="2.6561717"><ele>233.0</ele><time>2026-03-30T10:30:24.685Z</time></trkpt><trkpt lat="43.0294017" lon="2.6562133"><ele>233.5</ele><time>2026-03-30T10:30:25.685Z</time></trkpt><trkpt lat="43.0295267" lon="2.6562517"><ele>234.0</ele><time>2026-03-30T10:30:26.684Z</time></trkpt><trkpt lat="43.02965" lon="2.6562917"><ele>234.5</ele><time>2026-03-30T10:30:27.685Z</time></trkpt><trkpt lat="43.0297767" lon="2.656335"><ele>235.0</ele><time>2026-03-30T10:30:28.685Z</time></trkpt><trkpt lat="43.0299033" lon="2.65638"><ele>233.75</ele><time>2026-03-30T10:30:29.686Z</time></trkpt><trkpt lat="43.030025" lon="2.6564267"><ele>232.5</ele><time>2026-03-30T10:30:30.687Z</time></trkpt><trkpt lat="43.030145" lon="2.6564617"><ele>231.25</ele><time>2026-03-30T10:30:31.684Z</time></trkpt><trkpt lat="43.0302633" lon="2.6564967"><ele>230.0</ele><time>2026-03-30T10:30:32.686Z</time></trkpt><trkpt lat="43.03038" lon="2.65653"><ele>230.00000000000003</ele><time>2026-03-30T10:30:33.687Z</time></trkpt><trkpt lat="43.0304917" lon="2.6565617"><ele>230.0</ele><time>2026-03-30T10:30:34.685Z</time></trkpt><trkpt lat="43.0305867" lon="2.6565967"><ele>230.0</ele><time>2026-03-30T10:30:35.685Z</time></trkpt><trkpt lat="43.0306733" lon="2.656635"><ele>230.0</ele><time>2026-03-30T10:30:36.685Z</time></trkpt><trkpt lat="43.03075" lon="2.6566617"><ele>230.00000000000003</ele><time>2026-03-30T10:30:37.685Z</time></trkpt><trkpt lat="43.030815" lon="2.65667"><ele>230.0</ele><time>2026-03-30T10:30:38.686Z</time></trkpt><trkpt lat="43.0308833" lon="2.65665"><ele>229.4</ele><time>2026-03-30T10:30:39.684Z</time></trkpt><trkpt lat="43.030955" lon="2.6565967"><ele>228.8</ele><time>2026-03-30T10:30:40.684Z</time></trkpt><trkpt lat="43.0310367" lon="2.6565283"><ele>228.2</ele><time>2026-03-30T10:30:41.689Z</time></trkpt><trkpt lat="43.0311233" lon="2.656445"><ele>227.6</ele><time>2026-03-30T10:30:42.686Z</time></trkpt><trkpt lat="43.031215" lon="2.6563683"><ele>227.0</ele><time>2026-03-30T10:30:43.685Z</time></trkpt><trkpt lat="43.03131" lon="2.6562867"><ele>227.0</ele><time>2026-03-30T10:30:44.686Z</time></trkpt><trkpt lat="43.031405" lon="2.6562217"><ele>227.0</ele><time>2026-03-30T10:30:45.684Z</time></trkpt><trkpt lat="43.0315083" lon="2.6561867"><ele>227.0</ele><time>2026-03-30T10:30:46.685Z</time></trkpt><trkpt lat="43.0316217" lon="2.656175"><ele>227.0</ele><time>2026-03-30T10:30:47.685Z</time></trkpt><trkpt lat="43.0317433" lon="2.6561567"><ele>227.0</ele><time>2026-03-30T10:30:48.684Z</time></trkpt><trkpt lat="43.0318583" lon="2.6561183"><ele>228.2</ele><time>2026-03-30T10:30:49.685Z</time></trkpt><trkpt lat="43.03196" lon="2.6560683"><ele>229.39999999999998</ele><time>2026-03-30T10:30:50.684Z</time></trkpt><trkpt lat="43.0320567" lon="2.655995"><ele>230.60000000000002</ele><time>2026-03-30T10:30:51.684Z</time></trkpt><trkpt lat="43.032145" lon="2.6559"><ele>231.8</ele><time>2026-03-30T10:30:52.685Z</time></trkpt><trkpt lat="43.0322317" lon="2.6558117"><ele>233.0</ele><time>2026-03-30T10:30:53.684Z</time></trkpt><trkpt lat="43.032325" lon="2.65575"><ele>233.00000000000003</ele><time>2026-03-30T10:30:54.686Z</time></trkpt><trkpt lat="43.0324217" lon="2.6557183"><ele>233.0</ele><time>2026-03-30T10:30:55.684Z</time></trkpt><trkpt lat="43.0325183" lon="2.6557033"><ele>233.0</ele><time>2026-03-30T10:30:56.685Z</time></trkpt><trkpt lat="43.032605" lon="2.6556833"><ele>233.0</ele><time>2026-03-30T10:30:57.684Z</time></trkpt><trkpt lat="43.03268" lon="2.65564"><ele>233.00000000000003</ele><time>2026-03-30T10:30:58.684Z</time></trkpt><trkpt lat="43.0327367" lon="2.655565"><ele>233.0</ele><time>2026-03-30T10:30:59.693Z</time></trkpt><trkpt lat="43.0327783" lon="2.6554467"><ele>234.75</ele><time>2026-03-30T10:31:00.685Z</time></trkpt><trkpt lat="43.0328183" lon="2.6552817"><ele>236.5</ele><time>2026-03-30T10:31:01.685Z</time></trkpt><trkpt lat="43.032855" lon="2.6551117"><ele>238.25</ele><time>2026-03-30T10:31:02.686Z</time></trkpt><trkpt lat="43.0328933" lon="2.654935"><ele>240.0</ele><time>2026-03-30T10:31:03.687Z</time></trkpt><trkpt lat="43.0329383" lon="2.6547483"><ele>240.0</ele><time>2026-03-30T10:31:04.687Z</time></trkpt><trkpt lat="43.03299" lon="2.6545517"><ele>240.0</ele><time>2026-03-30T10:31:05.687Z</time></trkpt><trkpt lat="43.0330467" lon="2.6543783"><ele>240.0</ele><time>2026-03-30T10:31:06.689Z</time></trkpt><trkpt lat="43.033095" lon="2.6542267"><ele>240.0</ele><time>2026-03-30T10:31:07.69Z</time></trkpt><trkpt lat="43.0331383" lon="2.6540983"><ele>240.0</ele><time>2026-03-30T10:31:08.686Z</time></trkpt><trkpt lat="43.0331833" lon="2.6540033"><ele>240.0</ele><time>2026-03-30T10:31:09.688Z</time></trkpt><trkpt lat="43.0332283" lon="2.65394"><ele>240.0</ele><time>2026-03-30T10:31:10.686Z</time></trkpt><trkpt lat="43.033345" lon="2.6538567"><ele>240.0</ele><time>2026-03-30T10:31:12.686Z</time></trkpt><trkpt lat="43.0333933" lon="2.6537667"><ele>240.0</ele><time>2026-03-30T10:31:13.684Z</time></trkpt><trkpt lat="43.03344" lon="2.6536667"><ele>240.0</ele><time>2026-03-30T10:31:14.685Z</time></trkpt><trkpt lat="43.033495" lon="2.653575"><ele>240.2</ele><time>2026-03-30T10:31:15.688Z</time></trkpt><trkpt lat="43.0335683" lon="2.653495"><ele>240.4</ele><time>2026-03-30T10:31:16.685Z</time></trkpt><trkpt lat="43.0336533" lon="2.6534417"><ele>240.60000000000002</ele><time>2026-03-30T10:31:17.688Z</time></trkpt><trkpt lat="43.0337417" lon="2.6534217"><ele>240.8</ele><time>2026-03-30T10:31:18.684Z</time></trkpt><trkpt lat="43.03384" lon="2.653445"><ele>241.0</ele><time>2026-03-30T10:31:19.686Z</time></trkpt><trkpt lat="43.0339417" lon="2.6535067"><ele>241.0</ele><time>2026-03-30T10:31:20.684Z</time></trkpt><trkpt lat="43.0340517" lon="2.6535683"><ele>241.0</ele><time>2026-03-30T10:31:21.685Z</time></trkpt><trkpt lat="43.0341667" lon="2.6536233"><ele>241.0</ele><time>2026-03-30T10:31:22.687Z</time></trkpt><trkpt lat="43.0342767" lon="2.6536833"><ele>241.0</ele><time>2026-03-30T10:31:23.686Z</time></trkpt><trkpt lat="43.0343817" lon="2.653735"><ele>239.60000000000002</ele><time>2026-03-30T10:31:24.684Z</time></trkpt><trkpt lat="43.0344783" lon="2.6537783"><ele>238.20000000000002</ele><time>2026-03-30T10:31:25.686Z</time></trkpt><trkpt lat="43.0345717" lon="2.6538167"><ele>236.79999999999998</ele><time>2026-03-30T10:31:26.686Z</time></trkpt><trkpt lat="43.0346517" lon="2.6538517"><ele>235.39999999999998</ele><time>2026-03-30T10:31:27.689Z</time></trkpt><trkpt lat="43.0347217" lon="2.6538733"><ele>234.0</ele><time>2026-03-30T10:31:28.686Z</time></trkpt><trkpt lat="43.03483" lon="2.6538167"><ele>234.0</ele><time>2026-03-30T10:31:30.685Z</time></trkpt><trkpt lat="43.0349183" lon="2.6537267"><ele>233.99999999999997</ele><time>2026-03-30T10:31:32.685Z</time></trkpt><trkpt lat="43.035" lon="2.6537633"><ele>233.99999999999997</ele><time>2026-03-30T10:31:34.685Z</time></trkpt><trkpt lat="43.035085" lon="2.6538583"><ele>234.0</ele><time>2026-03-30T10:31:36.686Z</time></trkpt><trkpt lat="43.0351767" lon="2.6539533"><ele>234.0</ele><time>2026-03-30T10:31:38.685Z</time></trkpt><trkpt lat="43.03523" lon="2.6540067"><ele>233.33333333333334</ele><time>2026-03-30T10:31:39.685Z</time></trkpt><trkpt lat="43.035295" lon="2.6540667"><ele>232.66666666666669</ele><time>2026-03-30T10:31:40.688Z</time></trkpt><trkpt lat="43.035365" lon="2.6541233"><ele>232.0</ele><time>2026-03-30T10:31:41.685Z</time></trkpt><trkpt lat="43.0354333" lon="2.6541717"><ele>231.33333333333334</ele><time>2026-03-30T10:31:42.686Z</time></trkpt><trkpt lat="43.035505" lon="2.6541983"><ele>230.66666666666669</ele><time>2026-03-30T10:31:43.687Z</time></trkpt><trkpt lat="43.0355867" lon="2.6542067"><ele>230.0</ele><time>2026-03-30T10:31:44.687Z</time></trkpt><trkpt lat="43.03567" lon="2.6542017"><ele>230.00000000000003</ele><time>2026-03-30T10:31:45.685Z</time></trkpt><trkpt lat="43.0357583" lon="2.65419"><ele>230.0</ele><time>2026-03-30T10:31:46.685Z</time></trkpt><trkpt lat="43.03585" lon="2.65417"><ele>230.0</ele><time>2026-03-30T10:31:47.685Z</time></trkpt><trkpt lat="43.03594" lon="2.65415"><ele>230.0</ele><time>2026-03-30T10:31:48.684Z</time></trkpt><trkpt lat="43.0360183" lon="2.6541433"><ele>230.00000000000003</ele><time>2026-03-30T10:31:49.684Z</time></trkpt><trkpt lat="43.03609" lon="2.654165"><ele>230.0</ele><time>2026-03-30T10:31:50.687Z</time></trkpt><trkpt lat="43.0361467" lon="2.65424"><ele>229.6</ele><time>2026-03-30T10:31:51.685Z</time></trkpt><trkpt lat="43.036205" lon="2.6543317"><ele>229.2</ele><time>2026-03-30T10:31:52.685Z</time></trkpt><trkpt lat="43.0362833" lon="2.6544183"><ele>228.8</ele><time>2026-03-30T10:31:53.685Z</time></trkpt><trkpt lat="43.0363817" lon="2.65448"><ele>228.4</ele><time>2026-03-30T10:31:54.685Z</time></trkpt><trkpt lat="43.0364833" lon="2.654525"><ele>228.0</ele><time>2026-03-30T10:31:55.686Z</time></trkpt><trkpt lat="43.0365733" lon="2.6545633"><ele>227.42857142857142</ele><time>2026-03-30T10:31:56.685Z</time></trkpt><trkpt lat="43.036635" lon="2.6546"><ele>226.85714285714283</ele><time>2026-03-30T10:31:57.686Z</time></trkpt><trkpt lat="43.0366883" lon="2.6546717"><ele>226.28571428571428</ele><time>2026-03-30T10:31:59.684Z</time></trkpt><trkpt lat="43.0367183" lon="2.6547567"><ele>225.71428571428572</ele><time>2026-03-30T10:32:15.685Z</time></trkpt><trkpt lat="43.0366467" lon="2.6546933"><ele>225.14285714285714</ele><time>2026-03-30T10:32:28.688Z</time></trkpt><trkpt lat="43.0365917" lon="2.6546283"><ele>224.57142857142856</ele><time>2026-03-30T10:32:30.685Z</time></trkpt><trkpt lat="43.0365483" lon="2.6545617"><ele>224.0</ele><time>2026-03-30T10:32:33.687Z</time></trkpt><trkpt lat="43.0366017" lon="2.6546183"><ele>225.79999999999998</ele><time>2026-03-30T11:23:14.686Z</time></trkpt><trkpt lat="43.0366767" lon="2.654695"><ele>227.59999999999997</ele><time>2026-03-30T11:23:22.686Z</time></trkpt><trkpt lat="43.0367233" lon="2.6547783"><ele>229.4</ele><time>2026-03-30T11:23:24.686Z</time></trkpt><trkpt lat="43.03674" lon="2.654915"><ele>231.2</ele><time>2026-03-30T11:23:26.687Z</time></trkpt><trkpt lat="43.0367233" lon="2.6550817"><ele>233.0</ele><time>2026-03-30T11:23:28.686Z</time></trkpt><trkpt lat="43.0367083" lon="2.6551717"><ele>231.16666666666669</ele><time>2026-03-30T11:23:29.685Z</time></trkpt><trkpt lat="43.0366967" lon="2.6553183"><ele>229.33333333333334</ele><time>2026-03-30T11:23:31.685Z</time></trkpt><trkpt lat="43.0367383" lon="2.65545"><ele>227.5</ele><time>2026-03-30T11:23:33.686Z</time></trkpt><trkpt lat="43.036795" lon="2.6555017"><ele>225.66666666666669</ele><time>2026-03-30T11:23:34.686Z</time></trkpt><trkpt lat="43.0368633" lon="2.6555317"><ele>223.83333333333334</ele><time>2026-03-30T11:23:35.685Z</time></trkpt><trkpt lat="43.0369367" lon="2.6555617"><ele>222.0</ele><time>2026-03-30T11:23:36.686Z</time></trkpt><trkpt lat="43.0370083" lon="2.6556033"><ele>222.0</ele><time>2026-03-30T11:23:37.685Z</time></trkpt><trkpt lat="43.0370717" lon="2.65565"><ele>222.0</ele><time>2026-03-30T11:23:38.688Z</time></trkpt><trkpt lat="43.037125" lon="2.6557067"><ele>222.0</ele><time>2026-03-30T11:23:39.688Z</time></trkpt><trkpt lat="43.0371467" lon="2.6558083"><ele>222.0</ele><time>2026-03-30T11:23:40.686Z</time></trkpt><trkpt lat="43.0371583" lon="2.6559133"><ele>222.0</ele><time>2026-03-30T11:23:41.685Z</time></trkpt><trkpt lat="43.0371533" lon="2.6560067"><ele>222.0</ele><time>2026-03-30T11:23:42.685Z</time></trkpt><trkpt lat="43.0371533" lon="2.6561017"><ele>222.0</ele><time>2026-03-30T11:23:43.686Z</time></trkpt><trkpt lat="43.03717" lon="2.656185"><ele>220.5</ele><time>2026-03-30T11:23:44.686Z</time></trkpt><trkpt lat="43.0372017" lon="2.65626"><ele>219.0</ele><time>2026-03-30T11:23:45.687Z</time></trkpt><trkpt lat="43.0372533" lon="2.6563267"><ele>217.5</ele><time>2026-03-30T11:23:46.689Z</time></trkpt><trkpt lat="43.03732" lon="2.65639"><ele>216.0</ele><time>2026-03-30T11:23:47.686Z</time></trkpt><trkpt lat="43.0373933" lon="2.656445"><ele>214.5</ele><time>2026-03-30T11:23:48.686Z</time></trkpt><trkpt lat="43.037485" lon="2.65648"><ele>213.0</ele><time>2026-03-30T11:23:49.687Z</time></trkpt><trkpt lat="43.0375833" lon="2.65651"><ele>212.8</ele><time>2026-03-30T11:23:50.686Z</time></trkpt><trkpt lat="43.0376733" lon="2.65655"><ele>212.60000000000002</ele><time>2026-03-30T11:23:51.686Z</time></trkpt><trkpt lat="43.0377567" lon="2.6566083"><ele>212.39999999999998</ele><time>2026-03-30T11:23:52.688Z</time></trkpt><trkpt lat="43.0378333" lon="2.65668"><ele>212.2</ele><time>2026-03-30T11:23:53.689Z</time></trkpt><trkpt lat="43.03791" lon="2.6567583"><ele>212.0</ele><time>2026-03-30T11:23:54.688Z</time></trkpt><trkpt lat="43.0379817" lon="2.6568333"><ele>212.00000000000003</ele><time>2026-03-30T11:23:55.686Z</time></trkpt><trkpt lat="43.038055" lon="2.6569033"><ele>212.0</ele><time>2026-03-30T11:23:56.689Z</time></trkpt><trkpt lat="43.0381167" lon="2.65697"><ele>212.0</ele><time>2026-03-30T11:23:57.689Z</time></trkpt><trkpt lat="43.0381667" lon="2.6570533"><ele>212.0</ele><time>2026-03-30T11:23:58.687Z</time></trkpt><trkpt lat="43.038205" lon="2.6571583"><ele>212.00000000000003</ele><time>2026-03-30T11:23:59.686Z</time></trkpt><trkpt lat="43.0382483" lon="2.6572767"><ele>212.0</ele><time>2026-03-30T11:24:00.688Z</time></trkpt><trkpt lat="43.0382867" lon="2.6573967"><ele>210.16666666666669</ele><time>2026-03-30T11:24:01.687Z</time></trkpt><trkpt lat="43.0383217" lon="2.6575133"><ele>208.33333333333334</ele><time>2026-03-30T11:24:02.685Z</time></trkpt><trkpt lat="43.0383567" lon="2.65762"><ele>206.5</ele><time>2026-03-30T11:24:03.687Z</time></trkpt><trkpt lat="43.0383867" lon="2.657735"><ele>204.66666666666669</ele><time>2026-03-30T11:24:04.685Z</time></trkpt><trkpt lat="43.03839" lon="2.6578567"><ele>202.83333333333334</ele><time>2026-03-30T11:24:05.686Z</time></trkpt><trkpt lat="43.0383517" lon="2.6579667"><ele>201.0</ele><time>2026-03-30T11:24:06.685Z</time></trkpt><trkpt lat="43.0382983" lon="2.65807"><ele>201.0</ele><time>2026-03-30T11:24:07.689Z</time></trkpt><trkpt lat="43.0382467" lon="2.6581783"><ele>201.0</ele><time>2026-03-30T11:24:08.689Z</time></trkpt><trkpt lat="43.0381983" lon="2.6583"><ele>201.0</ele><time>2026-03-30T11:24:09.685Z</time></trkpt><trkpt lat="43.0381633" lon="2.6584267"><ele>201.0</ele><time>2026-03-30T11:24:10.685Z</time></trkpt><trkpt lat="43.0381483" lon="2.6585433"><ele>201.0</ele><time>2026-03-30T11:24:11.688Z</time></trkpt><trkpt lat="43.0381467" lon="2.6586467"><ele>200.8</ele><time>2026-03-30T11:24:12.686Z</time></trkpt><trkpt lat="43.03815" lon="2.6587417"><ele>200.60000000000002</ele><time>2026-03-30T11:24:13.685Z</time></trkpt><trkpt lat="43.0381817" lon="2.6588917"><ele>200.4</ele><time>2026-03-30T11:24:15.685Z</time></trkpt><trkpt lat="43.038245" lon="2.6589583"><ele>200.2</ele><time>2026-03-30T11:24:17.685Z</time></trkpt><trkpt lat="43.0383717" lon="2.658935"><ele>200.0</ele><time>2026-03-30T11:24:19.687Z</time></trkpt><trkpt lat="43.0384583" lon="2.6589117"><ele>200.0</ele><time>2026-03-30T11:24:20.686Z</time></trkpt><trkpt lat="43.0385433" lon="2.6588817"><ele>200.0</ele><time>2026-03-30T11:24:21.685Z</time></trkpt><trkpt lat="43.03862" lon="2.658855"><ele>200.0</ele><time>2026-03-30T11:24:22.688Z</time></trkpt><trkpt lat="43.0387067" lon="2.6588333"><ele>200.0</ele><time>2026-03-30T11:24:23.687Z</time></trkpt><trkpt lat="43.0388" lon="2.6588083"><ele>200.0</ele><time>2026-03-30T11:24:24.687Z</time></trkpt><trkpt lat="43.0388983" lon="2.6587817"><ele>200.0</ele><time>2026-03-30T11:24:25.686Z</time></trkpt><trkpt lat="43.0389933" lon="2.6587583"><ele>200.0</ele><time>2026-03-30T11:24:26.685Z</time></trkpt><trkpt lat="43.0391" lon="2.65873"><ele>200.0</ele><time>2026-03-30T11:24:27.686Z</time></trkpt><trkpt lat="43.0392067" lon="2.6587017"><ele>200.0</ele><time>2026-03-30T11:24:28.686Z</time></trkpt><trkpt lat="43.03932" lon="2.658675"><ele>200.0</ele><time>2026-03-30T11:24:29.686Z</time></trkpt><trkpt lat="43.0394317" lon="2.6586467"><ele>198.5</ele><time>2026-03-30T11:24:30.686Z</time></trkpt><trkpt lat="43.0395433" lon="2.65861"><ele>197.0</ele><time>2026-03-30T11:24:31.686Z</time></trkpt><trkpt lat="43.039655" lon="2.6585617"><ele>195.5</ele><time>2026-03-30T11:24:32.688Z</time></trkpt><trkpt lat="43.0397583" lon="2.6584833"><ele>194.0</ele><time>2026-03-30T11:24:33.688Z</time></trkpt><trkpt lat="43.0398517" lon="2.658385"><ele>194.0</ele><time>2026-03-30T11:24:34.685Z</time></trkpt><trkpt lat="43.0399467" lon="2.6582817"><ele>194.0</ele><time>2026-03-30T11:24:35.687Z</time></trkpt><trkpt lat="43.0400483" lon="2.6581883"><ele>194.0</ele><time>2026-03-30T11:24:36.686Z</time></trkpt><trkpt lat="43.0401567" lon="2.6581083"><ele>194.0</ele><time>2026-03-30T11:24:37.686Z</time></trkpt><trkpt lat="43.0402667" lon="2.65804"><ele>193.25</ele><time>2026-03-30T11:24:38.688Z</time></trkpt><trkpt lat="43.0403833" lon="2.6579783"><ele>192.5</ele><time>2026-03-30T11:24:39.687Z</time></trkpt><trkpt lat="43.040505" lon="2.6579317"><ele>191.75</ele><time>2026-03-30T11:24:40.685Z</time></trkpt><trkpt lat="43.04063" lon="2.65791"><ele>191.0</ele><time>2026-03-30T11:24:41.687Z</time></trkpt><trkpt lat="43.0407583" lon="2.6579017"><ele>190.75</ele><time>2026-03-30T11:24:42.687Z</time></trkpt><trkpt lat="43.040885" lon="2.657905"><ele>190.5</ele><time>2026-03-30T11:24:43.686Z</time></trkpt><trkpt lat="43.0410117" lon="2.6579133"><ele>190.25</ele><time>2026-03-30T11:24:44.686Z</time></trkpt><trkpt lat="43.0411367" lon="2.657915"><ele>190.0</ele><time>2026-03-30T11:24:45.685Z</time></trkpt><trkpt lat="43.0412617" lon="2.6579183"><ele>190.0</ele><time>2026-03-30T11:24:46.688Z</time></trkpt><trkpt lat="43.041385" lon="2.6579233"><ele>190.0</ele><time>2026-03-30T11:24:47.685Z</time></trkpt><trkpt lat="43.0415083" lon="2.6579283"><ele>190.0</ele><time>2026-03-30T11:24:48.687Z</time></trkpt><trkpt lat="43.0416317" lon="2.6579383"><ele>190.0</ele><time>2026-03-30T11:24:49.686Z</time></trkpt><trkpt lat="43.041755" lon="2.6579583"><ele>189.25</ele><time>2026-03-30T11:24:50.688Z</time></trkpt><trkpt lat="43.0418783" lon="2.6579917"><ele>188.5</ele><time>2026-03-30T11:24:51.686Z</time></trkpt><trkpt lat="43.0420017" lon="2.6580367"><ele>187.75</ele><time>2026-03-30T11:24:52.686Z</time></trkpt><trkpt lat="43.0421267" lon="2.6580917"><ele>187.0</ele><time>2026-03-30T11:24:53.686Z</time></trkpt><trkpt lat="43.0422533" lon="2.6581517"><ele>187.0</ele><time>2026-03-30T11:24:54.685Z</time></trkpt><trkpt lat="43.0423783" lon="2.6582167"><ele>187.0</ele><time>2026-03-30T11:24:55.685Z</time></trkpt><trkpt lat="43.0425067" lon="2.658285"><ele>187.0</ele><time>2026-03-30T11:24:56.686Z</time></trkpt><trkpt lat="43.0426333" lon="2.6583567"><ele>187.0</ele><time>2026-03-30T11:24:57.686Z</time></trkpt><trkpt lat="43.04276" lon="2.6584317"><ele>187.0</ele><time>2026-03-30T11:24:58.685Z</time></trkpt><trkpt lat="43.0428833" lon="2.6585083"><ele>187.0</ele><time>2026-03-30T11:24:59.686Z</time></trkpt><trkpt lat="43.0430033" lon="2.6585817"><ele>187.0</ele><time>2026-03-30T11:25:00.685Z</time></trkpt><trkpt lat="43.0431183" lon="2.658655"><ele>187.0</ele><time>2026-03-30T11:25:01.685Z</time></trkpt><trkpt lat="43.0432317" lon="2.6587317"><ele>186.25</ele><time>2026-03-30T11:25:02.686Z</time></trkpt><trkpt lat="43.0433417" lon="2.6588183"><ele>185.5</ele><time>2026-03-30T11:25:03.686Z</time></trkpt><trkpt lat="43.0434467" lon="2.6589183"><ele>184.75</ele><time>2026-03-30T11:25:04.685Z</time></trkpt><trkpt lat="43.043545" lon="2.65903"><ele>184.0</ele><time>2026-03-30T11:25:05.688Z</time></trkpt><trkpt lat="43.04364" lon="2.6591467"><ele>184.0</ele><time>2026-03-30T11:25:06.686Z</time></trkpt><trkpt lat="43.0437383" lon="2.659265"><ele>184.0</ele><time>2026-03-30T11:25:07.686Z</time></trkpt><trkpt lat="43.0438433" lon="2.659375"><ele>184.0</ele><time>2026-03-30T11:25:08.687Z</time></trkpt><trkpt lat="43.0439567" lon="2.659465"><ele>184.0</ele><time>2026-03-30T11:25:09.689Z</time></trkpt><trkpt lat="43.04408" lon="2.6595367"><ele>183.5</ele><time>2026-03-30T11:25:10.686Z</time></trkpt><trkpt lat="43.044205" lon="2.6596033"><ele>183.0</ele><time>2026-03-30T11:25:11.687Z</time></trkpt><trkpt lat="43.0443333" lon="2.6596717"><ele>182.5</ele><time>2026-03-30T11:25:12.687Z</time></trkpt><trkpt lat="43.0444633" lon="2.6597417"><ele>182.0</ele><time>2026-03-30T11:25:13.686Z</time></trkpt><trkpt lat="43.0445933" lon="2.6598133"><ele>182.0</ele><time>2026-03-30T11:25:14.688Z</time></trkpt><trkpt lat="43.0447233" lon="2.659885"><ele>182.0</ele><time>2026-03-30T11:25:15.685Z</time></trkpt><trkpt lat="43.0448533" lon="2.6599517"><ele>182.0</ele><time>2026-03-30T11:25:16.685Z</time></trkpt><trkpt lat="43.04499" lon="2.6600083"><ele>182.0</ele><time>2026-03-30T11:25:17.687Z</time></trkpt><trkpt lat="43.0451283" lon="2.660055"><ele>182.0</ele><time>2026-03-30T11:25:18.685Z</time></trkpt><trkpt lat="43.0452633" lon="2.6600983"><ele>182.0</ele><time>2026-03-30T11:25:19.688Z</time></trkpt><trkpt lat="43.0453983" lon="2.6601417"><ele>182.0</ele><time>2026-03-30T11:25:20.685Z</time></trkpt><trkpt lat="43.04553" lon="2.660175"><ele>182.0</ele><time>2026-03-30T11:25:21.688Z</time></trkpt><trkpt lat="43.0456617" lon="2.6602133"><ele>182.0</ele><time>2026-03-30T11:25:22.686Z</time></trkpt><trkpt lat="43.045795" lon="2.6602417"><ele>182.0</ele><time>2026-03-30T11:25:23.686Z</time></trkpt><trkpt lat="43.0459267" lon="2.6602633"><ele>182.0</ele><time>2026-03-30T11:25:24.686Z</time></trkpt><trkpt lat="43.0460583" lon="2.660275"><ele>182.0</ele><time>2026-03-30T11:25:25.686Z</time></trkpt><trkpt lat="43.0461883" lon="2.66029"><ele>182.75</ele><time>2026-03-30T11:25:26.686Z</time></trkpt><trkpt lat="43.0463133" lon="2.6603033"><ele>183.5</ele><time>2026-03-30T11:25:27.685Z</time></trkpt><trkpt lat="43.04644" lon="2.66031"><ele>184.25</ele><time>2026-03-30T11:25:28.686Z</time></trkpt><trkpt lat="43.0465683" lon="2.6603067"><ele>185.0</ele><time>2026-03-30T11:25:29.685Z</time></trkpt><trkpt lat="43.0466967" lon="2.660295"><ele>185.25</ele><time>2026-03-30T11:25:30.685Z</time></trkpt><trkpt lat="43.0468217" lon="2.6602717"><ele>185.5</ele><time>2026-03-30T11:25:31.686Z</time></trkpt><trkpt lat="43.0469433" lon="2.660245"><ele>185.75</ele><time>2026-03-30T11:25:32.686Z</time></trkpt><trkpt lat="43.0470633" lon="2.6602217"><ele>186.0</ele><time>2026-03-30T11:25:33.687Z</time></trkpt><trkpt lat="43.0471767" lon="2.6602"><ele>186.0</ele><time>2026-03-30T11:25:34.685Z</time></trkpt><trkpt lat="43.047285" lon="2.6601817"><ele>186.0</ele><time>2026-03-30T11:25:35.686Z</time></trkpt><trkpt lat="43.0473917" lon="2.660175"><ele>186.0</ele><time>2026-03-30T11:25:36.685Z</time></trkpt><trkpt lat="43.04749" lon="2.6601983"><ele>186.0</ele><time>2026-03-30T11:25:37.685Z</time></trkpt><trkpt lat="43.0475833" lon="2.66024"><ele>186.0</ele><time>2026-03-30T11:25:38.689Z</time></trkpt><trkpt lat="43.0476817" lon="2.6602833"><ele>186.4</ele><time>2026-03-30T11:25:39.687Z</time></trkpt><trkpt lat="43.0477833" lon="2.6603167"><ele>186.8</ele><time>2026-03-30T11:25:40.686Z</time></trkpt><trkpt lat="43.0478833" lon="2.6603417"><ele>187.20000000000002</ele><time>2026-03-30T11:25:41.685Z</time></trkpt><trkpt lat="43.0479817" lon="2.660365"><ele>187.60000000000002</ele><time>2026-03-30T11:25:42.687Z</time></trkpt><trkpt lat="43.0480817" lon="2.660385"><ele>188.0</ele><time>2026-03-30T11:25:43.685Z</time></trkpt><trkpt lat="43.04818" lon="2.6604067"><ele>188.0</ele><time>2026-03-30T11:25:44.684Z</time></trkpt><trkpt lat="43.0482817" lon="2.66044"><ele>188.0</ele><time>2026-03-30T11:25:45.688Z</time></trkpt><trkpt lat="43.048385" lon="2.6604733"><ele>188.0</ele><time>2026-03-30T11:25:46.684Z</time></trkpt><trkpt lat="43.0484833" lon="2.6605117"><ele>188.0</ele><time>2026-03-30T11:25:47.686Z</time></trkpt><trkpt lat="43.04858" lon="2.660555"><ele>188.0</ele><time>2026-03-30T11:25:48.685Z</time></trkpt><trkpt lat="43.0486767" lon="2.6606017"><ele>188.0</ele><time>2026-03-30T11:25:49.687Z</time></trkpt><trkpt lat="43.0487767" lon="2.6606533"><ele>188.0</ele><time>2026-03-30T11:25:50.694Z</time></trkpt><trkpt lat="43.0488783" lon="2.6607033"><ele>188.0</ele><time>2026-03-30T11:25:51.689Z</time></trkpt><trkpt lat="43.0489767" lon="2.6607467"><ele>188.0</ele><time>2026-03-30T11:25:52.685Z</time></trkpt><trkpt lat="43.0490767" lon="2.6607867"><ele>188.0</ele><time>2026-03-30T11:25:53.685Z</time></trkpt><trkpt lat="43.0491733" lon="2.6608383"><ele>188.0</ele><time>2026-03-30T11:25:54.686Z</time></trkpt><trkpt lat="43.0492583" lon="2.6609083"><ele>188.0</ele><time>2026-03-30T11:25:55.687Z</time></trkpt><trkpt lat="43.0493333" lon="2.661"><ele>188.0</ele><time>2026-03-30T11:25:56.685Z</time></trkpt><trkpt lat="43.0494033" lon="2.6610967"><ele>188.0</ele><time>2026-03-30T11:25:57.686Z</time></trkpt><trkpt lat="43.049485" lon="2.6611817"><ele>188.0</ele><time>2026-03-30T11:25:58.686Z</time></trkpt><trkpt lat="43.0495767" lon="2.66126"><ele>187.60000000000002</ele><time>2026-03-30T11:25:59.684Z</time></trkpt><trkpt lat="43.0496733" lon="2.66133"><ele>187.20000000000002</ele><time>2026-03-30T11:26:00.685Z</time></trkpt><trkpt lat="43.0497717" lon="2.6613983"><ele>186.8</ele><time>2026-03-30T11:26:01.684Z</time></trkpt><trkpt lat="43.04987" lon="2.6614583"><ele>186.4</ele><time>2026-03-30T11:26:02.685Z</time></trkpt><trkpt lat="43.049965" lon="2.6615233"><ele>186.0</ele><time>2026-03-30T11:26:03.684Z</time></trkpt><trkpt lat="43.050055" lon="2.6615883"><ele>186.0</ele><time>2026-03-30T11:26:04.686Z</time></trkpt><trkpt lat="43.0501383" lon="2.66165"><ele>186.0</ele><time>2026-03-30T11:26:05.686Z</time></trkpt><trkpt lat="43.0502233" lon="2.66171"><ele>186.0</ele><time>2026-03-30T11:26:06.687Z</time></trkpt><trkpt lat="43.050305" lon="2.6617633"><ele>186.0</ele><time>2026-03-30T11:26:07.688Z</time></trkpt><trkpt lat="43.0503883" lon="2.6618133"><ele>186.0</ele><time>2026-03-30T11:26:08.686Z</time></trkpt><trkpt lat="43.05047" lon="2.6618467"><ele>186.0</ele><time>2026-03-30T11:26:09.686Z</time></trkpt><trkpt lat="43.050555" lon="2.661865"><ele>186.0</ele><time>2026-03-30T11:26:10.769Z</time></trkpt><trkpt lat="43.0506433" lon="2.6618717"><ele>186.0</ele><time>2026-03-30T11:26:11.684Z</time></trkpt><trkpt lat="43.0507333" lon="2.661875"><ele>186.0</ele><time>2026-03-30T11:26:12.685Z</time></trkpt><trkpt lat="43.050825" lon="2.661875"><ele>186.0</ele><time>2026-03-30T11:26:13.685Z</time></trkpt><trkpt lat="43.05091" lon="2.661875"><ele>186.0</ele><time>2026-03-30T11:26:14.686Z</time></trkpt><trkpt lat="43.0509933" lon="2.66188"><ele>186.00000000000003</ele><time>2026-03-30T11:26:15.684Z</time></trkpt><trkpt lat="43.05107" lon="2.6618783"><ele>186.0</ele><time>2026-03-30T11:26:16.685Z</time></trkpt><trkpt lat="43.0511483" lon="2.661875"><ele>186.0</ele><time>2026-03-30T11:26:17.684Z</time></trkpt><trkpt lat="43.051225" lon="2.66188"><ele>186.0</ele><time>2026-03-30T11:26:18.685Z</time></trkpt><trkpt lat="43.0512917" lon="2.66189"><ele>186.0</ele><time>2026-03-30T11:26:19.685Z</time></trkpt><trkpt lat="43.0513583" lon="2.6618917"><ele>186.00000000000003</ele><time>2026-03-30T11:26:20.689Z</time></trkpt><trkpt lat="43.051425" lon="2.661865"><ele>186.0</ele><time>2026-03-30T11:26:22.685Z</time></trkpt><trkpt lat="43.0515283" lon="2.6617833"><ele>185.33333333333334</ele><time>2026-03-30T11:26:30.688Z</time></trkpt><trkpt lat="43.0516283" lon="2.6617633"><ele>184.66666666666666</ele><time>2026-03-30T11:26:32.686Z</time></trkpt><trkpt lat="43.0516983" lon="2.6617783"><ele>184.0</ele><time>2026-03-30T11:26:33.685Z</time></trkpt><trkpt lat="43.0517717" lon="2.661815"><ele>183.33333333333331</ele><time>2026-03-30T11:26:34.685Z</time></trkpt><trkpt lat="43.0518567" lon="2.66184"><ele>182.66666666666666</ele><time>2026-03-30T11:26:35.684Z</time></trkpt><trkpt lat="43.0519533" lon="2.6618567"><ele>182.0</ele><time>2026-03-30T11:26:36.684Z</time></trkpt><trkpt lat="43.052045" lon="2.6618833"><ele>182.0</ele><time>2026-03-30T11:26:37.684Z</time></trkpt><trkpt lat="43.0521533" lon="2.6619133"><ele>182.0</ele><time>2026-03-30T11:26:38.685Z</time></trkpt><trkpt lat="43.0522667" lon="2.6619417"><ele>182.0</ele><time>2026-03-30T11:26:39.685Z</time></trkpt><trkpt lat="43.0523767" lon="2.6619717"><ele>182.0</ele><time>2026-03-30T11:26:40.684Z</time></trkpt><trkpt lat="43.052485" lon="2.6619967"><ele>182.0</ele><time>2026-03-30T11:26:41.685Z</time></trkpt><trkpt lat="43.0525967" lon="2.6620217"><ele>181.5</ele><time>2026-03-30T11:26:42.684Z</time></trkpt><trkpt lat="43.0527167" lon="2.66205"><ele>181.0</ele><time>2026-03-30T11:26:43.686Z</time></trkpt><trkpt lat="43.052835" lon="2.6620783"><ele>180.5</ele><time>2026-03-30T11:26:44.687Z</time></trkpt><trkpt lat="43.05296" lon="2.6621117"><ele>180.0</ele><time>2026-03-30T11:26:45.685Z</time></trkpt><trkpt lat="43.053085" lon="2.6621417"><ele>180.0</ele><time>2026-03-30T11:26:46.685Z</time></trkpt><trkpt lat="43.0532117" lon="2.6621817"><ele>180.0</ele><time>2026-03-30T11:26:47.684Z</time></trkpt><trkpt lat="43.05333" lon="2.66222"><ele>180.0</ele><time>2026-03-30T11:26:48.689Z</time></trkpt><trkpt lat="43.053465" lon="2.6622617"><ele>180.0</ele><time>2026-03-30T11:26:49.685Z</time></trkpt><trkpt lat="43.0536" lon="2.6623033"><ele>179.25</ele><time>2026-03-30T11:26:50.686Z</time></trkpt><trkpt lat="43.0537367" lon="2.6623517"><ele>178.5</ele><time>2026-03-30T11:26:51.684Z</time></trkpt><trkpt lat="43.0538817" lon="2.6623967"><ele>177.75</ele><time>2026-03-30T11:26:52.78Z</time></trkpt><trkpt lat="43.0540067" lon="2.6624667"><ele>177.0</ele><time>2026-03-30T11:26:53.687Z</time></trkpt><trkpt lat="43.0541367" lon="2.662535"><ele>177.0</ele><time>2026-03-30T11:26:54.688Z</time></trkpt><trkpt lat="43.05426" lon="2.6626067"><ele>177.0</ele><time>2026-03-30T11:26:55.686Z</time></trkpt><trkpt lat="43.0543833" lon="2.6626783"><ele>177.0</ele><time>2026-03-30T11:26:56.685Z</time></trkpt><trkpt lat="43.0545083" lon="2.6627483"><ele>177.0</ele><time>2026-03-30T11:26:57.686Z</time></trkpt><trkpt lat="43.054635" lon="2.6628217"><ele>177.0</ele><time>2026-03-30T11:26:58.684Z</time></trkpt><trkpt lat="43.0547633" lon="2.6628833"><ele>177.0</ele><time>2026-03-30T11:26:59.685Z</time></trkpt><trkpt lat="43.0548933" lon="2.662935"><ele>177.0</ele><time>2026-03-30T11:27:00.685Z</time></trkpt><trkpt lat="43.0550283" lon="2.662975"><ele>177.0</ele><time>2026-03-30T11:27:01.684Z</time></trkpt><trkpt lat="43.0551617" lon="2.6630033"><ele>177.25</ele><time>2026-03-30T11:27:02.685Z</time></trkpt><trkpt lat="43.0552967" lon="2.66303"><ele>177.5</ele><time>2026-03-30T11:27:03.684Z</time></trkpt><trkpt lat="43.0554283" lon="2.663055"><ele>177.75</ele><time>2026-03-30T11:27:04.685Z</time></trkpt><trkpt lat="43.0555633" lon="2.66308"><ele>178.0</ele><time>2026-03-30T11:27:05.685Z</time></trkpt><trkpt lat="43.0556967" lon="2.6631167"><ele>178.0</ele><time>2026-03-30T11:27:06.684Z</time></trkpt><trkpt lat="43.0558217" lon="2.6631783"><ele>178.0</ele><time>2026-03-30T11:27:07.684Z</time></trkpt><trkpt lat="43.0559383" lon="2.6632667"><ele>178.0</ele><time>2026-03-30T11:27:08.685Z</time></trkpt><trkpt lat="43.0560383" lon="2.6633783"><ele>178.0</ele><time>2026-03-30T11:27:09.686Z</time></trkpt><trkpt lat="43.0561317" lon="2.6635033"><ele>177.75</ele><time>2026-03-30T11:27:10.685Z</time></trkpt><trkpt lat="43.0562267" lon="2.6636317"><ele>177.5</ele><time>2026-03-30T11:27:11.689Z</time></trkpt><trkpt lat="43.05632" lon="2.663745"><ele>177.25</ele><time>2026-03-30T11:27:12.684Z</time></trkpt><trkpt lat="43.05641" lon="2.663835"><ele>177.0</ele><time>2026-03-30T11:27:13.684Z</time></trkpt><trkpt lat="43.0565067" lon="2.663885"><ele>177.0</ele><time>2026-03-30T11:27:14.685Z</time></trkpt><trkpt lat="43.05662" lon="2.663905"><ele>177.0</ele><time>2026-03-30T11:27:15.685Z</time></trkpt><trkpt lat="43.05674" lon="2.6639117"><ele>177.0</ele><time>2026-03-30T11:27:16.685Z</time></trkpt><trkpt lat="43.0568583" lon="2.6638817"><ele>177.0</ele><time>2026-03-30T11:27:17.685Z</time></trkpt><trkpt lat="43.05698" lon="2.66385"><ele>177.0</ele><time>2026-03-30T11:27:18.687Z</time></trkpt><trkpt lat="43.0571033" lon="2.6638333"><ele>177.0</ele><time>2026-03-30T11:27:19.687Z</time></trkpt><trkpt lat="43.0572267" lon="2.663815"><ele>177.0</ele><time>2026-03-30T11:27:20.688Z</time></trkpt><trkpt lat="43.0573483" lon="2.6637867"><ele>177.0</ele><time>2026-03-30T11:27:21.687Z</time></trkpt><trkpt lat="43.0574633" lon="2.6637317"><ele>176.75</ele><time>2026-03-30T11:27:22.685Z</time></trkpt><trkpt lat="43.0575667" lon="2.66364"><ele>176.5</ele><time>2026-03-30T11:27:23.688Z</time></trkpt><trkpt lat="43.05765" lon="2.6635167"><ele>176.25</ele><time>2026-03-30T11:27:24.687Z</time></trkpt><trkpt lat="43.0577083" lon="2.6633633"><ele>176.0</ele><time>2026-03-30T11:27:25.686Z</time></trkpt><trkpt lat="43.0577567" lon="2.6631983"><ele>176.0</ele><time>2026-03-30T11:27:26.687Z</time></trkpt><trkpt lat="43.0578083" lon="2.663035"><ele>176.0</ele><time>2026-03-30T11:27:27.687Z</time></trkpt><trkpt lat="43.0578767" lon="2.6628833"><ele>176.0</ele><time>2026-03-30T11:27:28.687Z</time></trkpt><trkpt lat="43.05796" lon="2.6627417"><ele>176.0</ele><time>2026-03-30T11:27:29.684Z</time></trkpt><trkpt lat="43.058055" lon="2.6626117"><ele>176.75</ele><time>2026-03-30T11:27:30.686Z</time></trkpt><trkpt lat="43.0581583" lon="2.6624833"><ele>177.5</ele><time>2026-03-30T11:27:31.685Z</time></trkpt><trkpt lat="43.05826" lon="2.6623533"><ele>178.25</ele><time>2026-03-30T11:27:32.686Z</time></trkpt><trkpt lat="43.0583667" lon="2.6622217"><ele>179.0</ele><time>2026-03-30T11:27:33.685Z</time></trkpt><trkpt lat="43.0584783" lon="2.6620983"><ele>178.25</ele><time>2026-03-30T11:27:34.685Z</time></trkpt><trkpt lat="43.0585983" lon="2.6620017"><ele>177.5</ele><time>2026-03-30T11:27:35.684Z</time></trkpt><trkpt lat="43.0587283" lon="2.661935"><ele>176.75</ele><time>2026-03-30T11:27:36.684Z</time></trkpt><trkpt lat="43.0588667" lon="2.661885"><ele>176.0</ele><time>2026-03-30T11:27:37.685Z</time></trkpt><trkpt lat="43.0590033" lon="2.66184"><ele>174.0</ele><time>2026-03-30T11:27:38.687Z</time></trkpt><trkpt lat="43.059145" lon="2.66179"><ele>172.0</ele><time>2026-03-30T11:27:39.685Z</time></trkpt><trkpt lat="43.0592933" lon="2.6617467"><ele>170.0</ele><time>2026-03-30T11:27:40.686Z</time></trkpt><trkpt lat="43.0594367" lon="2.6616967"><ele>168.0</ele><time>2026-03-30T11:27:41.685Z</time></trkpt><trkpt lat="43.0595733" lon="2.6616533"><ele>168.0</ele><time>2026-03-30T11:27:42.687Z</time></trkpt><trkpt lat="43.0597067" lon="2.66161"><ele>168.0</ele><time>2026-03-30T11:27:43.684Z</time></trkpt><trkpt lat="43.05984" lon="2.6615633"><ele>168.0</ele><time>2026-03-30T11:27:44.684Z</time></trkpt><trkpt lat="43.05997" lon="2.6615217"><ele>168.0</ele><time>2026-03-30T11:27:45.685Z</time></trkpt><trkpt lat="43.060095" lon="2.6614883"><ele>166.5</ele><time>2026-03-30T11:27:46.689Z</time></trkpt><trkpt lat="43.0602233" lon="2.66145"><ele>165.0</ele><time>2026-03-30T11:27:47.685Z</time></trkpt><trkpt lat="43.0603517" lon="2.6614267"><ele>163.5</ele><time>2026-03-30T11:27:48.685Z</time></trkpt><trkpt lat="43.06048" lon="2.6614367"><ele>162.0</ele><time>2026-03-30T11:27:49.686Z</time></trkpt><trkpt lat="43.0605917" lon="2.6614883"><ele>162.0</ele><time>2026-03-30T11:27:50.685Z</time></trkpt><trkpt lat="43.0606833" lon="2.66158"><ele>162.0</ele><time>2026-03-30T11:27:51.686Z</time></trkpt><trkpt lat="43.0607533" lon="2.6617"><ele>162.0</ele><time>2026-03-30T11:27:52.686Z</time></trkpt><trkpt lat="43.0608" lon="2.6618467"><ele>162.0</ele><time>2026-03-30T11:27:53.685Z</time></trkpt><trkpt lat="43.0608367" lon="2.6619917"><ele>161.8</ele><time>2026-03-30T11:27:54.685Z</time></trkpt><trkpt lat="43.0608833" lon="2.6621233"><ele>161.6</ele><time>2026-03-30T11:27:55.685Z</time></trkpt><trkpt lat="43.0609517" lon="2.6622383"><ele>161.4</ele><time>2026-03-30T11:27:56.685Z</time></trkpt><trkpt lat="43.0610433" lon="2.6623067"><ele>161.20000000000002</ele><time>2026-03-30T11:27:57.687Z</time></trkpt><trkpt lat="43.0611483" lon="2.6623133"><ele>161.0</ele><time>2026-03-30T11:27:58.684Z</time></trkpt><trkpt lat="43.061255" lon="2.6622517"><ele>161.0</ele><time>2026-03-30T11:27:59.686Z</time></trkpt><trkpt lat="43.0613517" lon="2.6621517"><ele>161.0</ele><time>2026-03-30T11:28:00.685Z</time></trkpt><trkpt lat="43.06144" lon="2.6620467"><ele>161.0</ele><time>2026-03-30T11:28:01.684Z</time></trkpt><trkpt lat="43.0615283" lon="2.661945"><ele>161.0</ele><time>2026-03-30T11:28:02.685Z</time></trkpt><trkpt lat="43.0616183" lon="2.6618417"><ele>163.4</ele><time>2026-03-30T11:28:03.684Z</time></trkpt><trkpt lat="43.0617083" lon="2.661745"><ele>165.8</ele><time>2026-03-30T11:28:04.684Z</time></trkpt><trkpt lat="43.061785" lon="2.6616367"><ele>168.20000000000002</ele><time>2026-03-30T11:28:05.687Z</time></trkpt><trkpt lat="43.0618317" lon="2.6615067"><ele>170.60000000000002</ele><time>2026-03-30T11:28:06.684Z</time></trkpt><trkpt lat="43.0618367" lon="2.6613567"><ele>173.0</ele><time>2026-03-30T11:28:07.684Z</time></trkpt><trkpt lat="43.0618017" lon="2.661205"><ele>173.75</ele><time>2026-03-30T11:28:08.685Z</time></trkpt><trkpt lat="43.0617433" lon="2.6610633"><ele>174.5</ele><time>2026-03-30T11:28:09.687Z</time></trkpt><trkpt lat="43.061675" lon="2.66093"><ele>175.25</ele><time>2026-03-30T11:28:10.685Z</time></trkpt><trkpt lat="43.0616133" lon="2.6608067"><ele>176.0</ele><time>2026-03-30T11:28:11.687Z</time></trkpt><trkpt lat="43.061555" lon="2.6606833"><ele>175.4</ele><time>2026-03-30T11:28:12.688Z</time></trkpt><trkpt lat="43.0615083" lon="2.6605467"><ele>174.8</ele><time>2026-03-30T11:28:13.685Z</time></trkpt><trkpt lat="43.0614767" lon="2.6604083"><ele>174.20000000000002</ele><time>2026-03-30T11:28:14.686Z</time></trkpt><trkpt lat="43.061455" lon="2.66027"><ele>173.60000000000002</ele><time>2026-03-30T11:28:15.686Z</time></trkpt><trkpt lat="43.0614483" lon="2.6601317"><ele>173.0</ele><time>2026-03-30T11:28:16.684Z</time></trkpt><trkpt lat="43.0614683" lon="2.66"><ele>173.0</ele><time>2026-03-30T11:28:17.686Z</time></trkpt><trkpt lat="43.061505" lon="2.6598767"><ele>173.0</ele><time>2026-03-30T11:28:18.684Z</time></trkpt><trkpt lat="43.06156" lon="2.659755"><ele>173.0</ele><time>2026-03-30T11:28:19.687Z</time></trkpt><trkpt lat="43.0616267" lon="2.659635"><ele>173.0</ele><time>2026-03-30T11:28:20.686Z</time></trkpt><trkpt lat="43.0617" lon="2.65952"><ele>173.0</ele><time>2026-03-30T11:28:21.686Z</time></trkpt><trkpt lat="43.0617783" lon="2.6594117"><ele>177.0</ele><time>2026-03-30T11:28:22.686Z</time></trkpt><trkpt lat="43.0618617" lon="2.659305"><ele>181.0</ele><time>2026-03-30T11:28:23.685Z</time></trkpt><trkpt lat="43.06195" lon="2.6591983"><ele>185.0</ele><time>2026-03-30T11:28:24.685Z</time></trkpt><trkpt lat="43.062045" lon="2.6590983"><ele>189.0</ele><time>2026-03-30T11:28:25.687Z</time></trkpt><trkpt lat="43.062145" lon="2.6590067"><ele>189.0</ele><time>2026-03-30T11:28:26.688Z</time></trkpt><trkpt lat="43.0622533" lon="2.6589233"><ele>189.0</ele><time>2026-03-30T11:28:27.685Z</time></trkpt><trkpt lat="43.06236" lon="2.658835"><ele>189.0</ele><time>2026-03-30T11:28:28.686Z</time></trkpt><trkpt lat="43.0624667" lon="2.6587383"><ele>189.0</ele><time>2026-03-30T11:28:29.685Z</time></trkpt><trkpt lat="43.0625717" lon="2.6586383"><ele>189.25</ele><time>2026-03-30T11:28:30.687Z</time></trkpt><trkpt lat="43.0626783" lon="2.6585383"><ele>189.5</ele><time>2026-03-30T11:28:31.685Z</time></trkpt><trkpt lat="43.0627867" lon="2.6584417"><ele>189.75</ele><time>2026-03-30T11:28:32.686Z</time></trkpt><trkpt lat="43.0628983" lon="2.658345"><ele>190.0</ele><time>2026-03-30T11:28:33.686Z</time></trkpt><trkpt lat="43.063" lon="2.658245"><ele>190.0</ele><time>2026-03-30T11:28:34.688Z</time></trkpt><trkpt lat="43.0630967" lon="2.6581333"><ele>190.0</ele><time>2026-03-30T11:28:35.687Z</time></trkpt><trkpt lat="43.0631783" lon="2.657995"><ele>190.0</ele><time>2026-03-30T11:28:36.687Z</time></trkpt><trkpt lat="43.0632367" lon="2.6578417"><ele>190.0</ele><time>2026-03-30T11:28:37.685Z</time></trkpt><trkpt lat="43.0632867" lon="2.6576733"><ele>191.25</ele><time>2026-03-30T11:28:38.687Z</time></trkpt><trkpt lat="43.0633317" lon="2.6575117"><ele>192.5</ele><time>2026-03-30T11:28:39.684Z</time></trkpt><trkpt lat="43.0633767" lon="2.6573633"><ele>193.75</ele><time>2026-03-30T11:28:40.686Z</time></trkpt><trkpt lat="43.063425" lon="2.657215"><ele>195.0</ele><time>2026-03-30T11:28:41.685Z</time></trkpt><trkpt lat="43.063475" lon="2.657065"><ele>196.25</ele><time>2026-03-30T11:28:42.685Z</time></trkpt><trkpt lat="43.0635283" lon="2.6569233"><ele>197.5</ele><time>2026-03-30T11:28:43.687Z</time></trkpt><trkpt lat="43.06359" lon="2.6567933"><ele>198.75</ele><time>2026-03-30T11:28:44.687Z</time></trkpt><trkpt lat="43.0636683" lon="2.6566783"><ele>200.0</ele><time>2026-03-30T11:28:45.685Z</time></trkpt><trkpt lat="43.0637633" lon="2.6565883"><ele>200.0</ele><time>2026-03-30T11:28:46.688Z</time></trkpt><trkpt lat="43.0638667" lon="2.656515"><ele>200.0</ele><time>2026-03-30T11:28:47.685Z</time></trkpt><trkpt lat="43.063975" lon="2.6564633"><ele>200.0</ele><time>2026-03-30T11:28:48.689Z</time></trkpt><trkpt lat="43.0640867" lon="2.6564633"><ele>200.0</ele><time>2026-03-30T11:28:49.686Z</time></trkpt><trkpt lat="43.064185" lon="2.656535"><ele>200.75</ele><time>2026-03-30T11:28:50.686Z</time></trkpt><trkpt lat="43.0642467" lon="2.6566733"><ele>201.5</ele><time>2026-03-30T11:28:51.685Z</time></trkpt><trkpt lat="43.0642883" lon="2.6568333"><ele>202.25</ele><time>2026-03-30T11:28:52.686Z</time></trkpt><trkpt lat="43.0643267" lon="2.6569917"><ele>203.0</ele><time>2026-03-30T11:28:53.685Z</time></trkpt><trkpt lat="43.064365" lon="2.6571483"><ele>203.0</ele><time>2026-03-30T11:28:54.686Z</time></trkpt><trkpt lat="43.0643767" lon="2.6573067"><ele>203.0</ele><time>2026-03-30T11:28:55.686Z</time></trkpt><trkpt lat="43.0643767" lon="2.6574683"><ele>203.0</ele><time>2026-03-30T11:28:56.685Z</time></trkpt><trkpt lat="43.064385" lon="2.65763"><ele>203.0</ele><time>2026-03-30T11:28:57.684Z</time></trkpt><trkpt lat="43.0643933" lon="2.65779"><ele>203.0</ele><time>2026-03-30T11:28:58.687Z</time></trkpt><trkpt lat="43.06438" lon="2.6579467"><ele>203.0</ele><time>2026-03-30T11:28:59.684Z</time></trkpt><trkpt lat="43.0643317" lon="2.65809"><ele>203.0</ele><time>2026-03-30T11:29:00.687Z</time></trkpt><trkpt lat="43.0642833" lon="2.6582317"><ele>203.0</ele><time>2026-03-30T11:29:01.686Z</time></trkpt><trkpt lat="43.064235" lon="2.6583667"><ele>203.0</ele><time>2026-03-30T11:29:02.685Z</time></trkpt><trkpt lat="43.0641967" lon="2.6585017"><ele>203.0</ele><time>2026-03-30T11:29:03.691Z</time></trkpt><trkpt lat="43.0641667" lon="2.6586317"><ele>203.0</ele><time>2026-03-30T11:29:04.685Z</time></trkpt><trkpt lat="43.0641717" lon="2.6587583"><ele>203.0</ele><time>2026-03-30T11:29:05.685Z</time></trkpt><trkpt lat="43.0642067" lon="2.6588867"><ele>203.0</ele><time>2026-03-30T11:29:06.685Z</time></trkpt><trkpt lat="43.0642617" lon="2.659015"><ele>203.0</ele><time>2026-03-30T11:29:07.684Z</time></trkpt><trkpt lat="43.0643283" lon="2.6591367"><ele>203.0</ele><time>2026-03-30T11:29:08.686Z</time></trkpt><trkpt lat="43.064405" lon="2.6592517"><ele>203.0</ele><time>2026-03-30T11:29:09.685Z</time></trkpt><trkpt lat="43.0644883" lon="2.6593583"><ele>203.0</ele><time>2026-03-30T11:29:10.685Z</time></trkpt><trkpt lat="43.0645717" lon="2.6594567"><ele>203.0</ele><time>2026-03-30T11:29:11.685Z</time></trkpt><trkpt lat="43.064655" lon="2.65955"><ele>204.60000000000002</ele><time>2026-03-30T11:29:12.685Z</time></trkpt><trkpt lat="43.0647383" lon="2.6596317"><ele>206.20000000000002</ele><time>2026-03-30T11:29:13.684Z</time></trkpt><trkpt lat="43.0648167" lon="2.659705"><ele>207.8</ele><time>2026-03-30T11:29:14.685Z</time></trkpt><trkpt lat="43.0648933" lon="2.6597633"><ele>209.4</ele><time>2026-03-30T11:29:15.685Z</time></trkpt><trkpt lat="43.06497" lon="2.65982"><ele>211.0</ele><time>2026-03-30T11:29:16.685Z</time></trkpt><trkpt lat="43.0650483" lon="2.659845"><ele>211.16666666666666</ele><time>2026-03-30T11:29:17.685Z</time></trkpt><trkpt lat="43.0651333" lon="2.6598483"><ele>211.33333333333331</ele><time>2026-03-30T11:29:18.685Z</time></trkpt><trkpt lat="43.0652183" lon="2.6598233"><ele>211.5</ele><time>2026-03-30T11:29:19.685Z</time></trkpt><trkpt lat="43.0653083" lon="2.6597667"><ele>211.66666666666669</ele><time>2026-03-30T11:29:20.686Z</time></trkpt><trkpt lat="43.0653917" lon="2.6597083"><ele>211.83333333333334</ele><time>2026-03-30T11:29:21.686Z</time></trkpt><trkpt lat="43.065465" lon="2.65966"><ele>212.0</ele><time>2026-03-30T11:29:22.685Z</time></trkpt><trkpt lat="43.0655217" lon="2.659615"><ele>212.0</ele><time>2026-03-30T11:29:23.685Z</time></trkpt><trkpt lat="43.0655883" lon="2.6594933"><ele>212.0</ele><time>2026-03-30T11:29:25.685Z</time></trkpt><trkpt lat="43.06558" lon="2.6593233"><ele>212.0</ele><time>2026-03-30T11:29:27.684Z</time></trkpt><trkpt lat="43.065545" lon="2.6592317"><ele>212.0</ele><time>2026-03-30T11:29:28.685Z</time></trkpt><trkpt lat="43.0655117" lon="2.6591317"><ele>212.0</ele><time>2026-03-30T11:29:29.687Z</time></trkpt><trkpt lat="43.0654967" lon="2.6590133"><ele>212.33333333333334</ele><time>2026-03-30T11:29:30.684Z</time></trkpt><trkpt lat="43.0654867" lon="2.6588967"><ele>212.66666666666669</ele><time>2026-03-30T11:29:31.688Z</time></trkpt><trkpt lat="43.0654633" lon="2.6587817"><ele>213.0</ele><time>2026-03-30T11:29:32.688Z</time></trkpt><trkpt lat="43.06543" lon="2.658675"><ele>213.33333333333331</ele><time>2026-03-30T11:29:33.685Z</time></trkpt><trkpt lat="43.0653717" lon="2.6585833"><ele>213.66666666666666</ele><time>2026-03-30T11:29:34.686Z</time></trkpt><trkpt lat="43.06529" lon="2.6585067"><ele>214.0</ele><time>2026-03-30T11:29:35.687Z</time></trkpt><trkpt lat="43.065205" lon="2.658435"><ele>214.66666666666666</ele><time>2026-03-30T11:29:36.684Z</time></trkpt><trkpt lat="43.0651267" lon="2.6583817"><ele>215.33333333333331</ele><time>2026-03-30T11:29:37.685Z</time></trkpt><trkpt lat="43.0650583" lon="2.6583367"><ele>216.0</ele><time>2026-03-30T11:29:38.687Z</time></trkpt><trkpt lat="43.065005" lon="2.658285"><ele>216.66666666666669</ele><time>2026-03-30T11:29:39.686Z</time></trkpt><trkpt lat="43.064955" lon="2.6581733"><ele>217.33333333333334</ele><time>2026-03-30T11:29:41.685Z</time></trkpt><trkpt lat="43.0649767" lon="2.6580783"><ele>218.0</ele><time>2026-03-30T11:29:42.686Z</time></trkpt><trkpt lat="43.065015" lon="2.6579633"><ele>218.0</ele><time>2026-03-30T11:29:43.686Z</time></trkpt><trkpt lat="43.0650583" lon="2.6578433"><ele>218.0</ele><time>2026-03-30T11:29:44.685Z</time></trkpt><trkpt lat="43.0650983" lon="2.6577183"><ele>218.0</ele><time>2026-03-30T11:29:45.685Z</time></trkpt><trkpt lat="43.0651317" lon="2.6575917"><ele>218.0</ele><time>2026-03-30T11:29:46.685Z</time></trkpt><trkpt lat="43.0651633" lon="2.6574617"><ele>218.0</ele><time>2026-03-30T11:29:47.687Z</time></trkpt><trkpt lat="43.0651883" lon="2.657325"><ele>218.0</ele><time>2026-03-30T11:29:48.686Z</time></trkpt><trkpt lat="43.0652067" lon="2.6571867"><ele>218.0</ele><time>2026-03-30T11:29:49.685Z</time></trkpt><trkpt lat="43.0652067" lon="2.6570383"><ele>218.0</ele><time>2026-03-30T11:29:50.688Z</time></trkpt><trkpt lat="43.0652017" lon="2.6568817"><ele>218.0</ele><time>2026-03-30T11:29:51.686Z</time></trkpt><trkpt lat="43.0651983" lon="2.65672"><ele>218.0</ele><time>2026-03-30T11:29:52.685Z</time></trkpt><trkpt lat="43.0651983" lon="2.6565667"><ele>219.2</ele><time>2026-03-30T11:29:53.685Z</time></trkpt><trkpt lat="43.0651983" lon="2.656415"><ele>220.4</ele><time>2026-03-30T11:29:54.686Z</time></trkpt><trkpt lat="43.0651967" lon="2.6562667"><ele>221.59999999999997</ele><time>2026-03-30T11:29:55.685Z</time></trkpt><trkpt lat="43.0651983" lon="2.6561233"><ele>222.79999999999998</ele><time>2026-03-30T11:29:56.685Z</time></trkpt><trkpt lat="43.0652" lon="2.6559917"><ele>224.0</ele><time>2026-03-30T11:29:57.685Z</time></trkpt><trkpt lat="43.0652033" lon="2.6558667"><ele>224.42857142857144</ele><time>2026-03-30T11:29:58.685Z</time></trkpt><trkpt lat="43.0652033" lon="2.6557583"><ele>224.85714285714286</ele><time>2026-03-30T11:29:59.685Z</time></trkpt><trkpt lat="43.0651983" lon="2.6556617"><ele>225.28571428571428</ele><time>2026-03-30T11:30:00.686Z</time></trkpt><trkpt lat="43.065185" lon="2.6555767"><ele>225.71428571428572</ele><time>2026-03-30T11:30:01.685Z</time></trkpt><trkpt lat="43.06516" lon="2.6554967"><ele>226.14285714285717</ele><time>2026-03-30T11:30:02.686Z</time></trkpt><trkpt lat="43.065115" lon="2.6554233"><ele>226.57142857142858</ele><time>2026-03-30T11:30:03.685Z</time></trkpt><trkpt lat="43.065065" lon="2.655345"><ele>227.0</ele><time>2026-03-30T11:30:04.69Z</time></trkpt><trkpt lat="43.0650083" lon="2.6552383"><ele>227.8</ele><time>2026-03-30T11:30:05.686Z</time></trkpt><trkpt lat="43.064955" lon="2.65512"><ele>228.6</ele><time>2026-03-30T11:30:06.687Z</time></trkpt><trkpt lat="43.064915" lon="2.6549867"><ele>229.40000000000003</ele><time>2026-03-30T11:30:07.687Z</time></trkpt><trkpt lat="43.06488" lon="2.65485"><ele>230.20000000000002</ele><time>2026-03-30T11:30:08.687Z</time></trkpt><trkpt lat="43.0648433" lon="2.6547217"><ele>231.0</ele><time>2026-03-30T11:30:09.687Z</time></trkpt><trkpt lat="43.0648" lon="2.6546033"><ele>231.0</ele><time>2026-03-30T11:30:10.686Z</time></trkpt><trkpt lat="43.0647783" lon="2.65452"><ele>231.0</ele><time>2026-03-30T11:30:11.685Z</time></trkpt><trkpt lat="43.06477" lon="2.6544333"><ele>231.0</ele><time>2026-03-30T11:30:12.685Z</time></trkpt><trkpt lat="43.064835" lon="2.6542833"><ele>231.0</ele><time>2026-03-30T11:30:14.688Z</time></trkpt><trkpt lat="43.0649" lon="2.65421"><ele>231.0</ele><time>2026-03-30T11:30:15.685Z</time></trkpt><trkpt lat="43.06496" lon="2.6541117"><ele>231.0</ele><time>2026-03-30T11:30:16.685Z</time></trkpt><trkpt lat="43.0649967" lon="2.6539883"><ele>231.8</ele><time>2026-03-30T11:30:17.685Z</time></trkpt><trkpt lat="43.06501" lon="2.6538633"><ele>232.60000000000002</ele><time>2026-03-30T11:30:18.684Z</time></trkpt><trkpt lat="43.0650067" lon="2.653735"><ele>233.4</ele><time>2026-03-30T11:30:19.686Z</time></trkpt><trkpt lat="43.06499" lon="2.6536067"><ele>234.2</ele><time>2026-03-30T11:30:20.686Z</time></trkpt><trkpt lat="43.0649583" lon="2.653465"><ele>235.0</ele><time>2026-03-30T11:30:21.684Z</time></trkpt><trkpt lat="43.0649267" lon="2.6533167"><ele>232.75</ele><time>2026-03-30T11:30:22.686Z</time></trkpt><trkpt lat="43.0648967" lon="2.653165"><ele>230.5</ele><time>2026-03-30T11:30:23.685Z</time></trkpt><trkpt lat="43.06487" lon="2.6530117"><ele>228.25</ele><time>2026-03-30T11:30:24.686Z</time></trkpt><trkpt lat="43.0648517" lon="2.652855"><ele>226.0</ele><time>2026-03-30T11:30:25.686Z</time></trkpt><trkpt lat="43.0648483" lon="2.6526983"><ele>226.0</ele><time>2026-03-30T11:30:26.686Z</time></trkpt><trkpt lat="43.0648617" lon="2.65254"><ele>226.0</ele><time>2026-03-30T11:30:27.686Z</time></trkpt><trkpt lat="43.064875" lon="2.6523783"><ele>226.0</ele><time>2026-03-30T11:30:28.685Z</time></trkpt><trkpt lat="43.06488" lon="2.652215"><ele>226.0</ele><time>2026-03-30T11:30:29.685Z</time></trkpt><trkpt lat="43.0648783" lon="2.652045"><ele>226.75</ele><time>2026-03-30T11:30:30.686Z</time></trkpt><trkpt lat="43.064875" lon="2.6518717"><ele>227.5</ele><time>2026-03-30T11:30:31.685Z</time></trkpt><trkpt lat="43.0648733" lon="2.6516967"><ele>228.25</ele><time>2026-03-30T11:30:32.686Z</time></trkpt><trkpt lat="43.0648767" lon="2.65152"><ele>229.0</ele><time>2026-03-30T11:30:33.685Z</time></trkpt><trkpt lat="43.0648817" lon="2.6513433"><ele>229.0</ele><time>2026-03-30T11:30:34.686Z</time></trkpt><trkpt lat="43.06488" lon="2.6511667"><ele>229.0</ele><time>2026-03-30T11:30:35.685Z</time></trkpt><trkpt lat="43.0648717" lon="2.6509917"><ele>229.0</ele><time>2026-03-30T11:30:36.689Z</time></trkpt><trkpt lat="43.0648633" lon="2.6508283"><ele>229.0</ele><time>2026-03-30T11:30:37.687Z</time></trkpt><trkpt lat="43.0648633" lon="2.6506817"><ele>229.16666666666666</ele><time>2026-03-30T11:30:38.686Z</time></trkpt><trkpt lat="43.0648717" lon="2.6505517"><ele>229.33333333333331</ele><time>2026-03-30T11:30:39.685Z</time></trkpt><trkpt lat="43.0648933" lon="2.6504417"><ele>229.5</ele><time>2026-03-30T11:30:40.686Z</time></trkpt><trkpt lat="43.06493" lon="2.6503533"><ele>229.66666666666669</ele><time>2026-03-30T11:30:41.685Z</time></trkpt><trkpt lat="43.0649833" lon="2.6502867"><ele>229.83333333333334</ele><time>2026-03-30T11:30:42.684Z</time></trkpt><trkpt lat="43.06505" lon="2.6502417"><ele>230.0</ele><time>2026-03-30T11:30:43.686Z</time></trkpt><trkpt lat="43.06512" lon="2.6502067"><ele>233.33333333333334</ele><time>2026-03-30T11:30:44.687Z</time></trkpt><trkpt lat="43.0651933" lon="2.6501717"><ele>236.66666666666669</ele><time>2026-03-30T11:30:45.684Z</time></trkpt><trkpt lat="43.0652683" lon="2.6501433"><ele>240.0</ele><time>2026-03-30T11:30:46.685Z</time></trkpt><trkpt lat="43.065335" lon="2.6501217"><ele>243.33333333333331</ele><time>2026-03-30T11:30:47.685Z</time></trkpt><trkpt lat="43.0654067" lon="2.6501117"><ele>246.66666666666666</ele><time>2026-03-30T11:30:48.69Z</time></trkpt><trkpt lat="43.0654917" lon="2.6501017"><ele>250.0</ele><time>2026-03-30T11:30:49.685Z</time></trkpt><trkpt lat="43.0655783" lon="2.6500817"><ele>249.99999999999997</ele><time>2026-03-30T11:30:50.688Z</time></trkpt><trkpt lat="43.0656583" lon="2.65005"><ele>250.0</ele><time>2026-03-30T11:30:51.69Z</time></trkpt><trkpt lat="43.0657317" lon="2.650005"><ele>250.0</ele><time>2026-03-30T11:30:52.684Z</time></trkpt><trkpt lat="43.06579" lon="2.6499517"><ele>250.0</ele><time>2026-03-30T11:30:53.685Z</time></trkpt><trkpt lat="43.0658433" lon="2.6498967"><ele>249.99999999999997</ele><time>2026-03-30T11:30:54.686Z</time></trkpt><trkpt lat="43.065915" lon="2.6497783"><ele>250.0</ele><time>2026-03-30T11:30:56.685Z</time></trkpt><trkpt lat="43.0659583" lon="2.6496233"><ele>250.33333333333331</ele><time>2026-03-30T11:30:58.685Z</time></trkpt><trkpt lat="43.0659717" lon="2.64953"><ele>250.66666666666666</ele><time>2026-03-30T11:30:59.686Z</time></trkpt><trkpt lat="43.0659717" lon="2.6494283"><ele>251.0</ele><time>2026-03-30T11:31:00.688Z</time></trkpt><trkpt lat="43.0659717" lon="2.649325"><ele>251.33333333333331</ele><time>2026-03-30T11:31:01.686Z</time></trkpt><trkpt lat="43.0659733" lon="2.649215"><ele>251.66666666666666</ele><time>2026-03-30T11:31:02.691Z</time></trkpt><trkpt lat="43.0659767" lon="2.6491033"><ele>252.0</ele><time>2026-03-30T11:31:03.687Z</time></trkpt><trkpt lat="43.0659783" lon="2.6489867"><ele>252.83333333333334</ele><time>2026-03-30T11:31:04.688Z</time></trkpt><trkpt lat="43.06598" lon="2.6488683"><ele>253.66666666666669</ele><time>2026-03-30T11:31:05.685Z</time></trkpt><trkpt lat="43.0659733" lon="2.6487517"><ele>254.5</ele><time>2026-03-30T11:31:06.686Z</time></trkpt><trkpt lat="43.0659617" lon="2.648635"><ele>255.33333333333334</ele><time>2026-03-30T11:31:07.688Z</time></trkpt><trkpt lat="43.0659517" lon="2.6485183"><ele>256.1666666666667</ele><time>2026-03-30T11:31:08.686Z</time></trkpt><trkpt lat="43.06594" lon="2.6484033"><ele>257.0</ele><time>2026-03-30T11:31:09.688Z</time></trkpt><trkpt lat="43.0659217" lon="2.648285"><ele>257.0</ele><time>2026-03-30T11:31:10.687Z</time></trkpt><trkpt lat="43.0659083" lon="2.6481667"><ele>257.0</ele><time>2026-03-30T11:31:11.685Z</time></trkpt><trkpt lat="43.0658917" lon="2.64805"><ele>257.0</ele><time>2026-03-30T11:31:12.686Z</time></trkpt><trkpt lat="43.065875" lon="2.6479333"><ele>257.0</ele><time>2026-03-30T11:31:13.688Z</time></trkpt><trkpt lat="43.0658567" lon="2.6478183"><ele>257.0</ele><time>2026-03-30T11:31:14.686Z</time></trkpt><trkpt lat="43.065845" lon="2.6477067"><ele>257.0</ele><time>2026-03-30T11:31:15.685Z</time></trkpt><trkpt lat="43.0658367" lon="2.6475917"><ele>256.8</ele><time>2026-03-30T11:31:16.689Z</time></trkpt><trkpt lat="43.0658283" lon="2.647465"><ele>256.6</ele><time>2026-03-30T11:31:17.687Z</time></trkpt><trkpt lat="43.065815" lon="2.6473367"><ele>256.40000000000003</ele><time>2026-03-30T11:31:18.688Z</time></trkpt><trkpt lat="43.0657883" lon="2.647205"><ele>256.2</ele><time>2026-03-30T11:31:19.685Z</time></trkpt><trkpt lat="43.0657517" lon="2.6470767"><ele>256.0</ele><time>2026-03-30T11:31:20.688Z</time></trkpt><trkpt lat="43.0657167" lon="2.64695"><ele>255.66666666666666</ele><time>2026-03-30T11:31:21.685Z</time></trkpt><trkpt lat="43.0656817" lon="2.6468317"><ele>255.33333333333331</ele><time>2026-03-30T11:31:22.686Z</time></trkpt><trkpt lat="43.0656517" lon="2.6467283"><ele>255.0</ele><time>2026-03-30T11:31:23.686Z</time></trkpt><trkpt lat="43.0656133" lon="2.64664"><ele>254.66666666666669</ele><time>2026-03-30T11:31:24.685Z</time></trkpt><trkpt lat="43.06556" lon="2.64656"><ele>254.33333333333334</ele><time>2026-03-30T11:31:25.686Z</time></trkpt><trkpt lat="43.065495" lon="2.6464967"><ele>254.0</ele><time>2026-03-30T11:31:26.686Z</time></trkpt><trkpt lat="43.0654167" lon="2.64645"><ele>254.0</ele><time>2026-03-30T11:31:27.686Z</time></trkpt><trkpt lat="43.06533" lon="2.6464083"><ele>253.99999999999997</ele><time>2026-03-30T11:31:28.686Z</time></trkpt><trkpt lat="43.0652367" lon="2.6463717"><ele>253.99999999999997</ele><time>2026-03-30T11:31:29.685Z</time></trkpt><trkpt lat="43.0651367" lon="2.6463317"><ele>254.0</ele><time>2026-03-30T11:31:30.686Z</time></trkpt><trkpt lat="43.06503" lon="2.6462883"><ele>254.0</ele><time>2026-03-30T11:31:31.687Z</time></trkpt><trkpt lat="43.0649317" lon="2.6462417"><ele>253.66666666666669</ele><time>2026-03-30T11:31:32.687Z</time></trkpt><trkpt lat="43.0648467" lon="2.6462083"><ele>253.33333333333334</ele><time>2026-03-30T11:31:33.685Z</time></trkpt><trkpt lat="43.0647717" lon="2.646185"><ele>253.0</ele><time>2026-03-30T11:31:34.685Z</time></trkpt><trkpt lat="43.0647083" lon="2.6461433"><ele>252.66666666666669</ele><time>2026-03-30T11:31:35.684Z</time></trkpt><trkpt lat="43.0646633" lon="2.646075"><ele>252.33333333333334</ele><time>2026-03-30T11:31:36.684Z</time></trkpt><trkpt lat="43.06466" lon="2.6459667"><ele>252.0</ele><time>2026-03-30T11:31:37.686Z</time></trkpt><trkpt lat="43.0646517" lon="2.6458533"><ele>253.39999999999998</ele><time>2026-03-30T11:31:38.686Z</time></trkpt><trkpt lat="43.0646583" lon="2.6457383"><ele>254.79999999999998</ele><time>2026-03-30T11:31:39.685Z</time></trkpt><trkpt lat="43.0646683" lon="2.6456133"><ele>256.2</ele><time>2026-03-30T11:31:40.685Z</time></trkpt><trkpt lat="43.06468" lon="2.6454917"><ele>257.59999999999997</ele><time>2026-03-30T11:31:41.685Z</time></trkpt><trkpt lat="43.06469" lon="2.64537"><ele>259.0</ele><time>2026-03-30T11:31:42.684Z</time></trkpt><trkpt lat="43.0647033" lon="2.6452417"><ele>260.2</ele><time>2026-03-30T11:31:43.685Z</time></trkpt><trkpt lat="43.06473" lon="2.6451183"><ele>261.4</ele><time>2026-03-30T11:31:44.69Z</time></trkpt><trkpt lat="43.0647667" lon="2.644995"><ele>262.6</ele><time>2026-03-30T11:31:45.685Z</time></trkpt><trkpt lat="43.0647983" lon="2.644875"><ele>263.8</ele><time>2026-03-30T11:31:46.686Z</time></trkpt><trkpt lat="43.06482" lon="2.64476"><ele>265.0</ele><time>2026-03-30T11:31:47.685Z</time></trkpt><trkpt lat="43.0648217" lon="2.64465"><ele>264.99999999999994</ele><time>2026-03-30T11:31:48.686Z</time></trkpt><trkpt lat="43.0648133" lon="2.64454"><ele>265.0</ele><time>2026-03-30T11:31:49.684Z</time></trkpt><trkpt lat="43.0648083" lon="2.6444367"><ele>265.0</ele><time>2026-03-30T11:31:50.686Z</time></trkpt><trkpt lat="43.064815" lon="2.644335"><ele>265.0</ele><time>2026-03-30T11:31:51.687Z</time></trkpt><trkpt lat="43.06485" lon="2.6442533"><ele>265.0</ele><time>2026-03-30T11:31:52.686Z</time></trkpt><trkpt lat="43.0648767" lon="2.6441667"><ele>264.99999999999994</ele><time>2026-03-30T11:31:53.686Z</time></trkpt><trkpt lat="43.06489" lon="2.6440683"><ele>265.0</ele><time>2026-03-30T11:31:54.686Z</time></trkpt><trkpt lat="43.064885" lon="2.6439667"><ele>265.85714285714283</ele><time>2026-03-30T11:31:55.684Z</time></trkpt><trkpt lat="43.0648667" lon="2.6438683"><ele>266.7142857142857</ele><time>2026-03-30T11:31:56.686Z</time></trkpt><trkpt lat="43.0648383" lon="2.64378"><ele>267.57142857142856</ele><time>2026-03-30T11:31:57.685Z</time></trkpt><trkpt lat="43.0647983" lon="2.643705"><ele>268.42857142857144</ele><time>2026-03-30T11:31:58.689Z</time></trkpt><trkpt lat="43.0647617" lon="2.6436333"><ele>269.2857142857143</ele><time>2026-03-30T11:31:59.686Z</time></trkpt><trkpt lat="43.064735" lon="2.6435533"><ele>270.1428571428571</ele><time>2026-03-30T11:32:00.686Z</time></trkpt><trkpt lat="43.0647317" lon="2.64341"><ele>271.0</ele><time>2026-03-30T11:32:02.686Z</time></trkpt><trkpt lat="43.0647817" lon="2.6433333"><ele>271.0</ele><time>2026-03-30T11:32:06.685Z</time></trkpt><trkpt lat="43.0648717" lon="2.6432533"><ele>271.0</ele><time>2026-03-30T11:32:08.685Z</time></trkpt><trkpt lat="43.064935" lon="2.6432133"><ele>271.0</ele><time>2026-03-30T11:32:09.685Z</time></trkpt><trkpt lat="43.065" lon="2.6431633"><ele>271.0</ele><time>2026-03-30T11:32:10.686Z</time></trkpt><trkpt lat="43.0650567" lon="2.6431017"><ele>271.0</ele><time>2026-03-30T11:32:11.687Z</time></trkpt><trkpt lat="43.065105" lon="2.6430267"><ele>271.0</ele><time>2026-03-30T11:32:12.685Z</time></trkpt><trkpt lat="43.0651417" lon="2.6429333"><ele>269.66666666666663</ele><time>2026-03-30T11:32:13.688Z</time></trkpt><trkpt lat="43.06517" lon="2.6428283"><ele>268.3333333333333</ele><time>2026-03-30T11:32:14.688Z</time></trkpt><trkpt lat="43.0651967" lon="2.6427233"><ele>267.0</ele><time>2026-03-30T11:32:15.687Z</time></trkpt><trkpt lat="43.0652283" lon="2.6426317"><ele>265.6666666666667</ele><time>2026-03-30T11:32:16.686Z</time></trkpt><trkpt lat="43.06526" lon="2.64254"><ele>264.33333333333337</ele><time>2026-03-30T11:32:17.686Z</time></trkpt><trkpt lat="43.065285" lon="2.642445"><ele>263.0</ele><time>2026-03-30T11:32:18.686Z</time></trkpt><trkpt lat="43.0652983" lon="2.6423483"><ele>263.0</ele><time>2026-03-30T11:32:19.687Z</time></trkpt><trkpt lat="43.0652983" lon="2.642245"><ele>263.0</ele><time>2026-03-30T11:32:20.686Z</time></trkpt><trkpt lat="43.06529" lon="2.6421383"><ele>263.0</ele><time>2026-03-30T11:32:21.687Z</time></trkpt><trkpt lat="43.0652833" lon="2.6420383"><ele>263.0</ele><time>2026-03-30T11:32:22.687Z</time></trkpt><trkpt lat="43.0652683" lon="2.6419467"><ele>263.0</ele><time>2026-03-30T11:32:23.686Z</time></trkpt><trkpt lat="43.0652467" lon="2.6418533"><ele>263.0</ele><time>2026-03-30T11:32:24.689Z</time></trkpt><trkpt lat="43.0652183" lon="2.6417633"><ele>263.0</ele><time>2026-03-30T11:32:25.688Z</time></trkpt><trkpt lat="43.0651933" lon="2.6416717"><ele>263.83333333333337</ele><time>2026-03-30T11:32:26.686Z</time></trkpt><trkpt lat="43.06517" lon="2.6415733"><ele>264.6666666666667</ele><time>2026-03-30T11:32:27.686Z</time></trkpt><trkpt lat="43.065155" lon="2.6414717"><ele>265.5</ele><time>2026-03-30T11:32:28.686Z</time></trkpt><trkpt lat="43.0651367" lon="2.6413667"><ele>266.3333333333333</ele><time>2026-03-30T11:32:29.685Z</time></trkpt><trkpt lat="43.06511" lon="2.641255"><ele>267.16666666666663</ele><time>2026-03-30T11:32:30.685Z</time></trkpt><trkpt lat="43.065075" lon="2.64115"><ele>268.0</ele><time>2026-03-30T11:32:31.686Z</time></trkpt><trkpt lat="43.0650433" lon="2.64106"><ele>268.3333333333333</ele><time>2026-03-30T11:32:32.685Z</time></trkpt><trkpt lat="43.0650267" lon="2.6409667"><ele>268.66666666666663</ele><time>2026-03-30T11:32:33.687Z</time></trkpt><trkpt lat="43.065025" lon="2.6408667"><ele>269.0</ele><time>2026-03-30T11:32:34.686Z</time></trkpt><trkpt lat="43.065035" lon="2.6407567"><ele>269.3333333333333</ele><time>2026-03-30T11:32:35.686Z</time></trkpt><trkpt lat="43.06505" lon="2.6406417"><ele>269.6666666666667</ele><time>2026-03-30T11:32:36.687Z</time></trkpt><trkpt lat="43.0650683" lon="2.6405317"><ele>270.0</ele><time>2026-03-30T11:32:37.685Z</time></trkpt><trkpt lat="43.065085" lon="2.6404333"><ele>270.0</ele><time>2026-03-30T11:32:38.686Z</time></trkpt><trkpt lat="43.0651" lon="2.64034"><ele>270.0</ele><time>2026-03-30T11:32:39.687Z</time></trkpt><trkpt lat="43.0651083" lon="2.6402433"><ele>270.0</ele><time>2026-03-30T11:32:40.685Z</time></trkpt><trkpt lat="43.0651117" lon="2.6401517"><ele>270.0</ele><time>2026-03-30T11:32:41.686Z</time></trkpt><trkpt lat="43.065105" lon="2.6400633"><ele>270.0</ele><time>2026-03-30T11:32:42.687Z</time></trkpt><trkpt lat="43.0650967" lon="2.63992"><ele>270.0</ele><time>2026-03-30T11:32:44.686Z</time></trkpt><trkpt lat="43.0651617" lon="2.63985"><ele>270.6</ele><time>2026-03-30T11:32:47.686Z</time></trkpt><trkpt lat="43.065225" lon="2.6397683"><ele>271.2</ele><time>2026-03-30T11:32:49.685Z</time></trkpt><trkpt lat="43.06533" lon="2.6396667"><ele>271.8</ele><time>2026-03-30T11:32:51.687Z</time></trkpt><trkpt lat="43.0653933" lon="2.6396083"><ele>272.4</ele><time>2026-03-30T11:32:52.686Z</time></trkpt><trkpt lat="43.0654567" lon="2.6395433"><ele>273.0</ele><time>2026-03-30T11:32:53.685Z</time></trkpt><trkpt lat="43.0655267" lon="2.6394683"><ele>273.3333333333333</ele><time>2026-03-30T11:32:54.685Z</time></trkpt><trkpt lat="43.065595" lon="2.6393867"><ele>273.6666666666667</ele><time>2026-03-30T11:32:55.685Z</time></trkpt><trkpt lat="43.0656583" lon="2.639305"><ele>274.0</ele><time>2026-03-30T11:32:56.686Z</time></trkpt><trkpt lat="43.0657083" lon="2.6392267"><ele>274.33333333333337</ele><time>2026-03-30T11:32:57.685Z</time></trkpt><trkpt lat="43.0657633" lon="2.639155"><ele>274.6666666666667</ele><time>2026-03-30T11:32:58.685Z</time></trkpt><trkpt lat="43.0658233" lon="2.6390917"><ele>275.0</ele><time>2026-03-30T11:32:59.685Z</time></trkpt><trkpt lat="43.0658833" lon="2.6390467"><ele>274.57142857142856</ele><time>2026-03-30T11:33:00.685Z</time></trkpt><trkpt lat="43.0659417" lon="2.6389967"><ele>274.1428571428571</ele><time>2026-03-30T11:33:01.685Z</time></trkpt><trkpt lat="43.0659917" lon="2.6389317"><ele>273.71428571428567</ele><time>2026-03-30T11:33:02.689Z</time></trkpt><trkpt lat="43.06604" lon="2.63886"><ele>273.2857142857143</ele><time>2026-03-30T11:33:03.688Z</time></trkpt><trkpt lat="43.0660833" lon="2.638795"><ele>272.85714285714283</ele><time>2026-03-30T11:33:04.685Z</time></trkpt><trkpt lat="43.06613" lon="2.6387267"><ele>272.4285714285714</ele><time>2026-03-30T11:33:05.685Z</time></trkpt><trkpt lat="43.0661767" lon="2.638665"><ele>272.0</ele><time>2026-03-30T11:33:06.687Z</time></trkpt><trkpt lat="43.0662583" lon="2.6385567"><ele>272.0</ele><time>2026-03-30T11:33:08.688Z</time></trkpt><trkpt lat="43.066345" lon="2.6385133"><ele>272.0</ele><time>2026-03-30T11:33:10.685Z</time></trkpt><trkpt lat="43.0664583" lon="2.6385283"><ele>272.0</ele><time>2026-03-30T11:33:12.686Z</time></trkpt><trkpt lat="43.0665267" lon="2.638565"><ele>272.0</ele><time>2026-03-30T11:33:13.686Z</time></trkpt><trkpt lat="43.0665883" lon="2.6386"><ele>272.0</ele><time>2026-03-30T11:33:14.687Z</time></trkpt><trkpt lat="43.0666537" lon="2.6386267"><ele>272.0</ele><time>2026-03-30T11:33:15.687Z</time></trkpt><trkpt lat="43.066723" lon="2.638645"><ele>270.33333333333337</ele><time>2026-03-30T11:33:16.686Z</time></trkpt><trkpt lat="43.0667959" lon="2.6386533"><ele>268.6666666666667</ele><time>2026-03-30T11:33:17.686Z</time></trkpt><trkpt lat="43.0668711" lon="2.6386514"><ele>267.0</ele><time>2026-03-30T11:33:18.688Z</time></trkpt><trkpt lat="43.0669427" lon="2.6386449"><ele>265.3333333333333</ele><time>2026-03-30T11:33:19.688Z</time></trkpt><trkpt lat="43.0670116" lon="2.638637"><ele>263.66666666666663</ele><time>2026-03-30T11:33:20.686Z</time></trkpt><trkpt lat="43.0670754" lon="2.6386247"><ele>262.0</ele><time>2026-03-30T11:33:21.686Z</time></trkpt><trkpt lat="43.0671718" lon="2.6386082"><ele>261.2</ele><time>2026-03-30T11:33:23.686Z</time></trkpt><trkpt lat="43.0672376" lon="2.6386516"><ele>260.4</ele><time>2026-03-30T11:33:25.686Z</time></trkpt><trkpt lat="43.0672888" lon="2.6387435"><ele>259.6</ele><time>2026-03-30T11:33:27.685Z</time></trkpt><trkpt lat="43.0673309" lon="2.6388619"><ele>258.8</ele><time>2026-03-30T11:33:29.687Z</time></trkpt><trkpt lat="43.0673781" lon="2.638984"><ele>258.0</ele><time>2026-03-30T11:33:31.686Z</time></trkpt><trkpt lat="43.06742" lon="2.639125"><ele>255.33333333333334</ele><time>2026-03-30T11:33:33.686Z</time></trkpt><trkpt lat="43.0674533" lon="2.6393033"><ele>252.66666666666669</ele><time>2026-03-30T11:33:35.686Z</time></trkpt><trkpt lat="43.0674783" lon="2.6394067"><ele>250.0</ele><time>2026-03-30T11:33:36.687Z</time></trkpt><trkpt lat="43.0675" lon="2.6395083"><ele>247.33333333333334</ele><time>2026-03-30T11:33:37.687Z</time></trkpt><trkpt lat="43.0675283" lon="2.6396033"><ele>244.66666666666669</ele><time>2026-03-30T11:33:38.689Z</time></trkpt><trkpt lat="43.06757" lon="2.639685"><ele>242.0</ele><time>2026-03-30T11:33:39.686Z</time></trkpt><trkpt lat="43.067615" lon="2.6397583"><ele>241.16666666666669</ele><time>2026-03-30T11:33:40.686Z</time></trkpt><trkpt lat="43.067665" lon="2.63983"><ele>240.33333333333334</ele><time>2026-03-30T11:33:41.686Z</time></trkpt><trkpt lat="43.0677267" lon="2.6399067"><ele>239.5</ele><time>2026-03-30T11:33:42.686Z</time></trkpt><trkpt lat="43.0677867" lon="2.63998"><ele>238.66666666666669</ele><time>2026-03-30T11:33:43.687Z</time></trkpt><trkpt lat="43.0678517" lon="2.6400717"><ele>237.83333333333334</ele><time>2026-03-30T11:33:44.687Z</time></trkpt><trkpt lat="43.0679117" lon="2.640175"><ele>237.0</ele><time>2026-03-30T11:33:45.69Z</time></trkpt><trkpt lat="43.0679733" lon="2.64027"><ele>236.6</ele><time>2026-03-30T11:33:46.686Z</time></trkpt><trkpt lat="43.0680283" lon="2.6403817"><ele>236.2</ele><time>2026-03-30T11:33:47.687Z</time></trkpt><trkpt lat="43.068075" lon="2.640485"><ele>235.8</ele><time>2026-03-30T11:33:48.688Z</time></trkpt><trkpt lat="43.068125" lon="2.6405917"><ele>235.4</ele><time>2026-03-30T11:33:49.685Z</time></trkpt><trkpt lat="43.06818" lon="2.6407083"><ele>235.0</ele><time>2026-03-30T11:33:50.688Z</time></trkpt><trkpt lat="43.0682317" lon="2.64084"><ele>234.0</ele><time>2026-03-30T11:33:51.686Z</time></trkpt><trkpt lat="43.068285" lon="2.640985"><ele>233.0</ele><time>2026-03-30T11:33:52.686Z</time></trkpt><trkpt lat="43.0683467" lon="2.64114"><ele>232.0</ele><time>2026-03-30T11:33:53.686Z</time></trkpt><trkpt lat="43.06841" lon="2.6412933"><ele>231.0</ele><time>2026-03-30T11:33:54.688Z</time></trkpt><trkpt lat="43.068475" lon="2.64145"><ele>230.25</ele><time>2026-03-30T11:33:55.685Z</time></trkpt><trkpt lat="43.0685317" lon="2.6416017"><ele>229.5</ele><time>2026-03-30T11:33:56.687Z</time></trkpt><trkpt lat="43.0685833" lon="2.641755"><ele>228.75</ele><time>2026-03-30T11:33:57.689Z</time></trkpt><trkpt lat="43.0686367" lon="2.6419167"><ele>228.0</ele><time>2026-03-30T11:33:58.686Z</time></trkpt><trkpt lat="43.068685" lon="2.642065"><ele>227.0</ele><time>2026-03-30T11:33:59.686Z</time></trkpt><trkpt lat="43.0687233" lon="2.6422033"><ele>226.0</ele><time>2026-03-30T11:34:00.687Z</time></trkpt><trkpt lat="43.0687733" lon="2.64235"><ele>225.0</ele><time>2026-03-30T11:34:01.687Z</time></trkpt><trkpt lat="43.0688383" lon="2.6424883"><ele>224.0</ele><time>2026-03-30T11:34:02.687Z</time></trkpt><trkpt lat="43.068915" lon="2.642625"><ele>224.0</ele><time>2026-03-30T11:34:03.687Z</time></trkpt><trkpt lat="43.069" lon="2.64276"><ele>224.0</ele><time>2026-03-30T11:34:04.687Z</time></trkpt><trkpt lat="43.069085" lon="2.6428983"><ele>224.0</ele><time>2026-03-30T11:34:05.686Z</time></trkpt><trkpt lat="43.0691683" lon="2.6430367"><ele>224.0</ele><time>2026-03-30T11:34:06.687Z</time></trkpt><trkpt lat="43.0692533" lon="2.643175"><ele>223.5</ele><time>2026-03-30T11:34:07.686Z</time></trkpt><trkpt lat="43.0693333" lon="2.643325"><ele>223.0</ele><time>2026-03-30T11:34:08.688Z</time></trkpt><trkpt lat="43.0694017" lon="2.64349"><ele>222.5</ele><time>2026-03-30T11:34:09.687Z</time></trkpt><trkpt lat="43.06946" lon="2.6436567"><ele>222.0</ele><time>2026-03-30T11:34:10.685Z</time></trkpt><trkpt lat="43.0695117" lon="2.6438183"><ele>220.75</ele><time>2026-03-30T11:34:11.687Z</time></trkpt><trkpt lat="43.06956" lon="2.64398"><ele>219.5</ele><time>2026-03-30T11:34:12.686Z</time></trkpt><trkpt lat="43.0696083" lon="2.64414"><ele>218.25</ele><time>2026-03-30T11:34:13.686Z</time></trkpt><trkpt lat="43.0696533" lon="2.6442967"><ele>217.0</ele><time>2026-03-30T11:34:14.685Z</time></trkpt><trkpt lat="43.0697" lon="2.64446"><ele>215.75</ele><time>2026-03-30T11:34:15.688Z</time></trkpt><trkpt lat="43.0697483" lon="2.6446233"><ele>214.5</ele><time>2026-03-30T11:34:16.685Z</time></trkpt><trkpt lat="43.069805" lon="2.64479"><ele>213.25</ele><time>2026-03-30T11:34:17.685Z</time></trkpt><trkpt lat="43.0698633" lon="2.6449633"><ele>212.0</ele><time>2026-03-30T11:34:18.687Z</time></trkpt><trkpt lat="43.0699267" lon="2.6451383"><ele>211.25</ele><time>2026-03-30T11:34:19.685Z</time></trkpt><trkpt lat="43.0699967" lon="2.6453083"><ele>210.5</ele><time>2026-03-30T11:34:20.686Z</time></trkpt><trkpt lat="43.070075" lon="2.64547"><ele>209.75</ele><time>2026-03-30T11:34:21.686Z</time></trkpt><trkpt lat="43.070155" lon="2.6456317"><ele>209.0</ele><time>2026-03-30T11:34:22.686Z</time></trkpt><trkpt lat="43.070225" lon="2.6457917"><ele>209.0</ele><time>2026-03-30T11:34:23.685Z</time></trkpt><trkpt lat="43.0702883" lon="2.6459483"><ele>209.0</ele><time>2026-03-30T11:34:24.686Z</time></trkpt><trkpt lat="43.0703483" lon="2.6461"><ele>209.0</ele><time>2026-03-30T11:34:25.69Z</time></trkpt><trkpt lat="43.0704083" lon="2.6462467"><ele>209.0</ele><time>2026-03-30T11:34:26.685Z</time></trkpt><trkpt lat="43.0704817" lon="2.64638"><ele>208.0</ele><time>2026-03-30T11:34:27.685Z</time></trkpt><trkpt lat="43.0705733" lon="2.6464967"><ele>207.0</ele><time>2026-03-30T11:34:28.685Z</time></trkpt><trkpt lat="43.07067" lon="2.646605"><ele>206.0</ele><time>2026-03-30T11:34:29.686Z</time></trkpt><trkpt lat="43.0707683" lon="2.646715"><ele>205.0</ele><time>2026-03-30T11:34:30.686Z</time></trkpt><trkpt lat="43.0708567" lon="2.646835"><ele>204.0</ele><time>2026-03-30T11:34:31.686Z</time></trkpt><trkpt lat="43.070935" lon="2.646975"><ele>203.0</ele><time>2026-03-30T11:34:32.686Z</time></trkpt><trkpt lat="43.0710033" lon="2.6471267"><ele>202.0</ele><time>2026-03-30T11:34:33.687Z</time></trkpt><trkpt lat="43.0710767" lon="2.647285"><ele>201.0</ele><time>2026-03-30T11:34:34.685Z</time></trkpt><trkpt lat="43.071155" lon="2.647445"><ele>201.0</ele><time>2026-03-30T11:34:35.692Z</time></trkpt><trkpt lat="43.0712367" lon="2.647605"><ele>201.0</ele><time>2026-03-30T11:34:36.685Z</time></trkpt><trkpt lat="43.071325" lon="2.6477567"><ele>201.0</ele><time>2026-03-30T11:34:37.686Z</time></trkpt><trkpt lat="43.07142" lon="2.6479017"><ele>201.0</ele><time>2026-03-30T11:34:38.689Z</time></trkpt><trkpt lat="43.0715217" lon="2.6480417"><ele>199.25</ele><time>2026-03-30T11:34:39.688Z</time></trkpt><trkpt lat="43.0716233" lon="2.6481783"><ele>197.5</ele><time>2026-03-30T11:34:40.689Z</time></trkpt><trkpt lat="43.0717233" lon="2.6483083"><ele>195.75</ele><time>2026-03-30T11:34:41.686Z</time></trkpt><trkpt lat="43.071825" lon="2.6484267"><ele>194.0</ele><time>2026-03-30T11:34:42.686Z</time></trkpt><trkpt lat="43.0719267" lon="2.6485367"><ele>194.0</ele><time>2026-03-30T11:34:43.685Z</time></trkpt><trkpt lat="43.07203" lon="2.6486483"><ele>194.0</ele><time>2026-03-30T11:34:44.688Z</time></trkpt><trkpt lat="43.0721133" lon="2.648775"><ele>194.0</ele><time>2026-03-30T11:34:45.685Z</time></trkpt><trkpt lat="43.07219" lon="2.6489283"><ele>194.0</ele><time>2026-03-30T11:34:46.686Z</time></trkpt><trkpt lat="43.0722683" lon="2.649085"><ele>194.0</ele><time>2026-03-30T11:34:47.685Z</time></trkpt><trkpt lat="43.0723483" lon="2.6492467"><ele>194.0</ele><time>2026-03-30T11:34:48.688Z</time></trkpt><trkpt lat="43.0724283" lon="2.6494083"><ele>194.0</ele><time>2026-03-30T11:34:49.686Z</time></trkpt><trkpt lat="43.0725083" lon="2.6495683"><ele>194.0</ele><time>2026-03-30T11:34:50.686Z</time></trkpt><trkpt lat="43.0725867" lon="2.649725"><ele>193.0</ele><time>2026-03-30T11:34:51.687Z</time></trkpt><trkpt lat="43.072665" lon="2.6498783"><ele>192.0</ele><time>2026-03-30T11:34:52.685Z</time></trkpt><trkpt lat="43.072745" lon="2.6500283"><ele>191.0</ele><time>2026-03-30T11:34:53.685Z</time></trkpt><trkpt lat="43.072825" lon="2.6501767"><ele>190.0</ele><time>2026-03-30T11:34:54.687Z</time></trkpt><trkpt lat="43.0729067" lon="2.6503217"><ele>189.75</ele><time>2026-03-30T11:34:55.685Z</time></trkpt><trkpt lat="43.07299" lon="2.6504667"><ele>189.5</ele><time>2026-03-30T11:34:56.685Z</time></trkpt><trkpt lat="43.0730733" lon="2.6506117"><ele>189.25</ele><time>2026-03-30T11:34:57.684Z</time></trkpt><trkpt lat="43.073155" lon="2.650755"><ele>189.0</ele><time>2026-03-30T11:34:58.684Z</time></trkpt><trkpt lat="43.0732367" lon="2.6508933"><ele>188.0</ele><time>2026-03-30T11:34:59.687Z</time></trkpt><trkpt lat="43.0733217" lon="2.6510317"><ele>187.0</ele><time>2026-03-30T11:35:00.687Z</time></trkpt><trkpt lat="43.0734083" lon="2.6511617"><ele>186.0</ele><time>2026-03-30T11:35:01.684Z</time></trkpt><trkpt lat="43.0735067" lon="2.6512783"><ele>185.0</ele><time>2026-03-30T11:35:02.686Z</time></trkpt><trkpt lat="43.07361" lon="2.6513917"><ele>184.25</ele><time>2026-03-30T11:35:03.686Z</time></trkpt><trkpt lat="43.0737117" lon="2.65151"><ele>183.5</ele><time>2026-03-30T11:35:04.686Z</time></trkpt><trkpt lat="43.07381" lon="2.6516367"><ele>182.75</ele><time>2026-03-30T11:35:05.686Z</time></trkpt><trkpt lat="43.0739083" lon="2.6517767"><ele>182.0</ele><time>2026-03-30T11:35:06.686Z</time></trkpt><trkpt lat="43.074005" lon="2.6519267"><ele>182.0</ele><time>2026-03-30T11:35:07.684Z</time></trkpt><trkpt lat="43.0740983" lon="2.6520833"><ele>182.0</ele><time>2026-03-30T11:35:08.689Z</time></trkpt><trkpt lat="43.07419" lon="2.6522433"><ele>182.0</ele><time>2026-03-30T11:35:09.686Z</time></trkpt><trkpt lat="43.0742833" lon="2.652405"><ele>182.0</ele><time>2026-03-30T11:35:10.687Z</time></trkpt><trkpt lat="43.0743783" lon="2.6525667"><ele>181.0</ele><time>2026-03-30T11:35:11.685Z</time></trkpt><trkpt lat="43.0744733" lon="2.6527283"><ele>180.0</ele><time>2026-03-30T11:35:12.684Z</time></trkpt><trkpt lat="43.0745667" lon="2.6528933"><ele>179.0</ele><time>2026-03-30T11:35:13.684Z</time></trkpt><trkpt lat="43.0746567" lon="2.6530617"><ele>178.0</ele><time>2026-03-30T11:35:14.686Z</time></trkpt><trkpt lat="43.074745" lon="2.6532317"><ele>177.0</ele><time>2026-03-30T11:35:15.685Z</time></trkpt><trkpt lat="43.074835" lon="2.6534"><ele>176.0</ele><time>2026-03-30T11:35:16.685Z</time></trkpt><trkpt lat="43.07492" lon="2.65356"><ele>175.0</ele><time>2026-03-30T11:35:17.685Z</time></trkpt><trkpt lat="43.0750067" lon="2.653715"><ele>173.5</ele><time>2026-03-30T11:35:18.687Z</time></trkpt><trkpt lat="43.0750983" lon="2.6538667"><ele>172.0</ele><time>2026-03-30T11:35:19.686Z</time></trkpt><trkpt lat="43.0751983" lon="2.6540167"><ele>170.5</ele><time>2026-03-30T11:35:20.686Z</time></trkpt><trkpt lat="43.0753017" lon="2.6541533"><ele>169.0</ele><time>2026-03-30T11:35:21.687Z</time></trkpt><trkpt lat="43.075405" lon="2.6542833"><ele>169.0</ele><time>2026-03-30T11:35:22.686Z</time></trkpt><trkpt lat="43.0755083" lon="2.6544183"><ele>169.0</ele><time>2026-03-30T11:35:23.686Z</time></trkpt><trkpt lat="43.0756083" lon="2.65456"><ele>169.0</ele><time>2026-03-30T11:35:24.686Z</time></trkpt><trkpt lat="43.0757" lon="2.6547067"><ele>169.0</ele><time>2026-03-30T11:35:25.686Z</time></trkpt><trkpt lat="43.07579" lon="2.6548483"><ele>168.25</ele><time>2026-03-30T11:35:26.688Z</time></trkpt><trkpt lat="43.0758817" lon="2.6549883"><ele>167.5</ele><time>2026-03-30T11:35:27.686Z</time></trkpt><trkpt lat="43.0759717" lon="2.6551333"><ele>166.75</ele><time>2026-03-30T11:35:28.685Z</time></trkpt><trkpt lat="43.0760583" lon="2.6552817"><ele>166.0</ele><time>2026-03-30T11:35:29.685Z</time></trkpt><trkpt lat="43.0761433" lon="2.6554433"><ele>164.75</ele><time>2026-03-30T11:35:30.686Z</time></trkpt><trkpt lat="43.0762233" lon="2.6556083"><ele>163.5</ele><time>2026-03-30T11:35:31.684Z</time></trkpt><trkpt lat="43.0762983" lon="2.6557717"><ele>162.25</ele><time>2026-03-30T11:35:32.689Z</time></trkpt><trkpt lat="43.0763767" lon="2.6559383"><ele>161.0</ele><time>2026-03-30T11:35:33.684Z</time></trkpt><trkpt lat="43.0764533" lon="2.6561083"><ele>162.0</ele><time>2026-03-30T11:35:34.685Z</time></trkpt><trkpt lat="43.0765283" lon="2.65627"><ele>163.0</ele><time>2026-03-30T11:35:35.685Z</time></trkpt><trkpt lat="43.076605" lon="2.6564267"><ele>164.0</ele><time>2026-03-30T11:35:36.687Z</time></trkpt><trkpt lat="43.0766883" lon="2.6565683"><ele>165.0</ele><time>2026-03-30T11:35:37.684Z</time></trkpt><trkpt lat="43.0767783" lon="2.6567067"><ele>162.25</ele><time>2026-03-30T11:35:38.688Z</time></trkpt><trkpt lat="43.07686" lon="2.6568517"><ele>159.5</ele><time>2026-03-30T11:35:39.691Z</time></trkpt><trkpt lat="43.0769317" lon="2.6569967"><ele>156.75</ele><time>2026-03-30T11:35:40.688Z</time></trkpt><trkpt lat="43.0770067" lon="2.6571383"><ele>154.0</ele><time>2026-03-30T11:35:41.691Z</time></trkpt><trkpt lat="43.077065" lon="2.6572717"><ele>153.75</ele><time>2026-03-30T11:35:42.686Z</time></trkpt><trkpt lat="43.0771067" lon="2.6573967"><ele>153.5</ele><time>2026-03-30T11:35:43.685Z</time></trkpt><trkpt lat="43.07714" lon="2.6575283"><ele>153.25</ele><time>2026-03-30T11:35:44.686Z</time></trkpt><trkpt lat="43.0771817" lon="2.6576867"><ele>153.0</ele><time>2026-03-30T11:35:45.687Z</time></trkpt><trkpt lat="43.0772333" lon="2.6578433"><ele>153.5</ele><time>2026-03-30T11:35:46.685Z</time></trkpt><trkpt lat="43.0772833" lon="2.6579983"><ele>154.0</ele><time>2026-03-30T11:35:47.687Z</time></trkpt><trkpt lat="43.0773383" lon="2.6581583"><ele>154.5</ele><time>2026-03-30T11:35:48.686Z</time></trkpt><trkpt lat="43.07739" lon="2.658325"><ele>155.0</ele><time>2026-03-30T11:35:49.687Z</time></trkpt><trkpt lat="43.0774517" lon="2.6584817"><ele>154.5</ele><time>2026-03-30T11:35:50.687Z</time></trkpt><trkpt lat="43.0775217" lon="2.6586233"><ele>154.0</ele><time>2026-03-30T11:35:51.688Z</time></trkpt><trkpt lat="43.0775967" lon="2.6587633"><ele>153.5</ele><time>2026-03-30T11:35:52.685Z</time></trkpt><trkpt lat="43.0776733" lon="2.65889"><ele>153.0</ele><time>2026-03-30T11:35:53.686Z</time></trkpt><trkpt lat="43.077745" lon="2.6590133"><ele>153.0</ele><time>2026-03-30T11:35:54.686Z</time></trkpt><trkpt lat="43.077815" lon="2.6591433"><ele>153.0</ele><time>2026-03-30T11:35:55.687Z</time></trkpt><trkpt lat="43.0778733" lon="2.659275"><ele>153.0</ele><time>2026-03-30T11:35:56.684Z</time></trkpt><trkpt lat="43.0779267" lon="2.6594083"><ele>153.0</ele><time>2026-03-30T11:35:57.684Z</time></trkpt><trkpt lat="43.0779917" lon="2.6595317"><ele>152.6</ele><time>2026-03-30T11:35:58.684Z</time></trkpt><trkpt lat="43.0780783" lon="2.6596467"><ele>152.20000000000002</ele><time>2026-03-30T11:35:59.685Z</time></trkpt><trkpt lat="43.0781717" lon="2.659745"><ele>151.8</ele><time>2026-03-30T11:36:00.686Z</time></trkpt><trkpt lat="43.0782633" lon="2.6598017"><ele>151.4</ele><time>2026-03-30T11:36:01.685Z</time></trkpt><trkpt lat="43.078345" lon="2.65987"><ele>151.0</ele><time>2026-03-30T11:36:02.687Z</time></trkpt><trkpt lat="43.0784233" lon="2.6599567"><ele>151.0</ele><time>2026-03-30T11:36:03.684Z</time></trkpt><trkpt lat="43.0784883" lon="2.6600667"><ele>151.0</ele><time>2026-03-30T11:36:04.685Z</time></trkpt><trkpt lat="43.07855" lon="2.66019"><ele>151.0</ele><time>2026-03-30T11:36:05.685Z</time></trkpt><trkpt lat="43.07861" lon="2.6603233"><ele>151.0</ele><time>2026-03-30T11:36:06.687Z</time></trkpt><trkpt lat="43.0786717" lon="2.6604683"><ele>151.0</ele><time>2026-03-30T11:36:07.684Z</time></trkpt><trkpt lat="43.0787217" lon="2.660625"><ele>151.5</ele><time>2026-03-30T11:36:08.686Z</time></trkpt><trkpt lat="43.0787633" lon="2.6608"><ele>152.0</ele><time>2026-03-30T11:36:09.687Z</time></trkpt><trkpt lat="43.0788" lon="2.66098"><ele>152.5</ele><time>2026-03-30T11:36:10.684Z</time></trkpt><trkpt lat="43.0788483" lon="2.6611633"><ele>153.0</ele><time>2026-03-30T11:36:11.684Z</time></trkpt><trkpt lat="43.0789033" lon="2.66134"><ele>153.75</ele><time>2026-03-30T11:36:12.684Z</time></trkpt><trkpt lat="43.078955" lon="2.6615133"><ele>154.5</ele><time>2026-03-30T11:36:13.687Z</time></trkpt><trkpt lat="43.07899" lon="2.6616767"><ele>155.25</ele><time>2026-03-30T11:36:14.684Z</time></trkpt><trkpt lat="43.0790183" lon="2.6618267"><ele>156.0</ele><time>2026-03-30T11:36:15.684Z</time></trkpt><trkpt lat="43.0790517" lon="2.6619667"><ele>156.0</ele><time>2026-03-30T11:36:16.685Z</time></trkpt><trkpt lat="43.0790917" lon="2.6620933"><ele>156.0</ele><time>2026-03-30T11:36:17.686Z</time></trkpt><trkpt lat="43.07914" lon="2.6622067"><ele>156.0</ele><time>2026-03-30T11:36:18.689Z</time></trkpt><trkpt lat="43.0791933" lon="2.6623"><ele>156.0</ele><time>2026-03-30T11:36:19.688Z</time></trkpt><trkpt lat="43.0792517" lon="2.66238"><ele>156.0</ele><time>2026-03-30T11:36:20.686Z</time></trkpt><trkpt lat="43.0793033" lon="2.6624483"><ele>156.0</ele><time>2026-03-30T11:36:21.686Z</time></trkpt><trkpt lat="43.0793867" lon="2.6625667"><ele>156.0</ele><time>2026-03-30T11:36:23.686Z</time></trkpt><trkpt lat="43.079465" lon="2.6627017"><ele>156.0</ele><time>2026-03-30T11:36:25.688Z</time></trkpt><trkpt lat="43.0795117" lon="2.66278"><ele>156.0</ele><time>2026-03-30T11:36:26.685Z</time></trkpt><trkpt lat="43.0795433" lon="2.66288"><ele>156.0</ele><time>2026-03-30T11:36:27.688Z</time></trkpt><trkpt lat="43.079575" lon="2.66297"><ele>156.0</ele><time>2026-03-30T11:36:28.688Z</time></trkpt><trkpt lat="43.0796117" lon="2.6630533"><ele>156.0</ele><time>2026-03-30T11:36:29.686Z</time></trkpt><trkpt lat="43.0796467" lon="2.6631333"><ele>156.0</ele><time>2026-03-30T11:36:30.685Z</time></trkpt><trkpt lat="43.0796783" lon="2.6632167"><ele>156.0</ele><time>2026-03-30T11:36:31.687Z</time></trkpt><trkpt lat="43.07971" lon="2.6633067"><ele>156.0</ele><time>2026-03-30T11:36:32.688Z</time></trkpt><trkpt lat="43.079745" lon="2.6634117"><ele>156.0</ele><time>2026-03-30T11:36:33.686Z</time></trkpt><trkpt lat="43.0797733" lon="2.6635567"><ele>156.0</ele><time>2026-03-30T11:36:34.688Z</time></trkpt><trkpt lat="43.079805" lon="2.6637083"><ele>156.0</ele><time>2026-03-30T11:36:35.688Z</time></trkpt><trkpt lat="43.0798333" lon="2.6638517"><ele>156.0</ele><time>2026-03-30T11:36:36.686Z</time></trkpt><trkpt lat="43.0798633" lon="2.663985"><ele>156.0</ele><time>2026-03-30T11:36:37.686Z</time></trkpt><trkpt lat="43.0798933" lon="2.66411"><ele>156.0</ele><time>2026-03-30T11:36:38.687Z</time></trkpt><trkpt lat="43.079925" lon="2.6642183"><ele>156.0</ele><time>2026-03-30T11:36:39.685Z</time></trkpt><trkpt lat="43.0799633" lon="2.6643017"><ele>154.42857142857144</ele><time>2026-03-30T11:36:40.685Z</time></trkpt><trkpt lat="43.0800167" lon="2.6643633"><ele>152.85714285714283</ele><time>2026-03-30T11:36:41.684Z</time></trkpt><trkpt lat="43.0800733" lon="2.664425"><ele>151.28571428571428</ele><time>2026-03-30T11:36:42.686Z</time></trkpt><trkpt lat="43.08013" lon="2.6644917"><ele>149.71428571428572</ele><time>2026-03-30T11:36:43.686Z</time></trkpt><trkpt lat="43.08019" lon="2.6645567"><ele>148.14285714285717</ele><time>2026-03-30T11:36:44.686Z</time></trkpt><trkpt lat="43.0802583" lon="2.6646117"><ele>146.57142857142858</ele><time>2026-03-30T11:36:45.687Z</time></trkpt><trkpt lat="43.0803117" lon="2.6646617"><ele>145.0</ele><time>2026-03-30T11:36:46.688Z</time></trkpt><trkpt lat="43.0803767" lon="2.66468"><ele>145.0</ele><time>2026-03-30T11:36:47.685Z</time></trkpt><trkpt lat="43.08045" lon="2.6646867"><ele>145.0</ele><time>2026-03-30T11:36:48.688Z</time></trkpt><trkpt lat="43.080525" lon="2.664665"><ele>145.0</ele><time>2026-03-30T11:36:49.686Z</time></trkpt><trkpt lat="43.0805983" lon="2.6646667"><ele>145.0</ele><time>2026-03-30T11:36:50.685Z</time></trkpt><trkpt lat="43.0806633" lon="2.6646583"><ele>145.0</ele><time>2026-03-30T11:36:51.686Z</time></trkpt><trkpt lat="43.0807283" lon="2.6646483"><ele>145.0</ele><time>2026-03-30T11:36:52.686Z</time></trkpt><trkpt lat="43.0808383" lon="2.6646333"><ele>144.0</ele><time>2026-03-30T11:36:54.686Z</time></trkpt><trkpt lat="43.0809" lon="2.6645917"><ele>143.0</ele><time>2026-03-30T11:36:56.685Z</time></trkpt><trkpt lat="43.0809317" lon="2.6646767"><ele>142.0</ele><time>2026-03-30T11:36:59.685Z</time></trkpt><trkpt lat="43.08096" lon="2.6647883"><ele>141.0</ele><time>2026-03-30T11:37:01.687Z</time></trkpt><trkpt lat="43.0809767" lon="2.664875"><ele>140.0</ele><time>2026-03-30T11:37:02.686Z</time></trkpt><trkpt lat="43.080985" lon="2.664985"><ele>139.0</ele><time>2026-03-30T11:37:03.685Z</time></trkpt><trkpt lat="43.0809917" lon="2.6651017"><ele>139.0</ele><time>2026-03-30T11:37:04.687Z</time></trkpt><trkpt lat="43.0809983" lon="2.6652383"><ele>139.0</ele><time>2026-03-30T11:37:05.685Z</time></trkpt><trkpt lat="43.081005" lon="2.6653683"><ele>139.0</ele><time>2026-03-30T11:37:06.686Z</time></trkpt><trkpt lat="43.0810133" lon="2.6654933"><ele>139.0</ele><time>2026-03-30T11:37:07.686Z</time></trkpt><trkpt lat="43.08102" lon="2.6656183"><ele>139.0</ele><time>2026-03-30T11:37:08.686Z</time></trkpt><trkpt lat="43.0810283" lon="2.6657533"><ele>139.0</ele><time>2026-03-30T11:37:09.686Z</time></trkpt><trkpt lat="43.08104" lon="2.66589"><ele>139.0</ele><time>2026-03-30T11:37:10.684Z</time></trkpt><trkpt lat="43.0810467" lon="2.66603"><ele>139.0</ele><time>2026-03-30T11:37:11.685Z</time></trkpt><trkpt lat="43.0810533" lon="2.6661717"><ele>139.0</ele><time>2026-03-30T11:37:12.688Z</time></trkpt><trkpt lat="43.0810617" lon="2.6663167"><ele>139.0</ele><time>2026-03-30T11:37:13.685Z</time></trkpt><trkpt lat="43.0810717" lon="2.6664583"><ele>139.0</ele><time>2026-03-30T11:37:14.687Z</time></trkpt><trkpt lat="43.0810717" lon="2.666595"><ele>139.0</ele><time>2026-03-30T11:37:15.685Z</time></trkpt><trkpt lat="43.0810917" lon="2.6667267"><ele>139.0</ele><time>2026-03-30T11:37:16.684Z</time></trkpt><trkpt lat="43.0811017" lon="2.666845"><ele>139.0</ele><time>2026-03-30T11:37:17.684Z</time></trkpt><trkpt lat="43.08111" lon="2.666955"><ele>139.0</ele><time>2026-03-30T11:37:18.689Z</time></trkpt><trkpt lat="43.0811133" lon="2.6670533"><ele>139.0</ele><time>2026-03-30T11:37:19.686Z</time></trkpt><trkpt lat="43.0811133" lon="2.667145"><ele>138.8</ele><time>2026-03-30T11:37:20.688Z</time></trkpt><trkpt lat="43.08108" lon="2.6672767"><ele>138.60000000000002</ele><time>2026-03-30T11:37:22.685Z</time></trkpt><trkpt lat="43.080985" lon="2.667405"><ele>138.4</ele><time>2026-03-30T11:37:25.686Z</time></trkpt><trkpt lat="43.0809383" lon="2.6675417"><ele>138.20000000000002</ele><time>2026-03-30T11:37:27.685Z</time></trkpt><trkpt lat="43.0809333" lon="2.6676317"><ele>138.0</ele><time>2026-03-30T11:37:28.688Z</time></trkpt><trkpt lat="43.0809333" lon="2.6677233"><ele>138.16666666666666</ele><time>2026-03-30T11:37:29.684Z</time></trkpt><trkpt lat="43.08093" lon="2.6678183"><ele>138.33333333333334</ele><time>2026-03-30T11:37:30.684Z</time></trkpt><trkpt lat="43.0809183" lon="2.6679183"><ele>138.5</ele><time>2026-03-30T11:37:31.686Z</time></trkpt><trkpt lat="43.0808967" lon="2.66802"><ele>138.66666666666669</ele><time>2026-03-30T11:37:32.687Z</time></trkpt><trkpt lat="43.08087" lon="2.6681283"><ele>138.83333333333334</ele><time>2026-03-30T11:37:33.685Z</time></trkpt><trkpt lat="43.080845" lon="2.668245"><ele>139.0</ele><time>2026-03-30T11:37:34.684Z</time></trkpt><trkpt lat="43.08082" lon="2.6683617"><ele>139.0</ele><time>2026-03-30T11:37:35.689Z</time></trkpt><trkpt lat="43.0807917" lon="2.6684817"><ele>139.0</ele><time>2026-03-30T11:37:36.684Z</time></trkpt><trkpt lat="43.0807617" lon="2.6685967"><ele>139.0</ele><time>2026-03-30T11:37:37.687Z</time></trkpt><trkpt lat="43.08073" lon="2.6687117"><ele>139.0</ele><time>2026-03-30T11:37:38.685Z</time></trkpt><trkpt lat="43.080695" lon="2.6688283"><ele>139.0</ele><time>2026-03-30T11:37:39.685Z</time></trkpt><trkpt lat="43.08066" lon="2.6689533"><ele>141.33333333333334</ele><time>2026-03-30T11:37:40.687Z</time></trkpt><trkpt lat="43.0806233" lon="2.6690817"><ele>143.66666666666669</ele><time>2026-03-30T11:37:41.689Z</time></trkpt><trkpt lat="43.08058" lon="2.6691917"><ele>146.0</ele><time>2026-03-30T11:37:42.685Z</time></trkpt><trkpt lat="43.0805283" lon="2.6692833"><ele>148.33333333333334</ele><time>2026-03-30T11:37:43.687Z</time></trkpt><trkpt lat="43.08047" lon="2.6693567"><ele>150.66666666666666</ele><time>2026-03-30T11:37:44.687Z</time></trkpt><trkpt lat="43.0804067" lon="2.66942"><ele>153.0</ele><time>2026-03-30T11:37:45.686Z</time></trkpt><trkpt lat="43.080325" lon="2.6694783"><ele>153.20000000000002</ele><time>2026-03-30T11:37:46.686Z</time></trkpt><trkpt lat="43.0802467" lon="2.6695383"><ele>153.4</ele><time>2026-03-30T11:37:47.685Z</time></trkpt><trkpt lat="43.0801717" lon="2.6696267"><ele>153.60000000000002</ele><time>2026-03-30T11:37:48.685Z</time></trkpt><trkpt lat="43.080105" lon="2.6697283"><ele>153.8</ele><time>2026-03-30T11:37:49.685Z</time></trkpt><trkpt lat="43.08005" lon="2.66984"><ele>154.0</ele><time>2026-03-30T11:37:50.685Z</time></trkpt><trkpt lat="43.0799883" lon="2.6699517"><ele>155.6</ele><time>2026-03-30T11:37:51.687Z</time></trkpt><trkpt lat="43.079925" lon="2.6700633"><ele>157.2</ele><time>2026-03-30T11:37:52.688Z</time></trkpt><trkpt lat="43.0798667" lon="2.67017"><ele>158.79999999999998</ele><time>2026-03-30T11:37:53.686Z</time></trkpt><trkpt lat="43.0798167" lon="2.6702933"><ele>160.4</ele><time>2026-03-30T11:37:54.686Z</time></trkpt><trkpt lat="43.0797717" lon="2.670435"><ele>162.0</ele><time>2026-03-30T11:37:55.685Z</time></trkpt><trkpt lat="43.0797483" lon="2.67056"><ele>162.0</ele><time>2026-03-30T11:37:56.687Z</time></trkpt><trkpt lat="43.0797283" lon="2.670665"><ele>162.0</ele><time>2026-03-30T11:37:57.686Z</time></trkpt><trkpt lat="43.0797067" lon="2.6707617"><ele>162.0</ele><time>2026-03-30T11:37:58.686Z</time></trkpt><trkpt lat="43.0796667" lon="2.6708417"><ele>162.0</ele><time>2026-03-30T11:37:59.686Z</time></trkpt><trkpt lat="43.079615" lon="2.670905"><ele>162.0</ele><time>2026-03-30T11:38:00.687Z</time></trkpt><trkpt lat="43.0795233" lon="2.670995"><ele>162.0</ele><time>2026-03-30T11:38:02.689Z</time></trkpt><trkpt lat="43.0794667" lon="2.671065"><ele>162.0</ele><time>2026-03-30T11:38:05.685Z</time></trkpt><trkpt lat="43.0794967" lon="2.670965"><ele>162.0</ele><time>2026-03-30T11:38:25.684Z</time></trkpt><trkpt lat="43.07958" lon="2.67101"><ele>162.0</ele><time>2026-03-30T11:38:28.686Z</time></trkpt><trkpt lat="43.0796" lon="2.67111"><ele>162.0</ele><time>2026-03-30T11:38:30.686Z</time></trkpt><trkpt lat="43.0796067" lon="2.6712483"><ele>162.0</ele><time>2026-03-30T11:38:32.687Z</time></trkpt><trkpt lat="43.0795883" lon="2.671425"><ele>162.0</ele><time>2026-03-30T11:38:34.686Z</time></trkpt><trkpt lat="43.0795733" lon="2.6715417"><ele>162.0</ele><time>2026-03-30T11:38:35.688Z</time></trkpt><trkpt lat="43.0795633" lon="2.6716617"><ele>162.0</ele><time>2026-03-30T11:38:36.685Z</time></trkpt><trkpt lat="43.0795567" lon="2.6717883"><ele>162.0</ele><time>2026-03-30T11:38:37.684Z</time></trkpt><trkpt lat="43.07955" lon="2.67192"><ele>162.0</ele><time>2026-03-30T11:38:38.685Z</time></trkpt><trkpt lat="43.0795417" lon="2.6720583"><ele>161.83333333333334</ele><time>2026-03-30T11:38:39.686Z</time></trkpt><trkpt lat="43.07953" lon="2.67219"><ele>161.66666666666666</ele><time>2026-03-30T11:38:40.684Z</time></trkpt><trkpt lat="43.07951" lon="2.6723083"><ele>161.5</ele><time>2026-03-30T11:38:41.685Z</time></trkpt><trkpt lat="43.0794767" lon="2.6724133"><ele>161.33333333333331</ele><time>2026-03-30T11:38:42.684Z</time></trkpt><trkpt lat="43.079445" lon="2.67251"><ele>161.16666666666666</ele><time>2026-03-30T11:38:43.685Z</time></trkpt><trkpt lat="43.07942" lon="2.672615"><ele>161.0</ele><time>2026-03-30T11:38:44.687Z</time></trkpt><trkpt lat="43.0793917" lon="2.6727383"><ele>160.8</ele><time>2026-03-30T11:38:45.684Z</time></trkpt><trkpt lat="43.0793667" lon="2.67287"><ele>160.60000000000002</ele><time>2026-03-30T11:38:46.685Z</time></trkpt><trkpt lat="43.0793433" lon="2.673"><ele>160.4</ele><time>2026-03-30T11:38:47.685Z</time></trkpt><trkpt lat="43.0793167" lon="2.6731217"><ele>160.2</ele><time>2026-03-30T11:38:48.685Z</time></trkpt><trkpt lat="43.079285" lon="2.6732233"><ele>160.0</ele><time>2026-03-30T11:38:49.685Z</time></trkpt><trkpt lat="43.0792467" lon="2.6733233"><ele>160.0</ele><time>2026-03-30T11:38:50.687Z</time></trkpt><trkpt lat="43.07921" lon="2.6734267"><ele>160.0</ele><time>2026-03-30T11:38:51.685Z</time></trkpt><trkpt lat="43.0791867" lon="2.67354"><ele>160.0</ele><time>2026-03-30T11:38:52.686Z</time></trkpt><trkpt lat="43.0791817" lon="2.6736633"><ele>160.0</ele><time>2026-03-30T11:38:53.689Z</time></trkpt><trkpt lat="43.07919" lon="2.6737933"><ele>160.0</ele><time>2026-03-30T11:38:54.686Z</time></trkpt><trkpt lat="43.0791983" lon="2.6739317"><ele>160.0</ele><time>2026-03-30T11:38:55.687Z</time></trkpt><trkpt lat="43.0791983" lon="2.67407"><ele>160.0</ele><time>2026-03-30T11:38:56.688Z</time></trkpt><trkpt lat="43.0791933" lon="2.674205"><ele>160.0</ele><time>2026-03-30T11:38:57.686Z</time></trkpt><trkpt lat="43.0791883" lon="2.674335"><ele>160.0</ele><time>2026-03-30T11:38:58.688Z</time></trkpt><trkpt lat="43.0792117" lon="2.6744633"><ele>160.0</ele><time>2026-03-30T11:38:59.684Z</time></trkpt><trkpt lat="43.0792483" lon="2.6745917"><ele>160.2</ele><time>2026-03-30T11:39:00.685Z</time></trkpt><trkpt lat="43.07928" lon="2.67472"><ele>160.4</ele><time>2026-03-30T11:39:01.685Z</time></trkpt><trkpt lat="43.0793033" lon="2.674845"><ele>160.60000000000002</ele><time>2026-03-30T11:39:02.688Z</time></trkpt><trkpt lat="43.0793217" lon="2.6749667"><ele>160.8</ele><time>2026-03-30T11:39:03.685Z</time></trkpt><trkpt lat="43.07933" lon="2.6750883"><ele>161.0</ele><time>2026-03-30T11:39:04.685Z</time></trkpt><trkpt lat="43.07933" lon="2.675205"><ele>161.0</ele><time>2026-03-30T11:39:05.685Z</time></trkpt><trkpt lat="43.079325" lon="2.67531"><ele>161.0</ele><time>2026-03-30T11:39:06.688Z</time></trkpt><trkpt lat="43.079325" lon="2.67541"><ele>161.0</ele><time>2026-03-30T11:39:07.685Z</time></trkpt><trkpt lat="43.079325" lon="2.67551"><ele>161.0</ele><time>2026-03-30T11:39:08.687Z</time></trkpt><trkpt lat="43.079325" lon="2.6756217"><ele>161.0</ele><time>2026-03-30T11:39:09.686Z</time></trkpt><trkpt lat="43.0793083" lon="2.6757317"><ele>161.0</ele><time>2026-03-30T11:39:10.685Z</time></trkpt><trkpt lat="43.07928" lon="2.6758567"><ele>161.0</ele><time>2026-03-30T11:39:11.687Z</time></trkpt><trkpt lat="43.0792517" lon="2.6759917"><ele>161.0</ele><time>2026-03-30T11:39:12.687Z</time></trkpt><trkpt lat="43.079215" lon="2.6761283"><ele>161.0</ele><time>2026-03-30T11:39:13.689Z</time></trkpt><trkpt lat="43.0791717" lon="2.6762667"><ele>161.0</ele><time>2026-03-30T11:39:14.687Z</time></trkpt><trkpt lat="43.079125" lon="2.6764083"><ele>161.0</ele><time>2026-03-30T11:39:15.685Z</time></trkpt><trkpt lat="43.07907" lon="2.6765383"><ele>162.75</ele><time>2026-03-30T11:39:16.686Z</time></trkpt><trkpt lat="43.0790083" lon="2.6766583"><ele>164.5</ele><time>2026-03-30T11:39:17.685Z</time></trkpt><trkpt lat="43.0789367" lon="2.676775"><ele>166.25</ele><time>2026-03-30T11:39:18.687Z</time></trkpt><trkpt lat="43.078855" lon="2.6768883"><ele>168.0</ele><time>2026-03-30T11:39:19.688Z</time></trkpt><trkpt lat="43.0787683" lon="2.677005"><ele>168.0</ele><time>2026-03-30T11:39:20.689Z</time></trkpt><trkpt lat="43.078675" lon="2.6771183"><ele>168.0</ele><time>2026-03-30T11:39:21.687Z</time></trkpt><trkpt lat="43.07858" lon="2.6772283"><ele>168.0</ele><time>2026-03-30T11:39:22.688Z</time></trkpt><trkpt lat="43.078485" lon="2.6773383"><ele>168.0</ele><time>2026-03-30T11:39:23.687Z</time></trkpt><trkpt lat="43.0783933" lon="2.677455"><ele>168.0</ele><time>2026-03-30T11:39:24.689Z</time></trkpt><trkpt lat="43.078305" lon="2.677585"><ele>168.0</ele><time>2026-03-30T11:39:25.693Z</time></trkpt><trkpt lat="43.0782383" lon="2.6777133"><ele>168.0</ele><time>2026-03-30T11:39:26.686Z</time></trkpt><trkpt lat="43.0781733" lon="2.6778267"><ele>168.0</ele><time>2026-03-30T11:39:27.689Z</time></trkpt><trkpt lat="43.07811" lon="2.677935"><ele>168.2</ele><time>2026-03-30T11:39:28.688Z</time></trkpt><trkpt lat="43.07804" lon="2.6780433"><ele>168.4</ele><time>2026-03-30T11:39:29.687Z</time></trkpt><trkpt lat="43.077965" lon="2.678155"><ele>168.6</ele><time>2026-03-30T11:39:30.685Z</time></trkpt><trkpt lat="43.07789" lon="2.6782733"><ele>168.79999999999998</ele><time>2026-03-30T11:39:31.684Z</time></trkpt><trkpt lat="43.0778117" lon="2.6783917"><ele>169.0</ele><time>2026-03-30T11:39:32.686Z</time></trkpt><trkpt lat="43.0777333" lon="2.6785067"><ele>168.2</ele><time>2026-03-30T11:39:33.687Z</time></trkpt><trkpt lat="43.0776567" lon="2.67862"><ele>167.39999999999998</ele><time>2026-03-30T11:39:34.686Z</time></trkpt><trkpt lat="43.0775833" lon="2.67873"><ele>166.6</ele><time>2026-03-30T11:39:35.685Z</time></trkpt><trkpt lat="43.0775117" lon="2.678835"><ele>165.8</ele><time>2026-03-30T11:39:36.684Z</time></trkpt><trkpt lat="43.0774417" lon="2.6789333"><ele>165.0</ele><time>2026-03-30T11:39:37.686Z</time></trkpt><trkpt lat="43.0773733" lon="2.6790317"><ele>164.4</ele><time>2026-03-30T11:39:38.685Z</time></trkpt><trkpt lat="43.077305" lon="2.6791333"><ele>163.8</ele><time>2026-03-30T11:39:39.685Z</time></trkpt><trkpt lat="43.0772433" lon="2.6792383"><ele>163.2</ele><time>2026-03-30T11:39:40.686Z</time></trkpt><trkpt lat="43.0771883" lon="2.6793517"><ele>162.6</ele><time>2026-03-30T11:39:41.687Z</time></trkpt><trkpt lat="43.077135" lon="2.6794733"><ele>162.0</ele><time>2026-03-30T11:39:42.686Z</time></trkpt><trkpt lat="43.0770833" lon="2.6796033"><ele>161.0</ele><time>2026-03-30T11:39:43.685Z</time></trkpt><trkpt lat="43.0770333" lon="2.679735"><ele>160.0</ele><time>2026-03-30T11:39:44.685Z</time></trkpt><trkpt lat="43.076985" lon="2.679865"><ele>159.0</ele><time>2026-03-30T11:39:45.686Z</time></trkpt><trkpt lat="43.076935" lon="2.6799883"><ele>158.0</ele><time>2026-03-30T11:39:46.686Z</time></trkpt><trkpt lat="43.0768833" lon="2.6801017"><ele>157.0</ele><time>2026-03-30T11:39:47.685Z</time></trkpt><trkpt lat="43.0768333" lon="2.6802017"><ele>155.99999999999997</ele><time>2026-03-30T11:39:48.688Z</time></trkpt><trkpt lat="43.0767817" lon="2.68029"><ele>155.0</ele><time>2026-03-30T11:39:49.686Z</time></trkpt><trkpt lat="43.0767317" lon="2.6803667"><ele>154.0</ele><time>2026-03-30T11:39:50.686Z</time></trkpt><trkpt lat="43.07669" lon="2.6804383"><ele>153.0</ele><time>2026-03-30T11:39:51.685Z</time></trkpt><trkpt lat="43.0766617" lon="2.6805167"><ele>152.0</ele><time>2026-03-30T11:39:52.685Z</time></trkpt><trkpt lat="43.07665" lon="2.680605"><ele>150.99999999999997</ele><time>2026-03-30T11:39:53.686Z</time></trkpt><trkpt lat="43.0766617" lon="2.680715"><ele>150.0</ele><time>2026-03-30T11:39:54.685Z</time></trkpt><trkpt lat="43.0766733" lon="2.68084"><ele>150.0</ele><time>2026-03-30T11:39:55.685Z</time></trkpt><trkpt lat="43.076655" lon="2.6809683"><ele>150.0</ele><time>2026-03-30T11:39:56.69Z</time></trkpt><trkpt lat="43.0766" lon="2.681095"><ele>150.0</ele><time>2026-03-30T11:39:57.685Z</time></trkpt><trkpt lat="43.0765267" lon="2.6812217"><ele>150.0</ele><time>2026-03-30T11:39:58.686Z</time></trkpt><trkpt lat="43.0764383" lon="2.6813517"><ele>148.75</ele><time>2026-03-30T11:39:59.684Z</time></trkpt><trkpt lat="43.076345" lon="2.68149"><ele>147.5</ele><time>2026-03-30T11:40:00.689Z</time></trkpt><trkpt lat="43.0762483" lon="2.6816317"><ele>146.25</ele><time>2026-03-30T11:40:01.685Z</time></trkpt><trkpt lat="43.0761483" lon="2.6817717"><ele>145.0</ele><time>2026-03-30T11:40:02.689Z</time></trkpt><trkpt lat="43.076055" lon="2.68191"><ele>143.75</ele><time>2026-03-30T11:40:03.686Z</time></trkpt><trkpt lat="43.0759617" lon="2.6820483"><ele>142.5</ele><time>2026-03-30T11:40:04.684Z</time></trkpt><trkpt lat="43.075875" lon="2.6821767"><ele>141.25</ele><time>2026-03-30T11:40:05.686Z</time></trkpt><trkpt lat="43.0757933" lon="2.6823033"><ele>140.0</ele><time>2026-03-30T11:40:06.685Z</time></trkpt><trkpt lat="43.0757133" lon="2.6824267"><ele>139.0</ele><time>2026-03-30T11:40:07.684Z</time></trkpt><trkpt lat="43.0756383" lon="2.6825617"><ele>138.0</ele><time>2026-03-30T11:40:08.686Z</time></trkpt><trkpt lat="43.075565" lon="2.6827017"><ele>137.0</ele><time>2026-03-30T11:40:09.689Z</time></trkpt><trkpt lat="43.0754933" lon="2.682845"><ele>136.0</ele><time>2026-03-30T11:40:10.686Z</time></trkpt><trkpt lat="43.075425" lon="2.68298"><ele>135.5</ele><time>2026-03-30T11:40:11.686Z</time></trkpt><trkpt lat="43.0753567" lon="2.6831133"><ele>135.0</ele><time>2026-03-30T11:40:12.685Z</time></trkpt><trkpt lat="43.07529" lon="2.6832467"><ele>134.5</ele><time>2026-03-30T11:40:13.685Z</time></trkpt><trkpt lat="43.0752317" lon="2.6833733"><ele>134.0</ele><time>2026-03-30T11:40:14.687Z</time></trkpt><trkpt lat="43.0751783" lon="2.6835033"><ele>133.83333333333331</ele><time>2026-03-30T11:40:15.686Z</time></trkpt><trkpt lat="43.075135" lon="2.6836233"><ele>133.66666666666666</ele><time>2026-03-30T11:40:16.685Z</time></trkpt><trkpt lat="43.0750933" lon="2.6837367"><ele>133.5</ele><time>2026-03-30T11:40:17.684Z</time></trkpt><trkpt lat="43.0750517" lon="2.6838283"><ele>133.33333333333334</ele><time>2026-03-30T11:40:18.686Z</time></trkpt><trkpt lat="43.0749883" lon="2.683945"><ele>133.16666666666669</ele><time>2026-03-30T11:40:20.688Z</time></trkpt><trkpt lat="43.07497" lon="2.68404"><ele>133.0</ele><time>2026-03-30T11:40:22.686Z</time></trkpt><trkpt lat="43.0750467" lon="2.6841533"><ele>133.0</ele><time>2026-03-30T11:40:24.69Z</time></trkpt><trkpt lat="43.075115" lon="2.6842217"><ele>133.0</ele><time>2026-03-30T11:40:25.686Z</time></trkpt><trkpt lat="43.0751933" lon="2.684295"><ele>133.0</ele><time>2026-03-30T11:40:26.687Z</time></trkpt><trkpt lat="43.0752767" lon="2.6843767"><ele>133.0</ele><time>2026-03-30T11:40:27.687Z</time></trkpt><trkpt lat="43.075365" lon="2.6844667"><ele>133.0</ele><time>2026-03-30T11:40:28.685Z</time></trkpt><trkpt lat="43.075455" lon="2.6845667"><ele>133.0</ele><time>2026-03-30T11:40:29.686Z</time></trkpt><trkpt lat="43.0755417" lon="2.6846783"><ele>133.0</ele><time>2026-03-30T11:40:30.687Z</time></trkpt><trkpt lat="43.0756267" lon="2.6848033"><ele>133.0</ele><time>2026-03-30T11:40:31.686Z</time></trkpt><trkpt lat="43.0757083" lon="2.6849483"><ele>133.0</ele><time>2026-03-30T11:40:32.686Z</time></trkpt><trkpt lat="43.0757817" lon="2.6851117"><ele>133.5</ele><time>2026-03-30T11:40:33.687Z</time></trkpt><trkpt lat="43.0758433" lon="2.6852867"><ele>134.0</ele><time>2026-03-30T11:40:34.688Z</time></trkpt><trkpt lat="43.0758917" lon="2.6854683"><ele>134.5</ele><time>2026-03-30T11:40:35.686Z</time></trkpt><trkpt lat="43.07592" lon="2.6856683"><ele>135.0</ele><time>2026-03-30T11:40:36.686Z</time></trkpt><trkpt lat="43.07593" lon="2.685875"><ele>135.0</ele><time>2026-03-30T11:40:37.686Z</time></trkpt><trkpt lat="43.075925" lon="2.686085"><ele>135.0</ele><time>2026-03-30T11:40:38.686Z</time></trkpt><trkpt lat="43.0759067" lon="2.6862967"><ele>135.0</ele><time>2026-03-30T11:40:39.685Z</time></trkpt><trkpt lat="43.0758767" lon="2.686505"><ele>135.0</ele><time>2026-03-30T11:40:40.685Z</time></trkpt><trkpt lat="43.0758367" lon="2.6867133"><ele>135.0</ele><time>2026-03-30T11:40:41.685Z</time></trkpt><trkpt lat="43.07579" lon="2.686915"><ele>135.0</ele><time>2026-03-30T11:40:42.685Z</time></trkpt><trkpt lat="43.075745" lon="2.6871133"><ele>135.66666666666666</ele><time>2026-03-30T11:40:43.686Z</time></trkpt><trkpt lat="43.0757083" lon="2.68732"><ele>136.33333333333331</ele><time>2026-03-30T11:40:44.686Z</time></trkpt><trkpt lat="43.0756983" lon="2.6875317"><ele>137.0</ele><time>2026-03-30T11:40:45.687Z</time></trkpt><trkpt lat="43.0757067" lon="2.687745"><ele>137.33333333333331</ele><time>2026-03-30T11:40:46.686Z</time></trkpt><trkpt lat="43.075735" lon="2.6879567"><ele>137.66666666666666</ele><time>2026-03-30T11:40:47.689Z</time></trkpt><trkpt lat="43.0757783" lon="2.6881617"><ele>138.0</ele><time>2026-03-30T11:40:48.687Z</time></trkpt><trkpt lat="43.0758283" lon="2.6883617"><ele>138.0</ele><time>2026-03-30T11:40:49.685Z</time></trkpt><trkpt lat="43.0758817" lon="2.68856"><ele>138.0</ele><time>2026-03-30T11:40:50.686Z</time></trkpt><trkpt lat="43.0759317" lon="2.6887567"><ele>138.0</ele><time>2026-03-30T11:40:51.687Z</time></trkpt><trkpt lat="43.0759817" lon="2.68895"><ele>137.25</ele><time>2026-03-30T11:40:52.687Z</time></trkpt><trkpt lat="43.0760317" lon="2.68914"><ele>136.5</ele><time>2026-03-30T11:40:53.692Z</time></trkpt><trkpt lat="43.0760817" lon="2.6893267"><ele>135.75</ele><time>2026-03-30T11:40:54.687Z</time></trkpt><trkpt lat="43.07613" lon="2.68951"><ele>135.0</ele><time>2026-03-30T11:40:55.686Z</time></trkpt><trkpt lat="43.076185" lon="2.689695"><ele>133.5</ele><time>2026-03-30T11:40:56.686Z</time></trkpt><trkpt lat="43.07623" lon="2.6898717"><ele>132.0</ele><time>2026-03-30T11:40:57.686Z</time></trkpt><trkpt lat="43.076275" lon="2.6900567"><ele>130.5</ele><time>2026-03-30T11:40:58.687Z</time></trkpt><trkpt lat="43.0763283" lon="2.6902417"><ele>129.0</ele><time>2026-03-30T11:40:59.686Z</time></trkpt><trkpt lat="43.07638" lon="2.69043"><ele>128.75</ele><time>2026-03-30T11:41:00.685Z</time></trkpt><trkpt lat="43.0764383" lon="2.6906117"><ele>128.5</ele><time>2026-03-30T11:41:01.685Z</time></trkpt><trkpt lat="43.0765083" lon="2.6907917"><ele>128.25</ele><time>2026-03-30T11:41:02.687Z</time></trkpt><trkpt lat="43.0765883" lon="2.6909617"><ele>128.0</ele><time>2026-03-30T11:41:03.685Z</time></trkpt><trkpt lat="43.0766817" lon="2.6911217"><ele>128.0</ele><time>2026-03-30T11:41:04.685Z</time></trkpt><trkpt lat="43.0767817" lon="2.6912733"><ele>128.0</ele><time>2026-03-30T11:41:05.687Z</time></trkpt><trkpt lat="43.0768883" lon="2.69142"><ele>128.0</ele><time>2026-03-30T11:41:06.685Z</time></trkpt><trkpt lat="43.077" lon="2.691565"><ele>128.0</ele><time>2026-03-30T11:41:07.686Z</time></trkpt><trkpt lat="43.077115" lon="2.6916983"><ele>128.0</ele><time>2026-03-30T11:41:08.686Z</time></trkpt><trkpt lat="43.077235" lon="2.6918167"><ele>128.0</ele><time>2026-03-30T11:41:09.685Z</time></trkpt><trkpt lat="43.07736" lon="2.69192"><ele>128.0</ele><time>2026-03-30T11:41:10.685Z</time></trkpt><trkpt lat="43.07749" lon="2.6920133"><ele>126.25</ele><time>2026-03-30T11:41:11.687Z</time></trkpt><trkpt lat="43.0776217" lon="2.6921"><ele>124.5</ele><time>2026-03-30T11:41:12.685Z</time></trkpt><trkpt lat="43.0777567" lon="2.6921817"><ele>122.75</ele><time>2026-03-30T11:41:13.684Z</time></trkpt><trkpt lat="43.0778967" lon="2.6922683"><ele>121.0</ele><time>2026-03-30T11:41:14.687Z</time></trkpt><trkpt lat="43.0780417" lon="2.6923433"><ele>121.0</ele><time>2026-03-30T11:41:15.688Z</time></trkpt><trkpt lat="43.0781833" lon="2.6924117"><ele>121.0</ele><time>2026-03-30T11:41:16.686Z</time></trkpt><trkpt lat="43.0783217" lon="2.6924833"><ele>121.0</ele><time>2026-03-30T11:41:17.686Z</time></trkpt><trkpt lat="43.0784583" lon="2.692555"><ele>121.0</ele><time>2026-03-30T11:41:18.686Z</time></trkpt><trkpt lat="43.0785983" lon="2.6926317"><ele>120.66666666666667</ele><time>2026-03-30T11:41:19.687Z</time></trkpt><trkpt lat="43.0787383" lon="2.69271"><ele>120.33333333333334</ele><time>2026-03-30T11:41:20.687Z</time></trkpt><trkpt lat="43.07888" lon="2.692785"><ele>120.0</ele><time>2026-03-30T11:41:21.686Z</time></trkpt><trkpt lat="43.0790233" lon="2.69286"><ele>119.25</ele><time>2026-03-30T11:41:22.687Z</time></trkpt><trkpt lat="43.0791667" lon="2.6929367"><ele>118.5</ele><time>2026-03-30T11:41:23.686Z</time></trkpt><trkpt lat="43.0793017" lon="2.693015"><ele>117.75</ele><time>2026-03-30T11:41:24.687Z</time></trkpt><trkpt lat="43.0794367" lon="2.6930917"><ele>117.0</ele><time>2026-03-30T11:41:25.688Z</time></trkpt><trkpt lat="43.0795733" lon="2.6931717"><ele>117.0</ele><time>2026-03-30T11:41:26.686Z</time></trkpt><trkpt lat="43.0797133" lon="2.6932483"><ele>117.0</ele><time>2026-03-30T11:41:27.685Z</time></trkpt><trkpt lat="43.0798517" lon="2.6933267"><ele>117.0</ele><time>2026-03-30T11:41:28.686Z</time></trkpt><trkpt lat="43.0799917" lon="2.6933967"><ele>117.5</ele><time>2026-03-30T11:41:29.69Z</time></trkpt><trkpt lat="43.0801283" lon="2.6934683"><ele>118.0</ele><time>2026-03-30T11:41:30.685Z</time></trkpt><trkpt lat="43.0802617" lon="2.6935433"><ele>118.5</ele><time>2026-03-30T11:41:31.687Z</time></trkpt><trkpt lat="43.0803983" lon="2.6936183"><ele>119.0</ele><time>2026-03-30T11:41:32.689Z</time></trkpt><trkpt lat="43.0805383" lon="2.693695"><ele>118.5</ele><time>2026-03-30T11:41:33.685Z</time></trkpt><trkpt lat="43.080675" lon="2.6937733"><ele>118.0</ele><time>2026-03-30T11:41:34.685Z</time></trkpt><trkpt lat="43.0808117" lon="2.69385"><ele>117.5</ele><time>2026-03-30T11:41:35.686Z</time></trkpt><trkpt lat="43.0809483" lon="2.6939233"><ele>117.0</ele><time>2026-03-30T11:41:36.687Z</time></trkpt><trkpt lat="43.08108" lon="2.6939933"><ele>117.0</ele><time>2026-03-30T11:41:37.686Z</time></trkpt><trkpt lat="43.0812083" lon="2.6940617"><ele>117.0</ele><time>2026-03-30T11:41:38.686Z</time></trkpt><trkpt lat="43.0813317" lon="2.6941283"><ele>117.0</ele><time>2026-03-30T11:41:39.688Z</time></trkpt><trkpt lat="43.0814567" lon="2.694195"><ele>117.0</ele><time>2026-03-30T11:41:40.687Z</time></trkpt><trkpt lat="43.0815817" lon="2.6942583"><ele>117.75</ele><time>2026-03-30T11:41:41.685Z</time></trkpt><trkpt lat="43.0817067" lon="2.6943217"><ele>118.5</ele><time>2026-03-30T11:41:42.686Z</time></trkpt><trkpt lat="43.08183" lon="2.69439"><ele>119.25</ele><time>2026-03-30T11:41:43.685Z</time></trkpt><trkpt lat="43.0819583" lon="2.694455"><ele>120.0</ele><time>2026-03-30T11:41:44.688Z</time></trkpt><trkpt lat="43.0820883" lon="2.694505"><ele>118.5</ele><time>2026-03-30T11:41:45.685Z</time></trkpt><trkpt lat="43.08222" lon="2.6945567"><ele>117.0</ele><time>2026-03-30T11:41:46.685Z</time></trkpt><trkpt lat="43.0823533" lon="2.69461"><ele>115.5</ele><time>2026-03-30T11:41:47.687Z</time></trkpt><trkpt lat="43.08249" lon="2.6946633"><ele>114.0</ele><time>2026-03-30T11:41:48.688Z</time></trkpt><trkpt lat="43.0826283" lon="2.6947183"><ele>114.0</ele><time>2026-03-30T11:41:49.686Z</time></trkpt><trkpt lat="43.0827667" lon="2.6947783"><ele>114.0</ele><time>2026-03-30T11:41:50.687Z</time></trkpt><trkpt lat="43.0829017" lon="2.6948333"><ele>114.0</ele><time>2026-03-30T11:41:51.686Z</time></trkpt><trkpt lat="43.0830317" lon="2.6948883"><ele>114.0</ele><time>2026-03-30T11:41:52.686Z</time></trkpt><trkpt lat="43.0831567" lon="2.694935"><ele>114.80000000000001</ele><time>2026-03-30T11:41:53.686Z</time></trkpt><trkpt lat="43.08327" lon="2.694985"><ele>115.60000000000001</ele><time>2026-03-30T11:41:54.686Z</time></trkpt><trkpt lat="43.083375" lon="2.6950317"><ele>116.4</ele><time>2026-03-30T11:41:55.687Z</time></trkpt><trkpt lat="43.083475" lon="2.6950717"><ele>117.2</ele><time>2026-03-30T11:41:56.687Z</time></trkpt><trkpt lat="43.0835633" lon="2.6951033"><ele>118.0</ele><time>2026-03-30T11:41:57.685Z</time></trkpt><trkpt lat="43.0836483" lon="2.6951367"><ele>118.0</ele><time>2026-03-30T11:41:58.685Z</time></trkpt><trkpt lat="43.0837267" lon="2.6951667"><ele>118.0</ele><time>2026-03-30T11:41:59.688Z</time></trkpt><trkpt lat="43.0837983" lon="2.695195"><ele>118.0</ele><time>2026-03-30T11:42:00.687Z</time></trkpt><trkpt lat="43.083865" lon="2.6952167"><ele>118.0</ele><time>2026-03-30T11:42:01.686Z</time></trkpt><trkpt lat="43.0839267" lon="2.695255"><ele>118.0</ele><time>2026-03-30T11:42:02.687Z</time></trkpt><trkpt lat="43.0839867" lon="2.6953133"><ele>118.0</ele><time>2026-03-30T11:42:03.685Z</time></trkpt><trkpt lat="43.084045" lon="2.6953833"><ele>118.0</ele><time>2026-03-30T11:42:04.687Z</time></trkpt><trkpt lat="43.0841133" lon="2.6954583"><ele>117.4</ele><time>2026-03-30T11:42:05.689Z</time></trkpt><trkpt lat="43.0841933" lon="2.6955333"><ele>116.80000000000001</ele><time>2026-03-30T11:42:06.687Z</time></trkpt><trkpt lat="43.0842817" lon="2.695605"><ele>116.2</ele><time>2026-03-30T11:42:07.689Z</time></trkpt><trkpt lat="43.0843617" lon="2.695675"><ele>115.6</ele><time>2026-03-30T11:42:08.685Z</time></trkpt><trkpt lat="43.0844333" lon="2.6957417"><ele>115.0</ele><time>2026-03-30T11:42:09.688Z</time></trkpt><trkpt lat="43.0844967" lon="2.6958117"><ele>115.00000000000001</ele><time>2026-03-30T11:42:10.685Z</time></trkpt><trkpt lat="43.084565" lon="2.6958767"><ele>115.0</ele><time>2026-03-30T11:42:11.686Z</time></trkpt><trkpt lat="43.084625" lon="2.695935"><ele>115.0</ele><time>2026-03-30T11:42:12.686Z</time></trkpt><trkpt lat="43.08468" lon="2.6959817"><ele>115.0</ele><time>2026-03-30T11:42:13.685Z</time></trkpt><trkpt lat="43.084765" lon="2.6960017"><ele>115.00000000000001</ele><time>2026-03-30T11:42:15.686Z</time></trkpt><trkpt lat="43.08476" lon="2.6958267"><ele>115.0</ele><time>2026-03-30T11:42:38.689Z</time></trkpt><trkpt lat="43.0847583" lon="2.6956717"><ele>114.99999999999999</ele><time>2026-03-30T11:42:40.684Z</time></trkpt><trkpt lat="43.0847617" lon="2.6955817"><ele>115.0</ele><time>2026-03-30T11:42:41.688Z</time></trkpt><trkpt lat="43.0847633" lon="2.6954883"><ele>114.99999999999999</ele><time>2026-03-30T11:42:42.684Z</time></trkpt><trkpt lat="43.0847633" lon="2.69539"><ele>114.99999999999999</ele><time>2026-03-30T11:42:43.684Z</time></trkpt><trkpt lat="43.08476" lon="2.6952933"><ele>115.0</ele><time>2026-03-30T11:42:44.687Z</time></trkpt><trkpt lat="43.0847533" lon="2.6951917"><ele>114.99999999999999</ele><time>2026-03-30T11:42:45.686Z</time></trkpt><trkpt lat="43.0847383" lon="2.6950833"><ele>114.99999999999999</ele><time>2026-03-30T11:42:46.684Z</time></trkpt><trkpt lat="43.0847183" lon="2.69497"><ele>116.16666666666667</ele><time>2026-03-30T11:42:47.686Z</time></trkpt><trkpt lat="43.0847" lon="2.6948583"><ele>117.33333333333334</ele><time>2026-03-30T11:42:48.685Z</time></trkpt><trkpt lat="43.0846883" lon="2.6947467"><ele>118.5</ele><time>2026-03-30T11:42:49.684Z</time></trkpt><trkpt lat="43.0846867" lon="2.6946333"><ele>119.66666666666666</ele><time>2026-03-30T11:42:50.686Z</time></trkpt><trkpt lat="43.0846917" lon="2.6945233"><ele>120.83333333333333</ele><time>2026-03-30T11:42:51.686Z</time></trkpt><trkpt lat="43.084705" lon="2.6944117"><ele>122.0</ele><time>2026-03-30T11:42:52.685Z</time></trkpt><trkpt lat="43.0847283" lon="2.6943017"><ele>121.99999999999999</ele><time>2026-03-30T11:42:53.684Z</time></trkpt><trkpt lat="43.0847583" lon="2.6941933"><ele>122.0</ele><time>2026-03-30T11:42:54.686Z</time></trkpt><trkpt lat="43.084795" lon="2.6940883"><ele>122.0</ele><time>2026-03-30T11:42:55.685Z</time></trkpt><trkpt lat="43.0848383" lon="2.69399"><ele>122.0</ele><time>2026-03-30T11:42:56.686Z</time></trkpt><trkpt lat="43.08488" lon="2.6938867"><ele>121.99999999999999</ele><time>2026-03-30T11:42:57.688Z</time></trkpt><trkpt lat="43.0849217" lon="2.693785"><ele>122.0</ele><time>2026-03-30T11:42:58.686Z</time></trkpt><trkpt lat="43.0849617" lon="2.69369"><ele>122.0</ele><time>2026-03-30T11:42:59.686Z</time></trkpt><trkpt lat="43.0850033" lon="2.69359"><ele>121.99999999999999</ele><time>2026-03-30T11:43:00.688Z</time></trkpt><trkpt lat="43.0850483" lon="2.693485"><ele>121.99999999999999</ele><time>2026-03-30T11:43:01.685Z</time></trkpt><trkpt lat="43.085105" lon="2.6933867"><ele>122.0</ele><time>2026-03-30T11:43:02.688Z</time></trkpt><trkpt lat="43.0851767" lon="2.6933"><ele>122.0</ele><time>2026-03-30T11:43:03.687Z</time></trkpt><trkpt lat="43.0852617" lon="2.69323"><ele>122.6</ele><time>2026-03-30T11:43:04.686Z</time></trkpt><trkpt lat="43.0853483" lon="2.693175"><ele>123.19999999999999</ele><time>2026-03-30T11:43:05.684Z</time></trkpt><trkpt lat="43.08544" lon="2.6931317"><ele>123.8</ele><time>2026-03-30T11:43:06.685Z</time></trkpt><trkpt lat="43.08554" lon="2.6930683"><ele>124.4</ele><time>2026-03-30T11:43:07.686Z</time></trkpt><trkpt lat="43.0856283" lon="2.6929983"><ele>125.0</ele><time>2026-03-30T11:43:08.686Z</time></trkpt><trkpt lat="43.085715" lon="2.6929117"><ele>123.0</ele><time>2026-03-30T11:43:09.684Z</time></trkpt><trkpt lat="43.0858017" lon="2.692825"><ele>121.0</ele><time>2026-03-30T11:43:10.684Z</time></trkpt><trkpt lat="43.0858967" lon="2.6927567"><ele>119.0</ele><time>2026-03-30T11:43:11.685Z</time></trkpt><trkpt lat="43.0860067" lon="2.6927067"><ele>117.0</ele><time>2026-03-30T11:43:12.687Z</time></trkpt><trkpt lat="43.0861217" lon="2.6926617"><ele>117.0</ele><time>2026-03-30T11:43:13.685Z</time></trkpt><trkpt lat="43.0862367" lon="2.6926133"><ele>117.0</ele><time>2026-03-30T11:43:14.686Z</time></trkpt><trkpt lat="43.08635" lon="2.692565"><ele>117.0</ele><time>2026-03-30T11:43:15.686Z</time></trkpt><trkpt lat="43.08646" lon="2.6925217"><ele>117.0</ele><time>2026-03-30T11:43:16.685Z</time></trkpt><trkpt lat="43.0865567" lon="2.69248"><ele>114.83333333333333</ele><time>2026-03-30T11:43:17.684Z</time></trkpt><trkpt lat="43.0866483" lon="2.6924367"><ele>112.66666666666666</ele><time>2026-03-30T11:43:18.685Z</time></trkpt><trkpt lat="43.0867383" lon="2.6924"><ele>110.5</ele><time>2026-03-30T11:43:19.685Z</time></trkpt><trkpt lat="43.086825" lon="2.6923767"><ele>108.33333333333333</ele><time>2026-03-30T11:43:20.687Z</time></trkpt><trkpt lat="43.08691" lon="2.6923583"><ele>106.16666666666666</ele><time>2026-03-30T11:43:21.687Z</time></trkpt><trkpt lat="43.0869933" lon="2.692355"><ele>104.0</ele><time>2026-03-30T11:43:22.686Z</time></trkpt><trkpt lat="43.087065" lon="2.6923567"><ele>103.99999999999999</ele><time>2026-03-30T11:43:23.686Z</time></trkpt><trkpt lat="43.0871717" lon="2.69233"><ele>104.0</ele><time>2026-03-30T11:43:25.685Z</time></trkpt><trkpt lat="43.08721" lon="2.6922233"><ele>104.0</ele><time>2026-03-30T11:43:27.684Z</time></trkpt><trkpt lat="43.0871633" lon="2.6921533"><ele>104.0</ele><time>2026-03-30T11:43:28.685Z</time></trkpt><trkpt lat="43.0871067" lon="2.6920917"><ele>103.99999999999999</ele><time>2026-03-30T11:43:29.684Z</time></trkpt><trkpt lat="43.0870417" lon="2.6920133"><ele>104.0</ele><time>2026-03-30T11:43:30.687Z</time></trkpt><trkpt lat="43.0869717" lon="2.691925"><ele>104.0</ele><time>2026-03-30T11:43:31.686Z</time></trkpt><trkpt lat="43.0869033" lon="2.6918183"><ele>104.0</ele><time>2026-03-30T11:43:32.685Z</time></trkpt><trkpt lat="43.08684" lon="2.6916917"><ele>104.0</ele><time>2026-03-30T11:43:33.684Z</time></trkpt><trkpt lat="43.0867867" lon="2.6915517"><ele>104.0</ele><time>2026-03-30T11:43:34.687Z</time></trkpt><trkpt lat="43.0867367" lon="2.6914067"><ele>104.0</ele><time>2026-03-30T11:43:35.684Z</time></trkpt><trkpt lat="43.08669" lon="2.6912617"><ele>104.0</ele><time>2026-03-30T11:43:36.684Z</time></trkpt><trkpt lat="43.08665" lon="2.6911083"><ele>104.0</ele><time>2026-03-30T11:43:37.685Z</time></trkpt><trkpt lat="43.0866133" lon="2.6909483"><ele>104.0</ele><time>2026-03-30T11:43:38.687Z</time></trkpt><trkpt lat="43.0865867" lon="2.690785"><ele>104.0</ele><time>2026-03-30T11:43:39.685Z</time></trkpt><trkpt lat="43.08657" lon="2.6906133"><ele>106.5</ele><time>2026-03-30T11:43:40.685Z</time></trkpt><trkpt lat="43.086565" lon="2.6904383"><ele>109.0</ele><time>2026-03-30T11:43:41.685Z</time></trkpt><trkpt lat="43.0865633" lon="2.6902567"><ele>111.5</ele><time>2026-03-30T11:43:42.686Z</time></trkpt><trkpt lat="43.086565" lon="2.6900783"><ele>114.0</ele><time>2026-03-30T11:43:43.685Z</time></trkpt><trkpt lat="43.086565" lon="2.689905"><ele>114.0</ele><time>2026-03-30T11:43:44.687Z</time></trkpt><trkpt lat="43.0865667" lon="2.6897267"><ele>114.0</ele><time>2026-03-30T11:43:45.686Z</time></trkpt><trkpt lat="43.086575" lon="2.68955"><ele>114.0</ele><time>2026-03-30T11:43:46.684Z</time></trkpt><trkpt lat="43.086585" lon="2.6893683"><ele>114.0</ele><time>2026-03-30T11:43:47.687Z</time></trkpt><trkpt lat="43.0865983" lon="2.6891967"><ele>113.25</ele><time>2026-03-30T11:43:48.685Z</time></trkpt><trkpt lat="43.086615" lon="2.689035"><ele>112.5</ele><time>2026-03-30T11:43:49.686Z</time></trkpt><trkpt lat="43.0866317" lon="2.6888817"><ele>111.75</ele><time>2026-03-30T11:43:50.686Z</time></trkpt><trkpt lat="43.086645" lon="2.688725"><ele>111.0</ele><time>2026-03-30T11:43:51.684Z</time></trkpt><trkpt lat="43.0866483" lon="2.6885633"><ele>111.0</ele><time>2026-03-30T11:43:52.684Z</time></trkpt><trkpt lat="43.0866383" lon="2.6884033"><ele>111.0</ele><time>2026-03-30T11:43:53.686Z</time></trkpt><trkpt lat="43.0866217" lon="2.6882417"><ele>111.0</ele><time>2026-03-30T11:43:54.686Z</time></trkpt><trkpt lat="43.086605" lon="2.688075"><ele>111.0</ele><time>2026-03-30T11:43:55.685Z</time></trkpt><trkpt lat="43.086585" lon="2.6879083"><ele>111.0</ele><time>2026-03-30T11:43:56.685Z</time></trkpt><trkpt lat="43.0865633" lon="2.6877517"><ele>111.0</ele><time>2026-03-30T11:43:57.685Z</time></trkpt><trkpt lat="43.0865417" lon="2.6876067"><ele>111.0</ele><time>2026-03-30T11:43:58.684Z</time></trkpt><trkpt lat="43.0865233" lon="2.6874733"><ele>111.0</ele><time>2026-03-30T11:43:59.685Z</time></trkpt><trkpt lat="43.0865133" lon="2.6873517"><ele>111.0</ele><time>2026-03-30T11:44:00.687Z</time></trkpt><trkpt lat="43.0865283" lon="2.6872417"><ele>111.0</ele><time>2026-03-30T11:44:01.685Z</time></trkpt><trkpt lat="43.0865667" lon="2.687155"><ele>111.0</ele><time>2026-03-30T11:44:02.686Z</time></trkpt><trkpt lat="43.086625" lon="2.687095"><ele>111.0</ele><time>2026-03-30T11:44:03.685Z</time></trkpt><trkpt lat="43.086675" lon="2.68703"><ele>111.0</ele><time>2026-03-30T11:44:04.685Z</time></trkpt><trkpt lat="43.08671" lon="2.6869533"><ele>111.0</ele><time>2026-03-30T11:44:05.688Z</time></trkpt><trkpt lat="43.0867167" lon="2.6868583"><ele>111.0</ele><time>2026-03-30T11:44:06.684Z</time></trkpt><trkpt lat="43.0867017" lon="2.6867567"><ele>111.0</ele><time>2026-03-30T11:44:07.686Z</time></trkpt><trkpt lat="43.086665" lon="2.68665"><ele>111.19999999999999</ele><time>2026-03-30T11:44:08.686Z</time></trkpt><trkpt lat="43.0866283" lon="2.6865233"><ele>111.39999999999999</ele><time>2026-03-30T11:44:09.688Z</time></trkpt><trkpt lat="43.086605" lon="2.6863817"><ele>111.6</ele><time>2026-03-30T11:44:10.686Z</time></trkpt><trkpt lat="43.086585" lon="2.6862367"><ele>111.8</ele><time>2026-03-30T11:44:11.685Z</time></trkpt><trkpt lat="43.0865567" lon="2.68609"><ele>112.0</ele><time>2026-03-30T11:44:12.687Z</time></trkpt><trkpt lat="43.0865117" lon="2.6859383"><ele>112.5</ele><time>2026-03-30T11:44:13.688Z</time></trkpt><trkpt lat="43.086455" lon="2.68579"><ele>113.0</ele><time>2026-03-30T11:44:14.686Z</time></trkpt><trkpt lat="43.0863933" lon="2.685635"><ele>113.5</ele><time>2026-03-30T11:44:15.687Z</time></trkpt><trkpt lat="43.0863367" lon="2.6854783"><ele>114.0</ele><time>2026-03-30T11:44:16.687Z</time></trkpt><trkpt lat="43.0862833" lon="2.6853233"><ele>114.0</ele><time>2026-03-30T11:44:17.684Z</time></trkpt><trkpt lat="43.086235" lon="2.685165"><ele>114.0</ele><time>2026-03-30T11:44:18.684Z</time></trkpt><trkpt lat="43.0861917" lon="2.6850067"><ele>114.0</ele><time>2026-03-30T11:44:19.686Z</time></trkpt><trkpt lat="43.0861517" lon="2.684845"><ele>114.0</ele><time>2026-03-30T11:44:20.686Z</time></trkpt><trkpt lat="43.08611" lon="2.6846817"><ele>114.0</ele><time>2026-03-30T11:44:21.685Z</time></trkpt><trkpt lat="43.0860667" lon="2.6845167"><ele>114.0</ele><time>2026-03-30T11:44:22.688Z</time></trkpt><trkpt lat="43.0860267" lon="2.6843533"><ele>114.0</ele><time>2026-03-30T11:44:23.687Z</time></trkpt><trkpt lat="43.0859933" lon="2.6842"><ele>114.0</ele><time>2026-03-30T11:44:24.685Z</time></trkpt><trkpt lat="43.085965" lon="2.6840567"><ele>114.4</ele><time>2026-03-30T11:44:25.686Z</time></trkpt><trkpt lat="43.0859433" lon="2.683915"><ele>114.80000000000001</ele><time>2026-03-30T11:44:26.686Z</time></trkpt><trkpt lat="43.0859167" lon="2.6837717"><ele>115.19999999999999</ele><time>2026-03-30T11:44:27.685Z</time></trkpt><trkpt lat="43.0858767" lon="2.6836233"><ele>115.6</ele><time>2026-03-30T11:44:28.686Z</time></trkpt><trkpt lat="43.0858367" lon="2.6834767"><ele>116.0</ele><time>2026-03-30T11:44:29.685Z</time></trkpt><trkpt lat="43.085805" lon="2.6833283"><ele>116.4</ele><time>2026-03-30T11:44:30.687Z</time></trkpt><trkpt lat="43.0857867" lon="2.6831783"><ele>116.8</ele><time>2026-03-30T11:44:31.686Z</time></trkpt><trkpt lat="43.0857767" lon="2.6830283"><ele>117.20000000000002</ele><time>2026-03-30T11:44:32.686Z</time></trkpt><trkpt lat="43.0857783" lon="2.68288"><ele>117.60000000000001</ele><time>2026-03-30T11:44:33.686Z</time></trkpt><trkpt lat="43.085775" lon="2.6827383"><ele>118.0</ele><time>2026-03-30T11:44:34.685Z</time></trkpt><trkpt lat="43.0857567" lon="2.6826167"><ele>118.0</ele><time>2026-03-30T11:44:35.685Z</time></trkpt><trkpt lat="43.0857383" lon="2.68251"><ele>118.00000000000001</ele><time>2026-03-30T11:44:36.686Z</time></trkpt><trkpt lat="43.0857267" lon="2.682395"><ele>118.00000000000001</ele><time>2026-03-30T11:44:37.685Z</time></trkpt><trkpt lat="43.0857317" lon="2.6822667"><ele>118.0</ele><time>2026-03-30T11:44:38.686Z</time></trkpt><trkpt lat="43.0857567" lon="2.6821317"><ele>118.0</ele><time>2026-03-30T11:44:39.686Z</time></trkpt><trkpt lat="43.0857917" lon="2.6819967"><ele>118.2</ele><time>2026-03-30T11:44:40.685Z</time></trkpt><trkpt lat="43.085835" lon="2.6818733"><ele>118.4</ele><time>2026-03-30T11:44:41.685Z</time></trkpt><trkpt lat="43.0858833" lon="2.681765"><ele>118.60000000000001</ele><time>2026-03-30T11:44:42.686Z</time></trkpt><trkpt lat="43.085935" lon="2.681655"><ele>118.80000000000001</ele><time>2026-03-30T11:44:43.684Z</time></trkpt><trkpt lat="43.08598" lon="2.6815433"><ele>119.0</ele><time>2026-03-30T11:44:44.686Z</time></trkpt><trkpt lat="43.0860083" lon="2.6814217"><ele>118.99999999999999</ele><time>2026-03-30T11:44:45.686Z</time></trkpt><trkpt lat="43.08602" lon="2.6813067"><ele>119.0</ele><time>2026-03-30T11:44:46.685Z</time></trkpt><trkpt lat="43.0860183" lon="2.681195"><ele>119.0</ele><time>2026-03-30T11:44:47.686Z</time></trkpt><trkpt lat="43.0859933" lon="2.68109"><ele>119.0</ele><time>2026-03-30T11:44:48.685Z</time></trkpt><trkpt lat="43.0859533" lon="2.6809817"><ele>118.99999999999999</ele><time>2026-03-30T11:44:49.686Z</time></trkpt><trkpt lat="43.0859033" lon="2.6808583"><ele>119.0</ele><time>2026-03-30T11:44:50.685Z</time></trkpt><trkpt lat="43.0858583" lon="2.6807167"><ele>119.0</ele><time>2026-03-30T11:44:51.685Z</time></trkpt><trkpt lat="43.08582" lon="2.680575"><ele>119.0</ele><time>2026-03-30T11:44:52.685Z</time></trkpt><trkpt lat="43.08578" lon="2.680435"><ele>119.0</ele><time>2026-03-30T11:44:53.686Z</time></trkpt><trkpt lat="43.08574" lon="2.6802933"><ele>119.0</ele><time>2026-03-30T11:44:54.686Z</time></trkpt><trkpt lat="43.0857033" lon="2.6801467"><ele>119.0</ele><time>2026-03-30T11:44:55.685Z</time></trkpt><trkpt lat="43.0856683" lon="2.6799967"><ele>119.0</ele><time>2026-03-30T11:44:56.686Z</time></trkpt><trkpt lat="43.0856383" lon="2.6798367"><ele>119.0</ele><time>2026-03-30T11:44:57.684Z</time></trkpt><trkpt lat="43.085595" lon="2.67951"><ele>119.0</ele><time>2026-03-30T11:44:59.686Z</time></trkpt><trkpt lat="43.085575" lon="2.67935"><ele>119.5</ele><time>2026-03-30T11:45:00.684Z</time></trkpt><trkpt lat="43.0855567" lon="2.6791933"><ele>120.0</ele><time>2026-03-30T11:45:01.684Z</time></trkpt><trkpt lat="43.0855383" lon="2.6790283"><ele>120.5</ele><time>2026-03-30T11:45:02.686Z</time></trkpt><trkpt lat="43.0855167" lon="2.6788483"><ele>121.0</ele><time>2026-03-30T11:45:03.684Z</time></trkpt><trkpt lat="43.085495" lon="2.678665"><ele>121.0</ele><time>2026-03-30T11:45:04.686Z</time></trkpt><trkpt lat="43.0854767" lon="2.6784933"><ele>121.0</ele><time>2026-03-30T11:45:05.685Z</time></trkpt><trkpt lat="43.0854633" lon="2.67832"><ele>121.0</ele><time>2026-03-30T11:45:06.687Z</time></trkpt><trkpt lat="43.0854483" lon="2.6781483"><ele>121.0</ele><time>2026-03-30T11:45:07.684Z</time></trkpt><trkpt lat="43.0854183" lon="2.677985"><ele>121.0</ele><time>2026-03-30T11:45:08.686Z</time></trkpt><trkpt lat="43.085375" lon="2.67784"><ele>121.0</ele><time>2026-03-30T11:45:09.686Z</time></trkpt><trkpt lat="43.0853317" lon="2.677715"><ele>121.0</ele><time>2026-03-30T11:45:10.687Z</time></trkpt><trkpt lat="43.0852933" lon="2.6775883"><ele>121.0</ele><time>2026-03-30T11:45:11.686Z</time></trkpt><trkpt lat="43.0852717" lon="2.6774567"><ele>121.0</ele><time>2026-03-30T11:45:12.684Z</time></trkpt><trkpt lat="43.0852733" lon="2.6773233"><ele>121.0</ele><time>2026-03-30T11:45:13.685Z</time></trkpt><trkpt lat="43.0853" lon="2.6771833"><ele>121.0</ele><time>2026-03-30T11:45:14.686Z</time></trkpt><trkpt lat="43.0853267" lon="2.6770383"><ele>121.0</ele><time>2026-03-30T11:45:15.685Z</time></trkpt><trkpt lat="43.085335" lon="2.67689"><ele>121.0</ele><time>2026-03-30T11:45:16.685Z</time></trkpt><trkpt lat="43.0853217" lon="2.6767417"><ele>121.0</ele><time>2026-03-30T11:45:17.685Z</time></trkpt><trkpt lat="43.0852967" lon="2.6765883"><ele>121.25</ele><time>2026-03-30T11:45:18.686Z</time></trkpt><trkpt lat="43.085265" lon="2.67643"><ele>121.5</ele><time>2026-03-30T11:45:19.686Z</time></trkpt><trkpt lat="43.0852233" lon="2.6762733"><ele>121.75</ele><time>2026-03-30T11:45:20.686Z</time></trkpt><trkpt lat="43.0851833" lon="2.676125"><ele>122.0</ele><time>2026-03-30T11:45:21.685Z</time></trkpt><trkpt lat="43.0851483" lon="2.675985"><ele>122.19999999999999</ele><time>2026-03-30T11:45:22.685Z</time></trkpt><trkpt lat="43.08512" lon="2.67585"><ele>122.39999999999999</ele><time>2026-03-30T11:45:23.686Z</time></trkpt><trkpt lat="43.0851" lon="2.6757067"><ele>122.60000000000001</ele><time>2026-03-30T11:45:24.686Z</time></trkpt><trkpt lat="43.0850917" lon="2.67555"><ele>122.80000000000001</ele><time>2026-03-30T11:45:25.685Z</time></trkpt><trkpt lat="43.0850867" lon="2.675385"><ele>123.0</ele><time>2026-03-30T11:45:26.689Z</time></trkpt><trkpt lat="43.0850817" lon="2.67521"><ele>123.5</ele><time>2026-03-30T11:45:27.686Z</time></trkpt><trkpt lat="43.0850733" lon="2.6750217"><ele>124.0</ele><time>2026-03-30T11:45:28.684Z</time></trkpt><trkpt lat="43.0850617" lon="2.6748283"><ele>124.5</ele><time>2026-03-30T11:45:29.687Z</time></trkpt><trkpt lat="43.08505" lon="2.6746367"><ele>125.0</ele><time>2026-03-30T11:45:30.685Z</time></trkpt><trkpt lat="43.08504" lon="2.6744467"><ele>125.5</ele><time>2026-03-30T11:45:31.685Z</time></trkpt><trkpt lat="43.0850333" lon="2.6742517"><ele>126.0</ele><time>2026-03-30T11:45:32.689Z</time></trkpt><trkpt lat="43.0850317" lon="2.6740533"><ele>126.5</ele><time>2026-03-30T11:45:33.688Z</time></trkpt><trkpt lat="43.0850267" lon="2.6738517"><ele>127.0</ele><time>2026-03-30T11:45:34.686Z</time></trkpt><trkpt lat="43.0850183" lon="2.6736467"><ele>127.66666666666667</ele><time>2026-03-30T11:45:35.688Z</time></trkpt><trkpt lat="43.085005" lon="2.67344"><ele>128.33333333333334</ele><time>2026-03-30T11:45:36.686Z</time></trkpt><trkpt lat="43.084995" lon="2.6732317"><ele>129.0</ele><time>2026-03-30T11:45:37.685Z</time></trkpt><trkpt lat="43.084985" lon="2.67302"><ele>129.0</ele><time>2026-03-30T11:45:38.69Z</time></trkpt><trkpt lat="43.08498" lon="2.67281"><ele>129.0</ele><time>2026-03-30T11:45:39.686Z</time></trkpt><trkpt lat="43.084975" lon="2.6726017"><ele>129.0</ele><time>2026-03-30T11:45:40.684Z</time></trkpt><trkpt lat="43.0849717" lon="2.6724"><ele>128.75</ele><time>2026-03-30T11:45:41.685Z</time></trkpt><trkpt lat="43.0849617" lon="2.6722017"><ele>128.5</ele><time>2026-03-30T11:45:42.685Z</time></trkpt><trkpt lat="43.0849483" lon="2.67203"><ele>128.25</ele><time>2026-03-30T11:45:43.686Z</time></trkpt><trkpt lat="43.0849333" lon="2.6718817"><ele>128.0</ele><time>2026-03-30T11:45:44.686Z</time></trkpt><trkpt lat="43.084925" lon="2.671755"><ele>128.5</ele><time>2026-03-30T11:45:45.687Z</time></trkpt><trkpt lat="43.08493" lon="2.6716483"><ele>129.0</ele><time>2026-03-30T11:45:46.685Z</time></trkpt><trkpt lat="43.0849533" lon="2.6715533"><ele>129.5</ele><time>2026-03-30T11:45:47.688Z</time></trkpt><trkpt lat="43.0849817" lon="2.671445"><ele>130.0</ele><time>2026-03-30T11:45:48.687Z</time></trkpt><trkpt lat="43.0850033" lon="2.67133"><ele>130.5</ele><time>2026-03-30T11:45:49.686Z</time></trkpt><trkpt lat="43.0850167" lon="2.67121"><ele>131.0</ele><time>2026-03-30T11:45:50.685Z</time></trkpt><trkpt lat="43.0850133" lon="2.67108"><ele>131.0</ele><time>2026-03-30T11:45:51.685Z</time></trkpt><trkpt lat="43.084995" lon="2.670955"><ele>131.0</ele><time>2026-03-30T11:45:52.687Z</time></trkpt><trkpt lat="43.084965" lon="2.6708233"><ele>131.0</ele><time>2026-03-30T11:45:53.686Z</time></trkpt><trkpt lat="43.0849183" lon="2.6706933"><ele>131.0</ele><time>2026-03-30T11:45:54.684Z</time></trkpt><trkpt lat="43.084855" lon="2.6705733"><ele>131.0</ele><time>2026-03-30T11:45:55.685Z</time></trkpt><trkpt lat="43.0847717" lon="2.670465"><ele>131.25</ele><time>2026-03-30T11:45:56.688Z</time></trkpt><trkpt lat="43.08467" lon="2.6703733"><ele>131.5</ele><time>2026-03-30T11:45:57.685Z</time></trkpt><trkpt lat="43.08456" lon="2.6702867"><ele>131.75</ele><time>2026-03-30T11:45:58.686Z</time></trkpt><trkpt lat="43.0844467" lon="2.6702017"><ele>132.0</ele><time>2026-03-30T11:45:59.684Z</time></trkpt><trkpt lat="43.084335" lon="2.6701133"><ele>132.0</ele><time>2026-03-30T11:46:00.688Z</time></trkpt><trkpt lat="43.08423" lon="2.6700267"><ele>132.0</ele><time>2026-03-30T11:46:01.686Z</time></trkpt><trkpt lat="43.084135" lon="2.6699467"><ele>132.0</ele><time>2026-03-30T11:46:02.687Z</time></trkpt><trkpt lat="43.0840483" lon="2.66987"><ele>132.0</ele><time>2026-03-30T11:46:03.687Z</time></trkpt><trkpt lat="43.0839767" lon="2.6697967"><ele>132.0</ele><time>2026-03-30T11:46:04.684Z</time></trkpt><trkpt lat="43.0839167" lon="2.6697167"><ele>131.6</ele><time>2026-03-30T11:46:05.685Z</time></trkpt><trkpt lat="43.0838733" lon="2.66962"><ele>131.2</ele><time>2026-03-30T11:46:06.686Z</time></trkpt><trkpt lat="43.0838433" lon="2.669505"><ele>130.8</ele><time>2026-03-30T11:46:07.685Z</time></trkpt><trkpt lat="43.083825" lon="2.669375"><ele>130.4</ele><time>2026-03-30T11:46:08.686Z</time></trkpt><trkpt lat="43.0838117" lon="2.6692417"><ele>130.0</ele><time>2026-03-30T11:46:09.685Z</time></trkpt><trkpt lat="43.0838" lon="2.669105"><ele>130.0</ele><time>2026-03-30T11:46:10.685Z</time></trkpt><trkpt lat="43.083785" lon="2.668965"><ele>130.0</ele><time>2026-03-30T11:46:11.685Z</time></trkpt><trkpt lat="43.08377" lon="2.668825"><ele>130.0</ele><time>2026-03-30T11:46:12.687Z</time></trkpt><trkpt lat="43.0837533" lon="2.6686883"><ele>130.0</ele><time>2026-03-30T11:46:13.687Z</time></trkpt><trkpt lat="43.0837367" lon="2.6685517"><ele>130.0</ele><time>2026-03-30T11:46:14.685Z</time></trkpt><trkpt lat="43.0837183" lon="2.6684167"><ele>131.0</ele><time>2026-03-30T11:46:15.687Z</time></trkpt><trkpt lat="43.083695" lon="2.66828"><ele>132.0</ele><time>2026-03-30T11:46:16.686Z</time></trkpt><trkpt lat="43.0836667" lon="2.6681433"><ele>133.0</ele><time>2026-03-30T11:46:17.687Z</time></trkpt><trkpt lat="43.08364" lon="2.6680033"><ele>134.0</ele><time>2026-03-30T11:46:18.685Z</time></trkpt><trkpt lat="43.0836133" lon="2.6678667"><ele>135.0</ele><time>2026-03-30T11:46:19.687Z</time></trkpt><trkpt lat="43.083585" lon="2.6677333"><ele>135.16666666666666</ele><time>2026-03-30T11:46:20.685Z</time></trkpt><trkpt lat="43.0835567" lon="2.6676083"><ele>135.33333333333334</ele><time>2026-03-30T11:46:21.688Z</time></trkpt><trkpt lat="43.0835317" lon="2.6674933"><ele>135.5</ele><time>2026-03-30T11:46:22.685Z</time></trkpt><trkpt lat="43.083505" lon="2.6673867"><ele>135.66666666666669</ele><time>2026-03-30T11:46:23.685Z</time></trkpt><trkpt lat="43.0834783" lon="2.6672883"><ele>135.83333333333334</ele><time>2026-03-30T11:46:24.687Z</time></trkpt><trkpt lat="43.08345" lon="2.6671917"><ele>136.0</ele><time>2026-03-30T11:46:25.685Z</time></trkpt><trkpt lat="43.0834267" lon="2.6671"><ele>135.99999999999997</ele><time>2026-03-30T11:46:26.687Z</time></trkpt><trkpt lat="43.083405" lon="2.6670083"><ele>136.0</ele><time>2026-03-30T11:46:27.686Z</time></trkpt><trkpt lat="43.0833867" lon="2.6669167"><ele>136.0</ele><time>2026-03-30T11:46:28.685Z</time></trkpt><trkpt lat="43.0833667" lon="2.666825"><ele>136.0</ele><time>2026-03-30T11:46:29.686Z</time></trkpt><trkpt lat="43.0833433" lon="2.6667333"><ele>136.0</ele><time>2026-03-30T11:46:30.685Z</time></trkpt><trkpt lat="43.083325" lon="2.6666367"><ele>135.99999999999997</ele><time>2026-03-30T11:46:31.686Z</time></trkpt><trkpt lat="43.0833067" lon="2.666545"><ele>136.0</ele><time>2026-03-30T11:46:32.688Z</time></trkpt><trkpt lat="43.08328" lon="2.6663883"><ele>135.8</ele><time>2026-03-30T11:46:34.685Z</time></trkpt><trkpt lat="43.0832567" lon="2.6662517"><ele>135.6</ele><time>2026-03-30T11:46:36.686Z</time></trkpt><trkpt lat="43.0832283" lon="2.66613"><ele>135.4</ele><time>2026-03-30T11:46:38.685Z</time></trkpt><trkpt lat="43.0831867" lon="2.6659467"><ele>135.2</ele><time>2026-03-30T11:46:41.687Z</time></trkpt><trkpt lat="43.0831667" lon="2.6658533"><ele>135.0</ele><time>2026-03-30T11:46:42.685Z</time></trkpt><trkpt lat="43.0831517" lon="2.6657567"><ele>135.0</ele><time>2026-03-30T11:46:43.684Z</time></trkpt><trkpt lat="43.0831367" lon="2.6656633"><ele>135.0</ele><time>2026-03-30T11:46:44.685Z</time></trkpt><trkpt lat="43.083115" lon="2.6655517"><ele>135.0</ele><time>2026-03-30T11:46:45.685Z</time></trkpt><trkpt lat="43.0830933" lon="2.6654417"><ele>135.0</ele><time>2026-03-30T11:46:46.685Z</time></trkpt><trkpt lat="43.08307" lon="2.6653267"><ele>135.0</ele><time>2026-03-30T11:46:47.686Z</time></trkpt><trkpt lat="43.083045" lon="2.6652083"><ele>135.0</ele><time>2026-03-30T11:46:48.687Z</time></trkpt><trkpt lat="43.08302" lon="2.6650967"><ele>135.28571428571428</ele><time>2026-03-30T11:46:49.685Z</time></trkpt><trkpt lat="43.0829967" lon="2.665"><ele>135.57142857142856</ele><time>2026-03-30T11:46:50.687Z</time></trkpt><trkpt lat="43.0829817" lon="2.6649117"><ele>135.85714285714286</ele><time>2026-03-30T11:46:51.686Z</time></trkpt><trkpt lat="43.0829767" lon="2.6648167"><ele>136.14285714285714</ele><time>2026-03-30T11:46:52.686Z</time></trkpt><trkpt lat="43.0829783" lon="2.6647183"><ele>136.42857142857144</ele><time>2026-03-30T11:46:53.687Z</time></trkpt><trkpt lat="43.082975" lon="2.66461"><ele>136.71428571428572</ele><time>2026-03-30T11:46:54.686Z</time></trkpt><trkpt lat="43.0829733" lon="2.6645033"><ele>137.0</ele><time>2026-03-30T11:46:55.688Z</time></trkpt><trkpt lat="43.0829683" lon="2.6643967"><ele>137.00000000000003</ele><time>2026-03-30T11:46:56.688Z</time></trkpt><trkpt lat="43.0829667" lon="2.6642933"><ele>137.0</ele><time>2026-03-30T11:46:57.686Z</time></trkpt><trkpt lat="43.0829767" lon="2.664195"><ele>137.0</ele><time>2026-03-30T11:46:58.686Z</time></trkpt><trkpt lat="43.0830017" lon="2.6641033"><ele>137.0</ele><time>2026-03-30T11:46:59.686Z</time></trkpt><trkpt lat="43.0830333" lon="2.6640083"><ele>137.0</ele><time>2026-03-30T11:47:00.686Z</time></trkpt><trkpt lat="43.0830683" lon="2.6639217"><ele>137.00000000000003</ele><time>2026-03-30T11:47:01.685Z</time></trkpt><trkpt lat="43.0830867" lon="2.6638367"><ele>137.0</ele><time>2026-03-30T11:47:02.686Z</time></trkpt><trkpt lat="43.0830817" lon="2.6637317"><ele>137.0</ele><time>2026-03-30T11:47:03.686Z</time></trkpt><trkpt lat="43.083065" lon="2.6636217"><ele>137.0</ele><time>2026-03-30T11:47:04.685Z</time></trkpt><trkpt lat="43.0830467" lon="2.663505"><ele>137.0</ele><time>2026-03-30T11:47:05.687Z</time></trkpt><trkpt lat="43.0830267" lon="2.66339"><ele>137.0</ele><time>2026-03-30T11:47:06.686Z</time></trkpt><trkpt lat="43.0830067" lon="2.6632767"><ele>137.0</ele><time>2026-03-30T11:47:07.686Z</time></trkpt><trkpt lat="43.0829917" lon="2.6631667"><ele>137.0</ele><time>2026-03-30T11:47:08.686Z</time></trkpt><trkpt lat="43.08298" lon="2.663065"><ele>137.00000000000003</ele><time>2026-03-30T11:47:09.689Z</time></trkpt><trkpt lat="43.0829733" lon="2.6629633"><ele>137.0</ele><time>2026-03-30T11:47:10.686Z</time></trkpt><trkpt lat="43.08296" lon="2.6628533"><ele>137.0</ele><time>2026-03-30T11:47:11.687Z</time></trkpt><trkpt lat="43.0829417" lon="2.6627533"><ele>137.0</ele><time>2026-03-30T11:47:12.685Z</time></trkpt><trkpt lat="43.0829233" lon="2.6626517"><ele>137.0</ele><time>2026-03-30T11:47:13.687Z</time></trkpt><trkpt lat="43.0829117" lon="2.6625567"><ele>137.00000000000003</ele><time>2026-03-30T11:47:14.686Z</time></trkpt><trkpt lat="43.0829017" lon="2.66246"><ele>137.0</ele><time>2026-03-30T11:47:15.685Z</time></trkpt><trkpt lat="43.0828883" lon="2.6623583"><ele>137.0</ele><time>2026-03-30T11:47:16.685Z</time></trkpt><trkpt lat="43.0828717" lon="2.6622617"><ele>137.0</ele><time>2026-03-30T11:47:17.686Z</time></trkpt><trkpt lat="43.0828583" lon="2.6621583"><ele>137.0</ele><time>2026-03-30T11:47:18.687Z</time></trkpt><trkpt lat="43.0828417" lon="2.6620467"><ele>137.0</ele><time>2026-03-30T11:47:19.686Z</time></trkpt><trkpt lat="43.082825" lon="2.66193"><ele>137.0</ele><time>2026-03-30T11:47:20.686Z</time></trkpt><trkpt lat="43.082815" lon="2.66181"><ele>137.0</ele><time>2026-03-30T11:47:21.685Z</time></trkpt><trkpt lat="43.0828067" lon="2.6616817"><ele>137.0</ele><time>2026-03-30T11:47:22.687Z</time></trkpt><trkpt lat="43.0827983" lon="2.6615517"><ele>137.0</ele><time>2026-03-30T11:47:23.69Z</time></trkpt><trkpt lat="43.0827967" lon="2.6614267"><ele>137.0</ele><time>2026-03-30T11:47:24.688Z</time></trkpt><trkpt lat="43.0828033" lon="2.66131"><ele>137.0</ele><time>2026-03-30T11:47:25.685Z</time></trkpt><trkpt lat="43.0827983" lon="2.66119"><ele>137.0</ele><time>2026-03-30T11:47:26.686Z</time></trkpt><trkpt lat="43.0827783" lon="2.6610767"><ele>137.0</ele><time>2026-03-30T11:47:27.687Z</time></trkpt><trkpt lat="43.08274" lon="2.6609833"><ele>136.83333333333331</ele><time>2026-03-30T11:47:28.685Z</time></trkpt><trkpt lat="43.0827067" lon="2.6609017"><ele>136.66666666666666</ele><time>2026-03-30T11:47:29.685Z</time></trkpt><trkpt lat="43.0826833" lon="2.660815"><ele>136.5</ele><time>2026-03-30T11:47:30.686Z</time></trkpt><trkpt lat="43.0826733" lon="2.6607167"><ele>136.33333333333334</ele><time>2026-03-30T11:47:31.687Z</time></trkpt><trkpt lat="43.0826817" lon="2.6606033"><ele>136.16666666666669</ele><time>2026-03-30T11:47:32.689Z</time></trkpt><trkpt lat="43.0826867" lon="2.66047"><ele>136.0</ele><time>2026-03-30T11:47:33.684Z</time></trkpt><trkpt lat="43.0826817" lon="2.6603317"><ele>136.0</ele><time>2026-03-30T11:47:34.684Z</time></trkpt><trkpt lat="43.0826767" lon="2.6602033"><ele>136.0</ele><time>2026-03-30T11:47:35.685Z</time></trkpt><trkpt lat="43.0826733" lon="2.660075"><ele>136.0</ele><time>2026-03-30T11:47:36.688Z</time></trkpt><trkpt lat="43.0826733" lon="2.6599433"><ele>136.0</ele><time>2026-03-30T11:47:37.685Z</time></trkpt><trkpt lat="43.08268" lon="2.65981"><ele>136.0</ele><time>2026-03-30T11:47:38.686Z</time></trkpt><trkpt lat="43.0826933" lon="2.6596683"><ele>136.0</ele><time>2026-03-30T11:47:39.685Z</time></trkpt><trkpt lat="43.08271" lon="2.65952"><ele>136.0</ele><time>2026-03-30T11:47:40.685Z</time></trkpt><trkpt lat="43.0827317" lon="2.6593617"><ele>136.0</ele><time>2026-03-30T11:47:41.686Z</time></trkpt><trkpt lat="43.082745" lon="2.6591983"><ele>136.0</ele><time>2026-03-30T11:47:42.685Z</time></trkpt><trkpt lat="43.08275" lon="2.6590317"><ele>136.0</ele><time>2026-03-30T11:47:43.686Z</time></trkpt><trkpt lat="43.082745" lon="2.6588533"><ele>136.0</ele><time>2026-03-30T11:47:44.685Z</time></trkpt><trkpt lat="43.0827333" lon="2.6586717"><ele>136.0</ele><time>2026-03-30T11:47:45.687Z</time></trkpt><trkpt lat="43.0827183" lon="2.6584883"><ele>136.0</ele><time>2026-03-30T11:47:46.685Z</time></trkpt><trkpt lat="43.0826917" lon="2.6583033"><ele>136.25</ele><time>2026-03-30T11:47:47.686Z</time></trkpt><trkpt lat="43.08266" lon="2.6581217"><ele>136.5</ele><time>2026-03-30T11:47:48.686Z</time></trkpt><trkpt lat="43.0826283" lon="2.6579417"><ele>136.75</ele><time>2026-03-30T11:47:49.686Z</time></trkpt><trkpt lat="43.082605" lon="2.6577583"><ele>137.0</ele><time>2026-03-30T11:47:50.687Z</time></trkpt><trkpt lat="43.082595" lon="2.6575733"><ele>137.5</ele><time>2026-03-30T11:47:51.685Z</time></trkpt><trkpt lat="43.0826" lon="2.657385"><ele>138.0</ele><time>2026-03-30T11:47:52.687Z</time></trkpt><trkpt lat="43.0826133" lon="2.6571917"><ele>138.5</ele><time>2026-03-30T11:47:53.685Z</time></trkpt><trkpt lat="43.0826317" lon="2.656995"><ele>139.0</ele><time>2026-03-30T11:47:54.685Z</time></trkpt><trkpt lat="43.0826617" lon="2.6567983"><ele>140.33333333333334</ele><time>2026-03-30T11:47:55.685Z</time></trkpt><trkpt lat="43.082695" lon="2.6566"><ele>141.66666666666666</ele><time>2026-03-30T11:47:56.689Z</time></trkpt><trkpt lat="43.0827367" lon="2.6564017"><ele>143.0</ele><time>2026-03-30T11:47:57.686Z</time></trkpt><trkpt lat="43.0827767" lon="2.6561983"><ele>144.0</ele><time>2026-03-30T11:47:58.685Z</time></trkpt><trkpt lat="43.0828133" lon="2.6559967"><ele>145.0</ele><time>2026-03-30T11:47:59.686Z</time></trkpt><trkpt lat="43.0828433" lon="2.6557883"><ele>146.0</ele><time>2026-03-30T11:48:00.685Z</time></trkpt><trkpt lat="43.0828533" lon="2.6555817"><ele>146.0</ele><time>2026-03-30T11:48:01.685Z</time></trkpt><trkpt lat="43.0828483" lon="2.6553767"><ele>146.0</ele><time>2026-03-30T11:48:02.689Z</time></trkpt><trkpt lat="43.0828333" lon="2.6551767"><ele>146.0</ele><time>2026-03-30T11:48:03.685Z</time></trkpt><trkpt lat="43.08281" lon="2.6549833"><ele>146.0</ele><time>2026-03-30T11:48:04.686Z</time></trkpt><trkpt lat="43.0827767" lon="2.6548033"><ele>146.5</ele><time>2026-03-30T11:48:05.686Z</time></trkpt><trkpt lat="43.0827383" lon="2.6546283"><ele>147.0</ele><time>2026-03-30T11:48:06.687Z</time></trkpt><trkpt lat="43.0827017" lon="2.6544433"><ele>147.5</ele><time>2026-03-30T11:48:07.688Z</time></trkpt><trkpt lat="43.0826817" lon="2.6542517"><ele>148.0</ele><time>2026-03-30T11:48:08.686Z</time></trkpt><trkpt lat="43.0826733" lon="2.6540517"><ele>148.25</ele><time>2026-03-30T11:48:09.686Z</time></trkpt><trkpt lat="43.0826717" lon="2.6538483"><ele>148.5</ele><time>2026-03-30T11:48:10.685Z</time></trkpt><trkpt lat="43.0826767" lon="2.6536467"><ele>148.75</ele><time>2026-03-30T11:48:11.686Z</time></trkpt><trkpt lat="43.0826867" lon="2.65345"><ele>149.0</ele><time>2026-03-30T11:48:12.686Z</time></trkpt><trkpt lat="43.0827083" lon="2.6532533"><ele>148.66666666666666</ele><time>2026-03-30T11:48:13.684Z</time></trkpt><trkpt lat="43.08274" lon="2.6530533"><ele>148.33333333333334</ele><time>2026-03-30T11:48:14.686Z</time></trkpt><trkpt lat="43.08278" lon="2.652855"><ele>148.0</ele><time>2026-03-30T11:48:15.685Z</time></trkpt><trkpt lat="43.082825" lon="2.6526533"><ele>148.0</ele><time>2026-03-30T11:48:16.685Z</time></trkpt><trkpt lat="43.08287" lon="2.652455"><ele>148.0</ele><time>2026-03-30T11:48:17.686Z</time></trkpt><trkpt lat="43.0829183" lon="2.6522617"><ele>148.0</ele><time>2026-03-30T11:48:18.686Z</time></trkpt><trkpt lat="43.0829633" lon="2.6520733"><ele>148.0</ele><time>2026-03-30T11:48:19.686Z</time></trkpt><trkpt lat="43.0829983" lon="2.6518917"><ele>148.0</ele><time>2026-03-30T11:48:20.686Z</time></trkpt><trkpt lat="43.083015" lon="2.65171"><ele>148.0</ele><time>2026-03-30T11:48:21.687Z</time></trkpt><trkpt lat="43.0830133" lon="2.65154"><ele>148.0</ele><time>2026-03-30T11:48:22.688Z</time></trkpt><trkpt lat="43.0830117" lon="2.6513767"><ele>148.0</ele><time>2026-03-30T11:48:23.687Z</time></trkpt><trkpt lat="43.083025" lon="2.6512083"><ele>148.25</ele><time>2026-03-30T11:48:24.685Z</time></trkpt><trkpt lat="43.0830533" lon="2.65103"><ele>148.5</ele><time>2026-03-30T11:48:25.685Z</time></trkpt><trkpt lat="43.08309" lon="2.650845"><ele>148.75</ele><time>2026-03-30T11:48:26.686Z</time></trkpt><trkpt lat="43.083125" lon="2.650655"><ele>149.0</ele><time>2026-03-30T11:48:27.684Z</time></trkpt><trkpt lat="43.0831633" lon="2.6504633"><ele>148.33333333333331</ele><time>2026-03-30T11:48:28.686Z</time></trkpt><trkpt lat="43.08321" lon="2.6502717"><ele>147.66666666666666</ele><time>2026-03-30T11:48:29.684Z</time></trkpt><trkpt lat="43.0832633" lon="2.6500767"><ele>147.0</ele><time>2026-03-30T11:48:30.686Z</time></trkpt><trkpt lat="43.0833217" lon="2.649885"><ele>148.33333333333334</ele><time>2026-03-30T11:48:31.686Z</time></trkpt><trkpt lat="43.0833833" lon="2.64969"><ele>149.66666666666669</ele><time>2026-03-30T11:48:32.688Z</time></trkpt><trkpt lat="43.08344" lon="2.6494933"><ele>151.0</ele><time>2026-03-30T11:48:33.686Z</time></trkpt><trkpt lat="43.0834867" lon="2.6492933"><ele>151.0</ele><time>2026-03-30T11:48:34.687Z</time></trkpt><trkpt lat="43.083525" lon="2.6490883"><ele>151.0</ele><time>2026-03-30T11:48:35.685Z</time></trkpt><trkpt lat="43.0835567" lon="2.6488817"><ele>151.0</ele><time>2026-03-30T11:48:36.686Z</time></trkpt><trkpt lat="43.0835767" lon="2.6486717"><ele>151.0</ele><time>2026-03-30T11:48:37.684Z</time></trkpt><trkpt lat="43.083595" lon="2.6484567"><ele>151.0</ele><time>2026-03-30T11:48:38.688Z</time></trkpt><trkpt lat="43.08361" lon="2.6482383"><ele>151.0</ele><time>2026-03-30T11:48:39.687Z</time></trkpt><trkpt lat="43.0836267" lon="2.6480167"><ele>151.0</ele><time>2026-03-30T11:48:40.686Z</time></trkpt><trkpt lat="43.08364" lon="2.647795"><ele>151.0</ele><time>2026-03-30T11:48:41.685Z</time></trkpt><trkpt lat="43.08365" lon="2.6475817"><ele>151.0</ele><time>2026-03-30T11:48:42.685Z</time></trkpt><trkpt lat="43.08365" lon="2.6473783"><ele>151.25</ele><time>2026-03-30T11:48:43.686Z</time></trkpt><trkpt lat="43.083645" lon="2.6471767"><ele>151.5</ele><time>2026-03-30T11:48:44.686Z</time></trkpt><trkpt lat="43.08364" lon="2.6469733"><ele>151.75</ele><time>2026-03-30T11:48:45.685Z</time></trkpt><trkpt lat="43.0836383" lon="2.646765"><ele>152.0</ele><time>2026-03-30T11:48:46.686Z</time></trkpt><trkpt lat="43.0836417" lon="2.6465483"><ele>152.0</ele><time>2026-03-30T11:48:47.686Z</time></trkpt><trkpt lat="43.0836483" lon="2.6463333"><ele>152.0</ele><time>2026-03-30T11:48:48.686Z</time></trkpt><trkpt lat="43.0836483" lon="2.646115"><ele>152.0</ele><time>2026-03-30T11:48:49.686Z</time></trkpt><trkpt lat="43.0836417" lon="2.6458933"><ele>152.33333333333331</ele><time>2026-03-30T11:48:50.685Z</time></trkpt><trkpt lat="43.083635" lon="2.6456717"><ele>152.66666666666666</ele><time>2026-03-30T11:48:51.685Z</time></trkpt><trkpt lat="43.0836283" lon="2.6454517"><ele>153.0</ele><time>2026-03-30T11:48:52.685Z</time></trkpt><trkpt lat="43.0836233" lon="2.64523"><ele>153.33333333333334</ele><time>2026-03-30T11:48:53.686Z</time></trkpt><trkpt lat="43.0836183" lon="2.64501"><ele>153.66666666666669</ele><time>2026-03-30T11:48:54.685Z</time></trkpt><trkpt lat="43.0836133" lon="2.64479"><ele>154.0</ele><time>2026-03-30T11:48:55.686Z</time></trkpt><trkpt lat="43.0836083" lon="2.6445733"><ele>154.33333333333334</ele><time>2026-03-30T11:48:56.685Z</time></trkpt><trkpt lat="43.083605" lon="2.6443583"><ele>154.66666666666666</ele><time>2026-03-30T11:48:57.685Z</time></trkpt><trkpt lat="43.0836117" lon="2.6441483"><ele>155.0</ele><time>2026-03-30T11:48:58.685Z</time></trkpt><trkpt lat="43.08362" lon="2.643945"><ele>155.0</ele><time>2026-03-30T11:48:59.684Z</time></trkpt><trkpt lat="43.0836283" lon="2.6437483"><ele>155.0</ele><time>2026-03-30T11:49:00.685Z</time></trkpt><trkpt lat="43.0836367" lon="2.6435517"><ele>155.0</ele><time>2026-03-30T11:49:01.687Z</time></trkpt><trkpt lat="43.0836467" lon="2.6433583"><ele>155.0</ele><time>2026-03-30T11:49:02.686Z</time></trkpt><trkpt lat="43.0836567" lon="2.6431683"><ele>155.25</ele><time>2026-03-30T11:49:03.686Z</time></trkpt><trkpt lat="43.0836617" lon="2.642975"><ele>155.5</ele><time>2026-03-30T11:49:04.686Z</time></trkpt><trkpt lat="43.0836667" lon="2.6427817"><ele>155.75</ele><time>2026-03-30T11:49:05.685Z</time></trkpt><trkpt lat="43.08367" lon="2.6426"><ele>156.0</ele><time>2026-03-30T11:49:06.686Z</time></trkpt><trkpt lat="43.08367" lon="2.6424283"><ele>156.2</ele><time>2026-03-30T11:49:07.685Z</time></trkpt><trkpt lat="43.08367" lon="2.642265"><ele>156.39999999999998</ele><time>2026-03-30T11:49:08.686Z</time></trkpt><trkpt lat="43.0836717" lon="2.64211"><ele>156.6</ele><time>2026-03-30T11:49:09.688Z</time></trkpt><trkpt lat="43.0836717" lon="2.6419617"><ele>156.79999999999998</ele><time>2026-03-30T11:49:10.686Z</time></trkpt><trkpt lat="43.0836717" lon="2.6418217"><ele>157.0</ele><time>2026-03-30T11:49:11.684Z</time></trkpt><trkpt lat="43.0836733" lon="2.64169"><ele>157.5</ele><time>2026-03-30T11:49:12.685Z</time></trkpt><trkpt lat="43.0836767" lon="2.64157"><ele>158.0</ele><time>2026-03-30T11:49:13.685Z</time></trkpt><trkpt lat="43.0836717" lon="2.641455"><ele>158.5</ele><time>2026-03-30T11:49:14.686Z</time></trkpt><trkpt lat="43.08366" lon="2.64136"><ele>159.0</ele><time>2026-03-30T11:49:15.686Z</time></trkpt><trkpt lat="43.0836267" lon="2.6412133"><ele>159.5</ele><time>2026-03-30T11:49:17.687Z</time></trkpt><trkpt lat="43.0835517" lon="2.64117"><ele>160.0</ele><time>2026-03-30T11:49:19.685Z</time></trkpt><trkpt lat="43.08348" lon="2.6412183"><ele>160.0</ele><time>2026-03-30T11:49:20.688Z</time></trkpt><trkpt lat="43.0834083" lon="2.6412633"><ele>160.0</ele><time>2026-03-30T11:49:21.687Z</time></trkpt><trkpt lat="43.0833267" lon="2.6413267"><ele>160.0</ele><time>2026-03-30T11:49:22.688Z</time></trkpt><trkpt lat="43.0832383" lon="2.6413817"><ele>160.0</ele><time>2026-03-30T11:49:23.687Z</time></trkpt><trkpt lat="43.0831533" lon="2.641435"><ele>160.0</ele><time>2026-03-30T11:49:24.689Z</time></trkpt><trkpt lat="43.0830733" lon="2.6414917"><ele>159.33333333333334</ele><time>2026-03-30T11:49:25.687Z</time></trkpt><trkpt lat="43.0830033" lon="2.6415517"><ele>158.66666666666669</ele><time>2026-03-30T11:49:26.688Z</time></trkpt><trkpt lat="43.0829567" lon="2.6416367"><ele>158.0</ele><time>2026-03-30T11:49:27.685Z</time></trkpt><trkpt lat="43.0829267" lon="2.6417467"><ele>157.33333333333334</ele><time>2026-03-30T11:49:28.688Z</time></trkpt><trkpt lat="43.0829183" lon="2.6418733"><ele>156.66666666666666</ele><time>2026-03-30T11:49:29.688Z</time></trkpt><trkpt lat="43.082925" lon="2.6420033"><ele>156.0</ele><time>2026-03-30T11:49:30.686Z</time></trkpt><trkpt lat="43.08293" lon="2.6421233"><ele>155.83333333333334</ele><time>2026-03-30T11:49:31.686Z</time></trkpt><trkpt lat="43.0829333" lon="2.64223"><ele>155.66666666666666</ele><time>2026-03-30T11:49:32.687Z</time></trkpt><trkpt lat="43.0829233" lon="2.642325"><ele>155.5</ele><time>2026-03-30T11:49:33.686Z</time></trkpt><trkpt lat="43.0828683" lon="2.6423867"><ele>155.33333333333331</ele><time>2026-03-30T11:49:34.687Z</time></trkpt><trkpt lat="43.0827883" lon="2.642415"><ele>155.16666666666666</ele><time>2026-03-30T11:49:35.686Z</time></trkpt><trkpt lat="43.0826933" lon="2.642405"><ele>155.0</ele><time>2026-03-30T11:49:36.688Z</time></trkpt><trkpt lat="43.082585" lon="2.6423667"><ele>155.0</ele><time>2026-03-30T11:49:37.687Z</time></trkpt><trkpt lat="43.0824667" lon="2.6423367"><ele>155.0</ele><time>2026-03-30T11:49:38.689Z</time></trkpt><trkpt lat="43.0823483" lon="2.6423217"><ele>155.0</ele><time>2026-03-30T11:49:39.688Z</time></trkpt><trkpt lat="43.0822233" lon="2.6423067"><ele>155.0</ele><time>2026-03-30T11:49:40.686Z</time></trkpt><trkpt lat="43.0820967" lon="2.64227"><ele>155.0</ele><time>2026-03-30T11:49:41.686Z</time></trkpt><trkpt lat="43.08197" lon="2.6422033"><ele>155.0</ele><time>2026-03-30T11:49:42.687Z</time></trkpt><trkpt lat="43.0818533" lon="2.6421117"><ele>155.0</ele><time>2026-03-30T11:49:43.687Z</time></trkpt><trkpt lat="43.081735" lon="2.6420233"><ele>155.0</ele><time>2026-03-30T11:49:44.688Z</time></trkpt><trkpt lat="43.0816067" lon="2.641955"><ele>154.0</ele><time>2026-03-30T11:49:45.686Z</time></trkpt><trkpt lat="43.0814717" lon="2.6419117"><ele>153.0</ele><time>2026-03-30T11:49:46.686Z</time></trkpt><trkpt lat="43.0813367" lon="2.6418767"><ele>152.0</ele><time>2026-03-30T11:49:47.685Z</time></trkpt><trkpt lat="43.08121" lon="2.64184"><ele>151.0</ele><time>2026-03-30T11:49:48.686Z</time></trkpt><trkpt lat="43.0810917" lon="2.6417967"><ele>151.0</ele><time>2026-03-30T11:49:49.686Z</time></trkpt><trkpt lat="43.0809733" lon="2.641765"><ele>151.0</ele><time>2026-03-30T11:49:50.687Z</time></trkpt><trkpt lat="43.0808533" lon="2.6417683"><ele>151.0</ele><time>2026-03-30T11:49:51.686Z</time></trkpt><trkpt lat="43.0807317" lon="2.6418"><ele>151.0</ele><time>2026-03-30T11:49:52.685Z</time></trkpt><trkpt lat="43.0806117" lon="2.6418417"><ele>150.6</ele><time>2026-03-30T11:49:53.687Z</time></trkpt><trkpt lat="43.0804983" lon="2.6418783"><ele>150.2</ele><time>2026-03-30T11:49:54.687Z</time></trkpt><trkpt lat="43.080395" lon="2.641925"><ele>149.8</ele><time>2026-03-30T11:49:55.685Z</time></trkpt><trkpt lat="43.0803067" lon="2.6419933"><ele>149.4</ele><time>2026-03-30T11:49:56.686Z</time></trkpt><trkpt lat="43.080235" lon="2.6420917"><ele>149.0</ele><time>2026-03-30T11:49:57.686Z</time></trkpt><trkpt lat="43.0801733" lon="2.642215"><ele>149.0</ele><time>2026-03-30T11:49:58.687Z</time></trkpt><trkpt lat="43.0801067" lon="2.6423417"><ele>149.0</ele><time>2026-03-30T11:49:59.686Z</time></trkpt><trkpt lat="43.0800233" lon="2.642465"><ele>149.0</ele><time>2026-03-30T11:50:00.687Z</time></trkpt><trkpt lat="43.0799133" lon="2.6425667"><ele>149.0</ele><time>2026-03-30T11:50:01.687Z</time></trkpt><trkpt lat="43.0798" lon="2.6426517"><ele>148.75</ele><time>2026-03-30T11:50:02.687Z</time></trkpt><trkpt lat="43.079695" lon="2.6427433"><ele>148.5</ele><time>2026-03-30T11:50:03.686Z</time></trkpt><trkpt lat="43.079605" lon="2.6428467"><ele>148.25</ele><time>2026-03-30T11:50:04.685Z</time></trkpt><trkpt lat="43.0795233" lon="2.64296"><ele>148.0</ele><time>2026-03-30T11:50:05.685Z</time></trkpt><trkpt lat="43.0794617" lon="2.64308"><ele>148.0</ele><time>2026-03-30T11:50:06.686Z</time></trkpt><trkpt lat="43.079405" lon="2.6432"><ele>148.0</ele><time>2026-03-30T11:50:07.685Z</time></trkpt><trkpt lat="43.07935" lon="2.6433167"><ele>148.0</ele><time>2026-03-30T11:50:08.686Z</time></trkpt><trkpt lat="43.0792883" lon="2.643425"><ele>148.0</ele><time>2026-03-30T11:50:09.687Z</time></trkpt><trkpt lat="43.07922" lon="2.6435033"><ele>148.0</ele><time>2026-03-30T11:50:10.687Z</time></trkpt><trkpt lat="43.079155" lon="2.6435517"><ele>148.0</ele><time>2026-03-30T11:50:11.688Z</time></trkpt><trkpt lat="43.0790467" lon="2.6435867"><ele>148.0</ele><time>2026-03-30T11:50:13.685Z</time></trkpt><trkpt lat="43.078965" lon="2.6436133"><ele>148.0</ele><time>2026-03-30T11:50:15.686Z</time></trkpt><trkpt lat="43.0788983" lon="2.6436367"><ele>148.0</ele><time>2026-03-30T11:50:17.685Z</time></trkpt><trkpt lat="43.0788" lon="2.6436767"><ele>148.0</ele><time>2026-03-30T11:50:19.685Z</time></trkpt><trkpt lat="43.07874" lon="2.6437067"><ele>148.0</ele><time>2026-03-30T11:50:20.685Z</time></trkpt><trkpt lat="43.0786783" lon="2.643735"><ele>148.0</ele><time>2026-03-30T11:50:21.685Z</time></trkpt><trkpt lat="43.0786117" lon="2.643765"><ele>148.0</ele><time>2026-03-30T11:50:22.685Z</time></trkpt><trkpt lat="43.07854" lon="2.6437967"><ele>148.0</ele><time>2026-03-30T11:50:23.686Z</time></trkpt><trkpt lat="43.0784583" lon="2.6438333"><ele>148.0</ele><time>2026-03-30T11:50:24.685Z</time></trkpt><trkpt lat="43.0783667" lon="2.6438783"><ele>148.0</ele><time>2026-03-30T11:50:25.688Z</time></trkpt><trkpt lat="43.07827" lon="2.6439267"><ele>148.0</ele><time>2026-03-30T11:50:26.687Z</time></trkpt><trkpt lat="43.0781717" lon="2.6439767"><ele>148.8</ele><time>2026-03-30T11:50:27.685Z</time></trkpt><trkpt lat="43.078075" lon="2.644025"><ele>149.60000000000002</ele><time>2026-03-30T11:50:28.69Z</time></trkpt><trkpt lat="43.077985" lon="2.6440667"><ele>150.39999999999998</ele><time>2026-03-30T11:50:29.685Z</time></trkpt><trkpt lat="43.0779067" lon="2.6441017"><ele>151.2</ele><time>2026-03-30T11:50:30.691Z</time></trkpt><trkpt lat="43.0778333" lon="2.6441367"><ele>152.0</ele><time>2026-03-30T11:50:31.686Z</time></trkpt><trkpt lat="43.0777483" lon="2.6442017"><ele>152.0</ele><time>2026-03-30T11:50:33.686Z</time></trkpt><trkpt lat="43.077665" lon="2.6441667"><ele>152.0</ele><time>2026-03-30T11:50:36.686Z</time></trkpt><trkpt lat="43.0775833" lon="2.644015"><ele>152.0</ele><time>2026-03-30T11:50:38.69Z</time></trkpt><trkpt lat="43.07753" lon="2.6439017"><ele>152.0</ele><time>2026-03-30T11:50:39.688Z</time></trkpt><trkpt lat="43.0774717" lon="2.6437783"><ele>152.0</ele><time>2026-03-30T11:50:40.688Z</time></trkpt><trkpt lat="43.0774083" lon="2.6436417"><ele>152.75</ele><time>2026-03-30T11:50:41.685Z</time></trkpt><trkpt lat="43.07734" lon="2.6434967"><ele>153.5</ele><time>2026-03-30T11:50:42.686Z</time></trkpt><trkpt lat="43.0772667" lon="2.6433433"><ele>154.25</ele><time>2026-03-30T11:50:43.685Z</time></trkpt><trkpt lat="43.0771883" lon="2.6431817"><ele>155.0</ele><time>2026-03-30T11:50:44.687Z</time></trkpt><trkpt lat="43.077105" lon="2.643015"><ele>155.0</ele><time>2026-03-30T11:50:45.685Z</time></trkpt><trkpt lat="43.07702" lon="2.6428483"><ele>155.0</ele><time>2026-03-30T11:50:46.686Z</time></trkpt><trkpt lat="43.0769317" lon="2.64268"><ele>155.0</ele><time>2026-03-30T11:50:47.686Z</time></trkpt><trkpt lat="43.0768433" lon="2.6425033"><ele>155.33333333333331</ele><time>2026-03-30T11:50:48.685Z</time></trkpt><trkpt lat="43.0767567" lon="2.6423217"><ele>155.66666666666666</ele><time>2026-03-30T11:50:49.685Z</time></trkpt><trkpt lat="43.07667" lon="2.642135"><ele>156.0</ele><time>2026-03-30T11:50:50.689Z</time></trkpt><trkpt lat="43.07658" lon="2.6419433"><ele>156.0</ele><time>2026-03-30T11:50:51.69Z</time></trkpt><trkpt lat="43.0765017" lon="2.6417533"><ele>156.0</ele><time>2026-03-30T11:50:52.686Z</time></trkpt><trkpt lat="43.0764317" lon="2.6415717"><ele>156.0</ele><time>2026-03-30T11:50:53.686Z</time></trkpt><trkpt lat="43.0763583" lon="2.641385"><ele>156.0</ele><time>2026-03-30T11:50:54.687Z</time></trkpt><trkpt lat="43.076305" lon="2.6411833"><ele>156.0</ele><time>2026-03-30T11:50:55.685Z</time></trkpt><trkpt lat="43.0762533" lon="2.6409783"><ele>156.0</ele><time>2026-03-30T11:50:56.689Z</time></trkpt><trkpt lat="43.0762" lon="2.640775"><ele>156.33333333333334</ele><time>2026-03-30T11:50:57.686Z</time></trkpt><trkpt lat="43.0761517" lon="2.6405733"><ele>156.66666666666669</ele><time>2026-03-30T11:50:58.687Z</time></trkpt><trkpt lat="43.0761083" lon="2.64037"><ele>157.0</ele><time>2026-03-30T11:50:59.687Z</time></trkpt><trkpt lat="43.0760583" lon="2.64016"><ele>157.0</ele><time>2026-03-30T11:51:00.686Z</time></trkpt><trkpt lat="43.076005" lon="2.6399517"><ele>157.0</ele><time>2026-03-30T11:51:01.686Z</time></trkpt><trkpt lat="43.0759567" lon="2.6397617"><ele>157.0</ele><time>2026-03-30T11:51:02.686Z</time></trkpt><trkpt lat="43.07591" lon="2.639545"><ele>157.0</ele><time>2026-03-30T11:51:03.686Z</time></trkpt><trkpt lat="43.0758667" lon="2.6393317"><ele>157.0</ele><time>2026-03-30T11:51:04.686Z</time></trkpt><trkpt lat="43.075815" lon="2.63912"><ele>157.0</ele><time>2026-03-30T11:51:05.687Z</time></trkpt><trkpt lat="43.0757683" lon="2.63891"><ele>158.0</ele><time>2026-03-30T11:51:06.686Z</time></trkpt><trkpt lat="43.0757183" lon="2.6387083"><ele>159.0</ele><time>2026-03-30T11:51:07.687Z</time></trkpt><trkpt lat="43.0756617" lon="2.6385033"><ele>160.0</ele><time>2026-03-30T11:51:08.688Z</time></trkpt><trkpt lat="43.0756033" lon="2.6382967"><ele>160.0</ele><time>2026-03-30T11:51:09.686Z</time></trkpt><trkpt lat="43.07555" lon="2.6380867"><ele>160.0</ele><time>2026-03-30T11:51:10.687Z</time></trkpt><trkpt lat="43.0755017" lon="2.6378767"><ele>160.0</ele><time>2026-03-30T11:51:11.686Z</time></trkpt><trkpt lat="43.0754517" lon="2.6376683"><ele>159.33333333333334</ele><time>2026-03-30T11:51:12.687Z</time></trkpt><trkpt lat="43.0754" lon="2.637465"><ele>158.66666666666666</ele><time>2026-03-30T11:51:13.686Z</time></trkpt><trkpt lat="43.07535" lon="2.6372583"><ele>158.0</ele><time>2026-03-30T11:51:14.687Z</time></trkpt><trkpt lat="43.0752983" lon="2.6370517"><ele>158.33333333333331</ele><time>2026-03-30T11:51:15.686Z</time></trkpt><trkpt lat="43.075245" lon="2.636845"><ele>158.66666666666666</ele><time>2026-03-30T11:51:16.686Z</time></trkpt><trkpt lat="43.0751933" lon="2.636635"><ele>159.0</ele><time>2026-03-30T11:51:17.685Z</time></trkpt><trkpt lat="43.0751417" lon="2.636425"><ele>159.0</ele><time>2026-03-30T11:51:18.686Z</time></trkpt><trkpt lat="43.0750867" lon="2.6362133"><ele>159.0</ele><time>2026-03-30T11:51:19.687Z</time></trkpt><trkpt lat="43.0750333" lon="2.6360033"><ele>159.0</ele><time>2026-03-30T11:51:20.686Z</time></trkpt><trkpt lat="43.07498" lon="2.6357917"><ele>160.33333333333334</ele><time>2026-03-30T11:51:21.686Z</time></trkpt><trkpt lat="43.0749267" lon="2.6355817"><ele>161.66666666666669</ele><time>2026-03-30T11:51:22.686Z</time></trkpt><trkpt lat="43.0748733" lon="2.6353733"><ele>163.0</ele><time>2026-03-30T11:51:23.685Z</time></trkpt><trkpt lat="43.0748217" lon="2.635165"><ele>163.0</ele><time>2026-03-30T11:51:24.688Z</time></trkpt><trkpt lat="43.0747717" lon="2.6349567"><ele>163.0</ele><time>2026-03-30T11:51:25.686Z</time></trkpt><trkpt lat="43.0747217" lon="2.6347467"><ele>163.0</ele><time>2026-03-30T11:51:26.688Z</time></trkpt><trkpt lat="43.0746683" lon="2.634535"><ele>164.0</ele><time>2026-03-30T11:51:27.685Z</time></trkpt><trkpt lat="43.0746183" lon="2.6343233"><ele>165.0</ele><time>2026-03-30T11:51:28.685Z</time></trkpt><trkpt lat="43.0745667" lon="2.6341183"><ele>166.0</ele><time>2026-03-30T11:51:29.686Z</time></trkpt><trkpt lat="43.0745167" lon="2.6339083"><ele>166.0</ele><time>2026-03-30T11:51:30.685Z</time></trkpt><trkpt lat="43.0744633" lon="2.6336867"><ele>166.0</ele><time>2026-03-30T11:51:31.687Z</time></trkpt><trkpt lat="43.0744117" lon="2.63348"><ele>166.0</ele><time>2026-03-30T11:51:32.686Z</time></trkpt><trkpt lat="43.0743583" lon="2.6332717"><ele>165.66666666666669</ele><time>2026-03-30T11:51:33.686Z</time></trkpt><trkpt lat="43.07431" lon="2.633065"><ele>165.33333333333334</ele><time>2026-03-30T11:51:34.687Z</time></trkpt><trkpt lat="43.074255" lon="2.6328417"><ele>165.0</ele><time>2026-03-30T11:51:35.685Z</time></trkpt><trkpt lat="43.0742" lon="2.6326267"><ele>165.0</ele><time>2026-03-30T11:51:36.687Z</time></trkpt><trkpt lat="43.074145" lon="2.632415"><ele>165.0</ele><time>2026-03-30T11:51:37.686Z</time></trkpt><trkpt lat="43.0740883" lon="2.6322033"><ele>165.0</ele><time>2026-03-30T11:51:38.691Z</time></trkpt><trkpt lat="43.074035" lon="2.6319933"><ele>167.66666666666666</ele><time>2026-03-30T11:51:39.685Z</time></trkpt><trkpt lat="43.0739867" lon="2.631785"><ele>170.33333333333331</ele><time>2026-03-30T11:51:40.685Z</time></trkpt><trkpt lat="43.073935" lon="2.631575"><ele>173.0</ele><time>2026-03-30T11:51:41.685Z</time></trkpt><trkpt lat="43.0738817" lon="2.6313617"><ele>173.0</ele><time>2026-03-30T11:51:42.685Z</time></trkpt><trkpt lat="43.0738317" lon="2.63115"><ele>173.0</ele><time>2026-03-30T11:51:43.686Z</time></trkpt><trkpt lat="43.073785" lon="2.6309367"><ele>173.0</ele><time>2026-03-30T11:51:44.686Z</time></trkpt><trkpt lat="43.073735" lon="2.63073"><ele>174.66666666666666</ele><time>2026-03-30T11:51:45.685Z</time></trkpt><trkpt lat="43.07368" lon="2.6305267"><ele>176.33333333333334</ele><time>2026-03-30T11:51:46.686Z</time></trkpt><trkpt lat="43.07363" lon="2.6303283"><ele>178.0</ele><time>2026-03-30T11:51:47.687Z</time></trkpt><trkpt lat="43.0735833" lon="2.630135"><ele>178.75</ele><time>2026-03-30T11:51:48.688Z</time></trkpt><trkpt lat="43.0735367" lon="2.6299383"><ele>179.5</ele><time>2026-03-30T11:51:49.689Z</time></trkpt><trkpt lat="43.073495" lon="2.6297433"><ele>180.25</ele><time>2026-03-30T11:51:50.686Z</time></trkpt><trkpt lat="43.0734517" lon="2.629555"><ele>181.0</ele><time>2026-03-30T11:51:51.688Z</time></trkpt><trkpt lat="43.0734033" lon="2.62936"><ele>181.0</ele><time>2026-03-30T11:51:52.688Z</time></trkpt><trkpt lat="43.0733683" lon="2.6291683"><ele>181.0</ele><time>2026-03-30T11:51:53.687Z</time></trkpt><trkpt lat="43.0733417" lon="2.62896"><ele>181.0</ele><time>2026-03-30T11:51:54.692Z</time></trkpt><trkpt lat="43.073325" lon="2.6287433"><ele>179.33333333333334</ele><time>2026-03-30T11:51:55.686Z</time></trkpt><trkpt lat="43.07331" lon="2.628525"><ele>177.66666666666666</ele><time>2026-03-30T11:51:56.688Z</time></trkpt><trkpt lat="43.073305" lon="2.6283017"><ele>176.0</ele><time>2026-03-30T11:51:57.687Z</time></trkpt><trkpt lat="43.0733067" lon="2.6280733"><ele>176.0</ele><time>2026-03-30T11:51:58.686Z</time></trkpt><trkpt lat="43.0733117" lon="2.6278417"><ele>176.0</ele><time>2026-03-30T11:51:59.686Z</time></trkpt><trkpt lat="43.0733183" lon="2.62761"><ele>176.0</ele><time>2026-03-30T11:52:00.685Z</time></trkpt><trkpt lat="43.0733233" lon="2.6273767"><ele>176.0</ele><time>2026-03-30T11:52:01.685Z</time></trkpt><trkpt lat="43.0733233" lon="2.6271517"><ele>176.0</ele><time>2026-03-30T11:52:02.687Z</time></trkpt><trkpt lat="43.07333" lon="2.626935"><ele>176.0</ele><time>2026-03-30T11:52:03.686Z</time></trkpt><trkpt lat="43.073335" lon="2.626725"><ele>176.75</ele><time>2026-03-30T11:52:04.69Z</time></trkpt><trkpt lat="43.0733417" lon="2.626525"><ele>177.5</ele><time>2026-03-30T11:52:05.685Z</time></trkpt><trkpt lat="43.0733383" lon="2.6263267"><ele>178.25</ele><time>2026-03-30T11:52:06.687Z</time></trkpt><trkpt lat="43.0733333" lon="2.62614"><ele>179.0</ele><time>2026-03-30T11:52:07.685Z</time></trkpt><trkpt lat="43.0733217" lon="2.62597"><ele>179.75</ele><time>2026-03-30T11:52:08.686Z</time></trkpt><trkpt lat="43.0732983" lon="2.62581"><ele>180.5</ele><time>2026-03-30T11:52:09.686Z</time></trkpt><trkpt lat="43.073265" lon="2.6256617"><ele>181.25</ele><time>2026-03-30T11:52:10.686Z</time></trkpt><trkpt lat="43.0732217" lon="2.6255167"><ele>182.0</ele><time>2026-03-30T11:52:11.686Z</time></trkpt><trkpt lat="43.0731633" lon="2.62538"><ele>182.5</ele><time>2026-03-30T11:52:12.685Z</time></trkpt><trkpt lat="43.0730967" lon="2.625245"><ele>183.0</ele><time>2026-03-30T11:52:13.688Z</time></trkpt><trkpt lat="43.073025" lon="2.6251133"><ele>183.5</ele><time>2026-03-30T11:52:14.687Z</time></trkpt><trkpt lat="43.0729483" lon="2.624985"><ele>184.0</ele><time>2026-03-30T11:52:15.686Z</time></trkpt><trkpt lat="43.07287" lon="2.624855"><ele>184.0</ele><time>2026-03-30T11:52:16.689Z</time></trkpt><trkpt lat="43.07279" lon="2.624725"><ele>184.0</ele><time>2026-03-30T11:52:17.685Z</time></trkpt><trkpt lat="43.0727033" lon="2.62459"><ele>184.0</ele><time>2026-03-30T11:52:18.687Z</time></trkpt><trkpt lat="43.0726167" lon="2.6244533"><ele>184.0</ele><time>2026-03-30T11:52:19.687Z</time></trkpt><trkpt lat="43.0725317" lon="2.6243067"><ele>183.5</ele><time>2026-03-30T11:52:20.689Z</time></trkpt><trkpt lat="43.07245" lon="2.62415"><ele>183.0</ele><time>2026-03-30T11:52:21.687Z</time></trkpt><trkpt lat="43.0723867" lon="2.6239817"><ele>182.5</ele><time>2026-03-30T11:52:22.686Z</time></trkpt><trkpt lat="43.072345" lon="2.6237983"><ele>182.0</ele><time>2026-03-30T11:52:23.687Z</time></trkpt><trkpt lat="43.07233" lon="2.623605"><ele>181.0</ele><time>2026-03-30T11:52:24.689Z</time></trkpt><trkpt lat="43.07234" lon="2.6234067"><ele>180.0</ele><time>2026-03-30T11:52:25.688Z</time></trkpt><trkpt lat="43.07237" lon="2.6232083"><ele>179.0</ele><time>2026-03-30T11:52:26.688Z</time></trkpt><trkpt lat="43.0724083" lon="2.6230067"><ele>178.0</ele><time>2026-03-30T11:52:27.688Z</time></trkpt><trkpt lat="43.07244" lon="2.6228033"><ele>178.0</ele><time>2026-03-30T11:52:28.687Z</time></trkpt><trkpt lat="43.0724533" lon="2.6225967"><ele>178.0</ele><time>2026-03-30T11:52:29.686Z</time></trkpt><trkpt lat="43.072445" lon="2.62239"><ele>178.0</ele><time>2026-03-30T11:52:30.686Z</time></trkpt><trkpt lat="43.07241" lon="2.6221883"><ele>179.66666666666669</ele><time>2026-03-30T11:52:31.686Z</time></trkpt><trkpt lat="43.0723583" lon="2.6219917"><ele>181.33333333333334</ele><time>2026-03-30T11:52:32.687Z</time></trkpt><trkpt lat="43.0722933" lon="2.6218"><ele>183.0</ele><time>2026-03-30T11:52:33.685Z</time></trkpt><trkpt lat="43.0722183" lon="2.6216167"><ele>183.0</ele><time>2026-03-30T11:52:34.686Z</time></trkpt><trkpt lat="43.0721383" lon="2.6214333"><ele>183.0</ele><time>2026-03-30T11:52:35.685Z</time></trkpt><trkpt lat="43.0720567" lon="2.62125"><ele>183.0</ele><time>2026-03-30T11:52:36.688Z</time></trkpt><trkpt lat="43.071965" lon="2.6210733"><ele>180.66666666666666</ele><time>2026-03-30T11:52:37.685Z</time></trkpt><trkpt lat="43.07187" lon="2.6209017"><ele>178.33333333333331</ele><time>2026-03-30T11:52:38.697Z</time></trkpt><trkpt lat="43.0717733" lon="2.6207333"><ele>176.0</ele><time>2026-03-30T11:52:39.686Z</time></trkpt><trkpt lat="43.071675" lon="2.6205633"><ele>179.33333333333331</ele><time>2026-03-30T11:52:40.685Z</time></trkpt><trkpt lat="43.0715717" lon="2.6203983"><ele>182.66666666666666</ele><time>2026-03-30T11:52:41.687Z</time></trkpt><trkpt lat="43.0714683" lon="2.6202317"><ele>186.0</ele><time>2026-03-30T11:52:42.686Z</time></trkpt><trkpt lat="43.0713667" lon="2.6200633"><ele>186.0</ele><time>2026-03-30T11:52:43.686Z</time></trkpt><trkpt lat="43.0712733" lon="2.6198867"><ele>186.0</ele><time>2026-03-30T11:52:44.686Z</time></trkpt><trkpt lat="43.07119" lon="2.6197033"><ele>186.0</ele><time>2026-03-30T11:52:45.685Z</time></trkpt><trkpt lat="43.0711233" lon="2.61951"><ele>183.0</ele><time>2026-03-30T11:52:46.687Z</time></trkpt><trkpt lat="43.0710733" lon="2.61931"><ele>180.0</ele><time>2026-03-30T11:52:47.687Z</time></trkpt><trkpt lat="43.0710417" lon="2.6191033"><ele>177.0</ele><time>2026-03-30T11:52:48.685Z</time></trkpt><trkpt lat="43.0710317" lon="2.6188933"><ele>177.0</ele><time>2026-03-30T11:52:49.686Z</time></trkpt><trkpt lat="43.07104" lon="2.6186833"><ele>177.0</ele><time>2026-03-30T11:52:50.687Z</time></trkpt><trkpt lat="43.0710667" lon="2.618475"><ele>177.0</ele><time>2026-03-30T11:52:51.685Z</time></trkpt><trkpt lat="43.0711017" lon="2.6182717"><ele>175.66666666666666</ele><time>2026-03-30T11:52:52.687Z</time></trkpt><trkpt lat="43.071135" lon="2.6180683"><ele>174.33333333333331</ele><time>2026-03-30T11:52:53.686Z</time></trkpt><trkpt lat="43.07116" lon="2.617865"><ele>173.0</ele><time>2026-03-30T11:52:54.687Z</time></trkpt><trkpt lat="43.0711617" lon="2.6176533"><ele>172.0</ele><time>2026-03-30T11:52:55.685Z</time></trkpt><trkpt lat="43.0711767" lon="2.6174433"><ele>171.0</ele><time>2026-03-30T11:52:56.688Z</time></trkpt><trkpt lat="43.0712083" lon="2.617235"><ele>170.0</ele><time>2026-03-30T11:52:57.687Z</time></trkpt><trkpt lat="43.0712517" lon="2.6170317"><ele>169.66666666666666</ele><time>2026-03-30T11:52:58.686Z</time></trkpt><trkpt lat="43.0713017" lon="2.61684"><ele>169.33333333333334</ele><time>2026-03-30T11:52:59.686Z</time></trkpt><trkpt lat="43.071355" lon="2.6166483"><ele>169.0</ele><time>2026-03-30T11:53:00.685Z</time></trkpt><trkpt lat="43.0713983" lon="2.61645"><ele>169.0</ele><time>2026-03-30T11:53:01.686Z</time></trkpt><trkpt lat="43.0714183" lon="2.6162467"><ele>169.0</ele><time>2026-03-30T11:53:02.685Z</time></trkpt><trkpt lat="43.0714167" lon="2.6160383"><ele>169.0</ele><time>2026-03-30T11:53:03.688Z</time></trkpt><trkpt lat="43.0713983" lon="2.6158233"><ele>169.66666666666669</ele><time>2026-03-30T11:53:04.685Z</time></trkpt><trkpt lat="43.07137" lon="2.6156083"><ele>170.33333333333334</ele><time>2026-03-30T11:53:05.685Z</time></trkpt><trkpt lat="43.0713367" lon="2.6153917"><ele>171.0</ele><time>2026-03-30T11:53:06.686Z</time></trkpt><trkpt lat="43.071305" lon="2.615175"><ele>171.0</ele><time>2026-03-30T11:53:07.686Z</time></trkpt><trkpt lat="43.0712817" lon="2.6149583"><ele>171.0</ele><time>2026-03-30T11:53:08.685Z</time></trkpt><trkpt lat="43.0712633" lon="2.6147433"><ele>171.0</ele><time>2026-03-30T11:53:09.687Z</time></trkpt><trkpt lat="43.0712533" lon="2.6145283"><ele>169.66666666666666</ele><time>2026-03-30T11:53:10.685Z</time></trkpt><trkpt lat="43.0712583" lon="2.6143167"><ele>168.33333333333331</ele><time>2026-03-30T11:53:11.685Z</time></trkpt><trkpt lat="43.0712667" lon="2.6141033"><ele>167.0</ele><time>2026-03-30T11:53:12.686Z</time></trkpt><trkpt lat="43.07129" lon="2.6138933"><ele>167.0</ele><time>2026-03-30T11:53:13.686Z</time></trkpt><trkpt lat="43.0713217" lon="2.61368"><ele>167.0</ele><time>2026-03-30T11:53:14.686Z</time></trkpt><trkpt lat="43.0713517" lon="2.613465"><ele>167.0</ele><time>2026-03-30T11:53:15.686Z</time></trkpt><trkpt lat="43.0713783" lon="2.6132517"><ele>165.33333333333331</ele><time>2026-03-30T11:53:16.686Z</time></trkpt><trkpt lat="43.0714083" lon="2.61304"><ele>163.66666666666666</ele><time>2026-03-30T11:53:17.686Z</time></trkpt><trkpt lat="43.0714383" lon="2.6128267"><ele>162.0</ele><time>2026-03-30T11:53:18.691Z</time></trkpt><trkpt lat="43.0714683" lon="2.612615"><ele>161.0</ele><time>2026-03-30T11:53:19.687Z</time></trkpt><trkpt lat="43.0715" lon="2.6124017"><ele>160.0</ele><time>2026-03-30T11:53:20.691Z</time></trkpt><trkpt lat="43.0715233" lon="2.6121917"><ele>159.0</ele><time>2026-03-30T11:53:21.69Z</time></trkpt><trkpt lat="43.071535" lon="2.6119867"><ele>158.5</ele><time>2026-03-30T11:53:22.688Z</time></trkpt><trkpt lat="43.0715317" lon="2.6117933"><ele>158.0</ele><time>2026-03-30T11:53:23.686Z</time></trkpt><trkpt lat="43.0715133" lon="2.611615"><ele>157.5</ele><time>2026-03-30T11:53:24.688Z</time></trkpt><trkpt lat="43.07149" lon="2.6114483"><ele>157.0</ele><time>2026-03-30T11:53:25.687Z</time></trkpt><trkpt lat="43.071465" lon="2.6112967"><ele>157.0</ele><time>2026-03-30T11:53:26.687Z</time></trkpt><trkpt lat="43.0714383" lon="2.6111617"><ele>157.0</ele><time>2026-03-30T11:53:27.688Z</time></trkpt><trkpt lat="43.0714167" lon="2.6110417"><ele>157.0</ele><time>2026-03-30T11:53:28.689Z</time></trkpt><trkpt lat="43.0714" lon="2.610935"><ele>157.0</ele><time>2026-03-30T11:53:29.686Z</time></trkpt><trkpt lat="43.07139" lon="2.6108483"><ele>157.0</ele><time>2026-03-30T11:53:30.688Z</time></trkpt><trkpt lat="43.07138" lon="2.610735"><ele>157.0</ele><time>2026-03-30T11:53:32.686Z</time></trkpt><trkpt lat="43.071315" lon="2.6106633"><ele>156.33333333333334</ele><time>2026-03-30T11:53:37.689Z</time></trkpt><trkpt lat="43.07123" lon="2.6105967"><ele>155.66666666666669</ele><time>2026-03-30T11:53:39.688Z</time></trkpt><trkpt lat="43.0711683" lon="2.610565"><ele>155.0</ele><time>2026-03-30T11:53:40.686Z</time></trkpt><trkpt lat="43.0710983" lon="2.61053"><ele>154.33333333333334</ele><time>2026-03-30T11:53:41.687Z</time></trkpt><trkpt lat="43.0710217" lon="2.61049"><ele>153.66666666666666</ele><time>2026-03-30T11:53:42.687Z</time></trkpt><trkpt lat="43.0709433" lon="2.6104183"><ele>153.0</ele><time>2026-03-30T11:53:43.688Z</time></trkpt><trkpt lat="43.070865" lon="2.61034"><ele>152.8</ele><time>2026-03-30T11:53:44.688Z</time></trkpt><trkpt lat="43.0707817" lon="2.6102633"><ele>152.60000000000002</ele><time>2026-03-30T11:53:45.687Z</time></trkpt><trkpt lat="43.0707" lon="2.6101867"><ele>152.39999999999998</ele><time>2026-03-30T11:53:46.686Z</time></trkpt><trkpt lat="43.070625" lon="2.610105"><ele>152.2</ele><time>2026-03-30T11:53:47.687Z</time></trkpt><trkpt lat="43.07057" lon="2.6100083"><ele>152.0</ele><time>2026-03-30T11:53:48.687Z</time></trkpt><trkpt lat="43.0705367" lon="2.6099017"><ele>152.0</ele><time>2026-03-30T11:53:49.689Z</time></trkpt><trkpt lat="43.0705467" lon="2.60976"><ele>152.0</ele><time>2026-03-30T11:53:50.687Z</time></trkpt><trkpt lat="43.0705733" lon="2.6096083"><ele>152.0</ele><time>2026-03-30T11:53:51.686Z</time></trkpt><trkpt lat="43.0706" lon="2.609445"><ele>152.0</ele><time>2026-03-30T11:53:52.685Z</time></trkpt><trkpt lat="43.070625" lon="2.609275"><ele>149.5</ele><time>2026-03-30T11:53:53.686Z</time></trkpt><trkpt lat="43.0706483" lon="2.6090933"><ele>147.0</ele><time>2026-03-30T11:53:54.684Z</time></trkpt><trkpt lat="43.0706733" lon="2.6089017"><ele>144.5</ele><time>2026-03-30T11:53:55.685Z</time></trkpt><trkpt lat="43.070695" lon="2.6087033"><ele>142.0</ele><time>2026-03-30T11:53:56.688Z</time></trkpt><trkpt lat="43.0707183" lon="2.6085017"><ele>141.0</ele><time>2026-03-30T11:53:57.687Z</time></trkpt><trkpt lat="43.0707433" lon="2.6082933"><ele>140.0</ele><time>2026-03-30T11:53:58.685Z</time></trkpt><trkpt lat="43.0707717" lon="2.60808"><ele>139.0</ele><time>2026-03-30T11:53:59.685Z</time></trkpt><trkpt lat="43.0708033" lon="2.6078633"><ele>138.0</ele><time>2026-03-30T11:54:00.684Z</time></trkpt><trkpt lat="43.070835" lon="2.6076467"><ele>137.0</ele><time>2026-03-30T11:54:01.689Z</time></trkpt><trkpt lat="43.070865" lon="2.6074283"><ele>136.0</ele><time>2026-03-30T11:54:02.687Z</time></trkpt><trkpt lat="43.0708933" lon="2.6072133"><ele>136.0</ele><time>2026-03-30T11:54:03.684Z</time></trkpt><trkpt lat="43.0709217" lon="2.6069983"><ele>136.0</ele><time>2026-03-30T11:54:04.686Z</time></trkpt><trkpt lat="43.0709517" lon="2.6067817"><ele>136.0</ele><time>2026-03-30T11:54:05.686Z</time></trkpt><trkpt lat="43.07098" lon="2.6065667"><ele>135.66666666666669</ele><time>2026-03-30T11:54:06.685Z</time></trkpt><trkpt lat="43.071005" lon="2.6063533"><ele>135.33333333333334</ele><time>2026-03-30T11:54:07.684Z</time></trkpt><trkpt lat="43.07103" lon="2.606145"><ele>135.0</ele><time>2026-03-30T11:54:08.685Z</time></trkpt><trkpt lat="43.0710567" lon="2.60594"><ele>136.66666666666666</ele><time>2026-03-30T11:54:09.685Z</time></trkpt><trkpt lat="43.0710867" lon="2.6057317"><ele>138.33333333333331</ele><time>2026-03-30T11:54:10.684Z</time></trkpt><trkpt lat="43.0711167" lon="2.6055233"><ele>140.0</ele><time>2026-03-30T11:54:11.684Z</time></trkpt><trkpt lat="43.071145" lon="2.6053133"><ele>142.66666666666666</ele><time>2026-03-30T11:54:12.685Z</time></trkpt><trkpt lat="43.0711717" lon="2.6051"><ele>145.33333333333334</ele><time>2026-03-30T11:54:13.684Z</time></trkpt><trkpt lat="43.071195" lon="2.6048867"><ele>148.0</ele><time>2026-03-30T11:54:14.686Z</time></trkpt><trkpt lat="43.0712167" lon="2.6046733"><ele>150.33333333333334</ele><time>2026-03-30T11:54:15.685Z</time></trkpt><trkpt lat="43.0712317" lon="2.6044567"><ele>152.66666666666666</ele><time>2026-03-30T11:54:16.685Z</time></trkpt><trkpt lat="43.0712367" lon="2.60424"><ele>155.0</ele><time>2026-03-30T11:54:17.685Z</time></trkpt><trkpt lat="43.0712383" lon="2.60402"><ele>155.0</ele><time>2026-03-30T11:54:18.684Z</time></trkpt><trkpt lat="43.0712367" lon="2.6038017"><ele>155.0</ele><time>2026-03-30T11:54:19.684Z</time></trkpt><trkpt lat="43.0712283" lon="2.603585"><ele>155.0</ele><time>2026-03-30T11:54:20.686Z</time></trkpt><trkpt lat="43.0712233" lon="2.6033717"><ele>157.33333333333331</ele><time>2026-03-30T11:54:21.684Z</time></trkpt><trkpt lat="43.0712317" lon="2.60316"><ele>159.66666666666666</ele><time>2026-03-30T11:54:22.685Z</time></trkpt><trkpt lat="43.07127" lon="2.6029533"><ele>162.0</ele><time>2026-03-30T11:54:23.685Z</time></trkpt><trkpt lat="43.07133" lon="2.6027583"><ele>165.33333333333334</ele><time>2026-03-30T11:54:24.686Z</time></trkpt><trkpt lat="43.071395" lon="2.602565"><ele>168.66666666666669</ele><time>2026-03-30T11:54:25.686Z</time></trkpt><trkpt lat="43.07146" lon="2.6023717"><ele>172.0</ele><time>2026-03-30T11:54:26.685Z</time></trkpt><trkpt lat="43.0715217" lon="2.6021733"><ele>174.66666666666669</ele><time>2026-03-30T11:54:27.684Z</time></trkpt><trkpt lat="43.0715733" lon="2.6019717"><ele>177.33333333333334</ele><time>2026-03-30T11:54:28.685Z</time></trkpt><trkpt lat="43.071615" lon="2.6017733"><ele>180.0</ele><time>2026-03-30T11:54:29.684Z</time></trkpt><trkpt lat="43.0716467" lon="2.601575"><ele>177.75</ele><time>2026-03-30T11:54:30.685Z</time></trkpt><trkpt lat="43.0716733" lon="2.6013833"><ele>175.5</ele><time>2026-03-30T11:54:31.684Z</time></trkpt><trkpt lat="43.0717017" lon="2.6011883"><ele>173.25</ele><time>2026-03-30T11:54:32.685Z</time></trkpt><trkpt lat="43.0717483" lon="2.601005"><ele>171.0</ele><time>2026-03-30T11:54:33.684Z</time></trkpt><trkpt lat="43.0718133" lon="2.6008333"><ele>171.0</ele><time>2026-03-30T11:54:34.687Z</time></trkpt><trkpt lat="43.0718933" lon="2.6006783"><ele>171.0</ele><time>2026-03-30T11:54:35.684Z</time></trkpt><trkpt lat="43.0719767" lon="2.6005367"><ele>171.0</ele><time>2026-03-30T11:54:36.685Z</time></trkpt><trkpt lat="43.0720617" lon="2.60041"><ele>171.0</ele><time>2026-03-30T11:54:37.688Z</time></trkpt><trkpt lat="43.072145" lon="2.6002967"><ele>170.60000000000002</ele><time>2026-03-30T11:54:38.685Z</time></trkpt><trkpt lat="43.0722267" lon="2.6001933"><ele>170.2</ele><time>2026-03-30T11:54:39.684Z</time></trkpt><trkpt lat="43.07231" lon="2.600095"><ele>169.8</ele><time>2026-03-30T11:54:40.687Z</time></trkpt><trkpt lat="43.07238" lon="2.6000017"><ele>169.39999999999998</ele><time>2026-03-30T11:54:41.685Z</time></trkpt><trkpt lat="43.07242" lon="2.5999067"><ele>169.0</ele><time>2026-03-30T11:54:42.687Z</time></trkpt><trkpt lat="43.0724417" lon="2.599815"><ele>169.0</ele><time>2026-03-30T11:54:43.684Z</time></trkpt><trkpt lat="43.07245" lon="2.5997267"><ele>169.0</ele><time>2026-03-30T11:54:44.686Z</time></trkpt><trkpt lat="43.0724917" lon="2.5996083"><ele>169.0</ele><time>2026-03-30T11:54:46.686Z</time></trkpt><trkpt lat="43.072545" lon="2.5996633"><ele>169.0</ele><time>2026-03-30T11:54:47.686Z</time></trkpt><trkpt lat="43.0725967" lon="2.5997417"><ele>169.0</ele><time>2026-03-30T11:54:48.687Z</time></trkpt><trkpt lat="43.0726333" lon="2.5998483"><ele>169.0</ele><time>2026-03-30T11:54:49.684Z</time></trkpt><trkpt lat="43.0726533" lon="2.5999733"><ele>169.0</ele><time>2026-03-30T11:54:50.685Z</time></trkpt><trkpt lat="43.072645" lon="2.6001183"><ele>169.0</ele><time>2026-03-30T11:54:51.687Z</time></trkpt><trkpt lat="43.0726083" lon="2.600265"><ele>169.0</ele><time>2026-03-30T11:54:52.685Z</time></trkpt><trkpt lat="43.0725483" lon="2.6003983"><ele>169.0</ele><time>2026-03-30T11:54:53.685Z</time></trkpt><trkpt lat="43.0724767" lon="2.6005317"><ele>169.39999999999998</ele><time>2026-03-30T11:54:54.686Z</time></trkpt><trkpt lat="43.0724033" lon="2.6006483"><ele>169.8</ele><time>2026-03-30T11:54:55.687Z</time></trkpt><trkpt lat="43.0723217" lon="2.6007517"><ele>170.2</ele><time>2026-03-30T11:54:56.686Z</time></trkpt><trkpt lat="43.0722467" lon="2.6008417"><ele>170.60000000000002</ele><time>2026-03-30T11:54:57.686Z</time></trkpt><trkpt lat="43.07218" lon="2.60093"><ele>171.0</ele><time>2026-03-30T11:54:58.688Z</time></trkpt><trkpt lat="43.0721283" lon="2.6010233"><ele>171.0</ele><time>2026-03-30T11:54:59.685Z</time></trkpt><trkpt lat="43.0721233" lon="2.6011267"><ele>171.0</ele><time>2026-03-30T11:55:00.686Z</time></trkpt><trkpt lat="43.0721667" lon="2.6012233"><ele>171.0</ele><time>2026-03-30T11:55:01.686Z</time></trkpt><trkpt lat="43.07224" lon="2.6012867"><ele>171.0</ele><time>2026-03-30T11:55:02.685Z</time></trkpt><trkpt lat="43.0723217" lon="2.6013217"><ele>171.0</ele><time>2026-03-30T11:55:03.687Z</time></trkpt><trkpt lat="43.0724267" lon="2.6012617"><ele>171.0</ele><time>2026-03-30T11:55:04.684Z</time></trkpt><trkpt lat="43.0725233" lon="2.6011783"><ele>168.5</ele><time>2026-03-30T11:55:05.685Z</time></trkpt><trkpt lat="43.072615" lon="2.60109"><ele>166.0</ele><time>2026-03-30T11:55:06.685Z</time></trkpt><trkpt lat="43.0727033" lon="2.600985"><ele>163.5</ele><time>2026-03-30T11:55:07.684Z</time></trkpt><trkpt lat="43.0727867" lon="2.6008533"><ele>161.0</ele><time>2026-03-30T11:55:08.685Z</time></trkpt><trkpt lat="43.0728567" lon="2.6007033"><ele>161.0</ele><time>2026-03-30T11:55:09.687Z</time></trkpt><trkpt lat="43.0729167" lon="2.60056"><ele>161.0</ele><time>2026-03-30T11:55:10.686Z</time></trkpt><trkpt lat="43.072975" lon="2.60043"><ele>161.0</ele><time>2026-03-30T11:55:11.685Z</time></trkpt><trkpt lat="43.0730467" lon="2.6003133"><ele>161.0</ele><time>2026-03-30T11:55:12.685Z</time></trkpt><trkpt lat="43.0731267" lon="2.600225"><ele>161.0</ele><time>2026-03-30T11:55:13.685Z</time></trkpt><trkpt lat="43.07321" lon="2.60018"><ele>160.8</ele><time>2026-03-30T11:55:14.686Z</time></trkpt><trkpt lat="43.0733017" lon="2.6002083"><ele>160.60000000000002</ele><time>2026-03-30T11:55:15.686Z</time></trkpt><trkpt lat="43.073385" lon="2.60027"><ele>160.4</ele><time>2026-03-30T11:55:16.685Z</time></trkpt><trkpt lat="43.0734683" lon="2.6003117"><ele>160.2</ele><time>2026-03-30T11:55:17.685Z</time></trkpt><trkpt lat="43.073555" lon="2.6003383"><ele>160.0</ele><time>2026-03-30T11:55:18.686Z</time></trkpt><trkpt lat="43.0736467" lon="2.6003367"><ele>160.0</ele><time>2026-03-30T11:55:19.686Z</time></trkpt><trkpt lat="43.07374" lon="2.6002917"><ele>160.0</ele><time>2026-03-30T11:55:20.685Z</time></trkpt><trkpt lat="43.073835" lon="2.6002367"><ele>160.0</ele><time>2026-03-30T11:55:21.684Z</time></trkpt><trkpt lat="43.0739433" lon="2.600165"><ele>160.0</ele><time>2026-03-30T11:55:22.688Z</time></trkpt><trkpt lat="43.0740517" lon="2.600115"><ele>160.0</ele><time>2026-03-30T11:55:23.685Z</time></trkpt><trkpt lat="43.0741733" lon="2.60008"><ele>158.75</ele><time>2026-03-30T11:55:24.685Z</time></trkpt><trkpt lat="43.0743" lon="2.6000667"><ele>157.5</ele><time>2026-03-30T11:55:25.684Z</time></trkpt><trkpt lat="43.0744333" lon="2.60006"><ele>156.25</ele><time>2026-03-30T11:55:26.685Z</time></trkpt><trkpt lat="43.0745717" lon="2.60005"><ele>155.0</ele><time>2026-03-30T11:55:27.685Z</time></trkpt><trkpt lat="43.0747117" lon="2.6000283"><ele>155.0</ele><time>2026-03-30T11:55:28.686Z</time></trkpt><trkpt lat="43.07485" lon="2.600015"><ele>155.0</ele><time>2026-03-30T11:55:29.686Z</time></trkpt><trkpt lat="43.0749817" lon="2.600025"><ele>155.0</ele><time>2026-03-30T11:55:30.685Z</time></trkpt><trkpt lat="43.0751033" lon="2.6000667"><ele>155.0</ele><time>2026-03-30T11:55:31.685Z</time></trkpt><trkpt lat="43.0752083" lon="2.60012"><ele>154.2</ele><time>2026-03-30T11:55:32.691Z</time></trkpt><trkpt lat="43.07531" lon="2.60016"><ele>153.4</ele><time>2026-03-30T11:55:33.686Z</time></trkpt><trkpt lat="43.0754117" lon="2.6001633"><ele>152.6</ele><time>2026-03-30T11:55:34.685Z</time></trkpt><trkpt lat="43.075515" lon="2.6001267"><ele>151.8</ele><time>2026-03-30T11:55:35.684Z</time></trkpt><trkpt lat="43.07562" lon="2.6000783"><ele>151.0</ele><time>2026-03-30T11:55:36.684Z</time></trkpt><trkpt lat="43.075735" lon="2.60004"><ele>151.0</ele><time>2026-03-30T11:55:37.685Z</time></trkpt><trkpt lat="43.0758567" lon="2.6000367"><ele>151.0</ele><time>2026-03-30T11:55:38.686Z</time></trkpt><trkpt lat="43.0759833" lon="2.6000633"><ele>151.0</ele><time>2026-03-30T11:55:39.685Z</time></trkpt><trkpt lat="43.0761067" lon="2.6001067"><ele>151.0</ele><time>2026-03-30T11:55:40.687Z</time></trkpt><trkpt lat="43.0762283" lon="2.6001433"><ele>151.0</ele><time>2026-03-30T11:55:41.685Z</time></trkpt><trkpt lat="43.0763467" lon="2.6001767"><ele>151.0</ele><time>2026-03-30T11:55:42.686Z</time></trkpt><trkpt lat="43.0764583" lon="2.6002233"><ele>151.0</ele><time>2026-03-30T11:55:43.685Z</time></trkpt><trkpt lat="43.0765717" lon="2.60029"><ele>151.0</ele><time>2026-03-30T11:55:44.688Z</time></trkpt><trkpt lat="43.0766767" lon="2.6003867"><ele>148.75</ele><time>2026-03-30T11:55:45.686Z</time></trkpt><trkpt lat="43.0767667" lon="2.6005167"><ele>146.5</ele><time>2026-03-30T11:55:46.685Z</time></trkpt><trkpt lat="43.0768333" lon="2.60066"><ele>144.25</ele><time>2026-03-30T11:55:47.685Z</time></trkpt><trkpt lat="43.0768767" lon="2.6008017"><ele>142.0</ele><time>2026-03-30T11:55:48.684Z</time></trkpt><trkpt lat="43.0769033" lon="2.600945"><ele>142.0</ele><time>2026-03-30T11:55:49.685Z</time></trkpt><trkpt lat="43.0769333" lon="2.6010667"><ele>142.0</ele><time>2026-03-30T11:55:50.686Z</time></trkpt><trkpt lat="43.0769767" lon="2.6011833"><ele>142.0</ele><time>2026-03-30T11:55:51.685Z</time></trkpt><trkpt lat="43.0770517" lon="2.6012533"><ele>142.0</ele><time>2026-03-30T11:55:52.685Z</time></trkpt><trkpt lat="43.0771617" lon="2.60127"><ele>142.0</ele><time>2026-03-30T11:55:53.684Z</time></trkpt><trkpt lat="43.07728" lon="2.6013033"><ele>141.0</ele><time>2026-03-30T11:55:54.686Z</time></trkpt><trkpt lat="43.0774083" lon="2.6013667"><ele>140.0</ele><time>2026-03-30T11:55:55.689Z</time></trkpt><trkpt lat="43.0775267" lon="2.6014417"><ele>139.0</ele><time>2026-03-30T11:55:56.685Z</time></trkpt><trkpt lat="43.0776317" lon="2.6015467"><ele>138.0</ele><time>2026-03-30T11:55:57.685Z</time></trkpt><trkpt lat="43.0777267" lon="2.601685"><ele>138.0</ele><time>2026-03-30T11:55:58.685Z</time></trkpt><trkpt lat="43.0778133" lon="2.601825"><ele>138.0</ele><time>2026-03-30T11:55:59.686Z</time></trkpt><trkpt lat="43.0779167" lon="2.6019483"><ele>138.0</ele><time>2026-03-30T11:56:00.687Z</time></trkpt><trkpt lat="43.0780333" lon="2.6020467"><ele>138.0</ele><time>2026-03-30T11:56:01.687Z</time></trkpt><trkpt lat="43.0781583" lon="2.602135"><ele>138.0</ele><time>2026-03-30T11:56:02.687Z</time></trkpt><trkpt lat="43.0782783" lon="2.602235"><ele>138.0</ele><time>2026-03-30T11:56:03.684Z</time></trkpt><trkpt lat="43.0783983" lon="2.6023533"><ele>138.0</ele><time>2026-03-30T11:56:04.687Z</time></trkpt><trkpt lat="43.0785083" lon="2.602485"><ele>138.0</ele><time>2026-03-30T11:56:05.685Z</time></trkpt><trkpt lat="43.0786117" lon="2.6026233"><ele>138.0</ele><time>2026-03-30T11:56:06.687Z</time></trkpt><trkpt lat="43.0787167" lon="2.6027617"><ele>138.0</ele><time>2026-03-30T11:56:07.686Z</time></trkpt><trkpt lat="43.07883" lon="2.6029"><ele>138.0</ele><time>2026-03-30T11:56:08.687Z</time></trkpt><trkpt lat="43.0789333" lon="2.603055"><ele>139.33333333333334</ele><time>2026-03-30T11:56:09.686Z</time></trkpt><trkpt lat="43.07903" lon="2.6032167"><ele>140.66666666666669</ele><time>2026-03-30T11:56:10.687Z</time></trkpt><trkpt lat="43.0791283" lon="2.603375"><ele>142.0</ele><time>2026-03-30T11:56:11.685Z</time></trkpt><trkpt lat="43.079235" lon="2.6035317"><ele>139.25</ele><time>2026-03-30T11:56:12.686Z</time></trkpt><trkpt lat="43.0793433" lon="2.60367"><ele>136.5</ele><time>2026-03-30T11:56:13.687Z</time></trkpt><trkpt lat="43.0794467" lon="2.603795"><ele>133.75</ele><time>2026-03-30T11:56:14.686Z</time></trkpt><trkpt lat="43.0795417" lon="2.603925"><ele>131.0</ele><time>2026-03-30T11:56:15.685Z</time></trkpt><trkpt lat="43.0796233" lon="2.6040633"><ele>131.0</ele><time>2026-03-30T11:56:16.685Z</time></trkpt><trkpt lat="43.0796883" lon="2.6042033"><ele>131.0</ele><time>2026-03-30T11:56:17.685Z</time></trkpt><trkpt lat="43.0797333" lon="2.6043533"><ele>131.0</ele><time>2026-03-30T11:56:18.686Z</time></trkpt><trkpt lat="43.0797567" lon="2.6045133"><ele>131.0</ele><time>2026-03-30T11:56:19.685Z</time></trkpt><trkpt lat="43.0797767" lon="2.6046717"><ele>130.5</ele><time>2026-03-30T11:56:20.687Z</time></trkpt><trkpt lat="43.0798183" lon="2.6048167"><ele>130.0</ele><time>2026-03-30T11:56:21.687Z</time></trkpt><trkpt lat="43.07989" lon="2.6049517"><ele>129.5</ele><time>2026-03-30T11:56:22.685Z</time></trkpt><trkpt lat="43.0799817" lon="2.6050667"><ele>129.0</ele><time>2026-03-30T11:56:23.685Z</time></trkpt><trkpt lat="43.080085" lon="2.6051733"><ele>129.5</ele><time>2026-03-30T11:56:24.686Z</time></trkpt><trkpt lat="43.08018" lon="2.6052917"><ele>130.0</ele><time>2026-03-30T11:56:25.685Z</time></trkpt><trkpt lat="43.0802517" lon="2.6054333"><ele>130.5</ele><time>2026-03-30T11:56:26.685Z</time></trkpt><trkpt lat="43.08029" lon="2.6056017"><ele>131.0</ele><time>2026-03-30T11:56:27.685Z</time></trkpt><trkpt lat="43.0803083" lon="2.6057833"><ele>131.0</ele><time>2026-03-30T11:56:28.686Z</time></trkpt><trkpt lat="43.080325" lon="2.6059667"><ele>131.0</ele><time>2026-03-30T11:56:29.685Z</time></trkpt><trkpt lat="43.0803433" lon="2.6061433"><ele>131.0</ele><time>2026-03-30T11:56:30.685Z</time></trkpt><trkpt lat="43.0803567" lon="2.60632"><ele>131.0</ele><time>2026-03-30T11:56:31.686Z</time></trkpt><trkpt lat="43.08037" lon="2.6064883"><ele>131.2</ele><time>2026-03-30T11:56:32.686Z</time></trkpt><trkpt lat="43.0803867" lon="2.6066483"><ele>131.39999999999998</ele><time>2026-03-30T11:56:33.684Z</time></trkpt><trkpt lat="43.0804217" lon="2.60679"><ele>131.6</ele><time>2026-03-30T11:56:34.686Z</time></trkpt><trkpt lat="43.0804783" lon="2.60691"><ele>131.79999999999998</ele><time>2026-03-30T11:56:35.685Z</time></trkpt><trkpt lat="43.080555" lon="2.6070017"><ele>132.0</ele><time>2026-03-30T11:56:36.688Z</time></trkpt><trkpt lat="43.0806567" lon="2.6070583"><ele>134.0</ele><time>2026-03-30T11:56:37.686Z</time></trkpt><trkpt lat="43.0807683" lon="2.6070767"><ele>136.0</ele><time>2026-03-30T11:56:38.686Z</time></trkpt><trkpt lat="43.0808867" lon="2.6070683"><ele>138.0</ele><time>2026-03-30T11:56:39.686Z</time></trkpt><trkpt lat="43.0810017" lon="2.607035"><ele>140.0</ele><time>2026-03-30T11:56:40.685Z</time></trkpt><trkpt lat="43.0811067" lon="2.6070083"><ele>140.0</ele><time>2026-03-30T11:56:41.685Z</time></trkpt><trkpt lat="43.0811983" lon="2.607005"><ele>140.0</ele><time>2026-03-30T11:56:42.686Z</time></trkpt><trkpt lat="43.0812733" lon="2.60704"><ele>140.0</ele><time>2026-03-30T11:56:43.685Z</time></trkpt><trkpt lat="43.0813233" lon="2.6071383"><ele>140.0</ele><time>2026-03-30T11:56:44.685Z</time></trkpt><trkpt lat="43.0813417" lon="2.60727"><ele>140.0</ele><time>2026-03-30T11:56:45.684Z</time></trkpt><trkpt lat="43.081345" lon="2.60741"><ele>140.0</ele><time>2026-03-30T11:56:46.685Z</time></trkpt><trkpt lat="43.0813517" lon="2.6075467"><ele>140.0</ele><time>2026-03-30T11:56:47.684Z</time></trkpt><trkpt lat="43.081385" lon="2.60768"><ele>140.0</ele><time>2026-03-30T11:56:48.686Z</time></trkpt><trkpt lat="43.0814367" lon="2.6078133"><ele>140.0</ele><time>2026-03-30T11:56:49.684Z</time></trkpt><trkpt lat="43.0815033" lon="2.6079467"><ele>140.0</ele><time>2026-03-30T11:56:50.684Z</time></trkpt><trkpt lat="43.0815767" lon="2.608075"><ele>141.25</ele><time>2026-03-30T11:56:51.684Z</time></trkpt><trkpt lat="43.0816483" lon="2.6082083"><ele>142.5</ele><time>2026-03-30T11:56:52.684Z</time></trkpt><trkpt lat="43.081715" lon="2.6083317"><ele>143.75</ele><time>2026-03-30T11:56:53.685Z</time></trkpt><trkpt lat="43.081785" lon="2.6084517"><ele>145.0</ele><time>2026-03-30T11:56:54.687Z</time></trkpt><trkpt lat="43.08187" lon="2.6085633"><ele>143.5</ele><time>2026-03-30T11:56:55.687Z</time></trkpt><trkpt lat="43.08197" lon="2.60867"><ele>142.0</ele><time>2026-03-30T11:56:56.686Z</time></trkpt><trkpt lat="43.08207" lon="2.6087733"><ele>140.5</ele><time>2026-03-30T11:56:57.685Z</time></trkpt><trkpt lat="43.0821667" lon="2.6088783"><ele>139.0</ele><time>2026-03-30T11:56:58.685Z</time></trkpt><trkpt lat="43.0822617" lon="2.6089917"><ele>139.0</ele><time>2026-03-30T11:56:59.687Z</time></trkpt><trkpt lat="43.0823533" lon="2.6091217"><ele>139.0</ele><time>2026-03-30T11:57:00.685Z</time></trkpt><trkpt lat="43.0824383" lon="2.6092583"><ele>139.0</ele><time>2026-03-30T11:57:01.686Z</time></trkpt><trkpt lat="43.0825183" lon="2.6093967"><ele>139.0</ele><time>2026-03-30T11:57:02.687Z</time></trkpt><trkpt lat="43.082595" lon="2.6095333"><ele>139.0</ele><time>2026-03-30T11:57:03.687Z</time></trkpt><trkpt lat="43.08267" lon="2.60967"><ele>139.0</ele><time>2026-03-30T11:57:04.685Z</time></trkpt><trkpt lat="43.0827383" lon="2.6098017"><ele>139.0</ele><time>2026-03-30T11:57:05.685Z</time></trkpt><trkpt lat="43.0828067" lon="2.6099283"><ele>139.0</ele><time>2026-03-30T11:57:06.686Z</time></trkpt><trkpt lat="43.0828717" lon="2.6100483"><ele>139.0</ele><time>2026-03-30T11:57:07.685Z</time></trkpt><trkpt lat="43.0829467" lon="2.610155"><ele>139.0</ele><time>2026-03-30T11:57:08.688Z</time></trkpt><trkpt lat="43.08304" lon="2.61024"><ele>139.0</ele><time>2026-03-30T11:57:09.686Z</time></trkpt><trkpt lat="43.0831433" lon="2.6103017"><ele>139.0</ele><time>2026-03-30T11:57:10.686Z</time></trkpt><trkpt lat="43.08325" lon="2.610355"><ele>139.0</ele><time>2026-03-30T11:57:11.685Z</time></trkpt><trkpt lat="43.08335" lon="2.6104133"><ele>138.25</ele><time>2026-03-30T11:57:12.686Z</time></trkpt><trkpt lat="43.083445" lon="2.6104983"><ele>137.5</ele><time>2026-03-30T11:57:13.686Z</time></trkpt><trkpt lat="43.0835317" lon="2.6106083"><ele>136.75</ele><time>2026-03-30T11:57:14.687Z</time></trkpt><trkpt lat="43.083615" lon="2.6107267"><ele>136.0</ele><time>2026-03-30T11:57:15.691Z</time></trkpt><trkpt lat="43.08371" lon="2.6108467"><ele>136.0</ele><time>2026-03-30T11:57:16.684Z</time></trkpt><trkpt lat="43.0838083" lon="2.6109583"><ele>136.0</ele><time>2026-03-30T11:57:17.684Z</time></trkpt><trkpt lat="43.083905" lon="2.6110717"><ele>136.0</ele><time>2026-03-30T11:57:18.686Z</time></trkpt><trkpt lat="43.0839867" lon="2.61119"><ele>136.0</ele><time>2026-03-30T11:57:19.685Z</time></trkpt><trkpt lat="43.0840417" lon="2.61132"><ele>135.0</ele><time>2026-03-30T11:57:20.688Z</time></trkpt><trkpt lat="43.08408" lon="2.6114517"><ele>134.0</ele><time>2026-03-30T11:57:21.685Z</time></trkpt><trkpt lat="43.0841083" lon="2.6115733"><ele>133.0</ele><time>2026-03-30T11:57:22.688Z</time></trkpt><trkpt lat="43.0841517" lon="2.61169"><ele>132.0</ele><time>2026-03-30T11:57:23.688Z</time></trkpt><trkpt lat="43.0842217" lon="2.6117867"><ele>131.0</ele><time>2026-03-30T11:57:24.685Z</time></trkpt><trkpt lat="43.0843133" lon="2.6118633"><ele>131.25</ele><time>2026-03-30T11:57:25.685Z</time></trkpt><trkpt lat="43.084415" lon="2.61194"><ele>131.5</ele><time>2026-03-30T11:57:26.686Z</time></trkpt><trkpt lat="43.0845167" lon="2.61202"><ele>131.75</ele><time>2026-03-30T11:57:27.685Z</time></trkpt><trkpt lat="43.084615" lon="2.612115"><ele>132.0</ele><time>2026-03-30T11:57:28.685Z</time></trkpt><trkpt lat="43.0847083" lon="2.6122317"><ele>132.0</ele><time>2026-03-30T11:57:29.686Z</time></trkpt><trkpt lat="43.0847983" lon="2.6123617"><ele>132.0</ele><time>2026-03-30T11:57:30.687Z</time></trkpt><trkpt lat="43.0848917" lon="2.6124883"><ele>132.0</ele><time>2026-03-30T11:57:31.686Z</time></trkpt><trkpt lat="43.0849983" lon="2.612605"><ele>132.0</ele><time>2026-03-30T11:57:32.687Z</time></trkpt><trkpt lat="43.0851133" lon="2.6127183"><ele>132.5</ele><time>2026-03-30T11:57:33.687Z</time></trkpt><trkpt lat="43.0852367" lon="2.612825"><ele>133.0</ele><time>2026-03-30T11:57:34.687Z</time></trkpt><trkpt lat="43.08536" lon="2.6129233"><ele>133.5</ele><time>2026-03-30T11:57:35.686Z</time></trkpt><trkpt lat="43.0854733" lon="2.61301"><ele>134.0</ele><time>2026-03-30T11:57:36.686Z</time></trkpt><trkpt lat="43.08559" lon="2.6130833"><ele>134.0</ele><time>2026-03-30T11:57:37.686Z</time></trkpt><trkpt lat="43.0857017" lon="2.6131617"><ele>134.0</ele><time>2026-03-30T11:57:38.689Z</time></trkpt><trkpt lat="43.085815" lon="2.613255"><ele>134.0</ele><time>2026-03-30T11:57:39.687Z</time></trkpt><trkpt lat="43.0859167" lon="2.61336"><ele>134.0</ele><time>2026-03-30T11:57:40.687Z</time></trkpt><trkpt lat="43.08601" lon="2.6134833"><ele>133.75</ele><time>2026-03-30T11:57:41.686Z</time></trkpt><trkpt lat="43.0860967" lon="2.6136117"><ele>133.5</ele><time>2026-03-30T11:57:42.686Z</time></trkpt><trkpt lat="43.0861767" lon="2.6137433"><ele>133.25</ele><time>2026-03-30T11:57:43.686Z</time></trkpt><trkpt lat="43.086245" lon="2.61388"><ele>133.0</ele><time>2026-03-30T11:57:44.687Z</time></trkpt><trkpt lat="43.0863067" lon="2.614015"><ele>133.0</ele><time>2026-03-30T11:57:45.684Z</time></trkpt><trkpt lat="43.0863659" lon="2.6141457"><ele>133.0</ele><time>2026-03-30T11:57:46.685Z</time></trkpt><trkpt lat="43.0864213" lon="2.6142672"><ele>133.0</ele><time>2026-03-30T11:57:47.686Z</time></trkpt><trkpt lat="43.0864754" lon="2.6143706"><ele>133.0</ele><time>2026-03-30T11:57:48.685Z</time></trkpt><trkpt lat="43.0865358" lon="2.6144523"><ele>133.0</ele><time>2026-03-30T11:57:49.686Z</time></trkpt><trkpt lat="43.0865997" lon="2.6145016"><ele>133.14285714285714</ele><time>2026-03-30T11:57:50.687Z</time></trkpt><trkpt lat="43.0866635" lon="2.6145053"><ele>133.28571428571428</ele><time>2026-03-30T11:57:51.689Z</time></trkpt><trkpt lat="43.086727" lon="2.6144896"><ele>133.42857142857144</ele><time>2026-03-30T11:57:52.685Z</time></trkpt><trkpt lat="43.0867936" lon="2.614466"><ele>133.57142857142856</ele><time>2026-03-30T11:57:53.685Z</time></trkpt><trkpt lat="43.0868679" lon="2.6144436"><ele>133.71428571428572</ele><time>2026-03-30T11:57:54.685Z</time></trkpt><trkpt lat="43.0869497" lon="2.6144273"><ele>133.85714285714286</ele><time>2026-03-30T11:57:55.685Z</time></trkpt><trkpt lat="43.0870365" lon="2.6144134"><ele>134.0</ele><time>2026-03-30T11:57:56.686Z</time></trkpt><trkpt lat="43.0871239" lon="2.6144091"><ele>135.4</ele><time>2026-03-30T11:57:57.686Z</time></trkpt><trkpt lat="43.0872114" lon="2.6144044"><ele>136.8</ele><time>2026-03-30T11:57:58.686Z</time></trkpt><trkpt lat="43.0873041" lon="2.6144004"><ele>138.2</ele><time>2026-03-30T11:57:59.686Z</time></trkpt><trkpt lat="43.0873975" lon="2.6144072"><ele>139.6</ele><time>2026-03-30T11:58:00.686Z</time></trkpt><trkpt lat="43.0874914" lon="2.6144242"><ele>141.0</ele><time>2026-03-30T11:58:01.685Z</time></trkpt><trkpt lat="43.0875861" lon="2.6144558"><ele>140.16666666666666</ele><time>2026-03-30T11:58:02.688Z</time></trkpt><trkpt lat="43.0876796" lon="2.6144945"><ele>139.33333333333334</ele><time>2026-03-30T11:58:03.685Z</time></trkpt><trkpt lat="43.0877638" lon="2.6145346"><ele>138.5</ele><time>2026-03-30T11:58:04.686Z</time></trkpt><trkpt lat="43.0878405" lon="2.6145699"><ele>137.66666666666669</ele><time>2026-03-30T11:58:05.685Z</time></trkpt><trkpt lat="43.087908" lon="2.6146017"><ele>136.83333333333334</ele><time>2026-03-30T11:58:06.686Z</time></trkpt><trkpt lat="43.0880079" lon="2.6146425"><ele>136.0</ele><time>2026-03-30T11:58:08.686Z</time></trkpt><trkpt lat="43.0880758" lon="2.6146373"><ele>136.0</ele><time>2026-03-30T11:58:10.685Z</time></trkpt><trkpt lat="43.0880574" lon="2.6145104"><ele>136.0</ele><time>2026-03-30T11:58:13.685Z</time></trkpt><trkpt lat="43.0879796" lon="2.6144008"><ele>136.0</ele><time>2026-03-30T11:58:15.685Z</time></trkpt><trkpt lat="43.0879011" lon="2.6142984"><ele>136.0</ele><time>2026-03-30T11:58:17.69Z</time></trkpt><trkpt lat="43.0878234" lon="2.6141862"><ele>136.0</ele><time>2026-03-30T11:58:19.686Z</time></trkpt><trkpt lat="43.0877455" lon="2.6140704"><ele>137.5</ele><time>2026-03-30T11:58:21.684Z</time></trkpt><trkpt lat="43.0876966" lon="2.6140044"><ele>139.0</ele><time>2026-03-30T11:58:23.685Z</time></trkpt><trkpt lat="43.087644" lon="2.6138829"><ele>140.5</ele><time>2026-03-30T12:02:16.684Z</time></trkpt><trkpt lat="43.0875701" lon="2.6137606"><ele>142.0</ele><time>2026-03-30T12:02:18.684Z</time></trkpt><trkpt lat="43.087521" lon="2.6136907"><ele>143.5</ele><time>2026-03-30T12:02:19.684Z</time></trkpt><trkpt lat="43.0874681" lon="2.6136058"><ele>145.0</ele><time>2026-03-30T12:02:20.685Z</time></trkpt><trkpt lat="43.0874117" lon="2.6135069"><ele>146.2</ele><time>2026-03-30T12:02:21.686Z</time></trkpt><trkpt lat="43.0873494" lon="2.6133986"><ele>147.4</ele><time>2026-03-30T12:02:22.687Z</time></trkpt><trkpt lat="43.087281" lon="2.6132929"><ele>148.6</ele><time>2026-03-30T12:02:23.684Z</time></trkpt><trkpt lat="43.0872072" lon="2.6131828"><ele>149.8</ele><time>2026-03-30T12:02:24.689Z</time></trkpt><trkpt lat="43.0871162" lon="2.6130837"><ele>151.0</ele><time>2026-03-30T12:02:25.685Z</time></trkpt><trkpt lat="43.0870342" lon="2.6129781"><ele>151.0</ele><time>2026-03-30T12:02:26.685Z</time></trkpt><trkpt lat="43.0869578" lon="2.6128802"><ele>151.0</ele><time>2026-03-30T12:02:27.685Z</time></trkpt><trkpt lat="43.0868791" lon="2.6127773"><ele>151.0</ele><time>2026-03-30T12:02:28.686Z</time></trkpt><trkpt lat="43.0867988" lon="2.6126681"><ele>151.0</ele><time>2026-03-30T12:02:29.686Z</time></trkpt><trkpt lat="43.0867277" lon="2.6125695"><ele>151.0</ele><time>2026-03-30T12:02:30.689Z</time></trkpt><trkpt lat="43.0866591" lon="2.6124827"><ele>152.8</ele><time>2026-03-30T12:02:31.688Z</time></trkpt><trkpt lat="43.0865811" lon="2.6124057"><ele>154.6</ele><time>2026-03-30T12:02:32.687Z</time></trkpt><trkpt lat="43.0864937" lon="2.6123284"><ele>156.4</ele><time>2026-03-30T12:02:33.685Z</time></trkpt><trkpt lat="43.0864076" lon="2.6122423"><ele>158.2</ele><time>2026-03-30T12:02:34.685Z</time></trkpt><trkpt lat="43.0863158" lon="2.6121494"><ele>160.0</ele><time>2026-03-30T12:02:35.685Z</time></trkpt><trkpt lat="43.0862154" lon="2.6120574"><ele>163.2</ele><time>2026-03-30T12:02:36.685Z</time></trkpt><trkpt lat="43.0861145" lon="2.611977"><ele>166.4</ele><time>2026-03-30T12:02:37.686Z</time></trkpt><trkpt lat="43.0860189" lon="2.6119024"><ele>169.60000000000002</ele><time>2026-03-30T12:02:38.686Z</time></trkpt><trkpt lat="43.0859482" lon="2.611809"><ele>172.8</ele><time>2026-03-30T12:02:39.688Z</time></trkpt><trkpt lat="43.0858797" lon="2.6117074"><ele>176.0</ele><time>2026-03-30T12:02:40.687Z</time></trkpt><trkpt lat="43.0858195" lon="2.6115976"><ele>176.20000000000002</ele><time>2026-03-30T12:02:41.688Z</time></trkpt><trkpt lat="43.0857413" lon="2.6114969"><ele>176.4</ele><time>2026-03-30T12:02:42.688Z</time></trkpt><trkpt lat="43.0856579" lon="2.611395"><ele>176.6</ele><time>2026-03-30T12:02:43.688Z</time></trkpt><trkpt lat="43.0855737" lon="2.6112928"><ele>176.8</ele><time>2026-03-30T12:02:44.687Z</time></trkpt><trkpt lat="43.0854898" lon="2.6111978"><ele>177.0</ele><time>2026-03-30T12:02:45.686Z</time></trkpt><trkpt lat="43.0854158" lon="2.6111166"><ele>177.0</ele><time>2026-03-30T12:02:46.686Z</time></trkpt><trkpt lat="43.0853467" lon="2.6110415"><ele>177.0</ele><time>2026-03-30T12:02:47.688Z</time></trkpt><trkpt lat="43.0852818" lon="2.6109796"><ele>177.0</ele><time>2026-03-30T12:02:48.688Z</time></trkpt><trkpt lat="43.0852196" lon="2.6109351"><ele>177.0</ele><time>2026-03-30T12:02:49.685Z</time></trkpt><trkpt lat="43.0851184" lon="2.6108322"><ele>177.0</ele><time>2026-03-30T12:02:51.685Z</time></trkpt><trkpt lat="43.0850689" lon="2.610757"><ele>177.0</ele><time>2026-03-30T12:02:52.685Z</time></trkpt><trkpt lat="43.0850161" lon="2.6106755"><ele>177.0</ele><time>2026-03-30T12:02:53.689Z</time></trkpt><trkpt lat="43.0849653" lon="2.610594"><ele>177.0</ele><time>2026-03-30T12:02:54.686Z</time></trkpt><trkpt lat="43.0849289" lon="2.6105018"><ele>177.0</ele><time>2026-03-30T12:02:55.684Z</time></trkpt><trkpt lat="43.0849059" lon="2.610411"><ele>177.0</ele><time>2026-03-30T12:02:56.685Z</time></trkpt><trkpt lat="43.0848908" lon="2.6103238"><ele>177.0</ele><time>2026-03-30T12:02:57.685Z</time></trkpt><trkpt lat="43.0849088" lon="2.610224"><ele>177.0</ele><time>2026-03-30T12:02:58.685Z</time></trkpt><trkpt lat="43.0849423" lon="2.6101136"><ele>178.39999999999998</ele><time>2026-03-30T12:02:59.685Z</time></trkpt><trkpt lat="43.0849842" lon="2.609998"><ele>179.79999999999998</ele><time>2026-03-30T12:03:00.684Z</time></trkpt><trkpt lat="43.0850211" lon="2.6098737"><ele>181.2</ele><time>2026-03-30T12:03:01.685Z</time></trkpt><trkpt lat="43.0850576" lon="2.6097373"><ele>182.6</ele><time>2026-03-30T12:03:02.686Z</time></trkpt><trkpt lat="43.0850889" lon="2.6095974"><ele>184.0</ele><time>2026-03-30T12:03:03.685Z</time></trkpt><trkpt lat="43.0851169" lon="2.6094458"><ele>184.5</ele><time>2026-03-30T12:03:04.684Z</time></trkpt><trkpt lat="43.0851396" lon="2.6092897"><ele>185.0</ele><time>2026-03-30T12:03:05.685Z</time></trkpt><trkpt lat="43.0851517" lon="2.6091217"><ele>185.5</ele><time>2026-03-30T12:03:06.685Z</time></trkpt><trkpt lat="43.085165" lon="2.60896"><ele>186.0</ele><time>2026-03-30T12:03:07.684Z</time></trkpt><trkpt lat="43.0851833" lon="2.6088017"><ele>186.60000000000002</ele><time>2026-03-30T12:03:08.686Z</time></trkpt><trkpt lat="43.0852017" lon="2.6086533"><ele>187.2</ele><time>2026-03-30T12:03:09.685Z</time></trkpt><trkpt lat="43.0852183" lon="2.6085083"><ele>187.8</ele><time>2026-03-30T12:03:10.684Z</time></trkpt><trkpt lat="43.0852433" lon="2.60836"><ele>188.39999999999998</ele><time>2026-03-30T12:03:11.684Z</time></trkpt><trkpt lat="43.0852717" lon="2.6082033"><ele>189.0</ele><time>2026-03-30T12:03:12.685Z</time></trkpt><trkpt lat="43.0853" lon="2.6080367"><ele>189.0</ele><time>2026-03-30T12:03:13.684Z</time></trkpt><trkpt lat="43.0853167" lon="2.60786"><ele>189.0</ele><time>2026-03-30T12:03:14.685Z</time></trkpt><trkpt lat="43.08532" lon="2.60768"><ele>189.0</ele><time>2026-03-30T12:03:15.685Z</time></trkpt><trkpt lat="43.0853183" lon="2.6075083"><ele>189.0</ele><time>2026-03-30T12:03:16.684Z</time></trkpt><trkpt lat="43.085315" lon="2.60735"><ele>189.0</ele><time>2026-03-30T12:03:17.685Z</time></trkpt><trkpt lat="43.085325" lon="2.607195"><ele>189.0</ele><time>2026-03-30T12:03:18.685Z</time></trkpt><trkpt lat="43.0853317" lon="2.6070333"><ele>189.0</ele><time>2026-03-30T12:03:19.686Z</time></trkpt><trkpt lat="43.0853333" lon="2.606885"><ele>189.0</ele><time>2026-03-30T12:03:20.685Z</time></trkpt><trkpt lat="43.0853217" lon="2.606725"><ele>189.0</ele><time>2026-03-30T12:03:21.688Z</time></trkpt><trkpt lat="43.085305" lon="2.6065583"><ele>189.0</ele><time>2026-03-30T12:03:22.685Z</time></trkpt><trkpt lat="43.08531" lon="2.6064083"><ele>189.0</ele><time>2026-03-30T12:03:23.685Z</time></trkpt><trkpt lat="43.0852883" lon="2.606245"><ele>189.0</ele><time>2026-03-30T12:03:24.687Z</time></trkpt><trkpt lat="43.08529" lon="2.606085"><ele>189.5</ele><time>2026-03-30T12:03:25.685Z</time></trkpt><trkpt lat="43.08529" lon="2.6059167"><ele>190.0</ele><time>2026-03-30T12:03:26.685Z</time></trkpt><trkpt lat="43.0853" lon="2.605755"><ele>190.5</ele><time>2026-03-30T12:03:27.685Z</time></trkpt><trkpt lat="43.0853333" lon="2.60559"><ele>191.0</ele><time>2026-03-30T12:03:28.688Z</time></trkpt><trkpt lat="43.0853633" lon="2.6054183"><ele>192.25</ele><time>2026-03-30T12:03:29.685Z</time></trkpt><trkpt lat="43.0853817" lon="2.6052417"><ele>193.5</ele><time>2026-03-30T12:03:30.685Z</time></trkpt><trkpt lat="43.0853933" lon="2.6050533"><ele>194.75</ele><time>2026-03-30T12:03:31.684Z</time></trkpt><trkpt lat="43.08539" lon="2.6048567"><ele>196.0</ele><time>2026-03-30T12:03:32.684Z</time></trkpt><trkpt lat="43.08538" lon="2.6046717"><ele>197.25</ele><time>2026-03-30T12:03:33.689Z</time></trkpt><trkpt lat="43.0853733" lon="2.60448"><ele>198.5</ele><time>2026-03-30T12:03:34.689Z</time></trkpt><trkpt lat="43.08538" lon="2.604295"><ele>199.75</ele><time>2026-03-30T12:03:35.685Z</time></trkpt><trkpt lat="43.0854017" lon="2.604105"><ele>201.0</ele><time>2026-03-30T12:03:36.685Z</time></trkpt><trkpt lat="43.08544" lon="2.6039183"><ele>201.0</ele><time>2026-03-30T12:03:37.685Z</time></trkpt><trkpt lat="43.0854917" lon="2.60373"><ele>201.0</ele><time>2026-03-30T12:03:38.686Z</time></trkpt><trkpt lat="43.0855533" lon="2.6035483"><ele>201.0</ele><time>2026-03-30T12:03:39.687Z</time></trkpt><trkpt lat="43.0856017" lon="2.603365"><ele>201.0</ele><time>2026-03-30T12:03:40.686Z</time></trkpt><trkpt lat="43.0856383" lon="2.6031717"><ele>202.5</ele><time>2026-03-30T12:03:41.686Z</time></trkpt><trkpt lat="43.0856783" lon="2.6029883"><ele>204.0</ele><time>2026-03-30T12:03:42.685Z</time></trkpt><trkpt lat="43.0857383" lon="2.6028217"><ele>205.5</ele><time>2026-03-30T12:03:43.686Z</time></trkpt><trkpt lat="43.0858" lon="2.602685"><ele>207.0</ele><time>2026-03-30T12:03:44.685Z</time></trkpt><trkpt lat="43.085855" lon="2.6025433"><ele>211.0</ele><time>2026-03-30T12:03:45.685Z</time></trkpt><trkpt lat="43.0858983" lon="2.60241"><ele>215.0</ele><time>2026-03-30T12:03:46.689Z</time></trkpt><trkpt lat="43.085925" lon="2.6022733"><ele>219.0</ele><time>2026-03-30T12:03:47.688Z</time></trkpt><trkpt lat="43.0859367" lon="2.602125"><ele>223.0</ele><time>2026-03-30T12:03:48.684Z</time></trkpt><trkpt lat="43.0859383" lon="2.6019667"><ele>227.0</ele><time>2026-03-30T12:03:49.688Z</time></trkpt><trkpt lat="43.08593" lon="2.6017933"><ele>227.8</ele><time>2026-03-30T12:03:50.685Z</time></trkpt><trkpt lat="43.0859117" lon="2.6016267"><ele>228.6</ele><time>2026-03-30T12:03:51.686Z</time></trkpt><trkpt lat="43.0858817" lon="2.6014817"><ele>229.40000000000003</ele><time>2026-03-30T12:03:52.686Z</time></trkpt><trkpt lat="43.0858483" lon="2.6013633"><ele>230.20000000000002</ele><time>2026-03-30T12:03:53.686Z</time></trkpt><trkpt lat="43.085815" lon="2.6012667"><ele>231.0</ele><time>2026-03-30T12:03:54.686Z</time></trkpt><trkpt lat="43.0858017" lon="2.6011283"><ele>231.0</ele><time>2026-03-30T12:03:56.686Z</time></trkpt><trkpt lat="43.085875" lon="2.6011367"><ele>231.00000000000003</ele><time>2026-03-30T12:03:58.686Z</time></trkpt><trkpt lat="43.08593" lon="2.6011817"><ele>231.00000000000003</ele><time>2026-03-30T12:03:59.685Z</time></trkpt><trkpt lat="43.0859883" lon="2.601285"><ele>231.0</ele><time>2026-03-30T12:04:00.688Z</time></trkpt><trkpt lat="43.0860433" lon="2.6014183"><ele>231.0</ele><time>2026-03-30T12:04:01.687Z</time></trkpt><trkpt lat="43.0861067" lon="2.601545"><ele>231.0</ele><time>2026-03-30T12:04:02.688Z</time></trkpt><trkpt lat="43.0861633" lon="2.60166"><ele>231.00000000000003</ele><time>2026-03-30T12:04:03.688Z</time></trkpt><trkpt lat="43.0862167" lon="2.60178"><ele>231.00000000000003</ele><time>2026-03-30T12:04:04.685Z</time></trkpt><trkpt lat="43.0862533" lon="2.6019183"><ele>231.0</ele><time>2026-03-30T12:04:05.686Z</time></trkpt><trkpt lat="43.0862733" lon="2.60207"><ele>231.0</ele><time>2026-03-30T12:04:06.686Z</time></trkpt><trkpt lat="43.08629" lon="2.6022317"><ele>230.0</ele><time>2026-03-30T12:04:07.684Z</time></trkpt><trkpt lat="43.086315" lon="2.6023967"><ele>229.0</ele><time>2026-03-30T12:04:08.687Z</time></trkpt><trkpt lat="43.0863467" lon="2.6025683"><ele>228.0</ele><time>2026-03-30T12:04:09.687Z</time></trkpt><trkpt lat="43.0863733" lon="2.6027417"><ele>227.0</ele><time>2026-03-30T12:04:10.687Z</time></trkpt><trkpt lat="43.0864083" lon="2.6029083"><ele>227.0</ele><time>2026-03-30T12:04:11.686Z</time></trkpt><trkpt lat="43.08644" lon="2.603065"><ele>227.0</ele><time>2026-03-30T12:04:12.687Z</time></trkpt><trkpt lat="43.0864633" lon="2.6032183"><ele>227.0</ele><time>2026-03-30T12:04:13.685Z</time></trkpt><trkpt lat="43.0864783" lon="2.6033683"><ele>227.0</ele><time>2026-03-30T12:04:14.687Z</time></trkpt><trkpt lat="43.08649" lon="2.6035067"><ele>227.0</ele><time>2026-03-30T12:04:15.685Z</time></trkpt><trkpt lat="43.0865067" lon="2.6036433"><ele>226.6</ele><time>2026-03-30T12:04:16.686Z</time></trkpt><trkpt lat="43.086525" lon="2.6037833"><ele>226.2</ele><time>2026-03-30T12:04:17.686Z</time></trkpt><trkpt lat="43.0865483" lon="2.6039217"><ele>225.8</ele><time>2026-03-30T12:04:18.686Z</time></trkpt><trkpt lat="43.0865733" lon="2.6040683"><ele>225.4</ele><time>2026-03-30T12:04:19.687Z</time></trkpt><trkpt lat="43.0865983" lon="2.6042233"><ele>225.0</ele><time>2026-03-30T12:04:20.688Z</time></trkpt><trkpt lat="43.0866117" lon="2.6043933"><ele>230.4</ele><time>2026-03-30T12:04:21.685Z</time></trkpt><trkpt lat="43.0866233" lon="2.604555"><ele>235.8</ele><time>2026-03-30T12:04:22.686Z</time></trkpt><trkpt lat="43.0866267" lon="2.6046917"><ele>241.2</ele><time>2026-03-30T12:04:23.686Z</time></trkpt><trkpt lat="43.08663" lon="2.6047883"><ele>246.6</ele><time>2026-03-30T12:04:24.686Z</time></trkpt><trkpt lat="43.0866533" lon="2.604905"><ele>252.0</ele><time>2026-03-30T12:04:26.685Z</time></trkpt><trkpt lat="43.08672" lon="2.604845"><ele>252.0</ele><time>2026-03-30T12:04:29.684Z</time></trkpt><trkpt lat="43.0867083" lon="2.6047133"><ele>252.0</ele><time>2026-03-30T12:04:30.685Z</time></trkpt><trkpt lat="43.0866983" lon="2.6046083"><ele>252.0</ele><time>2026-03-30T12:04:31.685Z</time></trkpt><trkpt lat="43.08669" lon="2.6044817"><ele>252.0</ele><time>2026-03-30T12:04:32.688Z</time></trkpt><trkpt lat="43.0867083" lon="2.6043083"><ele>252.0</ele><time>2026-03-30T12:04:33.685Z</time></trkpt><trkpt lat="43.086725" lon="2.60414"><ele>252.25</ele><time>2026-03-30T12:04:34.686Z</time></trkpt><trkpt lat="43.0867317" lon="2.60397"><ele>252.5</ele><time>2026-03-30T12:04:35.686Z</time></trkpt><trkpt lat="43.08674" lon="2.6037967"><ele>252.75</ele><time>2026-03-30T12:04:36.69Z</time></trkpt><trkpt lat="43.0867567" lon="2.6036183"><ele>253.0</ele><time>2026-03-30T12:04:37.685Z</time></trkpt><trkpt lat="43.0867917" lon="2.6034317"><ele>253.25</ele><time>2026-03-30T12:04:38.687Z</time></trkpt><trkpt lat="43.0868217" lon="2.6032483"><ele>253.5</ele><time>2026-03-30T12:04:39.685Z</time></trkpt><trkpt lat="43.0868467" lon="2.6030617"><ele>253.75</ele><time>2026-03-30T12:04:40.685Z</time></trkpt><trkpt lat="43.0868717" lon="2.6028783"><ele>254.0</ele><time>2026-03-30T12:04:41.685Z</time></trkpt><trkpt lat="43.0869033" lon="2.6026933"><ele>254.33333333333334</ele><time>2026-03-30T12:04:42.686Z</time></trkpt><trkpt lat="43.0869417" lon="2.6025017"><ele>254.66666666666669</ele><time>2026-03-30T12:04:43.686Z</time></trkpt><trkpt lat="43.0869767" lon="2.6022983"><ele>255.0</ele><time>2026-03-30T12:04:44.686Z</time></trkpt><trkpt lat="43.0870017" lon="2.6020883"><ele>255.25</ele><time>2026-03-30T12:04:45.686Z</time></trkpt><trkpt lat="43.0870083" lon="2.60187"><ele>255.5</ele><time>2026-03-30T12:04:46.684Z</time></trkpt><trkpt lat="43.0870083" lon="2.60167"><ele>255.75</ele><time>2026-03-30T12:04:47.685Z</time></trkpt><trkpt lat="43.0870133" lon="2.6014783"><ele>256.0</ele><time>2026-03-30T12:04:48.687Z</time></trkpt><trkpt lat="43.08702" lon="2.6012917"><ele>257.75</ele><time>2026-03-30T12:04:49.686Z</time></trkpt><trkpt lat="43.0870267" lon="2.6011267"><ele>259.5</ele><time>2026-03-30T12:04:50.685Z</time></trkpt><trkpt lat="43.08702" lon="2.6009717"><ele>261.25</ele><time>2026-03-30T12:04:51.685Z</time></trkpt><trkpt lat="43.086995" lon="2.600815"><ele>263.0</ele><time>2026-03-30T12:04:52.685Z</time></trkpt><trkpt lat="43.086965" lon="2.600655"><ele>263.0</ele><time>2026-03-30T12:04:53.685Z</time></trkpt><trkpt lat="43.0869233" lon="2.6005033"><ele>263.0</ele><time>2026-03-30T12:04:54.685Z</time></trkpt><trkpt lat="43.0868683" lon="2.6003433"><ele>263.0</ele><time>2026-03-30T12:04:55.686Z</time></trkpt><trkpt lat="43.0868167" lon="2.6001917"><ele>263.0</ele><time>2026-03-30T12:04:56.687Z</time></trkpt><trkpt lat="43.0867617" lon="2.6000467"><ele>263.8</ele><time>2026-03-30T12:04:57.685Z</time></trkpt><trkpt lat="43.0867117" lon="2.599915"><ele>264.6</ele><time>2026-03-30T12:04:58.686Z</time></trkpt><trkpt lat="43.0866683" lon="2.5997817"><ele>265.4</ele><time>2026-03-30T12:04:59.684Z</time></trkpt><trkpt lat="43.0866333" lon="2.5996433"><ele>266.2</ele><time>2026-03-30T12:05:00.685Z</time></trkpt><trkpt lat="43.086605" lon="2.599505"><ele>267.0</ele><time>2026-03-30T12:05:01.684Z</time></trkpt><trkpt lat="43.086575" lon="2.5993683"><ele>267.0</ele><time>2026-03-30T12:05:02.686Z</time></trkpt><trkpt lat="43.0865467" lon="2.5992317"><ele>267.0</ele><time>2026-03-30T12:05:03.685Z</time></trkpt><trkpt lat="43.086525" lon="2.5990867"><ele>267.0</ele><time>2026-03-30T12:05:04.685Z</time></trkpt><trkpt lat="43.086515" lon="2.598945"><ele>267.0</ele><time>2026-03-30T12:05:05.686Z</time></trkpt><trkpt lat="43.0865" lon="2.59882"><ele>267.0</ele><time>2026-03-30T12:05:06.689Z</time></trkpt><trkpt lat="43.0864667" lon="2.598705"><ele>269.4</ele><time>2026-03-30T12:05:07.685Z</time></trkpt><trkpt lat="43.0864267" lon="2.598595"><ele>271.79999999999995</ele><time>2026-03-30T12:05:08.685Z</time></trkpt><trkpt lat="43.0863617" lon="2.598505"><ele>274.2</ele><time>2026-03-30T12:05:09.685Z</time></trkpt><trkpt lat="43.08629" lon="2.59842"><ele>276.59999999999997</ele><time>2026-03-30T12:05:10.688Z</time></trkpt><trkpt lat="43.0862217" lon="2.598335"><ele>279.0</ele><time>2026-03-30T12:05:11.685Z</time></trkpt><trkpt lat="43.086155" lon="2.598255"><ele>279.0</ele><time>2026-03-30T12:05:12.689Z</time></trkpt><trkpt lat="43.0861067" lon="2.59817"><ele>279.0</ele><time>2026-03-30T12:05:13.688Z</time></trkpt><trkpt lat="43.0860733" lon="2.5980767"><ele>279.0</ele><time>2026-03-30T12:05:14.685Z</time></trkpt><trkpt lat="43.0860483" lon="2.59797"><ele>279.0</ele><time>2026-03-30T12:05:15.685Z</time></trkpt><trkpt lat="43.0860367" lon="2.5978467"><ele>279.0</ele><time>2026-03-30T12:05:16.69Z</time></trkpt><trkpt lat="43.0860417" lon="2.59771"><ele>279.0</ele><time>2026-03-30T12:05:17.685Z</time></trkpt><trkpt lat="43.0860533" lon="2.5975617"><ele>280.25</ele><time>2026-03-30T12:05:18.687Z</time></trkpt><trkpt lat="43.0860633" lon="2.597395"><ele>281.5</ele><time>2026-03-30T12:05:19.686Z</time></trkpt><trkpt lat="43.086065" lon="2.5972267"><ele>282.75</ele><time>2026-03-30T12:05:20.687Z</time></trkpt><trkpt lat="43.086055" lon="2.5970583"><ele>284.0</ele><time>2026-03-30T12:05:21.687Z</time></trkpt><trkpt lat="43.086045" lon="2.5968933"><ele>285.5</ele><time>2026-03-30T12:05:22.684Z</time></trkpt><trkpt lat="43.086035" lon="2.596725"><ele>287.0</ele><time>2026-03-30T12:05:23.686Z</time></trkpt><trkpt lat="43.086035" lon="2.5965633"><ele>288.5</ele><time>2026-03-30T12:05:24.687Z</time></trkpt><trkpt lat="43.0860283" lon="2.5963983"><ele>290.0</ele><time>2026-03-30T12:05:25.687Z</time></trkpt><trkpt lat="43.0860267" lon="2.5962383"><ele>291.25</ele><time>2026-03-30T12:05:26.687Z</time></trkpt><trkpt lat="43.0860283" lon="2.5960683"><ele>292.5</ele><time>2026-03-30T12:05:27.685Z</time></trkpt><trkpt lat="43.0860283" lon="2.5959"><ele>293.75</ele><time>2026-03-30T12:05:28.686Z</time></trkpt><trkpt lat="43.0860233" lon="2.5957217"><ele>295.0</ele><time>2026-03-30T12:05:29.685Z</time></trkpt><trkpt lat="43.0860233" lon="2.5955317"><ele>295.0</ele><time>2026-03-30T12:05:30.685Z</time></trkpt><trkpt lat="43.086025" lon="2.5953383"><ele>295.0</ele><time>2026-03-30T12:05:31.686Z</time></trkpt><trkpt lat="43.0860333" lon="2.595165"><ele>295.0</ele><time>2026-03-30T12:05:32.686Z</time></trkpt><trkpt lat="43.086055" lon="2.595005"><ele>295.0</ele><time>2026-03-30T12:05:33.685Z</time></trkpt><trkpt lat="43.0860817" lon="2.5948483"><ele>295.6</ele><time>2026-03-30T12:05:34.686Z</time></trkpt><trkpt lat="43.086095" lon="2.5946983"><ele>296.2</ele><time>2026-03-30T12:05:35.687Z</time></trkpt><trkpt lat="43.086085" lon="2.5945533"><ele>296.8</ele><time>2026-03-30T12:05:36.685Z</time></trkpt><trkpt lat="43.0860467" lon="2.5944117"><ele>297.4</ele><time>2026-03-30T12:05:37.687Z</time></trkpt><trkpt lat="43.0859883" lon="2.594275"><ele>298.0</ele><time>2026-03-30T12:05:38.686Z</time></trkpt><trkpt lat="43.085905" lon="2.5941633"><ele>299.0</ele><time>2026-03-30T12:05:39.685Z</time></trkpt><trkpt lat="43.0858" lon="2.59409"><ele>300.0</ele><time>2026-03-30T12:05:40.685Z</time></trkpt><trkpt lat="43.0856867" lon="2.5940767"><ele>301.0</ele><time>2026-03-30T12:05:41.687Z</time></trkpt><trkpt lat="43.0855817" lon="2.594085"><ele>302.0</ele><time>2026-03-30T12:05:42.686Z</time></trkpt><trkpt lat="43.0854817" lon="2.5940983"><ele>303.0</ele><time>2026-03-30T12:05:43.684Z</time></trkpt><trkpt lat="43.0854" lon="2.5940833"><ele>303.1666666666667</ele><time>2026-03-30T12:05:44.688Z</time></trkpt><trkpt lat="43.08534" lon="2.594045"><ele>303.3333333333333</ele><time>2026-03-30T12:05:45.685Z</time></trkpt><trkpt lat="43.0852933" lon="2.5938883"><ele>303.5</ele><time>2026-03-30T12:05:47.686Z</time></trkpt><trkpt lat="43.085315" lon="2.5937817"><ele>303.66666666666663</ele><time>2026-03-30T12:05:48.687Z</time></trkpt><trkpt lat="43.0853517" lon="2.5936717"><ele>303.8333333333333</ele><time>2026-03-30T12:05:49.687Z</time></trkpt><trkpt lat="43.085385" lon="2.5935567"><ele>304.0</ele><time>2026-03-30T12:05:50.687Z</time></trkpt><trkpt lat="43.08543" lon="2.5934183"><ele>305.0</ele><time>2026-03-30T12:05:51.686Z</time></trkpt><trkpt lat="43.08548" lon="2.5932683"><ele>306.0</ele><time>2026-03-30T12:05:52.686Z</time></trkpt><trkpt lat="43.08553" lon="2.5930967"><ele>307.0</ele><time>2026-03-30T12:05:53.686Z</time></trkpt><trkpt lat="43.0855783" lon="2.59293"><ele>308.0</ele><time>2026-03-30T12:05:54.686Z</time></trkpt><trkpt lat="43.085625" lon="2.5927583"><ele>308.0</ele><time>2026-03-30T12:05:55.687Z</time></trkpt><trkpt lat="43.08566" lon="2.5925833"><ele>308.0</ele><time>2026-03-30T12:05:56.687Z</time></trkpt><trkpt lat="43.0856767" lon="2.5924"><ele>308.0</ele><time>2026-03-30T12:05:57.685Z</time></trkpt><trkpt lat="43.085685" lon="2.5921983"><ele>308.0</ele><time>2026-03-30T12:05:58.686Z</time></trkpt><trkpt lat="43.0856967" lon="2.5919917"><ele>308.0</ele><time>2026-03-30T12:05:59.688Z</time></trkpt><trkpt lat="43.0857117" lon="2.5917917"><ele>308.0</ele><time>2026-03-30T12:06:00.686Z</time></trkpt><trkpt lat="43.085725" lon="2.59159"><ele>308.0</ele><time>2026-03-30T12:06:01.685Z</time></trkpt><trkpt lat="43.085735" lon="2.5913833"><ele>308.0</ele><time>2026-03-30T12:06:02.685Z</time></trkpt><trkpt lat="43.0857433" lon="2.591165"><ele>308.0</ele><time>2026-03-30T12:06:03.685Z</time></trkpt><trkpt lat="43.085755" lon="2.5909383"><ele>308.0</ele><time>2026-03-30T12:06:04.686Z</time></trkpt><trkpt lat="43.0857667" lon="2.5907017"><ele>308.0</ele><time>2026-03-30T12:06:05.684Z</time></trkpt><trkpt lat="43.0857733" lon="2.5904567"><ele>308.6666666666667</ele><time>2026-03-30T12:06:06.685Z</time></trkpt><trkpt lat="43.08578" lon="2.5902083"><ele>309.3333333333333</ele><time>2026-03-30T12:06:07.685Z</time></trkpt><trkpt lat="43.085785" lon="2.58997"><ele>310.0</ele><time>2026-03-30T12:06:08.685Z</time></trkpt><trkpt lat="43.08579" lon="2.589745"><ele>310.0</ele><time>2026-03-30T12:06:09.686Z</time></trkpt><trkpt lat="43.0857983" lon="2.5895167"><ele>310.0</ele><time>2026-03-30T12:06:10.685Z</time></trkpt><trkpt lat="43.0857983" lon="2.5893083"><ele>310.0</ele><time>2026-03-30T12:06:11.687Z</time></trkpt><trkpt lat="43.085805" lon="2.5891233"><ele>310.75</ele><time>2026-03-30T12:06:12.685Z</time></trkpt><trkpt lat="43.0858067" lon="2.58893"><ele>311.5</ele><time>2026-03-30T12:06:13.688Z</time></trkpt><trkpt lat="43.0857967" lon="2.588735"><ele>312.25</ele><time>2026-03-30T12:06:14.688Z</time></trkpt><trkpt lat="43.0857633" lon="2.5885267"><ele>313.0</ele><time>2026-03-30T12:06:15.685Z</time></trkpt><trkpt lat="43.08572" lon="2.5883233"><ele>313.3333333333333</ele><time>2026-03-30T12:06:16.689Z</time></trkpt><trkpt lat="43.0856667" lon="2.5881183"><ele>313.6666666666667</ele><time>2026-03-30T12:06:17.685Z</time></trkpt><trkpt lat="43.0856133" lon="2.5879117"><ele>314.0</ele><time>2026-03-30T12:06:18.686Z</time></trkpt><trkpt lat="43.0855633" lon="2.5877183"><ele>314.33333333333337</ele><time>2026-03-30T12:06:19.685Z</time></trkpt><trkpt lat="43.0855133" lon="2.58752"><ele>314.6666666666667</ele><time>2026-03-30T12:06:20.685Z</time></trkpt><trkpt lat="43.0854617" lon="2.5873167"><ele>315.0</ele><time>2026-03-30T12:06:21.685Z</time></trkpt><trkpt lat="43.0854067" lon="2.587125"><ele>315.5</ele><time>2026-03-30T12:06:22.685Z</time></trkpt><trkpt lat="43.0853483" lon="2.5869483"><ele>316.0</ele><time>2026-03-30T12:06:23.684Z</time></trkpt><trkpt lat="43.085285" lon="2.58679"><ele>316.5</ele><time>2026-03-30T12:06:24.684Z</time></trkpt><trkpt lat="43.0852067" lon="2.5866467"><ele>317.0</ele><time>2026-03-30T12:06:25.685Z</time></trkpt><trkpt lat="43.0851067" lon="2.5865017"><ele>317.0</ele><time>2026-03-30T12:06:26.685Z</time></trkpt><trkpt lat="43.085" lon="2.5863483"><ele>317.0</ele><time>2026-03-30T12:06:27.684Z</time></trkpt><trkpt lat="43.0849083" lon="2.5861783"><ele>317.0</ele><time>2026-03-30T12:06:28.684Z</time></trkpt><trkpt lat="43.08482" lon="2.58599"><ele>317.0</ele><time>2026-03-30T12:06:29.685Z</time></trkpt><trkpt lat="43.0847317" lon="2.5857867"><ele>317.0</ele><time>2026-03-30T12:06:30.687Z</time></trkpt><trkpt lat="43.084655" lon="2.5856017"><ele>317.0</ele><time>2026-03-30T12:06:31.686Z</time></trkpt><trkpt lat="43.0845583" lon="2.58542"><ele>317.5</ele><time>2026-03-30T12:06:32.688Z</time></trkpt><trkpt lat="43.08447" lon="2.5852533"><ele>318.0</ele><time>2026-03-30T12:06:33.688Z</time></trkpt><trkpt lat="43.08438" lon="2.5850867"><ele>318.5</ele><time>2026-03-30T12:06:34.686Z</time></trkpt><trkpt lat="43.0843017" lon="2.5849283"><ele>319.0</ele><time>2026-03-30T12:06:35.685Z</time></trkpt><trkpt lat="43.0842333" lon="2.5847617"><ele>319.0</ele><time>2026-03-30T12:06:36.688Z</time></trkpt><trkpt lat="43.0841867" lon="2.5845983"><ele>319.0</ele><time>2026-03-30T12:06:37.686Z</time></trkpt><trkpt lat="43.0841433" lon="2.584435"><ele>319.0</ele><time>2026-03-30T12:06:38.688Z</time></trkpt><trkpt lat="43.0841383" lon="2.5842983"><ele>319.0</ele><time>2026-03-30T12:06:39.686Z</time></trkpt><trkpt lat="43.0841367" lon="2.5841517"><ele>319.25</ele><time>2026-03-30T12:06:40.685Z</time></trkpt><trkpt lat="43.0841533" lon="2.5840083"><ele>319.5</ele><time>2026-03-30T12:06:41.685Z</time></trkpt><trkpt lat="43.08419" lon="2.583855"><ele>319.75</ele><time>2026-03-30T12:06:42.685Z</time></trkpt><trkpt lat="43.0842367" lon="2.5837017"><ele>320.0</ele><time>2026-03-30T12:06:43.685Z</time></trkpt><trkpt lat="43.084275" lon="2.5835517"><ele>319.5</ele><time>2026-03-30T12:06:44.687Z</time></trkpt><trkpt lat="43.084305" lon="2.5833933"><ele>319.0</ele><time>2026-03-30T12:06:45.685Z</time></trkpt><trkpt lat="43.08433" lon="2.583215"><ele>318.5</ele><time>2026-03-30T12:06:46.687Z</time></trkpt><trkpt lat="43.0843433" lon="2.5830183"><ele>318.0</ele><time>2026-03-30T12:06:47.685Z</time></trkpt><trkpt lat="43.0843517" lon="2.582815"><ele>317.3333333333333</ele><time>2026-03-30T12:06:48.687Z</time></trkpt><trkpt lat="43.084355" lon="2.5826"><ele>316.66666666666663</ele><time>2026-03-30T12:06:49.688Z</time></trkpt><trkpt lat="43.084355" lon="2.5823833"><ele>316.0</ele><time>2026-03-30T12:06:50.686Z</time></trkpt><trkpt lat="43.0843467" lon="2.582175"><ele>316.5</ele><time>2026-03-30T12:06:51.685Z</time></trkpt><trkpt lat="43.0843433" lon="2.5819633"><ele>317.0</ele><time>2026-03-30T12:06:52.685Z</time></trkpt><trkpt lat="43.0843517" lon="2.5817583"><ele>317.5</ele><time>2026-03-30T12:06:53.684Z</time></trkpt><trkpt lat="43.08437" lon="2.5815667"><ele>318.0</ele><time>2026-03-30T12:06:54.685Z</time></trkpt><trkpt lat="43.0843883" lon="2.5813867"><ele>318.0</ele><time>2026-03-30T12:06:55.69Z</time></trkpt><trkpt lat="43.0844" lon="2.5812083"><ele>318.0</ele><time>2026-03-30T12:06:56.685Z</time></trkpt><trkpt lat="43.0844017" lon="2.58102"><ele>318.0</ele><time>2026-03-30T12:06:57.686Z</time></trkpt><trkpt lat="43.0844067" lon="2.5808333"><ele>318.0</ele><time>2026-03-30T12:06:58.686Z</time></trkpt><trkpt lat="43.0844117" lon="2.5806367"><ele>318.3333333333333</ele><time>2026-03-30T12:06:59.687Z</time></trkpt><trkpt lat="43.0844183" lon="2.5804333"><ele>318.66666666666663</ele><time>2026-03-30T12:07:00.685Z</time></trkpt><trkpt lat="43.084425" lon="2.5802267"><ele>319.0</ele><time>2026-03-30T12:07:01.685Z</time></trkpt><trkpt lat="43.084445" lon="2.580015"><ele>318.0</ele><time>2026-03-30T12:07:02.687Z</time></trkpt><trkpt lat="43.0844583" lon="2.579805"><ele>317.0</ele><time>2026-03-30T12:07:03.685Z</time></trkpt><trkpt lat="43.084465" lon="2.57961"><ele>316.0</ele><time>2026-03-30T12:07:04.686Z</time></trkpt><trkpt lat="43.08446" lon="2.5794217"><ele>315.0</ele><time>2026-03-30T12:07:05.685Z</time></trkpt><trkpt lat="43.0844583" lon="2.579225"><ele>314.25</ele><time>2026-03-30T12:07:06.684Z</time></trkpt><trkpt lat="43.08447" lon="2.57903"><ele>313.5</ele><time>2026-03-30T12:07:07.684Z</time></trkpt><trkpt lat="43.0844867" lon="2.57884"><ele>312.75</ele><time>2026-03-30T12:07:08.685Z</time></trkpt><trkpt lat="43.0844967" lon="2.5786433"><ele>312.0</ele><time>2026-03-30T12:07:09.686Z</time></trkpt><trkpt lat="43.0845017" lon="2.578455"><ele>311.5</ele><time>2026-03-30T12:07:10.684Z</time></trkpt><trkpt lat="43.0845133" lon="2.5782717"><ele>311.0</ele><time>2026-03-30T12:07:11.685Z</time></trkpt><trkpt lat="43.0845117" lon="2.5780867"><ele>310.5</ele><time>2026-03-30T12:07:12.685Z</time></trkpt><trkpt lat="43.0845067" lon="2.5779017"><ele>310.0</ele><time>2026-03-30T12:07:13.684Z</time></trkpt><trkpt lat="43.0845017" lon="2.5777167"><ele>310.0</ele><time>2026-03-30T12:07:14.688Z</time></trkpt><trkpt lat="43.084495" lon="2.57753"><ele>310.0</ele><time>2026-03-30T12:07:15.685Z</time></trkpt><trkpt lat="43.0845" lon="2.5773533"><ele>310.0</ele><time>2026-03-30T12:07:16.685Z</time></trkpt><trkpt lat="43.084515" lon="2.577195"><ele>310.0</ele><time>2026-03-30T12:07:17.684Z</time></trkpt><trkpt lat="43.0845383" lon="2.5770517"><ele>310.16666666666663</ele><time>2026-03-30T12:07:18.685Z</time></trkpt><trkpt lat="43.084565" lon="2.5769233"><ele>310.3333333333333</ele><time>2026-03-30T12:07:19.686Z</time></trkpt><trkpt lat="43.0845983" lon="2.5768133"><ele>310.5</ele><time>2026-03-30T12:07:20.687Z</time></trkpt><trkpt lat="43.0846317" lon="2.5767133"><ele>310.6666666666667</ele><time>2026-03-30T12:07:21.686Z</time></trkpt><trkpt lat="43.0846783" lon="2.5766317"><ele>310.83333333333337</ele><time>2026-03-30T12:07:22.685Z</time></trkpt><trkpt lat="43.0847367" lon="2.57657"><ele>311.0</ele><time>2026-03-30T12:07:23.686Z</time></trkpt><trkpt lat="43.0847967" lon="2.5765133"><ele>311.0</ele><time>2026-03-30T12:07:24.684Z</time></trkpt><trkpt lat="43.0848517" lon="2.57645"><ele>311.0</ele><time>2026-03-30T12:07:25.685Z</time></trkpt><trkpt lat="43.0848983" lon="2.5763833"><ele>311.0</ele><time>2026-03-30T12:07:26.687Z</time></trkpt><trkpt lat="43.084935" lon="2.57631"><ele>311.0</ele><time>2026-03-30T12:07:27.686Z</time></trkpt><trkpt lat="43.0849517" lon="2.5761383"><ele>311.0</ele><time>2026-03-30T12:07:29.686Z</time></trkpt><trkpt lat="43.0849283" lon="2.5760417"><ele>311.0</ele><time>2026-03-30T12:07:30.686Z</time></trkpt><trkpt lat="43.0848867" lon="2.5759483"><ele>310.6666666666667</ele><time>2026-03-30T12:07:31.687Z</time></trkpt><trkpt lat="43.08484" lon="2.5758617"><ele>310.33333333333337</ele><time>2026-03-30T12:07:32.686Z</time></trkpt><trkpt lat="43.0847983" lon="2.5757817"><ele>310.0</ele><time>2026-03-30T12:07:33.688Z</time></trkpt><trkpt lat="43.0847567" lon="2.5756567"><ele>309.6666666666667</ele><time>2026-03-30T12:07:35.687Z</time></trkpt><trkpt lat="43.0848317" lon="2.57559"><ele>309.3333333333333</ele><time>2026-03-30T12:07:38.687Z</time></trkpt><trkpt lat="43.0848883" lon="2.57565"><ele>309.0</ele><time>2026-03-30T12:07:39.686Z</time></trkpt><trkpt lat="43.0849483" lon="2.5757517"><ele>309.0</ele><time>2026-03-30T12:07:40.688Z</time></trkpt><trkpt lat="43.0850283" lon="2.57581"><ele>309.0</ele><time>2026-03-30T12:07:41.686Z</time></trkpt><trkpt lat="43.0851167" lon="2.5758633"><ele>309.0</ele><time>2026-03-30T12:07:42.685Z</time></trkpt><trkpt lat="43.0852" lon="2.5759167"><ele>309.0</ele><time>2026-03-30T12:07:43.686Z</time></trkpt><trkpt lat="43.0852933" lon="2.5759633"><ele>309.0</ele><time>2026-03-30T12:07:44.686Z</time></trkpt><trkpt lat="43.085405" lon="2.5759967"><ele>309.0</ele><time>2026-03-30T12:07:45.686Z</time></trkpt><trkpt lat="43.0855217" lon="2.57602"><ele>309.0</ele><time>2026-03-30T12:07:46.685Z</time></trkpt><trkpt lat="43.08563" lon="2.5760417"><ele>309.0</ele><time>2026-03-30T12:07:47.688Z</time></trkpt><trkpt lat="43.085735" lon="2.5760717"><ele>309.0</ele><time>2026-03-30T12:07:48.685Z</time></trkpt><trkpt lat="43.085845" lon="2.5761"><ele>309.0</ele><time>2026-03-30T12:07:49.687Z</time></trkpt><trkpt lat="43.0859567" lon="2.5761167"><ele>306.4</ele><time>2026-03-30T12:07:50.688Z</time></trkpt><trkpt lat="43.08606" lon="2.5761183"><ele>303.79999999999995</ele><time>2026-03-30T12:07:51.685Z</time></trkpt><trkpt lat="43.08616" lon="2.5761167"><ele>301.20000000000005</ele><time>2026-03-30T12:07:52.686Z</time></trkpt><trkpt lat="43.086255" lon="2.5761117"><ele>298.6</ele><time>2026-03-30T12:07:53.686Z</time></trkpt><trkpt lat="43.0863417" lon="2.5761067"><ele>296.0</ele><time>2026-03-30T12:07:54.686Z</time></trkpt><trkpt lat="43.0864183" lon="2.576105"><ele>296.0</ele><time>2026-03-30T12:07:55.686Z</time></trkpt><trkpt lat="43.0864933" lon="2.5761083"><ele>296.0</ele><time>2026-03-30T12:07:56.686Z</time></trkpt><trkpt lat="43.0865567" lon="2.576115"><ele>296.0</ele><time>2026-03-30T12:07:57.685Z</time></trkpt><trkpt lat="43.0866533" lon="2.576075"><ele>296.0</ele><time>2026-03-30T12:07:59.686Z</time></trkpt><trkpt lat="43.0866117" lon="2.5759683"><ele>296.0</ele><time>2026-03-30T12:08:02.687Z</time></trkpt><trkpt lat="43.0865483" lon="2.5759433"><ele>296.0</ele><time>2026-03-30T12:08:03.686Z</time></trkpt><trkpt lat="43.08647" lon="2.5759183"><ele>296.0</ele><time>2026-03-30T12:08:04.685Z</time></trkpt><trkpt lat="43.086375" lon="2.5758683"><ele>296.0</ele><time>2026-03-30T12:08:05.688Z</time></trkpt><trkpt lat="43.086275" lon="2.5758083"><ele>296.0</ele><time>2026-03-30T12:08:06.686Z</time></trkpt><trkpt lat="43.0861733" lon="2.5757433"><ele>296.0</ele><time>2026-03-30T12:08:07.685Z</time></trkpt><trkpt lat="43.0860833" lon="2.5756733"><ele>296.0</ele><time>2026-03-30T12:08:08.686Z</time></trkpt><trkpt lat="43.0859967" lon="2.5756033"><ele>296.0</ele><time>2026-03-30T12:08:09.687Z</time></trkpt><trkpt lat="43.0859133" lon="2.5755283"><ele>296.0</ele><time>2026-03-30T12:08:10.686Z</time></trkpt><trkpt lat="43.085845" lon="2.575455"><ele>296.0</ele><time>2026-03-30T12:08:11.685Z</time></trkpt><trkpt lat="43.0858033" lon="2.5753533"><ele>296.0</ele><time>2026-03-30T12:08:12.685Z</time></trkpt><trkpt lat="43.0858" lon="2.5752367"><ele>296.0</ele><time>2026-03-30T12:08:13.685Z</time></trkpt><trkpt lat="43.0858267" lon="2.5751283"><ele>296.0</ele><time>2026-03-30T12:08:14.685Z</time></trkpt><trkpt lat="43.0858733" lon="2.5750383"><ele>294.6666666666667</ele><time>2026-03-30T12:08:15.685Z</time></trkpt><trkpt lat="43.0859367" lon="2.5749567"><ele>293.33333333333337</ele><time>2026-03-30T12:08:16.687Z</time></trkpt><trkpt lat="43.0860133" lon="2.57489"><ele>292.0</ele><time>2026-03-30T12:08:17.686Z</time></trkpt><trkpt lat="43.08609" lon="2.5748417"><ele>290.6666666666667</ele><time>2026-03-30T12:08:18.687Z</time></trkpt><trkpt lat="43.0861617" lon="2.574785"><ele>289.3333333333333</ele><time>2026-03-30T12:08:19.686Z</time></trkpt><trkpt lat="43.086235" lon="2.5747333"><ele>288.0</ele><time>2026-03-30T12:08:20.686Z</time></trkpt><trkpt lat="43.086305" lon="2.574675"><ele>288.0</ele><time>2026-03-30T12:08:21.686Z</time></trkpt><trkpt lat="43.0863733" lon="2.5746183"><ele>288.0</ele><time>2026-03-30T12:08:22.685Z</time></trkpt><trkpt lat="43.086435" lon="2.5745633"><ele>288.0</ele><time>2026-03-30T12:08:23.685Z</time></trkpt><trkpt lat="43.0865" lon="2.5745367"><ele>288.0</ele><time>2026-03-30T12:08:24.684Z</time></trkpt><trkpt lat="43.08657" lon="2.5745267"><ele>288.0</ele><time>2026-03-30T12:08:25.686Z</time></trkpt><trkpt lat="43.0866467" lon="2.5745467"><ele>288.0</ele><time>2026-03-30T12:08:26.686Z</time></trkpt><trkpt lat="43.0867283" lon="2.5745883"><ele>286.8333333333333</ele><time>2026-03-30T12:08:27.684Z</time></trkpt><trkpt lat="43.08681" lon="2.57463"><ele>285.6666666666667</ele><time>2026-03-30T12:08:28.685Z</time></trkpt><trkpt lat="43.0868917" lon="2.5746567"><ele>284.5</ele><time>2026-03-30T12:08:29.685Z</time></trkpt><trkpt lat="43.0869767" lon="2.5746783"><ele>283.33333333333337</ele><time>2026-03-30T12:08:30.685Z</time></trkpt><trkpt lat="43.08706" lon="2.57469"><ele>282.1666666666667</ele><time>2026-03-30T12:08:31.686Z</time></trkpt><trkpt lat="43.0871283" lon="2.5747017"><ele>281.0</ele><time>2026-03-30T12:08:32.686Z</time></trkpt><trkpt lat="43.0872267" lon="2.57477"><ele>281.0</ele><time>2026-03-30T12:08:34.685Z</time></trkpt><trkpt lat="43.08728" lon="2.574905"><ele>281.0</ele><time>2026-03-30T12:08:36.687Z</time></trkpt><trkpt lat="43.0873017" lon="2.5749983"><ele>281.0</ele><time>2026-03-30T12:08:37.684Z</time></trkpt><trkpt lat="43.08734" lon="2.5751117"><ele>281.0</ele><time>2026-03-30T12:08:38.686Z</time></trkpt><trkpt lat="43.08739" lon="2.5752417"><ele>281.0</ele><time>2026-03-30T12:08:39.689Z</time></trkpt><trkpt lat="43.087445" lon="2.5753983"><ele>277.0</ele><time>2026-03-30T12:08:40.685Z</time></trkpt><trkpt lat="43.087485" lon="2.57555"><ele>273.0</ele><time>2026-03-30T12:08:41.688Z</time></trkpt><trkpt lat="43.08752" lon="2.5757033"><ele>269.0</ele><time>2026-03-30T12:08:42.687Z</time></trkpt><trkpt lat="43.087555" lon="2.57585"><ele>265.0</ele><time>2026-03-30T12:08:43.686Z</time></trkpt><trkpt lat="43.0875867" lon="2.5759883"><ele>265.0</ele><time>2026-03-30T12:08:44.686Z</time></trkpt><trkpt lat="43.0876183" lon="2.576115"><ele>265.0</ele><time>2026-03-30T12:08:45.685Z</time></trkpt><trkpt lat="43.0876517" lon="2.5762333"><ele>265.0</ele><time>2026-03-30T12:08:46.685Z</time></trkpt><trkpt lat="43.08769" lon="2.5763417"><ele>265.0</ele><time>2026-03-30T12:08:47.685Z</time></trkpt><trkpt lat="43.08774" lon="2.576435"><ele>265.0</ele><time>2026-03-30T12:08:48.685Z</time></trkpt><trkpt lat="43.0878017" lon="2.5765133"><ele>265.0</ele><time>2026-03-30T12:08:49.686Z</time></trkpt><trkpt lat="43.087865" lon="2.576575"><ele>266.4285714285714</ele><time>2026-03-30T12:08:50.689Z</time></trkpt><trkpt lat="43.0879333" lon="2.5766283"><ele>267.85714285714283</ele><time>2026-03-30T12:08:51.686Z</time></trkpt><trkpt lat="43.088" lon="2.5766817"><ele>269.2857142857143</ele><time>2026-03-30T12:08:52.688Z</time></trkpt><trkpt lat="43.088065" lon="2.57673"><ele>270.71428571428567</ele><time>2026-03-30T12:08:53.685Z</time></trkpt><trkpt lat="43.08813" lon="2.5767667"><ele>272.1428571428571</ele><time>2026-03-30T12:08:54.686Z</time></trkpt><trkpt lat="43.0882017" lon="2.576785"><ele>273.57142857142856</ele><time>2026-03-30T12:08:55.689Z</time></trkpt><trkpt lat="43.0882767" lon="2.57678"><ele>275.0</ele><time>2026-03-30T12:08:56.687Z</time></trkpt><trkpt lat="43.08835" lon="2.57675"><ele>269.0</ele><time>2026-03-30T12:08:57.686Z</time></trkpt><trkpt lat="43.088425" lon="2.5766917"><ele>263.0</ele><time>2026-03-30T12:08:58.686Z</time></trkpt><trkpt lat="43.0885" lon="2.5766083"><ele>257.0</ele><time>2026-03-30T12:08:59.686Z</time></trkpt><trkpt lat="43.0885733" lon="2.5764867"><ele>251.0</ele><time>2026-03-30T12:09:00.686Z</time></trkpt><trkpt lat="43.0886367" lon="2.5763567"><ele>245.0</ele><time>2026-03-30T12:09:01.685Z</time></trkpt><trkpt lat="43.0886833" lon="2.5762317"><ele>244.2</ele><time>2026-03-30T12:09:02.686Z</time></trkpt><trkpt lat="43.08872" lon="2.5761117"><ele>243.4</ele><time>2026-03-30T12:09:03.685Z</time></trkpt><trkpt lat="43.088765" lon="2.5759883"><ele>242.60000000000002</ele><time>2026-03-30T12:09:04.686Z</time></trkpt><trkpt lat="43.0888217" lon="2.575865"><ele>241.8</ele><time>2026-03-30T12:09:05.686Z</time></trkpt><trkpt lat="43.0888833" lon="2.5757467"><ele>241.0</ele><time>2026-03-30T12:09:06.686Z</time></trkpt><trkpt lat="43.0889467" lon="2.5756467"><ele>240.99999999999997</ele><time>2026-03-30T12:09:07.686Z</time></trkpt><trkpt lat="43.0890133" lon="2.5755617"><ele>241.0</ele><time>2026-03-30T12:09:08.686Z</time></trkpt><trkpt lat="43.0890817" lon="2.5754833"><ele>241.0</ele><time>2026-03-30T12:09:09.686Z</time></trkpt><trkpt lat="43.089145" lon="2.5754"><ele>241.0</ele><time>2026-03-30T12:09:10.685Z</time></trkpt><trkpt lat="43.0892067" lon="2.57531"><ele>240.99999999999997</ele><time>2026-03-30T12:09:11.685Z</time></trkpt><trkpt lat="43.0892583" lon="2.5752217"><ele>241.0</ele><time>2026-03-30T12:09:12.687Z</time></trkpt><trkpt lat="43.0892933" lon="2.5751433"><ele>242.20000000000002</ele><time>2026-03-30T12:09:13.686Z</time></trkpt><trkpt lat="43.0893617" lon="2.5750083"><ele>243.40000000000003</ele><time>2026-03-30T12:09:15.686Z</time></trkpt><trkpt lat="43.089425" lon="2.5748783"><ele>244.6</ele><time>2026-03-30T12:09:17.686Z</time></trkpt><trkpt lat="43.0894533" lon="2.5747317"><ele>245.8</ele><time>2026-03-30T12:09:19.685Z</time></trkpt><trkpt lat="43.0894567" lon="2.574615"><ele>247.0</ele><time>2026-03-30T12:09:21.685Z</time></trkpt><trkpt lat="43.0894983" lon="2.5745133"><ele>246.99999999999997</ele><time>2026-03-30T12:12:42.688Z</time></trkpt><trkpt lat="43.0895867" lon="2.5744917"><ele>247.0</ele><time>2026-03-30T12:12:45.686Z</time></trkpt><trkpt lat="43.0896767" lon="2.5744983"><ele>247.0</ele><time>2026-03-30T12:12:48.685Z</time></trkpt><trkpt lat="43.0897233" lon="2.5745833"><ele>247.0</ele><time>2026-03-30T12:12:51.685Z</time></trkpt><trkpt lat="43.0897433" lon="2.57468"><ele>246.99999999999997</ele><time>2026-03-30T12:12:53.685Z</time></trkpt><trkpt lat="43.08977" lon="2.5747617"><ele>247.0</ele><time>2026-03-30T12:12:55.686Z</time></trkpt><trkpt lat="43.08982" lon="2.5748167"><ele>246.99999999999997</ele><time>2026-03-30T12:12:57.685Z</time></trkpt><trkpt lat="43.0898933" lon="2.5747933"><ele>247.0</ele><time>2026-03-30T12:13:00.685Z</time></trkpt><trkpt lat="43.0899417" lon="2.5746967"><ele>247.0</ele><time>2026-03-30T12:13:02.687Z</time></trkpt><trkpt lat="43.0899883" lon="2.57461"><ele>247.0</ele><time>2026-03-30T12:13:04.685Z</time></trkpt><trkpt lat="43.0900467" lon="2.5745483"><ele>246.99999999999997</ele><time>2026-03-30T12:13:06.686Z</time></trkpt><trkpt lat="43.0901283" lon="2.5745633"><ele>247.0</ele><time>2026-03-30T12:13:08.686Z</time></trkpt><trkpt lat="43.09021" lon="2.5746583"><ele>247.2</ele><time>2026-03-30T12:13:10.685Z</time></trkpt><trkpt lat="43.0902967" lon="2.5747567"><ele>247.39999999999998</ele><time>2026-03-30T12:13:12.685Z</time></trkpt><trkpt lat="43.090375" lon="2.574855"><ele>247.60000000000002</ele><time>2026-03-30T12:13:14.686Z</time></trkpt><trkpt lat="43.0904583" lon="2.57488"><ele>247.8</ele><time>2026-03-30T12:13:17.686Z</time></trkpt><trkpt lat="43.0905167" lon="2.5748067"><ele>248.0</ele><time>2026-03-30T12:13:19.685Z</time></trkpt><trkpt lat="43.0905733" lon="2.5746833"><ele>248.0</ele><time>2026-03-30T12:13:21.687Z</time></trkpt><trkpt lat="43.090645" lon="2.5746167"><ele>248.0</ele><time>2026-03-30T12:13:23.687Z</time></trkpt><trkpt lat="43.0907383" lon="2.5746167"><ele>248.0</ele><time>2026-03-30T12:13:25.686Z</time></trkpt><trkpt lat="43.0908183" lon="2.5746783"><ele>248.0</ele><time>2026-03-30T12:13:27.686Z</time></trkpt><trkpt lat="43.0909033" lon="2.574745"><ele>248.0</ele><time>2026-03-30T12:13:29.685Z</time></trkpt><trkpt lat="43.0909583" lon="2.57484"><ele>244.83333333333334</ele><time>2026-03-30T12:13:31.686Z</time></trkpt><trkpt lat="43.0909683" lon="2.574955"><ele>241.66666666666669</ele><time>2026-03-30T12:13:33.685Z</time></trkpt><trkpt lat="43.0909267" lon="2.575095"><ele>238.5</ele><time>2026-03-30T12:13:35.684Z</time></trkpt><trkpt lat="43.0908783" lon="2.57521"><ele>235.33333333333331</ele><time>2026-03-30T12:13:37.686Z</time></trkpt><trkpt lat="43.0909517" lon="2.5752483"><ele>232.16666666666666</ele><time>2026-03-30T12:13:41.685Z</time></trkpt><trkpt lat="43.0910067" lon="2.575175"><ele>229.0</ele><time>2026-03-30T12:13:43.685Z</time></trkpt><trkpt lat="43.0910917" lon="2.5751067"><ele>229.0</ele><time>2026-03-30T12:13:45.684Z</time></trkpt><trkpt lat="43.0912033" lon="2.5750533"><ele>228.99999999999997</ele><time>2026-03-30T12:13:47.685Z</time></trkpt><trkpt lat="43.0913183" lon="2.5750233"><ele>228.99999999999997</ele><time>2026-03-30T12:13:49.685Z</time></trkpt><trkpt lat="43.0914117" lon="2.5750033"><ele>229.0</ele><time>2026-03-30T12:13:51.686Z</time></trkpt><trkpt lat="43.0914883" lon="2.575005"><ele>229.0</ele><time>2026-03-30T12:13:54.685Z</time></trkpt><trkpt lat="43.0915883" lon="2.575035"><ele>226.99999999999997</ele><time>2026-03-30T12:16:27.687Z</time></trkpt><trkpt lat="43.0916683" lon="2.5750683"><ele>225.0</ele><time>2026-03-30T12:16:31.686Z</time></trkpt><trkpt lat="43.0917233" lon="2.5751217"><ele>223.0</ele><time>2026-03-30T12:16:34.686Z</time></trkpt><trkpt lat="43.0917083" lon="2.5752317"><ele>221.0</ele><time>2026-03-30T12:16:37.686Z</time></trkpt><trkpt lat="43.0916733" lon="2.57533"><ele>218.99999999999997</ele><time>2026-03-30T12:16:40.686Z</time></trkpt><trkpt lat="43.0916367" lon="2.5754117"><ele>217.0</ele><time>2026-03-30T12:16:48.689Z</time></trkpt><trkpt lat="43.091565" lon="2.5754983"><ele>216.83333333333331</ele><time>2026-03-30T12:21:41.686Z</time></trkpt><trkpt lat="43.0914983" lon="2.5755817"><ele>216.66666666666666</ele><time>2026-03-30T12:21:44.684Z</time></trkpt><trkpt lat="43.091435" lon="2.5756433"><ele>216.5</ele><time>2026-03-30T12:21:46.684Z</time></trkpt><trkpt lat="43.09137" lon="2.5757233"><ele>216.33333333333331</ele><time>2026-03-30T12:21:48.689Z</time></trkpt><trkpt lat="43.0913067" lon="2.5757967"><ele>216.16666666666666</ele><time>2026-03-30T12:21:50.686Z</time></trkpt><trkpt lat="43.0912483" lon="2.5758533"><ele>216.0</ele><time>2026-03-30T12:21:52.685Z</time></trkpt><trkpt lat="43.0911867" lon="2.5758933"><ele>216.0</ele><time>2026-03-30T12:21:54.684Z</time></trkpt><trkpt lat="43.0911267" lon="2.575985"><ele>216.0</ele><time>2026-03-30T12:21:56.686Z</time></trkpt><trkpt lat="43.0910767" lon="2.5760517"><ele>216.0</ele><time>2026-03-30T12:21:58.685Z</time></trkpt><trkpt lat="43.0910167" lon="2.5761517"><ele>216.0</ele><time>2026-03-30T12:22:01.684Z</time></trkpt><trkpt lat="43.0909733" lon="2.576225"><ele>216.0</ele><time>2026-03-30T12:22:03.686Z</time></trkpt><trkpt lat="43.0909333" lon="2.5762933"><ele>216.0</ele><time>2026-03-30T12:22:05.686Z</time></trkpt><trkpt lat="43.0908733" lon="2.5763883"><ele>212.16666666666666</ele><time>2026-03-30T12:22:08.685Z</time></trkpt><trkpt lat="43.0908867" lon="2.5764783"><ele>208.33333333333331</ele><time>2026-03-30T12:22:11.684Z</time></trkpt><trkpt lat="43.090975" lon="2.5765017"><ele>204.5</ele><time>2026-03-30T12:22:15.686Z</time></trkpt><trkpt lat="43.0910683" lon="2.5764583"><ele>200.66666666666666</ele><time>2026-03-30T12:22:18.687Z</time></trkpt><trkpt lat="43.091165" lon="2.576385"><ele>196.83333333333331</ele><time>2026-03-30T12:22:20.687Z</time></trkpt><trkpt lat="43.0912233" lon="2.5763417"><ele>193.0</ele><time>2026-03-30T12:22:22.684Z</time></trkpt><trkpt lat="43.0913017" lon="2.576345"><ele>192.99999999999997</ele><time>2026-03-30T12:22:24.686Z</time></trkpt><trkpt lat="43.0913633" lon="2.5763233"><ele>193.0</ele><time>2026-03-30T12:22:25.685Z</time></trkpt><trkpt lat="43.0914583" lon="2.5762867"><ele>193.0</ele><time>2026-03-30T12:22:27.685Z</time></trkpt><trkpt lat="43.0915783" lon="2.576305"><ele>193.0</ele><time>2026-03-30T12:22:29.687Z</time></trkpt><trkpt lat="43.091655" lon="2.5763267"><ele>192.99999999999997</ele><time>2026-03-30T12:22:30.686Z</time></trkpt><trkpt lat="43.091725" lon="2.576325"><ele>193.0</ele><time>2026-03-30T12:22:31.684Z</time></trkpt><trkpt lat="43.0918" lon="2.5763183"><ele>190.49999999999997</ele><time>2026-03-30T12:22:32.686Z</time></trkpt><trkpt lat="43.0918683" lon="2.5762983"><ele>188.0</ele><time>2026-03-30T12:22:33.685Z</time></trkpt><trkpt lat="43.09194" lon="2.5762783"><ele>185.5</ele><time>2026-03-30T12:22:34.686Z</time></trkpt><trkpt lat="43.0920517" lon="2.5762567"><ele>183.0</ele><time>2026-03-30T12:22:36.686Z</time></trkpt><trkpt lat="43.092155" lon="2.57626"><ele>180.5</ele><time>2026-03-30T12:22:38.688Z</time></trkpt><trkpt lat="43.0921467" lon="2.576365"><ele>178.0</ele><time>2026-03-30T12:22:41.685Z</time></trkpt><trkpt lat="43.092105" lon="2.576435"><ele>178.0</ele><time>2026-03-30T12:22:43.686Z</time></trkpt><trkpt lat="43.0920733" lon="2.5765117"><ele>178.0</ele><time>2026-03-30T12:22:45.685Z</time></trkpt><trkpt lat="43.0920183" lon="2.57658"><ele>178.0</ele><time>2026-03-30T12:22:48.686Z</time></trkpt><trkpt lat="43.0919817" lon="2.5766933"><ele>178.0</ele><time>2026-03-30T12:22:51.687Z</time></trkpt><trkpt lat="43.0919083" lon="2.5767533"><ele>178.0</ele><time>2026-03-30T12:22:54.685Z</time></trkpt><trkpt lat="43.091855" lon="2.57681"><ele>178.0</ele><time>2026-03-30T12:22:56.686Z</time></trkpt><trkpt lat="43.0917883" lon="2.5768817"><ele>178.0</ele><time>2026-03-30T12:22:58.688Z</time></trkpt><trkpt lat="43.0917233" lon="2.5769583"><ele>178.0</ele><time>2026-03-30T12:23:00.685Z</time></trkpt><trkpt lat="43.0916533" lon="2.57704"><ele>178.0</ele><time>2026-03-30T12:23:02.687Z</time></trkpt><trkpt lat="43.09159" lon="2.5771"><ele>178.0</ele><time>2026-03-30T12:23:04.685Z</time></trkpt><trkpt lat="43.0915333" lon="2.5771633"><ele>178.0</ele><time>2026-03-30T12:23:06.685Z</time></trkpt><trkpt lat="43.0914733" lon="2.5772433"><ele>178.0</ele><time>2026-03-30T12:23:08.685Z</time></trkpt><trkpt lat="43.09143" lon="2.5773167"><ele>176.57142857142856</ele><time>2026-03-30T12:23:10.685Z</time></trkpt><trkpt lat="43.0913817" lon="2.5773783"><ele>175.14285714285714</ele><time>2026-03-30T12:23:12.684Z</time></trkpt><trkpt lat="43.0913217" lon="2.5774283"><ele>173.71428571428572</ele><time>2026-03-30T12:23:14.684Z</time></trkpt><trkpt lat="43.0912583" lon="2.5774667"><ele>172.28571428571428</ele><time>2026-03-30T12:23:16.685Z</time></trkpt><trkpt lat="43.0912467" lon="2.577555"><ele>170.85714285714286</ele><time>2026-03-30T12:23:19.686Z</time></trkpt><trkpt lat="43.0913283" lon="2.5775867"><ele>169.42857142857142</ele><time>2026-03-30T12:23:22.685Z</time></trkpt><trkpt lat="43.0914017" lon="2.577575"><ele>168.0</ele><time>2026-03-30T12:23:24.685Z</time></trkpt><trkpt lat="43.0914933" lon="2.5775283"><ele>168.0</ele><time>2026-03-30T12:23:26.686Z</time></trkpt><trkpt lat="43.0915767" lon="2.5774767"><ele>168.0</ele><time>2026-03-30T12:23:28.686Z</time></trkpt><trkpt lat="43.091635" lon="2.5775167"><ele>168.0</ele><time>2026-03-30T12:23:31.685Z</time></trkpt><trkpt lat="43.0915817" lon="2.5776133"><ele>168.0</ele><time>2026-03-30T12:23:34.685Z</time></trkpt><trkpt lat="43.0915133" lon="2.57764"><ele>168.0</ele><time>2026-03-30T12:23:35.686Z</time></trkpt><trkpt lat="43.0914283" lon="2.5776733"><ele>168.0</ele><time>2026-03-30T12:23:36.686Z</time></trkpt><trkpt lat="43.0913467" lon="2.5777083"><ele>168.0</ele><time>2026-03-30T12:23:37.688Z</time></trkpt><trkpt lat="43.0912583" lon="2.577745"><ele>168.0</ele><time>2026-03-30T12:23:38.686Z</time></trkpt><trkpt lat="43.0911517" lon="2.5777833"><ele>168.0</ele><time>2026-03-30T12:23:39.685Z</time></trkpt><trkpt lat="43.09103" lon="2.5778017"><ele>168.0</ele><time>2026-03-30T12:23:40.686Z</time></trkpt><trkpt lat="43.0909117" lon="2.5778183"><ele>168.0</ele><time>2026-03-30T12:23:41.685Z</time></trkpt><trkpt lat="43.0908" lon="2.5778333"><ele>165.4</ele><time>2026-03-30T12:23:42.685Z</time></trkpt><trkpt lat="43.0906917" lon="2.5778517"><ele>162.8</ele><time>2026-03-30T12:23:43.686Z</time></trkpt><trkpt lat="43.090585" lon="2.577875"><ele>160.2</ele><time>2026-03-30T12:23:44.686Z</time></trkpt><trkpt lat="43.0904883" lon="2.5779167"><ele>157.6</ele><time>2026-03-30T12:23:45.687Z</time></trkpt><trkpt lat="43.0904033" lon="2.577995"><ele>155.0</ele><time>2026-03-30T12:23:46.686Z</time></trkpt><trkpt lat="43.0903317" lon="2.57809"><ele>155.0</ele><time>2026-03-30T12:23:47.686Z</time></trkpt><trkpt lat="43.0902967" lon="2.5782183"><ele>155.0</ele><time>2026-03-30T12:23:48.685Z</time></trkpt><trkpt lat="43.0902933" lon="2.5783883"><ele>155.0</ele><time>2026-03-30T12:23:49.685Z</time></trkpt><trkpt lat="43.0903167" lon="2.5785783"><ele>155.0</ele><time>2026-03-30T12:23:50.686Z</time></trkpt><trkpt lat="43.0903367" lon="2.5787583"><ele>153.5</ele><time>2026-03-30T12:23:51.686Z</time></trkpt><trkpt lat="43.090345" lon="2.578935"><ele>152.0</ele><time>2026-03-30T12:23:52.686Z</time></trkpt><trkpt lat="43.0903233" lon="2.5791067"><ele>150.5</ele><time>2026-03-30T12:23:53.686Z</time></trkpt><trkpt lat="43.0902683" lon="2.579265"><ele>149.0</ele><time>2026-03-30T12:23:54.686Z</time></trkpt><trkpt lat="43.090205" lon="2.5794317"><ele>149.75</ele><time>2026-03-30T12:23:55.687Z</time></trkpt><trkpt lat="43.090155" lon="2.5796133"><ele>150.5</ele><time>2026-03-30T12:23:56.686Z</time></trkpt><trkpt lat="43.0901133" lon="2.579805"><ele>151.25</ele><time>2026-03-30T12:23:57.687Z</time></trkpt><trkpt lat="43.090075" lon="2.58"><ele>152.0</ele><time>2026-03-30T12:23:58.685Z</time></trkpt><trkpt lat="43.0900417" lon="2.5801933"><ele>152.0</ele><time>2026-03-30T12:23:59.687Z</time></trkpt><trkpt lat="43.0900083" lon="2.5803933"><ele>152.0</ele><time>2026-03-30T12:24:00.685Z</time></trkpt><trkpt lat="43.0899933" lon="2.5805983"><ele>152.0</ele><time>2026-03-30T12:24:01.686Z</time></trkpt><trkpt lat="43.090005" lon="2.580805"><ele>152.0</ele><time>2026-03-30T12:24:02.687Z</time></trkpt><trkpt lat="43.090035" lon="2.5810133"><ele>152.0</ele><time>2026-03-30T12:24:03.685Z</time></trkpt><trkpt lat="43.0900633" lon="2.5812233"><ele>152.0</ele><time>2026-03-30T12:24:04.685Z</time></trkpt><trkpt lat="43.0900717" lon="2.5814383"><ele>151.66666666666666</ele><time>2026-03-30T12:24:05.685Z</time></trkpt><trkpt lat="43.0900683" lon="2.5816583"><ele>151.33333333333334</ele><time>2026-03-30T12:24:06.686Z</time></trkpt><trkpt lat="43.090055" lon="2.5818683"><ele>151.0</ele><time>2026-03-30T12:24:07.685Z</time></trkpt><trkpt lat="43.090025" lon="2.5820683"><ele>151.33333333333334</ele><time>2026-03-30T12:24:08.685Z</time></trkpt><trkpt lat="43.0899567" lon="2.58228"><ele>151.66666666666666</ele><time>2026-03-30T12:24:09.686Z</time></trkpt><trkpt lat="43.089905" lon="2.5824967"><ele>152.0</ele><time>2026-03-30T12:24:10.687Z</time></trkpt><trkpt lat="43.08988" lon="2.5827233"><ele>150.0</ele><time>2026-03-30T12:24:11.685Z</time></trkpt><trkpt lat="43.089865" lon="2.5829533"><ele>148.0</ele><time>2026-03-30T12:24:12.685Z</time></trkpt><trkpt lat="43.0898533" lon="2.5831767"><ele>146.0</ele><time>2026-03-30T12:24:13.685Z</time></trkpt><trkpt lat="43.0898417" lon="2.5833867"><ele>146.0</ele><time>2026-03-30T12:24:14.686Z</time></trkpt><trkpt lat="43.0898217" lon="2.58359"><ele>146.0</ele><time>2026-03-30T12:24:15.686Z</time></trkpt><trkpt lat="43.0897883" lon="2.5837817"><ele>146.0</ele><time>2026-03-30T12:24:16.688Z</time></trkpt><trkpt lat="43.0897483" lon="2.583965"><ele>146.0</ele><time>2026-03-30T12:24:17.685Z</time></trkpt><trkpt lat="43.0897117" lon="2.5841433"><ele>145.75</ele><time>2026-03-30T12:24:18.685Z</time></trkpt><trkpt lat="43.0896983" lon="2.58433"><ele>145.5</ele><time>2026-03-30T12:24:19.686Z</time></trkpt><trkpt lat="43.0897133" lon="2.5845183"><ele>145.25</ele><time>2026-03-30T12:24:20.686Z</time></trkpt><trkpt lat="43.08975" lon="2.5847017"><ele>145.0</ele><time>2026-03-30T12:24:21.686Z</time></trkpt><trkpt lat="43.089805" lon="2.5848717"><ele>145.0</ele><time>2026-03-30T12:24:22.686Z</time></trkpt><trkpt lat="43.0898767" lon="2.5850167"><ele>145.0</ele><time>2026-03-30T12:24:23.687Z</time></trkpt><trkpt lat="43.0899783" lon="2.5851167"><ele>145.0</ele><time>2026-03-30T12:24:24.687Z</time></trkpt><trkpt lat="43.0900967" lon="2.5851667"><ele>145.0</ele><time>2026-03-30T12:24:25.685Z</time></trkpt><trkpt lat="43.0902083" lon="2.5851533"><ele>145.0</ele><time>2026-03-30T12:24:26.687Z</time></trkpt><trkpt lat="43.0903183" lon="2.585065"><ele>145.0</ele><time>2026-03-30T12:24:27.685Z</time></trkpt><trkpt lat="43.0904117" lon="2.5849217"><ele>145.0</ele><time>2026-03-30T12:24:28.686Z</time></trkpt><trkpt lat="43.0904833" lon="2.584755"><ele>145.0</ele><time>2026-03-30T12:24:29.684Z</time></trkpt><trkpt lat="43.090545" lon="2.584575"><ele>145.5</ele><time>2026-03-30T12:24:30.685Z</time></trkpt><trkpt lat="43.0906083" lon="2.584395"><ele>146.0</ele><time>2026-03-30T12:24:31.685Z</time></trkpt><trkpt lat="43.090685" lon="2.5842233"><ele>146.5</ele><time>2026-03-30T12:24:32.688Z</time></trkpt><trkpt lat="43.090765" lon="2.58405"><ele>147.0</ele><time>2026-03-30T12:24:33.685Z</time></trkpt><trkpt lat="43.0908433" lon="2.5838583"><ele>149.0</ele><time>2026-03-30T12:24:34.686Z</time></trkpt><trkpt lat="43.090925" lon="2.5836683"><ele>151.0</ele><time>2026-03-30T12:24:35.684Z</time></trkpt><trkpt lat="43.0910267" lon="2.5834933"><ele>153.0</ele><time>2026-03-30T12:24:36.686Z</time></trkpt><trkpt lat="43.09115" lon="2.58334"><ele>153.0</ele><time>2026-03-30T12:24:37.682Z</time></trkpt><trkpt lat="43.0912783" lon="2.583205"><ele>153.0</ele><time>2026-03-30T12:24:38.686Z</time></trkpt><trkpt lat="43.0914083" lon="2.5830817"><ele>153.0</ele><time>2026-03-30T12:24:39.685Z</time></trkpt><trkpt lat="43.0915417" lon="2.58298"><ele>149.66666666666666</ele><time>2026-03-30T12:24:40.687Z</time></trkpt><trkpt lat="43.0916833" lon="2.5829033"><ele>146.33333333333331</ele><time>2026-03-30T12:24:41.686Z</time></trkpt><trkpt lat="43.0918367" lon="2.58286"><ele>143.0</ele><time>2026-03-30T12:24:42.685Z</time></trkpt><trkpt lat="43.091995" lon="2.5828617"><ele>143.0</ele><time>2026-03-30T12:24:43.685Z</time></trkpt><trkpt lat="43.0921517" lon="2.5829033"><ele>143.0</ele><time>2026-03-30T12:24:44.686Z</time></trkpt><trkpt lat="43.0923017" lon="2.5829783"><ele>143.0</ele><time>2026-03-30T12:24:45.685Z</time></trkpt><trkpt lat="43.092445" lon="2.58308"><ele>144.33333333333331</ele><time>2026-03-30T12:24:46.686Z</time></trkpt><trkpt lat="43.0925867" lon="2.5831917"><ele>145.66666666666666</ele><time>2026-03-30T12:24:47.685Z</time></trkpt><trkpt lat="43.0927233" lon="2.5833117"><ele>147.0</ele><time>2026-03-30T12:24:48.686Z</time></trkpt><trkpt lat="43.0928467" lon="2.5834467"><ele>147.0</ele><time>2026-03-30T12:24:49.685Z</time></trkpt><trkpt lat="43.09296" lon="2.5835983"><ele>147.0</ele><time>2026-03-30T12:24:50.685Z</time></trkpt><trkpt lat="43.0930617" lon="2.5837517"><ele>147.0</ele><time>2026-03-30T12:24:51.685Z</time></trkpt><trkpt lat="43.093155" lon="2.5839117"><ele>147.75</ele><time>2026-03-30T12:24:52.685Z</time></trkpt><trkpt lat="43.0932367" lon="2.5840783"><ele>148.5</ele><time>2026-03-30T12:24:53.686Z</time></trkpt><trkpt lat="43.093275" lon="2.5842633"><ele>149.25</ele><time>2026-03-30T12:24:54.687Z</time></trkpt><trkpt lat="43.0932783" lon="2.58446"><ele>150.0</ele><time>2026-03-30T12:24:55.686Z</time></trkpt><trkpt lat="43.0932317" lon="2.58466"><ele>150.0</ele><time>2026-03-30T12:24:56.686Z</time></trkpt><trkpt lat="43.0931783" lon="2.58486"><ele>150.0</ele><time>2026-03-30T12:24:57.684Z</time></trkpt><trkpt lat="43.093125" lon="2.5850817"><ele>150.0</ele><time>2026-03-30T12:24:58.684Z</time></trkpt><trkpt lat="43.0930817" lon="2.5852983"><ele>148.66666666666666</ele><time>2026-03-30T12:24:59.686Z</time></trkpt><trkpt lat="43.093035" lon="2.58552"><ele>147.33333333333331</ele><time>2026-03-30T12:25:00.686Z</time></trkpt><trkpt lat="43.0929883" lon="2.5857383"><ele>146.0</ele><time>2026-03-30T12:25:01.686Z</time></trkpt><trkpt lat="43.0929383" lon="2.5859617"><ele>145.0</ele><time>2026-03-30T12:25:02.685Z</time></trkpt><trkpt lat="43.0928933" lon="2.5861817"><ele>144.0</ele><time>2026-03-30T12:25:03.685Z</time></trkpt><trkpt lat="43.0928533" lon="2.5864083"><ele>143.0</ele><time>2026-03-30T12:25:04.687Z</time></trkpt><trkpt lat="43.0928183" lon="2.5866333"><ele>143.0</ele><time>2026-03-30T12:25:05.687Z</time></trkpt><trkpt lat="43.0927883" lon="2.5868617"><ele>143.0</ele><time>2026-03-30T12:25:06.685Z</time></trkpt><trkpt lat="43.092765" lon="2.5870817"><ele>143.0</ele><time>2026-03-30T12:25:07.688Z</time></trkpt><trkpt lat="43.092735" lon="2.58731"><ele>143.33333333333331</ele><time>2026-03-30T12:25:08.686Z</time></trkpt><trkpt lat="43.0927033" lon="2.5875417"><ele>143.66666666666666</ele><time>2026-03-30T12:25:09.686Z</time></trkpt><trkpt lat="43.0926633" lon="2.5877667"><ele>144.0</ele><time>2026-03-30T12:25:10.686Z</time></trkpt><trkpt lat="43.0926183" lon="2.58799"><ele>143.33333333333334</ele><time>2026-03-30T12:25:11.686Z</time></trkpt><trkpt lat="43.0925667" lon="2.5882117"><ele>142.66666666666669</ele><time>2026-03-30T12:25:12.688Z</time></trkpt><trkpt lat="43.0925133" lon="2.5884283"><ele>142.0</ele><time>2026-03-30T12:25:13.686Z</time></trkpt><trkpt lat="43.092455" lon="2.5886433"><ele>143.66666666666669</ele><time>2026-03-30T12:25:14.686Z</time></trkpt><trkpt lat="43.0923967" lon="2.5888633"><ele>145.33333333333334</ele><time>2026-03-30T12:25:15.687Z</time></trkpt><trkpt lat="43.0923417" lon="2.5890767"><ele>147.0</ele><time>2026-03-30T12:25:16.685Z</time></trkpt><trkpt lat="43.0922867" lon="2.5892883"><ele>147.0</ele><time>2026-03-30T12:25:17.685Z</time></trkpt><trkpt lat="43.0922317" lon="2.5895"><ele>147.0</ele><time>2026-03-30T12:25:18.685Z</time></trkpt><trkpt lat="43.0921817" lon="2.5897117"><ele>147.0</ele><time>2026-03-30T12:25:19.686Z</time></trkpt><trkpt lat="43.0921417" lon="2.589935"><ele>145.33333333333334</ele><time>2026-03-30T12:25:20.687Z</time></trkpt><trkpt lat="43.0921217" lon="2.590165"><ele>143.66666666666669</ele><time>2026-03-30T12:25:21.685Z</time></trkpt><trkpt lat="43.0921067" lon="2.5903933"><ele>142.0</ele><time>2026-03-30T12:25:22.686Z</time></trkpt><trkpt lat="43.0921033" lon="2.59063"><ele>142.0</ele><time>2026-03-30T12:25:23.686Z</time></trkpt><trkpt lat="43.092105" lon="2.5908633"><ele>142.0</ele><time>2026-03-30T12:25:24.687Z</time></trkpt><trkpt lat="43.0921017" lon="2.5910917"><ele>142.0</ele><time>2026-03-30T12:25:25.686Z</time></trkpt><trkpt lat="43.0921" lon="2.5913233"><ele>143.0</ele><time>2026-03-30T12:25:26.687Z</time></trkpt><trkpt lat="43.0920967" lon="2.5915517"><ele>144.0</ele><time>2026-03-30T12:25:27.686Z</time></trkpt><trkpt lat="43.0920883" lon="2.59178"><ele>145.0</ele><time>2026-03-30T12:25:28.686Z</time></trkpt><trkpt lat="43.0920833" lon="2.5920033"><ele>142.66666666666669</ele><time>2026-03-30T12:25:29.685Z</time></trkpt><trkpt lat="43.09209" lon="2.5922267"><ele>140.33333333333334</ele><time>2026-03-30T12:25:30.685Z</time></trkpt><trkpt lat="43.0920967" lon="2.5924517"><ele>138.0</ele><time>2026-03-30T12:25:31.685Z</time></trkpt><trkpt lat="43.092105" lon="2.59267"><ele>137.75</ele><time>2026-03-30T12:25:32.686Z</time></trkpt><trkpt lat="43.0921017" lon="2.5928767"><ele>137.5</ele><time>2026-03-30T12:25:33.687Z</time></trkpt><trkpt lat="43.092095" lon="2.593075"><ele>137.25</ele><time>2026-03-30T12:25:34.689Z</time></trkpt><trkpt lat="43.092085" lon="2.5932717"><ele>137.0</ele><time>2026-03-30T12:25:35.686Z</time></trkpt><trkpt lat="43.0920533" lon="2.5934667"><ele>137.0</ele><time>2026-03-30T12:25:36.686Z</time></trkpt><trkpt lat="43.09201" lon="2.5936583"><ele>137.0</ele><time>2026-03-30T12:25:37.686Z</time></trkpt><trkpt lat="43.0919483" lon="2.5938467"><ele>137.0</ele><time>2026-03-30T12:25:38.686Z</time></trkpt><trkpt lat="43.0918767" lon="2.5940217"><ele>137.0</ele><time>2026-03-30T12:25:39.688Z</time></trkpt><trkpt lat="43.0918083" lon="2.5941967"><ele>136.25</ele><time>2026-03-30T12:25:40.686Z</time></trkpt><trkpt lat="43.09175" lon="2.5943767"><ele>135.5</ele><time>2026-03-30T12:25:41.685Z</time></trkpt><trkpt lat="43.0917283" lon="2.594565"><ele>134.75</ele><time>2026-03-30T12:25:42.687Z</time></trkpt><trkpt lat="43.091745" lon="2.5947583"><ele>134.0</ele><time>2026-03-30T12:25:43.685Z</time></trkpt><trkpt lat="43.0917833" lon="2.594945"><ele>134.0</ele><time>2026-03-30T12:25:44.686Z</time></trkpt><trkpt lat="43.0918367" lon="2.5951133"><ele>134.0</ele><time>2026-03-30T12:25:45.685Z</time></trkpt><trkpt lat="43.0919167" lon="2.5952617"><ele>134.0</ele><time>2026-03-30T12:25:46.687Z</time></trkpt><trkpt lat="43.0920283" lon="2.5953683"><ele>134.0</ele><time>2026-03-30T12:25:47.685Z</time></trkpt><trkpt lat="43.0921667" lon="2.5954217"><ele>133.0</ele><time>2026-03-30T12:25:48.685Z</time></trkpt><trkpt lat="43.0923167" lon="2.5954517"><ele>132.0</ele><time>2026-03-30T12:25:49.686Z</time></trkpt><trkpt lat="43.0924683" lon="2.5954767"><ele>131.0</ele><time>2026-03-30T12:25:50.687Z</time></trkpt><trkpt lat="43.0926167" lon="2.59551"><ele>131.0</ele><time>2026-03-30T12:25:51.685Z</time></trkpt><trkpt lat="43.0927567" lon="2.5955717"><ele>131.0</ele><time>2026-03-30T12:25:52.686Z</time></trkpt><trkpt lat="43.0928767" lon="2.5956833"><ele>131.0</ele><time>2026-03-30T12:25:53.685Z</time></trkpt><trkpt lat="43.0929767" lon="2.5958333"><ele>131.0</ele><time>2026-03-30T12:25:54.69Z</time></trkpt><trkpt lat="43.09305" lon="2.5960117"><ele>131.25</ele><time>2026-03-30T12:25:55.686Z</time></trkpt><trkpt lat="43.093095" lon="2.5962017"><ele>131.5</ele><time>2026-03-30T12:25:56.687Z</time></trkpt><trkpt lat="43.0931" lon="2.5963983"><ele>131.75</ele><time>2026-03-30T12:25:57.687Z</time></trkpt><trkpt lat="43.09307" lon="2.5965967"><ele>132.0</ele><time>2026-03-30T12:25:58.687Z</time></trkpt><trkpt lat="43.0930033" lon="2.5967817"><ele>132.0</ele><time>2026-03-30T12:25:59.686Z</time></trkpt><trkpt lat="43.0929133" lon="2.5969483"><ele>132.0</ele><time>2026-03-30T12:26:00.685Z</time></trkpt><trkpt lat="43.092805" lon="2.5971083"><ele>132.0</ele><time>2026-03-30T12:26:01.685Z</time></trkpt><trkpt lat="43.0926867" lon="2.597265"><ele>132.0</ele><time>2026-03-30T12:26:02.686Z</time></trkpt><trkpt lat="43.0925633" lon="2.5974167"><ele>132.0</ele><time>2026-03-30T12:26:03.687Z</time></trkpt><trkpt lat="43.092435" lon="2.59757"><ele>132.0</ele><time>2026-03-30T12:26:04.769Z</time></trkpt><trkpt lat="43.09231" lon="2.5977233"><ele>133.0</ele><time>2026-03-30T12:26:05.686Z</time></trkpt><trkpt lat="43.0921883" lon="2.59788"><ele>134.0</ele><time>2026-03-30T12:26:06.686Z</time></trkpt><trkpt lat="43.0920617" lon="2.5980333"><ele>135.0</ele><time>2026-03-30T12:26:07.686Z</time></trkpt><trkpt lat="43.09193" lon="2.598175"><ele>135.0</ele><time>2026-03-30T12:26:08.687Z</time></trkpt><trkpt lat="43.0917933" lon="2.5983117"><ele>135.0</ele><time>2026-03-30T12:26:09.686Z</time></trkpt><trkpt lat="43.09166" lon="2.598455"><ele>135.0</ele><time>2026-03-30T12:26:10.685Z</time></trkpt><trkpt lat="43.09153" lon="2.5986067"><ele>132.33333333333334</ele><time>2026-03-30T12:26:11.687Z</time></trkpt><trkpt lat="43.0914067" lon="2.5987717"><ele>129.66666666666669</ele><time>2026-03-30T12:26:12.685Z</time></trkpt><trkpt lat="43.0912983" lon="2.5989417"><ele>127.0</ele><time>2026-03-30T12:26:13.685Z</time></trkpt><trkpt lat="43.0911983" lon="2.599125"><ele>127.0</ele><time>2026-03-30T12:26:14.687Z</time></trkpt><trkpt lat="43.09111" lon="2.5993183"><ele>127.0</ele><time>2026-03-30T12:26:15.686Z</time></trkpt><trkpt lat="43.09103" lon="2.5995217"><ele>127.0</ele><time>2026-03-30T12:26:16.685Z</time></trkpt><trkpt lat="43.09097" lon="2.599735"><ele>126.66666666666667</ele><time>2026-03-30T12:26:17.686Z</time></trkpt><trkpt lat="43.0909367" lon="2.599955"><ele>126.33333333333334</ele><time>2026-03-30T12:26:18.685Z</time></trkpt><trkpt lat="43.0909317" lon="2.6001767"><ele>126.0</ele><time>2026-03-30T12:26:19.687Z</time></trkpt><trkpt lat="43.0909633" lon="2.6003967"><ele>126.0</ele><time>2026-03-30T12:26:20.69Z</time></trkpt><trkpt lat="43.0910267" lon="2.600605"><ele>126.0</ele><time>2026-03-30T12:26:21.686Z</time></trkpt><trkpt lat="43.0911283" lon="2.600785"><ele>126.0</ele><time>2026-03-30T12:26:22.686Z</time></trkpt><trkpt lat="43.0912633" lon="2.600925"><ele>126.0</ele><time>2026-03-30T12:26:23.686Z</time></trkpt><trkpt lat="43.0914183" lon="2.6010233"><ele>126.0</ele><time>2026-03-30T12:26:24.686Z</time></trkpt><trkpt lat="43.0915867" lon="2.60109"><ele>126.0</ele><time>2026-03-30T12:26:25.685Z</time></trkpt><trkpt lat="43.0917567" lon="2.6011383"><ele>125.0</ele><time>2026-03-30T12:26:26.687Z</time></trkpt><trkpt lat="43.0919267" lon="2.60118"><ele>124.0</ele><time>2026-03-30T12:26:27.685Z</time></trkpt><trkpt lat="43.092095" lon="2.6012183"><ele>123.0</ele><time>2026-03-30T12:26:28.685Z</time></trkpt><trkpt lat="43.09226" lon="2.6012483"><ele>123.0</ele><time>2026-03-30T12:26:29.686Z</time></trkpt><trkpt lat="43.0924217" lon="2.6012583"><ele>123.0</ele><time>2026-03-30T12:26:30.685Z</time></trkpt><trkpt lat="43.0925733" lon="2.6012283"><ele>123.0</ele><time>2026-03-30T12:26:31.685Z</time></trkpt><trkpt lat="43.0927133" lon="2.6011367"><ele>127.0</ele><time>2026-03-30T12:26:32.686Z</time></trkpt><trkpt lat="43.0928333" lon="2.60099"><ele>131.0</ele><time>2026-03-30T12:26:33.686Z</time></trkpt><trkpt lat="43.09293" lon="2.6008067"><ele>135.0</ele><time>2026-03-30T12:26:34.689Z</time></trkpt><trkpt lat="43.0930033" lon="2.6005983"><ele>135.0</ele><time>2026-03-30T12:26:35.685Z</time></trkpt><trkpt lat="43.093065" lon="2.6003817"><ele>135.0</ele><time>2026-03-30T12:26:36.685Z</time></trkpt><trkpt lat="43.0931233" lon="2.6001617"><ele>135.0</ele><time>2026-03-30T12:26:37.687Z</time></trkpt><trkpt lat="43.0931867" lon="2.5999433"><ele>135.33333333333334</ele><time>2026-03-30T12:26:38.687Z</time></trkpt><trkpt lat="43.0932483" lon="2.59973"><ele>135.66666666666669</ele><time>2026-03-30T12:26:39.685Z</time></trkpt><trkpt lat="43.0933117" lon="2.5995267"><ele>136.0</ele><time>2026-03-30T12:26:40.686Z</time></trkpt><trkpt lat="43.093385" lon="2.5993433"><ele>136.0</ele><time>2026-03-30T12:26:41.686Z</time></trkpt><trkpt lat="43.0934783" lon="2.599195"><ele>136.0</ele><time>2026-03-30T12:26:42.686Z</time></trkpt><trkpt lat="43.0935883" lon="2.599095"><ele>136.0</ele><time>2026-03-30T12:26:43.688Z</time></trkpt><trkpt lat="43.0937117" lon="2.5990633"><ele>136.0</ele><time>2026-03-30T12:26:44.687Z</time></trkpt><trkpt lat="43.0938367" lon="2.5991"><ele>136.0</ele><time>2026-03-30T12:26:45.685Z</time></trkpt><trkpt lat="43.093955" lon="2.599185"><ele>136.0</ele><time>2026-03-30T12:26:46.686Z</time></trkpt><trkpt lat="43.0940733" lon="2.599295"><ele>136.0</ele><time>2026-03-30T12:26:47.685Z</time></trkpt><trkpt lat="43.0941917" lon="2.599405"><ele>136.0</ele><time>2026-03-30T12:26:48.686Z</time></trkpt><trkpt lat="43.09431" lon="2.5995167"><ele>132.5</ele><time>2026-03-30T12:26:49.688Z</time></trkpt><trkpt lat="43.0944183" lon="2.5996467"><ele>129.0</ele><time>2026-03-30T12:26:50.686Z</time></trkpt><trkpt lat="43.0945133" lon="2.599805"><ele>125.5</ele><time>2026-03-30T12:26:51.686Z</time></trkpt><trkpt lat="43.0945717" lon="2.5999917"><ele>122.0</ele><time>2026-03-30T12:26:52.693Z</time></trkpt><trkpt lat="43.0946083" lon="2.600205"><ele>124.66666666666666</ele><time>2026-03-30T12:26:53.685Z</time></trkpt><trkpt lat="43.0946083" lon="2.6004483"><ele>127.33333333333334</ele><time>2026-03-30T12:26:54.686Z</time></trkpt><trkpt lat="43.0946033" lon="2.600675"><ele>130.0</ele><time>2026-03-30T12:26:55.685Z</time></trkpt><trkpt lat="43.0946017" lon="2.6009083"><ele>130.0</ele><time>2026-03-30T12:26:56.685Z</time></trkpt><trkpt lat="43.09461" lon="2.6011483"><ele>130.0</ele><time>2026-03-30T12:26:57.686Z</time></trkpt><trkpt lat="43.0946183" lon="2.601385"><ele>130.0</ele><time>2026-03-30T12:26:58.687Z</time></trkpt><trkpt lat="43.0946167" lon="2.6016183"><ele>133.33333333333334</ele><time>2026-03-30T12:26:59.687Z</time></trkpt><trkpt lat="43.09462" lon="2.60185"><ele>136.66666666666666</ele><time>2026-03-30T12:27:00.686Z</time></trkpt><trkpt lat="43.094625" lon="2.6020783"><ele>140.0</ele><time>2026-03-30T12:27:01.689Z</time></trkpt><trkpt lat="43.0946317" lon="2.602305"><ele>143.0</ele><time>2026-03-30T12:27:02.688Z</time></trkpt><trkpt lat="43.0946367" lon="2.6025283"><ele>146.0</ele><time>2026-03-30T12:27:03.686Z</time></trkpt><trkpt lat="43.09464" lon="2.6027517"><ele>149.0</ele><time>2026-03-30T12:27:04.685Z</time></trkpt><trkpt lat="43.094645" lon="2.6029817"><ele>153.0</ele><time>2026-03-30T12:27:05.685Z</time></trkpt><trkpt lat="43.0946567" lon="2.6032133"><ele>157.0</ele><time>2026-03-30T12:27:06.685Z</time></trkpt><trkpt lat="43.0946783" lon="2.6034433"><ele>161.0</ele><time>2026-03-30T12:27:07.687Z</time></trkpt><trkpt lat="43.0947117" lon="2.6036667"><ele>166.33333333333331</ele><time>2026-03-30T12:27:08.686Z</time></trkpt><trkpt lat="43.0947533" lon="2.6038767"><ele>171.66666666666666</ele><time>2026-03-30T12:27:09.685Z</time></trkpt><trkpt lat="43.094805" lon="2.6040733"><ele>177.0</ele><time>2026-03-30T12:27:10.686Z</time></trkpt><trkpt lat="43.0948633" lon="2.6042583"><ele>165.75</ele><time>2026-03-30T12:27:11.686Z</time></trkpt><trkpt lat="43.0949283" lon="2.6044283"><ele>154.5</ele><time>2026-03-30T12:27:12.687Z</time></trkpt><trkpt lat="43.0949917" lon="2.604585"><ele>143.25</ele><time>2026-03-30T12:27:13.687Z</time></trkpt><trkpt lat="43.0950517" lon="2.60473"><ele>132.0</ele><time>2026-03-30T12:27:14.687Z</time></trkpt><trkpt lat="43.0951067" lon="2.6048667"><ele>132.0</ele><time>2026-03-30T12:27:15.687Z</time></trkpt><trkpt lat="43.0951583" lon="2.6049883"><ele>132.0</ele><time>2026-03-30T12:27:16.686Z</time></trkpt><trkpt lat="43.0952" lon="2.6050933"><ele>132.0</ele><time>2026-03-30T12:27:17.686Z</time></trkpt><trkpt lat="43.0952333" lon="2.605185"><ele>132.0</ele><time>2026-03-30T12:27:18.686Z</time></trkpt><trkpt lat="43.095315" lon="2.6053017"><ele>132.0</ele><time>2026-03-30T12:27:20.685Z</time></trkpt><trkpt lat="43.0954067" lon="2.60525"><ele>132.0</ele><time>2026-03-30T12:27:22.688Z</time></trkpt><trkpt lat="43.095455" lon="2.60519"><ele>132.0</ele><time>2026-03-30T12:27:23.685Z</time></trkpt><trkpt lat="43.0955167" lon="2.6051283"><ele>132.0</ele><time>2026-03-30T12:27:24.688Z</time></trkpt><trkpt lat="43.0955833" lon="2.605065"><ele>132.0</ele><time>2026-03-30T12:27:25.687Z</time></trkpt><trkpt lat="43.0956567" lon="2.604995"><ele>132.0</ele><time>2026-03-30T12:27:26.687Z</time></trkpt><trkpt lat="43.0957367" lon="2.6049233"><ele>132.0</ele><time>2026-03-30T12:27:27.686Z</time></trkpt><trkpt lat="43.0958233" lon="2.6048483"><ele>129.75</ele><time>2026-03-30T12:27:28.685Z</time></trkpt><trkpt lat="43.0959083" lon="2.6047633"><ele>127.5</ele><time>2026-03-30T12:27:29.686Z</time></trkpt><trkpt lat="43.0959983" lon="2.60467"><ele>125.25</ele><time>2026-03-30T12:27:30.686Z</time></trkpt><trkpt lat="43.096095" lon="2.604575"><ele>123.0</ele><time>2026-03-30T12:27:31.686Z</time></trkpt><trkpt lat="43.0961933" lon="2.60448"><ele>123.0</ele><time>2026-03-30T12:27:32.686Z</time></trkpt><trkpt lat="43.0962917" lon="2.6043883"><ele>123.0</ele><time>2026-03-30T12:27:33.689Z</time></trkpt><trkpt lat="43.0963883" lon="2.6043017"><ele>123.0</ele><time>2026-03-30T12:27:34.686Z</time></trkpt><trkpt lat="43.0964833" lon="2.60422"><ele>123.0</ele><time>2026-03-30T12:27:35.687Z</time></trkpt><trkpt lat="43.0965683" lon="2.6041317"><ele>125.2</ele><time>2026-03-30T12:27:36.69Z</time></trkpt><trkpt lat="43.0966333" lon="2.6040233"><ele>127.4</ele><time>2026-03-30T12:27:37.686Z</time></trkpt><trkpt lat="43.0966667" lon="2.6038917"><ele>129.60000000000002</ele><time>2026-03-30T12:27:38.686Z</time></trkpt><trkpt lat="43.0966667" lon="2.6037417"><ele>131.8</ele><time>2026-03-30T12:27:39.686Z</time></trkpt><trkpt lat="43.09665" lon="2.6035867"><ele>134.0</ele><time>2026-03-30T12:27:40.685Z</time></trkpt><trkpt lat="43.096625" lon="2.603425"><ele>134.5</ele><time>2026-03-30T12:27:41.685Z</time></trkpt><trkpt lat="43.0966" lon="2.6032567"><ele>135.0</ele><time>2026-03-30T12:27:42.685Z</time></trkpt><trkpt lat="43.096575" lon="2.6030833"><ele>135.5</ele><time>2026-03-30T12:27:43.685Z</time></trkpt><trkpt lat="43.0965467" lon="2.60291"><ele>136.0</ele><time>2026-03-30T12:27:44.686Z</time></trkpt><trkpt lat="43.0965117" lon="2.602735"><ele>136.0</ele><time>2026-03-30T12:27:45.685Z</time></trkpt><trkpt lat="43.0964767" lon="2.6025567"><ele>136.0</ele><time>2026-03-30T12:27:46.687Z</time></trkpt><trkpt lat="43.0964417" lon="2.6023733"><ele>136.0</ele><time>2026-03-30T12:27:47.689Z</time></trkpt><trkpt lat="43.0964033" lon="2.6021883"><ele>136.0</ele><time>2026-03-30T12:27:48.688Z</time></trkpt><trkpt lat="43.0963667" lon="2.602005"><ele>137.5</ele><time>2026-03-30T12:27:49.686Z</time></trkpt><trkpt lat="43.0963367" lon="2.6018183"><ele>139.0</ele><time>2026-03-30T12:27:50.689Z</time></trkpt><trkpt lat="43.0963233" lon="2.6016267"><ele>140.5</ele><time>2026-03-30T12:27:51.685Z</time></trkpt><trkpt lat="43.0963167" lon="2.6014283"><ele>142.0</ele><time>2026-03-30T12:27:52.688Z</time></trkpt><trkpt lat="43.0963183" lon="2.601225"><ele>143.66666666666669</ele><time>2026-03-30T12:27:53.685Z</time></trkpt><trkpt lat="43.096325" lon="2.6010183"><ele>145.33333333333334</ele><time>2026-03-30T12:27:54.687Z</time></trkpt><trkpt lat="43.0963333" lon="2.6008067"><ele>147.0</ele><time>2026-03-30T12:27:55.687Z</time></trkpt><trkpt lat="43.09634" lon="2.6006"><ele>147.0</ele><time>2026-03-30T12:27:56.687Z</time></trkpt><trkpt lat="43.0963383" lon="2.6004033"><ele>147.0</ele><time>2026-03-30T12:27:57.686Z</time></trkpt><trkpt lat="43.0963183" lon="2.6002133"><ele>147.0</ele><time>2026-03-30T12:27:58.687Z</time></trkpt><trkpt lat="43.096285" lon="2.6000333"><ele>147.0</ele><time>2026-03-30T12:27:59.686Z</time></trkpt><trkpt lat="43.096225" lon="2.5998717"><ele>147.75</ele><time>2026-03-30T12:28:00.687Z</time></trkpt><trkpt lat="43.09614" lon="2.5997367"><ele>148.5</ele><time>2026-03-30T12:28:01.686Z</time></trkpt><trkpt lat="43.0960383" lon="2.599625"><ele>149.25</ele><time>2026-03-30T12:28:02.686Z</time></trkpt><trkpt lat="43.0959417" lon="2.5995367"><ele>150.0</ele><time>2026-03-30T12:28:03.687Z</time></trkpt><trkpt lat="43.09585" lon="2.5994683"><ele>152.0</ele><time>2026-03-30T12:28:04.687Z</time></trkpt><trkpt lat="43.0957783" lon="2.5993983"><ele>154.0</ele><time>2026-03-30T12:28:05.685Z</time></trkpt><trkpt lat="43.0957317" lon="2.5993017"><ele>156.0</ele><time>2026-03-30T12:28:06.686Z</time></trkpt><trkpt lat="43.0957367" lon="2.5991767"><ele>158.0</ele><time>2026-03-30T12:28:07.685Z</time></trkpt><trkpt lat="43.0957633" lon="2.59903"><ele>160.0</ele><time>2026-03-30T12:28:08.689Z</time></trkpt><trkpt lat="43.0957767" lon="2.598865"><ele>160.0</ele><time>2026-03-30T12:28:09.688Z</time></trkpt><trkpt lat="43.0957833" lon="2.5986983"><ele>160.0</ele><time>2026-03-30T12:28:10.687Z</time></trkpt><trkpt lat="43.0957967" lon="2.598535"><ele>160.0</ele><time>2026-03-30T12:28:11.689Z</time></trkpt><trkpt lat="43.0957867" lon="2.5983683"><ele>160.0</ele><time>2026-03-30T12:28:12.686Z</time></trkpt><trkpt lat="43.0957383" lon="2.598215"><ele>157.75</ele><time>2026-03-30T12:28:13.687Z</time></trkpt><trkpt lat="43.0956583" lon="2.5980717"><ele>155.5</ele><time>2026-03-30T12:28:14.686Z</time></trkpt><trkpt lat="43.0955733" lon="2.5979267"><ele>153.25</ele><time>2026-03-30T12:28:15.684Z</time></trkpt><trkpt lat="43.095505" lon="2.5977717"><ele>151.0</ele><time>2026-03-30T12:28:16.685Z</time></trkpt><trkpt lat="43.0954633" lon="2.597605"><ele>157.75</ele><time>2026-03-30T12:28:17.685Z</time></trkpt><trkpt lat="43.0954483" lon="2.59743"><ele>164.5</ele><time>2026-03-30T12:28:18.688Z</time></trkpt><trkpt lat="43.09545" lon="2.597265"><ele>171.25</ele><time>2026-03-30T12:28:19.687Z</time></trkpt><trkpt lat="43.09544" lon="2.5971183"><ele>178.0</ele><time>2026-03-30T12:28:20.687Z</time></trkpt><trkpt lat="43.0954133" lon="2.5969883"><ele>181.0</ele><time>2026-03-30T12:28:21.687Z</time></trkpt><trkpt lat="43.095395" lon="2.596865"><ele>184.0</ele><time>2026-03-30T12:28:22.686Z</time></trkpt><trkpt lat="43.0954083" lon="2.596735"><ele>187.0</ele><time>2026-03-30T12:28:23.687Z</time></trkpt><trkpt lat="43.0954483" lon="2.5965917"><ele>190.0</ele><time>2026-03-30T12:28:24.687Z</time></trkpt><trkpt lat="43.0954967" lon="2.596435"><ele>193.0</ele><time>2026-03-30T12:28:25.686Z</time></trkpt><trkpt lat="43.0955417" lon="2.59627"><ele>195.0</ele><time>2026-03-30T12:28:26.686Z</time></trkpt><trkpt lat="43.095585" lon="2.5961017"><ele>197.0</ele><time>2026-03-30T12:28:27.687Z</time></trkpt><trkpt lat="43.095625" lon="2.595925"><ele>199.0</ele><time>2026-03-30T12:28:28.688Z</time></trkpt><trkpt lat="43.0956633" lon="2.5957417"><ele>201.0</ele><time>2026-03-30T12:28:29.686Z</time></trkpt><trkpt lat="43.0957067" lon="2.5955583"><ele>200.25</ele><time>2026-03-30T12:28:30.686Z</time></trkpt><trkpt lat="43.095755" lon="2.5953733"><ele>199.5</ele><time>2026-03-30T12:28:31.689Z</time></trkpt><trkpt lat="43.0958067" lon="2.5951933"><ele>198.75</ele><time>2026-03-30T12:28:32.687Z</time></trkpt><trkpt lat="43.0958533" lon="2.59502"><ele>198.0</ele><time>2026-03-30T12:28:33.686Z</time></trkpt><trkpt lat="43.0958967" lon="2.59485"><ele>198.0</ele><time>2026-03-30T12:28:34.686Z</time></trkpt><trkpt lat="43.09595" lon="2.5946917"><ele>198.0</ele><time>2026-03-30T12:28:35.686Z</time></trkpt><trkpt lat="43.096025" lon="2.5945417"><ele>198.0</ele><time>2026-03-30T12:28:36.687Z</time></trkpt><trkpt lat="43.096105" lon="2.5943967"><ele>198.0</ele><time>2026-03-30T12:28:37.686Z</time></trkpt><trkpt lat="43.0961917" lon="2.59426"><ele>201.0</ele><time>2026-03-30T12:28:38.685Z</time></trkpt><trkpt lat="43.09628" lon="2.59413"><ele>204.0</ele><time>2026-03-30T12:28:39.685Z</time></trkpt><trkpt lat="43.096375" lon="2.5940117"><ele>207.0</ele><time>2026-03-30T12:28:40.687Z</time></trkpt><trkpt lat="43.0964767" lon="2.5939117"><ele>210.0</ele><time>2026-03-30T12:28:41.685Z</time></trkpt><trkpt lat="43.0965833" lon="2.5938467"><ele>210.5</ele><time>2026-03-30T12:28:42.685Z</time></trkpt><trkpt lat="43.09668" lon="2.5938"><ele>211.0</ele><time>2026-03-30T12:28:43.686Z</time></trkpt><trkpt lat="43.0967517" lon="2.5937417"><ele>211.5</ele><time>2026-03-30T12:28:44.685Z</time></trkpt><trkpt lat="43.0968083" lon="2.5936667"><ele>212.0</ele><time>2026-03-30T12:28:45.685Z</time></trkpt><trkpt lat="43.096835" lon="2.59356"><ele>212.5</ele><time>2026-03-30T12:28:46.685Z</time></trkpt><trkpt lat="43.0968317" lon="2.5934317"><ele>213.0</ele><time>2026-03-30T12:28:47.685Z</time></trkpt><trkpt lat="43.0968267" lon="2.593295"><ele>213.0</ele><time>2026-03-30T12:28:48.688Z</time></trkpt><trkpt lat="43.0968117" lon="2.593135"><ele>213.0</ele><time>2026-03-30T12:28:49.685Z</time></trkpt><trkpt lat="43.0968083" lon="2.5929767"><ele>213.0</ele><time>2026-03-30T12:28:50.688Z</time></trkpt><trkpt lat="43.096805" lon="2.5928233"><ele>213.0</ele><time>2026-03-30T12:28:51.686Z</time></trkpt><trkpt lat="43.0968017" lon="2.592685"><ele>213.0</ele><time>2026-03-30T12:28:52.687Z</time></trkpt><trkpt lat="43.09681" lon="2.5925583"><ele>214.33333333333334</ele><time>2026-03-30T12:28:53.686Z</time></trkpt><trkpt lat="43.0968283" lon="2.5924433"><ele>215.66666666666669</ele><time>2026-03-30T12:28:54.687Z</time></trkpt><trkpt lat="43.0968667" lon="2.5923517"><ele>217.0</ele><time>2026-03-30T12:28:55.687Z</time></trkpt><trkpt lat="43.0969267" lon="2.5922983"><ele>218.33333333333334</ele><time>2026-03-30T12:28:56.688Z</time></trkpt><trkpt lat="43.0970017" lon="2.5922733"><ele>219.66666666666669</ele><time>2026-03-30T12:28:57.686Z</time></trkpt><trkpt lat="43.097105" lon="2.5922633"><ele>221.0</ele><time>2026-03-30T12:28:58.686Z</time></trkpt><trkpt lat="43.09719" lon="2.592195"><ele>221.0</ele><time>2026-03-30T12:28:59.687Z</time></trkpt><trkpt lat="43.0972683" lon="2.592095"><ele>221.0</ele><time>2026-03-30T12:29:00.685Z</time></trkpt><trkpt lat="43.0973517" lon="2.591985"><ele>221.0</ele><time>2026-03-30T12:29:01.686Z</time></trkpt><trkpt lat="43.0974367" lon="2.5918667"><ele>221.0</ele><time>2026-03-30T12:29:02.687Z</time></trkpt><trkpt lat="43.09752" lon="2.5917567"><ele>221.60000000000002</ele><time>2026-03-30T12:29:03.686Z</time></trkpt><trkpt lat="43.0976067" lon="2.5916433"><ele>222.20000000000002</ele><time>2026-03-30T12:29:04.685Z</time></trkpt><trkpt lat="43.0976867" lon="2.591535"><ele>222.79999999999998</ele><time>2026-03-30T12:29:05.686Z</time></trkpt><trkpt lat="43.0977583" lon="2.5914317"><ele>223.39999999999998</ele><time>2026-03-30T12:29:06.692Z</time></trkpt><trkpt lat="43.0978217" lon="2.5913383"><ele>224.0</ele><time>2026-03-30T12:29:07.685Z</time></trkpt><trkpt lat="43.09788" lon="2.5912567"><ele>224.00000000000003</ele><time>2026-03-30T12:29:08.691Z</time></trkpt><trkpt lat="43.0979383" lon="2.5912083"><ele>224.0</ele><time>2026-03-30T12:29:09.686Z</time></trkpt><trkpt lat="43.0980283" lon="2.5912733"><ele>224.0</ele><time>2026-03-30T12:29:11.687Z</time></trkpt><trkpt lat="43.09799" lon="2.5914183"><ele>224.0</ele><time>2026-03-30T12:29:13.685Z</time></trkpt><trkpt lat="43.0979383" lon="2.5914967"><ele>224.00000000000003</ele><time>2026-03-30T12:29:14.688Z</time></trkpt><trkpt lat="43.0979017" lon="2.5915767"><ele>224.0</ele><time>2026-03-30T12:29:15.688Z</time></trkpt><trkpt lat="43.0979817" lon="2.5916083"><ele>224.0</ele><time>2026-03-30T12:29:17.691Z</time></trkpt><trkpt lat="43.0980367" lon="2.5915617"><ele>223.99999999999997</ele><time>2026-03-30T12:29:18.687Z</time></trkpt><trkpt lat="43.098105" lon="2.5914917"><ele>223.99999999999997</ele><time>2026-03-30T12:29:19.685Z</time></trkpt><trkpt lat="43.098195" lon="2.5913967"><ele>224.0</ele><time>2026-03-30T12:29:20.69Z</time></trkpt><trkpt lat="43.0982833" lon="2.591315"><ele>224.0</ele><time>2026-03-30T12:29:21.687Z</time></trkpt><trkpt lat="43.098375" lon="2.5912217"><ele>226.2</ele><time>2026-03-30T12:29:22.687Z</time></trkpt><trkpt lat="43.0984667" lon="2.59113"><ele>228.39999999999998</ele><time>2026-03-30T12:29:23.687Z</time></trkpt><trkpt lat="43.09855" lon="2.5910283"><ele>230.6</ele><time>2026-03-30T12:29:24.688Z</time></trkpt><trkpt lat="43.098635" lon="2.59094"><ele>232.8</ele><time>2026-03-30T12:29:25.687Z</time></trkpt><trkpt lat="43.0987117" lon="2.5908583"><ele>235.0</ele><time>2026-03-30T12:29:26.686Z</time></trkpt><trkpt lat="43.098785" lon="2.5908"><ele>234.99999999999997</ele><time>2026-03-30T12:29:27.687Z</time></trkpt><trkpt lat="43.0988533" lon="2.5907817"><ele>235.0</ele><time>2026-03-30T12:29:28.686Z</time></trkpt><trkpt lat="43.0989067" lon="2.590835"><ele>235.0</ele><time>2026-03-30T12:29:29.688Z</time></trkpt><trkpt lat="43.09893" lon="2.590925"><ele>235.0</ele><time>2026-03-30T12:29:30.689Z</time></trkpt><trkpt lat="43.0989183" lon="2.5910317"><ele>234.99999999999997</ele><time>2026-03-30T12:29:31.688Z</time></trkpt><trkpt lat="43.0988767" lon="2.591155"><ele>235.0</ele><time>2026-03-30T12:29:32.689Z</time></trkpt><trkpt lat="43.0988367" lon="2.5912833"><ele>235.8</ele><time>2026-03-30T12:29:33.686Z</time></trkpt><trkpt lat="43.0987833" lon="2.591415"><ele>236.6</ele><time>2026-03-30T12:29:34.686Z</time></trkpt><trkpt lat="43.09873" lon="2.5915583"><ele>237.39999999999998</ele><time>2026-03-30T12:29:35.687Z</time></trkpt><trkpt lat="43.098675" lon="2.5916867"><ele>238.2</ele><time>2026-03-30T12:29:36.685Z</time></trkpt><trkpt lat="43.0986367" lon="2.5918"><ele>239.0</ele><time>2026-03-30T12:29:37.685Z</time></trkpt><trkpt lat="43.098615" lon="2.591905"><ele>239.00000000000003</ele><time>2026-03-30T12:29:38.687Z</time></trkpt><trkpt lat="43.0986817" lon="2.5919767"><ele>239.0</ele><time>2026-03-30T12:29:40.687Z</time></trkpt><trkpt lat="43.09874" lon="2.5919267"><ele>239.0</ele><time>2026-03-30T12:29:41.687Z</time></trkpt><trkpt lat="43.0987967" lon="2.591845"><ele>239.0</ele><time>2026-03-30T12:29:42.686Z</time></trkpt><trkpt lat="43.09886" lon="2.5917533"><ele>239.00000000000003</ele><time>2026-03-30T12:29:43.685Z</time></trkpt><trkpt lat="43.0989333" lon="2.5916767"><ele>239.0</ele><time>2026-03-30T12:29:44.686Z</time></trkpt><trkpt lat="43.0990217" lon="2.59166"><ele>241.39999999999998</ele><time>2026-03-30T12:29:45.684Z</time></trkpt><trkpt lat="43.09912" lon="2.5916883"><ele>243.79999999999998</ele><time>2026-03-30T12:29:46.686Z</time></trkpt><trkpt lat="43.0992217" lon="2.5917233"><ele>246.20000000000002</ele><time>2026-03-30T12:29:47.686Z</time></trkpt><trkpt lat="43.09932" lon="2.5917583"><ele>248.60000000000002</ele><time>2026-03-30T12:29:48.686Z</time></trkpt><trkpt lat="43.099435" lon="2.591795"><ele>251.0</ele><time>2026-03-30T12:29:49.685Z</time></trkpt><trkpt lat="43.099555" lon="2.59183"><ele>251.0</ele><time>2026-03-30T12:29:50.688Z</time></trkpt><trkpt lat="43.09968" lon="2.5918533"><ele>251.0</ele><time>2026-03-30T12:29:51.686Z</time></trkpt><trkpt lat="43.099805" lon="2.5918567"><ele>251.0</ele><time>2026-03-30T12:29:52.685Z</time></trkpt><trkpt lat="43.09993" lon="2.59183"><ele>251.0</ele><time>2026-03-30T12:29:53.686Z</time></trkpt><trkpt lat="43.100055" lon="2.59179"><ele>252.5</ele><time>2026-03-30T12:29:54.685Z</time></trkpt><trkpt lat="43.10018" lon="2.5917467"><ele>254.0</ele><time>2026-03-30T12:29:55.686Z</time></trkpt><trkpt lat="43.1003017" lon="2.591705"><ele>255.5</ele><time>2026-03-30T12:29:56.685Z</time></trkpt><trkpt lat="43.1004267" lon="2.5916633"><ele>257.0</ele><time>2026-03-30T12:29:57.687Z</time></trkpt><trkpt lat="43.1005567" lon="2.59162"><ele>257.0</ele><time>2026-03-30T12:29:58.686Z</time></trkpt><trkpt lat="43.1006783" lon="2.5915733"><ele>257.0</ele><time>2026-03-30T12:29:59.686Z</time></trkpt><trkpt lat="43.1007917" lon="2.5915333"><ele>257.0</ele><time>2026-03-30T12:30:00.686Z</time></trkpt><trkpt lat="43.1009033" lon="2.59151"><ele>257.0</ele><time>2026-03-30T12:30:01.685Z</time></trkpt><trkpt lat="43.1010217" lon="2.5915033"><ele>258.8</ele><time>2026-03-30T12:30:02.686Z</time></trkpt><trkpt lat="43.1011383" lon="2.5915067"><ele>260.6</ele><time>2026-03-30T12:30:03.685Z</time></trkpt><trkpt lat="43.1012467" lon="2.5915167"><ele>262.40000000000003</ele><time>2026-03-30T12:30:04.686Z</time></trkpt><trkpt lat="43.1013517" lon="2.59153"><ele>264.2</ele><time>2026-03-30T12:30:05.685Z</time></trkpt><trkpt lat="43.1014567" lon="2.591545"><ele>266.0</ele><time>2026-03-30T12:30:06.686Z</time></trkpt><trkpt lat="43.1015583" lon="2.5915567"><ele>267.0</ele><time>2026-03-30T12:30:07.685Z</time></trkpt><trkpt lat="43.10166" lon="2.59156"><ele>268.0</ele><time>2026-03-30T12:30:08.685Z</time></trkpt><trkpt lat="43.1017567" lon="2.5915583"><ele>269.0</ele><time>2026-03-30T12:30:09.686Z</time></trkpt><trkpt lat="43.1018417" lon="2.5915367"><ele>270.0</ele><time>2026-03-30T12:30:10.684Z</time></trkpt><trkpt lat="43.1019117" lon="2.5915017"><ele>271.0</ele><time>2026-03-30T12:30:11.686Z</time></trkpt><trkpt lat="43.1019733" lon="2.5914433"><ele>272.0</ele><time>2026-03-30T12:30:12.684Z</time></trkpt><trkpt lat="43.1020267" lon="2.5913633"><ele>272.0</ele><time>2026-03-30T12:30:13.686Z</time></trkpt><trkpt lat="43.1020617" lon="2.5912383"><ele>272.0</ele><time>2026-03-30T12:30:14.685Z</time></trkpt><trkpt lat="43.1020867" lon="2.591085"><ele>272.0</ele><time>2026-03-30T12:30:15.684Z</time></trkpt><trkpt lat="43.1021067" lon="2.590915"><ele>272.0</ele><time>2026-03-30T12:30:16.685Z</time></trkpt><trkpt lat="43.1021317" lon="2.5907383"><ele>272.5</ele><time>2026-03-30T12:30:17.688Z</time></trkpt><trkpt lat="43.10216" lon="2.5905583"><ele>273.0</ele><time>2026-03-30T12:30:18.686Z</time></trkpt><trkpt lat="43.102185" lon="2.5903717"><ele>273.5</ele><time>2026-03-30T12:30:19.686Z</time></trkpt><trkpt lat="43.1022067" lon="2.5901783"><ele>274.0</ele><time>2026-03-30T12:30:20.686Z</time></trkpt><trkpt lat="43.1022267" lon="2.5899867"><ele>274.5</ele><time>2026-03-30T12:30:21.684Z</time></trkpt><trkpt lat="43.1022483" lon="2.5897883"><ele>275.0</ele><time>2026-03-30T12:30:22.684Z</time></trkpt><trkpt lat="43.1022717" lon="2.5895933"><ele>275.5</ele><time>2026-03-30T12:30:23.684Z</time></trkpt><trkpt lat="43.1022983" lon="2.589395"><ele>276.0</ele><time>2026-03-30T12:30:24.684Z</time></trkpt><trkpt lat="43.1023167" lon="2.5892083"><ele>276.0</ele><time>2026-03-30T12:30:25.685Z</time></trkpt><trkpt lat="43.1023267" lon="2.5890233"><ele>276.0</ele><time>2026-03-30T12:30:26.685Z</time></trkpt><trkpt lat="43.1023283" lon="2.588835"><ele>276.0</ele><time>2026-03-30T12:30:27.685Z</time></trkpt><trkpt lat="43.1023233" lon="2.5886417"><ele>276.0</ele><time>2026-03-30T12:30:28.688Z</time></trkpt><trkpt lat="43.1023217" lon="2.588445"><ele>276.25</ele><time>2026-03-30T12:30:29.685Z</time></trkpt><trkpt lat="43.102315" lon="2.588245"><ele>276.5</ele><time>2026-03-30T12:30:30.687Z</time></trkpt><trkpt lat="43.1023033" lon="2.5880567"><ele>276.75</ele><time>2026-03-30T12:30:31.687Z</time></trkpt><trkpt lat="43.1022917" lon="2.5878833"><ele>277.0</ele><time>2026-03-30T12:30:32.686Z</time></trkpt><trkpt lat="43.102285" lon="2.5877267"><ele>277.75</ele><time>2026-03-30T12:30:33.686Z</time></trkpt><trkpt lat="43.1022917" lon="2.5875733"><ele>278.5</ele><time>2026-03-30T12:30:34.686Z</time></trkpt><trkpt lat="43.102305" lon="2.5874183"><ele>279.25</ele><time>2026-03-30T12:30:35.769Z</time></trkpt><trkpt lat="43.1023233" lon="2.5872633"><ele>280.0</ele><time>2026-03-30T12:30:36.687Z</time></trkpt><trkpt lat="43.1023517" lon="2.5870933"><ele>280.5</ele><time>2026-03-30T12:30:37.686Z</time></trkpt><trkpt lat="43.1023817" lon="2.586915"><ele>281.0</ele><time>2026-03-30T12:30:38.687Z</time></trkpt><trkpt lat="43.10242" lon="2.5867417"><ele>281.5</ele><time>2026-03-30T12:30:39.687Z</time></trkpt><trkpt lat="43.1024567" lon="2.5865483"><ele>282.0</ele><time>2026-03-30T12:30:40.687Z</time></trkpt><trkpt lat="43.1024917" lon="2.5863483"><ele>288.25</ele><time>2026-03-30T12:30:41.687Z</time></trkpt><trkpt lat="43.1025283" lon="2.5861517"><ele>294.5</ele><time>2026-03-30T12:30:42.687Z</time></trkpt><trkpt lat="43.1025633" lon="2.5859583"><ele>300.75</ele><time>2026-03-30T12:30:43.684Z</time></trkpt><trkpt lat="43.1025983" lon="2.585765"><ele>307.0</ele><time>2026-03-30T12:30:44.688Z</time></trkpt><trkpt lat="43.1026267" lon="2.5855717"><ele>307.0</ele><time>2026-03-30T12:30:45.684Z</time></trkpt><trkpt lat="43.1026433" lon="2.585385"><ele>307.0</ele><time>2026-03-30T12:30:46.685Z</time></trkpt><trkpt lat="43.1026583" lon="2.5852117"><ele>307.0</ele><time>2026-03-30T12:30:47.686Z</time></trkpt><trkpt lat="43.1026817" lon="2.5850517"><ele>307.0</ele><time>2026-03-30T12:30:48.687Z</time></trkpt><trkpt lat="43.1027133" lon="2.5849067"><ele>307.0</ele><time>2026-03-30T12:30:49.685Z</time></trkpt><trkpt lat="43.1027533" lon="2.584775"><ele>307.0</ele><time>2026-03-30T12:30:50.686Z</time></trkpt><trkpt lat="43.1028067" lon="2.58466"><ele>307.0</ele><time>2026-03-30T12:30:51.685Z</time></trkpt><trkpt lat="43.10288" lon="2.5845567"><ele>307.0</ele><time>2026-03-30T12:30:52.687Z</time></trkpt><trkpt lat="43.10297" lon="2.584465"><ele>307.0</ele><time>2026-03-30T12:30:53.684Z</time></trkpt><trkpt lat="43.10308" lon="2.5843783"><ele>306.0</ele><time>2026-03-30T12:30:54.685Z</time></trkpt><trkpt lat="43.1031967" lon="2.5842833"><ele>305.0</ele><time>2026-03-30T12:30:55.688Z</time></trkpt><trkpt lat="43.1033083" lon="2.5841717"><ele>304.0</ele><time>2026-03-30T12:30:56.686Z</time></trkpt><trkpt lat="43.1034133" lon="2.5840417"><ele>303.0</ele><time>2026-03-30T12:30:57.684Z</time></trkpt><trkpt lat="43.1035167" lon="2.583905"><ele>306.5</ele><time>2026-03-30T12:30:58.685Z</time></trkpt><trkpt lat="43.10362" lon="2.5837633"><ele>310.0</ele><time>2026-03-30T12:30:59.686Z</time></trkpt><trkpt lat="43.103715" lon="2.583625"><ele>313.5</ele><time>2026-03-30T12:31:00.687Z</time></trkpt><trkpt lat="43.1037983" lon="2.5834933"><ele>317.0</ele><time>2026-03-30T12:31:01.688Z</time></trkpt><trkpt lat="43.10387" lon="2.5833567"><ele>317.0</ele><time>2026-03-30T12:31:02.687Z</time></trkpt><trkpt lat="43.10393" lon="2.5831967"><ele>317.0</ele><time>2026-03-30T12:31:03.686Z</time></trkpt><trkpt lat="43.1039767" lon="2.5830167"><ele>317.0</ele><time>2026-03-30T12:31:04.687Z</time></trkpt><trkpt lat="43.1040083" lon="2.5828233"><ele>317.0</ele><time>2026-03-30T12:31:05.686Z</time></trkpt><trkpt lat="43.1040267" lon="2.5826183"><ele>316.6666666666667</ele><time>2026-03-30T12:31:06.686Z</time></trkpt><trkpt lat="43.1040317" lon="2.5824"><ele>316.3333333333333</ele><time>2026-03-30T12:31:07.686Z</time></trkpt><trkpt lat="43.1040217" lon="2.582175"><ele>316.0</ele><time>2026-03-30T12:31:08.687Z</time></trkpt><trkpt lat="43.1040017" lon="2.58195"><ele>318.0</ele><time>2026-03-30T12:31:09.686Z</time></trkpt><trkpt lat="43.1039733" lon="2.5817233"><ele>320.0</ele><time>2026-03-30T12:31:10.686Z</time></trkpt><trkpt lat="43.1039367" lon="2.5814933"><ele>322.0</ele><time>2026-03-30T12:31:11.688Z</time></trkpt><trkpt lat="43.1038933" lon="2.5812583"><ele>323.3333333333333</ele><time>2026-03-30T12:31:12.686Z</time></trkpt><trkpt lat="43.1038483" lon="2.5810183"><ele>324.6666666666667</ele><time>2026-03-30T12:31:13.685Z</time></trkpt><trkpt lat="43.1038017" lon="2.58077"><ele>326.0</ele><time>2026-03-30T12:31:14.687Z</time></trkpt><trkpt lat="43.1037533" lon="2.5805233"><ele>327.6666666666667</ele><time>2026-03-30T12:31:15.685Z</time></trkpt><trkpt lat="43.1037033" lon="2.5802683"><ele>329.3333333333333</ele><time>2026-03-30T12:31:16.686Z</time></trkpt><trkpt lat="43.1036633" lon="2.58002"><ele>331.0</ele><time>2026-03-30T12:31:17.685Z</time></trkpt><trkpt lat="43.1036267" lon="2.57977"><ele>331.0</ele><time>2026-03-30T12:31:18.685Z</time></trkpt><trkpt lat="43.10359" lon="2.5795283"><ele>331.0</ele><time>2026-03-30T12:31:19.686Z</time></trkpt><trkpt lat="43.1035567" lon="2.5792983"><ele>331.0</ele><time>2026-03-30T12:31:20.685Z</time></trkpt><trkpt lat="43.1035217" lon="2.5790783"><ele>332.66666666666663</ele><time>2026-03-30T12:31:21.684Z</time></trkpt><trkpt lat="43.1034817" lon="2.57887"><ele>334.3333333333333</ele><time>2026-03-30T12:31:22.685Z</time></trkpt><trkpt lat="43.103425" lon="2.5786617"><ele>336.0</ele><time>2026-03-30T12:31:23.684Z</time></trkpt><trkpt lat="43.1033533" lon="2.5784517"><ele>337.0</ele><time>2026-03-30T12:31:24.686Z</time></trkpt><trkpt lat="43.10327" lon="2.5782417"><ele>338.0</ele><time>2026-03-30T12:31:25.686Z</time></trkpt><trkpt lat="43.1031933" lon="2.5780333"><ele>339.0</ele><time>2026-03-30T12:31:26.686Z</time></trkpt><trkpt lat="43.1031183" lon="2.577815"><ele>341.6666666666667</ele><time>2026-03-30T12:31:27.685Z</time></trkpt><trkpt lat="43.103045" lon="2.5776033"><ele>344.33333333333337</ele><time>2026-03-30T12:31:28.687Z</time></trkpt><trkpt lat="43.1029717" lon="2.5774033"><ele>347.0</ele><time>2026-03-30T12:31:29.687Z</time></trkpt><trkpt lat="43.1028917" lon="2.5772133"><ele>347.0</ele><time>2026-03-30T12:31:30.686Z</time></trkpt><trkpt lat="43.1028083" lon="2.57703"><ele>347.0</ele><time>2026-03-30T12:31:31.685Z</time></trkpt><trkpt lat="43.1027367" lon="2.5768467"><ele>347.0</ele><time>2026-03-30T12:31:32.686Z</time></trkpt><trkpt lat="43.1026833" lon="2.5766533"><ele>347.33333333333337</ele><time>2026-03-30T12:31:33.685Z</time></trkpt><trkpt lat="43.1026467" lon="2.576445"><ele>347.6666666666667</ele><time>2026-03-30T12:31:34.685Z</time></trkpt><trkpt lat="43.10263" lon="2.57623"><ele>348.0</ele><time>2026-03-30T12:31:35.686Z</time></trkpt><trkpt lat="43.10262" lon="2.5760067"><ele>348.0</ele><time>2026-03-30T12:31:36.687Z</time></trkpt><trkpt lat="43.10262" lon="2.5757817"><ele>348.0</ele><time>2026-03-30T12:31:37.686Z</time></trkpt><trkpt lat="43.1026233" lon="2.5755633"><ele>348.0</ele><time>2026-03-30T12:31:38.685Z</time></trkpt><trkpt lat="43.10262" lon="2.5753583"><ele>348.0</ele><time>2026-03-30T12:31:39.686Z</time></trkpt><trkpt lat="43.1026183" lon="2.5751633"><ele>348.0</ele><time>2026-03-30T12:31:40.684Z</time></trkpt><trkpt lat="43.1026283" lon="2.5749733"><ele>348.0</ele><time>2026-03-30T12:31:41.687Z</time></trkpt><trkpt lat="43.1026533" lon="2.5747917"><ele>348.0</ele><time>2026-03-30T12:31:42.686Z</time></trkpt><trkpt lat="43.1027" lon="2.5746117"><ele>347.6666666666667</ele><time>2026-03-30T12:31:43.685Z</time></trkpt><trkpt lat="43.10277" lon="2.57443"><ele>347.33333333333337</ele><time>2026-03-30T12:31:44.687Z</time></trkpt><trkpt lat="43.1028633" lon="2.57425"><ele>347.0</ele><time>2026-03-30T12:31:45.685Z</time></trkpt><trkpt lat="43.102975" lon="2.5740733"><ele>347.0</ele><time>2026-03-30T12:31:46.684Z</time></trkpt><trkpt lat="43.1030967" lon="2.5739"><ele>347.0</ele><time>2026-03-30T12:31:47.688Z</time></trkpt><trkpt lat="43.1032233" lon="2.57373"><ele>347.0</ele><time>2026-03-30T12:31:48.684Z</time></trkpt><trkpt lat="43.1033483" lon="2.573565"><ele>347.33333333333337</ele><time>2026-03-30T12:31:49.686Z</time></trkpt><trkpt lat="43.1034717" lon="2.5733883"><ele>347.6666666666667</ele><time>2026-03-30T12:31:50.686Z</time></trkpt><trkpt lat="43.1035917" lon="2.5732067"><ele>348.0</ele><time>2026-03-30T12:31:51.685Z</time></trkpt><trkpt lat="43.1037117" lon="2.573025"><ele>348.3333333333333</ele><time>2026-03-30T12:31:52.685Z</time></trkpt><trkpt lat="43.10383" lon="2.5728417"><ele>348.66666666666663</ele><time>2026-03-30T12:31:53.685Z</time></trkpt><trkpt lat="43.1039533" lon="2.5726667"><ele>349.0</ele><time>2026-03-30T12:31:54.685Z</time></trkpt><trkpt lat="43.1040817" lon="2.5725033"><ele>351.0</ele><time>2026-03-30T12:31:55.686Z</time></trkpt><trkpt lat="43.104205" lon="2.5723333"><ele>353.0</ele><time>2026-03-30T12:31:56.686Z</time></trkpt><trkpt lat="43.104325" lon="2.572155"><ele>355.0</ele><time>2026-03-30T12:31:57.686Z</time></trkpt><trkpt lat="43.104445" lon="2.571975"><ele>355.66666666666663</ele><time>2026-03-30T12:31:58.687Z</time></trkpt><trkpt lat="43.1045633" lon="2.5717983"><ele>356.3333333333333</ele><time>2026-03-30T12:31:59.686Z</time></trkpt><trkpt lat="43.1046817" lon="2.57162"><ele>357.0</ele><time>2026-03-30T12:32:00.685Z</time></trkpt><trkpt lat="43.1048" lon="2.5714367"><ele>358.6666666666667</ele><time>2026-03-30T12:32:01.685Z</time></trkpt><trkpt lat="43.1049133" lon="2.571245"><ele>360.33333333333337</ele><time>2026-03-30T12:32:02.687Z</time></trkpt><trkpt lat="43.1050233" lon="2.57105"><ele>362.0</ele><time>2026-03-30T12:32:03.686Z</time></trkpt><trkpt lat="43.1051283" lon="2.570865"><ele>362.33333333333337</ele><time>2026-03-30T12:32:04.687Z</time></trkpt><trkpt lat="43.1052317" lon="2.570685"><ele>362.6666666666667</ele><time>2026-03-30T12:32:05.687Z</time></trkpt><trkpt lat="43.1053383" lon="2.570505"><ele>363.0</ele><time>2026-03-30T12:32:06.688Z</time></trkpt><trkpt lat="43.105445" lon="2.5703283"><ele>363.0</ele><time>2026-03-30T12:32:07.688Z</time></trkpt><trkpt lat="43.1055517" lon="2.57015"><ele>363.0</ele><time>2026-03-30T12:32:08.689Z</time></trkpt><trkpt lat="43.1056533" lon="2.5699533"><ele>363.0</ele><time>2026-03-30T12:32:09.687Z</time></trkpt><trkpt lat="43.105755" lon="2.5697483"><ele>363.3333333333333</ele><time>2026-03-30T12:32:10.687Z</time></trkpt><trkpt lat="43.1058567" lon="2.5695417"><ele>363.66666666666663</ele><time>2026-03-30T12:32:11.686Z</time></trkpt><trkpt lat="43.105965" lon="2.5693333"><ele>364.0</ele><time>2026-03-30T12:32:12.686Z</time></trkpt><trkpt lat="43.1060817" lon="2.5691217"><ele>363.3333333333333</ele><time>2026-03-30T12:32:13.686Z</time></trkpt><trkpt lat="43.1062017" lon="2.5689067"><ele>362.6666666666667</ele><time>2026-03-30T12:32:14.686Z</time></trkpt><trkpt lat="43.1063233" lon="2.5686833"><ele>362.0</ele><time>2026-03-30T12:32:15.685Z</time></trkpt><trkpt lat="43.10645" lon="2.56846"><ele>360.6666666666667</ele><time>2026-03-30T12:32:16.685Z</time></trkpt><trkpt lat="43.10658" lon="2.5682283"><ele>359.3333333333333</ele><time>2026-03-30T12:32:17.685Z</time></trkpt><trkpt lat="43.1067067" lon="2.56799"><ele>358.0</ele><time>2026-03-30T12:32:18.685Z</time></trkpt><trkpt lat="43.1068283" lon="2.567755"><ele>358.0</ele><time>2026-03-30T12:32:19.684Z</time></trkpt><trkpt lat="43.1069383" lon="2.5675183"><ele>358.0</ele><time>2026-03-30T12:32:20.687Z</time></trkpt><trkpt lat="43.107045" lon="2.567295"><ele>358.0</ele><time>2026-03-30T12:32:21.686Z</time></trkpt><trkpt lat="43.1071567" lon="2.56708"><ele>358.3333333333333</ele><time>2026-03-30T12:32:22.687Z</time></trkpt><trkpt lat="43.1072733" lon="2.5668733"><ele>358.6666666666667</ele><time>2026-03-30T12:32:23.686Z</time></trkpt><trkpt lat="43.1073917" lon="2.566675"><ele>359.0</ele><time>2026-03-30T12:32:24.685Z</time></trkpt><trkpt lat="43.1075" lon="2.5665083"><ele>359.0</ele><time>2026-03-30T12:32:25.686Z</time></trkpt><trkpt lat="43.1076167" lon="2.56637"><ele>359.0</ele><time>2026-03-30T12:32:26.686Z</time></trkpt><trkpt lat="43.107745" lon="2.56624"><ele>359.0</ele><time>2026-03-30T12:32:27.685Z</time></trkpt><trkpt lat="43.1078767" lon="2.566095"><ele>359.0</ele><time>2026-03-30T12:32:28.685Z</time></trkpt><trkpt lat="43.1080083" lon="2.5659333"><ele>359.0</ele><time>2026-03-30T12:32:29.685Z</time></trkpt><trkpt lat="43.10813" lon="2.565765"><ele>359.0</ele><time>2026-03-30T12:32:30.685Z</time></trkpt><trkpt lat="43.108235" lon="2.5655933"><ele>361.0</ele><time>2026-03-30T12:32:31.686Z</time></trkpt><trkpt lat="43.108325" lon="2.5654083"><ele>363.0</ele><time>2026-03-30T12:32:32.685Z</time></trkpt><trkpt lat="43.1083983" lon="2.5652067"><ele>365.0</ele><time>2026-03-30T12:32:33.686Z</time></trkpt><trkpt lat="43.1084583" lon="2.56499"><ele>365.33333333333337</ele><time>2026-03-30T12:32:34.686Z</time></trkpt><trkpt lat="43.10851" lon="2.5647583"><ele>365.6666666666667</ele><time>2026-03-30T12:32:35.686Z</time></trkpt><trkpt lat="43.10856" lon="2.5645183"><ele>366.0</ele><time>2026-03-30T12:32:36.688Z</time></trkpt><trkpt lat="43.1086117" lon="2.564275"><ele>366.0</ele><time>2026-03-30T12:32:37.686Z</time></trkpt><trkpt lat="43.1086633" lon="2.5640317"><ele>366.0</ele><time>2026-03-30T12:32:38.685Z</time></trkpt><trkpt lat="43.1087133" lon="2.5637833"><ele>366.0</ele><time>2026-03-30T12:32:39.687Z</time></trkpt><trkpt lat="43.1087617" lon="2.56353"><ele>365.0</ele><time>2026-03-30T12:32:40.685Z</time></trkpt><trkpt lat="43.1088083" lon="2.56327"><ele>364.0</ele><time>2026-03-30T12:32:41.685Z</time></trkpt><trkpt lat="43.1088483" lon="2.5630117"><ele>363.0</ele><time>2026-03-30T12:32:42.685Z</time></trkpt><trkpt lat="43.108875" lon="2.5627733"><ele>363.0</ele><time>2026-03-30T12:32:43.686Z</time></trkpt><trkpt lat="43.1088883" lon="2.5625533"><ele>363.0</ele><time>2026-03-30T12:32:44.686Z</time></trkpt><trkpt lat="43.1088983" lon="2.562335"><ele>363.0</ele><time>2026-03-30T12:32:45.686Z</time></trkpt><trkpt lat="43.10892" lon="2.562115"><ele>363.6666666666667</ele><time>2026-03-30T12:32:46.684Z</time></trkpt><trkpt lat="43.1089483" lon="2.5618933"><ele>364.33333333333337</ele><time>2026-03-30T12:32:47.686Z</time></trkpt><trkpt lat="43.10899" lon="2.5616667"><ele>365.0</ele><time>2026-03-30T12:32:48.686Z</time></trkpt><trkpt lat="43.1090417" lon="2.5614383"><ele>369.0</ele><time>2026-03-30T12:32:49.687Z</time></trkpt><trkpt lat="43.1090967" lon="2.5612133"><ele>373.0</ele><time>2026-03-30T12:32:50.685Z</time></trkpt><trkpt lat="43.1091433" lon="2.5609817"><ele>377.0</ele><time>2026-03-30T12:32:51.685Z</time></trkpt><trkpt lat="43.10918" lon="2.5607417"><ele>377.0</ele><time>2026-03-30T12:32:52.685Z</time></trkpt><trkpt lat="43.1092067" lon="2.5604917"><ele>377.0</ele><time>2026-03-30T12:32:53.685Z</time></trkpt><trkpt lat="43.1092283" lon="2.5602317"><ele>377.0</ele><time>2026-03-30T12:32:54.689Z</time></trkpt><trkpt lat="43.1092467" lon="2.5599667"><ele>376.6666666666667</ele><time>2026-03-30T12:32:55.686Z</time></trkpt><trkpt lat="43.10926" lon="2.559695"><ele>376.3333333333333</ele><time>2026-03-30T12:32:56.687Z</time></trkpt><trkpt lat="43.109275" lon="2.5594167"><ele>376.0</ele><time>2026-03-30T12:32:57.684Z</time></trkpt><trkpt lat="43.1092967" lon="2.55913"><ele>376.3333333333333</ele><time>2026-03-30T12:32:58.685Z</time></trkpt><trkpt lat="43.1093167" lon="2.5588367"><ele>376.6666666666667</ele><time>2026-03-30T12:32:59.685Z</time></trkpt><trkpt lat="43.10933" lon="2.558545"><ele>377.0</ele><time>2026-03-30T12:33:00.687Z</time></trkpt><trkpt lat="43.1093417" lon="2.558265"><ele>377.0</ele><time>2026-03-30T12:33:01.687Z</time></trkpt><trkpt lat="43.1093517" lon="2.55799"><ele>377.0</ele><time>2026-03-30T12:33:02.69Z</time></trkpt><trkpt lat="43.1093683" lon="2.5577133"><ele>377.0</ele><time>2026-03-30T12:33:03.685Z</time></trkpt><trkpt lat="43.109385" lon="2.5574433"><ele>377.0</ele><time>2026-03-30T12:33:04.687Z</time></trkpt><trkpt lat="43.1093967" lon="2.5572017"><ele>377.0</ele><time>2026-03-30T12:33:05.686Z</time></trkpt><trkpt lat="43.109405" lon="2.5569817"><ele>377.0</ele><time>2026-03-30T12:33:06.687Z</time></trkpt><trkpt lat="43.1094083" lon="2.5567883"><ele>377.0</ele><time>2026-03-30T12:33:07.686Z</time></trkpt><trkpt lat="43.10941" lon="2.5566017"><ele>377.0</ele><time>2026-03-30T12:33:08.688Z</time></trkpt><trkpt lat="43.1094167" lon="2.556405"><ele>377.0</ele><time>2026-03-30T12:33:09.686Z</time></trkpt><trkpt lat="43.10942" lon="2.5562067"><ele>377.0</ele><time>2026-03-30T12:33:10.686Z</time></trkpt><trkpt lat="43.1094083" lon="2.555995"><ele>376.0</ele><time>2026-03-30T12:33:11.688Z</time></trkpt><trkpt lat="43.10939" lon="2.55578"><ele>375.0</ele><time>2026-03-30T12:33:12.685Z</time></trkpt><trkpt lat="43.10938" lon="2.55556"><ele>374.0</ele><time>2026-03-30T12:33:13.686Z</time></trkpt><trkpt lat="43.1093783" lon="2.55534"><ele>373.0</ele><time>2026-03-30T12:33:14.686Z</time></trkpt><trkpt lat="43.109375" lon="2.5551217"><ele>372.0</ele><time>2026-03-30T12:33:15.686Z</time></trkpt><trkpt lat="43.1093667" lon="2.5549067"><ele>371.0</ele><time>2026-03-30T12:33:16.685Z</time></trkpt><trkpt lat="43.1093567" lon="2.5546917"><ele>370.25</ele><time>2026-03-30T12:33:17.685Z</time></trkpt><trkpt lat="43.1093567" lon="2.5544867"><ele>369.5</ele><time>2026-03-30T12:33:18.686Z</time></trkpt><trkpt lat="43.10937" lon="2.554295"><ele>368.75</ele><time>2026-03-30T12:33:19.684Z</time></trkpt><trkpt lat="43.1093983" lon="2.5541083"><ele>368.0</ele><time>2026-03-30T12:33:20.689Z</time></trkpt><trkpt lat="43.1094433" lon="2.5539233"><ele>368.0</ele><time>2026-03-30T12:33:21.686Z</time></trkpt><trkpt lat="43.109515" lon="2.5537333"><ele>368.0</ele><time>2026-03-30T12:33:22.685Z</time></trkpt><trkpt lat="43.109595" lon="2.5535467"><ele>368.0</ele><time>2026-03-30T12:33:23.685Z</time></trkpt><trkpt lat="43.1096683" lon="2.5533683"><ele>367.25</ele><time>2026-03-30T12:33:24.687Z</time></trkpt><trkpt lat="43.1097317" lon="2.5531917"><ele>366.5</ele><time>2026-03-30T12:33:25.685Z</time></trkpt><trkpt lat="43.10979" lon="2.5530217"><ele>365.75</ele><time>2026-03-30T12:33:26.686Z</time></trkpt><trkpt lat="43.1098567" lon="2.5528633"><ele>365.0</ele><time>2026-03-30T12:33:27.685Z</time></trkpt><trkpt lat="43.1099417" lon="2.5527117"><ele>363.0</ele><time>2026-03-30T12:33:28.684Z</time></trkpt><trkpt lat="43.110045" lon="2.5525617"><ele>361.0</ele><time>2026-03-30T12:33:29.687Z</time></trkpt><trkpt lat="43.1101617" lon="2.552415"><ele>359.0</ele><time>2026-03-30T12:33:30.686Z</time></trkpt><trkpt lat="43.1102833" lon="2.5522683"><ele>359.0</ele><time>2026-03-30T12:33:31.685Z</time></trkpt><trkpt lat="43.1104033" lon="2.5520967"><ele>359.0</ele><time>2026-03-30T12:33:32.686Z</time></trkpt><trkpt lat="43.1105183" lon="2.5519117"><ele>359.0</ele><time>2026-03-30T12:33:33.686Z</time></trkpt><trkpt lat="43.1106317" lon="2.5517183"><ele>357.6666666666667</ele><time>2026-03-30T12:33:34.686Z</time></trkpt><trkpt lat="43.11074" lon="2.551525"><ele>356.3333333333333</ele><time>2026-03-30T12:33:35.685Z</time></trkpt><trkpt lat="43.1108467" lon="2.5513267"><ele>355.0</ele><time>2026-03-30T12:33:36.686Z</time></trkpt><trkpt lat="43.1109517" lon="2.5511183"><ele>353.66666666666663</ele><time>2026-03-30T12:33:37.686Z</time></trkpt><trkpt lat="43.111055" lon="2.550905"><ele>352.3333333333333</ele><time>2026-03-30T12:33:38.687Z</time></trkpt><trkpt lat="43.1111583" lon="2.5506917"><ele>351.0</ele><time>2026-03-30T12:33:39.685Z</time></trkpt><trkpt lat="43.1112633" lon="2.55049"><ele>350.0</ele><time>2026-03-30T12:33:40.685Z</time></trkpt><trkpt lat="43.1113683" lon="2.5502983"><ele>349.0</ele><time>2026-03-30T12:33:41.685Z</time></trkpt><trkpt lat="43.1114633" lon="2.55012"><ele>348.0</ele><time>2026-03-30T12:33:42.684Z</time></trkpt><trkpt lat="43.1115517" lon="2.5499583"><ele>347.25</ele><time>2026-03-30T12:33:43.684Z</time></trkpt><trkpt lat="43.1116367" lon="2.5498067"><ele>346.5</ele><time>2026-03-30T12:33:44.686Z</time></trkpt><trkpt lat="43.1117067" lon="2.5496517"><ele>345.75</ele><time>2026-03-30T12:33:45.684Z</time></trkpt><trkpt lat="43.1117533" lon="2.54948"><ele>345.0</ele><time>2026-03-30T12:33:46.685Z</time></trkpt><trkpt lat="43.1117833" lon="2.5492833"><ele>344.6666666666667</ele><time>2026-03-30T12:33:47.686Z</time></trkpt><trkpt lat="43.11179" lon="2.5490633"><ele>344.33333333333337</ele><time>2026-03-30T12:33:48.686Z</time></trkpt><trkpt lat="43.1117883" lon="2.5488333"><ele>344.0</ele><time>2026-03-30T12:33:49.685Z</time></trkpt><trkpt lat="43.1117767" lon="2.54859"><ele>343.6666666666667</ele><time>2026-03-30T12:33:50.685Z</time></trkpt><trkpt lat="43.1117617" lon="2.5483367"><ele>343.3333333333333</ele><time>2026-03-30T12:33:51.686Z</time></trkpt><trkpt lat="43.1117417" lon="2.5480767"><ele>343.0</ele><time>2026-03-30T12:33:52.685Z</time></trkpt><trkpt lat="43.1117317" lon="2.5477917"><ele>341.3333333333333</ele><time>2026-03-30T12:33:53.685Z</time></trkpt><trkpt lat="43.1117183" lon="2.5475033"><ele>339.6666666666667</ele><time>2026-03-30T12:33:54.686Z</time></trkpt><trkpt lat="43.1116983" lon="2.5472233"><ele>338.0</ele><time>2026-03-30T12:33:55.685Z</time></trkpt><trkpt lat="43.1116833" lon="2.5469583"><ele>337.0</ele><time>2026-03-30T12:33:56.685Z</time></trkpt><trkpt lat="43.1116717" lon="2.5467183"><ele>336.0</ele><time>2026-03-30T12:33:57.685Z</time></trkpt><trkpt lat="43.1116633" lon="2.5465"><ele>335.0</ele><time>2026-03-30T12:33:58.685Z</time></trkpt><trkpt lat="43.1116567" lon="2.5462967"><ele>334.6666666666667</ele><time>2026-03-30T12:33:59.685Z</time></trkpt><trkpt lat="43.1116467" lon="2.546095"><ele>334.3333333333333</ele><time>2026-03-30T12:34:00.685Z</time></trkpt><trkpt lat="43.1116283" lon="2.54589"><ele>334.0</ele><time>2026-03-30T12:34:01.686Z</time></trkpt><trkpt lat="43.1115967" lon="2.5456867"><ele>333.0</ele><time>2026-03-30T12:34:02.688Z</time></trkpt><trkpt lat="43.111555" lon="2.5455"><ele>332.0</ele><time>2026-03-30T12:34:03.687Z</time></trkpt><trkpt lat="43.1115117" lon="2.5453283"><ele>331.0</ele><time>2026-03-30T12:34:04.685Z</time></trkpt><trkpt lat="43.11146" lon="2.5451733"><ele>330.0</ele><time>2026-03-30T12:34:05.686Z</time></trkpt><trkpt lat="43.1113967" lon="2.5450383"><ele>329.75</ele><time>2026-03-30T12:34:06.685Z</time></trkpt><trkpt lat="43.1113067" lon="2.5449183"><ele>329.5</ele><time>2026-03-30T12:34:07.686Z</time></trkpt><trkpt lat="43.1111933" lon="2.544805"><ele>329.25</ele><time>2026-03-30T12:34:08.686Z</time></trkpt><trkpt lat="43.1110567" lon="2.544705"><ele>329.0</ele><time>2026-03-30T12:34:09.688Z</time></trkpt><trkpt lat="43.1109083" lon="2.5446083"><ele>329.0</ele><time>2026-03-30T12:34:10.686Z</time></trkpt><trkpt lat="43.1107567" lon="2.5445167"><ele>329.0</ele><time>2026-03-30T12:34:11.688Z</time></trkpt><trkpt lat="43.1105933" lon="2.544405"><ele>329.0</ele><time>2026-03-30T12:34:12.685Z</time></trkpt><trkpt lat="43.110435" lon="2.5442917"><ele>329.0</ele><time>2026-03-30T12:34:13.686Z</time></trkpt><trkpt lat="43.1102817" lon="2.5441883"><ele>329.0</ele><time>2026-03-30T12:34:14.687Z</time></trkpt><trkpt lat="43.1101317" lon="2.54409"><ele>329.0</ele><time>2026-03-30T12:34:15.684Z</time></trkpt><trkpt lat="43.10999" lon="2.5439983"><ele>328.75</ele><time>2026-03-30T12:34:16.685Z</time></trkpt><trkpt lat="43.10986" lon="2.543905"><ele>328.5</ele><time>2026-03-30T12:34:17.685Z</time></trkpt><trkpt lat="43.10974" lon="2.5438117"><ele>328.25</ele><time>2026-03-30T12:34:18.686Z</time></trkpt><trkpt lat="43.1096317" lon="2.543715"><ele>328.0</ele><time>2026-03-30T12:34:19.685Z</time></trkpt><trkpt lat="43.1095383" lon="2.5436067"><ele>328.0</ele><time>2026-03-30T12:34:20.685Z</time></trkpt><trkpt lat="43.1094583" lon="2.5434733"><ele>328.0</ele><time>2026-03-30T12:34:21.686Z</time></trkpt><trkpt lat="43.1093983" lon="2.5433117"><ele>328.0</ele><time>2026-03-30T12:34:22.684Z</time></trkpt><trkpt lat="43.109355" lon="2.5431367"><ele>328.0</ele><time>2026-03-30T12:34:23.685Z</time></trkpt><trkpt lat="43.1093233" lon="2.5429667"><ele>327.25</ele><time>2026-03-30T12:34:24.686Z</time></trkpt><trkpt lat="43.1093017" lon="2.5428033"><ele>326.5</ele><time>2026-03-30T12:34:25.689Z</time></trkpt><trkpt lat="43.1092933" lon="2.5426433"><ele>325.75</ele><time>2026-03-30T12:34:26.687Z</time></trkpt><trkpt lat="43.109305" lon="2.542475"><ele>325.0</ele><time>2026-03-30T12:34:27.685Z</time></trkpt><trkpt lat="43.1093333" lon="2.5422933"><ele>325.0</ele><time>2026-03-30T12:34:28.686Z</time></trkpt><trkpt lat="43.10937" lon="2.5421017"><ele>325.0</ele><time>2026-03-30T12:34:29.686Z</time></trkpt><trkpt lat="43.109405" lon="2.5419"><ele>325.0</ele><time>2026-03-30T12:34:30.685Z</time></trkpt><trkpt lat="43.109435" lon="2.5416983"><ele>325.0</ele><time>2026-03-30T12:34:31.688Z</time></trkpt><trkpt lat="43.1094733" lon="2.541495"><ele>323.0</ele><time>2026-03-30T12:34:32.686Z</time></trkpt><trkpt lat="43.1095217" lon="2.541295"><ele>321.0</ele><time>2026-03-30T12:34:33.684Z</time></trkpt><trkpt lat="43.1095783" lon="2.5410933"><ele>319.0</ele><time>2026-03-30T12:34:34.685Z</time></trkpt><trkpt lat="43.1096483" lon="2.5408883"><ele>317.0</ele><time>2026-03-30T12:34:35.685Z</time></trkpt><trkpt lat="43.10973" lon="2.5406783"><ele>315.0</ele><time>2026-03-30T12:34:36.689Z</time></trkpt><trkpt lat="43.1098217" lon="2.5404733"><ele>313.0</ele><time>2026-03-30T12:34:37.687Z</time></trkpt><trkpt lat="43.109915" lon="2.54028"><ele>313.0</ele><time>2026-03-30T12:34:38.687Z</time></trkpt><trkpt lat="43.1100017" lon="2.54009"><ele>313.0</ele><time>2026-03-30T12:34:39.685Z</time></trkpt><trkpt lat="43.110085" lon="2.5399033"><ele>313.0</ele><time>2026-03-30T12:34:40.685Z</time></trkpt><trkpt lat="43.1101633" lon="2.53973"><ele>313.0</ele><time>2026-03-30T12:34:41.686Z</time></trkpt><trkpt lat="43.1102367" lon="2.53956"><ele>313.0</ele><time>2026-03-30T12:34:42.686Z</time></trkpt><trkpt lat="43.110305" lon="2.5393967"><ele>313.0</ele><time>2026-03-30T12:34:43.686Z</time></trkpt><trkpt lat="43.110375" lon="2.5392483"><ele>313.0</ele><time>2026-03-30T12:34:44.686Z</time></trkpt><trkpt lat="43.1104483" lon="2.539105"><ele>311.75</ele><time>2026-03-30T12:34:45.685Z</time></trkpt><trkpt lat="43.1105117" lon="2.5389567"><ele>310.5</ele><time>2026-03-30T12:34:46.685Z</time></trkpt><trkpt lat="43.1105667" lon="2.538805"><ele>309.25</ele><time>2026-03-30T12:34:47.685Z</time></trkpt><trkpt lat="43.1106217" lon="2.5386633"><ele>308.0</ele><time>2026-03-30T12:34:48.685Z</time></trkpt><trkpt lat="43.11069" lon="2.5385317"><ele>306.25</ele><time>2026-03-30T12:34:49.685Z</time></trkpt><trkpt lat="43.1107767" lon="2.5384067"><ele>304.5</ele><time>2026-03-30T12:34:50.686Z</time></trkpt><trkpt lat="43.11087" lon="2.5382917"><ele>302.75</ele><time>2026-03-30T12:34:51.688Z</time></trkpt><trkpt lat="43.110965" lon="2.5381917"><ele>301.0</ele><time>2026-03-30T12:34:52.685Z</time></trkpt><trkpt lat="43.111055" lon="2.5380867"><ele>301.0</ele><time>2026-03-30T12:34:53.685Z</time></trkpt><trkpt lat="43.1111383" lon="2.5379667"><ele>301.0</ele><time>2026-03-30T12:34:54.686Z</time></trkpt><trkpt lat="43.1112133" lon="2.5378317"><ele>301.0</ele><time>2026-03-30T12:34:55.686Z</time></trkpt><trkpt lat="43.1112867" lon="2.5376883"><ele>301.0</ele><time>2026-03-30T12:34:56.689Z</time></trkpt><trkpt lat="43.11136" lon="2.537535"><ele>300.5</ele><time>2026-03-30T12:34:57.686Z</time></trkpt><trkpt lat="43.111425" lon="2.537375"><ele>300.0</ele><time>2026-03-30T12:34:58.685Z</time></trkpt><trkpt lat="43.1114833" lon="2.5372067"><ele>299.5</ele><time>2026-03-30T12:34:59.685Z</time></trkpt><trkpt lat="43.11154" lon="2.5370467"><ele>299.0</ele><time>2026-03-30T12:35:00.685Z</time></trkpt><trkpt lat="43.1115917" lon="2.5368967"><ele>296.0</ele><time>2026-03-30T12:35:01.684Z</time></trkpt><trkpt lat="43.1116417" lon="2.53675"><ele>293.0</ele><time>2026-03-30T12:35:02.685Z</time></trkpt><trkpt lat="43.1116933" lon="2.5366217"><ele>290.0</ele><time>2026-03-30T12:35:03.685Z</time></trkpt><trkpt lat="43.1117333" lon="2.5364917"><ele>287.0</ele><time>2026-03-30T12:35:04.685Z</time></trkpt><trkpt lat="43.111755" lon="2.53635"><ele>284.0</ele><time>2026-03-30T12:35:05.684Z</time></trkpt><trkpt lat="43.11176" lon="2.5362117"><ele>282.8</ele><time>2026-03-30T12:35:06.684Z</time></trkpt><trkpt lat="43.11176" lon="2.53608"><ele>281.59999999999997</ele><time>2026-03-30T12:35:07.685Z</time></trkpt><trkpt lat="43.1117683" lon="2.535955"><ele>280.4</ele><time>2026-03-30T12:35:08.687Z</time></trkpt><trkpt lat="43.1117883" lon="2.5358283"><ele>279.2</ele><time>2026-03-30T12:35:09.684Z</time></trkpt><trkpt lat="43.1118217" lon="2.535715"><ele>278.0</ele><time>2026-03-30T12:35:10.686Z</time></trkpt><trkpt lat="43.1118767" lon="2.5356167"><ele>278.0</ele><time>2026-03-30T12:35:11.684Z</time></trkpt><trkpt lat="43.1119467" lon="2.5355317"><ele>278.0</ele><time>2026-03-30T12:35:12.687Z</time></trkpt><trkpt lat="43.112035" lon="2.5354683"><ele>278.0</ele><time>2026-03-30T12:35:13.684Z</time></trkpt><trkpt lat="43.11213" lon="2.535425"><ele>278.0</ele><time>2026-03-30T12:35:14.689Z</time></trkpt><trkpt lat="43.1122167" lon="2.535385"><ele>278.0</ele><time>2026-03-30T12:35:15.684Z</time></trkpt><trkpt lat="43.1123" lon="2.53535"><ele>277.1428571428571</ele><time>2026-03-30T12:35:16.687Z</time></trkpt><trkpt lat="43.11238" lon="2.535325"><ele>276.2857142857143</ele><time>2026-03-30T12:35:17.684Z</time></trkpt><trkpt lat="43.1124567" lon="2.5353333"><ele>275.42857142857144</ele><time>2026-03-30T12:35:18.685Z</time></trkpt><trkpt lat="43.112525" lon="2.5353683"><ele>274.57142857142856</ele><time>2026-03-30T12:35:19.685Z</time></trkpt><trkpt lat="43.11258" lon="2.5354333"><ele>273.7142857142857</ele><time>2026-03-30T12:35:20.685Z</time></trkpt><trkpt lat="43.11264" lon="2.5354917"><ele>272.85714285714283</ele><time>2026-03-30T12:35:21.688Z</time></trkpt><trkpt lat="43.1127" lon="2.5355333"><ele>272.0</ele><time>2026-03-30T12:35:22.688Z</time></trkpt><trkpt lat="43.112765" lon="2.5355267"><ele>271.5</ele><time>2026-03-30T12:35:23.686Z</time></trkpt><trkpt lat="43.112815" lon="2.535455"><ele>271.0</ele><time>2026-03-30T12:35:24.685Z</time></trkpt><trkpt lat="43.112855" lon="2.535355"><ele>270.5</ele><time>2026-03-30T12:35:25.687Z</time></trkpt><trkpt lat="43.11289" lon="2.5352567"><ele>270.0</ele><time>2026-03-30T12:35:26.686Z</time></trkpt><trkpt lat="43.112925" lon="2.5351683"><ele>269.5</ele><time>2026-03-30T12:35:27.685Z</time></trkpt><trkpt lat="43.11299" lon="2.53505"><ele>269.0</ele><time>2026-03-30T12:35:29.686Z</time></trkpt><trkpt lat="43.1130767" lon="2.5350333"><ele>269.0</ele><time>2026-03-30T12:35:31.685Z</time></trkpt><trkpt lat="43.11311" lon="2.535155"><ele>269.0</ele><time>2026-03-30T12:35:33.686Z</time></trkpt><trkpt lat="43.1130783" lon="2.5353067"><ele>269.0</ele><time>2026-03-30T12:35:35.687Z</time></trkpt><trkpt lat="43.11309" lon="2.5354533"><ele>269.0</ele><time>2026-03-30T12:35:37.686Z</time></trkpt><trkpt lat="43.113195" lon="2.5354517"><ele>269.0</ele><time>2026-03-30T12:35:39.685Z</time></trkpt><trkpt lat="43.11327" lon="2.535365"><ele>266.0</ele><time>2026-03-30T12:35:40.686Z</time></trkpt><trkpt lat="43.1133417" lon="2.5352467"><ele>263.0</ele><time>2026-03-30T12:35:41.692Z</time></trkpt><trkpt lat="43.1133983" lon="2.53514"><ele>260.0</ele><time>2026-03-30T12:35:42.687Z</time></trkpt><trkpt lat="43.113455" lon="2.534955"><ele>257.0</ele><time>2026-03-30T12:35:43.688Z</time></trkpt><trkpt lat="43.113495" lon="2.5347717"><ele>257.0</ele><time>2026-03-30T12:35:44.687Z</time></trkpt><trkpt lat="43.1135183" lon="2.534595"><ele>257.0</ele><time>2026-03-30T12:35:45.685Z</time></trkpt><trkpt lat="43.1135483" lon="2.5344283"><ele>257.0</ele><time>2026-03-30T12:35:46.688Z</time></trkpt><trkpt lat="43.113585" lon="2.5342583"><ele>257.0</ele><time>2026-03-30T12:35:47.688Z</time></trkpt><trkpt lat="43.1136317" lon="2.5340883"><ele>255.75</ele><time>2026-03-30T12:35:48.686Z</time></trkpt><trkpt lat="43.1136867" lon="2.53392"><ele>254.5</ele><time>2026-03-30T12:35:49.687Z</time></trkpt><trkpt lat="43.1137417" lon="2.5337533"><ele>253.25</ele><time>2026-03-30T12:35:50.687Z</time></trkpt><trkpt lat="43.1137933" lon="2.5335917"><ele>252.0</ele><time>2026-03-30T12:35:51.689Z</time></trkpt><trkpt lat="43.11384" lon="2.53344"><ele>251.75</ele><time>2026-03-30T12:35:52.686Z</time></trkpt><trkpt lat="43.1138867" lon="2.533295"><ele>251.5</ele><time>2026-03-30T12:35:53.688Z</time></trkpt><trkpt lat="43.1139383" lon="2.53315"><ele>251.25</ele><time>2026-03-30T12:35:54.687Z</time></trkpt><trkpt lat="43.114" lon="2.5330167"><ele>251.0</ele><time>2026-03-30T12:35:55.686Z</time></trkpt><trkpt lat="43.1140683" lon="2.532905"><ele>247.60000000000002</ele><time>2026-03-30T12:35:56.688Z</time></trkpt><trkpt lat="43.1141367" lon="2.5328017"><ele>244.20000000000002</ele><time>2026-03-30T12:35:57.687Z</time></trkpt><trkpt lat="43.1142083" lon="2.53271"><ele>240.79999999999998</ele><time>2026-03-30T12:35:58.686Z</time></trkpt><trkpt lat="43.1142883" lon="2.53264"><ele>237.39999999999998</ele><time>2026-03-30T12:35:59.686Z</time></trkpt><trkpt lat="43.114375" lon="2.53261"><ele>234.0</ele><time>2026-03-30T12:36:00.686Z</time></trkpt><trkpt lat="43.114465" lon="2.5326183"><ele>234.0</ele><time>2026-03-30T12:36:01.686Z</time></trkpt><trkpt lat="43.1145683" lon="2.5326717"><ele>234.0</ele><time>2026-03-30T12:36:02.686Z</time></trkpt><trkpt lat="43.1146783" lon="2.532735"><ele>234.0</ele><time>2026-03-30T12:36:03.686Z</time></trkpt><trkpt lat="43.114795" lon="2.5328033"><ele>234.0</ele><time>2026-03-30T12:36:04.685Z</time></trkpt><trkpt lat="43.1149267" lon="2.53287"><ele>233.75</ele><time>2026-03-30T12:36:05.686Z</time></trkpt><trkpt lat="43.1150667" lon="2.532935"><ele>233.5</ele><time>2026-03-30T12:36:06.688Z</time></trkpt><trkpt lat="43.1152133" lon="2.5330017"><ele>233.25</ele><time>2026-03-30T12:36:07.685Z</time></trkpt><trkpt lat="43.1153517" lon="2.5330667"><ele>233.0</ele><time>2026-03-30T12:36:08.688Z</time></trkpt><trkpt lat="43.1154817" lon="2.5331383"><ele>233.0</ele><time>2026-03-30T12:36:09.687Z</time></trkpt><trkpt lat="43.1156067" lon="2.5332033"><ele>233.0</ele><time>2026-03-30T12:36:10.685Z</time></trkpt><trkpt lat="43.115735" lon="2.5332617"><ele>233.0</ele><time>2026-03-30T12:36:11.687Z</time></trkpt><trkpt lat="43.1158583" lon="2.53332"><ele>233.0</ele><time>2026-03-30T12:36:12.685Z</time></trkpt><trkpt lat="43.1159767" lon="2.533375"><ele>231.60000000000002</ele><time>2026-03-30T12:36:13.687Z</time></trkpt><trkpt lat="43.1160933" lon="2.5334267"><ele>230.20000000000002</ele><time>2026-03-30T12:36:14.686Z</time></trkpt><trkpt lat="43.1162017" lon="2.533475"><ele>228.8</ele><time>2026-03-30T12:36:15.686Z</time></trkpt><trkpt lat="43.1163033" lon="2.5335217"><ele>227.4</ele><time>2026-03-30T12:36:16.686Z</time></trkpt><trkpt lat="43.116395" lon="2.53357"><ele>226.0</ele><time>2026-03-30T12:36:17.686Z</time></trkpt><trkpt lat="43.116485" lon="2.5336183"><ele>225.16666666666666</ele><time>2026-03-30T12:36:18.686Z</time></trkpt><trkpt lat="43.1165733" lon="2.5336633"><ele>224.33333333333331</ele><time>2026-03-30T12:36:19.686Z</time></trkpt><trkpt lat="43.1166567" lon="2.5337033"><ele>223.5</ele><time>2026-03-30T12:36:20.686Z</time></trkpt><trkpt lat="43.1167333" lon="2.5337383"><ele>222.66666666666669</ele><time>2026-03-30T12:36:21.686Z</time></trkpt><trkpt lat="43.1168033" lon="2.5337683"><ele>221.83333333333334</ele><time>2026-03-30T12:36:22.686Z</time></trkpt><trkpt lat="43.1168683" lon="2.53379"><ele>221.0</ele><time>2026-03-30T12:36:23.685Z</time></trkpt><trkpt lat="43.11697" lon="2.5338033"><ele>221.0</ele><time>2026-03-30T12:36:25.686Z</time></trkpt><trkpt lat="43.1170367" lon="2.5337517"><ele>221.00000000000003</ele><time>2026-03-30T12:36:27.685Z</time></trkpt><trkpt lat="43.117035" lon="2.5335917"><ele>221.00000000000003</ele><time>2026-03-30T12:36:29.685Z</time></trkpt><trkpt lat="43.116995" lon="2.5335033"><ele>221.0</ele><time>2026-03-30T12:36:30.688Z</time></trkpt><trkpt lat="43.11693" lon="2.533405"><ele>221.0</ele><time>2026-03-30T12:36:31.688Z</time></trkpt><trkpt lat="43.1168633" lon="2.5332933"><ele>221.0</ele><time>2026-03-30T12:36:32.686Z</time></trkpt><trkpt lat="43.1168017" lon="2.533165"><ele>221.0</ele><time>2026-03-30T12:36:33.686Z</time></trkpt><trkpt lat="43.1167383" lon="2.5330183"><ele>221.0</ele><time>2026-03-30T12:36:34.685Z</time></trkpt><trkpt lat="43.1166733" lon="2.5328667"><ele>221.0</ele><time>2026-03-30T12:36:35.687Z</time></trkpt><trkpt lat="43.1166083" lon="2.532705"><ele>221.5</ele><time>2026-03-30T12:36:36.686Z</time></trkpt><trkpt lat="43.11654" lon="2.5325317"><ele>222.0</ele><time>2026-03-30T12:36:37.686Z</time></trkpt><trkpt lat="43.1164717" lon="2.53235"><ele>222.5</ele><time>2026-03-30T12:36:38.686Z</time></trkpt><trkpt lat="43.116405" lon="2.5321667"><ele>223.0</ele><time>2026-03-30T12:36:39.686Z</time></trkpt><trkpt lat="43.11634" lon="2.531985"><ele>223.0</ele><time>2026-03-30T12:36:40.685Z</time></trkpt><trkpt lat="43.1162767" lon="2.53181"><ele>223.0</ele><time>2026-03-30T12:36:41.687Z</time></trkpt><trkpt lat="43.1162133" lon="2.5316433"><ele>223.0</ele><time>2026-03-30T12:36:42.687Z</time></trkpt><trkpt lat="43.1161483" lon="2.53148"><ele>223.0</ele><time>2026-03-30T12:36:43.687Z</time></trkpt><trkpt lat="43.1160817" lon="2.5313183"><ele>222.75</ele><time>2026-03-30T12:36:44.687Z</time></trkpt><trkpt lat="43.1160067" lon="2.5311633"><ele>222.5</ele><time>2026-03-30T12:36:45.688Z</time></trkpt><trkpt lat="43.115925" lon="2.53101"><ele>222.25</ele><time>2026-03-30T12:36:46.687Z</time></trkpt><trkpt lat="43.1158233" lon="2.530865"><ele>222.0</ele><time>2026-03-30T12:36:47.69Z</time></trkpt><trkpt lat="43.1157183" lon="2.5307267"><ele>222.25</ele><time>2026-03-30T12:36:48.687Z</time></trkpt><trkpt lat="43.1156117" lon="2.5305983"><ele>222.5</ele><time>2026-03-30T12:36:49.687Z</time></trkpt><trkpt lat="43.11551" lon="2.5304767"><ele>222.75</ele><time>2026-03-30T12:36:50.688Z</time></trkpt><trkpt lat="43.1154167" lon="2.5303667"><ele>223.0</ele><time>2026-03-30T12:36:51.687Z</time></trkpt><trkpt lat="43.1153333" lon="2.5302683"><ele>222.99999999999997</ele><time>2026-03-30T12:36:52.687Z</time></trkpt><trkpt lat="43.1152583" lon="2.53018"><ele>223.0</ele><time>2026-03-30T12:36:53.688Z</time></trkpt><trkpt lat="43.1151933" lon="2.5301033"><ele>223.0</ele><time>2026-03-30T12:36:54.686Z</time></trkpt><trkpt lat="43.1151417" lon="2.5300333"><ele>223.0</ele><time>2026-03-30T12:36:55.685Z</time></trkpt><trkpt lat="43.1150983" lon="2.5298783"><ele>222.99999999999997</ele><time>2026-03-30T12:36:57.689Z</time></trkpt><trkpt lat="43.1150967" lon="2.5297833"><ele>223.0</ele><time>2026-03-30T12:36:58.685Z</time></trkpt><trkpt lat="43.1151083" lon="2.5296833"><ele>223.0</ele><time>2026-03-30T12:36:59.685Z</time></trkpt><trkpt lat="43.1151467" lon="2.5295717"><ele>223.0</ele><time>2026-03-30T12:37:00.688Z</time></trkpt><trkpt lat="43.1151967" lon="2.52945"><ele>223.0</ele><time>2026-03-30T12:37:01.686Z</time></trkpt><trkpt lat="43.1152383" lon="2.529305"><ele>223.0</ele><time>2026-03-30T12:37:02.687Z</time></trkpt><trkpt lat="43.1152683" lon="2.5291433"><ele>223.0</ele><time>2026-03-30T12:37:03.686Z</time></trkpt><trkpt lat="43.1152833" lon="2.5289767"><ele>222.0</ele><time>2026-03-30T12:37:04.686Z</time></trkpt><trkpt lat="43.1152983" lon="2.52881"><ele>221.0</ele><time>2026-03-30T12:37:05.685Z</time></trkpt><trkpt lat="43.1153083" lon="2.5286483"><ele>220.0</ele><time>2026-03-30T12:37:06.687Z</time></trkpt><trkpt lat="43.115315" lon="2.5284933"><ele>219.0</ele><time>2026-03-30T12:37:07.686Z</time></trkpt><trkpt lat="43.115325" lon="2.52835"><ele>218.83333333333334</ele><time>2026-03-30T12:37:08.687Z</time></trkpt><trkpt lat="43.115335" lon="2.528225"><ele>218.66666666666669</ele><time>2026-03-30T12:37:09.686Z</time></trkpt><trkpt lat="43.11535" lon="2.5281183"><ele>218.5</ele><time>2026-03-30T12:37:10.688Z</time></trkpt><trkpt lat="43.115385" lon="2.5280417"><ele>218.33333333333334</ele><time>2026-03-30T12:37:11.687Z</time></trkpt><trkpt lat="43.11544" lon="2.527985"><ele>218.16666666666669</ele><time>2026-03-30T12:37:12.687Z</time></trkpt><trkpt lat="43.1155" lon="2.5279533"><ele>218.0</ele><time>2026-03-30T12:37:13.685Z</time></trkpt><trkpt lat="43.11558" lon="2.5279483"><ele>218.0</ele><time>2026-03-30T12:37:14.688Z</time></trkpt><trkpt lat="43.1156633" lon="2.527935"><ele>218.0</ele><time>2026-03-30T12:37:15.687Z</time></trkpt><trkpt lat="43.1157417" lon="2.5278917"><ele>218.0</ele><time>2026-03-30T12:37:16.687Z</time></trkpt><trkpt lat="43.1158117" lon="2.5278067"><ele>218.0</ele><time>2026-03-30T12:37:17.686Z</time></trkpt><trkpt lat="43.115865" lon="2.5276733"><ele>218.0</ele><time>2026-03-30T12:37:18.687Z</time></trkpt><trkpt lat="43.11592" lon="2.527535"><ele>219.25</ele><time>2026-03-30T12:37:19.685Z</time></trkpt><trkpt lat="43.11598" lon="2.5274017"><ele>220.5</ele><time>2026-03-30T12:37:20.687Z</time></trkpt><trkpt lat="43.11604" lon="2.5272767"><ele>221.75</ele><time>2026-03-30T12:37:21.686Z</time></trkpt><trkpt lat="43.116095" lon="2.5271367"><ele>223.0</ele><time>2026-03-30T12:37:22.686Z</time></trkpt><trkpt lat="43.1161467" lon="2.5269833"><ele>223.75</ele><time>2026-03-30T12:37:23.685Z</time></trkpt><trkpt lat="43.1161833" lon="2.5268183"><ele>224.5</ele><time>2026-03-30T12:37:24.686Z</time></trkpt><trkpt lat="43.1162083" lon="2.5266417"><ele>225.25</ele><time>2026-03-30T12:37:25.686Z</time></trkpt><trkpt lat="43.11624" lon="2.5264733"><ele>226.0</ele><time>2026-03-30T12:37:26.687Z</time></trkpt><trkpt lat="43.1162833" lon="2.5263167"><ele>228.5</ele><time>2026-03-30T12:37:27.686Z</time></trkpt><trkpt lat="43.1163383" lon="2.5261683"><ele>231.0</ele><time>2026-03-30T12:37:28.686Z</time></trkpt><trkpt lat="43.1164" lon="2.52603"><ele>233.5</ele><time>2026-03-30T12:37:29.686Z</time></trkpt><trkpt lat="43.1164583" lon="2.5259"><ele>236.0</ele><time>2026-03-30T12:37:30.685Z</time></trkpt><trkpt lat="43.1165033" lon="2.5257533"><ele>236.0</ele><time>2026-03-30T12:37:31.685Z</time></trkpt><trkpt lat="43.1165233" lon="2.52561"><ele>236.00000000000003</ele><time>2026-03-30T12:37:32.688Z</time></trkpt><trkpt lat="43.1165233" lon="2.5254733"><ele>236.00000000000003</ele><time>2026-03-30T12:37:33.686Z</time></trkpt><trkpt lat="43.116515" lon="2.5253433"><ele>236.0</ele><time>2026-03-30T12:37:34.686Z</time></trkpt><trkpt lat="43.1165167" lon="2.525225"><ele>236.0</ele><time>2026-03-30T12:37:35.686Z</time></trkpt><trkpt lat="43.1165283" lon="2.5251167"><ele>236.4</ele><time>2026-03-30T12:37:36.687Z</time></trkpt><trkpt lat="43.116565" lon="2.5250167"><ele>236.8</ele><time>2026-03-30T12:37:37.687Z</time></trkpt><trkpt lat="43.1166183" lon="2.524915"><ele>237.20000000000002</ele><time>2026-03-30T12:37:38.686Z</time></trkpt><trkpt lat="43.1166917" lon="2.52481"><ele>237.60000000000002</ele><time>2026-03-30T12:37:39.686Z</time></trkpt><trkpt lat="43.116775" lon="2.5247067"><ele>238.0</ele><time>2026-03-30T12:37:40.685Z</time></trkpt><trkpt lat="43.1168667" lon="2.5245983"><ele>240.5</ele><time>2026-03-30T12:37:41.685Z</time></trkpt><trkpt lat="43.1169567" lon="2.5244783"><ele>243.0</ele><time>2026-03-30T12:37:42.687Z</time></trkpt><trkpt lat="43.1170383" lon="2.5243433"><ele>245.5</ele><time>2026-03-30T12:37:43.687Z</time></trkpt><trkpt lat="43.117115" lon="2.524195"><ele>248.0</ele><time>2026-03-30T12:37:44.687Z</time></trkpt><trkpt lat="43.117175" lon="2.5240467"><ele>248.00000000000003</ele><time>2026-03-30T12:37:45.687Z</time></trkpt><trkpt lat="43.1172233" lon="2.5239167"><ele>248.0</ele><time>2026-03-30T12:37:46.687Z</time></trkpt><trkpt lat="43.1172683" lon="2.5238017"><ele>248.0</ele><time>2026-03-30T12:37:47.685Z</time></trkpt><trkpt lat="43.1173167" lon="2.523705"><ele>248.0</ele><time>2026-03-30T12:37:48.686Z</time></trkpt><trkpt lat="43.117375" lon="2.5236417"><ele>248.00000000000003</ele><time>2026-03-30T12:37:49.685Z</time></trkpt><trkpt lat="43.11744" lon="2.5235917"><ele>248.0</ele><time>2026-03-30T12:37:50.686Z</time></trkpt><trkpt lat="43.11751" lon="2.5235383"><ele>247.4</ele><time>2026-03-30T12:37:51.688Z</time></trkpt><trkpt lat="43.117575" lon="2.5234767"><ele>246.8</ele><time>2026-03-30T12:37:52.685Z</time></trkpt><trkpt lat="43.1176367" lon="2.52339"><ele>246.2</ele><time>2026-03-30T12:37:53.685Z</time></trkpt><trkpt lat="43.117695" lon="2.5232717"><ele>245.6</ele><time>2026-03-30T12:37:54.686Z</time></trkpt><trkpt lat="43.1177583" lon="2.5231483"><ele>245.0</ele><time>2026-03-30T12:37:55.687Z</time></trkpt><trkpt lat="43.11782" lon="2.5230167"><ele>246.6</ele><time>2026-03-30T12:37:56.691Z</time></trkpt><trkpt lat="43.117885" lon="2.5228883"><ele>248.2</ele><time>2026-03-30T12:37:57.685Z</time></trkpt><trkpt lat="43.1179583" lon="2.5227717"><ele>249.8</ele><time>2026-03-30T12:37:58.687Z</time></trkpt><trkpt lat="43.11803" lon="2.522665"><ele>251.4</ele><time>2026-03-30T12:37:59.688Z</time></trkpt><trkpt lat="43.1180967" lon="2.5225617"><ele>253.0</ele><time>2026-03-30T12:38:00.687Z</time></trkpt><trkpt lat="43.1181533" lon="2.5224467"><ele>253.0</ele><time>2026-03-30T12:38:01.685Z</time></trkpt><trkpt lat="43.118195" lon="2.5223283"><ele>253.0</ele><time>2026-03-30T12:38:02.687Z</time></trkpt><trkpt lat="43.1182233" lon="2.5222083"><ele>253.0</ele><time>2026-03-30T12:38:03.686Z</time></trkpt><trkpt lat="43.1182467" lon="2.5220883"><ele>253.0</ele><time>2026-03-30T12:38:04.687Z</time></trkpt><trkpt lat="43.1182833" lon="2.5219717"><ele>253.0</ele><time>2026-03-30T12:38:05.687Z</time></trkpt><trkpt lat="43.1183317" lon="2.52186"><ele>253.2</ele><time>2026-03-30T12:38:06.686Z</time></trkpt><trkpt lat="43.11838" lon="2.5217483"><ele>253.4</ele><time>2026-03-30T12:38:07.686Z</time></trkpt><trkpt lat="43.1184067" lon="2.5216233"><ele>253.59999999999997</ele><time>2026-03-30T12:38:08.687Z</time></trkpt><trkpt lat="43.1184" lon="2.52149"><ele>253.79999999999998</ele><time>2026-03-30T12:38:09.687Z</time></trkpt><trkpt lat="43.11838" lon="2.5213583"><ele>254.0</ele><time>2026-03-30T12:38:10.686Z</time></trkpt><trkpt lat="43.1183517" lon="2.521225"><ele>254.0</ele><time>2026-03-30T12:38:11.691Z</time></trkpt><trkpt lat="43.1183267" lon="2.5210883"><ele>253.99999999999997</ele><time>2026-03-30T12:38:12.687Z</time></trkpt><trkpt lat="43.1182917" lon="2.520965"><ele>253.99999999999997</ele><time>2026-03-30T12:38:13.685Z</time></trkpt><trkpt lat="43.11826" lon="2.5208383"><ele>254.0</ele><time>2026-03-30T12:38:14.685Z</time></trkpt><trkpt lat="43.1182467" lon="2.520695"><ele>254.0</ele><time>2026-03-30T12:38:15.686Z</time></trkpt><trkpt lat="43.1182533" lon="2.5205383"><ele>254.5</ele><time>2026-03-30T12:38:16.686Z</time></trkpt><trkpt lat="43.1182667" lon="2.52037"><ele>255.0</ele><time>2026-03-30T12:38:17.685Z</time></trkpt><trkpt lat="43.1182683" lon="2.5202"><ele>255.5</ele><time>2026-03-30T12:38:18.686Z</time></trkpt><trkpt lat="43.1182517" lon="2.5200283"><ele>256.0</ele><time>2026-03-30T12:38:19.686Z</time></trkpt><trkpt lat="43.11823" lon="2.5198583"><ele>255.5</ele><time>2026-03-30T12:38:20.686Z</time></trkpt><trkpt lat="43.11821" lon="2.5196883"><ele>255.0</ele><time>2026-03-30T12:38:21.685Z</time></trkpt><trkpt lat="43.1181967" lon="2.519505"><ele>254.5</ele><time>2026-03-30T12:38:22.687Z</time></trkpt><trkpt lat="43.1181917" lon="2.51932"><ele>254.0</ele><time>2026-03-30T12:38:23.686Z</time></trkpt><trkpt lat="43.1181967" lon="2.5191383"><ele>254.0</ele><time>2026-03-30T12:38:24.685Z</time></trkpt><trkpt lat="43.1182083" lon="2.5189583"><ele>254.0</ele><time>2026-03-30T12:38:25.686Z</time></trkpt><trkpt lat="43.1182233" lon="2.518775"><ele>254.0</ele><time>2026-03-30T12:38:26.688Z</time></trkpt><trkpt lat="43.118245" lon="2.5185867"><ele>254.0</ele><time>2026-03-30T12:38:27.685Z</time></trkpt><trkpt lat="43.11826" lon="2.5183917"><ele>256.5</ele><time>2026-03-30T12:38:28.687Z</time></trkpt><trkpt lat="43.1182717" lon="2.5182033"><ele>259.0</ele><time>2026-03-30T12:38:29.685Z</time></trkpt><trkpt lat="43.1182817" lon="2.5180183"><ele>261.5</ele><time>2026-03-30T12:38:30.686Z</time></trkpt><trkpt lat="43.1182883" lon="2.5178333"><ele>264.0</ele><time>2026-03-30T12:38:31.686Z</time></trkpt><trkpt lat="43.1182967" lon="2.5176583"><ele>264.2</ele><time>2026-03-30T12:38:32.685Z</time></trkpt><trkpt lat="43.1183" lon="2.5174967"><ele>264.4</ele><time>2026-03-30T12:38:33.685Z</time></trkpt><trkpt lat="43.1182967" lon="2.517355"><ele>264.6</ele><time>2026-03-30T12:38:34.686Z</time></trkpt><trkpt lat="43.1182883" lon="2.5172317"><ele>264.8</ele><time>2026-03-30T12:38:35.685Z</time></trkpt><trkpt lat="43.1182767" lon="2.51712"><ele>265.0</ele><time>2026-03-30T12:38:36.685Z</time></trkpt><trkpt lat="43.1182683" lon="2.51702"><ele>265.0</ele><time>2026-03-30T12:38:37.685Z</time></trkpt><trkpt lat="43.118265" lon="2.5169217"><ele>265.0</ele><time>2026-03-30T12:38:38.686Z</time></trkpt><trkpt lat="43.118275" lon="2.5168167"><ele>265.0</ele><time>2026-03-30T12:38:39.687Z</time></trkpt><trkpt lat="43.1183017" lon="2.5167133"><ele>265.0</ele><time>2026-03-30T12:38:40.686Z</time></trkpt><trkpt lat="43.1183433" lon="2.516615"><ele>265.0</ele><time>2026-03-30T12:38:41.685Z</time></trkpt><trkpt lat="43.1184" lon="2.51651"><ele>265.0</ele><time>2026-03-30T12:38:42.686Z</time></trkpt><trkpt lat="43.1184667" lon="2.516395"><ele>265.0</ele><time>2026-03-30T12:38:43.687Z</time></trkpt><trkpt lat="43.1185383" lon="2.516275"><ele>265.0</ele><time>2026-03-30T12:38:44.686Z</time></trkpt><trkpt lat="43.1186033" lon="2.516155"><ele>265.0</ele><time>2026-03-30T12:38:45.685Z</time></trkpt><trkpt lat="43.1186567" lon="2.5160267"><ele>265.0</ele><time>2026-03-30T12:38:46.686Z</time></trkpt><trkpt lat="43.1186983" lon="2.5158967"><ele>265.0</ele><time>2026-03-30T12:38:47.686Z</time></trkpt><trkpt lat="43.1187383" lon="2.5157617"><ele>265.0</ele><time>2026-03-30T12:38:48.686Z</time></trkpt><trkpt lat="43.118785" lon="2.515635"><ele>265.0</ele><time>2026-03-30T12:38:49.686Z</time></trkpt><trkpt lat="43.1188467" lon="2.5155167"><ele>265.0</ele><time>2026-03-30T12:38:50.686Z</time></trkpt><trkpt lat="43.1189267" lon="2.5154017"><ele>265.0</ele><time>2026-03-30T12:38:51.686Z</time></trkpt><trkpt lat="43.1190217" lon="2.5152883"><ele>266.75</ele><time>2026-03-30T12:38:52.69Z</time></trkpt><trkpt lat="43.1191267" lon="2.5151833"><ele>268.5</ele><time>2026-03-30T12:38:53.689Z</time></trkpt><trkpt lat="43.119235" lon="2.5150817"><ele>270.25</ele><time>2026-03-30T12:38:54.685Z</time></trkpt><trkpt lat="43.1193417" lon="2.514985"><ele>272.0</ele><time>2026-03-30T12:38:55.686Z</time></trkpt><trkpt lat="43.1194567" lon="2.5149083"><ele>272.0</ele><time>2026-03-30T12:38:56.688Z</time></trkpt><trkpt lat="43.119585" lon="2.51484"><ele>272.0</ele><time>2026-03-30T12:38:57.686Z</time></trkpt><trkpt lat="43.1197167" lon="2.5147833"><ele>272.0</ele><time>2026-03-30T12:38:58.685Z</time></trkpt><trkpt lat="43.1198483" lon="2.51472"><ele>272.0</ele><time>2026-03-30T12:38:59.685Z</time></trkpt><trkpt lat="43.1199867" lon="2.5146517"><ele>273.75</ele><time>2026-03-30T12:39:00.685Z</time></trkpt><trkpt lat="43.1201233" lon="2.5145867"><ele>275.5</ele><time>2026-03-30T12:39:01.685Z</time></trkpt><trkpt lat="43.1202517" lon="2.5145267"><ele>277.25</ele><time>2026-03-30T12:39:02.687Z</time></trkpt><trkpt lat="43.12037" lon="2.5144767"><ele>279.0</ele><time>2026-03-30T12:39:03.685Z</time></trkpt><trkpt lat="43.1204817" lon="2.51442"><ele>279.0</ele><time>2026-03-30T12:39:04.686Z</time></trkpt><trkpt lat="43.1205917" lon="2.5143733"><ele>279.0</ele><time>2026-03-30T12:39:05.686Z</time></trkpt><trkpt lat="43.12071" lon="2.5143383"><ele>279.0</ele><time>2026-03-30T12:39:06.689Z</time></trkpt><trkpt lat="43.1208317" lon="2.5143117"><ele>279.0</ele><time>2026-03-30T12:39:07.686Z</time></trkpt><trkpt lat="43.1209433" lon="2.51429"><ele>281.2</ele><time>2026-03-30T12:39:08.686Z</time></trkpt><trkpt lat="43.1210417" lon="2.51427"><ele>283.4</ele><time>2026-03-30T12:39:09.685Z</time></trkpt><trkpt lat="43.1211217" lon="2.5142483"><ele>285.6</ele><time>2026-03-30T12:39:10.687Z</time></trkpt><trkpt lat="43.121185" lon="2.5142183"><ele>287.8</ele><time>2026-03-30T12:39:11.686Z</time></trkpt><trkpt lat="43.1212183" lon="2.5140783"><ele>290.0</ele><time>2026-03-30T12:39:13.685Z</time></trkpt><trkpt lat="43.1211667" lon="2.5139333"><ele>290.0</ele><time>2026-03-30T12:39:15.687Z</time></trkpt><trkpt lat="43.1210917" lon="2.51388"><ele>290.0</ele><time>2026-03-30T12:39:16.687Z</time></trkpt><trkpt lat="43.12101" lon="2.51385"><ele>290.0</ele><time>2026-03-30T12:39:17.688Z</time></trkpt><trkpt lat="43.1209433" lon="2.5138117"><ele>290.0</ele><time>2026-03-30T12:39:18.687Z</time></trkpt><trkpt lat="43.120895" lon="2.5137517"><ele>290.0</ele><time>2026-03-30T12:39:19.687Z</time></trkpt><trkpt lat="43.1208717" lon="2.51358"><ele>290.0</ele><time>2026-03-30T12:39:21.686Z</time></trkpt><trkpt lat="43.1209033" lon="2.5134917"><ele>290.2</ele><time>2026-03-30T12:39:22.686Z</time></trkpt><trkpt lat="43.1209583" lon="2.51341"><ele>290.4</ele><time>2026-03-30T12:39:23.687Z</time></trkpt><trkpt lat="43.1210383" lon="2.513355"><ele>290.6</ele><time>2026-03-30T12:39:24.687Z</time></trkpt><trkpt lat="43.1211233" lon="2.513295"><ele>290.8</ele><time>2026-03-30T12:39:25.687Z</time></trkpt><trkpt lat="43.1212083" lon="2.5132367"><ele>291.0</ele><time>2026-03-30T12:39:26.687Z</time></trkpt><trkpt lat="43.1212933" lon="2.5131683"><ele>291.0</ele><time>2026-03-30T12:39:27.686Z</time></trkpt><trkpt lat="43.121365" lon="2.5130733"><ele>291.0</ele><time>2026-03-30T12:39:28.688Z</time></trkpt><trkpt lat="43.121415" lon="2.5129617"><ele>291.0</ele><time>2026-03-30T12:39:29.686Z</time></trkpt><trkpt lat="43.1214483" lon="2.51284"><ele>291.0</ele><time>2026-03-30T12:39:30.689Z</time></trkpt><trkpt lat="43.1214783" lon="2.5127217"><ele>291.0</ele><time>2026-03-30T12:39:31.689Z</time></trkpt><trkpt lat="43.1215233" lon="2.5126183"><ele>294.40000000000003</ele><time>2026-03-30T12:39:32.689Z</time></trkpt><trkpt lat="43.1215867" lon="2.5125317"><ele>297.8</ele><time>2026-03-30T12:39:33.688Z</time></trkpt><trkpt lat="43.1216617" lon="2.51246"><ele>301.20000000000005</ele><time>2026-03-30T12:39:34.687Z</time></trkpt><trkpt lat="43.121735" lon="2.512385"><ele>304.6</ele><time>2026-03-30T12:39:35.687Z</time></trkpt><trkpt lat="43.1218" lon="2.5122967"><ele>308.0</ele><time>2026-03-30T12:39:36.687Z</time></trkpt><trkpt lat="43.1218533" lon="2.5121983"><ele>308.0</ele><time>2026-03-30T12:39:37.688Z</time></trkpt><trkpt lat="43.1218917" lon="2.51209"><ele>308.0</ele><time>2026-03-30T12:39:38.687Z</time></trkpt><trkpt lat="43.12191" lon="2.5119717"><ele>308.0</ele><time>2026-03-30T12:39:39.688Z</time></trkpt><trkpt lat="43.1219183" lon="2.5118433"><ele>308.0</ele><time>2026-03-30T12:39:40.687Z</time></trkpt><trkpt lat="43.1219183" lon="2.5117017"><ele>308.0</ele><time>2026-03-30T12:39:41.688Z</time></trkpt><trkpt lat="43.121905" lon="2.5115617"><ele>308.6666666666667</ele><time>2026-03-30T12:39:42.687Z</time></trkpt><trkpt lat="43.1218933" lon="2.511435"><ele>309.33333333333337</ele><time>2026-03-30T12:39:43.688Z</time></trkpt><trkpt lat="43.1218917" lon="2.51132"><ele>310.0</ele><time>2026-03-30T12:39:44.687Z</time></trkpt><trkpt lat="43.1219" lon="2.5112067"><ele>310.6666666666667</ele><time>2026-03-30T12:39:45.687Z</time></trkpt><trkpt lat="43.1219117" lon="2.5111033"><ele>311.3333333333333</ele><time>2026-03-30T12:39:46.686Z</time></trkpt><trkpt lat="43.1219233" lon="2.5110167"><ele>312.0</ele><time>2026-03-30T12:39:47.692Z</time></trkpt><trkpt lat="43.1219233" lon="2.510865"><ele>313.6</ele><time>2026-03-30T12:39:49.688Z</time></trkpt><trkpt lat="43.1219133" lon="2.510735"><ele>315.2</ele><time>2026-03-30T12:39:51.687Z</time></trkpt><trkpt lat="43.1219033" lon="2.510595"><ele>316.8</ele><time>2026-03-30T12:39:53.691Z</time></trkpt><trkpt lat="43.1218933" lon="2.5104583"><ele>318.4</ele><time>2026-03-30T12:39:55.687Z</time></trkpt><trkpt lat="43.121875" lon="2.5103283"><ele>320.0</ele><time>2026-03-30T12:39:57.689Z</time></trkpt><trkpt lat="43.1218467" lon="2.510185"><ele>320.8</ele><time>2026-03-30T12:39:59.685Z</time></trkpt><trkpt lat="43.1218067" lon="2.51005"><ele>321.6</ele><time>2026-03-30T12:40:01.685Z</time></trkpt><trkpt lat="43.1217583" lon="2.50993"><ele>322.4</ele><time>2026-03-30T12:40:03.688Z</time></trkpt><trkpt lat="43.121725" lon="2.50981"><ele>323.2</ele><time>2026-03-30T12:40:05.686Z</time></trkpt><trkpt lat="43.12169" lon="2.5097017"><ele>324.0</ele><time>2026-03-30T12:40:07.692Z</time></trkpt><trkpt lat="43.1216467" lon="2.5096083"><ele>327.2</ele><time>2026-03-30T12:40:09.684Z</time></trkpt><trkpt lat="43.1215617" lon="2.509565"><ele>330.4</ele><time>2026-03-30T12:40:11.685Z</time></trkpt><trkpt lat="43.1214683" lon="2.5094883"><ele>333.6</ele><time>2026-03-30T12:40:13.688Z</time></trkpt><trkpt lat="43.1213983" lon="2.5093917"><ele>336.8</ele><time>2026-03-30T12:40:15.685Z</time></trkpt><trkpt lat="43.1213267" lon="2.5093117"><ele>340.0</ele><time>2026-03-30T12:40:17.687Z</time></trkpt><trkpt lat="43.12123" lon="2.509225"><ele>340.0</ele><time>2026-03-30T12:40:19.687Z</time></trkpt><trkpt lat="43.12112" lon="2.5091433"><ele>340.0</ele><time>2026-03-30T12:40:21.686Z</time></trkpt><trkpt lat="43.1210367" lon="2.509025"><ele>340.0</ele><time>2026-03-30T12:40:23.686Z</time></trkpt><trkpt lat="43.121" lon="2.5089433"><ele>340.0</ele><time>2026-03-30T12:40:24.687Z</time></trkpt><trkpt lat="43.120965" lon="2.508855"><ele>340.0</ele><time>2026-03-30T12:40:25.691Z</time></trkpt><trkpt lat="43.1209033" lon="2.5087367"><ele>340.2</ele><time>2026-03-30T12:40:27.687Z</time></trkpt><trkpt lat="43.1208333" lon="2.5086533"><ele>340.4</ele><time>2026-03-30T12:40:29.686Z</time></trkpt><trkpt lat="43.1207517" lon="2.5085883"><ele>340.6</ele><time>2026-03-30T12:40:31.688Z</time></trkpt><trkpt lat="43.1206867" lon="2.5084817"><ele>340.8</ele><time>2026-03-30T12:40:33.686Z</time></trkpt><trkpt lat="43.12064" lon="2.5083733"><ele>341.0</ele><time>2026-03-30T12:40:35.686Z</time></trkpt><trkpt lat="43.1206067" lon="2.5082833"><ele>343.33333333333337</ele><time>2026-03-30T12:40:37.688Z</time></trkpt><trkpt lat="43.1205867" lon="2.50817"><ele>345.6666666666667</ele><time>2026-03-30T12:40:39.686Z</time></trkpt><trkpt lat="43.120565" lon="2.5080183"><ele>348.0</ele><time>2026-03-30T12:40:41.685Z</time></trkpt><trkpt lat="43.12054" lon="2.5079367"><ele>350.3333333333333</ele><time>2026-03-30T12:40:42.686Z</time></trkpt><trkpt lat="43.1205033" lon="2.507855"><ele>352.66666666666663</ele><time>2026-03-30T12:40:43.686Z</time></trkpt><trkpt lat="43.120465" lon="2.5077817"><ele>355.0</ele><time>2026-03-30T12:40:44.69Z</time></trkpt><trkpt lat="43.12043" lon="2.507705"><ele>355.16666666666663</ele><time>2026-03-30T12:40:45.686Z</time></trkpt><trkpt lat="43.1203917" lon="2.5076267"><ele>355.3333333333333</ele><time>2026-03-30T12:40:46.686Z</time></trkpt><trkpt lat="43.1203483" lon="2.507555"><ele>355.5</ele><time>2026-03-30T12:40:47.686Z</time></trkpt><trkpt lat="43.1202917" lon="2.5074333"><ele>355.6666666666667</ele><time>2026-03-30T12:40:49.685Z</time></trkpt><trkpt lat="43.1202967" lon="2.5072683"><ele>355.83333333333337</ele><time>2026-03-30T12:40:51.686Z</time></trkpt><trkpt lat="43.1203183" lon="2.5071767"><ele>356.0</ele><time>2026-03-30T12:40:52.687Z</time></trkpt><trkpt lat="43.1203483" lon="2.50709"><ele>356.0</ele><time>2026-03-30T12:40:53.686Z</time></trkpt><trkpt lat="43.1203883" lon="2.507005"><ele>356.0</ele><time>2026-03-30T12:40:54.687Z</time></trkpt><trkpt lat="43.1204283" lon="2.5069167"><ele>356.0</ele><time>2026-03-30T12:40:55.687Z</time></trkpt><trkpt lat="43.1204683" lon="2.5068217"><ele>356.0</ele><time>2026-03-30T12:40:56.688Z</time></trkpt><trkpt lat="43.1205067" lon="2.5067267"><ele>356.0</ele><time>2026-03-30T12:40:57.689Z</time></trkpt><trkpt lat="43.120545" lon="2.5066267"><ele>356.0</ele><time>2026-03-30T12:40:58.686Z</time></trkpt><trkpt lat="43.12058" lon="2.5065233"><ele>356.0</ele><time>2026-03-30T12:40:59.687Z</time></trkpt><trkpt lat="43.12061" lon="2.5064133"><ele>356.0</ele><time>2026-03-30T12:41:00.687Z</time></trkpt><trkpt lat="43.1206383" lon="2.5062983"><ele>356.0</ele><time>2026-03-30T12:41:01.686Z</time></trkpt><trkpt lat="43.1206633" lon="2.50618"><ele>356.0</ele><time>2026-03-30T12:41:02.688Z</time></trkpt><trkpt lat="43.1206833" lon="2.50607"><ele>356.0</ele><time>2026-03-30T12:41:03.686Z</time></trkpt><trkpt lat="43.1206967" lon="2.5059783"><ele>356.0</ele><time>2026-03-30T12:41:04.687Z</time></trkpt><trkpt lat="43.120685" lon="2.5058467"><ele>356.4</ele><time>2026-03-30T12:41:06.685Z</time></trkpt><trkpt lat="43.120615" lon="2.5057433"><ele>356.8</ele><time>2026-03-30T12:41:08.686Z</time></trkpt><trkpt lat="43.1205517" lon="2.5055933"><ele>357.2</ele><time>2026-03-30T12:41:10.685Z</time></trkpt><trkpt lat="43.120535" lon="2.5054217"><ele>357.59999999999997</ele><time>2026-03-30T12:41:12.685Z</time></trkpt><trkpt lat="43.1205317" lon="2.50531"><ele>358.0</ele><time>2026-03-30T12:41:13.686Z</time></trkpt><trkpt lat="43.120525" lon="2.5051917"><ele>358.0</ele><time>2026-03-30T12:41:14.686Z</time></trkpt><trkpt lat="43.1205133" lon="2.5050717"><ele>358.0</ele><time>2026-03-30T12:41:15.685Z</time></trkpt><trkpt lat="43.1205017" lon="2.5049567"><ele>358.0</ele><time>2026-03-30T12:41:16.686Z</time></trkpt><trkpt lat="43.120485" lon="2.504845"><ele>358.0</ele><time>2026-03-30T12:41:17.687Z</time></trkpt><trkpt lat="43.12047" lon="2.5047467"><ele>358.0</ele><time>2026-03-30T12:41:18.686Z</time></trkpt><trkpt lat="43.1204833" lon="2.5045683"><ele>358.0</ele><time>2026-03-30T12:41:20.687Z</time></trkpt><trkpt lat="43.1205083" lon="2.5044617"><ele>358.0</ele><time>2026-03-30T12:41:21.686Z</time></trkpt><trkpt lat="43.1205333" lon="2.50436"><ele>358.0</ele><time>2026-03-30T12:41:22.685Z</time></trkpt><trkpt lat="43.120555" lon="2.5042667"><ele>358.0</ele><time>2026-03-30T12:41:23.69Z</time></trkpt><trkpt lat="43.1205717" lon="2.5041733"><ele>358.0</ele><time>2026-03-30T12:41:24.687Z</time></trkpt><trkpt lat="43.1205867" lon="2.5040767"><ele>358.0</ele><time>2026-03-30T12:41:25.685Z</time></trkpt><trkpt lat="43.120605" lon="2.50392"><ele>358.0</ele><time>2026-03-30T12:41:27.686Z</time></trkpt><trkpt lat="43.1205967" lon="2.50379"><ele>358.0</ele><time>2026-03-30T12:41:29.687Z</time></trkpt><trkpt lat="43.1206067" lon="2.5036667"><ele>358.0</ele><time>2026-03-30T12:41:31.685Z</time></trkpt><trkpt lat="43.12064" lon="2.50353"><ele>358.0</ele><time>2026-03-30T12:41:33.688Z</time></trkpt><trkpt lat="43.12068" lon="2.5033933"><ele>358.0</ele><time>2026-03-30T12:41:35.686Z</time></trkpt><trkpt lat="43.1207033" lon="2.5032317"><ele>358.3333333333333</ele><time>2026-03-30T12:41:37.685Z</time></trkpt><trkpt lat="43.1207167" lon="2.5030983"><ele>358.66666666666663</ele><time>2026-03-30T12:41:39.685Z</time></trkpt><trkpt lat="43.1206967" lon="2.50299"><ele>359.0</ele><time>2026-03-30T12:41:41.686Z</time></trkpt><trkpt lat="43.1207117" lon="2.502895"><ele>359.3333333333333</ele><time>2026-03-30T12:41:43.686Z</time></trkpt><trkpt lat="43.120775" lon="2.5028083"><ele>359.6666666666667</ele><time>2026-03-30T12:41:46.686Z</time></trkpt><trkpt lat="43.1208467" lon="2.50275"><ele>360.0</ele><time>2026-03-30T12:41:48.688Z</time></trkpt><trkpt lat="43.1209433" lon="2.50267"><ele>362.8333333333333</ele><time>2026-03-30T12:41:50.687Z</time></trkpt><trkpt lat="43.121025" lon="2.50258"><ele>365.6666666666667</ele><time>2026-03-30T12:41:52.689Z</time></trkpt><trkpt lat="43.12108" lon="2.5024783"><ele>368.5</ele><time>2026-03-30T12:41:54.686Z</time></trkpt><trkpt lat="43.1210433" lon="2.5023933"><ele>371.33333333333337</ele><time>2026-03-30T12:46:48.686Z</time></trkpt><trkpt lat="43.121045" lon="2.5023017"><ele>374.1666666666667</ele><time>2026-03-30T12:46:49.686Z</time></trkpt><trkpt lat="43.1210483" lon="2.5021967"><ele>377.0</ele><time>2026-03-30T12:46:50.687Z</time></trkpt><trkpt lat="43.1210617" lon="2.5020783"><ele>379.0</ele><time>2026-03-30T12:46:51.685Z</time></trkpt><trkpt lat="43.1210933" lon="2.5019583"><ele>381.0</ele><time>2026-03-30T12:46:52.687Z</time></trkpt><trkpt lat="43.1211467" lon="2.5018567"><ele>383.0</ele><time>2026-03-30T12:46:53.687Z</time></trkpt><trkpt lat="43.1212183" lon="2.5017767"><ele>385.0</ele><time>2026-03-30T12:46:54.685Z</time></trkpt><trkpt lat="43.1213117" lon="2.5017167"><ele>387.0</ele><time>2026-03-30T12:46:55.685Z</time></trkpt><trkpt lat="43.1214183" lon="2.501665"><ele>387.0</ele><time>2026-03-30T12:46:56.686Z</time></trkpt><trkpt lat="43.1215333" lon="2.5016183"><ele>387.0</ele><time>2026-03-30T12:46:57.689Z</time></trkpt><trkpt lat="43.1216417" lon="2.5015783"><ele>387.0</ele><time>2026-03-30T12:46:58.686Z</time></trkpt><trkpt lat="43.1217533" lon="2.5015367"><ele>387.0</ele><time>2026-03-30T12:46:59.686Z</time></trkpt><trkpt lat="43.1218633" lon="2.5014933"><ele>386.40000000000003</ele><time>2026-03-30T12:47:00.685Z</time></trkpt><trkpt lat="43.121965" lon="2.5014583"><ele>385.8</ele><time>2026-03-30T12:47:01.687Z</time></trkpt><trkpt lat="43.1220567" lon="2.5014217"><ele>385.2</ele><time>2026-03-30T12:47:02.689Z</time></trkpt><trkpt lat="43.1221417" lon="2.501365"><ele>384.6</ele><time>2026-03-30T12:47:03.686Z</time></trkpt><trkpt lat="43.1222183" lon="2.5012833"><ele>384.0</ele><time>2026-03-30T12:47:04.686Z</time></trkpt><trkpt lat="43.1222683" lon="2.50117"><ele>386.0</ele><time>2026-03-30T12:47:05.69Z</time></trkpt><trkpt lat="43.1222983" lon="2.5010467"><ele>388.0</ele><time>2026-03-30T12:47:06.688Z</time></trkpt><trkpt lat="43.1222883" lon="2.5009117"><ele>390.0</ele><time>2026-03-30T12:47:07.687Z</time></trkpt><trkpt lat="43.1222317" lon="2.50081"><ele>392.0</ele><time>2026-03-30T12:47:08.688Z</time></trkpt><trkpt lat="43.1221583" lon="2.5007267"><ele>394.0</ele><time>2026-03-30T12:47:09.686Z</time></trkpt><trkpt lat="43.1220583" lon="2.5006867"><ele>394.0</ele><time>2026-03-30T12:47:10.686Z</time></trkpt><trkpt lat="43.12196" lon="2.50065"><ele>394.0</ele><time>2026-03-30T12:47:11.685Z</time></trkpt><trkpt lat="43.1218483" lon="2.5006333"><ele>394.0</ele><time>2026-03-30T12:47:12.686Z</time></trkpt><trkpt lat="43.1217317" lon="2.5006167"><ele>394.0</ele><time>2026-03-30T12:47:13.694Z</time></trkpt><trkpt lat="43.1216117" lon="2.500605"><ele>394.0</ele><time>2026-03-30T12:47:14.685Z</time></trkpt><trkpt lat="43.1214967" lon="2.500585"><ele>394.0</ele><time>2026-03-30T12:47:15.686Z</time></trkpt><trkpt lat="43.1213883" lon="2.5005483"><ele>394.0</ele><time>2026-03-30T12:47:16.685Z</time></trkpt><trkpt lat="43.1212933" lon="2.5004917"><ele>394.0</ele><time>2026-03-30T12:47:17.686Z</time></trkpt><trkpt lat="43.1212183" lon="2.5003967"><ele>394.0</ele><time>2026-03-30T12:47:18.686Z</time></trkpt><trkpt lat="43.121165" lon="2.500275"><ele>396.0</ele><time>2026-03-30T12:47:19.686Z</time></trkpt><trkpt lat="43.121145" lon="2.500135"><ele>398.0</ele><time>2026-03-30T12:47:20.688Z</time></trkpt><trkpt lat="43.121185" lon="2.4999967"><ele>400.0</ele><time>2026-03-30T12:47:21.686Z</time></trkpt><trkpt lat="43.121265" lon="2.49988"><ele>402.0</ele><time>2026-03-30T12:47:22.687Z</time></trkpt><trkpt lat="43.1213633" lon="2.49979"><ele>404.0</ele><time>2026-03-30T12:47:23.685Z</time></trkpt><trkpt lat="43.1214733" lon="2.499705"><ele>404.75</ele><time>2026-03-30T12:47:24.687Z</time></trkpt><trkpt lat="43.1215767" lon="2.4996083"><ele>405.5</ele><time>2026-03-30T12:47:25.686Z</time></trkpt><trkpt lat="43.12166" lon="2.4994883"><ele>406.25</ele><time>2026-03-30T12:47:26.686Z</time></trkpt><trkpt lat="43.1217233" lon="2.499345"><ele>407.0</ele><time>2026-03-30T12:47:27.687Z</time></trkpt><trkpt lat="43.1217817" lon="2.4991917"><ele>407.0</ele><time>2026-03-30T12:47:28.686Z</time></trkpt><trkpt lat="43.1218317" lon="2.4990333"><ele>407.0</ele><time>2026-03-30T12:47:29.686Z</time></trkpt><trkpt lat="43.12186" lon="2.4988733"><ele>407.0</ele><time>2026-03-30T12:47:30.686Z</time></trkpt><trkpt lat="43.1218683" lon="2.49872"><ele>407.0</ele><time>2026-03-30T12:47:31.686Z</time></trkpt><trkpt lat="43.1218467" lon="2.4985667"><ele>408.75</ele><time>2026-03-30T12:47:32.687Z</time></trkpt><trkpt lat="43.121805" lon="2.49842"><ele>410.5</ele><time>2026-03-30T12:47:33.686Z</time></trkpt><trkpt lat="43.12178" lon="2.4982767"><ele>412.25</ele><time>2026-03-30T12:47:34.686Z</time></trkpt><trkpt lat="43.1218017" lon="2.498125"><ele>414.0</ele><time>2026-03-30T12:47:35.687Z</time></trkpt><trkpt lat="43.1218567" lon="2.4979767"><ele>416.75</ele><time>2026-03-30T12:47:36.686Z</time></trkpt><trkpt lat="43.1219383" lon="2.49784"><ele>419.5</ele><time>2026-03-30T12:47:37.685Z</time></trkpt><trkpt lat="43.1220333" lon="2.49772"><ele>422.25</ele><time>2026-03-30T12:47:38.686Z</time></trkpt><trkpt lat="43.1221433" lon="2.4976133"><ele>425.0</ele><time>2026-03-30T12:47:39.684Z</time></trkpt><trkpt lat="43.1222633" lon="2.4975183"><ele>425.0</ele><time>2026-03-30T12:47:40.687Z</time></trkpt><trkpt lat="43.1223833" lon="2.4974233"><ele>425.0</ele><time>2026-03-30T12:47:41.684Z</time></trkpt><trkpt lat="43.122505" lon="2.4973283"><ele>425.0</ele><time>2026-03-30T12:47:42.686Z</time></trkpt><trkpt lat="43.1226233" lon="2.497235"><ele>425.0</ele><time>2026-03-30T12:47:43.686Z</time></trkpt><trkpt lat="43.1227283" lon="2.4971133"><ele>426.5</ele><time>2026-03-30T12:47:44.687Z</time></trkpt><trkpt lat="43.1228183" lon="2.4969667"><ele>428.0</ele><time>2026-03-30T12:47:45.686Z</time></trkpt><trkpt lat="43.1228983" lon="2.4968017"><ele>429.5</ele><time>2026-03-30T12:47:46.687Z</time></trkpt><trkpt lat="43.1229733" lon="2.49663"><ele>431.0</ele><time>2026-03-30T12:47:47.687Z</time></trkpt><trkpt lat="43.1230433" lon="2.4964583"><ele>431.0</ele><time>2026-03-30T12:47:48.685Z</time></trkpt><trkpt lat="43.1231033" lon="2.4962767"><ele>431.0</ele><time>2026-03-30T12:47:49.687Z</time></trkpt><trkpt lat="43.12315" lon="2.4960833"><ele>431.0</ele><time>2026-03-30T12:47:50.686Z</time></trkpt><trkpt lat="43.1231833" lon="2.4958783"><ele>431.0</ele><time>2026-03-30T12:47:51.687Z</time></trkpt><trkpt lat="43.123215" lon="2.4956767"><ele>430.0</ele><time>2026-03-30T12:47:52.685Z</time></trkpt><trkpt lat="43.12324" lon="2.49547"><ele>429.0</ele><time>2026-03-30T12:47:53.686Z</time></trkpt><trkpt lat="43.1232633" lon="2.4952667"><ele>428.0</ele><time>2026-03-30T12:47:54.685Z</time></trkpt><trkpt lat="43.1232867" lon="2.495065"><ele>428.0</ele><time>2026-03-30T12:47:55.685Z</time></trkpt><trkpt lat="43.12331" lon="2.49487"><ele>428.0</ele><time>2026-03-30T12:47:56.686Z</time></trkpt><trkpt lat="43.12333" lon="2.4946767"><ele>428.0</ele><time>2026-03-30T12:47:57.686Z</time></trkpt><trkpt lat="43.12335" lon="2.4944833"><ele>428.0</ele><time>2026-03-30T12:47:58.685Z</time></trkpt><trkpt lat="43.1233667" lon="2.494295"><ele>428.25</ele><time>2026-03-30T12:47:59.685Z</time></trkpt><trkpt lat="43.1233717" lon="2.4941033"><ele>428.5</ele><time>2026-03-30T12:48:00.685Z</time></trkpt><trkpt lat="43.12336" lon="2.4939117"><ele>428.75</ele><time>2026-03-30T12:48:01.685Z</time></trkpt><trkpt lat="43.12334" lon="2.4937117"><ele>429.0</ele><time>2026-03-30T12:48:02.688Z</time></trkpt><trkpt lat="43.12331" lon="2.4935083"><ele>427.66666666666663</ele><time>2026-03-30T12:48:03.685Z</time></trkpt><trkpt lat="43.123275" lon="2.4933033"><ele>426.3333333333333</ele><time>2026-03-30T12:48:04.686Z</time></trkpt><trkpt lat="43.123235" lon="2.4930983"><ele>425.0</ele><time>2026-03-30T12:48:05.685Z</time></trkpt><trkpt lat="43.1231917" lon="2.4928983"><ele>424.5</ele><time>2026-03-30T12:48:06.686Z</time></trkpt><trkpt lat="43.1231533" lon="2.4927"><ele>424.0</ele><time>2026-03-30T12:48:07.686Z</time></trkpt><trkpt lat="43.1231217" lon="2.4925083"><ele>423.5</ele><time>2026-03-30T12:48:08.686Z</time></trkpt><trkpt lat="43.1231033" lon="2.492315"><ele>423.0</ele><time>2026-03-30T12:48:09.686Z</time></trkpt><trkpt lat="43.1231033" lon="2.4921133"><ele>422.0</ele><time>2026-03-30T12:48:10.687Z</time></trkpt><trkpt lat="43.12312" lon="2.4919033"><ele>421.0</ele><time>2026-03-30T12:48:11.684Z</time></trkpt><trkpt lat="43.12314" lon="2.4916917"><ele>420.0</ele><time>2026-03-30T12:48:12.685Z</time></trkpt><trkpt lat="43.1231583" lon="2.4914767"><ele>420.0</ele><time>2026-03-30T12:48:13.687Z</time></trkpt><trkpt lat="43.1231767" lon="2.49126"><ele>420.0</ele><time>2026-03-30T12:48:14.687Z</time></trkpt><trkpt lat="43.123195" lon="2.4910483"><ele>420.0</ele><time>2026-03-30T12:48:15.691Z</time></trkpt><trkpt lat="43.1232133" lon="2.4908367"><ele>419.33333333333337</ele><time>2026-03-30T12:48:16.689Z</time></trkpt><trkpt lat="43.1232317" lon="2.490625"><ele>418.6666666666667</ele><time>2026-03-30T12:48:17.686Z</time></trkpt><trkpt lat="43.1232517" lon="2.4904133"><ele>418.0</ele><time>2026-03-30T12:48:18.693Z</time></trkpt><trkpt lat="43.1232717" lon="2.490205"><ele>417.0</ele><time>2026-03-30T12:48:19.687Z</time></trkpt><trkpt lat="43.123285" lon="2.49"><ele>416.0</ele><time>2026-03-30T12:48:20.688Z</time></trkpt><trkpt lat="43.1232967" lon="2.4897967"><ele>415.0</ele><time>2026-03-30T12:48:21.686Z</time></trkpt><trkpt lat="43.12332" lon="2.4895917"><ele>414.6666666666667</ele><time>2026-03-30T12:48:22.686Z</time></trkpt><trkpt lat="43.1233567" lon="2.4893867"><ele>414.33333333333337</ele><time>2026-03-30T12:48:23.687Z</time></trkpt><trkpt lat="43.123405" lon="2.489185"><ele>414.0</ele><time>2026-03-30T12:48:24.685Z</time></trkpt><trkpt lat="43.1234567" lon="2.4889817"><ele>414.0</ele><time>2026-03-30T12:48:25.686Z</time></trkpt><trkpt lat="43.1235033" lon="2.4887717"><ele>414.0</ele><time>2026-03-30T12:48:26.687Z</time></trkpt><trkpt lat="43.1235367" lon="2.4885633"><ele>414.0</ele><time>2026-03-30T12:48:27.685Z</time></trkpt><trkpt lat="43.1235583" lon="2.4883583"><ele>413.0</ele><time>2026-03-30T12:48:28.685Z</time></trkpt><trkpt lat="43.1235833" lon="2.4881517"><ele>412.0</ele><time>2026-03-30T12:48:29.69Z</time></trkpt><trkpt lat="43.1236133" lon="2.4879467"><ele>411.0</ele><time>2026-03-30T12:48:30.687Z</time></trkpt><trkpt lat="43.123655" lon="2.4877433"><ele>409.33333333333337</ele><time>2026-03-30T12:48:31.686Z</time></trkpt><trkpt lat="43.1237067" lon="2.4875317"><ele>407.6666666666667</ele><time>2026-03-30T12:48:32.687Z</time></trkpt><trkpt lat="43.1237633" lon="2.48732"><ele>406.0</ele><time>2026-03-30T12:48:33.685Z</time></trkpt><trkpt lat="43.12382" lon="2.48711"><ele>404.6666666666667</ele><time>2026-03-30T12:48:34.686Z</time></trkpt><trkpt lat="43.1238717" lon="2.486905"><ele>403.33333333333337</ele><time>2026-03-30T12:48:35.685Z</time></trkpt><trkpt lat="43.1239233" lon="2.48671"><ele>402.0</ele><time>2026-03-30T12:48:36.686Z</time></trkpt><trkpt lat="43.123975" lon="2.4865317"><ele>402.0</ele><time>2026-03-30T12:48:37.685Z</time></trkpt><trkpt lat="43.1240217" lon="2.486365"><ele>402.0</ele><time>2026-03-30T12:48:38.685Z</time></trkpt><trkpt lat="43.1240617" lon="2.4862033"><ele>402.0</ele><time>2026-03-30T12:48:39.684Z</time></trkpt><trkpt lat="43.1240967" lon="2.4860467"><ele>402.0</ele><time>2026-03-30T12:48:40.686Z</time></trkpt><trkpt lat="43.124135" lon="2.4859133"><ele>402.20000000000005</ele><time>2026-03-30T12:48:41.686Z</time></trkpt><trkpt lat="43.12418" lon="2.4857967"><ele>402.4</ele><time>2026-03-30T12:48:42.688Z</time></trkpt><trkpt lat="43.1242383" lon="2.4856917"><ele>402.6</ele><time>2026-03-30T12:48:43.687Z</time></trkpt><trkpt lat="43.1242833" lon="2.485585"><ele>402.79999999999995</ele><time>2026-03-30T12:48:44.685Z</time></trkpt><trkpt lat="43.1243083" lon="2.48547"><ele>403.0</ele><time>2026-03-30T12:48:45.684Z</time></trkpt><trkpt lat="43.124305" lon="2.4853433"><ele>402.25</ele><time>2026-03-30T12:48:46.686Z</time></trkpt><trkpt lat="43.1242867" lon="2.4852017"><ele>401.5</ele><time>2026-03-30T12:48:47.687Z</time></trkpt><trkpt lat="43.124255" lon="2.4850483"><ele>400.75</ele><time>2026-03-30T12:48:48.688Z</time></trkpt><trkpt lat="43.12421" lon="2.484895"><ele>400.0</ele><time>2026-03-30T12:48:49.687Z</time></trkpt><trkpt lat="43.12415" lon="2.48474"><ele>400.25</ele><time>2026-03-30T12:48:50.686Z</time></trkpt><trkpt lat="43.12408" lon="2.4845867"><ele>400.5</ele><time>2026-03-30T12:48:51.686Z</time></trkpt><trkpt lat="43.1239967" lon="2.48444"><ele>400.75</ele><time>2026-03-30T12:48:52.687Z</time></trkpt><trkpt lat="43.1239083" lon="2.4842933"><ele>401.0</ele><time>2026-03-30T12:48:53.687Z</time></trkpt><trkpt lat="43.1238183" lon="2.484155"><ele>397.25</ele><time>2026-03-30T12:48:54.687Z</time></trkpt><trkpt lat="43.1237433" lon="2.4840133"><ele>393.5</ele><time>2026-03-30T12:48:55.686Z</time></trkpt><trkpt lat="43.1236767" lon="2.4838633"><ele>389.75</ele><time>2026-03-30T12:48:56.688Z</time></trkpt><trkpt lat="43.1236317" lon="2.4836933"><ele>386.0</ele><time>2026-03-30T12:48:57.687Z</time></trkpt><trkpt lat="43.1236" lon="2.4835083"><ele>385.0</ele><time>2026-03-30T12:48:58.684Z</time></trkpt><trkpt lat="43.1235717" lon="2.4833117"><ele>384.0</ele><time>2026-03-30T12:48:59.686Z</time></trkpt><trkpt lat="43.123545" lon="2.4831183"><ele>383.0</ele><time>2026-03-30T12:49:00.685Z</time></trkpt><trkpt lat="43.12352" lon="2.482935"><ele>382.0</ele><time>2026-03-30T12:49:01.685Z</time></trkpt><trkpt lat="43.123505" lon="2.4827583"><ele>381.75</ele><time>2026-03-30T12:49:02.686Z</time></trkpt><trkpt lat="43.1235133" lon="2.4825883"><ele>381.5</ele><time>2026-03-30T12:49:03.685Z</time></trkpt><trkpt lat="43.1235267" lon="2.4824167"><ele>381.25</ele><time>2026-03-30T12:49:04.685Z</time></trkpt><trkpt lat="43.123515" lon="2.4822433"><ele>381.0</ele><time>2026-03-30T12:49:05.685Z</time></trkpt><trkpt lat="43.1234683" lon="2.4820783"><ele>380.0</ele><time>2026-03-30T12:49:06.684Z</time></trkpt><trkpt lat="43.123395" lon="2.4819183"><ele>379.0</ele><time>2026-03-30T12:49:07.685Z</time></trkpt><trkpt lat="43.1233217" lon="2.48176"><ele>378.0</ele><time>2026-03-30T12:49:08.685Z</time></trkpt><trkpt lat="43.1232717" lon="2.4815933"><ele>377.0</ele><time>2026-03-30T12:49:09.684Z</time></trkpt><trkpt lat="43.12325" lon="2.4814117"><ele>376.0</ele><time>2026-03-30T12:49:10.686Z</time></trkpt><trkpt lat="43.123245" lon="2.481225"><ele>375.0</ele><time>2026-03-30T12:49:11.686Z</time></trkpt><trkpt lat="43.1232433" lon="2.481045"><ele>374.0</ele><time>2026-03-30T12:49:12.684Z</time></trkpt><trkpt lat="43.1232517" lon="2.480875"><ele>373.0</ele><time>2026-03-30T12:49:13.686Z</time></trkpt><trkpt lat="43.1232783" lon="2.4807133"><ele>373.0</ele><time>2026-03-30T12:49:14.689Z</time></trkpt><trkpt lat="43.1233317" lon="2.4805633"><ele>373.0</ele><time>2026-03-30T12:49:15.685Z</time></trkpt><trkpt lat="43.1234133" lon="2.48043"><ele>373.0</ele><time>2026-03-30T12:49:16.685Z</time></trkpt><trkpt lat="43.1235067" lon="2.4802983"><ele>373.0</ele><time>2026-03-30T12:49:17.685Z</time></trkpt><trkpt lat="43.1235933" lon="2.480155"><ele>371.75</ele><time>2026-03-30T12:49:18.69Z</time></trkpt><trkpt lat="43.12367" lon="2.4800033"><ele>370.5</ele><time>2026-03-30T12:49:19.688Z</time></trkpt><trkpt lat="43.1237333" lon="2.4798317"><ele>369.25</ele><time>2026-03-30T12:49:20.688Z</time></trkpt><trkpt lat="43.1237883" lon="2.4796483"><ele>368.0</ele><time>2026-03-30T12:49:21.687Z</time></trkpt><trkpt lat="43.12384" lon="2.47946"><ele>365.75</ele><time>2026-03-30T12:49:22.685Z</time></trkpt><trkpt lat="43.123885" lon="2.4792683"><ele>363.5</ele><time>2026-03-30T12:49:23.687Z</time></trkpt><trkpt lat="43.1239233" lon="2.4790683"><ele>361.25</ele><time>2026-03-30T12:49:24.687Z</time></trkpt><trkpt lat="43.123945" lon="2.4788633"><ele>359.0</ele><time>2026-03-30T12:49:25.685Z</time></trkpt><trkpt lat="43.1239483" lon="2.4786567"><ele>356.33333333333337</ele><time>2026-03-30T12:49:26.685Z</time></trkpt><trkpt lat="43.1239317" lon="2.4784533"><ele>353.6666666666667</ele><time>2026-03-30T12:49:27.685Z</time></trkpt><trkpt lat="43.1239017" lon="2.47825"><ele>351.0</ele><time>2026-03-30T12:49:28.686Z</time></trkpt><trkpt lat="43.1238683" lon="2.47805"><ele>350.0</ele><time>2026-03-30T12:49:29.686Z</time></trkpt><trkpt lat="43.12384" lon="2.4778583"><ele>349.0</ele><time>2026-03-30T12:49:30.684Z</time></trkpt><trkpt lat="43.1238217" lon="2.4776617"><ele>348.0</ele><time>2026-03-30T12:49:31.684Z</time></trkpt><trkpt lat="43.1238217" lon="2.4774583"><ele>347.0</ele><time>2026-03-30T12:49:32.686Z</time></trkpt><trkpt lat="43.1238383" lon="2.4772467"><ele>346.33333333333337</ele><time>2026-03-30T12:49:33.686Z</time></trkpt><trkpt lat="43.1238583" lon="2.47703"><ele>345.6666666666667</ele><time>2026-03-30T12:49:34.685Z</time></trkpt><trkpt lat="43.12387" lon="2.4768067"><ele>345.0</ele><time>2026-03-30T12:49:35.686Z</time></trkpt><trkpt lat="43.12386" lon="2.47658"><ele>345.0</ele><time>2026-03-30T12:49:36.685Z</time></trkpt><trkpt lat="43.1238283" lon="2.47635"><ele>345.0</ele><time>2026-03-30T12:49:37.686Z</time></trkpt><trkpt lat="43.1237933" lon="2.476125"><ele>345.0</ele><time>2026-03-30T12:49:38.688Z</time></trkpt><trkpt lat="43.1237567" lon="2.4758983"><ele>344.0</ele><time>2026-03-30T12:49:39.686Z</time></trkpt><trkpt lat="43.1237233" lon="2.47567"><ele>343.0</ele><time>2026-03-30T12:49:40.686Z</time></trkpt><trkpt lat="43.1237" lon="2.4754383"><ele>342.0</ele><time>2026-03-30T12:49:41.685Z</time></trkpt><trkpt lat="43.1236983" lon="2.47521"><ele>341.3333333333333</ele><time>2026-03-30T12:49:42.688Z</time></trkpt><trkpt lat="43.1237133" lon="2.4749783"><ele>340.66666666666663</ele><time>2026-03-30T12:49:43.685Z</time></trkpt><trkpt lat="43.12373" lon="2.4747533"><ele>340.0</ele><time>2026-03-30T12:49:44.686Z</time></trkpt><trkpt lat="43.1237483" lon="2.4745283"><ele>339.3333333333333</ele><time>2026-03-30T12:49:45.684Z</time></trkpt><trkpt lat="43.1237583" lon="2.4743033"><ele>338.6666666666667</ele><time>2026-03-30T12:49:46.685Z</time></trkpt><trkpt lat="43.1237567" lon="2.4740833"><ele>338.0</ele><time>2026-03-30T12:49:47.685Z</time></trkpt><trkpt lat="43.1237383" lon="2.47386"><ele>338.33333333333337</ele><time>2026-03-30T12:49:48.686Z</time></trkpt><trkpt lat="43.1237067" lon="2.4736383"><ele>338.6666666666667</ele><time>2026-03-30T12:49:49.686Z</time></trkpt><trkpt lat="43.12366" lon="2.47342"><ele>339.0</ele><time>2026-03-30T12:49:50.688Z</time></trkpt><trkpt lat="43.1236017" lon="2.4732083"><ele>339.0</ele><time>2026-03-30T12:49:51.686Z</time></trkpt><trkpt lat="43.1235367" lon="2.4730067"><ele>339.0</ele><time>2026-03-30T12:49:52.686Z</time></trkpt><trkpt lat="43.1234733" lon="2.472815"><ele>339.0</ele><time>2026-03-30T12:49:53.684Z</time></trkpt><trkpt lat="43.1234183" lon="2.4726233"><ele>339.0</ele><time>2026-03-30T12:49:54.685Z</time></trkpt><trkpt lat="43.12338" lon="2.4724283"><ele>339.0</ele><time>2026-03-30T12:49:55.684Z</time></trkpt><trkpt lat="43.1233617" lon="2.47223"><ele>339.0</ele><time>2026-03-30T12:49:56.685Z</time></trkpt><trkpt lat="43.1233567" lon="2.4720283"><ele>339.0</ele><time>2026-03-30T12:49:57.686Z</time></trkpt><trkpt lat="43.12336" lon="2.4718283"><ele>338.25</ele><time>2026-03-30T12:49:58.687Z</time></trkpt><trkpt lat="43.12337" lon="2.4716383"><ele>337.5</ele><time>2026-03-30T12:49:59.685Z</time></trkpt><trkpt lat="43.1233917" lon="2.4714533"><ele>336.75</ele><time>2026-03-30T12:50:00.686Z</time></trkpt><trkpt lat="43.12344" lon="2.47127"><ele>336.0</ele><time>2026-03-30T12:50:01.684Z</time></trkpt><trkpt lat="43.1235033" lon="2.47109"><ele>334.6666666666667</ele><time>2026-03-30T12:50:02.686Z</time></trkpt><trkpt lat="43.12357" lon="2.4709117"><ele>333.33333333333337</ele><time>2026-03-30T12:50:03.685Z</time></trkpt><trkpt lat="43.1236333" lon="2.4707283"><ele>332.0</ele><time>2026-03-30T12:50:04.684Z</time></trkpt><trkpt lat="43.1236967" lon="2.4705283"><ele>331.6666666666667</ele><time>2026-03-30T12:50:05.685Z</time></trkpt><trkpt lat="43.1237583" lon="2.4703283"><ele>331.3333333333333</ele><time>2026-03-30T12:50:06.685Z</time></trkpt><trkpt lat="43.1238217" lon="2.47013"><ele>331.0</ele><time>2026-03-30T12:50:07.686Z</time></trkpt><trkpt lat="43.123885" lon="2.4699317"><ele>331.0</ele><time>2026-03-30T12:50:08.685Z</time></trkpt><trkpt lat="43.12395" lon="2.4697317"><ele>331.0</ele><time>2026-03-30T12:50:09.685Z</time></trkpt><trkpt lat="43.1240117" lon="2.4695333"><ele>331.0</ele><time>2026-03-30T12:50:10.685Z</time></trkpt><trkpt lat="43.12406" lon="2.46933"><ele>332.0</ele><time>2026-03-30T12:50:11.685Z</time></trkpt><trkpt lat="43.1240917" lon="2.4691167"><ele>333.0</ele><time>2026-03-30T12:50:12.685Z</time></trkpt><trkpt lat="43.1241117" lon="2.4689"><ele>334.0</ele><time>2026-03-30T12:50:13.685Z</time></trkpt><trkpt lat="43.1241317" lon="2.46868"><ele>334.0</ele><time>2026-03-30T12:50:14.686Z</time></trkpt><trkpt lat="43.124155" lon="2.46846"><ele>334.0</ele><time>2026-03-30T12:50:15.685Z</time></trkpt><trkpt lat="43.12419" lon="2.4682417"><ele>334.0</ele><time>2026-03-30T12:50:16.685Z</time></trkpt><trkpt lat="43.1242317" lon="2.4680233"><ele>332.66666666666663</ele><time>2026-03-30T12:50:17.685Z</time></trkpt><trkpt lat="43.1242717" lon="2.4678033"><ele>331.3333333333333</ele><time>2026-03-30T12:50:18.688Z</time></trkpt><trkpt lat="43.1243083" lon="2.4675817"><ele>330.0</ele><time>2026-03-30T12:50:19.687Z</time></trkpt><trkpt lat="43.1243433" lon="2.4673633"><ele>330.0</ele><time>2026-03-30T12:50:20.688Z</time></trkpt><trkpt lat="43.1243733" lon="2.46715"><ele>330.0</ele><time>2026-03-30T12:50:21.685Z</time></trkpt><trkpt lat="43.1243967" lon="2.4669383"><ele>330.0</ele><time>2026-03-30T12:50:22.686Z</time></trkpt><trkpt lat="43.1244033" lon="2.4667367"><ele>329.25</ele><time>2026-03-30T12:50:23.687Z</time></trkpt><trkpt lat="43.124395" lon="2.4665367"><ele>328.5</ele><time>2026-03-30T12:50:24.686Z</time></trkpt><trkpt lat="43.1243967" lon="2.4663333"><ele>327.75</ele><time>2026-03-30T12:50:25.687Z</time></trkpt><trkpt lat="43.1244233" lon="2.4661383"><ele>327.0</ele><time>2026-03-30T12:50:26.687Z</time></trkpt><trkpt lat="43.12447" lon="2.46595"><ele>326.3333333333333</ele><time>2026-03-30T12:50:27.686Z</time></trkpt><trkpt lat="43.1245283" lon="2.46576"><ele>325.66666666666663</ele><time>2026-03-30T12:50:28.686Z</time></trkpt><trkpt lat="43.1245883" lon="2.4655683"><ele>325.0</ele><time>2026-03-30T12:50:29.686Z</time></trkpt><trkpt lat="43.1246467" lon="2.4653683"><ele>325.0</ele><time>2026-03-30T12:50:30.686Z</time></trkpt><trkpt lat="43.1247033" lon="2.4651683"><ele>325.0</ele><time>2026-03-30T12:50:31.684Z</time></trkpt><trkpt lat="43.1247567" lon="2.4649733"><ele>325.0</ele><time>2026-03-30T12:50:32.687Z</time></trkpt><trkpt lat="43.1248083" lon="2.464785"><ele>325.25</ele><time>2026-03-30T12:50:33.687Z</time></trkpt><trkpt lat="43.1248633" lon="2.4646067"><ele>325.5</ele><time>2026-03-30T12:50:34.686Z</time></trkpt><trkpt lat="43.1249333" lon="2.4644483"><ele>325.75</ele><time>2026-03-30T12:50:35.684Z</time></trkpt><trkpt lat="43.12502" lon="2.4643133"><ele>326.0</ele><time>2026-03-30T12:50:36.685Z</time></trkpt><trkpt lat="43.125105" lon="2.4641867"><ele>326.0</ele><time>2026-03-30T12:50:37.686Z</time></trkpt><trkpt lat="43.1251683" lon="2.4640517"><ele>326.0</ele><time>2026-03-30T12:50:38.687Z</time></trkpt><trkpt lat="43.1252133" lon="2.4639133"><ele>326.0</ele><time>2026-03-30T12:50:39.686Z</time></trkpt><trkpt lat="43.1252617" lon="2.4637833"><ele>326.0</ele><time>2026-03-30T12:50:40.686Z</time></trkpt><trkpt lat="43.125335" lon="2.4636717"><ele>326.0</ele><time>2026-03-30T12:50:41.689Z</time></trkpt><trkpt lat="43.1254267" lon="2.4635733"><ele>326.0</ele><time>2026-03-30T12:50:42.684Z</time></trkpt><trkpt lat="43.1255333" lon="2.4634767"><ele>326.0</ele><time>2026-03-30T12:50:43.686Z</time></trkpt><trkpt lat="43.1256483" lon="2.463375"><ele>326.0</ele><time>2026-03-30T12:50:44.685Z</time></trkpt><trkpt lat="43.125765" lon="2.46326"><ele>326.0</ele><time>2026-03-30T12:50:45.687Z</time></trkpt><trkpt lat="43.1258767" lon="2.4631433"><ele>325.75</ele><time>2026-03-30T12:50:46.685Z</time></trkpt><trkpt lat="43.12599" lon="2.4630183"><ele>325.5</ele><time>2026-03-30T12:50:47.685Z</time></trkpt><trkpt lat="43.1261067" lon="2.4628933"><ele>325.25</ele><time>2026-03-30T12:50:48.685Z</time></trkpt><trkpt lat="43.126225" lon="2.4627633"><ele>325.0</ele><time>2026-03-30T12:50:49.685Z</time></trkpt><trkpt lat="43.12634" lon="2.46263"><ele>324.75</ele><time>2026-03-30T12:50:50.687Z</time></trkpt><trkpt lat="43.12644" lon="2.462485"><ele>324.5</ele><time>2026-03-30T12:50:51.686Z</time></trkpt><trkpt lat="43.1265183" lon="2.4623183"><ele>324.25</ele><time>2026-03-30T12:50:52.686Z</time></trkpt><trkpt lat="43.1265667" lon="2.4621367"><ele>324.0</ele><time>2026-03-30T12:50:53.685Z</time></trkpt><trkpt lat="43.12658" lon="2.46195"><ele>323.5</ele><time>2026-03-30T12:50:54.687Z</time></trkpt><trkpt lat="43.1265767" lon="2.4617733"><ele>323.0</ele><time>2026-03-30T12:50:55.687Z</time></trkpt><trkpt lat="43.1265683" lon="2.4616017"><ele>322.5</ele><time>2026-03-30T12:50:56.686Z</time></trkpt><trkpt lat="43.1265767" lon="2.4614383"><ele>322.0</ele><time>2026-03-30T12:50:57.685Z</time></trkpt><trkpt lat="43.1266167" lon="2.461275"><ele>321.25</ele><time>2026-03-30T12:50:58.686Z</time></trkpt><trkpt lat="43.12668" lon="2.461115"><ele>320.5</ele><time>2026-03-30T12:50:59.685Z</time></trkpt><trkpt lat="43.12676" lon="2.46096"><ele>319.75</ele><time>2026-03-30T12:51:00.685Z</time></trkpt><trkpt lat="43.12684" lon="2.4608017"><ele>319.0</ele><time>2026-03-30T12:51:01.685Z</time></trkpt><trkpt lat="43.1269233" lon="2.4606417"><ele>319.0</ele><time>2026-03-30T12:51:02.686Z</time></trkpt><trkpt lat="43.1270233" lon="2.4604917"><ele>319.0</ele><time>2026-03-30T12:51:03.684Z</time></trkpt><trkpt lat="43.1271367" lon="2.4603567"><ele>319.0</ele><time>2026-03-30T12:51:04.685Z</time></trkpt><trkpt lat="43.127255" lon="2.4602317"><ele>319.0</ele><time>2026-03-30T12:51:05.685Z</time></trkpt><trkpt lat="43.1273767" lon="2.4601183"><ele>319.5</ele><time>2026-03-30T12:51:06.686Z</time></trkpt><trkpt lat="43.1274917" lon="2.460015"><ele>320.0</ele><time>2026-03-30T12:51:07.686Z</time></trkpt><trkpt lat="43.1275983" lon="2.45991"><ele>320.5</ele><time>2026-03-30T12:51:08.686Z</time></trkpt><trkpt lat="43.1276917" lon="2.45979"><ele>321.0</ele><time>2026-03-30T12:51:09.685Z</time></trkpt><trkpt lat="43.12776" lon="2.4596417"><ele>320.5</ele><time>2026-03-30T12:51:10.686Z</time></trkpt><trkpt lat="43.1278033" lon="2.459465"><ele>320.0</ele><time>2026-03-30T12:51:11.685Z</time></trkpt><trkpt lat="43.1278433" lon="2.45928"><ele>319.5</ele><time>2026-03-30T12:51:12.686Z</time></trkpt><trkpt lat="43.12789" lon="2.4590867"><ele>319.0</ele><time>2026-03-30T12:51:13.686Z</time></trkpt><trkpt lat="43.1279333" lon="2.45889"><ele>319.0</ele><time>2026-03-30T12:51:14.685Z</time></trkpt><trkpt lat="43.1279767" lon="2.4586833"><ele>319.0</ele><time>2026-03-30T12:51:15.685Z</time></trkpt><trkpt lat="43.12801" lon="2.45847"><ele>319.0</ele><time>2026-03-30T12:51:16.686Z</time></trkpt><trkpt lat="43.1280267" lon="2.4582583"><ele>319.0</ele><time>2026-03-30T12:51:17.685Z</time></trkpt><trkpt lat="43.12803" lon="2.4580533"><ele>319.0</ele><time>2026-03-30T12:51:18.685Z</time></trkpt><trkpt lat="43.1280283" lon="2.4578583"><ele>319.0</ele><time>2026-03-30T12:51:19.687Z</time></trkpt><trkpt lat="43.1280083" lon="2.4576733"><ele>319.0</ele><time>2026-03-30T12:51:20.685Z</time></trkpt><trkpt lat="43.1279633" lon="2.4575033"><ele>318.75</ele><time>2026-03-30T12:51:21.686Z</time></trkpt><trkpt lat="43.127895" lon="2.4573467"><ele>318.5</ele><time>2026-03-30T12:51:22.685Z</time></trkpt><trkpt lat="43.1278267" lon="2.45719"><ele>318.25</ele><time>2026-03-30T12:51:23.686Z</time></trkpt><trkpt lat="43.1277733" lon="2.45702"><ele>318.0</ele><time>2026-03-30T12:51:24.687Z</time></trkpt><trkpt lat="43.1277367" lon="2.4568383"><ele>318.0</ele><time>2026-03-30T12:51:25.685Z</time></trkpt><trkpt lat="43.1277167" lon="2.4566483"><ele>318.0</ele><time>2026-03-30T12:51:26.686Z</time></trkpt><trkpt lat="43.127715" lon="2.45645"><ele>318.0</ele><time>2026-03-30T12:51:27.686Z</time></trkpt><trkpt lat="43.1277267" lon="2.4562467"><ele>318.0</ele><time>2026-03-30T12:51:28.686Z</time></trkpt><trkpt lat="43.12775" lon="2.4560483"><ele>317.75</ele><time>2026-03-30T12:51:29.684Z</time></trkpt><trkpt lat="43.127775" lon="2.4558617"><ele>317.5</ele><time>2026-03-30T12:51:30.684Z</time></trkpt><trkpt lat="43.1278117" lon="2.45569"><ele>317.25</ele><time>2026-03-30T12:51:31.685Z</time></trkpt><trkpt lat="43.1278683" lon="2.4555333"><ele>317.0</ele><time>2026-03-30T12:51:32.685Z</time></trkpt><trkpt lat="43.1279533" lon="2.4553883"><ele>317.5</ele><time>2026-03-30T12:51:33.685Z</time></trkpt><trkpt lat="43.1280433" lon="2.45524"><ele>318.0</ele><time>2026-03-30T12:51:34.684Z</time></trkpt><trkpt lat="43.12813" lon="2.45508"><ele>318.5</ele><time>2026-03-30T12:51:35.685Z</time></trkpt><trkpt lat="43.1282033" lon="2.45491"><ele>319.0</ele><time>2026-03-30T12:51:36.685Z</time></trkpt><trkpt lat="43.1282883" lon="2.4547433"><ele>318.3333333333333</ele><time>2026-03-30T12:51:37.685Z</time></trkpt><trkpt lat="43.1283733" lon="2.4545683"><ele>317.6666666666667</ele><time>2026-03-30T12:51:38.686Z</time></trkpt><trkpt lat="43.1284483" lon="2.454385"><ele>317.0</ele><time>2026-03-30T12:51:39.685Z</time></trkpt><trkpt lat="43.1285083" lon="2.4541933"><ele>317.0</ele><time>2026-03-30T12:51:40.686Z</time></trkpt><trkpt lat="43.1285533" lon="2.4539933"><ele>317.0</ele><time>2026-03-30T12:51:41.686Z</time></trkpt><trkpt lat="43.1285817" lon="2.4537883"><ele>317.0</ele><time>2026-03-30T12:51:42.686Z</time></trkpt><trkpt lat="43.1285867" lon="2.4535783"><ele>316.6666666666667</ele><time>2026-03-30T12:51:43.685Z</time></trkpt><trkpt lat="43.1285817" lon="2.4533617"><ele>316.3333333333333</ele><time>2026-03-30T12:51:44.686Z</time></trkpt><trkpt lat="43.1285683" lon="2.45315"><ele>316.0</ele><time>2026-03-30T12:51:45.687Z</time></trkpt><trkpt lat="43.1285417" lon="2.4529417"><ele>317.0</ele><time>2026-03-30T12:51:46.684Z</time></trkpt><trkpt lat="43.1284917" lon="2.4527433"><ele>318.0</ele><time>2026-03-30T12:51:47.685Z</time></trkpt><trkpt lat="43.1284217" lon="2.4525633"><ele>319.0</ele><time>2026-03-30T12:51:48.686Z</time></trkpt><trkpt lat="43.1283433" lon="2.4523983"><ele>320.0</ele><time>2026-03-30T12:51:49.685Z</time></trkpt><trkpt lat="43.1282567" lon="2.45225"><ele>317.75</ele><time>2026-03-30T12:51:50.686Z</time></trkpt><trkpt lat="43.1281683" lon="2.4521167"><ele>315.5</ele><time>2026-03-30T12:51:51.686Z</time></trkpt><trkpt lat="43.1280817" lon="2.452"><ele>313.25</ele><time>2026-03-30T12:51:52.684Z</time></trkpt><trkpt lat="43.1279983" lon="2.4518933"><ele>311.0</ele><time>2026-03-30T12:51:53.689Z</time></trkpt><trkpt lat="43.1279217" lon="2.4517867"><ele>311.0</ele><time>2026-03-30T12:51:54.688Z</time></trkpt><trkpt lat="43.1278583" lon="2.4516733"><ele>311.0</ele><time>2026-03-30T12:51:55.686Z</time></trkpt><trkpt lat="43.1278117" lon="2.4515483"><ele>311.0</ele><time>2026-03-30T12:51:56.685Z</time></trkpt><trkpt lat="43.1277883" lon="2.451415"><ele>311.0</ele><time>2026-03-30T12:51:57.685Z</time></trkpt><trkpt lat="43.1277867" lon="2.45128"><ele>311.0</ele><time>2026-03-30T12:51:58.686Z</time></trkpt><trkpt lat="43.1278117" lon="2.4511483"><ele>310.2</ele><time>2026-03-30T12:51:59.686Z</time></trkpt><trkpt lat="43.1278633" lon="2.4510267"><ele>309.40000000000003</ele><time>2026-03-30T12:52:00.687Z</time></trkpt><trkpt lat="43.1279333" lon="2.4509233"><ele>308.6</ele><time>2026-03-30T12:52:01.685Z</time></trkpt><trkpt lat="43.1280133" lon="2.4508383"><ele>307.8</ele><time>2026-03-30T12:52:02.688Z</time></trkpt><trkpt lat="43.1280867" lon="2.45075"><ele>307.0</ele><time>2026-03-30T12:52:03.685Z</time></trkpt><trkpt lat="43.12814" lon="2.4506483"><ele>307.0</ele><time>2026-03-30T12:52:04.686Z</time></trkpt><trkpt lat="43.128175" lon="2.4505433"><ele>307.0</ele><time>2026-03-30T12:52:05.685Z</time></trkpt><trkpt lat="43.1281883" lon="2.4504267"><ele>307.0</ele><time>2026-03-30T12:52:06.687Z</time></trkpt><trkpt lat="43.1281817" lon="2.4502983"><ele>307.0</ele><time>2026-03-30T12:52:07.685Z</time></trkpt><trkpt lat="43.1281917" lon="2.4501667"><ele>307.0</ele><time>2026-03-30T12:52:08.685Z</time></trkpt><trkpt lat="43.1282183" lon="2.4500317"><ele>307.25</ele><time>2026-03-30T12:52:09.688Z</time></trkpt><trkpt lat="43.1282783" lon="2.44991"><ele>307.5</ele><time>2026-03-30T12:52:10.687Z</time></trkpt><trkpt lat="43.12836" lon="2.4497967"><ele>307.75</ele><time>2026-03-30T12:52:11.686Z</time></trkpt><trkpt lat="43.128445" lon="2.4496833"><ele>308.0</ele><time>2026-03-30T12:52:12.686Z</time></trkpt><trkpt lat="43.12852" lon="2.44955"><ele>308.0</ele><time>2026-03-30T12:52:13.686Z</time></trkpt><trkpt lat="43.1285767" lon="2.4493983"><ele>308.0</ele><time>2026-03-30T12:52:14.686Z</time></trkpt><trkpt lat="43.1286167" lon="2.449235"><ele>308.0</ele><time>2026-03-30T12:52:15.685Z</time></trkpt><trkpt lat="43.1286433" lon="2.449055"><ele>308.0</ele><time>2026-03-30T12:52:16.686Z</time></trkpt><trkpt lat="43.1286767" lon="2.4488667"><ele>308.0</ele><time>2026-03-30T12:52:17.688Z</time></trkpt><trkpt lat="43.128715" lon="2.4486717"><ele>308.0</ele><time>2026-03-30T12:52:18.687Z</time></trkpt><trkpt lat="43.1287633" lon="2.4484767"><ele>308.0</ele><time>2026-03-30T12:52:19.687Z</time></trkpt><trkpt lat="43.1288233" lon="2.4482783"><ele>308.0</ele><time>2026-03-30T12:52:20.687Z</time></trkpt><trkpt lat="43.1288867" lon="2.4480767"><ele>308.0</ele><time>2026-03-30T12:52:21.687Z</time></trkpt><trkpt lat="43.128955" lon="2.4478767"><ele>308.0</ele><time>2026-03-30T12:52:22.687Z</time></trkpt><trkpt lat="43.12902" lon="2.4476783"><ele>308.0</ele><time>2026-03-30T12:52:23.686Z</time></trkpt><trkpt lat="43.1290717" lon="2.44747"><ele>308.0</ele><time>2026-03-30T12:52:24.687Z</time></trkpt><trkpt lat="43.129105" lon="2.44726"><ele>308.0</ele><time>2026-03-30T12:52:25.686Z</time></trkpt><trkpt lat="43.1291217" lon="2.4470417"><ele>308.0</ele><time>2026-03-30T12:52:26.686Z</time></trkpt><trkpt lat="43.1291283" lon="2.4468217"><ele>308.0</ele><time>2026-03-30T12:52:27.688Z</time></trkpt><trkpt lat="43.1291317" lon="2.4466067"><ele>308.0</ele><time>2026-03-30T12:52:28.687Z</time></trkpt><trkpt lat="43.1291367" lon="2.4463967"><ele>308.25</ele><time>2026-03-30T12:52:29.686Z</time></trkpt><trkpt lat="43.1291317" lon="2.4461933"><ele>308.5</ele><time>2026-03-30T12:52:30.684Z</time></trkpt><trkpt lat="43.1291133" lon="2.4459983"><ele>308.75</ele><time>2026-03-30T12:52:31.685Z</time></trkpt><trkpt lat="43.12909" lon="2.445815"><ele>309.0</ele><time>2026-03-30T12:52:32.685Z</time></trkpt><trkpt lat="43.129085" lon="2.445635"><ele>308.75</ele><time>2026-03-30T12:52:33.684Z</time></trkpt><trkpt lat="43.1290917" lon="2.4454517"><ele>308.5</ele><time>2026-03-30T12:52:34.684Z</time></trkpt><trkpt lat="43.12912" lon="2.4452683"><ele>308.25</ele><time>2026-03-30T12:52:35.685Z</time></trkpt><trkpt lat="43.1291717" lon="2.4450933"><ele>308.0</ele><time>2026-03-30T12:52:36.685Z</time></trkpt><trkpt lat="43.1292383" lon="2.44493"><ele>308.0</ele><time>2026-03-30T12:52:37.685Z</time></trkpt><trkpt lat="43.129315" lon="2.4447717"><ele>308.0</ele><time>2026-03-30T12:52:38.686Z</time></trkpt><trkpt lat="43.129395" lon="2.44462"><ele>308.0</ele><time>2026-03-30T12:52:39.684Z</time></trkpt><trkpt lat="43.1294583" lon="2.444465"><ele>308.0</ele><time>2026-03-30T12:52:40.685Z</time></trkpt><trkpt lat="43.12951" lon="2.4443267"><ele>308.0</ele><time>2026-03-30T12:52:41.686Z</time></trkpt><trkpt lat="43.1295633" lon="2.444205"><ele>308.0</ele><time>2026-03-30T12:52:42.684Z</time></trkpt><trkpt lat="43.12963" lon="2.444095"><ele>308.0</ele><time>2026-03-30T12:52:43.685Z</time></trkpt><trkpt lat="43.12971" lon="2.4439933"><ele>308.0</ele><time>2026-03-30T12:52:44.689Z</time></trkpt><trkpt lat="43.1297983" lon="2.4439017"><ele>308.0</ele><time>2026-03-30T12:52:45.686Z</time></trkpt><trkpt lat="43.1298933" lon="2.4438183"><ele>306.25</ele><time>2026-03-30T12:52:46.685Z</time></trkpt><trkpt lat="43.12999" lon="2.4437283"><ele>304.5</ele><time>2026-03-30T12:52:47.686Z</time></trkpt><trkpt lat="43.130085" lon="2.44362"><ele>302.75</ele><time>2026-03-30T12:52:48.687Z</time></trkpt><trkpt lat="43.1301717" lon="2.4434967"><ele>301.0</ele><time>2026-03-30T12:52:49.686Z</time></trkpt><trkpt lat="43.1302433" lon="2.4433467"><ele>301.0</ele><time>2026-03-30T12:52:50.687Z</time></trkpt><trkpt lat="43.1302967" lon="2.4431717"><ele>301.0</ele><time>2026-03-30T12:52:51.687Z</time></trkpt><trkpt lat="43.13034" lon="2.442995"><ele>301.0</ele><time>2026-03-30T12:52:52.686Z</time></trkpt><trkpt lat="43.130385" lon="2.4428233"><ele>301.0</ele><time>2026-03-30T12:52:53.686Z</time></trkpt><trkpt lat="43.1304283" lon="2.44265"><ele>300.25</ele><time>2026-03-30T12:52:54.687Z</time></trkpt><trkpt lat="43.1304733" lon="2.4424767"><ele>299.5</ele><time>2026-03-30T12:52:55.687Z</time></trkpt><trkpt lat="43.1305133" lon="2.4422983"><ele>298.75</ele><time>2026-03-30T12:52:56.687Z</time></trkpt><trkpt lat="43.130545" lon="2.4421117"><ele>298.0</ele><time>2026-03-30T12:52:57.69Z</time></trkpt><trkpt lat="43.1305683" lon="2.44192"><ele>298.0</ele><time>2026-03-30T12:52:58.685Z</time></trkpt><trkpt lat="43.13058" lon="2.441725"><ele>298.0</ele><time>2026-03-30T12:52:59.685Z</time></trkpt><trkpt lat="43.1305717" lon="2.44153"><ele>298.0</ele><time>2026-03-30T12:53:00.687Z</time></trkpt><trkpt lat="43.1305433" lon="2.4413367"><ele>298.0</ele><time>2026-03-30T12:53:01.684Z</time></trkpt><trkpt lat="43.130495" lon="2.44115"><ele>298.25</ele><time>2026-03-30T12:53:02.685Z</time></trkpt><trkpt lat="43.1304383" lon="2.4409683"><ele>298.5</ele><time>2026-03-30T12:53:03.686Z</time></trkpt><trkpt lat="43.13038" lon="2.4407917"><ele>298.75</ele><time>2026-03-30T12:53:04.684Z</time></trkpt><trkpt lat="43.1303233" lon="2.44062"><ele>299.0</ele><time>2026-03-30T12:53:05.685Z</time></trkpt><trkpt lat="43.1302617" lon="2.4404583"><ele>298.25</ele><time>2026-03-30T12:53:06.685Z</time></trkpt><trkpt lat="43.1301867" lon="2.4403183"><ele>297.5</ele><time>2026-03-30T12:53:07.685Z</time></trkpt><trkpt lat="43.1300867" lon="2.440205"><ele>296.75</ele><time>2026-03-30T12:53:08.685Z</time></trkpt><trkpt lat="43.129965" lon="2.4401233"><ele>296.0</ele><time>2026-03-30T12:53:09.684Z</time></trkpt><trkpt lat="43.1298383" lon="2.4400683"><ele>296.0</ele><time>2026-03-30T12:53:10.688Z</time></trkpt><trkpt lat="43.12972" lon="2.4400317"><ele>296.0</ele><time>2026-03-30T12:53:11.684Z</time></trkpt><trkpt lat="43.1296133" lon="2.4399933"><ele>296.0</ele><time>2026-03-30T12:53:12.687Z</time></trkpt><trkpt lat="43.12952" lon="2.43995"><ele>296.0</ele><time>2026-03-30T12:53:13.687Z</time></trkpt><trkpt lat="43.129435" lon="2.4399"><ele>296.0</ele><time>2026-03-30T12:53:14.687Z</time></trkpt><trkpt lat="43.1293683" lon="2.4398283"><ele>296.0</ele><time>2026-03-30T12:53:15.685Z</time></trkpt><trkpt lat="43.1293417" lon="2.43973"><ele>296.0</ele><time>2026-03-30T12:53:16.685Z</time></trkpt><trkpt lat="43.129345" lon="2.439615"><ele>296.0</ele><time>2026-03-30T12:53:17.685Z</time></trkpt><trkpt lat="43.1293617" lon="2.4394933"><ele>296.0</ele><time>2026-03-30T12:53:18.686Z</time></trkpt><trkpt lat="43.129405" lon="2.43935"><ele>296.0</ele><time>2026-03-30T12:53:19.687Z</time></trkpt><trkpt lat="43.12945" lon="2.439205"><ele>296.25</ele><time>2026-03-30T12:53:20.685Z</time></trkpt><trkpt lat="43.1294917" lon="2.4390517"><ele>296.5</ele><time>2026-03-30T12:53:21.687Z</time></trkpt><trkpt lat="43.1295417" lon="2.43889"><ele>296.75</ele><time>2026-03-30T12:53:22.686Z</time></trkpt><trkpt lat="43.1295933" lon="2.438725"><ele>297.0</ele><time>2026-03-30T12:53:23.685Z</time></trkpt><trkpt lat="43.12965" lon="2.43855"><ele>298.25</ele><time>2026-03-30T12:53:24.687Z</time></trkpt><trkpt lat="43.1297067" lon="2.4383733"><ele>299.5</ele><time>2026-03-30T12:53:25.688Z</time></trkpt><trkpt lat="43.1297617" lon="2.4381967"><ele>300.75</ele><time>2026-03-30T12:53:26.685Z</time></trkpt><trkpt lat="43.12982" lon="2.43802"><ele>302.0</ele><time>2026-03-30T12:53:27.686Z</time></trkpt><trkpt lat="43.12988" lon="2.4378417"><ele>301.25</ele><time>2026-03-30T12:53:28.686Z</time></trkpt><trkpt lat="43.1299383" lon="2.437665"><ele>300.5</ele><time>2026-03-30T12:53:29.686Z</time></trkpt><trkpt lat="43.1299933" lon="2.4374983"><ele>299.75</ele><time>2026-03-30T12:53:30.684Z</time></trkpt><trkpt lat="43.13004" lon="2.4373467"><ele>299.0</ele><time>2026-03-30T12:53:31.685Z</time></trkpt><trkpt lat="43.1300867" lon="2.4372017"><ele>297.8</ele><time>2026-03-30T12:53:32.687Z</time></trkpt><trkpt lat="43.1301267" lon="2.4370633"><ele>296.59999999999997</ele><time>2026-03-30T12:53:33.685Z</time></trkpt><trkpt lat="43.1301617" lon="2.4369333"><ele>295.4</ele><time>2026-03-30T12:53:34.686Z</time></trkpt><trkpt lat="43.1302" lon="2.4368183"><ele>294.2</ele><time>2026-03-30T12:53:35.685Z</time></trkpt><trkpt lat="43.1302467" lon="2.4367267"><ele>293.0</ele><time>2026-03-30T12:53:36.684Z</time></trkpt><trkpt lat="43.13031" lon="2.436675"><ele>293.0</ele><time>2026-03-30T12:53:37.686Z</time></trkpt><trkpt lat="43.130385" lon="2.4366583"><ele>293.0</ele><time>2026-03-30T12:53:38.684Z</time></trkpt><trkpt lat="43.1304683" lon="2.4366817"><ele>293.0</ele><time>2026-03-30T12:53:39.686Z</time></trkpt><trkpt lat="43.1305617" lon="2.4367083"><ele>293.0</ele><time>2026-03-30T12:53:40.685Z</time></trkpt><trkpt lat="43.130665" lon="2.436715"><ele>293.0</ele><time>2026-03-30T12:53:41.686Z</time></trkpt><trkpt lat="43.130775" lon="2.4366883"><ele>294.25</ele><time>2026-03-30T12:53:42.684Z</time></trkpt><trkpt lat="43.1308883" lon="2.4366367"><ele>295.5</ele><time>2026-03-30T12:53:43.684Z</time></trkpt><trkpt lat="43.1310033" lon="2.436575"><ele>296.75</ele><time>2026-03-30T12:53:44.684Z</time></trkpt><trkpt lat="43.1311217" lon="2.43651"><ele>298.0</ele><time>2026-03-30T12:53:45.685Z</time></trkpt><trkpt lat="43.13124" lon="2.43642"><ele>299.0</ele><time>2026-03-30T12:53:46.686Z</time></trkpt><trkpt lat="43.1313433" lon="2.4362917"><ele>300.0</ele><time>2026-03-30T12:53:47.685Z</time></trkpt><trkpt lat="43.13144" lon="2.4361433"><ele>301.0</ele><time>2026-03-30T12:53:48.686Z</time></trkpt><trkpt lat="43.131525" lon="2.4359833"><ele>302.0</ele><time>2026-03-30T12:53:49.685Z</time></trkpt><trkpt lat="43.131605" lon="2.435815"><ele>302.0</ele><time>2026-03-30T12:53:50.686Z</time></trkpt><trkpt lat="43.13168" lon="2.4356333"><ele>302.0</ele><time>2026-03-30T12:53:51.685Z</time></trkpt><trkpt lat="43.1317517" lon="2.4354467"><ele>302.0</ele><time>2026-03-30T12:53:52.686Z</time></trkpt><trkpt lat="43.1318217" lon="2.435255"><ele>300.5</ele><time>2026-03-30T12:53:53.685Z</time></trkpt><trkpt lat="43.1318883" lon="2.435065"><ele>299.0</ele><time>2026-03-30T12:53:54.686Z</time></trkpt><trkpt lat="43.1319533" lon="2.4348817"><ele>297.5</ele><time>2026-03-30T12:53:55.686Z</time></trkpt><trkpt lat="43.1320167" lon="2.4347167"><ele>296.0</ele><time>2026-03-30T12:53:56.685Z</time></trkpt><trkpt lat="43.13208" lon="2.43456"><ele>295.6</ele><time>2026-03-30T12:53:57.685Z</time></trkpt><trkpt lat="43.1321517" lon="2.4344217"><ele>295.20000000000005</ele><time>2026-03-30T12:53:58.685Z</time></trkpt><trkpt lat="43.1322317" lon="2.4343167"><ele>294.79999999999995</ele><time>2026-03-30T12:53:59.685Z</time></trkpt><trkpt lat="43.13232" lon="2.4342533"><ele>294.4</ele><time>2026-03-30T12:54:00.684Z</time></trkpt><trkpt lat="43.132415" lon="2.434235"><ele>294.0</ele><time>2026-03-30T12:54:01.686Z</time></trkpt><trkpt lat="43.13252" lon="2.4342833"><ele>296.5</ele><time>2026-03-30T12:54:02.686Z</time></trkpt><trkpt lat="43.13263" lon="2.4343483"><ele>299.0</ele><time>2026-03-30T12:54:03.686Z</time></trkpt><trkpt lat="43.1327533" lon="2.4344"><ele>301.5</ele><time>2026-03-30T12:54:04.685Z</time></trkpt><trkpt lat="43.1328833" lon="2.4344333"><ele>304.0</ele><time>2026-03-30T12:54:05.684Z</time></trkpt><trkpt lat="43.133" lon="2.4344817"><ele>304.0</ele><time>2026-03-30T12:54:06.685Z</time></trkpt><trkpt lat="43.1331017" lon="2.43455"><ele>304.0</ele><time>2026-03-30T12:54:07.685Z</time></trkpt><trkpt lat="43.133205" lon="2.4346033"><ele>304.0</ele><time>2026-03-30T12:54:08.685Z</time></trkpt><trkpt lat="43.13331" lon="2.434615"><ele>304.0</ele><time>2026-03-30T12:54:09.685Z</time></trkpt><trkpt lat="43.1334133" lon="2.4345717"><ele>304.0</ele><time>2026-03-30T12:54:10.684Z</time></trkpt><trkpt lat="43.13351" lon="2.43448"><ele>304.5</ele><time>2026-03-30T12:54:11.686Z</time></trkpt><trkpt lat="43.13358" lon="2.4343567"><ele>305.0</ele><time>2026-03-30T12:54:12.685Z</time></trkpt><trkpt lat="43.13361" lon="2.4342067"><ele>305.5</ele><time>2026-03-30T12:54:13.686Z</time></trkpt><trkpt lat="43.1335817" lon="2.43406"><ele>306.0</ele><time>2026-03-30T12:54:14.685Z</time></trkpt><trkpt lat="43.13352" lon="2.4339267"><ele>306.0</ele><time>2026-03-30T12:54:15.686Z</time></trkpt><trkpt lat="43.1334133" lon="2.4338167"><ele>306.0</ele><time>2026-03-30T12:54:16.685Z</time></trkpt><trkpt lat="43.1332883" lon="2.4337183"><ele>306.0</ele><time>2026-03-30T12:54:17.686Z</time></trkpt><trkpt lat="43.1331583" lon="2.433615"><ele>306.0</ele><time>2026-03-30T12:54:18.688Z</time></trkpt><trkpt lat="43.13302" lon="2.433535"><ele>306.75</ele><time>2026-03-30T12:54:19.685Z</time></trkpt><trkpt lat="43.1328867" lon="2.433485"><ele>307.5</ele><time>2026-03-30T12:54:20.686Z</time></trkpt><trkpt lat="43.132765" lon="2.433445"><ele>308.25</ele><time>2026-03-30T12:54:21.685Z</time></trkpt><trkpt lat="43.1326533" lon="2.433385"><ele>309.0</ele><time>2026-03-30T12:54:22.685Z</time></trkpt><trkpt lat="43.1325533" lon="2.43329"><ele>309.0</ele><time>2026-03-30T12:54:23.686Z</time></trkpt><trkpt lat="43.1324667" lon="2.4331733"><ele>309.0</ele><time>2026-03-30T12:54:24.688Z</time></trkpt><trkpt lat="43.1323933" lon="2.4330567"><ele>309.0</ele><time>2026-03-30T12:54:25.684Z</time></trkpt><trkpt lat="43.1323283" lon="2.4329467"><ele>309.0</ele><time>2026-03-30T12:54:26.687Z</time></trkpt><trkpt lat="43.1322833" lon="2.4328333"><ele>309.0</ele><time>2026-03-30T12:54:27.684Z</time></trkpt><trkpt lat="43.1322733" lon="2.43271"><ele>310.5</ele><time>2026-03-30T12:54:28.687Z</time></trkpt><trkpt lat="43.1323117" lon="2.4325933"><ele>312.0</ele><time>2026-03-30T12:54:29.694Z</time></trkpt><trkpt lat="43.1323817" lon="2.43248"><ele>313.5</ele><time>2026-03-30T12:54:30.686Z</time></trkpt><trkpt lat="43.1324633" lon="2.4323567"><ele>315.0</ele><time>2026-03-30T12:54:31.687Z</time></trkpt><trkpt lat="43.1325483" lon="2.43222"><ele>312.75</ele><time>2026-03-30T12:54:32.688Z</time></trkpt><trkpt lat="43.1326367" lon="2.432065"><ele>310.5</ele><time>2026-03-30T12:54:33.684Z</time></trkpt><trkpt lat="43.1327283" lon="2.4319067"><ele>308.25</ele><time>2026-03-30T12:54:34.686Z</time></trkpt><trkpt lat="43.1328233" lon="2.4317483"><ele>306.0</ele><time>2026-03-30T12:54:35.686Z</time></trkpt><trkpt lat="43.13292" lon="2.4315817"><ele>306.0</ele><time>2026-03-30T12:54:36.686Z</time></trkpt><trkpt lat="43.1330217" lon="2.4314217"><ele>306.0</ele><time>2026-03-30T12:54:37.684Z</time></trkpt><trkpt lat="43.1331217" lon="2.431255"><ele>306.0</ele><time>2026-03-30T12:54:38.686Z</time></trkpt><trkpt lat="43.1332267" lon="2.431085"><ele>310.0</ele><time>2026-03-30T12:54:39.686Z</time></trkpt><trkpt lat="43.133335" lon="2.4309083"><ele>314.0</ele><time>2026-03-30T12:54:40.685Z</time></trkpt><trkpt lat="43.13344" lon="2.4307217"><ele>318.0</ele><time>2026-03-30T12:54:41.685Z</time></trkpt><trkpt lat="43.1335417" lon="2.4305283"><ele>317.0</ele><time>2026-03-30T12:54:42.685Z</time></trkpt><trkpt lat="43.133645" lon="2.43034"><ele>316.0</ele><time>2026-03-30T12:54:43.685Z</time></trkpt><trkpt lat="43.1337433" lon="2.430145"><ele>315.0</ele><time>2026-03-30T12:54:44.688Z</time></trkpt><trkpt lat="43.1338333" lon="2.4299417"><ele>315.0</ele><time>2026-03-30T12:54:45.688Z</time></trkpt><trkpt lat="43.1339233" lon="2.4297367"><ele>315.0</ele><time>2026-03-30T12:54:46.686Z</time></trkpt><trkpt lat="43.1340167" lon="2.42954"><ele>315.0</ele><time>2026-03-30T12:54:47.687Z</time></trkpt><trkpt lat="43.1341183" lon="2.4293517"><ele>318.3333333333333</ele><time>2026-03-30T12:54:48.685Z</time></trkpt><trkpt lat="43.1342217" lon="2.4291583"><ele>321.66666666666663</ele><time>2026-03-30T12:54:49.685Z</time></trkpt><trkpt lat="43.1343217" lon="2.4289617"><ele>325.0</ele><time>2026-03-30T12:54:50.685Z</time></trkpt><trkpt lat="43.1344217" lon="2.428765"><ele>325.0</ele><time>2026-03-30T12:54:51.684Z</time></trkpt><trkpt lat="43.1345217" lon="2.428565"><ele>325.0</ele><time>2026-03-30T12:54:52.685Z</time></trkpt><trkpt lat="43.1346267" lon="2.4283733"><ele>325.0</ele><time>2026-03-30T12:54:53.684Z</time></trkpt><trkpt lat="43.13473" lon="2.4281833"><ele>325.0</ele><time>2026-03-30T12:54:54.687Z</time></trkpt><trkpt lat="43.1348333" lon="2.428005"><ele>325.0</ele><time>2026-03-30T12:54:55.685Z</time></trkpt><trkpt lat="43.1349283" lon="2.4278317"><ele>325.0</ele><time>2026-03-30T12:54:56.686Z</time></trkpt><trkpt lat="43.1350083" lon="2.4276533"><ele>328.25</ele><time>2026-03-30T12:54:57.684Z</time></trkpt><trkpt lat="43.135065" lon="2.4274667"><ele>331.5</ele><time>2026-03-30T12:54:58.686Z</time></trkpt><trkpt lat="43.1350933" lon="2.4272733"><ele>334.75</ele><time>2026-03-30T12:54:59.684Z</time></trkpt><trkpt lat="43.13511" lon="2.42708"><ele>338.0</ele><time>2026-03-30T12:55:00.684Z</time></trkpt><trkpt lat="43.1351483" lon="2.42689"><ele>338.25</ele><time>2026-03-30T12:55:01.684Z</time></trkpt><trkpt lat="43.135215" lon="2.42671"><ele>338.5</ele><time>2026-03-30T12:55:02.687Z</time></trkpt><trkpt lat="43.1352917" lon="2.4265467"><ele>338.75</ele><time>2026-03-30T12:55:03.684Z</time></trkpt><trkpt lat="43.1353733" lon="2.4264033"><ele>339.0</ele><time>2026-03-30T12:55:04.684Z</time></trkpt><trkpt lat="43.13547" lon="2.426285"><ele>340.0</ele><time>2026-03-30T12:55:05.684Z</time></trkpt><trkpt lat="43.1355817" lon="2.4261867"><ele>341.0</ele><time>2026-03-30T12:55:06.686Z</time></trkpt><trkpt lat="43.135705" lon="2.4260867"><ele>342.0</ele><time>2026-03-30T12:55:07.686Z</time></trkpt><trkpt lat="43.1358283" lon="2.4259833"><ele>343.0</ele><time>2026-03-30T12:55:08.686Z</time></trkpt><trkpt lat="43.1359367" lon="2.4258617"><ele>343.0</ele><time>2026-03-30T12:55:09.685Z</time></trkpt><trkpt lat="43.136025" lon="2.4257083"><ele>343.0</ele><time>2026-03-30T12:55:10.685Z</time></trkpt><trkpt lat="43.1361017" lon="2.4255467"><ele>343.0</ele><time>2026-03-30T12:55:11.686Z</time></trkpt><trkpt lat="43.1361733" lon="2.4254"><ele>343.0</ele><time>2026-03-30T12:55:12.684Z</time></trkpt><trkpt lat="43.1362367" lon="2.42527"><ele>341.59999999999997</ele><time>2026-03-30T12:55:13.685Z</time></trkpt><trkpt lat="43.13631" lon="2.425165"><ele>340.2</ele><time>2026-03-30T12:55:14.684Z</time></trkpt><trkpt lat="43.1364" lon="2.4251067"><ele>338.8</ele><time>2026-03-30T12:55:15.685Z</time></trkpt><trkpt lat="43.136505" lon="2.4251067"><ele>337.4</ele><time>2026-03-30T12:55:16.684Z</time></trkpt><trkpt lat="43.1366117" lon="2.4251767"><ele>336.0</ele><time>2026-03-30T12:55:17.685Z</time></trkpt><trkpt lat="43.13672" lon="2.4252833"><ele>335.5</ele><time>2026-03-30T12:55:18.685Z</time></trkpt><trkpt lat="43.136835" lon="2.425395"><ele>335.0</ele><time>2026-03-30T12:55:19.685Z</time></trkpt><trkpt lat="43.136955" lon="2.4254867"><ele>334.5</ele><time>2026-03-30T12:55:20.684Z</time></trkpt><trkpt lat="43.13709" lon="2.4255417"><ele>334.0</ele><time>2026-03-30T12:55:21.685Z</time></trkpt><trkpt lat="43.1372367" lon="2.4255633"><ele>337.0</ele><time>2026-03-30T12:55:22.686Z</time></trkpt><trkpt lat="43.1373833" lon="2.4255817"><ele>340.0</ele><time>2026-03-30T12:55:23.685Z</time></trkpt><trkpt lat="43.1375367" lon="2.4256317"><ele>343.0</ele><time>2026-03-30T12:55:24.69Z</time></trkpt><trkpt lat="43.1376683" lon="2.4256983"><ele>346.0</ele><time>2026-03-30T12:55:25.685Z</time></trkpt><trkpt lat="43.1377917" lon="2.4257733"><ele>346.0</ele><time>2026-03-30T12:55:26.686Z</time></trkpt><trkpt lat="43.1378867" lon="2.4258883"><ele>346.0</ele><time>2026-03-30T12:55:27.684Z</time></trkpt><trkpt lat="43.1379667" lon="2.4260467"><ele>346.0</ele><time>2026-03-30T12:55:28.684Z</time></trkpt><trkpt lat="43.1380267" lon="2.42621"><ele>346.0</ele><time>2026-03-30T12:55:29.684Z</time></trkpt><trkpt lat="43.1381217" lon="2.4263467"><ele>347.5</ele><time>2026-03-30T12:55:30.686Z</time></trkpt><trkpt lat="43.1382517" lon="2.4264233"><ele>349.0</ele><time>2026-03-30T12:55:31.685Z</time></trkpt><trkpt lat="43.138395" lon="2.4264817"><ele>350.5</ele><time>2026-03-30T12:55:32.685Z</time></trkpt><trkpt lat="43.138535" lon="2.4265533"><ele>352.0</ele><time>2026-03-30T12:55:33.684Z</time></trkpt><trkpt lat="43.1386633" lon="2.4266383"><ele>352.0</ele><time>2026-03-30T12:55:34.684Z</time></trkpt><trkpt lat="43.13878" lon="2.4267283"><ele>352.0</ele><time>2026-03-30T12:55:35.687Z</time></trkpt><trkpt lat="43.1388833" lon="2.4268267"><ele>352.0</ele><time>2026-03-30T12:55:36.684Z</time></trkpt><trkpt lat="43.138975" lon="2.4269233"><ele>352.0</ele><time>2026-03-30T12:55:37.686Z</time></trkpt><trkpt lat="43.1390633" lon="2.4270017"><ele>351.20000000000005</ele><time>2026-03-30T12:55:38.684Z</time></trkpt><trkpt lat="43.1391583" lon="2.4270283"><ele>350.4</ele><time>2026-03-30T12:55:39.684Z</time></trkpt><trkpt lat="43.1392517" lon="2.4269817"><ele>349.6</ele><time>2026-03-30T12:55:40.685Z</time></trkpt><trkpt lat="43.1393317" lon="2.4268733"><ele>348.79999999999995</ele><time>2026-03-30T12:55:41.685Z</time></trkpt><trkpt lat="43.1393967" lon="2.4267267"><ele>348.0</ele><time>2026-03-30T12:55:42.685Z</time></trkpt><trkpt lat="43.1394633" lon="2.4265883"><ele>348.0</ele><time>2026-03-30T12:55:43.685Z</time></trkpt><trkpt lat="43.1395417" lon="2.4264633"><ele>348.0</ele><time>2026-03-30T12:55:44.686Z</time></trkpt><trkpt lat="43.13964" lon="2.4263633"><ele>348.0</ele><time>2026-03-30T12:55:45.686Z</time></trkpt><trkpt lat="43.1397583" lon="2.426305"><ele>348.0</ele><time>2026-03-30T12:55:46.685Z</time></trkpt><trkpt lat="43.1398883" lon="2.4263"><ele>352.3333333333333</ele><time>2026-03-30T12:55:47.684Z</time></trkpt><trkpt lat="43.1400283" lon="2.4263317"><ele>356.66666666666663</ele><time>2026-03-30T12:55:48.686Z</time></trkpt><trkpt lat="43.1401817" lon="2.426375"><ele>361.0</ele><time>2026-03-30T12:55:49.684Z</time></trkpt><trkpt lat="43.1403333" lon="2.4264117"><ele>361.0</ele><time>2026-03-30T12:55:50.687Z</time></trkpt><trkpt lat="43.1404883" lon="2.4264417"><ele>361.0</ele><time>2026-03-30T12:55:51.685Z</time></trkpt><trkpt lat="43.1406433" lon="2.4264717"><ele>361.0</ele><time>2026-03-30T12:55:52.686Z</time></trkpt><trkpt lat="43.1407967" lon="2.42652"><ele>362.3333333333333</ele><time>2026-03-30T12:55:53.685Z</time></trkpt><trkpt lat="43.140945" lon="2.4265717"><ele>363.6666666666667</ele><time>2026-03-30T12:55:54.688Z</time></trkpt><trkpt lat="43.14109" lon="2.4266183"><ele>365.0</ele><time>2026-03-30T12:55:55.685Z</time></trkpt><trkpt lat="43.1412317" lon="2.42668"><ele>365.0</ele><time>2026-03-30T12:55:56.686Z</time></trkpt><trkpt lat="43.141365" lon="2.4267767"><ele>365.0</ele><time>2026-03-30T12:55:57.685Z</time></trkpt><trkpt lat="43.141495" lon="2.4268933"><ele>365.0</ele><time>2026-03-30T12:55:58.685Z</time></trkpt><trkpt lat="43.1416167" lon="2.4270067"><ele>364.5</ele><time>2026-03-30T12:55:59.685Z</time></trkpt><trkpt lat="43.1417233" lon="2.427125"><ele>364.0</ele><time>2026-03-30T12:56:00.687Z</time></trkpt><trkpt lat="43.141805" lon="2.4272717"><ele>363.5</ele><time>2026-03-30T12:56:01.684Z</time></trkpt><trkpt lat="43.1418633" lon="2.427455"><ele>363.0</ele><time>2026-03-30T12:56:02.684Z</time></trkpt><trkpt lat="43.1418983" lon="2.4276583"><ele>365.6666666666667</ele><time>2026-03-30T12:56:03.684Z</time></trkpt><trkpt lat="43.1419217" lon="2.4278667"><ele>368.33333333333337</ele><time>2026-03-30T12:56:04.684Z</time></trkpt><trkpt lat="43.1419333" lon="2.4280783"><ele>371.0</ele><time>2026-03-30T12:56:05.685Z</time></trkpt><trkpt lat="43.1419367" lon="2.4282933"><ele>373.33333333333337</ele><time>2026-03-30T12:56:06.684Z</time></trkpt><trkpt lat="43.1419517" lon="2.4285083"><ele>375.6666666666667</ele><time>2026-03-30T12:56:07.684Z</time></trkpt><trkpt lat="43.1419983" lon="2.4287083"><ele>378.0</ele><time>2026-03-30T12:56:08.685Z</time></trkpt><trkpt lat="43.1420833" lon="2.4288767"><ele>379.5</ele><time>2026-03-30T12:56:09.684Z</time></trkpt><trkpt lat="43.1421917" lon="2.4290133"><ele>381.0</ele><time>2026-03-30T12:56:10.688Z</time></trkpt><trkpt lat="43.1422883" lon="2.42915"><ele>382.5</ele><time>2026-03-30T12:56:11.685Z</time></trkpt><trkpt lat="43.1423517" lon="2.4293117"><ele>384.0</ele><time>2026-03-30T12:56:12.689Z</time></trkpt><trkpt lat="43.1423783" lon="2.4294983"><ele>382.75</ele><time>2026-03-30T12:56:13.685Z</time></trkpt><trkpt lat="43.142385" lon="2.4296933"><ele>381.5</ele><time>2026-03-30T12:56:14.687Z</time></trkpt><trkpt lat="43.142395" lon="2.42988"><ele>380.25</ele><time>2026-03-30T12:56:15.685Z</time></trkpt><trkpt lat="43.142415" lon="2.4300517"><ele>379.0</ele><time>2026-03-30T12:56:16.685Z</time></trkpt><trkpt lat="43.142455" lon="2.4302"><ele>379.0</ele><time>2026-03-30T12:56:17.686Z</time></trkpt><trkpt lat="43.1425283" lon="2.43031"><ele>379.0</ele><time>2026-03-30T12:56:18.687Z</time></trkpt><trkpt lat="43.1426333" lon="2.4303617"><ele>379.0</ele><time>2026-03-30T12:56:19.685Z</time></trkpt><trkpt lat="43.142755" lon="2.4303633"><ele>379.0</ele><time>2026-03-30T12:56:20.688Z</time></trkpt><trkpt lat="43.1428767" lon="2.4303417"><ele>379.0</ele><time>2026-03-30T12:56:21.685Z</time></trkpt><trkpt lat="43.1429817" lon="2.43028"><ele>379.0</ele><time>2026-03-30T12:56:22.686Z</time></trkpt><trkpt lat="43.143055" lon="2.4301617"><ele>379.0</ele><time>2026-03-30T12:56:23.687Z</time></trkpt><trkpt lat="43.14308" lon="2.4300083"><ele>379.0</ele><time>2026-03-30T12:56:24.686Z</time></trkpt><trkpt lat="43.143065" lon="2.4298417"><ele>379.0</ele><time>2026-03-30T12:56:25.687Z</time></trkpt><trkpt lat="43.1430383" lon="2.4296617"><ele>379.0</ele><time>2026-03-30T12:56:26.686Z</time></trkpt><trkpt lat="43.14302" lon="2.4294767"><ele>379.0</ele><time>2026-03-30T12:56:27.686Z</time></trkpt><trkpt lat="43.1430267" lon="2.4292867"><ele>379.0</ele><time>2026-03-30T12:56:28.686Z</time></trkpt><trkpt lat="43.1430633" lon="2.42909"><ele>377.75</ele><time>2026-03-30T12:56:29.687Z</time></trkpt><trkpt lat="43.14311" lon="2.428895"><ele>376.5</ele><time>2026-03-30T12:56:30.686Z</time></trkpt><trkpt lat="43.143135" lon="2.4287"><ele>375.25</ele><time>2026-03-30T12:56:31.687Z</time></trkpt><trkpt lat="43.1431383" lon="2.4285"><ele>374.0</ele><time>2026-03-30T12:56:32.687Z</time></trkpt><trkpt lat="43.1431567" lon="2.4283"><ele>373.33333333333337</ele><time>2026-03-30T12:56:33.685Z</time></trkpt><trkpt lat="43.1432033" lon="2.4281067"><ele>372.6666666666667</ele><time>2026-03-30T12:56:34.685Z</time></trkpt><trkpt lat="43.143275" lon="2.4279167"><ele>372.0</ele><time>2026-03-30T12:56:35.686Z</time></trkpt><trkpt lat="43.143355" lon="2.4277317"><ele>375.75</ele><time>2026-03-30T12:56:36.686Z</time></trkpt><trkpt lat="43.1434383" lon="2.4275567"><ele>379.5</ele><time>2026-03-30T12:56:37.686Z</time></trkpt><trkpt lat="43.1435283" lon="2.4273983"><ele>383.25</ele><time>2026-03-30T12:56:38.687Z</time></trkpt><trkpt lat="43.143645" lon="2.4272817"><ele>387.0</ele><time>2026-03-30T12:56:39.685Z</time></trkpt><trkpt lat="43.1437783" lon="2.4272233"><ele>387.0</ele><time>2026-03-30T12:56:40.685Z</time></trkpt><trkpt lat="43.1439117" lon="2.427185"><ele>387.0</ele><time>2026-03-30T12:56:41.686Z</time></trkpt><trkpt lat="43.144025" lon="2.427105"><ele>387.0</ele><time>2026-03-30T12:56:42.686Z</time></trkpt><trkpt lat="43.1441067" lon="2.4269667"><ele>387.0</ele><time>2026-03-30T12:56:43.686Z</time></trkpt><trkpt lat="43.14415" lon="2.426775"><ele>389.66666666666663</ele><time>2026-03-30T12:56:44.687Z</time></trkpt><trkpt lat="43.1441883" lon="2.4265667"><ele>392.3333333333333</ele><time>2026-03-30T12:56:45.685Z</time></trkpt><trkpt lat="43.14424" lon="2.4263633"><ele>395.0</ele><time>2026-03-30T12:56:46.687Z</time></trkpt><trkpt lat="43.144305" lon="2.4261683"><ele>395.0</ele><time>2026-03-30T12:56:47.688Z</time></trkpt><trkpt lat="43.14438" lon="2.4259783"><ele>395.0</ele><time>2026-03-30T12:56:48.685Z</time></trkpt><trkpt lat="43.1444583" lon="2.4257933"><ele>395.0</ele><time>2026-03-30T12:56:49.686Z</time></trkpt><trkpt lat="43.1445483" lon="2.42563"><ele>395.0</ele><time>2026-03-30T12:56:50.687Z</time></trkpt><trkpt lat="43.144635" lon="2.425475"><ele>395.0</ele><time>2026-03-30T12:56:51.685Z</time></trkpt><trkpt lat="43.1446933" lon="2.4252933"><ele>395.0</ele><time>2026-03-30T12:56:52.687Z</time></trkpt><trkpt lat="43.144715" lon="2.4250933"><ele>395.0</ele><time>2026-03-30T12:56:53.685Z</time></trkpt><trkpt lat="43.1447167" lon="2.4248883"><ele>395.0</ele><time>2026-03-30T12:56:54.685Z</time></trkpt><trkpt lat="43.144725" lon="2.4246883"><ele>395.0</ele><time>2026-03-30T12:56:55.686Z</time></trkpt><trkpt lat="43.1447433" lon="2.4244983"><ele>395.0</ele><time>2026-03-30T12:56:56.686Z</time></trkpt><trkpt lat="43.1447767" lon="2.424315"><ele>395.0</ele><time>2026-03-30T12:56:57.689Z</time></trkpt><trkpt lat="43.1448133" lon="2.4241417"><ele>396.4</ele><time>2026-03-30T12:56:58.685Z</time></trkpt><trkpt lat="43.1448517" lon="2.423985"><ele>397.8</ele><time>2026-03-30T12:56:59.685Z</time></trkpt><trkpt lat="43.14488" lon="2.4238417"><ele>399.20000000000005</ele><time>2026-03-30T12:57:00.686Z</time></trkpt><trkpt lat="43.1448867" lon="2.4237183"><ele>400.6</ele><time>2026-03-30T12:57:01.685Z</time></trkpt><trkpt lat="43.1448833" lon="2.423615"><ele>402.0</ele><time>2026-03-30T12:57:02.687Z</time></trkpt><trkpt lat="43.144895" lon="2.4234733"><ele>404.6</ele><time>2026-03-30T12:57:04.685Z</time></trkpt><trkpt lat="43.1449517" lon="2.42341"><ele>407.20000000000005</ele><time>2026-03-30T12:57:06.687Z</time></trkpt><trkpt lat="43.1450583" lon="2.4233967"><ele>409.8</ele><time>2026-03-30T12:57:08.686Z</time></trkpt><trkpt lat="43.1451633" lon="2.4234133"><ele>412.4</ele><time>2026-03-30T12:57:10.685Z</time></trkpt><trkpt lat="43.1452583" lon="2.4234633"><ele>415.0</ele><time>2026-03-30T12:57:12.685Z</time></trkpt><trkpt lat="43.1453683" lon="2.42352"><ele>415.00000000000006</ele><time>2026-03-30T12:57:14.687Z</time></trkpt><trkpt lat="43.1454283" lon="2.4235533"><ele>415.0</ele><time>2026-03-30T12:57:15.686Z</time></trkpt><trkpt lat="43.1455333" lon="2.4236217"><ele>415.0</ele><time>2026-03-30T12:57:17.686Z</time></trkpt><trkpt lat="43.1455933" lon="2.423655"><ele>415.0</ele><time>2026-03-30T12:57:18.685Z</time></trkpt><trkpt lat="43.1456567" lon="2.423685"><ele>415.00000000000006</ele><time>2026-03-30T12:57:19.685Z</time></trkpt><trkpt lat="43.1457233" lon="2.423705"><ele>415.0</ele><time>2026-03-30T12:57:20.687Z</time></trkpt><trkpt lat="43.14579" lon="2.4237267"><ele>416.50000000000006</ele><time>2026-03-30T12:57:21.686Z</time></trkpt><trkpt lat="43.1458867" lon="2.42381"><ele>418.0</ele><time>2026-03-30T12:57:23.687Z</time></trkpt><trkpt lat="43.1459317" lon="2.4238967"><ele>419.5</ele><time>2026-03-30T12:57:24.688Z</time></trkpt><trkpt lat="43.1459733" lon="2.42398"><ele>421.0</ele><time>2026-03-30T12:57:25.685Z</time></trkpt><trkpt lat="43.1460633" lon="2.4240633"><ele>422.50000000000006</ele><time>2026-03-30T12:57:27.685Z</time></trkpt><trkpt lat="43.14613" lon="2.424095"><ele>424.0</ele><time>2026-03-30T12:57:29.686Z</time></trkpt><trkpt lat="43.1461067" lon="2.4241867"><ele>424.00000000000006</ele><time>2026-03-30T12:57:32.686Z</time></trkpt><trkpt lat="43.1460417" lon="2.4241283"><ele>424.0</ele><time>2026-03-30T12:57:35.686Z</time></trkpt><trkpt lat="43.146" lon="2.42404"><ele>424.0</ele><time>2026-03-30T12:58:10.685Z</time></trkpt><trkpt lat="43.1459483" lon="2.4239383"><ele>424.0</ele><time>2026-03-30T12:58:12.687Z</time></trkpt><trkpt lat="43.1458967" lon="2.4238283"><ele>424.00000000000006</ele><time>2026-03-30T12:58:14.688Z</time></trkpt><trkpt lat="43.1458267" lon="2.4237417"><ele>424.0</ele><time>2026-03-30T12:58:16.686Z</time></trkpt><trkpt lat="43.1457417" lon="2.4236967"><ele>422.50000000000006</ele><time>2026-03-30T12:58:18.686Z</time></trkpt><trkpt lat="43.1456483" lon="2.423665"><ele>421.0</ele><time>2026-03-30T12:58:20.687Z</time></trkpt><trkpt lat="43.14556" lon="2.4236333"><ele>419.5</ele><time>2026-03-30T12:58:22.686Z</time></trkpt><trkpt lat="43.145475" lon="2.4235967"><ele>418.0</ele><time>2026-03-30T12:58:24.689Z</time></trkpt><trkpt lat="43.145395" lon="2.423555"><ele>416.50000000000006</ele><time>2026-03-30T12:58:26.686Z</time></trkpt><trkpt lat="43.1453167" lon="2.4235133"><ele>415.0</ele><time>2026-03-30T12:58:28.685Z</time></trkpt><trkpt lat="43.145245" lon="2.4234717"><ele>415.00000000000006</ele><time>2026-03-30T12:58:30.685Z</time></trkpt><trkpt lat="43.1451767" lon="2.4234467"><ele>415.0</ele><time>2026-03-30T12:58:32.688Z</time></trkpt><trkpt lat="43.145115" lon="2.4234217"><ele>415.0</ele><time>2026-03-30T12:58:34.685Z</time></trkpt><trkpt lat="43.1450283" lon="2.4234067"><ele>415.0</ele><time>2026-03-30T12:58:37.689Z</time></trkpt><trkpt lat="43.1449483" lon="2.4234183"><ele>415.00000000000006</ele><time>2026-03-30T12:58:39.686Z</time></trkpt><trkpt lat="43.1448817" lon="2.4233633"><ele>415.0</ele><time>2026-03-30T12:58:42.685Z</time></trkpt><trkpt lat="43.1449" lon="2.4232633"><ele>415.0</ele><time>2026-03-30T12:58:44.688Z</time></trkpt><trkpt lat="43.1449117" lon="2.42311"><ele>415.0</ele><time>2026-03-30T12:58:46.685Z</time></trkpt><trkpt lat="43.144915" lon="2.4230067"><ele>415.0</ele><time>2026-03-30T12:58:47.689Z</time></trkpt><trkpt lat="43.144915" lon="2.422885"><ele>415.0</ele><time>2026-03-30T12:58:48.687Z</time></trkpt><trkpt lat="43.14491" lon="2.422745"><ele>415.0</ele><time>2026-03-30T12:58:49.687Z</time></trkpt><trkpt lat="43.1448967" lon="2.4225967"><ele>415.0</ele><time>2026-03-30T12:58:50.686Z</time></trkpt><trkpt lat="43.14487" lon="2.42244"><ele>415.0</ele><time>2026-03-30T12:58:51.686Z</time></trkpt><trkpt lat="43.1448317" lon="2.4222767"><ele>415.0</ele><time>2026-03-30T12:58:52.686Z</time></trkpt><trkpt lat="43.1447883" lon="2.4221133"><ele>415.0</ele><time>2026-03-30T12:58:53.688Z</time></trkpt><trkpt lat="43.144745" lon="2.4219433"><ele>415.0</ele><time>2026-03-30T12:58:54.686Z</time></trkpt><trkpt lat="43.1447033" lon="2.4217633"><ele>415.0</ele><time>2026-03-30T12:58:55.686Z</time></trkpt><trkpt lat="43.1446717" lon="2.4215733"><ele>415.0</ele><time>2026-03-30T12:58:56.686Z</time></trkpt><trkpt lat="43.1446633" lon="2.4213783"><ele>415.0</ele><time>2026-03-30T12:58:57.686Z</time></trkpt><trkpt lat="43.144685" lon="2.4211817"><ele>415.5</ele><time>2026-03-30T12:58:58.687Z</time></trkpt><trkpt lat="43.1447267" lon="2.4209867"><ele>416.0</ele><time>2026-03-30T12:58:59.688Z</time></trkpt><trkpt lat="43.144775" lon="2.4207983"><ele>416.5</ele><time>2026-03-30T12:59:00.686Z</time></trkpt><trkpt lat="43.1448283" lon="2.4206067"><ele>417.0</ele><time>2026-03-30T12:59:01.686Z</time></trkpt><trkpt lat="43.1448867" lon="2.4204133"><ele>411.33333333333337</ele><time>2026-03-30T12:59:02.685Z</time></trkpt><trkpt lat="43.1449583" lon="2.4202233"><ele>405.6666666666667</ele><time>2026-03-30T12:59:03.686Z</time></trkpt><trkpt lat="43.1450417" lon="2.4200417"><ele>400.0</ele><time>2026-03-30T12:59:04.687Z</time></trkpt><trkpt lat="43.1451217" lon="2.41986"><ele>400.0</ele><time>2026-03-30T12:59:05.687Z</time></trkpt><trkpt lat="43.1451933" lon="2.419675"><ele>400.0</ele><time>2026-03-30T12:59:06.686Z</time></trkpt><trkpt lat="43.1452433" lon="2.419485"><ele>400.0</ele><time>2026-03-30T12:59:07.687Z</time></trkpt><trkpt lat="43.1452767" lon="2.4192983"><ele>400.0</ele><time>2026-03-30T12:59:08.687Z</time></trkpt><trkpt lat="43.145315" lon="2.419115"><ele>401.75</ele><time>2026-03-30T12:59:09.685Z</time></trkpt><trkpt lat="43.1453767" lon="2.4189383"><ele>403.5</ele><time>2026-03-30T12:59:10.685Z</time></trkpt><trkpt lat="43.1454583" lon="2.418775"><ele>405.25</ele><time>2026-03-30T12:59:11.687Z</time></trkpt><trkpt lat="43.1455567" lon="2.4186233"><ele>407.0</ele><time>2026-03-30T12:59:12.685Z</time></trkpt><trkpt lat="43.145665" lon="2.418475"><ele>402.0</ele><time>2026-03-30T12:59:13.685Z</time></trkpt><trkpt lat="43.1457867" lon="2.4183317"><ele>397.0</ele><time>2026-03-30T12:59:14.687Z</time></trkpt><trkpt lat="43.1459133" lon="2.4181917"><ele>392.0</ele><time>2026-03-30T12:59:15.685Z</time></trkpt><trkpt lat="43.1460433" lon="2.418055"><ele>398.0</ele><time>2026-03-30T12:59:16.686Z</time></trkpt><trkpt lat="43.146175" lon="2.417915"><ele>404.0</ele><time>2026-03-30T12:59:17.685Z</time></trkpt><trkpt lat="43.1463033" lon="2.417775"><ele>410.0</ele><time>2026-03-30T12:59:18.686Z</time></trkpt><trkpt lat="43.1464233" lon="2.4176383"><ele>410.0</ele><time>2026-03-30T12:59:19.686Z</time></trkpt><trkpt lat="43.1465367" lon="2.4175033"><ele>410.0</ele><time>2026-03-30T12:59:20.685Z</time></trkpt><trkpt lat="43.146645" lon="2.417375"><ele>410.0</ele><time>2026-03-30T12:59:21.688Z</time></trkpt><trkpt lat="43.14675" lon="2.4172517"><ele>410.0</ele><time>2026-03-30T12:59:22.686Z</time></trkpt><trkpt lat="43.1468567" lon="2.4171283"><ele>407.0</ele><time>2026-03-30T12:59:23.688Z</time></trkpt><trkpt lat="43.1469633" lon="2.41701"><ele>404.0</ele><time>2026-03-30T12:59:24.686Z</time></trkpt><trkpt lat="43.1470683" lon="2.41689"><ele>401.0</ele><time>2026-03-30T12:59:25.686Z</time></trkpt><trkpt lat="43.147165" lon="2.4167583"><ele>398.0</ele><time>2026-03-30T12:59:26.686Z</time></trkpt><trkpt lat="43.1472433" lon="2.4166067"><ele>398.0</ele><time>2026-03-30T12:59:27.685Z</time></trkpt><trkpt lat="43.1472967" lon="2.416435"><ele>398.0</ele><time>2026-03-30T12:59:28.686Z</time></trkpt><trkpt lat="43.147325" lon="2.416255"><ele>398.0</ele><time>2026-03-30T12:59:29.686Z</time></trkpt><trkpt lat="43.1473383" lon="2.4160617"><ele>398.0</ele><time>2026-03-30T12:59:30.686Z</time></trkpt><trkpt lat="43.14734" lon="2.4158633"><ele>401.0</ele><time>2026-03-30T12:59:31.685Z</time></trkpt><trkpt lat="43.1473467" lon="2.4156583"><ele>404.0</ele><time>2026-03-30T12:59:32.686Z</time></trkpt><trkpt lat="43.147365" lon="2.4154533"><ele>407.0</ele><time>2026-03-30T12:59:33.686Z</time></trkpt><trkpt lat="43.1473983" lon="2.4152567"><ele>410.0</ele><time>2026-03-30T12:59:34.689Z</time></trkpt><trkpt lat="43.1474517" lon="2.415065"><ele>400.3333333333333</ele><time>2026-03-30T12:59:35.685Z</time></trkpt><trkpt lat="43.14752" lon="2.4148817"><ele>390.66666666666663</ele><time>2026-03-30T12:59:36.686Z</time></trkpt><trkpt lat="43.1476017" lon="2.4147"><ele>381.0</ele><time>2026-03-30T12:59:37.685Z</time></trkpt><trkpt lat="43.1476817" lon="2.4145183"><ele>381.0</ele><time>2026-03-30T12:59:38.686Z</time></trkpt><trkpt lat="43.1477567" lon="2.4143317"><ele>381.0</ele><time>2026-03-30T12:59:39.685Z</time></trkpt><trkpt lat="43.1478317" lon="2.4141483"><ele>381.0</ele><time>2026-03-30T12:59:40.689Z</time></trkpt><trkpt lat="43.1479033" lon="2.4139733"><ele>382.0</ele><time>2026-03-30T12:59:41.686Z</time></trkpt><trkpt lat="43.1479717" lon="2.4137983"><ele>383.0</ele><time>2026-03-30T12:59:42.685Z</time></trkpt><trkpt lat="43.1480317" lon="2.4136167"><ele>384.0</ele><time>2026-03-30T12:59:43.685Z</time></trkpt><trkpt lat="43.1480717" lon="2.4134233"><ele>385.0</ele><time>2026-03-30T12:59:44.687Z</time></trkpt><trkpt lat="43.1481" lon="2.41322"><ele>385.0</ele><time>2026-03-30T12:59:45.687Z</time></trkpt><trkpt lat="43.1481267" lon="2.413015"><ele>385.0</ele><time>2026-03-30T12:59:46.686Z</time></trkpt><trkpt lat="43.1481683" lon="2.41282"><ele>385.0</ele><time>2026-03-30T12:59:47.689Z</time></trkpt><trkpt lat="43.1482217" lon="2.4126367"><ele>385.0</ele><time>2026-03-30T12:59:48.687Z</time></trkpt><trkpt lat="43.148285" lon="2.4124617"><ele>382.5</ele><time>2026-03-30T12:59:49.685Z</time></trkpt><trkpt lat="43.14836" lon="2.4123033"><ele>380.0</ele><time>2026-03-30T12:59:50.687Z</time></trkpt><trkpt lat="43.14845" lon="2.4121767"><ele>377.5</ele><time>2026-03-30T12:59:51.686Z</time></trkpt><trkpt lat="43.148565" lon="2.41209"><ele>375.0</ele><time>2026-03-30T12:59:52.688Z</time></trkpt><trkpt lat="43.1486983" lon="2.412035"><ele>375.0</ele><time>2026-03-30T12:59:53.687Z</time></trkpt><trkpt lat="43.1488417" lon="2.4119967"><ele>375.0</ele><time>2026-03-30T12:59:54.685Z</time></trkpt><trkpt lat="43.1489817" lon="2.4119667"><ele>375.0</ele><time>2026-03-30T12:59:55.69Z</time></trkpt><trkpt lat="43.1491167" lon="2.4119333"><ele>375.0</ele><time>2026-03-30T12:59:56.688Z</time></trkpt><trkpt lat="43.1492483" lon="2.4118883"><ele>371.0</ele><time>2026-03-30T12:59:57.685Z</time></trkpt><trkpt lat="43.1493683" lon="2.4118067"><ele>367.0</ele><time>2026-03-30T12:59:58.685Z</time></trkpt><trkpt lat="43.1494683" lon="2.4116717"><ele>363.0</ele><time>2026-03-30T12:59:59.687Z</time></trkpt><trkpt lat="43.149565" lon="2.4115167"><ele>359.0</ele><time>2026-03-30T13:00:00.686Z</time></trkpt><trkpt lat="43.1496683" lon="2.4113683"><ele>355.6666666666667</ele><time>2026-03-30T13:00:01.686Z</time></trkpt><trkpt lat="43.149785" lon="2.41123"><ele>352.3333333333333</ele><time>2026-03-30T13:00:02.689Z</time></trkpt><trkpt lat="43.1499033" lon="2.411095"><ele>349.0</ele><time>2026-03-30T13:00:03.687Z</time></trkpt><trkpt lat="43.1500117" lon="2.4109683"><ele>349.0</ele><time>2026-03-30T13:00:04.686Z</time></trkpt><trkpt lat="43.1501117" lon="2.4108333"><ele>349.0</ele><time>2026-03-30T13:00:05.686Z</time></trkpt><trkpt lat="43.1501983" lon="2.4106817"><ele>349.0</ele><time>2026-03-30T13:00:06.686Z</time></trkpt><trkpt lat="43.1502617" lon="2.41051"><ele>349.0</ele><time>2026-03-30T13:00:07.688Z</time></trkpt><trkpt lat="43.1502933" lon="2.4103183"><ele>349.66666666666663</ele><time>2026-03-30T13:00:08.687Z</time></trkpt><trkpt lat="43.1503067" lon="2.4101183"><ele>350.3333333333333</ele><time>2026-03-30T13:00:09.685Z</time></trkpt><trkpt lat="43.1503233" lon="2.409915"><ele>351.0</ele><time>2026-03-30T13:00:10.686Z</time></trkpt><trkpt lat="43.150345" lon="2.4097017"><ele>351.6666666666667</ele><time>2026-03-30T13:00:11.685Z</time></trkpt><trkpt lat="43.1503833" lon="2.4094967"><ele>352.33333333333337</ele><time>2026-03-30T13:00:12.686Z</time></trkpt><trkpt lat="43.15044" lon="2.4093"><ele>353.0</ele><time>2026-03-30T13:00:13.685Z</time></trkpt><trkpt lat="43.1505133" lon="2.4091183"><ele>353.0</ele><time>2026-03-30T13:00:14.686Z</time></trkpt><trkpt lat="43.1505983" lon="2.408955"><ele>353.0</ele><time>2026-03-30T13:00:15.685Z</time></trkpt><trkpt lat="43.1506917" lon="2.4088133"><ele>353.0</ele><time>2026-03-30T13:00:16.688Z</time></trkpt><trkpt lat="43.15079" lon="2.4086883"><ele>353.0</ele><time>2026-03-30T13:00:17.686Z</time></trkpt><trkpt lat="43.1508867" lon="2.4085717"><ele>349.75</ele><time>2026-03-30T13:00:18.687Z</time></trkpt><trkpt lat="43.1509767" lon="2.4084533"><ele>346.5</ele><time>2026-03-30T13:00:19.686Z</time></trkpt><trkpt lat="43.1510467" lon="2.4083183"><ele>343.25</ele><time>2026-03-30T13:00:20.689Z</time></trkpt><trkpt lat="43.1510867" lon="2.408165"><ele>340.0</ele><time>2026-03-30T13:00:21.686Z</time></trkpt><trkpt lat="43.1510933" lon="2.4079917"><ele>340.0</ele><time>2026-03-30T13:00:22.686Z</time></trkpt><trkpt lat="43.1510767" lon="2.4078167"><ele>340.0</ele><time>2026-03-30T13:00:23.687Z</time></trkpt><trkpt lat="43.15105" lon="2.4076383"><ele>340.0</ele><time>2026-03-30T13:00:24.685Z</time></trkpt><trkpt lat="43.15102" lon="2.4074583"><ele>340.0</ele><time>2026-03-30T13:00:25.687Z</time></trkpt><trkpt lat="43.1509867" lon="2.4072767"><ele>337.5</ele><time>2026-03-30T13:00:26.686Z</time></trkpt><trkpt lat="43.150945" lon="2.407095"><ele>335.0</ele><time>2026-03-30T13:00:27.686Z</time></trkpt><trkpt lat="43.1508833" lon="2.406925"><ele>332.5</ele><time>2026-03-30T13:00:28.685Z</time></trkpt><trkpt lat="43.1508033" lon="2.406765"><ele>330.0</ele><time>2026-03-30T13:00:29.687Z</time></trkpt><trkpt lat="43.1507167" lon="2.406605"><ele>331.0</ele><time>2026-03-30T13:00:30.685Z</time></trkpt><trkpt lat="43.15063" lon="2.40644"><ele>332.0</ele><time>2026-03-30T13:00:31.687Z</time></trkpt><trkpt lat="43.1505433" lon="2.4062683"><ele>333.0</ele><time>2026-03-30T13:00:32.685Z</time></trkpt><trkpt lat="43.1504617" lon="2.4060967"><ele>333.0</ele><time>2026-03-30T13:00:33.685Z</time></trkpt><trkpt lat="43.1503817" lon="2.4059283"><ele>333.0</ele><time>2026-03-30T13:00:34.685Z</time></trkpt><trkpt lat="43.1503" lon="2.405765"><ele>333.0</ele><time>2026-03-30T13:00:35.685Z</time></trkpt><trkpt lat="43.1502083" lon="2.4056217"><ele>333.0</ele><time>2026-03-30T13:00:36.686Z</time></trkpt><trkpt lat="43.1500967" lon="2.405505"><ele>333.0</ele><time>2026-03-30T13:00:37.686Z</time></trkpt><trkpt lat="43.1499767" lon="2.4054117"><ele>333.0</ele><time>2026-03-30T13:00:38.686Z</time></trkpt><trkpt lat="43.1498617" lon="2.40533"><ele>333.0</ele><time>2026-03-30T13:00:39.686Z</time></trkpt><trkpt lat="43.1497467" lon="2.4052533"><ele>333.0</ele><time>2026-03-30T13:00:40.686Z</time></trkpt><trkpt lat="43.149635" lon="2.40518"><ele>333.0</ele><time>2026-03-30T13:00:41.686Z</time></trkpt><trkpt lat="43.1495317" lon="2.405105"><ele>333.0</ele><time>2026-03-30T13:00:42.685Z</time></trkpt><trkpt lat="43.149435" lon="2.405035"><ele>333.0</ele><time>2026-03-30T13:00:43.684Z</time></trkpt><trkpt lat="43.1493533" lon="2.4049533"><ele>333.0</ele><time>2026-03-30T13:00:44.686Z</time></trkpt><trkpt lat="43.1493017" lon="2.4048367"><ele>333.0</ele><time>2026-03-30T13:00:45.687Z</time></trkpt><trkpt lat="43.1493017" lon="2.4046883"><ele>335.0</ele><time>2026-03-30T13:00:46.684Z</time></trkpt><trkpt lat="43.1493617" lon="2.4045533"><ele>337.0</ele><time>2026-03-30T13:00:47.687Z</time></trkpt><trkpt lat="43.1494583" lon="2.40444"><ele>339.0</ele><time>2026-03-30T13:00:48.687Z</time></trkpt><trkpt lat="43.1495817" lon="2.40436"><ele>341.0</ele><time>2026-03-30T13:00:49.687Z</time></trkpt><trkpt lat="43.14971" lon="2.4043033"><ele>341.0</ele><time>2026-03-30T13:00:50.686Z</time></trkpt><trkpt lat="43.149845" lon="2.40425"><ele>341.0</ele><time>2026-03-30T13:00:51.686Z</time></trkpt><trkpt lat="43.1499767" lon="2.4041917"><ele>341.0</ele><time>2026-03-30T13:00:52.688Z</time></trkpt><trkpt lat="43.1501033" lon="2.4041367"><ele>341.0</ele><time>2026-03-30T13:00:53.689Z</time></trkpt><trkpt lat="43.15022" lon="2.40407"><ele>338.5</ele><time>2026-03-30T13:00:54.685Z</time></trkpt><trkpt lat="43.150325" lon="2.4039667"><ele>336.0</ele><time>2026-03-30T13:00:55.685Z</time></trkpt><trkpt lat="43.1503983" lon="2.4038183"><ele>333.5</ele><time>2026-03-30T13:00:56.687Z</time></trkpt><trkpt lat="43.1504383" lon="2.40365"><ele>331.0</ele><time>2026-03-30T13:00:57.685Z</time></trkpt><trkpt lat="43.1504783" lon="2.4034733"><ele>331.0</ele><time>2026-03-30T13:00:58.686Z</time></trkpt><trkpt lat="43.15052" lon="2.40329"><ele>331.0</ele><time>2026-03-30T13:00:59.688Z</time></trkpt><trkpt lat="43.1505617" lon="2.4031083"><ele>331.0</ele><time>2026-03-30T13:01:00.685Z</time></trkpt><trkpt lat="43.1505983" lon="2.4029267"><ele>331.0</ele><time>2026-03-30T13:01:01.689Z</time></trkpt><trkpt lat="43.1506367" lon="2.4027483"><ele>332.0</ele><time>2026-03-30T13:01:02.686Z</time></trkpt><trkpt lat="43.1506717" lon="2.4025733"><ele>333.0</ele><time>2026-03-30T13:01:03.686Z</time></trkpt><trkpt lat="43.1507117" lon="2.4024083"><ele>334.0</ele><time>2026-03-30T13:01:04.689Z</time></trkpt><trkpt lat="43.1507633" lon="2.40226"><ele>335.0</ele><time>2026-03-30T13:01:05.685Z</time></trkpt><trkpt lat="43.1508367" lon="2.4021433"><ele>332.0</ele><time>2026-03-30T13:01:06.687Z</time></trkpt><trkpt lat="43.150925" lon="2.4020667"><ele>329.0</ele><time>2026-03-30T13:01:07.686Z</time></trkpt><trkpt lat="43.1510083" lon="2.4020067"><ele>326.0</ele><time>2026-03-30T13:01:08.686Z</time></trkpt><trkpt lat="43.151085" lon="2.40195"><ele>323.0</ele><time>2026-03-30T13:01:09.687Z</time></trkpt><trkpt lat="43.1511483" lon="2.4018733"><ele>320.0</ele><time>2026-03-30T13:01:10.687Z</time></trkpt><trkpt lat="43.1511917" lon="2.4017717"><ele>320.0</ele><time>2026-03-30T13:01:11.685Z</time></trkpt><trkpt lat="43.1512067" lon="2.4016717"><ele>320.0</ele><time>2026-03-30T13:01:12.686Z</time></trkpt><trkpt lat="43.151205" lon="2.4015767"><ele>320.0</ele><time>2026-03-30T13:01:13.687Z</time></trkpt><trkpt lat="43.1511933" lon="2.4014567"><ele>320.0</ele><time>2026-03-30T13:01:15.686Z</time></trkpt><trkpt lat="43.15117" lon="2.401375"><ele>320.0</ele><time>2026-03-30T13:01:18.686Z</time></trkpt><trkpt lat="43.1511367" lon="2.40125"><ele>320.0</ele><time>2026-03-30T13:01:22.687Z</time></trkpt><trkpt lat="43.15112" lon="2.40109"><ele>320.1666666666667</ele><time>2026-03-30T13:01:24.685Z</time></trkpt><trkpt lat="43.15112" lon="2.4009933"><ele>320.33333333333337</ele><time>2026-03-30T13:01:25.686Z</time></trkpt><trkpt lat="43.1511367" lon="2.4008883"><ele>320.5</ele><time>2026-03-30T13:01:26.687Z</time></trkpt><trkpt lat="43.1511633" lon="2.4007783"><ele>320.6666666666667</ele><time>2026-03-30T13:01:27.685Z</time></trkpt><trkpt lat="43.1512033" lon="2.40067"><ele>320.8333333333333</ele><time>2026-03-30T13:01:28.685Z</time></trkpt><trkpt lat="43.15125" lon="2.400555"><ele>321.0</ele><time>2026-03-30T13:01:29.686Z</time></trkpt><trkpt lat="43.1513033" lon="2.40044"><ele>322.6</ele><time>2026-03-30T13:01:30.689Z</time></trkpt><trkpt lat="43.1513533" lon="2.4003133"><ele>324.20000000000005</ele><time>2026-03-30T13:01:31.689Z</time></trkpt><trkpt lat="43.1513983" lon="2.4001817"><ele>325.79999999999995</ele><time>2026-03-30T13:01:32.688Z</time></trkpt><trkpt lat="43.1514367" lon="2.4000467"><ele>327.4</ele><time>2026-03-30T13:01:33.687Z</time></trkpt><trkpt lat="43.15148" lon="2.399925"><ele>329.0</ele><time>2026-03-30T13:01:34.687Z</time></trkpt><trkpt lat="43.1515267" lon="2.3998083"><ele>327.6</ele><time>2026-03-30T13:01:35.688Z</time></trkpt><trkpt lat="43.1515717" lon="2.3996983"><ele>326.2</ele><time>2026-03-30T13:01:36.685Z</time></trkpt><trkpt lat="43.1516217" lon="2.3995933"><ele>324.8</ele><time>2026-03-30T13:01:37.687Z</time></trkpt><trkpt lat="43.1516867" lon="2.3995067"><ele>323.40000000000003</ele><time>2026-03-30T13:01:38.687Z</time></trkpt><trkpt lat="43.1517617" lon="2.3994417"><ele>322.0</ele><time>2026-03-30T13:01:39.687Z</time></trkpt><trkpt lat="43.1518483" lon="2.3993967"><ele>322.0</ele><time>2026-03-30T13:01:40.686Z</time></trkpt><trkpt lat="43.15195" lon="2.399405"><ele>322.0</ele><time>2026-03-30T13:01:41.685Z</time></trkpt><trkpt lat="43.152045" lon="2.3994633"><ele>322.0</ele><time>2026-03-30T13:01:42.686Z</time></trkpt><trkpt lat="43.15212" lon="2.3995683"><ele>322.0</ele><time>2026-03-30T13:01:43.686Z</time></trkpt><trkpt lat="43.1521733" lon="2.3997083"><ele>322.0</ele><time>2026-03-30T13:01:44.688Z</time></trkpt><trkpt lat="43.1522183" lon="2.3998567"><ele>322.25</ele><time>2026-03-30T13:01:45.685Z</time></trkpt><trkpt lat="43.1522583" lon="2.4000133"><ele>322.5</ele><time>2026-03-30T13:01:46.685Z</time></trkpt><trkpt lat="43.1523017" lon="2.4001733"><ele>322.75</ele><time>2026-03-30T13:01:47.686Z</time></trkpt><trkpt lat="43.15234" lon="2.4003367"><ele>323.0</ele><time>2026-03-30T13:01:48.687Z</time></trkpt><trkpt lat="43.15238" lon="2.4004983"><ele>320.5</ele><time>2026-03-30T13:01:49.685Z</time></trkpt><trkpt lat="43.1524217" lon="2.400665"><ele>318.0</ele><time>2026-03-30T13:01:50.686Z</time></trkpt><trkpt lat="43.152455" lon="2.40084"><ele>315.5</ele><time>2026-03-30T13:01:51.686Z</time></trkpt><trkpt lat="43.1524883" lon="2.4010217"><ele>313.0</ele><time>2026-03-30T13:01:52.685Z</time></trkpt><trkpt lat="43.1525217" lon="2.4012067"><ele>310.75</ele><time>2026-03-30T13:01:53.685Z</time></trkpt><trkpt lat="43.152555" lon="2.401385"><ele>308.5</ele><time>2026-03-30T13:01:54.687Z</time></trkpt><trkpt lat="43.1525883" lon="2.4015517"><ele>306.25</ele><time>2026-03-30T13:01:55.689Z</time></trkpt><trkpt lat="43.15263" lon="2.4017117"><ele>304.0</ele><time>2026-03-30T13:01:56.686Z</time></trkpt><trkpt lat="43.1527017" lon="2.4018533"><ele>304.0</ele><time>2026-03-30T13:01:57.685Z</time></trkpt><trkpt lat="43.1527983" lon="2.4019817"><ele>304.0</ele><time>2026-03-30T13:01:58.687Z</time></trkpt><trkpt lat="43.15292" lon="2.4020633"><ele>304.0</ele><time>2026-03-30T13:01:59.687Z</time></trkpt><trkpt lat="43.1530467" lon="2.4020917"><ele>304.0</ele><time>2026-03-30T13:02:00.689Z</time></trkpt><trkpt lat="43.153165" lon="2.4020233"><ele>307.0</ele><time>2026-03-30T13:02:01.687Z</time></trkpt><trkpt lat="43.1532933" lon="2.40194"><ele>310.0</ele><time>2026-03-30T13:02:02.688Z</time></trkpt><trkpt lat="43.15342" lon="2.4018817"><ele>313.0</ele><time>2026-03-30T13:02:03.686Z</time></trkpt><trkpt lat="43.1535483" lon="2.4018767"><ele>316.0</ele><time>2026-03-30T13:02:04.686Z</time></trkpt><trkpt lat="43.153675" lon="2.4019217"><ele>316.0</ele><time>2026-03-30T13:02:05.686Z</time></trkpt><trkpt lat="43.1538017" lon="2.4019967"><ele>316.0</ele><time>2026-03-30T13:02:06.688Z</time></trkpt><trkpt lat="43.15393" lon="2.4020733"><ele>316.0</ele><time>2026-03-30T13:02:07.687Z</time></trkpt><trkpt lat="43.1540617" lon="2.40213"><ele>316.0</ele><time>2026-03-30T13:02:08.687Z</time></trkpt><trkpt lat="43.1542" lon="2.40217"><ele>310.75</ele><time>2026-03-30T13:02:09.689Z</time></trkpt><trkpt lat="43.1543433" lon="2.4022033"><ele>305.5</ele><time>2026-03-30T13:02:10.688Z</time></trkpt><trkpt lat="43.1544883" lon="2.402245"><ele>300.25</ele><time>2026-03-30T13:02:11.685Z</time></trkpt><trkpt lat="43.154635" lon="2.402295"><ele>295.0</ele><time>2026-03-30T13:02:12.685Z</time></trkpt><trkpt lat="43.1547817" lon="2.4023417"><ele>295.75</ele><time>2026-03-30T13:02:13.686Z</time></trkpt><trkpt lat="43.1549183" lon="2.4023833"><ele>296.5</ele><time>2026-03-30T13:02:14.685Z</time></trkpt><trkpt lat="43.1550467" lon="2.40243"><ele>297.25</ele><time>2026-03-30T13:02:15.685Z</time></trkpt><trkpt lat="43.1551667" lon="2.4024767"><ele>298.0</ele><time>2026-03-30T13:02:16.686Z</time></trkpt><trkpt lat="43.15528" lon="2.4025233"><ele>298.0</ele><time>2026-03-30T13:02:17.685Z</time></trkpt><trkpt lat="43.155385" lon="2.4025633"><ele>298.0</ele><time>2026-03-30T13:02:18.687Z</time></trkpt><trkpt lat="43.1554833" lon="2.4025717"><ele>298.0</ele><time>2026-03-30T13:02:19.686Z</time></trkpt><trkpt lat="43.1555783" lon="2.40253"><ele>298.0</ele><time>2026-03-30T13:02:20.686Z</time></trkpt><trkpt lat="43.15565" lon="2.402435"><ele>298.0</ele><time>2026-03-30T13:02:21.686Z</time></trkpt><trkpt lat="43.1556933" lon="2.402305"><ele>301.0</ele><time>2026-03-30T13:02:22.685Z</time></trkpt><trkpt lat="43.15568" lon="2.4021617"><ele>304.0</ele><time>2026-03-30T13:02:23.685Z</time></trkpt><trkpt lat="43.1556117" lon="2.40203"><ele>307.0</ele><time>2026-03-30T13:02:24.685Z</time></trkpt><trkpt lat="43.15552" lon="2.4019017"><ele>310.0</ele><time>2026-03-30T13:02:25.686Z</time></trkpt><trkpt lat="43.1554317" lon="2.4017633"><ele>310.0</ele><time>2026-03-30T13:02:26.689Z</time></trkpt><trkpt lat="43.1553633" lon="2.4016017"><ele>310.0</ele><time>2026-03-30T13:02:27.688Z</time></trkpt><trkpt lat="43.15532" lon="2.4014183"><ele>310.0</ele><time>2026-03-30T13:02:28.689Z</time></trkpt><trkpt lat="43.1553133" lon="2.40122"><ele>310.0</ele><time>2026-03-30T13:02:29.687Z</time></trkpt><trkpt lat="43.1553217" lon="2.4010067"><ele>310.0</ele><time>2026-03-30T13:02:30.688Z</time></trkpt><trkpt lat="43.1553317" lon="2.4007917"><ele>310.0</ele><time>2026-03-30T13:02:31.686Z</time></trkpt><trkpt lat="43.1553433" lon="2.4005733"><ele>310.0</ele><time>2026-03-30T13:02:32.686Z</time></trkpt><trkpt lat="43.1553517" lon="2.4003483"><ele>308.66666666666663</ele><time>2026-03-30T13:02:33.688Z</time></trkpt><trkpt lat="43.15536" lon="2.4001267"><ele>307.3333333333333</ele><time>2026-03-30T13:02:34.688Z</time></trkpt><trkpt lat="43.1553733" lon="2.3999133"><ele>306.0</ele><time>2026-03-30T13:02:35.689Z</time></trkpt><trkpt lat="43.1554067" lon="2.3997067"><ele>307.3333333333333</ele><time>2026-03-30T13:02:36.69Z</time></trkpt><trkpt lat="43.15547" lon="2.3995133"><ele>308.66666666666663</ele><time>2026-03-30T13:02:37.688Z</time></trkpt><trkpt lat="43.155555" lon="2.399335"><ele>310.0</ele><time>2026-03-30T13:02:38.689Z</time></trkpt><trkpt lat="43.1556533" lon="2.3991633"><ele>310.0</ele><time>2026-03-30T13:02:39.688Z</time></trkpt><trkpt lat="43.155755" lon="2.3990017"><ele>310.0</ele><time>2026-03-30T13:02:40.688Z</time></trkpt><trkpt lat="43.1558617" lon="2.3988517"><ele>310.0</ele><time>2026-03-30T13:02:41.687Z</time></trkpt><trkpt lat="43.155975" lon="2.3987217"><ele>310.0</ele><time>2026-03-30T13:02:42.687Z</time></trkpt><trkpt lat="43.1561" lon="2.3986217"><ele>310.0</ele><time>2026-03-30T13:02:43.687Z</time></trkpt><trkpt lat="43.1562333" lon="2.3985583"><ele>310.0</ele><time>2026-03-30T13:02:44.689Z</time></trkpt><trkpt lat="43.1563717" lon="2.3985433"><ele>310.0</ele><time>2026-03-30T13:02:45.685Z</time></trkpt><trkpt lat="43.1565067" lon="2.3985533"><ele>307.0</ele><time>2026-03-30T13:02:46.689Z</time></trkpt><trkpt lat="43.1566367" lon="2.3985483"><ele>304.0</ele><time>2026-03-30T13:02:47.687Z</time></trkpt><trkpt lat="43.1567617" lon="2.3984967"><ele>301.0</ele><time>2026-03-30T13:02:48.686Z</time></trkpt><trkpt lat="43.1568783" lon="2.3983917"><ele>298.0</ele><time>2026-03-30T13:02:49.686Z</time></trkpt><trkpt lat="43.1570033" lon="2.3982867"><ele>298.0</ele><time>2026-03-30T13:02:50.687Z</time></trkpt><trkpt lat="43.157135" lon="2.39822"><ele>298.0</ele><time>2026-03-30T13:02:51.685Z</time></trkpt><trkpt lat="43.1572733" lon="2.3982133"><ele>298.0</ele><time>2026-03-30T13:02:52.686Z</time></trkpt><trkpt lat="43.1574033" lon="2.3982733"><ele>298.0</ele><time>2026-03-30T13:02:53.686Z</time></trkpt><trkpt lat="43.1575233" lon="2.3983467"><ele>295.25</ele><time>2026-03-30T13:02:54.686Z</time></trkpt><trkpt lat="43.15764" lon="2.3984217"><ele>292.5</ele><time>2026-03-30T13:02:55.688Z</time></trkpt><trkpt lat="43.1577567" lon="2.398475"><ele>289.75</ele><time>2026-03-30T13:02:56.686Z</time></trkpt><trkpt lat="43.157865" lon="2.3984883"><ele>287.0</ele><time>2026-03-30T13:02:57.685Z</time></trkpt><trkpt lat="43.15796" lon="2.3984483"><ele>287.0</ele><time>2026-03-30T13:02:58.686Z</time></trkpt><trkpt lat="43.15804" lon="2.398355"><ele>287.0</ele><time>2026-03-30T13:02:59.685Z</time></trkpt><trkpt lat="43.1580783" lon="2.3982067"><ele>287.0</ele><time>2026-03-30T13:03:00.686Z</time></trkpt><trkpt lat="43.1581083" lon="2.3980383"><ele>287.0</ele><time>2026-03-30T13:03:01.686Z</time></trkpt><trkpt lat="43.15815" lon="2.3978633"><ele>285.0</ele><time>2026-03-30T13:03:02.687Z</time></trkpt><trkpt lat="43.15821" lon="2.3976983"><ele>283.0</ele><time>2026-03-30T13:03:03.687Z</time></trkpt><trkpt lat="43.15827" lon="2.3975483"><ele>281.0</ele><time>2026-03-30T13:03:04.686Z</time></trkpt><trkpt lat="43.15831" lon="2.3974"><ele>279.0</ele><time>2026-03-30T13:03:05.686Z</time></trkpt><trkpt lat="43.158315" lon="2.39726"><ele>277.8</ele><time>2026-03-30T13:03:06.687Z</time></trkpt><trkpt lat="43.1582733" lon="2.3971433"><ele>276.59999999999997</ele><time>2026-03-30T13:03:07.686Z</time></trkpt><trkpt lat="43.1581967" lon="2.3970467"><ele>275.4</ele><time>2026-03-30T13:03:08.688Z</time></trkpt><trkpt lat="43.158095" lon="2.3969767"><ele>274.2</ele><time>2026-03-30T13:03:09.687Z</time></trkpt><trkpt lat="43.1579983" lon="2.3968883"><ele>273.0</ele><time>2026-03-30T13:03:10.687Z</time></trkpt><trkpt lat="43.15794" lon="2.3967733"><ele>274.0</ele><time>2026-03-30T13:03:11.685Z</time></trkpt><trkpt lat="43.1579117" lon="2.3966233"><ele>275.0</ele><time>2026-03-30T13:03:12.685Z</time></trkpt><trkpt lat="43.157865" lon="2.3965"><ele>276.0</ele><time>2026-03-30T13:03:13.687Z</time></trkpt><trkpt lat="43.157825" lon="2.3963817"><ele>277.0</ele><time>2026-03-30T13:03:14.686Z</time></trkpt><trkpt lat="43.157765" lon="2.3962617"><ele>278.0</ele><time>2026-03-30T13:03:15.687Z</time></trkpt><trkpt lat="43.15772" lon="2.396125"><ele>278.0</ele><time>2026-03-30T13:03:16.686Z</time></trkpt><trkpt lat="43.157705" lon="2.395985"><ele>278.0</ele><time>2026-03-30T13:03:17.687Z</time></trkpt><trkpt lat="43.1576883" lon="2.3958533"><ele>278.0</ele><time>2026-03-30T13:03:18.687Z</time></trkpt><trkpt lat="43.15766" lon="2.395735"><ele>278.0</ele><time>2026-03-30T13:03:19.686Z</time></trkpt><trkpt lat="43.1576167" lon="2.395645"><ele>278.0</ele><time>2026-03-30T13:03:20.687Z</time></trkpt><trkpt lat="43.1575533" lon="2.39554"><ele>277.6666666666667</ele><time>2026-03-30T13:03:22.687Z</time></trkpt><trkpt lat="43.1575267" lon="2.3953917"><ele>277.33333333333337</ele><time>2026-03-30T13:04:10.687Z</time></trkpt><trkpt lat="43.1575083" lon="2.3952983"><ele>277.0</ele><time>2026-03-30T13:04:11.686Z</time></trkpt><trkpt lat="43.157505" lon="2.395195"><ele>276.6666666666667</ele><time>2026-03-30T13:04:12.687Z</time></trkpt><trkpt lat="43.1575283" lon="2.3950967"><ele>276.3333333333333</ele><time>2026-03-30T13:04:13.685Z</time></trkpt><trkpt lat="43.1575767" lon="2.394995"><ele>276.0</ele><time>2026-03-30T13:04:14.687Z</time></trkpt><trkpt lat="43.1576717" lon="2.3949483"><ele>276.0</ele><time>2026-03-30T13:04:15.685Z</time></trkpt><trkpt lat="43.1577833" lon="2.3949433"><ele>276.0</ele><time>2026-03-30T13:04:16.686Z</time></trkpt><trkpt lat="43.1579067" lon="2.394955"><ele>276.0</ele><time>2026-03-30T13:04:17.686Z</time></trkpt><trkpt lat="43.1580367" lon="2.39495"><ele>276.0</ele><time>2026-03-30T13:04:18.688Z</time></trkpt><trkpt lat="43.158165" lon="2.3949133"><ele>276.0</ele><time>2026-03-30T13:04:19.685Z</time></trkpt><trkpt lat="43.1582917" lon="2.39483"><ele>276.0</ele><time>2026-03-30T13:04:20.688Z</time></trkpt><trkpt lat="43.1584133" lon="2.39472"><ele>276.0</ele><time>2026-03-30T13:04:21.688Z</time></trkpt><trkpt lat="43.1585317" lon="2.394605"><ele>276.0</ele><time>2026-03-30T13:04:22.685Z</time></trkpt><trkpt lat="43.1586433" lon="2.3944933"><ele>276.0</ele><time>2026-03-30T13:04:23.685Z</time></trkpt><trkpt lat="43.158745" lon="2.3943683"><ele>276.0</ele><time>2026-03-30T13:04:24.688Z</time></trkpt><trkpt lat="43.158835" lon="2.3942333"><ele>276.0</ele><time>2026-03-30T13:04:25.687Z</time></trkpt><trkpt lat="43.1589117" lon="2.39408"><ele>276.0</ele><time>2026-03-30T13:04:26.686Z</time></trkpt><trkpt lat="43.15898" lon="2.393915"><ele>278.0</ele><time>2026-03-30T13:04:27.686Z</time></trkpt><trkpt lat="43.1590317" lon="2.393745"><ele>280.0</ele><time>2026-03-30T13:04:28.686Z</time></trkpt><trkpt lat="43.159065" lon="2.393575"><ele>282.0</ele><time>2026-03-30T13:04:29.685Z</time></trkpt><trkpt lat="43.159065" lon="2.3934067"><ele>284.0</ele><time>2026-03-30T13:04:30.688Z</time></trkpt><trkpt lat="43.1590483" lon="2.3932433"><ele>278.0</ele><time>2026-03-30T13:04:31.686Z</time></trkpt><trkpt lat="43.159035" lon="2.3930817"><ele>272.0</ele><time>2026-03-30T13:04:32.687Z</time></trkpt><trkpt lat="43.1590533" lon="2.3929283"><ele>266.0</ele><time>2026-03-30T13:04:33.689Z</time></trkpt><trkpt lat="43.1591133" lon="2.3927967"><ele>260.0</ele><time>2026-03-30T13:04:34.685Z</time></trkpt><trkpt lat="43.159215" lon="2.3927133"><ele>260.0</ele><time>2026-03-30T13:04:35.685Z</time></trkpt><trkpt lat="43.15935" lon="2.3926783"><ele>260.0</ele><time>2026-03-30T13:04:36.685Z</time></trkpt><trkpt lat="43.1594783" lon="2.3926317"><ele>260.0</ele><time>2026-03-30T13:04:37.691Z</time></trkpt><trkpt lat="43.1596083" lon="2.3925417"><ele>260.0</ele><time>2026-03-30T13:04:38.688Z</time></trkpt><trkpt lat="43.1597167" lon="2.3924267"><ele>260.0</ele><time>2026-03-30T13:04:39.687Z</time></trkpt><trkpt lat="43.15982" lon="2.3923133"><ele>260.0</ele><time>2026-03-30T13:04:40.686Z</time></trkpt><trkpt lat="43.1599383" lon="2.39222"><ele>260.0</ele><time>2026-03-30T13:04:41.686Z</time></trkpt><trkpt lat="43.1600633" lon="2.3921667"><ele>260.0</ele><time>2026-03-30T13:04:42.694Z</time></trkpt><trkpt lat="43.1601917" lon="2.392175"><ele>256.25</ele><time>2026-03-30T13:04:43.687Z</time></trkpt><trkpt lat="43.1603083" lon="2.3922483"><ele>252.5</ele><time>2026-03-30T13:04:44.688Z</time></trkpt><trkpt lat="43.1604" lon="2.3923683"><ele>248.75</ele><time>2026-03-30T13:04:45.685Z</time></trkpt><trkpt lat="43.1604517" lon="2.3925167"><ele>245.0</ele><time>2026-03-30T13:04:46.686Z</time></trkpt><trkpt lat="43.1604867" lon="2.3926683"><ele>245.0</ele><time>2026-03-30T13:04:47.686Z</time></trkpt><trkpt lat="43.1605367" lon="2.3928"><ele>245.0</ele><time>2026-03-30T13:04:48.688Z</time></trkpt><trkpt lat="43.16062" lon="2.3928817"><ele>245.0</ele><time>2026-03-30T13:04:49.685Z</time></trkpt><trkpt lat="43.1607233" lon="2.3929033"><ele>245.0</ele><time>2026-03-30T13:04:50.687Z</time></trkpt><trkpt lat="43.1608267" lon="2.3928483"><ele>245.0</ele><time>2026-03-30T13:04:51.689Z</time></trkpt><trkpt lat="43.16092" lon="2.3927433"><ele>244.0</ele><time>2026-03-30T13:04:52.687Z</time></trkpt><trkpt lat="43.16101" lon="2.39261"><ele>243.0</ele><time>2026-03-30T13:04:53.686Z</time></trkpt><trkpt lat="43.161095" lon="2.3924583"><ele>242.0</ele><time>2026-03-30T13:04:54.687Z</time></trkpt><trkpt lat="43.161175" lon="2.3922983"><ele>241.0</ele><time>2026-03-30T13:04:55.686Z</time></trkpt><trkpt lat="43.1612683" lon="2.3921567"><ele>239.75</ele><time>2026-03-30T13:04:56.688Z</time></trkpt><trkpt lat="43.1613717" lon="2.3920583"><ele>238.5</ele><time>2026-03-30T13:04:57.685Z</time></trkpt><trkpt lat="43.16149" lon="2.3920267"><ele>237.25</ele><time>2026-03-30T13:04:58.686Z</time></trkpt><trkpt lat="43.16161" lon="2.3920267"><ele>236.0</ele><time>2026-03-30T13:04:59.685Z</time></trkpt><trkpt lat="43.1617267" lon="2.3919883"><ele>236.0</ele><time>2026-03-30T13:05:00.685Z</time></trkpt><trkpt lat="43.1618433" lon="2.3919167"><ele>236.0</ele><time>2026-03-30T13:05:01.69Z</time></trkpt><trkpt lat="43.1619567" lon="2.3918017"><ele>236.0</ele><time>2026-03-30T13:05:02.688Z</time></trkpt><trkpt lat="43.162055" lon="2.391665"><ele>236.0</ele><time>2026-03-30T13:05:03.686Z</time></trkpt><trkpt lat="43.162145" lon="2.391535"><ele>236.0</ele><time>2026-03-30T13:05:04.685Z</time></trkpt><trkpt lat="43.1622533" lon="2.3914017"><ele>236.0</ele><time>2026-03-30T13:05:05.688Z</time></trkpt><trkpt lat="43.1623467" lon="2.391275"><ele>236.0</ele><time>2026-03-30T13:05:06.688Z</time></trkpt><trkpt lat="43.1624283" lon="2.3911683"><ele>236.0</ele><time>2026-03-30T13:05:07.685Z</time></trkpt><trkpt lat="43.1625433" lon="2.3910933"><ele>233.75</ele><time>2026-03-30T13:05:08.686Z</time></trkpt><trkpt lat="43.1626683" lon="2.3910483"><ele>231.5</ele><time>2026-03-30T13:05:09.685Z</time></trkpt><trkpt lat="43.1627933" lon="2.3910583"><ele>229.25</ele><time>2026-03-30T13:05:10.686Z</time></trkpt><trkpt lat="43.1629217" lon="2.3910967"><ele>227.0</ele><time>2026-03-30T13:05:11.686Z</time></trkpt><trkpt lat="43.163045" lon="2.3911483"><ele>227.0</ele><time>2026-03-30T13:05:12.687Z</time></trkpt><trkpt lat="43.1631633" lon="2.3912183"><ele>227.0</ele><time>2026-03-30T13:05:13.685Z</time></trkpt><trkpt lat="43.1632833" lon="2.39128"><ele>227.0</ele><time>2026-03-30T13:05:14.689Z</time></trkpt><trkpt lat="43.16341" lon="2.3913067"><ele>227.0</ele><time>2026-03-30T13:05:15.685Z</time></trkpt><trkpt lat="43.1635417" lon="2.3912833"><ele>225.5</ele><time>2026-03-30T13:05:16.685Z</time></trkpt><trkpt lat="43.1636733" lon="2.391235"><ele>224.0</ele><time>2026-03-30T13:05:17.685Z</time></trkpt><trkpt lat="43.16381" lon="2.391175"><ele>222.5</ele><time>2026-03-30T13:05:18.688Z</time></trkpt><trkpt lat="43.16395" lon="2.3911167"><ele>221.0</ele><time>2026-03-30T13:05:19.687Z</time></trkpt><trkpt lat="43.1640867" lon="2.391045"><ele>221.0</ele><time>2026-03-30T13:05:20.686Z</time></trkpt><trkpt lat="43.16422" lon="2.3909533"><ele>221.0</ele><time>2026-03-30T13:05:21.688Z</time></trkpt><trkpt lat="43.1643483" lon="2.3908383"><ele>221.0</ele><time>2026-03-30T13:05:22.687Z</time></trkpt><trkpt lat="43.164475" lon="2.3907317"><ele>221.0</ele><time>2026-03-30T13:05:23.686Z</time></trkpt><trkpt lat="43.164595" lon="2.39062"><ele>221.0</ele><time>2026-03-30T13:05:24.686Z</time></trkpt><trkpt lat="43.1647133" lon="2.390505"><ele>221.0</ele><time>2026-03-30T13:05:25.685Z</time></trkpt><trkpt lat="43.1648333" lon="2.39039"><ele>221.0</ele><time>2026-03-30T13:05:26.687Z</time></trkpt><trkpt lat="43.1649567" lon="2.39028"><ele>221.0</ele><time>2026-03-30T13:05:27.686Z</time></trkpt><trkpt lat="43.16508" lon="2.3901733"><ele>221.0</ele><time>2026-03-30T13:05:28.685Z</time></trkpt><trkpt lat="43.1652017" lon="2.3900767"><ele>221.0</ele><time>2026-03-30T13:05:29.687Z</time></trkpt><trkpt lat="43.1653233" lon="2.389995"><ele>221.0</ele><time>2026-03-30T13:05:30.687Z</time></trkpt><trkpt lat="43.1654433" lon="2.3899333"><ele>221.0</ele><time>2026-03-30T13:05:31.685Z</time></trkpt><trkpt lat="43.165555" lon="2.3898667"><ele>221.0</ele><time>2026-03-30T13:05:32.686Z</time></trkpt><trkpt lat="43.1656567" lon="2.3897833"><ele>221.0</ele><time>2026-03-30T13:05:33.687Z</time></trkpt><trkpt lat="43.1657333" lon="2.3896633"><ele>221.0</ele><time>2026-03-30T13:05:34.689Z</time></trkpt><trkpt lat="43.1657883" lon="2.3895183"><ele>221.25</ele><time>2026-03-30T13:05:35.687Z</time></trkpt><trkpt lat="43.1658283" lon="2.38936"><ele>221.5</ele><time>2026-03-30T13:05:36.687Z</time></trkpt><trkpt lat="43.165865" lon="2.3891883"><ele>221.75</ele><time>2026-03-30T13:05:37.686Z</time></trkpt><trkpt lat="43.1659" lon="2.3890083"><ele>222.0</ele><time>2026-03-30T13:05:38.688Z</time></trkpt><trkpt lat="43.1659333" lon="2.3888233"><ele>220.0</ele><time>2026-03-30T13:05:39.685Z</time></trkpt><trkpt lat="43.165965" lon="2.38863"><ele>218.0</ele><time>2026-03-30T13:05:40.687Z</time></trkpt><trkpt lat="43.165995" lon="2.3884433"><ele>216.0</ele><time>2026-03-30T13:05:41.686Z</time></trkpt><trkpt lat="43.16602" lon="2.3882517"><ele>214.0</ele><time>2026-03-30T13:05:42.687Z</time></trkpt><trkpt lat="43.1660333" lon="2.3880617"><ele>212.75</ele><time>2026-03-30T13:05:43.686Z</time></trkpt><trkpt lat="43.1660367" lon="2.387875"><ele>211.5</ele><time>2026-03-30T13:05:44.687Z</time></trkpt><trkpt lat="43.1660417" lon="2.38769"><ele>210.25</ele><time>2026-03-30T13:05:45.686Z</time></trkpt><trkpt lat="43.1660617" lon="2.3875133"><ele>209.0</ele><time>2026-03-30T13:05:46.685Z</time></trkpt><trkpt lat="43.1661083" lon="2.387355"><ele>209.0</ele><time>2026-03-30T13:05:47.686Z</time></trkpt><trkpt lat="43.1661783" lon="2.387205"><ele>209.0</ele><time>2026-03-30T13:05:48.69Z</time></trkpt><trkpt lat="43.1662633" lon="2.3870683"><ele>209.0</ele><time>2026-03-30T13:05:49.685Z</time></trkpt><trkpt lat="43.166365" lon="2.3869483"><ele>209.0</ele><time>2026-03-30T13:05:50.688Z</time></trkpt><trkpt lat="43.16647" lon="2.3868333"><ele>209.0</ele><time>2026-03-30T13:05:51.69Z</time></trkpt><trkpt lat="43.166575" lon="2.38673"><ele>209.0</ele><time>2026-03-30T13:05:52.687Z</time></trkpt><trkpt lat="43.1666767" lon="2.38663"><ele>209.0</ele><time>2026-03-30T13:05:53.69Z</time></trkpt><trkpt lat="43.166775" lon="2.3865367"><ele>209.0</ele><time>2026-03-30T13:05:54.687Z</time></trkpt><trkpt lat="43.166865" lon="2.3864433"><ele>209.00000000000003</ele><time>2026-03-30T13:05:55.686Z</time></trkpt><trkpt lat="43.166955" lon="2.386375"><ele>209.0</ele><time>2026-03-30T13:05:56.687Z</time></trkpt><trkpt lat="43.1670433" lon="2.38635"><ele>209.0</ele><time>2026-03-30T13:05:57.684Z</time></trkpt><trkpt lat="43.167125" lon="2.3863417"><ele>209.0</ele><time>2026-03-30T13:05:58.687Z</time></trkpt><trkpt lat="43.1671917" lon="2.3864017"><ele>209.00000000000003</ele><time>2026-03-30T13:05:59.685Z</time></trkpt><trkpt lat="43.1672383" lon="2.386495"><ele>209.0</ele><time>2026-03-30T13:06:00.688Z</time></trkpt><trkpt lat="43.1672617" lon="2.3866083"><ele>209.0</ele><time>2026-03-30T13:06:01.688Z</time></trkpt><trkpt lat="43.16726" lon="2.3867483"><ele>209.0</ele><time>2026-03-30T13:06:02.687Z</time></trkpt><trkpt lat="43.1672383" lon="2.38691"><ele>209.0</ele><time>2026-03-30T13:06:03.688Z</time></trkpt><trkpt lat="43.1672233" lon="2.3870667"><ele>209.0</ele><time>2026-03-30T13:06:04.687Z</time></trkpt><trkpt lat="43.1672117" lon="2.3872333"><ele>210.5</ele><time>2026-03-30T13:06:05.686Z</time></trkpt><trkpt lat="43.1672183" lon="2.3874117"><ele>212.0</ele><time>2026-03-30T13:06:06.685Z</time></trkpt><trkpt lat="43.167245" lon="2.3875917"><ele>213.5</ele><time>2026-03-30T13:06:07.686Z</time></trkpt><trkpt lat="43.1673017" lon="2.38777"><ele>215.0</ele><time>2026-03-30T13:06:08.687Z</time></trkpt><trkpt lat="43.167365" lon="2.387945"><ele>211.0</ele><time>2026-03-30T13:06:09.69Z</time></trkpt><trkpt lat="43.1674283" lon="2.3881217"><ele>207.0</ele><time>2026-03-30T13:06:10.686Z</time></trkpt><trkpt lat="43.1674933" lon="2.3882917"><ele>203.0</ele><time>2026-03-30T13:06:11.688Z</time></trkpt><trkpt lat="43.16756" lon="2.3884767"><ele>199.0</ele><time>2026-03-30T13:06:12.685Z</time></trkpt><trkpt lat="43.1676167" lon="2.3886533"><ele>199.0</ele><time>2026-03-30T13:06:13.685Z</time></trkpt><trkpt lat="43.167675" lon="2.38882"><ele>199.0</ele><time>2026-03-30T13:06:14.687Z</time></trkpt><trkpt lat="43.1677417" lon="2.388985"><ele>199.0</ele><time>2026-03-30T13:06:15.686Z</time></trkpt><trkpt lat="43.16782" lon="2.3891317"><ele>199.0</ele><time>2026-03-30T13:06:16.687Z</time></trkpt><trkpt lat="43.1679033" lon="2.3892617"><ele>199.79999999999998</ele><time>2026-03-30T13:06:17.685Z</time></trkpt><trkpt lat="43.1679917" lon="2.38937"><ele>200.6</ele><time>2026-03-30T13:06:18.685Z</time></trkpt><trkpt lat="43.1680733" lon="2.3894533"><ele>201.4</ele><time>2026-03-30T13:06:19.686Z</time></trkpt><trkpt lat="43.1681467" lon="2.3895133"><ele>202.2</ele><time>2026-03-30T13:06:20.685Z</time></trkpt><trkpt lat="43.1682067" lon="2.389555"><ele>203.0</ele><time>2026-03-30T13:06:21.686Z</time></trkpt><trkpt lat="43.1682833" lon="2.3896117"><ele>200.2</ele><time>2026-03-30T13:06:23.685Z</time></trkpt><trkpt lat="43.168355" lon="2.3896233"><ele>197.4</ele><time>2026-03-30T13:09:09.686Z</time></trkpt><trkpt lat="43.1684817" lon="2.38959"><ele>194.6</ele><time>2026-03-30T13:09:11.687Z</time></trkpt><trkpt lat="43.1685883" lon="2.389575"><ele>191.79999999999998</ele><time>2026-03-30T13:09:12.687Z</time></trkpt><trkpt lat="43.16871" lon="2.3895567"><ele>189.0</ele><time>2026-03-30T13:09:13.685Z</time></trkpt><trkpt lat="43.1688317" lon="2.3895233"><ele>189.0</ele><time>2026-03-30T13:09:14.687Z</time></trkpt><trkpt lat="43.1689733" lon="2.3894583"><ele>189.0</ele><time>2026-03-30T13:09:15.686Z</time></trkpt><trkpt lat="43.1691167" lon="2.3893717"><ele>189.0</ele><time>2026-03-30T13:09:16.685Z</time></trkpt><trkpt lat="43.1692717" lon="2.3892767"><ele>187.5</ele><time>2026-03-30T13:09:17.687Z</time></trkpt><trkpt lat="43.1694067" lon="2.389185"><ele>186.0</ele><time>2026-03-30T13:09:18.687Z</time></trkpt><trkpt lat="43.1695283" lon="2.3891"><ele>184.5</ele><time>2026-03-30T13:09:19.686Z</time></trkpt><trkpt lat="43.169635" lon="2.389015"><ele>183.0</ele><time>2026-03-30T13:09:20.686Z</time></trkpt><trkpt lat="43.16973" lon="2.388935"><ele>183.0</ele><time>2026-03-30T13:09:21.686Z</time></trkpt><trkpt lat="43.16982" lon="2.3888767"><ele>183.0</ele><time>2026-03-30T13:09:22.685Z</time></trkpt><trkpt lat="43.1699117" lon="2.3888433"><ele>183.0</ele><time>2026-03-30T13:09:23.687Z</time></trkpt><trkpt lat="43.1700133" lon="2.3888383"><ele>183.0</ele><time>2026-03-30T13:09:24.685Z</time></trkpt><trkpt lat="43.1701267" lon="2.3888467"><ele>183.0</ele><time>2026-03-30T13:09:25.686Z</time></trkpt><trkpt lat="43.1702483" lon="2.388855"><ele>183.25</ele><time>2026-03-30T13:09:26.687Z</time></trkpt><trkpt lat="43.1703783" lon="2.3888567"><ele>183.5</ele><time>2026-03-30T13:09:27.687Z</time></trkpt><trkpt lat="43.170515" lon="2.3888617"><ele>183.75</ele><time>2026-03-30T13:09:28.688Z</time></trkpt><trkpt lat="43.170645" lon="2.3888667"><ele>184.0</ele><time>2026-03-30T13:09:29.687Z</time></trkpt><trkpt lat="43.1707667" lon="2.3888733"><ele>183.0</ele><time>2026-03-30T13:09:30.688Z</time></trkpt><trkpt lat="43.1708883" lon="2.3888833"><ele>182.0</ele><time>2026-03-30T13:09:31.686Z</time></trkpt><trkpt lat="43.1710067" lon="2.3888983"><ele>181.0</ele><time>2026-03-30T13:09:32.685Z</time></trkpt><trkpt lat="43.17112" lon="2.388915"><ele>180.0</ele><time>2026-03-30T13:09:33.687Z</time></trkpt><trkpt lat="43.1712333" lon="2.3889267"><ele>180.0</ele><time>2026-03-30T13:09:34.685Z</time></trkpt><trkpt lat="43.1713433" lon="2.3889333"><ele>180.0</ele><time>2026-03-30T13:09:35.686Z</time></trkpt><trkpt lat="43.1714517" lon="2.38893"><ele>180.0</ele><time>2026-03-30T13:09:36.687Z</time></trkpt><trkpt lat="43.1715533" lon="2.3888967"><ele>180.0</ele><time>2026-03-30T13:09:37.686Z</time></trkpt><trkpt lat="43.1716467" lon="2.388825"><ele>180.0</ele><time>2026-03-30T13:09:38.686Z</time></trkpt><trkpt lat="43.171725" lon="2.3887317"><ele>179.2</ele><time>2026-03-30T13:09:39.686Z</time></trkpt><trkpt lat="43.1717983" lon="2.38863"><ele>178.4</ele><time>2026-03-30T13:09:40.686Z</time></trkpt><trkpt lat="43.1718667" lon="2.38852"><ele>177.60000000000002</ele><time>2026-03-30T13:09:41.686Z</time></trkpt><trkpt lat="43.1719317" lon="2.3884167"><ele>176.8</ele><time>2026-03-30T13:09:42.684Z</time></trkpt><trkpt lat="43.1719917" lon="2.3883133"><ele>176.0</ele><time>2026-03-30T13:09:43.686Z</time></trkpt><trkpt lat="43.1720483" lon="2.3882133"><ele>176.0</ele><time>2026-03-30T13:09:44.689Z</time></trkpt><trkpt lat="43.172105" lon="2.388115"><ele>176.0</ele><time>2026-03-30T13:09:45.686Z</time></trkpt><trkpt lat="43.1721617" lon="2.3880183"><ele>176.0</ele><time>2026-03-30T13:09:46.687Z</time></trkpt><trkpt lat="43.17223" lon="2.38794"><ele>176.0</ele><time>2026-03-30T13:09:47.685Z</time></trkpt><trkpt lat="43.1723117" lon="2.387885"><ele>176.0</ele><time>2026-03-30T13:09:48.685Z</time></trkpt><trkpt lat="43.1724083" lon="2.3878583"><ele>175.0</ele><time>2026-03-30T13:09:49.686Z</time></trkpt><trkpt lat="43.17251" lon="2.3878667"><ele>174.0</ele><time>2026-03-30T13:09:50.686Z</time></trkpt><trkpt lat="43.1726167" lon="2.387895"><ele>173.0</ele><time>2026-03-30T13:09:51.685Z</time></trkpt><trkpt lat="43.1727317" lon="2.38792"><ele>172.0</ele><time>2026-03-30T13:09:52.686Z</time></trkpt><trkpt lat="43.1728467" lon="2.3879383"><ele>171.0</ele><time>2026-03-30T13:09:53.685Z</time></trkpt><trkpt lat="43.17295" lon="2.3879467"><ele>171.0</ele><time>2026-03-30T13:09:54.688Z</time></trkpt><trkpt lat="43.173045" lon="2.3879367"><ele>171.0</ele><time>2026-03-30T13:09:55.687Z</time></trkpt><trkpt lat="43.1731367" lon="2.3879283"><ele>171.0</ele><time>2026-03-30T13:09:56.686Z</time></trkpt><trkpt lat="43.173225" lon="2.3879467"><ele>171.0</ele><time>2026-03-30T13:09:57.685Z</time></trkpt><trkpt lat="43.173315" lon="2.38799"><ele>171.0</ele><time>2026-03-30T13:09:58.686Z</time></trkpt><trkpt lat="43.1733983" lon="2.3880233"><ele>170.66666666666666</ele><time>2026-03-30T13:09:59.686Z</time></trkpt><trkpt lat="43.173475" lon="2.388025"><ele>170.33333333333334</ele><time>2026-03-30T13:10:00.685Z</time></trkpt><trkpt lat="43.1735433" lon="2.3879517"><ele>170.0</ele><time>2026-03-30T13:10:01.687Z</time></trkpt><trkpt lat="43.1735883" lon="2.3878517"><ele>169.66666666666669</ele><time>2026-03-30T13:10:02.687Z</time></trkpt><trkpt lat="43.1735967" lon="2.3877233"><ele>169.33333333333334</ele><time>2026-03-30T13:10:03.69Z</time></trkpt><trkpt lat="43.1735917" lon="2.38758"><ele>169.0</ele><time>2026-03-30T13:10:04.689Z</time></trkpt><trkpt lat="43.1736033" lon="2.387425"><ele>168.75</ele><time>2026-03-30T13:10:05.685Z</time></trkpt><trkpt lat="43.1736383" lon="2.3872667"><ele>168.5</ele><time>2026-03-30T13:10:06.685Z</time></trkpt><trkpt lat="43.1736833" lon="2.387105"><ele>168.25</ele><time>2026-03-30T13:10:07.687Z</time></trkpt><trkpt lat="43.17373" lon="2.3869383"><ele>168.0</ele><time>2026-03-30T13:10:08.691Z</time></trkpt><trkpt lat="43.1737667" lon="2.3867583"><ele>168.5</ele><time>2026-03-30T13:10:09.685Z</time></trkpt><trkpt lat="43.1738333" lon="2.3865867"><ele>169.0</ele><time>2026-03-30T13:10:10.685Z</time></trkpt><trkpt lat="43.173905" lon="2.3864183"><ele>169.5</ele><time>2026-03-30T13:10:11.686Z</time></trkpt><trkpt lat="43.1739767" lon="2.3862433"><ele>170.0</ele><time>2026-03-30T13:10:12.688Z</time></trkpt><trkpt lat="43.17405" lon="2.3860667"><ele>169.75</ele><time>2026-03-30T13:10:13.687Z</time></trkpt><trkpt lat="43.1741217" lon="2.3858867"><ele>169.5</ele><time>2026-03-30T13:10:14.688Z</time></trkpt><trkpt lat="43.1741967" lon="2.3857117"><ele>169.25</ele><time>2026-03-30T13:10:15.686Z</time></trkpt><trkpt lat="43.174275" lon="2.385535"><ele>169.0</ele><time>2026-03-30T13:10:16.688Z</time></trkpt><trkpt lat="43.174355" lon="2.385365"><ele>169.0</ele><time>2026-03-30T13:10:17.686Z</time></trkpt><trkpt lat="43.1744383" lon="2.3852017"><ele>169.0</ele><time>2026-03-30T13:10:18.686Z</time></trkpt><trkpt lat="43.17453" lon="2.3850483"><ele>169.0</ele><time>2026-03-30T13:10:19.686Z</time></trkpt><trkpt lat="43.17462" lon="2.3848983"><ele>169.0</ele><time>2026-03-30T13:10:20.689Z</time></trkpt><trkpt lat="43.174715" lon="2.3847517"><ele>170.0</ele><time>2026-03-30T13:10:21.688Z</time></trkpt><trkpt lat="43.174805" lon="2.3846083"><ele>171.0</ele><time>2026-03-30T13:10:22.686Z</time></trkpt><trkpt lat="43.1748917" lon="2.3844667"><ele>172.0</ele><time>2026-03-30T13:10:23.686Z</time></trkpt><trkpt lat="43.1749733" lon="2.3843267"><ele>173.0</ele><time>2026-03-30T13:10:24.686Z</time></trkpt><trkpt lat="43.1750517" lon="2.384185"><ele>171.25</ele><time>2026-03-30T13:10:25.685Z</time></trkpt><trkpt lat="43.1751267" lon="2.38405"><ele>169.5</ele><time>2026-03-30T13:10:26.687Z</time></trkpt><trkpt lat="43.175195" lon="2.3839117"><ele>167.75</ele><time>2026-03-30T13:10:27.687Z</time></trkpt><trkpt lat="43.1752583" lon="2.3837783"><ele>166.0</ele><time>2026-03-30T13:10:28.686Z</time></trkpt><trkpt lat="43.1753283" lon="2.3836433"><ele>166.0</ele><time>2026-03-30T13:10:29.685Z</time></trkpt><trkpt lat="43.1753983" lon="2.3835233"><ele>166.0</ele><time>2026-03-30T13:10:30.687Z</time></trkpt><trkpt lat="43.175455" lon="2.3834333"><ele>166.0</ele><time>2026-03-30T13:10:31.687Z</time></trkpt><trkpt lat="43.1755267" lon="2.3833717"><ele>166.0</ele><time>2026-03-30T13:10:32.686Z</time></trkpt><trkpt lat="43.1756" lon="2.3833383"><ele>166.0</ele><time>2026-03-30T13:10:33.688Z</time></trkpt><trkpt lat="43.1756767" lon="2.3832833"><ele>166.0</ele><time>2026-03-30T13:10:34.687Z</time></trkpt><trkpt lat="43.17574" lon="2.3831933"><ele>165.0</ele><time>2026-03-30T13:10:35.686Z</time></trkpt><trkpt lat="43.1758" lon="2.3830983"><ele>164.0</ele><time>2026-03-30T13:10:36.687Z</time></trkpt><trkpt lat="43.17587" lon="2.3829733"><ele>163.0</ele><time>2026-03-30T13:10:37.685Z</time></trkpt><trkpt lat="43.1759517" lon="2.38285"><ele>162.0</ele><time>2026-03-30T13:10:38.687Z</time></trkpt><trkpt lat="43.1760317" lon="2.38272"><ele>161.5</ele><time>2026-03-30T13:10:39.685Z</time></trkpt><trkpt lat="43.17611" lon="2.3825867"><ele>161.0</ele><time>2026-03-30T13:10:40.686Z</time></trkpt><trkpt lat="43.176185" lon="2.3824567"><ele>160.5</ele><time>2026-03-30T13:10:41.685Z</time></trkpt><trkpt lat="43.1762617" lon="2.382325"><ele>160.0</ele><time>2026-03-30T13:10:42.686Z</time></trkpt><trkpt lat="43.1763367" lon="2.3821917"><ele>159.75</ele><time>2026-03-30T13:10:43.685Z</time></trkpt><trkpt lat="43.1764133" lon="2.3820567"><ele>159.5</ele><time>2026-03-30T13:10:44.687Z</time></trkpt><trkpt lat="43.1764917" lon="2.3819133"><ele>159.25</ele><time>2026-03-30T13:10:45.685Z</time></trkpt><trkpt lat="43.1765733" lon="2.38177"><ele>159.0</ele><time>2026-03-30T13:10:46.687Z</time></trkpt><trkpt lat="43.1766567" lon="2.381625"><ele>159.0</ele><time>2026-03-30T13:10:47.686Z</time></trkpt><trkpt lat="43.1767417" lon="2.381475"><ele>159.0</ele><time>2026-03-30T13:10:48.686Z</time></trkpt><trkpt lat="43.176825" lon="2.3813217"><ele>159.0</ele><time>2026-03-30T13:10:49.685Z</time></trkpt><trkpt lat="43.1769" lon="2.38116"><ele>159.0</ele><time>2026-03-30T13:10:50.687Z</time></trkpt><trkpt lat="43.176965" lon="2.3809933"><ele>159.0</ele><time>2026-03-30T13:10:51.688Z</time></trkpt><trkpt lat="43.1770283" lon="2.38084"><ele>159.0</ele><time>2026-03-30T13:10:52.687Z</time></trkpt><trkpt lat="43.17709" lon="2.3806917"><ele>159.0</ele><time>2026-03-30T13:10:53.685Z</time></trkpt><trkpt lat="43.17715" lon="2.3805567"><ele>159.0</ele><time>2026-03-30T13:10:54.686Z</time></trkpt><trkpt lat="43.1772067" lon="2.38042"><ele>158.25</ele><time>2026-03-30T13:10:55.686Z</time></trkpt><trkpt lat="43.177265" lon="2.380275"><ele>157.5</ele><time>2026-03-30T13:10:56.686Z</time></trkpt><trkpt lat="43.1773233" lon="2.3801267"><ele>156.75</ele><time>2026-03-30T13:10:57.686Z</time></trkpt><trkpt lat="43.1773817" lon="2.3799717"><ele>156.0</ele><time>2026-03-30T13:10:58.686Z</time></trkpt><trkpt lat="43.17744" lon="2.3798117"><ele>156.5</ele><time>2026-03-30T13:10:59.685Z</time></trkpt><trkpt lat="43.1775" lon="2.3796583"><ele>157.0</ele><time>2026-03-30T13:11:00.688Z</time></trkpt><trkpt lat="43.1775617" lon="2.3795083"><ele>157.5</ele><time>2026-03-30T13:11:01.686Z</time></trkpt><trkpt lat="43.17762" lon="2.3793617"><ele>158.0</ele><time>2026-03-30T13:11:02.685Z</time></trkpt><trkpt lat="43.1776767" lon="2.379215"><ele>158.0</ele><time>2026-03-30T13:11:03.687Z</time></trkpt><trkpt lat="43.177735" lon="2.3790733"><ele>158.0</ele><time>2026-03-30T13:11:04.685Z</time></trkpt><trkpt lat="43.1777917" lon="2.3789317"><ele>158.0</ele><time>2026-03-30T13:11:05.686Z</time></trkpt><trkpt lat="43.1778467" lon="2.3787883"><ele>158.0</ele><time>2026-03-30T13:11:06.688Z</time></trkpt><trkpt lat="43.1779" lon="2.37865"><ele>157.4</ele><time>2026-03-30T13:11:07.687Z</time></trkpt><trkpt lat="43.1779533" lon="2.378515"><ele>156.8</ele><time>2026-03-30T13:11:08.687Z</time></trkpt><trkpt lat="43.1780017" lon="2.3783883"><ele>156.2</ele><time>2026-03-30T13:11:09.687Z</time></trkpt><trkpt lat="43.1780467" lon="2.37827"><ele>155.6</ele><time>2026-03-30T13:11:10.686Z</time></trkpt><trkpt lat="43.1780883" lon="2.3781683"><ele>155.0</ele><time>2026-03-30T13:11:11.685Z</time></trkpt><trkpt lat="43.1781317" lon="2.3780667"><ele>154.8</ele><time>2026-03-30T13:11:12.686Z</time></trkpt><trkpt lat="43.17818" lon="2.3779533"><ele>154.6</ele><time>2026-03-30T13:11:13.687Z</time></trkpt><trkpt lat="43.1782283" lon="2.3778367"><ele>154.4</ele><time>2026-03-30T13:11:14.687Z</time></trkpt><trkpt lat="43.1782867" lon="2.37772"><ele>154.2</ele><time>2026-03-30T13:11:15.685Z</time></trkpt><trkpt lat="43.1783567" lon="2.377605"><ele>154.0</ele><time>2026-03-30T13:11:16.686Z</time></trkpt><trkpt lat="43.17843" lon="2.3774783"><ele>154.0</ele><time>2026-03-30T13:11:17.685Z</time></trkpt><trkpt lat="43.1784983" lon="2.377335"><ele>154.0</ele><time>2026-03-30T13:11:18.688Z</time></trkpt><trkpt lat="43.1785733" lon="2.3771883"><ele>154.0</ele><time>2026-03-30T13:11:19.688Z</time></trkpt><trkpt lat="43.1786617" lon="2.37704"><ele>154.0</ele><time>2026-03-30T13:11:20.686Z</time></trkpt><trkpt lat="43.1787483" lon="2.3768867"><ele>153.5</ele><time>2026-03-30T13:11:21.69Z</time></trkpt><trkpt lat="43.1788383" lon="2.3767333"><ele>153.0</ele><time>2026-03-30T13:11:22.692Z</time></trkpt><trkpt lat="43.1789333" lon="2.3765783"><ele>152.5</ele><time>2026-03-30T13:11:23.685Z</time></trkpt><trkpt lat="43.1790317" lon="2.376415"><ele>152.0</ele><time>2026-03-30T13:11:24.686Z</time></trkpt><trkpt lat="43.1791317" lon="2.3762533"><ele>151.33333333333331</ele><time>2026-03-30T13:11:25.685Z</time></trkpt><trkpt lat="43.1792333" lon="2.3760883"><ele>150.66666666666666</ele><time>2026-03-30T13:11:26.685Z</time></trkpt><trkpt lat="43.179335" lon="2.37592"><ele>150.0</ele><time>2026-03-30T13:11:27.686Z</time></trkpt><trkpt lat="43.179435" lon="2.3757517"><ele>150.0</ele><time>2026-03-30T13:11:28.686Z</time></trkpt><trkpt lat="43.1795367" lon="2.375585"><ele>150.0</ele><time>2026-03-30T13:11:29.685Z</time></trkpt><trkpt lat="43.1796383" lon="2.375415"><ele>150.0</ele><time>2026-03-30T13:11:30.686Z</time></trkpt><trkpt lat="43.17974" lon="2.375245"><ele>149.0</ele><time>2026-03-30T13:11:31.686Z</time></trkpt><trkpt lat="43.1798417" lon="2.37508"><ele>148.0</ele><time>2026-03-30T13:11:32.685Z</time></trkpt><trkpt lat="43.1799417" lon="2.3749083"><ele>147.0</ele><time>2026-03-30T13:11:33.685Z</time></trkpt><trkpt lat="43.1800417" lon="2.3747367"><ele>146.33333333333334</ele><time>2026-03-30T13:11:34.687Z</time></trkpt><trkpt lat="43.1801467" lon="2.374565"><ele>145.66666666666669</ele><time>2026-03-30T13:11:35.687Z</time></trkpt><trkpt lat="43.1802517" lon="2.3743917"><ele>145.0</ele><time>2026-03-30T13:11:36.687Z</time></trkpt><trkpt lat="43.180355" lon="2.374215"><ele>145.0</ele><time>2026-03-30T13:11:37.685Z</time></trkpt><trkpt lat="43.18046" lon="2.3740367"><ele>145.0</ele><time>2026-03-30T13:11:38.686Z</time></trkpt><trkpt lat="43.1805683" lon="2.37386"><ele>145.0</ele><time>2026-03-30T13:11:39.685Z</time></trkpt><trkpt lat="43.1806767" lon="2.373685"><ele>144.66666666666669</ele><time>2026-03-30T13:11:40.687Z</time></trkpt><trkpt lat="43.18078" lon="2.37351"><ele>144.33333333333334</ele><time>2026-03-30T13:11:41.687Z</time></trkpt><trkpt lat="43.1808833" lon="2.3733367"><ele>144.0</ele><time>2026-03-30T13:11:42.689Z</time></trkpt><trkpt lat="43.1809883" lon="2.3731633"><ele>144.0</ele><time>2026-03-30T13:11:43.688Z</time></trkpt><trkpt lat="43.1810933" lon="2.3729917"><ele>144.0</ele><time>2026-03-30T13:11:44.689Z</time></trkpt><trkpt lat="43.181195" lon="2.372815"><ele>144.0</ele><time>2026-03-30T13:11:45.686Z</time></trkpt><trkpt lat="43.1813" lon="2.3726333"><ele>144.0</ele><time>2026-03-30T13:11:46.686Z</time></trkpt><trkpt lat="43.181405" lon="2.3724617"><ele>144.0</ele><time>2026-03-30T13:11:47.686Z</time></trkpt><trkpt lat="43.18151" lon="2.3722883"><ele>144.0</ele><time>2026-03-30T13:11:48.687Z</time></trkpt><trkpt lat="43.1816167" lon="2.3721117"><ele>143.66666666666666</ele><time>2026-03-30T13:11:49.686Z</time></trkpt><trkpt lat="43.1817183" lon="2.371945"><ele>143.33333333333331</ele><time>2026-03-30T13:11:50.687Z</time></trkpt><trkpt lat="43.1818117" lon="2.3717717"><ele>143.0</ele><time>2026-03-30T13:11:51.687Z</time></trkpt><trkpt lat="43.1819133" lon="2.3716"><ele>143.0</ele><time>2026-03-30T13:11:52.687Z</time></trkpt><trkpt lat="43.18202" lon="2.37144"><ele>143.0</ele><time>2026-03-30T13:11:53.687Z</time></trkpt><trkpt lat="43.1821283" lon="2.3712967"><ele>143.0</ele><time>2026-03-30T13:11:54.685Z</time></trkpt><trkpt lat="43.1822433" lon="2.37116"><ele>144.0</ele><time>2026-03-30T13:11:55.687Z</time></trkpt><trkpt lat="43.1823533" lon="2.371015"><ele>145.0</ele><time>2026-03-30T13:11:56.686Z</time></trkpt><trkpt lat="43.182465" lon="2.370875"><ele>146.0</ele><time>2026-03-30T13:11:57.686Z</time></trkpt><trkpt lat="43.18258" lon="2.3707317"><ele>146.0</ele><time>2026-03-30T13:11:58.686Z</time></trkpt><trkpt lat="43.182685" lon="2.3705867"><ele>146.0</ele><time>2026-03-30T13:11:59.687Z</time></trkpt><trkpt lat="43.1827883" lon="2.370435"><ele>146.0</ele><time>2026-03-30T13:12:00.686Z</time></trkpt><trkpt lat="43.182885" lon="2.3702817"><ele>146.0</ele><time>2026-03-30T13:12:01.686Z</time></trkpt><trkpt lat="43.18298" lon="2.3701467"><ele>146.5</ele><time>2026-03-30T13:12:02.687Z</time></trkpt><trkpt lat="43.1830767" lon="2.37002"><ele>147.0</ele><time>2026-03-30T13:12:03.688Z</time></trkpt><trkpt lat="43.1831633" lon="2.369895"><ele>147.5</ele><time>2026-03-30T13:12:04.685Z</time></trkpt><trkpt lat="43.1832433" lon="2.36978"><ele>148.0</ele><time>2026-03-30T13:12:05.686Z</time></trkpt><trkpt lat="43.1833233" lon="2.36967"><ele>147.16666666666669</ele><time>2026-03-30T13:12:06.688Z</time></trkpt><trkpt lat="43.183395" lon="2.3695633"><ele>146.33333333333334</ele><time>2026-03-30T13:12:07.686Z</time></trkpt><trkpt lat="43.1834717" lon="2.369475"><ele>145.5</ele><time>2026-03-30T13:12:08.685Z</time></trkpt><trkpt lat="43.1835483" lon="2.3694067"><ele>144.66666666666666</ele><time>2026-03-30T13:12:09.686Z</time></trkpt><trkpt lat="43.1836167" lon="2.369345"><ele>143.83333333333331</ele><time>2026-03-30T13:12:10.685Z</time></trkpt><trkpt lat="43.1836733" lon="2.3692917"><ele>143.0</ele><time>2026-03-30T13:12:11.686Z</time></trkpt><trkpt lat="43.1837317" lon="2.369255"><ele>143.0</ele><time>2026-03-30T13:12:12.685Z</time></trkpt><trkpt lat="43.183845" lon="2.3692883"><ele>143.0</ele><time>2026-03-30T13:12:14.687Z</time></trkpt><trkpt lat="43.183915" lon="2.3694067"><ele>143.0</ele><time>2026-03-30T13:12:16.684Z</time></trkpt><trkpt lat="43.183955" lon="2.36948"><ele>143.0</ele><time>2026-03-30T13:12:17.687Z</time></trkpt><trkpt lat="43.184035" lon="2.3695283"><ele>143.0</ele><time>2026-03-30T13:12:18.689Z</time></trkpt><trkpt lat="43.18414" lon="2.369525"><ele>143.5</ele><time>2026-03-30T13:12:19.687Z</time></trkpt><trkpt lat="43.184245" lon="2.3695083"><ele>144.0</ele><time>2026-03-30T13:12:20.686Z</time></trkpt><trkpt lat="43.1843633" lon="2.3694617"><ele>144.5</ele><time>2026-03-30T13:12:21.685Z</time></trkpt><trkpt lat="43.1844883" lon="2.36941"><ele>145.0</ele><time>2026-03-30T13:12:22.685Z</time></trkpt><trkpt lat="43.1846133" lon="2.3693617"><ele>145.0</ele><time>2026-03-30T13:12:23.687Z</time></trkpt><trkpt lat="43.1847333" lon="2.3693217"><ele>145.0</ele><time>2026-03-30T13:12:24.686Z</time></trkpt><trkpt lat="43.1848367" lon="2.3693"><ele>145.0</ele><time>2026-03-30T13:12:25.684Z</time></trkpt><trkpt lat="43.1849367" lon="2.369295"><ele>145.0</ele><time>2026-03-30T13:12:26.685Z</time></trkpt><trkpt lat="43.1850383" lon="2.3693133"><ele>145.0</ele><time>2026-03-30T13:12:27.686Z</time></trkpt><trkpt lat="43.1851533" lon="2.3693483"><ele>145.8</ele><time>2026-03-30T13:12:28.685Z</time></trkpt><trkpt lat="43.18527" lon="2.3693883"><ele>146.6</ele><time>2026-03-30T13:12:29.686Z</time></trkpt><trkpt lat="43.1853717" lon="2.3694217"><ele>147.4</ele><time>2026-03-30T13:12:30.686Z</time></trkpt><trkpt lat="43.1854583" lon="2.369455"><ele>148.2</ele><time>2026-03-30T13:12:31.69Z</time></trkpt><trkpt lat="43.1855333" lon="2.369505"><ele>149.0</ele><time>2026-03-30T13:12:32.685Z</time></trkpt><trkpt lat="43.18559" lon="2.369575"><ele>149.0</ele><time>2026-03-30T13:12:33.684Z</time></trkpt><trkpt lat="43.1856267" lon="2.3696783"><ele>149.0</ele><time>2026-03-30T13:12:34.686Z</time></trkpt><trkpt lat="43.18564" lon="2.36981"><ele>149.0</ele><time>2026-03-30T13:12:35.688Z</time></trkpt><trkpt lat="43.18566" lon="2.3699517"><ele>149.0</ele><time>2026-03-30T13:12:36.685Z</time></trkpt><trkpt lat="43.1856983" lon="2.3701033"><ele>149.0</ele><time>2026-03-30T13:12:37.685Z</time></trkpt><trkpt lat="43.1857617" lon="2.370255"><ele>149.75</ele><time>2026-03-30T13:12:38.685Z</time></trkpt><trkpt lat="43.1858467" lon="2.3704117"><ele>150.5</ele><time>2026-03-30T13:12:39.685Z</time></trkpt><trkpt lat="43.1859317" lon="2.3705767"><ele>151.25</ele><time>2026-03-30T13:12:40.685Z</time></trkpt><trkpt lat="43.1860133" lon="2.3707467"><ele>152.0</ele><time>2026-03-30T13:12:41.688Z</time></trkpt><trkpt lat="43.18609" lon="2.37092"><ele>152.25</ele><time>2026-03-30T13:12:42.686Z</time></trkpt><trkpt lat="43.1861583" lon="2.371085"><ele>152.5</ele><time>2026-03-30T13:12:43.685Z</time></trkpt><trkpt lat="43.1862267" lon="2.37125"><ele>152.75</ele><time>2026-03-30T13:12:44.685Z</time></trkpt><trkpt lat="43.1862933" lon="2.3714067"><ele>153.0</ele><time>2026-03-30T13:12:45.689Z</time></trkpt><trkpt lat="43.186355" lon="2.37155"><ele>153.4</ele><time>2026-03-30T13:12:46.687Z</time></trkpt><trkpt lat="43.1864083" lon="2.37168"><ele>153.8</ele><time>2026-03-30T13:12:47.687Z</time></trkpt><trkpt lat="43.1864617" lon="2.37179"><ele>154.2</ele><time>2026-03-30T13:12:48.686Z</time></trkpt><trkpt lat="43.1865067" lon="2.3718833"><ele>154.6</ele><time>2026-03-30T13:12:49.687Z</time></trkpt><trkpt lat="43.1865433" lon="2.37196"><ele>155.0</ele><time>2026-03-30T13:12:50.687Z</time></trkpt><trkpt lat="43.1866" lon="2.3720767"><ele>156.33333333333331</ele><time>2026-03-30T13:12:52.687Z</time></trkpt><trkpt lat="43.1866333" lon="2.3721817"><ele>157.66666666666666</ele><time>2026-03-30T13:12:54.686Z</time></trkpt><trkpt lat="43.1866717" lon="2.3723233"><ele>159.0</ele><time>2026-03-30T13:12:56.686Z</time></trkpt><trkpt lat="43.18671" lon="2.3724117"><ele>160.33333333333334</ele><time>2026-03-30T13:12:57.686Z</time></trkpt><trkpt lat="43.1867517" lon="2.3725067"><ele>161.66666666666669</ele><time>2026-03-30T13:12:58.689Z</time></trkpt><trkpt lat="43.1867967" lon="2.3726067"><ele>163.0</ele><time>2026-03-30T13:12:59.687Z</time></trkpt><trkpt lat="43.186845" lon="2.37271"><ele>163.5</ele><time>2026-03-30T13:13:00.69Z</time></trkpt><trkpt lat="43.1868933" lon="2.3728083"><ele>164.0</ele><time>2026-03-30T13:13:01.686Z</time></trkpt><trkpt lat="43.1869467" lon="2.3728983"><ele>164.5</ele><time>2026-03-30T13:13:02.689Z</time></trkpt><trkpt lat="43.1870033" lon="2.3729833"><ele>165.0</ele><time>2026-03-30T13:13:03.687Z</time></trkpt><trkpt lat="43.18706" lon="2.3730683"><ele>165.5</ele><time>2026-03-30T13:13:04.686Z</time></trkpt><trkpt lat="43.1871133" lon="2.37316"><ele>166.0</ele><time>2026-03-30T13:13:05.686Z</time></trkpt><trkpt lat="43.18716" lon="2.3732567"><ele>166.0</ele><time>2026-03-30T13:13:06.687Z</time></trkpt><trkpt lat="43.1871983" lon="2.3733483"><ele>166.0</ele><time>2026-03-30T13:13:07.687Z</time></trkpt><trkpt lat="43.187235" lon="2.37343"><ele>166.0</ele><time>2026-03-30T13:13:08.688Z</time></trkpt><trkpt lat="43.1872783" lon="2.373505"><ele>166.0</ele><time>2026-03-30T13:13:09.687Z</time></trkpt><trkpt lat="43.1873233" lon="2.3735783"><ele>166.0</ele><time>2026-03-30T13:13:10.685Z</time></trkpt><trkpt lat="43.1873733" lon="2.3736517"><ele>166.0</ele><time>2026-03-30T13:13:11.685Z</time></trkpt><trkpt lat="43.1874217" lon="2.3737267"><ele>166.0</ele><time>2026-03-30T13:13:12.686Z</time></trkpt><trkpt lat="43.1874667" lon="2.3738"><ele>167.7142857142857</ele><time>2026-03-30T13:13:13.685Z</time></trkpt><trkpt lat="43.1875133" lon="2.3738733"><ele>169.42857142857144</ele><time>2026-03-30T13:13:14.686Z</time></trkpt><trkpt lat="43.187555" lon="2.3739483"><ele>171.14285714285714</ele><time>2026-03-30T13:13:15.685Z</time></trkpt><trkpt lat="43.187585" lon="2.37403"><ele>172.85714285714283</ele><time>2026-03-30T13:13:16.686Z</time></trkpt><trkpt lat="43.1876133" lon="2.3741133"><ele>174.57142857142856</ele><time>2026-03-30T13:13:17.687Z</time></trkpt><trkpt lat="43.18764" lon="2.3742"><ele>176.28571428571428</ele><time>2026-03-30T13:13:18.689Z</time></trkpt><trkpt lat="43.187665" lon="2.3742933"><ele>178.0</ele><time>2026-03-30T13:13:19.686Z</time></trkpt><trkpt lat="43.1876883" lon="2.3743867"><ele>178.0</ele><time>2026-03-30T13:13:20.686Z</time></trkpt><trkpt lat="43.1877067" lon="2.3744733"><ele>178.0</ele><time>2026-03-30T13:13:21.687Z</time></trkpt><trkpt lat="43.1877267" lon="2.3745583"><ele>178.0</ele><time>2026-03-30T13:13:22.688Z</time></trkpt><trkpt lat="43.1877533" lon="2.3746567"><ele>178.0</ele><time>2026-03-30T13:13:23.686Z</time></trkpt><trkpt lat="43.18778" lon="2.3747583"><ele>178.0</ele><time>2026-03-30T13:13:24.687Z</time></trkpt><trkpt lat="43.187805" lon="2.3748633"><ele>178.0</ele><time>2026-03-30T13:13:25.686Z</time></trkpt><trkpt lat="43.1878317" lon="2.3749717"><ele>178.2</ele><time>2026-03-30T13:13:26.687Z</time></trkpt><trkpt lat="43.187855" lon="2.3750883"><ele>178.4</ele><time>2026-03-30T13:13:27.685Z</time></trkpt><trkpt lat="43.18788" lon="2.37521"><ele>178.6</ele><time>2026-03-30T13:13:28.685Z</time></trkpt><trkpt lat="43.1879067" lon="2.37533"><ele>178.79999999999998</ele><time>2026-03-30T13:13:29.686Z</time></trkpt><trkpt lat="43.187935" lon="2.3754517"><ele>179.0</ele><time>2026-03-30T13:13:30.687Z</time></trkpt><trkpt lat="43.187965" lon="2.375565"><ele>179.16666666666666</ele><time>2026-03-30T13:13:31.685Z</time></trkpt><trkpt lat="43.1879967" lon="2.37567"><ele>179.33333333333331</ele><time>2026-03-30T13:13:32.687Z</time></trkpt><trkpt lat="43.1880267" lon="2.3757683"><ele>179.5</ele><time>2026-03-30T13:13:33.686Z</time></trkpt><trkpt lat="43.1880467" lon="2.3758617"><ele>179.66666666666666</ele><time>2026-03-30T13:13:34.686Z</time></trkpt><trkpt lat="43.188065" lon="2.37595"><ele>179.83333333333334</ele><time>2026-03-30T13:13:35.686Z</time></trkpt><trkpt lat="43.1881583" lon="2.3760783"><ele>180.0</ele><time>2026-03-30T13:13:37.685Z</time></trkpt><trkpt lat="43.1882417" lon="2.37613"><ele>181.5</ele><time>2026-03-30T13:13:38.685Z</time></trkpt><trkpt lat="43.18833" lon="2.3761783"><ele>183.0</ele><time>2026-03-30T13:13:39.686Z</time></trkpt><trkpt lat="43.1884217" lon="2.376215"><ele>184.5</ele><time>2026-03-30T13:13:40.687Z</time></trkpt><trkpt lat="43.1885067" lon="2.3762433"><ele>186.0</ele><time>2026-03-30T13:13:41.685Z</time></trkpt><trkpt lat="43.188585" lon="2.376275"><ele>187.5</ele><time>2026-03-30T13:13:42.685Z</time></trkpt><trkpt lat="43.1886633" lon="2.37632"><ele>189.0</ele><time>2026-03-30T13:13:43.686Z</time></trkpt><trkpt lat="43.1887367" lon="2.37638"><ele>189.0</ele><time>2026-03-30T13:13:44.686Z</time></trkpt><trkpt lat="43.1888117" lon="2.37646"><ele>189.0</ele><time>2026-03-30T13:13:45.686Z</time></trkpt><trkpt lat="43.1888883" lon="2.37655"><ele>189.0</ele><time>2026-03-30T13:13:46.685Z</time></trkpt><trkpt lat="43.1889633" lon="2.37664"><ele>189.0</ele><time>2026-03-30T13:13:47.687Z</time></trkpt><trkpt lat="43.1890417" lon="2.3767283"><ele>189.0</ele><time>2026-03-30T13:13:48.685Z</time></trkpt><trkpt lat="43.18912" lon="2.3767933"><ele>191.2</ele><time>2026-03-30T13:13:49.686Z</time></trkpt><trkpt lat="43.1892033" lon="2.3768417"><ele>193.39999999999998</ele><time>2026-03-30T13:13:50.687Z</time></trkpt><trkpt lat="43.1893017" lon="2.3768767"><ele>195.6</ele><time>2026-03-30T13:13:51.687Z</time></trkpt><trkpt lat="43.1894067" lon="2.3768933"><ele>197.8</ele><time>2026-03-30T13:13:52.686Z</time></trkpt><trkpt lat="43.1895217" lon="2.3769017"><ele>200.0</ele><time>2026-03-30T13:13:53.686Z</time></trkpt><trkpt lat="43.1896317" lon="2.376905"><ele>200.0</ele><time>2026-03-30T13:13:54.687Z</time></trkpt><trkpt lat="43.1897333" lon="2.37691"><ele>200.0</ele><time>2026-03-30T13:13:55.687Z</time></trkpt><trkpt lat="43.1898267" lon="2.3769183"><ele>200.0</ele><time>2026-03-30T13:13:56.686Z</time></trkpt><trkpt lat="43.1899083" lon="2.37694"><ele>200.0</ele><time>2026-03-30T13:13:57.686Z</time></trkpt><trkpt lat="43.1899867" lon="2.3769817"><ele>200.0</ele><time>2026-03-30T13:13:58.686Z</time></trkpt><trkpt lat="43.1900633" lon="2.3770483"><ele>200.4</ele><time>2026-03-30T13:13:59.685Z</time></trkpt><trkpt lat="43.1901317" lon="2.3771367"><ele>200.8</ele><time>2026-03-30T13:14:00.686Z</time></trkpt><trkpt lat="43.1901883" lon="2.3772483"><ele>201.2</ele><time>2026-03-30T13:14:01.688Z</time></trkpt><trkpt lat="43.1902383" lon="2.377385"><ele>201.6</ele><time>2026-03-30T13:14:02.686Z</time></trkpt><trkpt lat="43.1902817" lon="2.3775333"><ele>202.0</ele><time>2026-03-30T13:14:03.687Z</time></trkpt><trkpt lat="43.1903317" lon="2.3776733"><ele>200.75</ele><time>2026-03-30T13:14:04.686Z</time></trkpt><trkpt lat="43.1903983" lon="2.377805"><ele>199.5</ele><time>2026-03-30T13:14:05.686Z</time></trkpt><trkpt lat="43.1904667" lon="2.377935"><ele>198.25</ele><time>2026-03-30T13:14:06.685Z</time></trkpt><trkpt lat="43.1905583" lon="2.37805"><ele>197.0</ele><time>2026-03-30T13:14:07.686Z</time></trkpt><trkpt lat="43.19066" lon="2.3781733"><ele>199.0</ele><time>2026-03-30T13:14:08.686Z</time></trkpt><trkpt lat="43.1907633" lon="2.3782967"><ele>201.0</ele><time>2026-03-30T13:14:09.685Z</time></trkpt><trkpt lat="43.1908617" lon="2.378415"><ele>203.0</ele><time>2026-03-30T13:14:10.686Z</time></trkpt><trkpt lat="43.19096" lon="2.3785317"><ele>205.0</ele><time>2026-03-30T13:14:11.686Z</time></trkpt><trkpt lat="43.1910533" lon="2.3786433"><ele>205.0</ele><time>2026-03-30T13:14:12.686Z</time></trkpt><trkpt lat="43.1911383" lon="2.378745"><ele>205.0</ele><time>2026-03-30T13:14:13.687Z</time></trkpt><trkpt lat="43.1912317" lon="2.3788367"><ele>205.0</ele><time>2026-03-30T13:14:14.686Z</time></trkpt><trkpt lat="43.19133" lon="2.378915"><ele>205.0</ele><time>2026-03-30T13:14:15.686Z</time></trkpt><trkpt lat="43.1914317" lon="2.378975"><ele>206.75</ele><time>2026-03-30T13:14:16.686Z</time></trkpt><trkpt lat="43.1915433" lon="2.3790133"><ele>208.5</ele><time>2026-03-30T13:14:17.685Z</time></trkpt><trkpt lat="43.1916617" lon="2.37903"><ele>210.25</ele><time>2026-03-30T13:14:18.687Z</time></trkpt><trkpt lat="43.1917817" lon="2.3790267"><ele>212.0</ele><time>2026-03-30T13:14:19.686Z</time></trkpt><trkpt lat="43.1919" lon="2.3789983"><ele>212.0</ele><time>2026-03-30T13:14:20.687Z</time></trkpt><trkpt lat="43.19201" lon="2.37896"><ele>212.0</ele><time>2026-03-30T13:14:21.685Z</time></trkpt><trkpt lat="43.1921083" lon="2.3789233"><ele>212.0</ele><time>2026-03-30T13:14:22.687Z</time></trkpt><trkpt lat="43.192195" lon="2.3788833"><ele>212.0</ele><time>2026-03-30T13:14:23.685Z</time></trkpt><trkpt lat="43.1922767" lon="2.378845"><ele>212.0</ele><time>2026-03-30T13:14:24.688Z</time></trkpt><trkpt lat="43.1923533" lon="2.3787933"><ele>211.6</ele><time>2026-03-30T13:14:25.686Z</time></trkpt><trkpt lat="43.1924333" lon="2.3787183"><ele>211.2</ele><time>2026-03-30T13:14:26.687Z</time></trkpt><trkpt lat="43.192515" lon="2.3786283"><ele>210.8</ele><time>2026-03-30T13:14:27.688Z</time></trkpt><trkpt lat="43.192595" lon="2.3785333"><ele>210.4</ele><time>2026-03-30T13:14:28.687Z</time></trkpt><trkpt lat="43.1926767" lon="2.3784417"><ele>210.0</ele><time>2026-03-30T13:14:29.688Z</time></trkpt><trkpt lat="43.19276" lon="2.3783467"><ele>210.0</ele><time>2026-03-30T13:14:30.687Z</time></trkpt><trkpt lat="43.1928417" lon="2.37825"><ele>210.0</ele><time>2026-03-30T13:14:31.686Z</time></trkpt><trkpt lat="43.192915" lon="2.3781483"><ele>210.0</ele><time>2026-03-30T13:14:32.688Z</time></trkpt><trkpt lat="43.192985" lon="2.37805"><ele>210.0</ele><time>2026-03-30T13:14:33.686Z</time></trkpt><trkpt lat="43.193055" lon="2.3779533"><ele>210.0</ele><time>2026-03-30T13:14:34.686Z</time></trkpt><trkpt lat="43.1931217" lon="2.37786"><ele>207.8</ele><time>2026-03-30T13:14:35.686Z</time></trkpt><trkpt lat="43.1931867" lon="2.377765"><ele>205.6</ele><time>2026-03-30T13:14:36.686Z</time></trkpt><trkpt lat="43.1932533" lon="2.3776767"><ele>203.39999999999998</ele><time>2026-03-30T13:14:37.689Z</time></trkpt><trkpt lat="43.19332" lon="2.3775933"><ele>201.2</ele><time>2026-03-30T13:14:38.686Z</time></trkpt><trkpt lat="43.1934017" lon="2.3775267"><ele>199.0</ele><time>2026-03-30T13:14:39.686Z</time></trkpt><trkpt lat="43.1934933" lon="2.377475"><ele>199.0</ele><time>2026-03-30T13:14:40.685Z</time></trkpt><trkpt lat="43.1935867" lon="2.37743"><ele>199.0</ele><time>2026-03-30T13:14:41.686Z</time></trkpt><trkpt lat="43.1936767" lon="2.3773867"><ele>199.0</ele><time>2026-03-30T13:14:42.689Z</time></trkpt><trkpt lat="43.193765" lon="2.377335"><ele>199.0</ele><time>2026-03-30T13:14:43.685Z</time></trkpt><trkpt lat="43.19385" lon="2.37727"><ele>199.0</ele><time>2026-03-30T13:14:44.688Z</time></trkpt><trkpt lat="43.1939367" lon="2.37719"><ele>196.25</ele><time>2026-03-30T13:14:45.686Z</time></trkpt><trkpt lat="43.1940267" lon="2.377105"><ele>193.5</ele><time>2026-03-30T13:14:46.687Z</time></trkpt><trkpt lat="43.1941233" lon="2.377015"><ele>190.75</ele><time>2026-03-30T13:14:47.686Z</time></trkpt><trkpt lat="43.19422" lon="2.376915"><ele>188.0</ele><time>2026-03-30T13:14:48.686Z</time></trkpt><trkpt lat="43.1943233" lon="2.37682"><ele>188.0</ele><time>2026-03-30T13:14:49.688Z</time></trkpt><trkpt lat="43.1944267" lon="2.3767217"><ele>188.0</ele><time>2026-03-30T13:14:50.685Z</time></trkpt><trkpt lat="43.1945333" lon="2.376615"><ele>188.0</ele><time>2026-03-30T13:14:51.685Z</time></trkpt><trkpt lat="43.1946433" lon="2.3765067"><ele>188.0</ele><time>2026-03-30T13:14:52.686Z</time></trkpt><trkpt lat="43.1947517" lon="2.3764"><ele>185.5</ele><time>2026-03-30T13:14:53.685Z</time></trkpt><trkpt lat="43.1948617" lon="2.3762883"><ele>183.0</ele><time>2026-03-30T13:14:54.687Z</time></trkpt><trkpt lat="43.19497" lon="2.3761817"><ele>180.5</ele><time>2026-03-30T13:14:55.687Z</time></trkpt><trkpt lat="43.195075" lon="2.3760767"><ele>178.0</ele><time>2026-03-30T13:14:56.685Z</time></trkpt><trkpt lat="43.1951767" lon="2.3759733"><ele>178.0</ele><time>2026-03-30T13:14:57.686Z</time></trkpt><trkpt lat="43.19527" lon="2.3758683"><ele>178.0</ele><time>2026-03-30T13:14:58.686Z</time></trkpt><trkpt lat="43.1953583" lon="2.3757717"><ele>178.0</ele><time>2026-03-30T13:14:59.686Z</time></trkpt><trkpt lat="43.195445" lon="2.3756767"><ele>178.0</ele><time>2026-03-30T13:15:00.687Z</time></trkpt><trkpt lat="43.1955283" lon="2.3755817"><ele>178.0</ele><time>2026-03-30T13:15:01.687Z</time></trkpt><trkpt lat="43.195615" lon="2.375485"><ele>178.0</ele><time>2026-03-30T13:15:02.687Z</time></trkpt><trkpt lat="43.19571" lon="2.3753933"><ele>178.0</ele><time>2026-03-30T13:15:03.685Z</time></trkpt><trkpt lat="43.195815" lon="2.3753033"><ele>178.0</ele><time>2026-03-30T13:15:04.686Z</time></trkpt><trkpt lat="43.19593" lon="2.3752233"><ele>176.0</ele><time>2026-03-30T13:15:05.685Z</time></trkpt><trkpt lat="43.1960567" lon="2.37514"><ele>174.0</ele><time>2026-03-30T13:15:06.685Z</time></trkpt><trkpt lat="43.19618" lon="2.3750533"><ele>172.0</ele><time>2026-03-30T13:15:07.687Z</time></trkpt><trkpt lat="43.1963017" lon="2.3749583"><ele>170.0</ele><time>2026-03-30T13:15:08.686Z</time></trkpt><trkpt lat="43.19642" lon="2.3748567"><ele>170.25</ele><time>2026-03-30T13:15:09.688Z</time></trkpt><trkpt lat="43.19654" lon="2.37475"><ele>170.5</ele><time>2026-03-30T13:15:10.685Z</time></trkpt><trkpt lat="43.19666" lon="2.3746383"><ele>170.75</ele><time>2026-03-30T13:15:11.685Z</time></trkpt><trkpt lat="43.196775" lon="2.3745267"><ele>171.0</ele><time>2026-03-30T13:15:12.688Z</time></trkpt><trkpt lat="43.1968883" lon="2.3744167"><ele>170.25</ele><time>2026-03-30T13:15:13.685Z</time></trkpt><trkpt lat="43.1970017" lon="2.3743083"><ele>169.5</ele><time>2026-03-30T13:15:14.688Z</time></trkpt><trkpt lat="43.1971133" lon="2.3742017"><ele>168.75</ele><time>2026-03-30T13:15:15.686Z</time></trkpt><trkpt lat="43.197225" lon="2.374095"><ele>168.0</ele><time>2026-03-30T13:15:16.685Z</time></trkpt><trkpt lat="43.1973433" lon="2.3740017"><ele>168.0</ele><time>2026-03-30T13:15:17.686Z</time></trkpt><trkpt lat="43.197455" lon="2.3739083"><ele>168.0</ele><time>2026-03-30T13:15:18.689Z</time></trkpt><trkpt lat="43.1975633" lon="2.373805"><ele>168.0</ele><time>2026-03-30T13:15:19.686Z</time></trkpt><trkpt lat="43.1976683" lon="2.373695"><ele>168.0</ele><time>2026-03-30T13:15:20.688Z</time></trkpt><trkpt lat="43.1977717" lon="2.373575"><ele>166.25</ele><time>2026-03-30T13:15:21.686Z</time></trkpt><trkpt lat="43.1978683" lon="2.3734433"><ele>164.5</ele><time>2026-03-30T13:15:22.686Z</time></trkpt><trkpt lat="43.1979617" lon="2.373305"><ele>162.75</ele><time>2026-03-30T13:15:23.685Z</time></trkpt><trkpt lat="43.1980517" lon="2.3731533"><ele>161.0</ele><time>2026-03-30T13:15:24.686Z</time></trkpt><trkpt lat="43.1981417" lon="2.37301"><ele>160.25</ele><time>2026-03-30T13:15:25.689Z</time></trkpt><trkpt lat="43.1982283" lon="2.372875"><ele>159.5</ele><time>2026-03-30T13:15:26.687Z</time></trkpt><trkpt lat="43.19831" lon="2.37275"><ele>158.75</ele><time>2026-03-30T13:15:27.686Z</time></trkpt><trkpt lat="43.1983917" lon="2.372635"><ele>158.0</ele><time>2026-03-30T13:15:28.686Z</time></trkpt><trkpt lat="43.198475" lon="2.3725267"><ele>158.0</ele><time>2026-03-30T13:15:29.685Z</time></trkpt><trkpt lat="43.1985633" lon="2.3724333"><ele>158.0</ele><time>2026-03-30T13:15:30.687Z</time></trkpt><trkpt lat="43.1986617" lon="2.3723433"><ele>158.0</ele><time>2026-03-30T13:15:31.689Z</time></trkpt><trkpt lat="43.1987683" lon="2.372255"><ele>158.0</ele><time>2026-03-30T13:15:32.686Z</time></trkpt><trkpt lat="43.19888" lon="2.37217"><ele>157.0</ele><time>2026-03-30T13:15:33.685Z</time></trkpt><trkpt lat="43.1989917" lon="2.3720817"><ele>156.0</ele><time>2026-03-30T13:15:34.687Z</time></trkpt><trkpt lat="43.1991033" lon="2.371985"><ele>155.0</ele><time>2026-03-30T13:15:35.686Z</time></trkpt><trkpt lat="43.1992167" lon="2.3718867"><ele>154.0</ele><time>2026-03-30T13:15:36.685Z</time></trkpt><trkpt lat="43.1993217" lon="2.3717883"><ele>154.0</ele><time>2026-03-30T13:15:37.689Z</time></trkpt><trkpt lat="43.1994367" lon="2.3716967"><ele>154.0</ele><time>2026-03-30T13:15:38.687Z</time></trkpt><trkpt lat="43.199555" lon="2.371615"><ele>154.0</ele><time>2026-03-30T13:15:39.685Z</time></trkpt><trkpt lat="43.19968" lon="2.371545"><ele>154.0</ele><time>2026-03-30T13:15:40.688Z</time></trkpt><trkpt lat="43.1998117" lon="2.3714817"><ele>154.25</ele><time>2026-03-30T13:15:41.687Z</time></trkpt><trkpt lat="43.19994" lon="2.3714183"><ele>154.5</ele><time>2026-03-30T13:15:42.687Z</time></trkpt><trkpt lat="43.20007" lon="2.3713467"><ele>154.75</ele><time>2026-03-30T13:15:43.687Z</time></trkpt><trkpt lat="43.200195" lon="2.3712683"><ele>155.0</ele><time>2026-03-30T13:15:44.687Z</time></trkpt><trkpt lat="43.2003133" lon="2.3711833"><ele>154.75</ele><time>2026-03-30T13:15:45.688Z</time></trkpt><trkpt lat="43.2004233" lon="2.3711"><ele>154.5</ele><time>2026-03-30T13:15:46.686Z</time></trkpt><trkpt lat="43.2005283" lon="2.371025"><ele>154.25</ele><time>2026-03-30T13:15:47.685Z</time></trkpt><trkpt lat="43.200625" lon="2.370955"><ele>154.0</ele><time>2026-03-30T13:15:48.686Z</time></trkpt><trkpt lat="43.2007217" lon="2.3708833"><ele>154.0</ele><time>2026-03-30T13:15:49.69Z</time></trkpt><trkpt lat="43.20081" lon="2.3708017"><ele>154.0</ele><time>2026-03-30T13:15:50.686Z</time></trkpt><trkpt lat="43.2009017" lon="2.3707133"><ele>154.0</ele><time>2026-03-30T13:15:51.686Z</time></trkpt><trkpt lat="43.2009867" lon="2.3706383"><ele>154.0</ele><time>2026-03-30T13:15:52.686Z</time></trkpt><trkpt lat="43.201075" lon="2.3705817"><ele>154.0</ele><time>2026-03-30T13:15:53.688Z</time></trkpt><trkpt lat="43.201165" lon="2.3705533"><ele>154.0</ele><time>2026-03-30T13:15:54.688Z</time></trkpt><trkpt lat="43.201245" lon="2.370555"><ele>154.0</ele><time>2026-03-30T13:15:55.686Z</time></trkpt><trkpt lat="43.2013217" lon="2.3705983"><ele>154.0</ele><time>2026-03-30T13:15:56.687Z</time></trkpt><trkpt lat="43.2013767" lon="2.370685"><ele>154.0</ele><time>2026-03-30T13:15:57.689Z</time></trkpt><trkpt lat="43.2014383" lon="2.370755"><ele>154.0</ele><time>2026-03-30T13:15:58.687Z</time></trkpt><trkpt lat="43.20151" lon="2.370815"><ele>154.0</ele><time>2026-03-30T13:15:59.685Z</time></trkpt><trkpt lat="43.2015867" lon="2.3708567"><ele>155.2</ele><time>2026-03-30T13:16:00.688Z</time></trkpt><trkpt lat="43.2016833" lon="2.3708733"><ele>156.4</ele><time>2026-03-30T13:16:01.685Z</time></trkpt><trkpt lat="43.2017883" lon="2.3708767"><ele>157.6</ele><time>2026-03-30T13:16:02.687Z</time></trkpt><trkpt lat="43.2018967" lon="2.3708733"><ele>158.8</ele><time>2026-03-30T13:16:03.686Z</time></trkpt><trkpt lat="43.2020117" lon="2.3708583"><ele>160.0</ele><time>2026-03-30T13:16:04.687Z</time></trkpt><trkpt lat="43.2021367" lon="2.37082"><ele>160.0</ele><time>2026-03-30T13:16:05.685Z</time></trkpt><trkpt lat="43.2022633" lon="2.3707583"><ele>160.0</ele><time>2026-03-30T13:16:06.686Z</time></trkpt><trkpt lat="43.2023883" lon="2.370675"><ele>160.0</ele><time>2026-03-30T13:16:07.686Z</time></trkpt><trkpt lat="43.2025083" lon="2.37056"><ele>160.0</ele><time>2026-03-30T13:16:08.686Z</time></trkpt><trkpt lat="43.2026267" lon="2.3704317"><ele>159.0</ele><time>2026-03-30T13:16:09.687Z</time></trkpt><trkpt lat="43.2027467" lon="2.3702917"><ele>158.0</ele><time>2026-03-30T13:16:10.686Z</time></trkpt><trkpt lat="43.202865" lon="2.3701483"><ele>157.0</ele><time>2026-03-30T13:16:11.686Z</time></trkpt><trkpt lat="43.2029833" lon="2.37"><ele>157.0</ele><time>2026-03-30T13:16:12.686Z</time></trkpt><trkpt lat="43.2031" lon="2.3698417"><ele>157.0</ele><time>2026-03-30T13:16:13.686Z</time></trkpt><trkpt lat="43.2032067" lon="2.3696767"><ele>157.0</ele><time>2026-03-30T13:16:14.686Z</time></trkpt><trkpt lat="43.2033033" lon="2.3695033"><ele>156.0</ele><time>2026-03-30T13:16:15.685Z</time></trkpt><trkpt lat="43.20339" lon="2.3693233"><ele>155.0</ele><time>2026-03-30T13:16:16.686Z</time></trkpt><trkpt lat="43.20347" lon="2.3691383"><ele>154.0</ele><time>2026-03-30T13:16:17.686Z</time></trkpt><trkpt lat="43.203545" lon="2.368955"><ele>153.5</ele><time>2026-03-30T13:16:18.685Z</time></trkpt><trkpt lat="43.2036183" lon="2.3687733"><ele>153.0</ele><time>2026-03-30T13:16:19.686Z</time></trkpt><trkpt lat="43.2036883" lon="2.3685967"><ele>152.5</ele><time>2026-03-30T13:16:20.687Z</time></trkpt><trkpt lat="43.2037533" lon="2.368415"><ele>152.0</ele><time>2026-03-30T13:16:21.686Z</time></trkpt><trkpt lat="43.2038067" lon="2.3682283"><ele>152.0</ele><time>2026-03-30T13:16:22.685Z</time></trkpt><trkpt lat="43.2038567" lon="2.3680417"><ele>152.0</ele><time>2026-03-30T13:16:23.687Z</time></trkpt><trkpt lat="43.2039067" lon="2.367855"><ele>152.0</ele><time>2026-03-30T13:16:24.687Z</time></trkpt><trkpt lat="43.20396" lon="2.3676683"><ele>152.0</ele><time>2026-03-30T13:16:25.686Z</time></trkpt><trkpt lat="43.2040167" lon="2.36748"><ele>152.25</ele><time>2026-03-30T13:16:26.686Z</time></trkpt><trkpt lat="43.2040717" lon="2.36729"><ele>152.5</ele><time>2026-03-30T13:16:27.685Z</time></trkpt><trkpt lat="43.2041183" lon="2.367105"><ele>152.75</ele><time>2026-03-30T13:16:28.685Z</time></trkpt><trkpt lat="43.204155" lon="2.366925"><ele>153.0</ele><time>2026-03-30T13:16:29.686Z</time></trkpt><trkpt lat="43.2041833" lon="2.3667483"><ele>152.0</ele><time>2026-03-30T13:16:30.686Z</time></trkpt><trkpt lat="43.2042067" lon="2.3665817"><ele>151.0</ele><time>2026-03-30T13:16:31.685Z</time></trkpt><trkpt lat="43.2042333" lon="2.3664267"><ele>150.0</ele><time>2026-03-30T13:16:32.686Z</time></trkpt><trkpt lat="43.2042633" lon="2.3662833"><ele>149.0</ele><time>2026-03-30T13:16:33.688Z</time></trkpt><trkpt lat="43.204305" lon="2.3661583"><ele>148.0</ele><time>2026-03-30T13:16:34.686Z</time></trkpt><trkpt lat="43.204355" lon="2.3660467"><ele>147.33333333333334</ele><time>2026-03-30T13:16:35.685Z</time></trkpt><trkpt lat="43.2044133" lon="2.3659517"><ele>146.66666666666669</ele><time>2026-03-30T13:16:36.685Z</time></trkpt><trkpt lat="43.2044733" lon="2.36587"><ele>146.0</ele><time>2026-03-30T13:16:37.689Z</time></trkpt><trkpt lat="43.2045217" lon="2.3658"><ele>145.33333333333334</ele><time>2026-03-30T13:16:38.688Z</time></trkpt><trkpt lat="43.20458" lon="2.36575"><ele>144.66666666666666</ele><time>2026-03-30T13:16:39.686Z</time></trkpt><trkpt lat="43.2046433" lon="2.36571"><ele>144.0</ele><time>2026-03-30T13:16:40.686Z</time></trkpt><trkpt lat="43.20476" lon="2.365665"><ele>144.4</ele><time>2026-03-30T13:16:42.688Z</time></trkpt><trkpt lat="43.2048733" lon="2.3656433"><ele>144.8</ele><time>2026-03-30T13:16:44.686Z</time></trkpt><trkpt lat="43.20496" lon="2.3656767"><ele>145.2</ele><time>2026-03-30T13:16:46.688Z</time></trkpt><trkpt lat="43.205045" lon="2.3657567"><ele>145.6</ele><time>2026-03-30T13:16:48.687Z</time></trkpt><trkpt lat="43.2051" lon="2.3658117"><ele>146.0</ele><time>2026-03-30T13:16:49.689Z</time></trkpt><trkpt lat="43.20516" lon="2.3658733"><ele>146.0</ele><time>2026-03-30T13:16:50.688Z</time></trkpt><trkpt lat="43.205225" lon="2.365945"><ele>146.0</ele><time>2026-03-30T13:16:51.686Z</time></trkpt><trkpt lat="43.205295" lon="2.366025"><ele>146.0</ele><time>2026-03-30T13:16:52.685Z</time></trkpt><trkpt lat="43.2053583" lon="2.3661217"><ele>146.0</ele><time>2026-03-30T13:16:53.689Z</time></trkpt><trkpt lat="43.205405" lon="2.3662383"><ele>146.0</ele><time>2026-03-30T13:16:54.687Z</time></trkpt><trkpt lat="43.2054367" lon="2.36637"><ele>145.8</ele><time>2026-03-30T13:16:55.688Z</time></trkpt><trkpt lat="43.205465" lon="2.3665033"><ele>145.6</ele><time>2026-03-30T13:16:56.687Z</time></trkpt><trkpt lat="43.2055067" lon="2.3666233"><ele>145.4</ele><time>2026-03-30T13:16:57.688Z</time></trkpt><trkpt lat="43.205565" lon="2.36672"><ele>145.2</ele><time>2026-03-30T13:16:58.686Z</time></trkpt><trkpt lat="43.2056367" lon="2.3667883"><ele>145.0</ele><time>2026-03-30T13:16:59.686Z</time></trkpt><trkpt lat="43.2057167" lon="2.3668283"><ele>145.0</ele><time>2026-03-30T13:17:00.686Z</time></trkpt><trkpt lat="43.2058" lon="2.3668433"><ele>145.0</ele><time>2026-03-30T13:17:01.685Z</time></trkpt><trkpt lat="43.2058783" lon="2.3668317"><ele>145.0</ele><time>2026-03-30T13:17:02.688Z</time></trkpt><trkpt lat="43.205955" lon="2.3668083"><ele>145.0</ele><time>2026-03-30T13:17:03.687Z</time></trkpt><trkpt lat="43.2060233" lon="2.36679"><ele>145.0</ele><time>2026-03-30T13:17:04.687Z</time></trkpt><trkpt lat="43.2060917" lon="2.3667733"><ele>145.0</ele><time>2026-03-30T13:17:05.687Z</time></trkpt><trkpt lat="43.20616" lon="2.366755"><ele>145.0</ele><time>2026-03-30T13:17:06.688Z</time></trkpt><trkpt lat="43.2062283" lon="2.3667417"><ele>145.0</ele><time>2026-03-30T13:17:07.687Z</time></trkpt><trkpt lat="43.2063" lon="2.36672"><ele>145.0</ele><time>2026-03-30T13:17:08.686Z</time></trkpt><trkpt lat="43.206375" lon="2.36669"><ele>145.0</ele><time>2026-03-30T13:17:09.687Z</time></trkpt><trkpt lat="43.206455" lon="2.366655"><ele>145.0</ele><time>2026-03-30T13:17:10.685Z</time></trkpt><trkpt lat="43.2065433" lon="2.3666167"><ele>145.0</ele><time>2026-03-30T13:17:11.687Z</time></trkpt><trkpt lat="43.206645" lon="2.3665883"><ele>143.0</ele><time>2026-03-30T13:17:12.69Z</time></trkpt><trkpt lat="43.2067467" lon="2.36657"><ele>141.0</ele><time>2026-03-30T13:17:13.687Z</time></trkpt><trkpt lat="43.2068483" lon="2.36655"><ele>139.0</ele><time>2026-03-30T13:17:14.688Z</time></trkpt><trkpt lat="43.2069333" lon="2.366535"><ele>137.0</ele><time>2026-03-30T13:17:15.687Z</time></trkpt><trkpt lat="43.2070183" lon="2.3665183"><ele>135.0</ele><time>2026-03-30T13:17:16.685Z</time></trkpt><trkpt lat="43.2071133" lon="2.3664967"><ele>135.0</ele><time>2026-03-30T13:17:17.688Z</time></trkpt><trkpt lat="43.2072083" lon="2.3664783"><ele>135.0</ele><time>2026-03-30T13:17:18.69Z</time></trkpt><trkpt lat="43.2072967" lon="2.3664633"><ele>135.0</ele><time>2026-03-30T13:17:19.686Z</time></trkpt><trkpt lat="43.207385" lon="2.3664633"><ele>135.0</ele><time>2026-03-30T13:17:20.686Z</time></trkpt><trkpt lat="43.2074717" lon="2.3664933"><ele>135.0</ele><time>2026-03-30T13:17:21.685Z</time></trkpt><trkpt lat="43.20754" lon="2.3665717"><ele>133.8</ele><time>2026-03-30T13:17:22.685Z</time></trkpt><trkpt lat="43.2076117" lon="2.366655"><ele>132.6</ele><time>2026-03-30T13:17:23.685Z</time></trkpt><trkpt lat="43.2076867" lon="2.366735"><ele>131.4</ele><time>2026-03-30T13:17:24.693Z</time></trkpt><trkpt lat="43.2077617" lon="2.3668217"><ele>130.2</ele><time>2026-03-30T13:17:25.689Z</time></trkpt><trkpt lat="43.20784" lon="2.3669083"><ele>129.0</ele><time>2026-03-30T13:17:26.688Z</time></trkpt><trkpt lat="43.2079217" lon="2.3669917"><ele>129.0</ele><time>2026-03-30T13:17:27.686Z</time></trkpt><trkpt lat="43.2080083" lon="2.3670733"><ele>129.0</ele><time>2026-03-30T13:17:28.685Z</time></trkpt><trkpt lat="43.2080917" lon="2.3671533"><ele>129.0</ele><time>2026-03-30T13:17:29.686Z</time></trkpt><trkpt lat="43.208165" lon="2.3672367"><ele>129.0</ele><time>2026-03-30T13:17:30.686Z</time></trkpt><trkpt lat="43.2082383" lon="2.3673183"><ele>129.0</ele><time>2026-03-30T13:17:31.685Z</time></trkpt><trkpt lat="43.2083033" lon="2.3673983"><ele>127.83333333333333</ele><time>2026-03-30T13:17:32.688Z</time></trkpt><trkpt lat="43.2083633" lon="2.3674717"><ele>126.66666666666666</ele><time>2026-03-30T13:17:33.687Z</time></trkpt><trkpt lat="43.20842" lon="2.367535"><ele>125.5</ele><time>2026-03-30T13:17:34.685Z</time></trkpt><trkpt lat="43.2085117" lon="2.3675683"><ele>124.33333333333333</ele><time>2026-03-30T13:17:36.688Z</time></trkpt><trkpt lat="43.2085367" lon="2.3674733"><ele>123.16666666666666</ele><time>2026-03-30T13:17:37.686Z</time></trkpt><trkpt lat="43.2085633" lon="2.36739"><ele>122.0</ele><time>2026-03-30T13:17:38.686Z</time></trkpt><trkpt lat="43.2085883" lon="2.3672783"><ele>122.19999999999999</ele><time>2026-03-30T13:17:39.686Z</time></trkpt><trkpt lat="43.2086167" lon="2.3671533"><ele>122.39999999999999</ele><time>2026-03-30T13:17:40.687Z</time></trkpt><trkpt lat="43.2086367" lon="2.367025"><ele>122.60000000000001</ele><time>2026-03-30T13:17:41.687Z</time></trkpt><trkpt lat="43.2086617" lon="2.3668967"><ele>122.80000000000001</ele><time>2026-03-30T13:17:42.685Z</time></trkpt><trkpt lat="43.208695" lon="2.36677"><ele>123.0</ele><time>2026-03-30T13:17:43.686Z</time></trkpt><trkpt lat="43.2087367" lon="2.366645"><ele>123.0</ele><time>2026-03-30T13:17:44.691Z</time></trkpt><trkpt lat="43.208785" lon="2.3665133"><ele>123.0</ele><time>2026-03-30T13:17:45.685Z</time></trkpt><trkpt lat="43.208845" lon="2.366385"><ele>123.0</ele><time>2026-03-30T13:17:46.689Z</time></trkpt><trkpt lat="43.208905" lon="2.3662433"><ele>123.0</ele><time>2026-03-30T13:17:47.687Z</time></trkpt><trkpt lat="43.2089733" lon="2.3661033"><ele>122.0</ele><time>2026-03-30T13:17:48.686Z</time></trkpt><trkpt lat="43.2090367" lon="2.3659667"><ele>121.00000000000001</ele><time>2026-03-30T13:17:49.689Z</time></trkpt><trkpt lat="43.209095" lon="2.3658333"><ele>120.00000000000001</ele><time>2026-03-30T13:17:50.687Z</time></trkpt><trkpt lat="43.2091467" lon="2.3656967"><ele>119.0</ele><time>2026-03-30T13:17:51.686Z</time></trkpt><trkpt lat="43.2091967" lon="2.3655717"><ele>118.0</ele><time>2026-03-30T13:17:52.686Z</time></trkpt><trkpt lat="43.2092467" lon="2.3654433"><ele>117.4</ele><time>2026-03-30T13:17:53.687Z</time></trkpt><trkpt lat="43.2092917" lon="2.365315"><ele>116.80000000000001</ele><time>2026-03-30T13:17:54.688Z</time></trkpt><trkpt lat="43.2093383" lon="2.3651917"><ele>116.2</ele><time>2026-03-30T13:17:55.688Z</time></trkpt><trkpt lat="43.2093783" lon="2.36507"><ele>115.6</ele><time>2026-03-30T13:17:56.687Z</time></trkpt><trkpt lat="43.20941" lon="2.3649567"><ele>115.0</ele><time>2026-03-30T13:17:57.686Z</time></trkpt><trkpt lat="43.2094267" lon="2.36484"><ele>115.00000000000001</ele><time>2026-03-30T13:17:58.685Z</time></trkpt><trkpt lat="43.2094267" lon="2.3647267"><ele>115.0</ele><time>2026-03-30T13:17:59.686Z</time></trkpt><trkpt lat="43.209425" lon="2.3646267"><ele>115.0</ele><time>2026-03-30T13:18:00.687Z</time></trkpt><trkpt lat="43.2094583" lon="2.3644733"><ele>115.0</ele><time>2026-03-30T13:18:02.687Z</time></trkpt><trkpt lat="43.2095217" lon="2.3644"><ele>115.00000000000001</ele><time>2026-03-30T13:18:04.686Z</time></trkpt><trkpt lat="43.2096033" lon="2.3644117"><ele>115.0</ele><time>2026-03-30T13:18:05.688Z</time></trkpt><trkpt lat="43.2096767" lon="2.3644217"><ele>114.0</ele><time>2026-03-30T13:18:06.689Z</time></trkpt><trkpt lat="43.2097683" lon="2.3644317"><ele>113.0</ele><time>2026-03-30T13:18:07.686Z</time></trkpt><trkpt lat="43.2098583" lon="2.3644417"><ele>112.0</ele><time>2026-03-30T13:18:08.688Z</time></trkpt><trkpt lat="43.2099467" lon="2.364455"><ele>111.0</ele><time>2026-03-30T13:18:09.686Z</time></trkpt><trkpt lat="43.2100167" lon="2.36447"><ele>110.0</ele><time>2026-03-30T13:18:10.686Z</time></trkpt><trkpt lat="43.210145" lon="2.3644633"><ele>109.6</ele><time>2026-03-30T13:18:12.685Z</time></trkpt><trkpt lat="43.2102" lon="2.3643867"><ele>109.2</ele><time>2026-03-30T13:18:13.685Z</time></trkpt><trkpt lat="43.2102517" lon="2.36428"><ele>108.80000000000001</ele><time>2026-03-30T13:18:14.686Z</time></trkpt><trkpt lat="43.210285" lon="2.3641717"><ele>108.4</ele><time>2026-03-30T13:18:15.686Z</time></trkpt><trkpt lat="43.210325" lon="2.3640333"><ele>108.0</ele><time>2026-03-30T13:18:16.686Z</time></trkpt><trkpt lat="43.21037" lon="2.36389"><ele>107.25</ele><time>2026-03-30T13:18:17.686Z</time></trkpt><trkpt lat="43.2104133" lon="2.363725"><ele>106.5</ele><time>2026-03-30T13:18:18.687Z</time></trkpt><trkpt lat="43.2104667" lon="2.3635433"><ele>105.75</ele><time>2026-03-30T13:18:19.687Z</time></trkpt><trkpt lat="43.2105183" lon="2.36335"><ele>105.0</ele><time>2026-03-30T13:18:20.686Z</time></trkpt><trkpt lat="43.21057" lon="2.3631683"><ele>105.25</ele><time>2026-03-30T13:18:21.686Z</time></trkpt><trkpt lat="43.210625" lon="2.3629833"><ele>105.5</ele><time>2026-03-30T13:18:22.685Z</time></trkpt><trkpt lat="43.210675" lon="2.3627967"><ele>105.75</ele><time>2026-03-30T13:18:23.686Z</time></trkpt><trkpt lat="43.2107183" lon="2.3626017"><ele>106.0</ele><time>2026-03-30T13:18:24.685Z</time></trkpt><trkpt lat="43.2107667" lon="2.3624117"><ele>106.0</ele><time>2026-03-30T13:18:25.685Z</time></trkpt><trkpt lat="43.2108133" lon="2.3622267"><ele>106.0</ele><time>2026-03-30T13:18:26.69Z</time></trkpt><trkpt lat="43.2108617" lon="2.3620567"><ele>106.0</ele><time>2026-03-30T13:18:27.689Z</time></trkpt><trkpt lat="43.210905" lon="2.3618933"><ele>106.0</ele><time>2026-03-30T13:18:28.686Z</time></trkpt><trkpt lat="43.2109467" lon="2.3617317"><ele>106.25</ele><time>2026-03-30T13:18:29.687Z</time></trkpt><trkpt lat="43.2109883" lon="2.3615683"><ele>106.5</ele><time>2026-03-30T13:18:30.688Z</time></trkpt><trkpt lat="43.211035" lon="2.3614167"><ele>106.75</ele><time>2026-03-30T13:18:31.685Z</time></trkpt><trkpt lat="43.2110833" lon="2.36126"><ele>107.0</ele><time>2026-03-30T13:18:32.686Z</time></trkpt><trkpt lat="43.21113" lon="2.3611033"><ele>106.25</ele><time>2026-03-30T13:18:33.686Z</time></trkpt><trkpt lat="43.2111783" lon="2.3609533"><ele>105.5</ele><time>2026-03-30T13:18:34.686Z</time></trkpt><trkpt lat="43.2112233" lon="2.360795"><ele>104.75</ele><time>2026-03-30T13:18:35.685Z</time></trkpt><trkpt lat="43.211265" lon="2.3606367"><ele>104.0</ele><time>2026-03-30T13:18:36.686Z</time></trkpt><trkpt lat="43.2113033" lon="2.3604767"><ele>103.25</ele><time>2026-03-30T13:18:37.686Z</time></trkpt><trkpt lat="43.2113433" lon="2.3603217"><ele>102.5</ele><time>2026-03-30T13:18:38.687Z</time></trkpt><trkpt lat="43.211385" lon="2.360165"><ele>101.75</ele><time>2026-03-30T13:18:39.686Z</time></trkpt><trkpt lat="43.211425" lon="2.36001"><ele>101.0</ele><time>2026-03-30T13:18:40.686Z</time></trkpt><trkpt lat="43.2114667" lon="2.3598567"><ele>101.75</ele><time>2026-03-30T13:18:41.687Z</time></trkpt><trkpt lat="43.2115117" lon="2.359705"><ele>102.5</ele><time>2026-03-30T13:18:42.686Z</time></trkpt><trkpt lat="43.211555" lon="2.3595533"><ele>103.25</ele><time>2026-03-30T13:18:43.685Z</time></trkpt><trkpt lat="43.2115967" lon="2.3593983"><ele>104.0</ele><time>2026-03-30T13:18:44.687Z</time></trkpt><trkpt lat="43.2116367" lon="2.3592467"><ele>104.2</ele><time>2026-03-30T13:18:45.686Z</time></trkpt><trkpt lat="43.211675" lon="2.3590967"><ele>104.4</ele><time>2026-03-30T13:18:46.686Z</time></trkpt><trkpt lat="43.2117117" lon="2.35895"><ele>104.6</ele><time>2026-03-30T13:18:47.686Z</time></trkpt><trkpt lat="43.21175" lon="2.35881"><ele>104.8</ele><time>2026-03-30T13:18:48.686Z</time></trkpt><trkpt lat="43.211785" lon="2.3586767"><ele>105.0</ele><time>2026-03-30T13:18:49.686Z</time></trkpt><trkpt lat="43.2118183" lon="2.35855"><ele>105.33333333333333</ele><time>2026-03-30T13:18:50.691Z</time></trkpt><trkpt lat="43.2118483" lon="2.3584383"><ele>105.66666666666666</ele><time>2026-03-30T13:18:51.686Z</time></trkpt><trkpt lat="43.2118733" lon="2.35834"><ele>106.0</ele><time>2026-03-30T13:18:52.687Z</time></trkpt><trkpt lat="43.2118983" lon="2.35825"><ele>106.33333333333333</ele><time>2026-03-30T13:18:53.688Z</time></trkpt><trkpt lat="43.2119367" lon="2.3581017"><ele>106.66666666666666</ele><time>2026-03-30T13:18:55.685Z</time></trkpt><trkpt lat="43.2119683" lon="2.3579883"><ele>107.0</ele><time>2026-03-30T13:18:57.686Z</time></trkpt><trkpt lat="43.2120167" lon="2.357925"><ele>106.99999999999999</ele><time>2026-03-30T13:19:00.688Z</time></trkpt><trkpt lat="43.2120317" lon="2.3578267"><ele>107.0</ele><time>2026-03-30T13:19:40.686Z</time></trkpt><trkpt lat="43.2121533" lon="2.3577767"><ele>107.0</ele><time>2026-03-30T13:19:42.687Z</time></trkpt><trkpt lat="43.21222" lon="2.3577533"><ele>107.0</ele><time>2026-03-30T13:19:43.684Z</time></trkpt><trkpt lat="43.2122883" lon="2.3577133"><ele>106.99999999999999</ele><time>2026-03-30T13:19:44.686Z</time></trkpt><trkpt lat="43.2123517" lon="2.3576567"><ele>107.0</ele><time>2026-03-30T13:19:45.685Z</time></trkpt><trkpt lat="43.212395" lon="2.3575833"><ele>107.0</ele><time>2026-03-30T13:19:46.685Z</time></trkpt><trkpt lat="43.2124183" lon="2.3574417"><ele>107.0</ele><time>2026-03-30T13:19:47.686Z</time></trkpt><trkpt lat="43.2124417" lon="2.357295"><ele>107.0</ele><time>2026-03-30T13:19:48.687Z</time></trkpt><trkpt lat="43.2124633" lon="2.3571383"><ele>107.0</ele><time>2026-03-30T13:19:49.686Z</time></trkpt><trkpt lat="43.21248" lon="2.356965"><ele>107.0</ele><time>2026-03-30T13:19:50.687Z</time></trkpt><trkpt lat="43.212505" lon="2.3567967"><ele>107.0</ele><time>2026-03-30T13:19:51.686Z</time></trkpt><trkpt lat="43.2125283" lon="2.3566167"><ele>107.0</ele><time>2026-03-30T13:19:52.685Z</time></trkpt><trkpt lat="43.2125533" lon="2.3564533"><ele>107.0</ele><time>2026-03-30T13:19:53.684Z</time></trkpt><trkpt lat="43.212575" lon="2.356305"><ele>107.16666666666666</ele><time>2026-03-30T13:19:54.684Z</time></trkpt><trkpt lat="43.212595" lon="2.3561717"><ele>107.33333333333333</ele><time>2026-03-30T13:19:55.685Z</time></trkpt><trkpt lat="43.2126117" lon="2.356045"><ele>107.5</ele><time>2026-03-30T13:19:56.686Z</time></trkpt><trkpt lat="43.2126317" lon="2.3559283"><ele>107.66666666666666</ele><time>2026-03-30T13:19:57.687Z</time></trkpt><trkpt lat="43.2126483" lon="2.3558283"><ele>107.83333333333333</ele><time>2026-03-30T13:19:58.687Z</time></trkpt><trkpt lat="43.2126583" lon="2.3557317"><ele>108.0</ele><time>2026-03-30T13:19:59.685Z</time></trkpt><trkpt lat="43.212665" lon="2.3556433"><ele>108.0</ele><time>2026-03-30T13:20:00.687Z</time></trkpt><trkpt lat="43.2126683" lon="2.35555"><ele>108.0</ele><time>2026-03-30T13:20:01.686Z</time></trkpt><trkpt lat="43.21268" lon="2.3553967"><ele>108.0</ele><time>2026-03-30T13:20:03.686Z</time></trkpt><trkpt lat="43.2126917" lon="2.3552717"><ele>108.0</ele><time>2026-03-30T13:20:05.685Z</time></trkpt><trkpt lat="43.2127033" lon="2.3551617"><ele>108.0</ele><time>2026-03-30T13:20:07.684Z</time></trkpt><trkpt lat="43.2127183" lon="2.3550617"><ele>108.0</ele><time>2026-03-30T13:20:09.691Z</time></trkpt><trkpt lat="43.21272" lon="2.35496"><ele>108.14285714285714</ele><time>2026-03-30T13:20:11.69Z</time></trkpt><trkpt lat="43.2127067" lon="2.3548533"><ele>108.28571428571428</ele><time>2026-03-30T13:20:13.685Z</time></trkpt><trkpt lat="43.2127" lon="2.35475"><ele>108.42857142857143</ele><time>2026-03-30T13:20:15.685Z</time></trkpt><trkpt lat="43.2127017" lon="2.3546633"><ele>108.57142857142857</ele><time>2026-03-30T13:20:17.684Z</time></trkpt><trkpt lat="43.21271" lon="2.3545567"><ele>108.71428571428572</ele><time>2026-03-30T13:20:20.686Z</time></trkpt><trkpt lat="43.2127067" lon="2.3544667"><ele>108.85714285714286</ele><time>2026-03-30T13:20:23.686Z</time></trkpt><trkpt lat="43.2126917" lon="2.3543533"><ele>109.0</ele><time>2026-03-30T13:20:26.686Z</time></trkpt><trkpt lat="43.2126783" lon="2.354225"><ele>109.2</ele><time>2026-03-30T13:20:28.685Z</time></trkpt><trkpt lat="43.2126867" lon="2.3540833"><ele>109.4</ele><time>2026-03-30T13:20:30.687Z</time></trkpt><trkpt lat="43.2127033" lon="2.353945"><ele>109.6</ele><time>2026-03-30T13:20:32.687Z</time></trkpt><trkpt lat="43.21272" lon="2.3538067"><ele>109.8</ele><time>2026-03-30T13:20:34.685Z</time></trkpt><trkpt lat="43.2127217" lon="2.353675"><ele>110.0</ele><time>2026-03-30T13:20:36.685Z</time></trkpt><trkpt lat="43.2127167" lon="2.35354"><ele>110.4</ele><time>2026-03-30T13:20:38.685Z</time></trkpt><trkpt lat="43.2127133" lon="2.353385"><ele>110.8</ele><time>2026-03-30T13:20:40.688Z</time></trkpt><trkpt lat="43.2127133" lon="2.3532933"><ele>111.19999999999999</ele><time>2026-03-30T13:20:41.686Z</time></trkpt><trkpt lat="43.2127283" lon="2.3531667"><ele>111.6</ele><time>2026-03-30T13:20:42.69Z</time></trkpt><trkpt lat="43.2127233" lon="2.3530283"><ele>112.0</ele><time>2026-03-30T13:20:43.684Z</time></trkpt><trkpt lat="43.2127333" lon="2.3528967"><ele>112.39999999999999</ele><time>2026-03-30T13:20:44.686Z</time></trkpt><trkpt lat="43.21273" lon="2.3527767"><ele>112.79999999999998</ele><time>2026-03-30T13:20:45.687Z</time></trkpt><trkpt lat="43.2127217" lon="2.3526617"><ele>113.2</ele><time>2026-03-30T13:20:46.686Z</time></trkpt><trkpt lat="43.2127083" lon="2.3525667"><ele>113.6</ele><time>2026-03-30T13:20:47.687Z</time></trkpt><trkpt lat="43.2127083" lon="2.3524"><ele>114.0</ele><time>2026-03-30T13:20:49.686Z</time></trkpt><trkpt lat="43.2127133" lon="2.3522533"><ele>114.16666666666667</ele><time>2026-03-30T13:20:51.686Z</time></trkpt><trkpt lat="43.2127067" lon="2.3521567"><ele>114.33333333333334</ele><time>2026-03-30T13:20:52.686Z</time></trkpt><trkpt lat="43.2127017" lon="2.3520467"><ele>114.5</ele><time>2026-03-30T13:20:53.688Z</time></trkpt><trkpt lat="43.212705" lon="2.3519283"><ele>114.66666666666667</ele><time>2026-03-30T13:20:54.685Z</time></trkpt><trkpt lat="43.2127033" lon="2.3518167"><ele>114.83333333333334</ele><time>2026-03-30T13:20:55.688Z</time></trkpt><trkpt lat="43.2127" lon="2.3517217"><ele>115.0</ele><time>2026-03-30T13:20:56.689Z</time></trkpt><trkpt lat="43.2126883" lon="2.351555"><ele>115.00000000000001</ele><time>2026-03-30T13:20:58.685Z</time></trkpt><trkpt lat="43.2126817" lon="2.3514267"><ele>115.0</ele><time>2026-03-30T13:21:00.689Z</time></trkpt><trkpt lat="43.2127" lon="2.3512883"><ele>115.0</ele><time>2026-03-30T13:21:02.685Z</time></trkpt><trkpt lat="43.2127033" lon="2.3511983"><ele>115.0</ele><time>2026-03-30T13:21:03.687Z</time></trkpt><trkpt lat="43.212705" lon="2.3510967"><ele>115.00000000000001</ele><time>2026-03-30T13:21:04.685Z</time></trkpt><trkpt lat="43.2127083" lon="2.351"><ele>115.0</ele><time>2026-03-30T13:21:05.684Z</time></trkpt><trkpt lat="43.21271" lon="2.3508967"><ele>115.16666666666667</ele><time>2026-03-30T13:21:06.689Z</time></trkpt><trkpt lat="43.212705" lon="2.3508033"><ele>115.33333333333334</ele><time>2026-03-30T13:21:07.685Z</time></trkpt><trkpt lat="43.212695" lon="2.3506767"><ele>115.5</ele><time>2026-03-30T13:21:09.686Z</time></trkpt><trkpt lat="43.2126883" lon="2.3505417"><ele>115.66666666666666</ele><time>2026-03-30T13:21:24.686Z</time></trkpt><trkpt lat="43.2126767" lon="2.3504317"><ele>115.83333333333333</ele><time>2026-03-30T13:21:26.686Z</time></trkpt><trkpt lat="43.212655" lon="2.350295"><ele>116.0</ele><time>2026-03-30T13:21:28.685Z</time></trkpt><trkpt lat="43.212645" lon="2.3501433"><ele>116.19999999999999</ele><time>2026-03-30T13:21:30.685Z</time></trkpt><trkpt lat="43.212635" lon="2.3499883"><ele>116.39999999999999</ele><time>2026-03-30T13:21:32.685Z</time></trkpt><trkpt lat="43.2126183" lon="2.3498333"><ele>116.6</ele><time>2026-03-30T13:21:34.687Z</time></trkpt><trkpt lat="43.2126183" lon="2.3497133"><ele>116.8</ele><time>2026-03-30T13:21:36.688Z</time></trkpt><trkpt lat="43.2126217" lon="2.3496117"><ele>117.0</ele><time>2026-03-30T13:21:38.687Z</time></trkpt><trkpt lat="43.21262" lon="2.3494917"><ele>117.39999999999999</ele><time>2026-03-30T13:21:41.687Z</time></trkpt><trkpt lat="43.2126267" lon="2.3493883"><ele>117.79999999999998</ele><time>2026-03-30T13:21:43.685Z</time></trkpt><trkpt lat="43.212635" lon="2.3492517"><ele>118.2</ele><time>2026-03-30T13:21:45.685Z</time></trkpt><trkpt lat="43.2126367" lon="2.3491117"><ele>118.6</ele><time>2026-03-30T13:21:47.685Z</time></trkpt><trkpt lat="43.212645" lon="2.348985"><ele>119.0</ele><time>2026-03-30T13:21:49.688Z</time></trkpt><trkpt lat="43.21264" lon="2.3488733"><ele>119.16666666666666</ele><time>2026-03-30T13:21:51.684Z</time></trkpt><trkpt lat="43.2126333" lon="2.3487867"><ele>119.33333333333333</ele><time>2026-03-30T13:21:53.684Z</time></trkpt><trkpt lat="43.212615" lon="2.3486967"><ele>119.5</ele><time>2026-03-30T13:21:55.689Z</time></trkpt><trkpt lat="43.212595" lon="2.34859"><ele>119.66666666666666</ele><time>2026-03-30T13:21:58.685Z</time></trkpt><trkpt lat="43.2125983" lon="2.3484983"><ele>119.83333333333333</ele><time>2026-03-30T13:22:01.688Z</time></trkpt><trkpt lat="43.2126083" lon="2.348365"><ele>120.0</ele><time>2026-03-30T13:22:04.688Z</time></trkpt><trkpt lat="43.2126183" lon="2.3482067"><ele>120.0</ele><time>2026-03-30T13:22:06.687Z</time></trkpt><trkpt lat="43.2126183" lon="2.3481167"><ele>120.0</ele><time>2026-03-30T13:22:07.686Z</time></trkpt><trkpt lat="43.2126167" lon="2.348025"><ele>120.0</ele><time>2026-03-30T13:22:08.685Z</time></trkpt><trkpt lat="43.212625" lon="2.34793"><ele>120.0</ele><time>2026-03-30T13:22:09.686Z</time></trkpt><trkpt lat="43.212625" lon="2.347835"><ele>120.0</ele><time>2026-03-30T13:22:10.686Z</time></trkpt><trkpt lat="43.2126267" lon="2.3477467"><ele>120.0</ele><time>2026-03-30T13:22:11.686Z</time></trkpt><trkpt lat="43.21263" lon="2.3475867"><ele>120.0</ele><time>2026-03-30T13:22:13.685Z</time></trkpt><trkpt lat="43.2126433" lon="2.34744"><ele>120.0</ele><time>2026-03-30T13:22:15.686Z</time></trkpt><trkpt lat="43.2126583" lon="2.34728"><ele>120.0</ele><time>2026-03-30T13:22:17.686Z</time></trkpt><trkpt lat="43.2126633" lon="2.3471917"><ele>120.0</ele><time>2026-03-30T13:22:18.685Z</time></trkpt><trkpt lat="43.2126683" lon="2.3471017"><ele>120.0</ele><time>2026-03-30T13:22:19.685Z</time></trkpt><trkpt lat="43.2126767" lon="2.34701"><ele>120.0</ele><time>2026-03-30T13:22:20.687Z</time></trkpt><trkpt lat="43.2126833" lon="2.3469183"><ele>120.5</ele><time>2026-03-30T13:22:21.685Z</time></trkpt><trkpt lat="43.21268" lon="2.3468283"><ele>121.0</ele><time>2026-03-30T13:22:22.686Z</time></trkpt><trkpt lat="43.2126667" lon="2.346685"><ele>121.5</ele><time>2026-03-30T13:22:24.687Z</time></trkpt><trkpt lat="43.2126667" lon="2.3465667"><ele>122.0</ele><time>2026-03-30T13:22:26.69Z</time></trkpt><trkpt lat="43.2126583" lon="2.3464567"><ele>122.5</ele><time>2026-03-30T13:22:29.687Z</time></trkpt><trkpt lat="43.2126267" lon="2.34636"><ele>123.0</ele><time>2026-03-30T13:22:58.685Z</time></trkpt><trkpt lat="43.2126017" lon="2.3462067"><ele>123.0</ele><time>2026-03-30T13:23:00.685Z</time></trkpt><trkpt lat="43.2125683" lon="2.34604"><ele>123.00000000000001</ele><time>2026-03-30T13:23:02.688Z</time></trkpt><trkpt lat="43.2125333" lon="2.34586"><ele>123.00000000000001</ele><time>2026-03-30T13:23:04.685Z</time></trkpt><trkpt lat="43.2125117" lon="2.3457533"><ele>123.0</ele><time>2026-03-30T13:23:05.684Z</time></trkpt><trkpt lat="43.2124967" lon="2.3456433"><ele>123.0</ele><time>2026-03-30T13:23:06.686Z</time></trkpt><trkpt lat="43.2124883" lon="2.3455367"><ele>123.0</ele><time>2026-03-30T13:23:07.685Z</time></trkpt><trkpt lat="43.212475" lon="2.3454417"><ele>123.00000000000001</ele><time>2026-03-30T13:23:08.693Z</time></trkpt><trkpt lat="43.2124617" lon="2.3453417"><ele>123.00000000000001</ele><time>2026-03-30T13:23:09.689Z</time></trkpt><trkpt lat="43.21245" lon="2.345245"><ele>123.0</ele><time>2026-03-30T13:23:10.685Z</time></trkpt><trkpt lat="43.2124233" lon="2.3450917"><ele>123.0</ele><time>2026-03-30T13:23:12.684Z</time></trkpt><trkpt lat="43.2123867" lon="2.3449283"><ele>123.0</ele><time>2026-03-30T13:23:14.685Z</time></trkpt><trkpt lat="43.21237" lon="2.3448383"><ele>123.0</ele><time>2026-03-30T13:23:15.686Z</time></trkpt><trkpt lat="43.212355" lon="2.3447417"><ele>123.0</ele><time>2026-03-30T13:23:16.686Z</time></trkpt><trkpt lat="43.212335" lon="2.3446383"><ele>123.0</ele><time>2026-03-30T13:23:17.687Z</time></trkpt><trkpt lat="43.2123133" lon="2.3445317"><ele>123.0</ele><time>2026-03-30T13:23:18.687Z</time></trkpt><trkpt lat="43.212295" lon="2.3444217"><ele>123.0</ele><time>2026-03-30T13:23:19.687Z</time></trkpt><trkpt lat="43.2122767" lon="2.3443083"><ele>123.0</ele><time>2026-03-30T13:23:20.688Z</time></trkpt><trkpt lat="43.2122567" lon="2.3441933"><ele>123.0</ele><time>2026-03-30T13:23:21.685Z</time></trkpt><trkpt lat="43.2122383" lon="2.3440817"><ele>123.0</ele><time>2026-03-30T13:23:22.686Z</time></trkpt><trkpt lat="43.21222" lon="2.343975"><ele>123.0</ele><time>2026-03-30T13:23:23.689Z</time></trkpt><trkpt lat="43.2122033" lon="2.3438717"><ele>123.0</ele><time>2026-03-30T13:23:24.686Z</time></trkpt><trkpt lat="43.2121867" lon="2.3437667"><ele>123.0</ele><time>2026-03-30T13:23:25.689Z</time></trkpt><trkpt lat="43.21217" lon="2.34366"><ele>123.0</ele><time>2026-03-30T13:23:26.689Z</time></trkpt><trkpt lat="43.21214" lon="2.3435533"><ele>123.0</ele><time>2026-03-30T13:23:27.686Z</time></trkpt><trkpt lat="43.2121017" lon="2.34345"><ele>123.0</ele><time>2026-03-30T13:23:28.686Z</time></trkpt><trkpt lat="43.212055" lon="2.3433533"><ele>123.0</ele><time>2026-03-30T13:23:29.686Z</time></trkpt><trkpt lat="43.2120083" lon="2.343265"><ele>123.0</ele><time>2026-03-30T13:23:30.687Z</time></trkpt><trkpt lat="43.2119633" lon="2.3431833"><ele>123.0</ele><time>2026-03-30T13:23:31.686Z</time></trkpt><trkpt lat="43.21192" lon="2.3431"><ele>122.71428571428572</ele><time>2026-03-30T13:23:32.685Z</time></trkpt><trkpt lat="43.21188" lon="2.34302"><ele>122.42857142857143</ele><time>2026-03-30T13:23:33.688Z</time></trkpt><trkpt lat="43.2118383" lon="2.34294"><ele>122.14285714285714</ele><time>2026-03-30T13:23:34.685Z</time></trkpt><trkpt lat="43.211795" lon="2.3428633"><ele>121.85714285714286</ele><time>2026-03-30T13:23:35.686Z</time></trkpt><trkpt lat="43.211755" lon="2.34279"><ele>121.57142857142856</ele><time>2026-03-30T13:23:36.687Z</time></trkpt><trkpt lat="43.211715" lon="2.3427183"><ele>121.28571428571428</ele><time>2026-03-30T13:23:37.686Z</time></trkpt><trkpt lat="43.21167" lon="2.3426367"><ele>121.0</ele><time>2026-03-30T13:23:38.687Z</time></trkpt><trkpt lat="43.2116233" lon="2.34255"><ele>121.0</ele><time>2026-03-30T13:23:39.687Z</time></trkpt><trkpt lat="43.2115717" lon="2.3424567"><ele>121.0</ele><time>2026-03-30T13:23:40.685Z</time></trkpt><trkpt lat="43.2115167" lon="2.3423583"><ele>121.0</ele><time>2026-03-30T13:23:41.684Z</time></trkpt><trkpt lat="43.21145" lon="2.3422467"><ele>121.0</ele><time>2026-03-30T13:23:42.684Z</time></trkpt><trkpt lat="43.2113883" lon="2.3421267"><ele>121.0</ele><time>2026-03-30T13:23:43.685Z</time></trkpt><trkpt lat="43.2113217" lon="2.342005"><ele>120.4</ele><time>2026-03-30T13:23:44.687Z</time></trkpt><trkpt lat="43.21126" lon="2.3418883"><ele>119.8</ele><time>2026-03-30T13:23:45.685Z</time></trkpt><trkpt lat="43.2112017" lon="2.34178"><ele>119.20000000000002</ele><time>2026-03-30T13:23:46.687Z</time></trkpt><trkpt lat="43.2111483" lon="2.341685"><ele>118.60000000000001</ele><time>2026-03-30T13:23:47.685Z</time></trkpt><trkpt lat="43.211095" lon="2.3415933"><ele>118.0</ele><time>2026-03-30T13:23:48.685Z</time></trkpt><trkpt lat="43.2110433" lon="2.3415067"><ele>118.00000000000001</ele><time>2026-03-30T13:23:49.685Z</time></trkpt><trkpt lat="43.21099" lon="2.34142"><ele>118.0</ele><time>2026-03-30T13:23:50.686Z</time></trkpt><trkpt lat="43.21095" lon="2.3413367"><ele>118.0</ele><time>2026-03-30T13:23:51.685Z</time></trkpt><trkpt lat="43.210925" lon="2.3412533"><ele>118.0</ele><time>2026-03-30T13:23:52.689Z</time></trkpt><trkpt lat="43.2109083" lon="2.3411683"><ele>118.00000000000001</ele><time>2026-03-30T13:23:53.687Z</time></trkpt><trkpt lat="43.210885" lon="2.3410017"><ele>118.0</ele><time>2026-03-30T13:23:55.685Z</time></trkpt><trkpt lat="43.2108883" lon="2.3409067"><ele>117.80000000000001</ele><time>2026-03-30T13:23:56.686Z</time></trkpt><trkpt lat="43.2108883" lon="2.3407983"><ele>117.60000000000001</ele><time>2026-03-30T13:23:57.684Z</time></trkpt><trkpt lat="43.2108783" lon="2.3406683"><ele>117.39999999999999</ele><time>2026-03-30T13:23:58.685Z</time></trkpt><trkpt lat="43.21087" lon="2.34051"><ele>117.19999999999999</ele><time>2026-03-30T13:23:59.688Z</time></trkpt><trkpt lat="43.210885" lon="2.34034"><ele>117.0</ele><time>2026-03-30T13:24:00.684Z</time></trkpt><trkpt lat="43.2109067" lon="2.34015"><ele>117.0</ele><time>2026-03-30T13:24:01.685Z</time></trkpt><trkpt lat="43.2109217" lon="2.33995"><ele>117.0</ele><time>2026-03-30T13:24:02.686Z</time></trkpt><trkpt lat="43.2109283" lon="2.33974"><ele>117.0</ele><time>2026-03-30T13:24:03.686Z</time></trkpt><trkpt lat="43.2109367" lon="2.3395333"><ele>117.0</ele><time>2026-03-30T13:24:04.688Z</time></trkpt><trkpt lat="43.2109467" lon="2.33934"><ele>117.0</ele><time>2026-03-30T13:24:05.685Z</time></trkpt><trkpt lat="43.21095" lon="2.3391617"><ele>117.0</ele><time>2026-03-30T13:24:06.689Z</time></trkpt><trkpt lat="43.2109567" lon="2.338995"><ele>117.0</ele><time>2026-03-30T13:24:07.686Z</time></trkpt><trkpt lat="43.2109617" lon="2.3388333"><ele>117.39999999999999</ele><time>2026-03-30T13:24:08.686Z</time></trkpt><trkpt lat="43.2109667" lon="2.33868"><ele>117.79999999999998</ele><time>2026-03-30T13:24:09.685Z</time></trkpt><trkpt lat="43.2109717" lon="2.338535"><ele>118.2</ele><time>2026-03-30T13:24:10.686Z</time></trkpt><trkpt lat="43.210975" lon="2.3384033"><ele>118.6</ele><time>2026-03-30T13:24:11.687Z</time></trkpt><trkpt lat="43.2109733" lon="2.3382733"><ele>119.0</ele><time>2026-03-30T13:24:12.687Z</time></trkpt><trkpt lat="43.210975" lon="2.3381483"><ele>118.83333333333333</ele><time>2026-03-30T13:24:13.685Z</time></trkpt><trkpt lat="43.2109783" lon="2.3380233"><ele>118.66666666666666</ele><time>2026-03-30T13:24:14.685Z</time></trkpt><trkpt lat="43.2109833" lon="2.3379"><ele>118.5</ele><time>2026-03-30T13:24:15.685Z</time></trkpt><trkpt lat="43.2109883" lon="2.3377783"><ele>118.33333333333334</ele><time>2026-03-30T13:24:16.687Z</time></trkpt><trkpt lat="43.21099" lon="2.337655"><ele>118.16666666666667</ele><time>2026-03-30T13:24:17.687Z</time></trkpt><trkpt lat="43.210995" lon="2.337535"><ele>118.0</ele><time>2026-03-30T13:24:18.688Z</time></trkpt><trkpt lat="43.211" lon="2.3374167"><ele>118.0</ele><time>2026-03-30T13:24:19.684Z</time></trkpt><trkpt lat="43.2109967" lon="2.3372933"><ele>118.00000000000001</ele><time>2026-03-30T13:24:20.686Z</time></trkpt><trkpt lat="43.210995" lon="2.3371667"><ele>118.00000000000001</ele><time>2026-03-30T13:24:21.685Z</time></trkpt><trkpt lat="43.2109933" lon="2.3370383"><ele>118.0</ele><time>2026-03-30T13:24:22.685Z</time></trkpt><trkpt lat="43.210995" lon="2.3369117"><ele>118.0</ele><time>2026-03-30T13:24:23.687Z</time></trkpt><trkpt lat="43.2109983" lon="2.3367833"><ele>118.4</ele><time>2026-03-30T13:24:24.686Z</time></trkpt><trkpt lat="43.2110067" lon="2.3366517"><ele>118.80000000000001</ele><time>2026-03-30T13:24:25.685Z</time></trkpt><trkpt lat="43.2110117" lon="2.3365117"><ele>119.2</ele><time>2026-03-30T13:24:26.689Z</time></trkpt><trkpt lat="43.2110167" lon="2.336375"><ele>119.6</ele><time>2026-03-30T13:24:27.686Z</time></trkpt><trkpt lat="43.2110233" lon="2.3362467"><ele>120.0</ele><time>2026-03-30T13:24:28.685Z</time></trkpt><trkpt lat="43.2110267" lon="2.3361183"><ele>120.16666666666667</ele><time>2026-03-30T13:24:29.687Z</time></trkpt><trkpt lat="43.2110317" lon="2.3359967"><ele>120.33333333333334</ele><time>2026-03-30T13:24:30.687Z</time></trkpt><trkpt lat="43.2110333" lon="2.3358783"><ele>120.5</ele><time>2026-03-30T13:24:31.686Z</time></trkpt><trkpt lat="43.2110383" lon="2.3357683"><ele>120.66666666666667</ele><time>2026-03-30T13:24:32.685Z</time></trkpt><trkpt lat="43.2110417" lon="2.3356783"><ele>120.83333333333334</ele><time>2026-03-30T13:24:33.688Z</time></trkpt><trkpt lat="43.2110417" lon="2.3355433"><ele>121.0</ele><time>2026-03-30T13:24:35.685Z</time></trkpt><trkpt lat="43.2110433" lon="2.3354433"><ele>121.0</ele><time>2026-03-30T13:24:38.685Z</time></trkpt><trkpt lat="43.2110433" lon="2.3352967"><ele>121.0</ele><time>2026-03-30T13:24:57.686Z</time></trkpt><trkpt lat="43.2110483" lon="2.3351817"><ele>121.0</ele><time>2026-03-30T13:24:58.686Z</time></trkpt><trkpt lat="43.2110583" lon="2.3350483"><ele>121.0</ele><time>2026-03-30T13:24:59.687Z</time></trkpt><trkpt lat="43.2110667" lon="2.3348967"><ele>121.0</ele><time>2026-03-30T13:25:00.687Z</time></trkpt><trkpt lat="43.2110683" lon="2.3347367"><ele>121.25</ele><time>2026-03-30T13:25:01.687Z</time></trkpt><trkpt lat="43.2110683" lon="2.3345633"><ele>121.5</ele><time>2026-03-30T13:25:02.687Z</time></trkpt><trkpt lat="43.211075" lon="2.3343833"><ele>121.75</ele><time>2026-03-30T13:25:03.686Z</time></trkpt><trkpt lat="43.211085" lon="2.3342017"><ele>122.0</ele><time>2026-03-30T13:25:04.688Z</time></trkpt><trkpt lat="43.2110983" lon="2.3340167"><ele>122.0</ele><time>2026-03-30T13:25:05.686Z</time></trkpt><trkpt lat="43.2111183" lon="2.333835"><ele>122.0</ele><time>2026-03-30T13:25:06.685Z</time></trkpt><trkpt lat="43.2111367" lon="2.3336633"><ele>122.0</ele><time>2026-03-30T13:25:07.684Z</time></trkpt><trkpt lat="43.21116" lon="2.333505"><ele>122.0</ele><time>2026-03-30T13:25:08.686Z</time></trkpt><trkpt lat="43.211185" lon="2.33336"><ele>122.0</ele><time>2026-03-30T13:25:09.685Z</time></trkpt><trkpt lat="43.2112083" lon="2.333225"><ele>121.99999999999999</ele><time>2026-03-30T13:25:10.685Z</time></trkpt><trkpt lat="43.2112283" lon="2.333095"><ele>121.99999999999999</ele><time>2026-03-30T13:25:11.686Z</time></trkpt><trkpt lat="43.2112467" lon="2.3329783"><ele>122.0</ele><time>2026-03-30T13:25:12.684Z</time></trkpt><trkpt lat="43.2112617" lon="2.3328733"><ele>122.0</ele><time>2026-03-30T13:25:13.685Z</time></trkpt><trkpt lat="43.21127" lon="2.33274"><ele>121.49999999999999</ele><time>2026-03-30T13:25:15.684Z</time></trkpt><trkpt lat="43.211285" lon="2.33262"><ele>121.0</ele><time>2026-03-30T13:25:41.688Z</time></trkpt><trkpt lat="43.2113033" lon="2.3325317"><ele>120.5</ele><time>2026-03-30T13:25:42.686Z</time></trkpt><trkpt lat="43.211335" lon="2.3324217"><ele>120.0</ele><time>2026-03-30T13:25:43.686Z</time></trkpt><trkpt lat="43.2113633" lon="2.3323033"><ele>119.49999999999999</ele><time>2026-03-30T13:25:44.69Z</time></trkpt><trkpt lat="43.2114" lon="2.3321783"><ele>119.0</ele><time>2026-03-30T13:25:45.687Z</time></trkpt><trkpt lat="43.2114417" lon="2.332045"><ele>118.75</ele><time>2026-03-30T13:25:46.687Z</time></trkpt><trkpt lat="43.21149" lon="2.331905"><ele>118.5</ele><time>2026-03-30T13:25:47.685Z</time></trkpt><trkpt lat="43.211535" lon="2.3317433"><ele>118.25</ele><time>2026-03-30T13:25:48.686Z</time></trkpt><trkpt lat="43.2115833" lon="2.3315767"><ele>118.0</ele><time>2026-03-30T13:25:49.687Z</time></trkpt><trkpt lat="43.211635" lon="2.331415"><ele>117.75</ele><time>2026-03-30T13:25:50.685Z</time></trkpt><trkpt lat="43.2116883" lon="2.3312567"><ele>117.5</ele><time>2026-03-30T13:25:51.686Z</time></trkpt><trkpt lat="43.2117433" lon="2.3311067"><ele>117.25</ele><time>2026-03-30T13:25:52.686Z</time></trkpt><trkpt lat="43.21179" lon="2.3309617"><ele>117.0</ele><time>2026-03-30T13:25:53.686Z</time></trkpt><trkpt lat="43.2118383" lon="2.3308183"><ele>117.0</ele><time>2026-03-30T13:25:54.687Z</time></trkpt><trkpt lat="43.211885" lon="2.3306783"><ele>116.99999999999999</ele><time>2026-03-30T13:25:55.687Z</time></trkpt><trkpt lat="43.21189" lon="2.33056"><ele>116.99999999999999</ele><time>2026-03-30T13:25:56.687Z</time></trkpt><trkpt lat="43.2119033" lon="2.3304617"><ele>117.0</ele><time>2026-03-30T13:25:57.687Z</time></trkpt><trkpt lat="43.2119333" lon="2.3303117"><ele>117.0</ele><time>2026-03-30T13:25:59.686Z</time></trkpt><trkpt lat="43.2119833" lon="2.3302483"><ele>116.8</ele><time>2026-03-30T13:26:02.686Z</time></trkpt><trkpt lat="43.2120783" lon="2.33015"><ele>116.6</ele><time>2026-03-30T13:26:05.686Z</time></trkpt><trkpt lat="43.212105" lon="2.330055"><ele>116.39999999999999</ele><time>2026-03-30T13:26:06.685Z</time></trkpt><trkpt lat="43.212105" lon="2.329935"><ele>116.19999999999999</ele><time>2026-03-30T13:26:07.686Z</time></trkpt><trkpt lat="43.21209" lon="2.3298133"><ele>116.0</ele><time>2026-03-30T13:26:08.686Z</time></trkpt><trkpt lat="43.2120967" lon="2.3296833"><ele>116.0</ele><time>2026-03-30T13:26:09.685Z</time></trkpt><trkpt lat="43.212135" lon="2.3295433"><ele>116.0</ele><time>2026-03-30T13:26:10.685Z</time></trkpt><trkpt lat="43.2121783" lon="2.3293867"><ele>116.0</ele><time>2026-03-30T13:26:11.685Z</time></trkpt><trkpt lat="43.2122167" lon="2.329215"><ele>116.0</ele><time>2026-03-30T13:26:12.689Z</time></trkpt><trkpt lat="43.2122533" lon="2.32904"><ele>116.0</ele><time>2026-03-30T13:26:13.687Z</time></trkpt><trkpt lat="43.2122933" lon="2.3288583"><ele>116.0</ele><time>2026-03-30T13:26:14.685Z</time></trkpt><trkpt lat="43.212345" lon="2.32868"><ele>116.0</ele><time>2026-03-30T13:26:15.686Z</time></trkpt><trkpt lat="43.212395" lon="2.328495"><ele>116.0</ele><time>2026-03-30T13:26:16.686Z</time></trkpt><trkpt lat="43.2124383" lon="2.328295"><ele>116.0</ele><time>2026-03-30T13:26:17.684Z</time></trkpt><trkpt lat="43.2124783" lon="2.32809"><ele>116.0</ele><time>2026-03-30T13:26:18.687Z</time></trkpt><trkpt lat="43.212515" lon="2.327895"><ele>116.0</ele><time>2026-03-30T13:26:19.685Z</time></trkpt><trkpt lat="43.212545" lon="2.327715"><ele>116.0</ele><time>2026-03-30T13:26:20.685Z</time></trkpt><trkpt lat="43.2125717" lon="2.32755"><ele>116.0</ele><time>2026-03-30T13:26:21.686Z</time></trkpt><trkpt lat="43.2126017" lon="2.3274017"><ele>116.0</ele><time>2026-03-30T13:26:22.686Z</time></trkpt><trkpt lat="43.2126383" lon="2.3272617"><ele>116.0</ele><time>2026-03-30T13:26:23.688Z</time></trkpt><trkpt lat="43.2126783" lon="2.3271283"><ele>116.0</ele><time>2026-03-30T13:26:24.689Z</time></trkpt><trkpt lat="43.212715" lon="2.3270117"><ele>116.0</ele><time>2026-03-30T13:26:25.685Z</time></trkpt><trkpt lat="43.212705" lon="2.3268933"><ele>115.4</ele><time>2026-03-30T13:26:26.688Z</time></trkpt><trkpt lat="43.2126817" lon="2.3268067"><ele>114.8</ele><time>2026-03-30T13:26:27.685Z</time></trkpt><trkpt lat="43.2126317" lon="2.3267433"><ele>114.20000000000002</ele><time>2026-03-30T13:26:28.686Z</time></trkpt><trkpt lat="43.2125283" lon="2.3267167"><ele>113.60000000000001</ele><time>2026-03-30T13:26:29.686Z</time></trkpt><trkpt lat="43.21241" lon="2.326715"><ele>113.0</ele><time>2026-03-30T13:26:30.689Z</time></trkpt><trkpt lat="43.2122783" lon="2.326695"><ele>112.75</ele><time>2026-03-30T13:26:31.685Z</time></trkpt><trkpt lat="43.2121383" lon="2.3266567"><ele>112.5</ele><time>2026-03-30T13:26:32.686Z</time></trkpt><trkpt lat="43.2119967" lon="2.3266167"><ele>112.25</ele><time>2026-03-30T13:26:33.686Z</time></trkpt><trkpt lat="43.2118583" lon="2.3265833"><ele>112.0</ele><time>2026-03-30T13:26:34.691Z</time></trkpt><trkpt lat="43.211725" lon="2.3265583"><ele>112.0</ele><time>2026-03-30T13:26:35.685Z</time></trkpt><trkpt lat="43.2116067" lon="2.3265317"><ele>111.99999999999999</ele><time>2026-03-30T13:26:36.684Z</time></trkpt><trkpt lat="43.21149" lon="2.3265133"><ele>111.99999999999999</ele><time>2026-03-30T13:26:37.686Z</time></trkpt><trkpt lat="43.211395" lon="2.326465"><ele>112.0</ele><time>2026-03-30T13:26:38.687Z</time></trkpt><trkpt lat="43.2113183" lon="2.326375"><ele>112.0</ele><time>2026-03-30T13:26:39.689Z</time></trkpt><trkpt lat="43.2112667" lon="2.3262383"><ele>111.5</ele><time>2026-03-30T13:26:40.687Z</time></trkpt><trkpt lat="43.2112533" lon="2.3260733"><ele>111.0</ele><time>2026-03-30T13:26:41.685Z</time></trkpt><trkpt lat="43.21126" lon="2.3258883"><ele>110.5</ele><time>2026-03-30T13:26:42.691Z</time></trkpt><trkpt lat="43.211275" lon="2.325695"><ele>110.0</ele><time>2026-03-30T13:26:43.688Z</time></trkpt><trkpt lat="43.211285" lon="2.3255067"><ele>110.0</ele><time>2026-03-30T13:26:44.687Z</time></trkpt><trkpt lat="43.2112967" lon="2.3253183"><ele>110.0</ele><time>2026-03-30T13:26:45.684Z</time></trkpt><trkpt lat="43.2113033" lon="2.3251383"><ele>110.0</ele><time>2026-03-30T13:26:46.686Z</time></trkpt><trkpt lat="43.2113033" lon="2.3249767"><ele>110.0</ele><time>2026-03-30T13:26:47.686Z</time></trkpt><trkpt lat="43.21131" lon="2.3248417"><ele>110.4</ele><time>2026-03-30T13:26:48.685Z</time></trkpt><trkpt lat="43.2113267" lon="2.3247067"><ele>110.8</ele><time>2026-03-30T13:26:49.685Z</time></trkpt><trkpt lat="43.2113717" lon="2.32458"><ele>111.19999999999999</ele><time>2026-03-30T13:26:50.685Z</time></trkpt><trkpt lat="43.211425" lon="2.32446"><ele>111.6</ele><time>2026-03-30T13:26:51.684Z</time></trkpt><trkpt lat="43.21146" lon="2.3243317"><ele>112.0</ele><time>2026-03-30T13:26:52.687Z</time></trkpt><trkpt lat="43.2114667" lon="2.32419"><ele>112.0</ele><time>2026-03-30T13:26:53.685Z</time></trkpt><trkpt lat="43.2114433" lon="2.324055"><ele>112.0</ele><time>2026-03-30T13:26:54.686Z</time></trkpt><trkpt lat="43.2114" lon="2.3239083"><ele>112.0</ele><time>2026-03-30T13:26:55.685Z</time></trkpt><trkpt lat="43.2113667" lon="2.3237417"><ele>112.0</ele><time>2026-03-30T13:26:56.687Z</time></trkpt><trkpt lat="43.2113567" lon="2.32354"><ele>112.66666666666667</ele><time>2026-03-30T13:26:57.686Z</time></trkpt><trkpt lat="43.2113567" lon="2.3233283"><ele>113.33333333333334</ele><time>2026-03-30T13:26:58.685Z</time></trkpt><trkpt lat="43.21135" lon="2.3231133"><ele>114.0</ele><time>2026-03-30T13:26:59.686Z</time></trkpt><trkpt lat="43.211355" lon="2.3228933"><ele>114.33333333333334</ele><time>2026-03-30T13:27:00.686Z</time></trkpt><trkpt lat="43.2113617" lon="2.322665"><ele>114.66666666666667</ele><time>2026-03-30T13:27:01.686Z</time></trkpt><trkpt lat="43.21137" lon="2.322425"><ele>115.0</ele><time>2026-03-30T13:27:02.687Z</time></trkpt><trkpt lat="43.2113783" lon="2.3221833"><ele>115.33333333333334</ele><time>2026-03-30T13:27:03.688Z</time></trkpt><trkpt lat="43.2113817" lon="2.3219483"><ele>115.66666666666666</ele><time>2026-03-30T13:27:04.687Z</time></trkpt><trkpt lat="43.2113867" lon="2.3217317"><ele>116.0</ele><time>2026-03-30T13:27:05.686Z</time></trkpt><trkpt lat="43.2113883" lon="2.321525"><ele>116.25</ele><time>2026-03-30T13:27:06.686Z</time></trkpt><trkpt lat="43.2113983" lon="2.3213333"><ele>116.5</ele><time>2026-03-30T13:27:07.686Z</time></trkpt><trkpt lat="43.2114083" lon="2.3211517"><ele>116.75</ele><time>2026-03-30T13:27:08.686Z</time></trkpt><trkpt lat="43.2114233" lon="2.320995"><ele>117.0</ele><time>2026-03-30T13:27:09.688Z</time></trkpt><trkpt lat="43.211435" lon="2.320865"><ele>117.0</ele><time>2026-03-30T13:27:10.685Z</time></trkpt><trkpt lat="43.2114517" lon="2.3207383"><ele>117.0</ele><time>2026-03-30T13:27:11.688Z</time></trkpt><trkpt lat="43.21147" lon="2.3206267"><ele>117.0</ele><time>2026-03-30T13:27:12.686Z</time></trkpt><trkpt lat="43.2114883" lon="2.3205367"><ele>117.0</ele><time>2026-03-30T13:27:13.687Z</time></trkpt><trkpt lat="43.211505" lon="2.3204467"><ele>117.0</ele><time>2026-03-30T13:27:14.688Z</time></trkpt><trkpt lat="43.2115333" lon="2.320315"><ele>117.0</ele><time>2026-03-30T13:27:16.689Z</time></trkpt><trkpt lat="43.2115567" lon="2.320185"><ele>117.0</ele><time>2026-03-30T13:27:18.687Z</time></trkpt><trkpt lat="43.21161" lon="2.32003"><ele>116.99999999999999</ele><time>2026-03-30T13:27:20.687Z</time></trkpt><trkpt lat="43.2116483" lon="2.3199483"><ele>116.99999999999999</ele><time>2026-03-30T13:27:21.689Z</time></trkpt><trkpt lat="43.2116883" lon="2.319855"><ele>117.0</ele><time>2026-03-30T13:27:22.688Z</time></trkpt><trkpt lat="43.2117283" lon="2.3197483"><ele>117.0</ele><time>2026-03-30T13:27:23.687Z</time></trkpt><trkpt lat="43.211755" lon="2.3196267"><ele>117.0</ele><time>2026-03-30T13:27:24.688Z</time></trkpt><trkpt lat="43.21176" lon="2.3195067"><ele>116.99999999999999</ele><time>2026-03-30T13:27:25.686Z</time></trkpt><trkpt lat="43.2116933" lon="2.3194167"><ele>116.99999999999999</ele><time>2026-03-30T13:27:26.687Z</time></trkpt><trkpt lat="43.2115883" lon="2.3193733"><ele>117.0</ele><time>2026-03-30T13:27:27.687Z</time></trkpt><trkpt lat="43.2114833" lon="2.319365"><ele>117.0</ele><time>2026-03-30T13:27:28.686Z</time></trkpt><trkpt lat="43.2113817" lon="2.3194367"><ele>117.0</ele><time>2026-03-30T13:27:29.685Z</time></trkpt><trkpt lat="43.211285" lon="2.3195383"><ele>117.0</ele><time>2026-03-30T13:27:30.687Z</time></trkpt><trkpt lat="43.211185" lon="2.3196333"><ele>117.0</ele><time>2026-03-30T13:27:31.686Z</time></trkpt><trkpt lat="43.2110833" lon="2.3196817"><ele>117.0</ele><time>2026-03-30T13:27:32.685Z</time></trkpt><trkpt lat="43.2109817" lon="2.3197017"><ele>117.0</ele><time>2026-03-30T13:27:33.686Z</time></trkpt><trkpt lat="43.210885" lon="2.319705"><ele>117.0</ele><time>2026-03-30T13:27:34.687Z</time></trkpt><trkpt lat="43.2108" lon="2.3196967"><ele>117.0</ele><time>2026-03-30T13:27:35.686Z</time></trkpt><trkpt lat="43.21072" lon="2.3196833"><ele>117.0</ele><time>2026-03-30T13:27:36.685Z</time></trkpt><trkpt lat="43.2106567" lon="2.3196517"><ele>117.0</ele><time>2026-03-30T13:27:37.686Z</time></trkpt><trkpt lat="43.2105817" lon="2.319575"><ele>117.0</ele><time>2026-03-30T13:27:39.686Z</time></trkpt><trkpt lat="43.2105117" lon="2.3195583"><ele>118.0</ele><time>2026-03-30T13:27:44.687Z</time></trkpt><trkpt lat="43.21044" lon="2.3195367"><ele>118.0</ele><time>2026-03-30T13:27:51.686Z</time></trkpt></trkseg></trk></gpx>